<?xml version="1.0" encoding="UTF-8" standalone="no" ?>
<gpx xmlns="http://www.topografix.com/GPX/1/1" xmlns:xsi="http://www.w3.org/2001/XMLSchema-instance" xsi:schemaLocation="http://www.topografix.com/GPX/1/1 http://www.topografix.com/GPX/1/1/gpx.xsd" version="1.1" creator="VisuGPX - https://www.visugpx.com">
  <metadata>
    <name>Rochefort</name>
    <desc><![CDATA[#véloroute]]></desc>
  </metadata>
  <trk>
    <name><![CDATA[Rochefort_1]]></name>
    <trkseg>
      <trkpt lat="45.92648" lon="-0.94969">
        <ele>5.1</ele>
        <time>2022-06-21T09:48:53Z</time>
      </trkpt>
      <trkpt lat="45.92648" lon="-0.94969">
        <ele>5.1</ele>
        <time>2022-06-21T09:48:54Z</time>
      </trkpt>
      <trkpt lat="45.92648" lon="-0.94969">
        <ele>5.1</ele>
        <time>2022-06-21T09:48:55Z</time>
      </trkpt>
      <trkpt lat="45.92648" lon="-0.94968">
        <ele>5.1</ele>
        <time>2022-06-21T09:48:56Z</time>
      </trkpt>
      <trkpt lat="45.92648" lon="-0.94968">
        <ele>5.1</ele>
        <time>2022-06-21T09:48:57Z</time>
      </trkpt>
      <trkpt lat="45.92649" lon="-0.94967">
        <ele>5.1</ele>
        <time>2022-06-21T09:48:58Z</time>
      </trkpt>
      <trkpt lat="45.92649" lon="-0.94967">
        <ele>5.1</ele>
        <time>2022-06-21T09:48:59Z</time>
      </trkpt>
      <trkpt lat="45.92649" lon="-0.94967">
        <ele>5.1</ele>
        <time>2022-06-21T09:49:00Z</time>
      </trkpt>
      <trkpt lat="45.9265" lon="-0.94968">
        <ele>5.1</ele>
        <time>2022-06-21T09:49:01Z</time>
      </trkpt>
      <trkpt lat="45.9265" lon="-0.94969">
        <ele>5.1</ele>
        <time>2022-06-21T09:49:02Z</time>
      </trkpt>
      <trkpt lat="45.92651" lon="-0.94968">
        <ele>5.1</ele>
        <time>2022-06-21T09:49:03Z</time>
      </trkpt>
      <trkpt lat="45.92651" lon="-0.94967">
        <ele>5</ele>
        <time>2022-06-21T09:49:04Z</time>
      </trkpt>
      <trkpt lat="45.92652" lon="-0.94967">
        <ele>5</ele>
        <time>2022-06-21T09:49:05Z</time>
      </trkpt>
      <trkpt lat="45.92652" lon="-0.94966">
        <ele>5</ele>
        <time>2022-06-21T09:49:07Z</time>
      </trkpt>
      <trkpt lat="45.92652" lon="-0.94965">
        <ele>5</ele>
        <time>2022-06-21T09:49:08Z</time>
      </trkpt>
      <trkpt lat="45.92652" lon="-0.94964">
        <ele>5</ele>
        <time>2022-06-21T09:49:09Z</time>
      </trkpt>
      <trkpt lat="45.92653" lon="-0.94964">
        <ele>5</ele>
        <time>2022-06-21T09:49:10Z</time>
      </trkpt>
      <trkpt lat="45.92653" lon="-0.94963">
        <ele>5</ele>
        <time>2022-06-21T09:49:11Z</time>
      </trkpt>
      <trkpt lat="45.92653" lon="-0.94962">
        <ele>5</ele>
        <time>2022-06-21T09:49:12Z</time>
      </trkpt>
      <trkpt lat="45.92653" lon="-0.94962">
        <ele>5</ele>
        <time>2022-06-21T09:49:13Z</time>
      </trkpt>
      <trkpt lat="45.92653" lon="-0.94961">
        <ele>5</ele>
        <time>2022-06-21T09:49:14Z</time>
      </trkpt>
      <trkpt lat="45.92654" lon="-0.9496">
        <ele>4.9</ele>
        <time>2022-06-21T09:49:16Z</time>
      </trkpt>
      <trkpt lat="45.92654" lon="-0.9496">
        <ele>4.9</ele>
        <time>2022-06-21T09:49:17Z</time>
      </trkpt>
      <trkpt lat="45.92654" lon="-0.94959">
        <ele>4.9</ele>
        <time>2022-06-21T09:49:18Z</time>
      </trkpt>
      <trkpt lat="45.92654" lon="-0.94958">
        <ele>4.9</ele>
        <time>2022-06-21T09:49:19Z</time>
      </trkpt>
      <trkpt lat="45.92654" lon="-0.94957">
        <ele>4.9</ele>
        <time>2022-06-21T09:49:21Z</time>
      </trkpt>
      <trkpt lat="45.92655" lon="-0.94957">
        <ele>4.9</ele>
        <time>2022-06-21T09:49:22Z</time>
      </trkpt>
      <trkpt lat="45.92655" lon="-0.94956">
        <ele>4.9</ele>
        <time>2022-06-21T09:49:23Z</time>
      </trkpt>
      <trkpt lat="45.92655" lon="-0.94955">
        <ele>4.9</ele>
        <time>2022-06-21T09:49:24Z</time>
      </trkpt>
      <trkpt lat="45.92655" lon="-0.94954">
        <ele>4.9</ele>
        <time>2022-06-21T09:49:25Z</time>
      </trkpt>
      <trkpt lat="45.92655" lon="-0.94952">
        <ele>4.8</ele>
        <time>2022-06-21T09:49:26Z</time>
      </trkpt>
      <trkpt lat="45.92655" lon="-0.9495">
        <ele>4.8</ele>
        <time>2022-06-21T09:49:28Z</time>
      </trkpt>
      <trkpt lat="45.92655" lon="-0.9495">
        <ele>4.8</ele>
        <time>2022-06-21T09:49:29Z</time>
      </trkpt>
      <trkpt lat="45.92656" lon="-0.94949">
        <ele>4.8</ele>
        <time>2022-06-21T09:49:30Z</time>
      </trkpt>
      <trkpt lat="45.92656" lon="-0.94949">
        <ele>4.8</ele>
        <time>2022-06-21T09:49:31Z</time>
      </trkpt>
      <trkpt lat="45.92656" lon="-0.94949">
        <ele>4.8</ele>
        <time>2022-06-21T09:49:32Z</time>
      </trkpt>
      <trkpt lat="45.92656" lon="-0.94949">
        <ele>4.8</ele>
        <time>2022-06-21T09:49:33Z</time>
      </trkpt>
      <trkpt lat="45.92655" lon="-0.94949">
        <ele>4.8</ele>
        <time>2022-06-21T09:49:34Z</time>
      </trkpt>
      <trkpt lat="45.92655" lon="-0.94949">
        <ele>4.7</ele>
        <time>2022-06-21T09:49:35Z</time>
      </trkpt>
      <trkpt lat="45.92655" lon="-0.9495">
        <ele>4.7</ele>
        <time>2022-06-21T09:49:36Z</time>
      </trkpt>
      <trkpt lat="45.92655" lon="-0.94949">
        <ele>4.7</ele>
        <time>2022-06-21T09:49:37Z</time>
      </trkpt>
      <trkpt lat="45.92655" lon="-0.94949">
        <ele>4.7</ele>
        <time>2022-06-21T09:49:38Z</time>
      </trkpt>
      <trkpt lat="45.92656" lon="-0.94949">
        <ele>4.7</ele>
        <time>2022-06-21T09:49:39Z</time>
      </trkpt>
      <trkpt lat="45.92656" lon="-0.94948">
        <ele>4.7</ele>
        <time>2022-06-21T09:49:40Z</time>
      </trkpt>
      <trkpt lat="45.92656" lon="-0.94947">
        <ele>4.7</ele>
        <time>2022-06-21T09:49:41Z</time>
      </trkpt>
      <trkpt lat="45.92656" lon="-0.94946">
        <ele>4.7</ele>
        <time>2022-06-21T09:49:42Z</time>
      </trkpt>
      <trkpt lat="45.92656" lon="-0.94945">
        <ele>4.7</ele>
        <time>2022-06-21T09:49:43Z</time>
      </trkpt>
      <trkpt lat="45.92656" lon="-0.94943">
        <ele>4.6</ele>
        <time>2022-06-21T09:49:45Z</time>
      </trkpt>
      <trkpt lat="45.92655" lon="-0.94943">
        <ele>4.6</ele>
        <time>2022-06-21T09:49:46Z</time>
      </trkpt>
      <trkpt lat="45.92655" lon="-0.94942">
        <ele>4.6</ele>
        <time>2022-06-21T09:49:47Z</time>
      </trkpt>
      <trkpt lat="45.92654" lon="-0.94941">
        <ele>4.6</ele>
        <time>2022-06-21T09:49:48Z</time>
      </trkpt>
      <trkpt lat="45.92654" lon="-0.9494">
        <ele>4.6</ele>
        <time>2022-06-21T09:49:49Z</time>
      </trkpt>
      <trkpt lat="45.92654" lon="-0.9494">
        <ele>4.5</ele>
        <time>2022-06-21T09:49:50Z</time>
      </trkpt>
      <trkpt lat="45.92654" lon="-0.94939">
        <ele>4.5</ele>
        <time>2022-06-21T09:49:51Z</time>
      </trkpt>
      <trkpt lat="45.92654" lon="-0.94939">
        <ele>4.5</ele>
        <time>2022-06-21T09:49:52Z</time>
      </trkpt>
      <trkpt lat="45.92654" lon="-0.94938">
        <ele>4.4</ele>
        <time>2022-06-21T09:49:53Z</time>
      </trkpt>
      <trkpt lat="45.92654" lon="-0.94938">
        <ele>4.4</ele>
        <time>2022-06-21T09:49:54Z</time>
      </trkpt>
      <trkpt lat="45.92654" lon="-0.94938">
        <ele>4.4</ele>
        <time>2022-06-21T09:49:56Z</time>
      </trkpt>
      <trkpt lat="45.92653" lon="-0.94938">
        <ele>4.4</ele>
        <time>2022-06-21T09:49:57Z</time>
      </trkpt>
      <trkpt lat="45.92653" lon="-0.94938">
        <ele>4.4</ele>
        <time>2022-06-21T09:49:59Z</time>
      </trkpt>
      <trkpt lat="45.92652" lon="-0.94938">
        <ele>4.4</ele>
        <time>2022-06-21T09:50:00Z</time>
      </trkpt>
      <trkpt lat="45.92651" lon="-0.94938">
        <ele>4.4</ele>
        <time>2022-06-21T09:50:01Z</time>
      </trkpt>
      <trkpt lat="45.92651" lon="-0.94937">
        <ele>4.4</ele>
        <time>2022-06-21T09:50:02Z</time>
      </trkpt>
      <trkpt lat="45.9265" lon="-0.94937">
        <ele>4.4</ele>
        <time>2022-06-21T09:50:03Z</time>
      </trkpt>
      <trkpt lat="45.92649" lon="-0.94937">
        <ele>4.4</ele>
        <time>2022-06-21T09:50:04Z</time>
      </trkpt>
      <trkpt lat="45.92649" lon="-0.94937">
        <ele>4.4</ele>
        <time>2022-06-21T09:50:05Z</time>
      </trkpt>
      <trkpt lat="45.92649" lon="-0.94937">
        <ele>4.4</ele>
        <time>2022-06-21T09:50:06Z</time>
      </trkpt>
      <trkpt lat="45.92649" lon="-0.94937">
        <ele>4.4</ele>
        <time>2022-06-21T09:50:07Z</time>
      </trkpt>
      <trkpt lat="45.92649" lon="-0.94937">
        <ele>4.4</ele>
        <time>2022-06-21T09:50:08Z</time>
      </trkpt>
      <trkpt lat="45.92649" lon="-0.94937">
        <ele>4.4</ele>
        <time>2022-06-21T09:50:09Z</time>
      </trkpt>
      <trkpt lat="45.92649" lon="-0.94937">
        <ele>4.4</ele>
        <time>2022-06-21T09:50:10Z</time>
      </trkpt>
      <trkpt lat="45.92648" lon="-0.94937">
        <ele>4.4</ele>
        <time>2022-06-21T09:50:11Z</time>
      </trkpt>
      <trkpt lat="45.92647" lon="-0.94936">
        <ele>4.4</ele>
        <time>2022-06-21T09:50:14Z</time>
      </trkpt>
      <trkpt lat="45.92647" lon="-0.94936">
        <ele>4.4</ele>
        <time>2022-06-21T09:50:15Z</time>
      </trkpt>
      <trkpt lat="45.92647" lon="-0.94935">
        <ele>4.4</ele>
        <time>2022-06-21T09:50:16Z</time>
      </trkpt>
      <trkpt lat="45.92647" lon="-0.94935">
        <ele>4.4</ele>
        <time>2022-06-21T09:50:17Z</time>
      </trkpt>
      <trkpt lat="45.92647" lon="-0.94935">
        <ele>4.4</ele>
        <time>2022-06-21T09:50:18Z</time>
      </trkpt>
      <trkpt lat="45.92646" lon="-0.94935">
        <ele>4.4</ele>
        <time>2022-06-21T09:50:19Z</time>
      </trkpt>
      <trkpt lat="45.92645" lon="-0.94935">
        <ele>4.4</ele>
        <time>2022-06-21T09:50:20Z</time>
      </trkpt>
      <trkpt lat="45.92645" lon="-0.94935">
        <ele>4.4</ele>
        <time>2022-06-21T09:50:21Z</time>
      </trkpt>
      <trkpt lat="45.92645" lon="-0.94935">
        <ele>4.4</ele>
        <time>2022-06-21T09:50:22Z</time>
      </trkpt>
      <trkpt lat="45.92645" lon="-0.94935">
        <ele>4.4</ele>
        <time>2022-06-21T09:50:23Z</time>
      </trkpt>
      <trkpt lat="45.92645" lon="-0.94935">
        <ele>4.4</ele>
        <time>2022-06-21T09:50:24Z</time>
      </trkpt>
      <trkpt lat="45.92645" lon="-0.94935">
        <ele>4.4</ele>
        <time>2022-06-21T09:50:25Z</time>
      </trkpt>
      <trkpt lat="45.92645" lon="-0.94935">
        <ele>4.4</ele>
        <time>2022-06-21T09:50:26Z</time>
      </trkpt>
      <trkpt lat="45.92645" lon="-0.94935">
        <ele>4.4</ele>
        <time>2022-06-21T09:50:27Z</time>
      </trkpt>
      <trkpt lat="45.92645" lon="-0.94935">
        <ele>4.4</ele>
        <time>2022-06-21T09:50:28Z</time>
      </trkpt>
      <trkpt lat="45.92645" lon="-0.94935">
        <ele>4.4</ele>
        <time>2022-06-21T09:50:29Z</time>
      </trkpt>
      <trkpt lat="45.92645" lon="-0.94935">
        <ele>4.4</ele>
        <time>2022-06-21T09:50:30Z</time>
      </trkpt>
      <trkpt lat="45.92645" lon="-0.94935">
        <ele>4.4</ele>
        <time>2022-06-21T09:50:31Z</time>
      </trkpt>
      <trkpt lat="45.92645" lon="-0.94935">
        <ele>4.4</ele>
        <time>2022-06-21T09:50:32Z</time>
      </trkpt>
      <trkpt lat="45.92645" lon="-0.94935">
        <ele>4.4</ele>
        <time>2022-06-21T09:50:33Z</time>
      </trkpt>
      <trkpt lat="45.92645" lon="-0.94935">
        <ele>4.4</ele>
        <time>2022-06-21T09:50:34Z</time>
      </trkpt>
      <trkpt lat="45.92645" lon="-0.94935">
        <ele>4.4</ele>
        <time>2022-06-21T09:50:35Z</time>
      </trkpt>
      <trkpt lat="45.92645" lon="-0.94935">
        <ele>4.4</ele>
        <time>2022-06-21T09:50:36Z</time>
      </trkpt>
      <trkpt lat="45.92645" lon="-0.94935">
        <ele>4.4</ele>
        <time>2022-06-21T09:50:37Z</time>
      </trkpt>
      <trkpt lat="45.92645" lon="-0.94935">
        <ele>4.4</ele>
        <time>2022-06-21T09:50:38Z</time>
      </trkpt>
      <trkpt lat="45.92645" lon="-0.94935">
        <ele>4.4</ele>
        <time>2022-06-21T09:50:39Z</time>
      </trkpt>
      <trkpt lat="45.92645" lon="-0.94935">
        <ele>4.4</ele>
        <time>2022-06-21T09:50:40Z</time>
      </trkpt>
      <trkpt lat="45.92645" lon="-0.94935">
        <ele>4.4</ele>
        <time>2022-06-21T09:50:41Z</time>
      </trkpt>
      <trkpt lat="45.92645" lon="-0.94935">
        <ele>4.4</ele>
        <time>2022-06-21T09:50:42Z</time>
      </trkpt>
      <trkpt lat="45.92645" lon="-0.94935">
        <ele>4.4</ele>
        <time>2022-06-21T09:50:43Z</time>
      </trkpt>
      <trkpt lat="45.92645" lon="-0.94935">
        <ele>4.4</ele>
        <time>2022-06-21T09:50:44Z</time>
      </trkpt>
      <trkpt lat="45.92645" lon="-0.94935">
        <ele>4.4</ele>
        <time>2022-06-21T09:50:45Z</time>
      </trkpt>
      <trkpt lat="45.92645" lon="-0.94935">
        <ele>4.4</ele>
        <time>2022-06-21T09:50:46Z</time>
      </trkpt>
      <trkpt lat="45.92645" lon="-0.94935">
        <ele>4.4</ele>
        <time>2022-06-21T09:50:47Z</time>
      </trkpt>
      <trkpt lat="45.92645" lon="-0.94935">
        <ele>4.4</ele>
        <time>2022-06-21T09:50:48Z</time>
      </trkpt>
      <trkpt lat="45.92645" lon="-0.94935">
        <ele>4.4</ele>
        <time>2022-06-21T09:50:49Z</time>
      </trkpt>
      <trkpt lat="45.92645" lon="-0.94935">
        <ele>4.4</ele>
        <time>2022-06-21T09:50:50Z</time>
      </trkpt>
      <trkpt lat="45.92645" lon="-0.94935">
        <ele>4.4</ele>
        <time>2022-06-21T09:50:51Z</time>
      </trkpt>
      <trkpt lat="45.92645" lon="-0.94935">
        <ele>4.4</ele>
        <time>2022-06-21T09:50:52Z</time>
      </trkpt>
      <trkpt lat="45.92645" lon="-0.94935">
        <ele>4.4</ele>
        <time>2022-06-21T09:50:53Z</time>
      </trkpt>
      <trkpt lat="45.92645" lon="-0.94935">
        <ele>4.4</ele>
        <time>2022-06-21T09:50:54Z</time>
      </trkpt>
      <trkpt lat="45.92645" lon="-0.94935">
        <ele>4.4</ele>
        <time>2022-06-21T09:50:55Z</time>
      </trkpt>
      <trkpt lat="45.92645" lon="-0.94935">
        <ele>4.4</ele>
        <time>2022-06-21T09:50:56Z</time>
      </trkpt>
      <trkpt lat="45.92645" lon="-0.94935">
        <ele>4.4</ele>
        <time>2022-06-21T09:50:57Z</time>
      </trkpt>
      <trkpt lat="45.92645" lon="-0.94935">
        <ele>4.4</ele>
        <time>2022-06-21T09:50:58Z</time>
      </trkpt>
      <trkpt lat="45.92645" lon="-0.94935">
        <ele>4.4</ele>
        <time>2022-06-21T09:50:59Z</time>
      </trkpt>
      <trkpt lat="45.92645" lon="-0.94935">
        <ele>4.4</ele>
        <time>2022-06-21T09:51:00Z</time>
      </trkpt>
      <trkpt lat="45.92645" lon="-0.94935">
        <ele>4.4</ele>
        <time>2022-06-21T09:51:01Z</time>
      </trkpt>
      <trkpt lat="45.92645" lon="-0.94935">
        <ele>4.4</ele>
        <time>2022-06-21T09:51:02Z</time>
      </trkpt>
      <trkpt lat="45.92645" lon="-0.94935">
        <ele>4.4</ele>
        <time>2022-06-21T09:51:03Z</time>
      </trkpt>
      <trkpt lat="45.92645" lon="-0.94935">
        <ele>4.4</ele>
        <time>2022-06-21T09:51:04Z</time>
      </trkpt>
      <trkpt lat="45.92645" lon="-0.94935">
        <ele>4.4</ele>
        <time>2022-06-21T09:51:05Z</time>
      </trkpt>
      <trkpt lat="45.92645" lon="-0.94935">
        <ele>4.4</ele>
        <time>2022-06-21T09:51:06Z</time>
      </trkpt>
      <trkpt lat="45.92645" lon="-0.94935">
        <ele>4.4</ele>
        <time>2022-06-21T09:51:07Z</time>
      </trkpt>
      <trkpt lat="45.92645" lon="-0.94935">
        <ele>4.4</ele>
        <time>2022-06-21T09:51:08Z</time>
      </trkpt>
      <trkpt lat="45.92645" lon="-0.94935">
        <ele>4.4</ele>
        <time>2022-06-21T09:51:09Z</time>
      </trkpt>
      <trkpt lat="45.92645" lon="-0.94935">
        <ele>4.4</ele>
        <time>2022-06-21T09:51:10Z</time>
      </trkpt>
      <trkpt lat="45.92645" lon="-0.94935">
        <ele>4.4</ele>
        <time>2022-06-21T09:51:11Z</time>
      </trkpt>
      <trkpt lat="45.92645" lon="-0.94935">
        <ele>4.4</ele>
        <time>2022-06-21T09:51:12Z</time>
      </trkpt>
      <trkpt lat="45.92645" lon="-0.94935">
        <ele>4.4</ele>
        <time>2022-06-21T09:51:13Z</time>
      </trkpt>
      <trkpt lat="45.92645" lon="-0.94935">
        <ele>4.4</ele>
        <time>2022-06-21T09:51:14Z</time>
      </trkpt>
      <trkpt lat="45.92645" lon="-0.94935">
        <ele>4.4</ele>
        <time>2022-06-21T09:51:15Z</time>
      </trkpt>
      <trkpt lat="45.92645" lon="-0.94935">
        <ele>4.4</ele>
        <time>2022-06-21T09:51:16Z</time>
      </trkpt>
      <trkpt lat="45.92645" lon="-0.94935">
        <ele>4.4</ele>
        <time>2022-06-21T09:51:17Z</time>
      </trkpt>
      <trkpt lat="45.92645" lon="-0.94935">
        <ele>4.4</ele>
        <time>2022-06-21T09:51:18Z</time>
      </trkpt>
      <trkpt lat="45.92645" lon="-0.94935">
        <ele>4.4</ele>
        <time>2022-06-21T09:51:19Z</time>
      </trkpt>
      <trkpt lat="45.92645" lon="-0.94935">
        <ele>4.4</ele>
        <time>2022-06-21T09:51:20Z</time>
      </trkpt>
      <trkpt lat="45.92645" lon="-0.94935">
        <ele>4.4</ele>
        <time>2022-06-21T09:51:21Z</time>
      </trkpt>
      <trkpt lat="45.92645" lon="-0.94935">
        <ele>4.4</ele>
        <time>2022-06-21T09:51:22Z</time>
      </trkpt>
      <trkpt lat="45.92645" lon="-0.94935">
        <ele>4.4</ele>
        <time>2022-06-21T09:51:23Z</time>
      </trkpt>
      <trkpt lat="45.92645" lon="-0.94935">
        <ele>4.4</ele>
        <time>2022-06-21T09:51:24Z</time>
      </trkpt>
      <trkpt lat="45.92645" lon="-0.94935">
        <ele>4.4</ele>
        <time>2022-06-21T09:51:25Z</time>
      </trkpt>
      <trkpt lat="45.92645" lon="-0.94935">
        <ele>4.4</ele>
        <time>2022-06-21T09:51:26Z</time>
      </trkpt>
      <trkpt lat="45.92645" lon="-0.94935">
        <ele>4.4</ele>
        <time>2022-06-21T09:51:27Z</time>
      </trkpt>
      <trkpt lat="45.92645" lon="-0.94935">
        <ele>4.4</ele>
        <time>2022-06-21T09:51:28Z</time>
      </trkpt>
      <trkpt lat="45.92645" lon="-0.94935">
        <ele>4.4</ele>
        <time>2022-06-21T09:51:29Z</time>
      </trkpt>
      <trkpt lat="45.92645" lon="-0.94935">
        <ele>4.4</ele>
        <time>2022-06-21T09:51:30Z</time>
      </trkpt>
      <trkpt lat="45.92645" lon="-0.94935">
        <ele>4.4</ele>
        <time>2022-06-21T09:51:31Z</time>
      </trkpt>
      <trkpt lat="45.92645" lon="-0.94935">
        <ele>4.4</ele>
        <time>2022-06-21T09:51:32Z</time>
      </trkpt>
      <trkpt lat="45.92645" lon="-0.94935">
        <ele>4.4</ele>
        <time>2022-06-21T09:51:33Z</time>
      </trkpt>
      <trkpt lat="45.92645" lon="-0.94935">
        <ele>4.4</ele>
        <time>2022-06-21T09:51:34Z</time>
      </trkpt>
      <trkpt lat="45.92645" lon="-0.94935">
        <ele>4.4</ele>
        <time>2022-06-21T09:51:35Z</time>
      </trkpt>
      <trkpt lat="45.92645" lon="-0.94935">
        <ele>4.4</ele>
        <time>2022-06-21T09:51:36Z</time>
      </trkpt>
      <trkpt lat="45.92645" lon="-0.94935">
        <ele>4.4</ele>
        <time>2022-06-21T09:51:37Z</time>
      </trkpt>
      <trkpt lat="45.92645" lon="-0.94935">
        <ele>4.4</ele>
        <time>2022-06-21T09:51:38Z</time>
      </trkpt>
      <trkpt lat="45.92645" lon="-0.94935">
        <ele>4.4</ele>
        <time>2022-06-21T09:51:39Z</time>
      </trkpt>
      <trkpt lat="45.92645" lon="-0.94935">
        <ele>4.4</ele>
        <time>2022-06-21T09:51:40Z</time>
      </trkpt>
      <trkpt lat="45.92645" lon="-0.94935">
        <ele>4.4</ele>
        <time>2022-06-21T09:51:41Z</time>
      </trkpt>
      <trkpt lat="45.92645" lon="-0.94935">
        <ele>4.4</ele>
        <time>2022-06-21T09:51:42Z</time>
      </trkpt>
      <trkpt lat="45.92644" lon="-0.94934">
        <ele>4.4</ele>
        <time>2022-06-21T09:51:43Z</time>
      </trkpt>
      <trkpt lat="45.92645" lon="-0.94934">
        <ele>4.4</ele>
        <time>2022-06-21T09:51:44Z</time>
      </trkpt>
      <trkpt lat="45.92645" lon="-0.94934">
        <ele>4.4</ele>
        <time>2022-06-21T09:51:45Z</time>
      </trkpt>
      <trkpt lat="45.92645" lon="-0.94933">
        <ele>4.4</ele>
        <time>2022-06-21T09:51:46Z</time>
      </trkpt>
      <trkpt lat="45.92646" lon="-0.94933">
        <ele>4.4</ele>
        <time>2022-06-21T09:51:47Z</time>
      </trkpt>
      <trkpt lat="45.92646" lon="-0.94932">
        <ele>4.4</ele>
        <time>2022-06-21T09:51:48Z</time>
      </trkpt>
      <trkpt lat="45.92646" lon="-0.94933">
        <ele>4.4</ele>
        <time>2022-06-21T09:51:49Z</time>
      </trkpt>
      <trkpt lat="45.92646" lon="-0.94932">
        <ele>4.4</ele>
        <time>2022-06-21T09:51:50Z</time>
      </trkpt>
      <trkpt lat="45.92646" lon="-0.94933">
        <ele>4.4</ele>
        <time>2022-06-21T09:51:51Z</time>
      </trkpt>
      <trkpt lat="45.92646" lon="-0.94932">
        <ele>4.4</ele>
        <time>2022-06-21T09:51:53Z</time>
      </trkpt>
      <trkpt lat="45.92647" lon="-0.94932">
        <ele>4.4</ele>
        <time>2022-06-21T09:51:54Z</time>
      </trkpt>
      <trkpt lat="45.92647" lon="-0.94932">
        <ele>4.4</ele>
        <time>2022-06-21T09:51:55Z</time>
      </trkpt>
      <trkpt lat="45.92648" lon="-0.9493">
        <ele>4.4</ele>
        <time>2022-06-21T09:51:57Z</time>
      </trkpt>
      <trkpt lat="45.92648" lon="-0.9493">
        <ele>4.4</ele>
        <time>2022-06-21T09:51:58Z</time>
      </trkpt>
      <trkpt lat="45.92649" lon="-0.94929">
        <ele>4.4</ele>
        <time>2022-06-21T09:51:59Z</time>
      </trkpt>
      <trkpt lat="45.92651" lon="-0.94929">
        <ele>4.4</ele>
        <time>2022-06-21T09:52:00Z</time>
      </trkpt>
      <trkpt lat="45.92652" lon="-0.94929">
        <ele>4.4</ele>
        <time>2022-06-21T09:52:01Z</time>
      </trkpt>
      <trkpt lat="45.92652" lon="-0.9493">
        <ele>4.4</ele>
        <time>2022-06-21T09:52:02Z</time>
      </trkpt>
      <trkpt lat="45.92653" lon="-0.9493">
        <ele>4.4</ele>
        <time>2022-06-21T09:52:04Z</time>
      </trkpt>
      <trkpt lat="45.92654" lon="-0.94931">
        <ele>4.4</ele>
        <time>2022-06-21T09:52:05Z</time>
      </trkpt>
      <trkpt lat="45.92656" lon="-0.94932">
        <ele>4.4</ele>
        <time>2022-06-21T09:52:07Z</time>
      </trkpt>
      <trkpt lat="45.92657" lon="-0.94932">
        <ele>4.4</ele>
        <time>2022-06-21T09:52:08Z</time>
      </trkpt>
      <trkpt lat="45.92659" lon="-0.94932">
        <ele>4.4</ele>
        <time>2022-06-21T09:52:09Z</time>
      </trkpt>
      <trkpt lat="45.92662" lon="-0.94932">
        <ele>4.4</ele>
        <time>2022-06-21T09:52:10Z</time>
      </trkpt>
      <trkpt lat="45.92663" lon="-0.94932">
        <ele>4.4</ele>
        <time>2022-06-21T09:52:11Z</time>
      </trkpt>
      <trkpt lat="45.92665" lon="-0.94932">
        <ele>4.4</ele>
        <time>2022-06-21T09:52:12Z</time>
      </trkpt>
      <trkpt lat="45.92666" lon="-0.94932">
        <ele>4.4</ele>
        <time>2022-06-21T09:52:14Z</time>
      </trkpt>
      <trkpt lat="45.92668" lon="-0.94932">
        <ele>4.4</ele>
        <time>2022-06-21T09:52:15Z</time>
      </trkpt>
      <trkpt lat="45.9267" lon="-0.94932">
        <ele>4.4</ele>
        <time>2022-06-21T09:52:16Z</time>
      </trkpt>
      <trkpt lat="45.92671" lon="-0.94932">
        <ele>4.4</ele>
        <time>2022-06-21T09:52:17Z</time>
      </trkpt>
      <trkpt lat="45.92673" lon="-0.94932">
        <ele>4.4</ele>
        <time>2022-06-21T09:52:18Z</time>
      </trkpt>
      <trkpt lat="45.92674" lon="-0.94932">
        <ele>4.4</ele>
        <time>2022-06-21T09:52:19Z</time>
      </trkpt>
      <trkpt lat="45.92676" lon="-0.94932">
        <ele>4.4</ele>
        <time>2022-06-21T09:52:21Z</time>
      </trkpt>
      <trkpt lat="45.92677" lon="-0.94932">
        <ele>4.4</ele>
        <time>2022-06-21T09:52:22Z</time>
      </trkpt>
      <trkpt lat="45.92679" lon="-0.94933">
        <ele>4.4</ele>
        <time>2022-06-21T09:52:23Z</time>
      </trkpt>
      <trkpt lat="45.92681" lon="-0.94934">
        <ele>4.4</ele>
        <time>2022-06-21T09:52:24Z</time>
      </trkpt>
      <trkpt lat="45.92682" lon="-0.94934">
        <ele>4.4</ele>
        <time>2022-06-21T09:52:25Z</time>
      </trkpt>
      <trkpt lat="45.92682" lon="-0.94935">
        <ele>4.4</ele>
        <time>2022-06-21T09:52:26Z</time>
      </trkpt>
      <trkpt lat="45.92684" lon="-0.94936">
        <ele>4.4</ele>
        <time>2022-06-21T09:52:28Z</time>
      </trkpt>
      <trkpt lat="45.92685" lon="-0.94937">
        <ele>4.4</ele>
        <time>2022-06-21T09:52:29Z</time>
      </trkpt>
      <trkpt lat="45.92686" lon="-0.94938">
        <ele>4.4</ele>
        <time>2022-06-21T09:52:30Z</time>
      </trkpt>
      <trkpt lat="45.92687" lon="-0.94939">
        <ele>4.4</ele>
        <time>2022-06-21T09:52:31Z</time>
      </trkpt>
      <trkpt lat="45.92687" lon="-0.9494">
        <ele>4.4</ele>
        <time>2022-06-21T09:52:32Z</time>
      </trkpt>
      <trkpt lat="45.92687" lon="-0.9494">
        <ele>4.4</ele>
        <time>2022-06-21T09:52:33Z</time>
      </trkpt>
      <trkpt lat="45.92689" lon="-0.94942">
        <ele>4.4</ele>
        <time>2022-06-21T09:52:35Z</time>
      </trkpt>
      <trkpt lat="45.92689" lon="-0.94943">
        <ele>4.4</ele>
        <time>2022-06-21T09:52:36Z</time>
      </trkpt>
      <trkpt lat="45.9269" lon="-0.94944">
        <ele>4.4</ele>
        <time>2022-06-21T09:52:37Z</time>
      </trkpt>
      <trkpt lat="45.92691" lon="-0.94946">
        <ele>4.4</ele>
        <time>2022-06-21T09:52:38Z</time>
      </trkpt>
      <trkpt lat="45.92692" lon="-0.94947">
        <ele>4.4</ele>
        <time>2022-06-21T09:52:39Z</time>
      </trkpt>
      <trkpt lat="45.92693" lon="-0.94948">
        <ele>4.4</ele>
        <time>2022-06-21T09:52:40Z</time>
      </trkpt>
      <trkpt lat="45.92693" lon="-0.94949">
        <ele>4.4</ele>
        <time>2022-06-21T09:52:41Z</time>
      </trkpt>
      <trkpt lat="45.92694" lon="-0.9495">
        <ele>4.4</ele>
        <time>2022-06-21T09:52:42Z</time>
      </trkpt>
      <trkpt lat="45.92694" lon="-0.94952">
        <ele>4.4</ele>
        <time>2022-06-21T09:52:43Z</time>
      </trkpt>
      <trkpt lat="45.92696" lon="-0.94955">
        <ele>4.3</ele>
        <time>2022-06-21T09:52:44Z</time>
      </trkpt>
      <trkpt lat="45.92696" lon="-0.94957">
        <ele>4.3</ele>
        <time>2022-06-21T09:52:45Z</time>
      </trkpt>
      <trkpt lat="45.92697" lon="-0.94958">
        <ele>4.3</ele>
        <time>2022-06-21T09:52:46Z</time>
      </trkpt>
      <trkpt lat="45.92697" lon="-0.9496">
        <ele>4.3</ele>
        <time>2022-06-21T09:52:47Z</time>
      </trkpt>
      <trkpt lat="45.92698" lon="-0.94962">
        <ele>4.3</ele>
        <time>2022-06-21T09:52:49Z</time>
      </trkpt>
      <trkpt lat="45.92699" lon="-0.94966">
        <ele>4.3</ele>
        <time>2022-06-21T09:52:50Z</time>
      </trkpt>
      <trkpt lat="45.927" lon="-0.94967">
        <ele>4.3</ele>
        <time>2022-06-21T09:52:51Z</time>
      </trkpt>
      <trkpt lat="45.92701" lon="-0.94971">
        <ele>4.3</ele>
        <time>2022-06-21T09:52:52Z</time>
      </trkpt>
      <trkpt lat="45.92702" lon="-0.94972">
        <ele>4.3</ele>
        <time>2022-06-21T09:52:53Z</time>
      </trkpt>
      <trkpt lat="45.92703" lon="-0.94976">
        <ele>4.3</ele>
        <time>2022-06-21T09:52:54Z</time>
      </trkpt>
      <trkpt lat="45.92704" lon="-0.94978">
        <ele>4.3</ele>
        <time>2022-06-21T09:52:55Z</time>
      </trkpt>
      <trkpt lat="45.92705" lon="-0.94981">
        <ele>4.3</ele>
        <time>2022-06-21T09:52:57Z</time>
      </trkpt>
      <trkpt lat="45.92705" lon="-0.94982">
        <ele>4.3</ele>
        <time>2022-06-21T09:52:58Z</time>
      </trkpt>
      <trkpt lat="45.92706" lon="-0.94983">
        <ele>4.3</ele>
        <time>2022-06-21T09:52:59Z</time>
      </trkpt>
      <trkpt lat="45.92706" lon="-0.94983">
        <ele>4.3</ele>
        <time>2022-06-21T09:53:00Z</time>
      </trkpt>
      <trkpt lat="45.92707" lon="-0.94985">
        <ele>4.3</ele>
        <time>2022-06-21T09:53:01Z</time>
      </trkpt>
      <trkpt lat="45.92708" lon="-0.94986">
        <ele>4.3</ele>
        <time>2022-06-21T09:53:02Z</time>
      </trkpt>
      <trkpt lat="45.92709" lon="-0.94987">
        <ele>4.3</ele>
        <time>2022-06-21T09:53:03Z</time>
      </trkpt>
      <trkpt lat="45.9271" lon="-0.94988">
        <ele>4.3</ele>
        <time>2022-06-21T09:53:05Z</time>
      </trkpt>
      <trkpt lat="45.92711" lon="-0.94989">
        <ele>4.3</ele>
        <time>2022-06-21T09:53:06Z</time>
      </trkpt>
      <trkpt lat="45.92712" lon="-0.94989">
        <ele>4.3</ele>
        <time>2022-06-21T09:53:07Z</time>
      </trkpt>
      <trkpt lat="45.92713" lon="-0.9499">
        <ele>4.3</ele>
        <time>2022-06-21T09:53:08Z</time>
      </trkpt>
      <trkpt lat="45.92714" lon="-0.94991">
        <ele>4.3</ele>
        <time>2022-06-21T09:53:09Z</time>
      </trkpt>
      <trkpt lat="45.92715" lon="-0.94992">
        <ele>4.3</ele>
        <time>2022-06-21T09:53:10Z</time>
      </trkpt>
      <trkpt lat="45.92716" lon="-0.94993">
        <ele>4.3</ele>
        <time>2022-06-21T09:53:11Z</time>
      </trkpt>
      <trkpt lat="45.92717" lon="-0.94993">
        <ele>4.3</ele>
        <time>2022-06-21T09:53:12Z</time>
      </trkpt>
      <trkpt lat="45.92718" lon="-0.94994">
        <ele>4.3</ele>
        <time>2022-06-21T09:53:14Z</time>
      </trkpt>
      <trkpt lat="45.92719" lon="-0.94995">
        <ele>4.3</ele>
        <time>2022-06-21T09:53:15Z</time>
      </trkpt>
      <trkpt lat="45.9272" lon="-0.94995">
        <ele>4.3</ele>
        <time>2022-06-21T09:53:16Z</time>
      </trkpt>
      <trkpt lat="45.92722" lon="-0.94997">
        <ele>4.3</ele>
        <time>2022-06-21T09:53:17Z</time>
      </trkpt>
      <trkpt lat="45.92724" lon="-0.94998">
        <ele>4.3</ele>
        <time>2022-06-21T09:53:19Z</time>
      </trkpt>
      <trkpt lat="45.92725" lon="-0.94999">
        <ele>4.3</ele>
        <time>2022-06-21T09:53:20Z</time>
      </trkpt>
      <trkpt lat="45.92726" lon="-0.95">
        <ele>4.3</ele>
        <time>2022-06-21T09:53:21Z</time>
      </trkpt>
      <trkpt lat="45.92728" lon="-0.95001">
        <ele>4.3</ele>
        <time>2022-06-21T09:53:23Z</time>
      </trkpt>
      <trkpt lat="45.92729" lon="-0.95001">
        <ele>4.3</ele>
        <time>2022-06-21T09:53:24Z</time>
      </trkpt>
      <trkpt lat="45.9273" lon="-0.95001">
        <ele>4.3</ele>
        <time>2022-06-21T09:53:25Z</time>
      </trkpt>
      <trkpt lat="45.9273" lon="-0.95002">
        <ele>4.3</ele>
        <time>2022-06-21T09:53:26Z</time>
      </trkpt>
      <trkpt lat="45.92731" lon="-0.95002">
        <ele>4.3</ele>
        <time>2022-06-21T09:53:27Z</time>
      </trkpt>
      <trkpt lat="45.92733" lon="-0.95003">
        <ele>4.3</ele>
        <time>2022-06-21T09:53:29Z</time>
      </trkpt>
      <trkpt lat="45.92733" lon="-0.95003">
        <ele>4.3</ele>
        <time>2022-06-21T09:53:30Z</time>
      </trkpt>
      <trkpt lat="45.92734" lon="-0.95004">
        <ele>4.2</ele>
        <time>2022-06-21T09:53:31Z</time>
      </trkpt>
      <trkpt lat="45.92735" lon="-0.95005">
        <ele>4.2</ele>
        <time>2022-06-21T09:53:32Z</time>
      </trkpt>
      <trkpt lat="45.92736" lon="-0.95005">
        <ele>4.2</ele>
        <time>2022-06-21T09:53:33Z</time>
      </trkpt>
      <trkpt lat="45.92737" lon="-0.95005">
        <ele>4.2</ele>
        <time>2022-06-21T09:53:34Z</time>
      </trkpt>
      <trkpt lat="45.92739" lon="-0.95006">
        <ele>4.2</ele>
        <time>2022-06-21T09:53:35Z</time>
      </trkpt>
      <trkpt lat="45.92741" lon="-0.95006">
        <ele>4.2</ele>
        <time>2022-06-21T09:53:37Z</time>
      </trkpt>
      <trkpt lat="45.92742" lon="-0.95005">
        <ele>4.2</ele>
        <time>2022-06-21T09:53:38Z</time>
      </trkpt>
      <trkpt lat="45.92743" lon="-0.95005">
        <ele>4.2</ele>
        <time>2022-06-21T09:53:39Z</time>
      </trkpt>
      <trkpt lat="45.92744" lon="-0.95006">
        <ele>4.2</ele>
        <time>2022-06-21T09:53:41Z</time>
      </trkpt>
      <trkpt lat="45.92745" lon="-0.95005">
        <ele>4.2</ele>
        <time>2022-06-21T09:53:42Z</time>
      </trkpt>
      <trkpt lat="45.92745" lon="-0.95005">
        <ele>4.2</ele>
        <time>2022-06-21T09:53:43Z</time>
      </trkpt>
      <trkpt lat="45.92746" lon="-0.95004">
        <ele>4.2</ele>
        <time>2022-06-21T09:53:44Z</time>
      </trkpt>
      <trkpt lat="45.92745" lon="-0.95002">
        <ele>4.2</ele>
        <time>2022-06-21T09:53:45Z</time>
      </trkpt>
      <trkpt lat="45.92745" lon="-0.95002">
        <ele>4.2</ele>
        <time>2022-06-21T09:53:46Z</time>
      </trkpt>
      <trkpt lat="45.92745" lon="-0.95002">
        <ele>4.2</ele>
        <time>2022-06-21T09:53:47Z</time>
      </trkpt>
      <trkpt lat="45.92745" lon="-0.95002">
        <ele>4.2</ele>
        <time>2022-06-21T09:53:48Z</time>
      </trkpt>
      <trkpt lat="45.92744" lon="-0.95002">
        <ele>4.2</ele>
        <time>2022-06-21T09:53:49Z</time>
      </trkpt>
      <trkpt lat="45.92744" lon="-0.95002">
        <ele>4.2</ele>
        <time>2022-06-21T09:53:50Z</time>
      </trkpt>
      <trkpt lat="45.92744" lon="-0.95001">
        <ele>4.2</ele>
        <time>2022-06-21T09:53:51Z</time>
      </trkpt>
      <trkpt lat="45.92743" lon="-0.95001">
        <ele>4.2</ele>
        <time>2022-06-21T09:53:52Z</time>
      </trkpt>
      <trkpt lat="45.92743" lon="-0.95001">
        <ele>4.2</ele>
        <time>2022-06-21T09:53:53Z</time>
      </trkpt>
      <trkpt lat="45.92743" lon="-0.95">
        <ele>4.2</ele>
        <time>2022-06-21T09:53:54Z</time>
      </trkpt>
      <trkpt lat="45.92743" lon="-0.95">
        <ele>4.2</ele>
        <time>2022-06-21T09:53:55Z</time>
      </trkpt>
      <trkpt lat="45.92743" lon="-0.95">
        <ele>4.2</ele>
        <time>2022-06-21T09:53:56Z</time>
      </trkpt>
      <trkpt lat="45.92743" lon="-0.95">
        <ele>4.2</ele>
        <time>2022-06-21T09:53:57Z</time>
      </trkpt>
      <trkpt lat="45.92743" lon="-0.95">
        <ele>4.2</ele>
        <time>2022-06-21T09:53:58Z</time>
      </trkpt>
      <trkpt lat="45.92743" lon="-0.95">
        <ele>4.2</ele>
        <time>2022-06-21T09:53:59Z</time>
      </trkpt>
      <trkpt lat="45.92742" lon="-0.95">
        <ele>4.2</ele>
        <time>2022-06-21T09:54:00Z</time>
      </trkpt>
      <trkpt lat="45.92742" lon="-0.95">
        <ele>4.2</ele>
        <time>2022-06-21T09:54:01Z</time>
      </trkpt>
      <trkpt lat="45.92742" lon="-0.95">
        <ele>4.2</ele>
        <time>2022-06-21T09:54:02Z</time>
      </trkpt>
      <trkpt lat="45.92742" lon="-0.95">
        <ele>4.2</ele>
        <time>2022-06-21T09:54:03Z</time>
      </trkpt>
      <trkpt lat="45.92742" lon="-0.95">
        <ele>4.2</ele>
        <time>2022-06-21T09:54:04Z</time>
      </trkpt>
      <trkpt lat="45.92742" lon="-0.95">
        <ele>4.2</ele>
        <time>2022-06-21T09:54:05Z</time>
      </trkpt>
      <trkpt lat="45.92742" lon="-0.95">
        <ele>4.2</ele>
        <time>2022-06-21T09:54:06Z</time>
      </trkpt>
      <trkpt lat="45.92742" lon="-0.95">
        <ele>4.2</ele>
        <time>2022-06-21T09:54:07Z</time>
      </trkpt>
      <trkpt lat="45.92742" lon="-0.95">
        <ele>4.2</ele>
        <time>2022-06-21T09:54:08Z</time>
      </trkpt>
      <trkpt lat="45.92742" lon="-0.95">
        <ele>4.2</ele>
        <time>2022-06-21T09:54:09Z</time>
      </trkpt>
      <trkpt lat="45.92742" lon="-0.95">
        <ele>4.2</ele>
        <time>2022-06-21T09:54:10Z</time>
      </trkpt>
      <trkpt lat="45.92742" lon="-0.95">
        <ele>4.2</ele>
        <time>2022-06-21T09:54:11Z</time>
      </trkpt>
      <trkpt lat="45.92741" lon="-0.95">
        <ele>4.2</ele>
        <time>2022-06-21T09:54:12Z</time>
      </trkpt>
      <trkpt lat="45.92741" lon="-0.95">
        <ele>4.2</ele>
        <time>2022-06-21T09:54:13Z</time>
      </trkpt>
      <trkpt lat="45.92743" lon="-0.94999">
        <ele>4.2</ele>
        <time>2022-06-21T09:54:14Z</time>
      </trkpt>
      <trkpt lat="45.92744" lon="-0.94999">
        <ele>4.2</ele>
        <time>2022-06-21T09:54:15Z</time>
      </trkpt>
      <trkpt lat="45.92744" lon="-0.94999">
        <ele>4.2</ele>
        <time>2022-06-21T09:54:16Z</time>
      </trkpt>
      <trkpt lat="45.92745" lon="-0.94998">
        <ele>4.2</ele>
        <time>2022-06-21T09:54:17Z</time>
      </trkpt>
      <trkpt lat="45.92746" lon="-0.94998">
        <ele>4.2</ele>
        <time>2022-06-21T09:54:18Z</time>
      </trkpt>
      <trkpt lat="45.92747" lon="-0.94998">
        <ele>4.2</ele>
        <time>2022-06-21T09:54:19Z</time>
      </trkpt>
      <trkpt lat="45.92748" lon="-0.94997">
        <ele>4.2</ele>
        <time>2022-06-21T09:54:20Z</time>
      </trkpt>
      <trkpt lat="45.92749" lon="-0.94997">
        <ele>4.2</ele>
        <time>2022-06-21T09:54:22Z</time>
      </trkpt>
      <trkpt lat="45.92751" lon="-0.94997">
        <ele>4.2</ele>
        <time>2022-06-21T09:54:23Z</time>
      </trkpt>
      <trkpt lat="45.92752" lon="-0.94997">
        <ele>4.2</ele>
        <time>2022-06-21T09:54:24Z</time>
      </trkpt>
      <trkpt lat="45.92753" lon="-0.94997">
        <ele>4.2</ele>
        <time>2022-06-21T09:54:25Z</time>
      </trkpt>
      <trkpt lat="45.92755" lon="-0.94997">
        <ele>4.2</ele>
        <time>2022-06-21T09:54:26Z</time>
      </trkpt>
      <trkpt lat="45.92756" lon="-0.94996">
        <ele>4.2</ele>
        <time>2022-06-21T09:54:27Z</time>
      </trkpt>
      <trkpt lat="45.92757" lon="-0.94996">
        <ele>4.2</ele>
        <time>2022-06-21T09:54:28Z</time>
      </trkpt>
      <trkpt lat="45.92757" lon="-0.94997">
        <ele>4.2</ele>
        <time>2022-06-21T09:54:30Z</time>
      </trkpt>
      <trkpt lat="45.92757" lon="-0.94997">
        <ele>4.2</ele>
        <time>2022-06-21T09:54:31Z</time>
      </trkpt>
      <trkpt lat="45.92758" lon="-0.94997">
        <ele>4.2</ele>
        <time>2022-06-21T09:54:33Z</time>
      </trkpt>
      <trkpt lat="45.9276" lon="-0.94997">
        <ele>4.2</ele>
        <time>2022-06-21T09:54:34Z</time>
      </trkpt>
      <trkpt lat="45.92761" lon="-0.94997">
        <ele>4.2</ele>
        <time>2022-06-21T09:54:35Z</time>
      </trkpt>
      <trkpt lat="45.92763" lon="-0.94997">
        <ele>4.2</ele>
        <time>2022-06-21T09:54:36Z</time>
      </trkpt>
      <trkpt lat="45.92764" lon="-0.94998">
        <ele>4.2</ele>
        <time>2022-06-21T09:54:37Z</time>
      </trkpt>
      <trkpt lat="45.92764" lon="-0.94998">
        <ele>4.2</ele>
        <time>2022-06-21T09:54:38Z</time>
      </trkpt>
      <trkpt lat="45.92765" lon="-0.94999">
        <ele>4.2</ele>
        <time>2022-06-21T09:54:39Z</time>
      </trkpt>
      <trkpt lat="45.92767" lon="-0.94999">
        <ele>4.2</ele>
        <time>2022-06-21T09:54:40Z</time>
      </trkpt>
      <trkpt lat="45.92768" lon="-0.94999">
        <ele>4.2</ele>
        <time>2022-06-21T09:54:41Z</time>
      </trkpt>
      <trkpt lat="45.92769" lon="-0.95">
        <ele>4.2</ele>
        <time>2022-06-21T09:54:43Z</time>
      </trkpt>
      <trkpt lat="45.92771" lon="-0.95">
        <ele>4.2</ele>
        <time>2022-06-21T09:54:44Z</time>
      </trkpt>
      <trkpt lat="45.92772" lon="-0.95">
        <ele>4.2</ele>
        <time>2022-06-21T09:54:45Z</time>
      </trkpt>
      <trkpt lat="45.92774" lon="-0.95001">
        <ele>4.2</ele>
        <time>2022-06-21T09:54:46Z</time>
      </trkpt>
      <trkpt lat="45.92776" lon="-0.95002">
        <ele>4.2</ele>
        <time>2022-06-21T09:54:47Z</time>
      </trkpt>
      <trkpt lat="45.92777" lon="-0.95003">
        <ele>4.2</ele>
        <time>2022-06-21T09:54:48Z</time>
      </trkpt>
      <trkpt lat="45.92777" lon="-0.95004">
        <ele>4.2</ele>
        <time>2022-06-21T09:54:49Z</time>
      </trkpt>
      <trkpt lat="45.92779" lon="-0.95004">
        <ele>4.2</ele>
        <time>2022-06-21T09:54:50Z</time>
      </trkpt>
      <trkpt lat="45.9278" lon="-0.95005">
        <ele>4.2</ele>
        <time>2022-06-21T09:54:51Z</time>
      </trkpt>
      <trkpt lat="45.92782" lon="-0.95006">
        <ele>4.2</ele>
        <time>2022-06-21T09:54:53Z</time>
      </trkpt>
      <trkpt lat="45.92783" lon="-0.95007">
        <ele>4.2</ele>
        <time>2022-06-21T09:54:54Z</time>
      </trkpt>
      <trkpt lat="45.92785" lon="-0.95008">
        <ele>4.2</ele>
        <time>2022-06-21T09:54:55Z</time>
      </trkpt>
      <trkpt lat="45.92786" lon="-0.95009">
        <ele>4.2</ele>
        <time>2022-06-21T09:54:56Z</time>
      </trkpt>
      <trkpt lat="45.92787" lon="-0.9501">
        <ele>4.2</ele>
        <time>2022-06-21T09:54:57Z</time>
      </trkpt>
      <trkpt lat="45.92789" lon="-0.95012">
        <ele>4.2</ele>
        <time>2022-06-21T09:54:58Z</time>
      </trkpt>
      <trkpt lat="45.9279" lon="-0.95012">
        <ele>4.2</ele>
        <time>2022-06-21T09:54:59Z</time>
      </trkpt>
      <trkpt lat="45.92791" lon="-0.95012">
        <ele>4.2</ele>
        <time>2022-06-21T09:55:00Z</time>
      </trkpt>
      <trkpt lat="45.92792" lon="-0.95013">
        <ele>4.2</ele>
        <time>2022-06-21T09:55:01Z</time>
      </trkpt>
      <trkpt lat="45.92793" lon="-0.95013">
        <ele>4.2</ele>
        <time>2022-06-21T09:55:02Z</time>
      </trkpt>
      <trkpt lat="45.92794" lon="-0.95014">
        <ele>4.2</ele>
        <time>2022-06-21T09:55:03Z</time>
      </trkpt>
      <trkpt lat="45.92795" lon="-0.95014">
        <ele>4.2</ele>
        <time>2022-06-21T09:55:04Z</time>
      </trkpt>
      <trkpt lat="45.92797" lon="-0.95015">
        <ele>4.2</ele>
        <time>2022-06-21T09:55:05Z</time>
      </trkpt>
      <trkpt lat="45.92798" lon="-0.95016">
        <ele>4.2</ele>
        <time>2022-06-21T09:55:06Z</time>
      </trkpt>
      <trkpt lat="45.92799" lon="-0.95016">
        <ele>4.2</ele>
        <time>2022-06-21T09:55:07Z</time>
      </trkpt>
      <trkpt lat="45.928" lon="-0.95017">
        <ele>4.2</ele>
        <time>2022-06-21T09:55:09Z</time>
      </trkpt>
      <trkpt lat="45.928" lon="-0.95018">
        <ele>4.2</ele>
        <time>2022-06-21T09:55:10Z</time>
      </trkpt>
      <trkpt lat="45.92801" lon="-0.95018">
        <ele>4.2</ele>
        <time>2022-06-21T09:55:11Z</time>
      </trkpt>
      <trkpt lat="45.92802" lon="-0.95019">
        <ele>4.2</ele>
        <time>2022-06-21T09:55:12Z</time>
      </trkpt>
      <trkpt lat="45.92803" lon="-0.95021">
        <ele>4.2</ele>
        <time>2022-06-21T09:55:14Z</time>
      </trkpt>
      <trkpt lat="45.92804" lon="-0.95022">
        <ele>4.2</ele>
        <time>2022-06-21T09:55:15Z</time>
      </trkpt>
      <trkpt lat="45.92806" lon="-0.95023">
        <ele>4.1</ele>
        <time>2022-06-21T09:55:16Z</time>
      </trkpt>
      <trkpt lat="45.92807" lon="-0.95023">
        <ele>4.1</ele>
        <time>2022-06-21T09:55:17Z</time>
      </trkpt>
      <trkpt lat="45.92808" lon="-0.95024">
        <ele>4.1</ele>
        <time>2022-06-21T09:55:18Z</time>
      </trkpt>
      <trkpt lat="45.92809" lon="-0.95024">
        <ele>4.1</ele>
        <time>2022-06-21T09:55:19Z</time>
      </trkpt>
      <trkpt lat="45.9281" lon="-0.95025">
        <ele>4.1</ele>
        <time>2022-06-21T09:55:20Z</time>
      </trkpt>
      <trkpt lat="45.92811" lon="-0.95025">
        <ele>4.1</ele>
        <time>2022-06-21T09:55:21Z</time>
      </trkpt>
      <trkpt lat="45.92812" lon="-0.95026">
        <ele>4.1</ele>
        <time>2022-06-21T09:55:22Z</time>
      </trkpt>
      <trkpt lat="45.92813" lon="-0.95026">
        <ele>4.1</ele>
        <time>2022-06-21T09:55:23Z</time>
      </trkpt>
      <trkpt lat="45.92815" lon="-0.95026">
        <ele>4.1</ele>
        <time>2022-06-21T09:55:25Z</time>
      </trkpt>
      <trkpt lat="45.92816" lon="-0.95027">
        <ele>4.1</ele>
        <time>2022-06-21T09:55:26Z</time>
      </trkpt>
      <trkpt lat="45.92817" lon="-0.95027">
        <ele>4.1</ele>
        <time>2022-06-21T09:55:27Z</time>
      </trkpt>
      <trkpt lat="45.92818" lon="-0.95028">
        <ele>4.1</ele>
        <time>2022-06-21T09:55:28Z</time>
      </trkpt>
      <trkpt lat="45.92819" lon="-0.95028">
        <ele>4.1</ele>
        <time>2022-06-21T09:55:29Z</time>
      </trkpt>
      <trkpt lat="45.92819" lon="-0.95029">
        <ele>4.1</ele>
        <time>2022-06-21T09:55:30Z</time>
      </trkpt>
      <trkpt lat="45.9282" lon="-0.9503">
        <ele>4.1</ele>
        <time>2022-06-21T09:55:31Z</time>
      </trkpt>
      <trkpt lat="45.92823" lon="-0.95031">
        <ele>4.1</ele>
        <time>2022-06-21T09:55:33Z</time>
      </trkpt>
      <trkpt lat="45.92824" lon="-0.95032">
        <ele>4.1</ele>
        <time>2022-06-21T09:55:34Z</time>
      </trkpt>
      <trkpt lat="45.92826" lon="-0.95033">
        <ele>4.1</ele>
        <time>2022-06-21T09:55:35Z</time>
      </trkpt>
      <trkpt lat="45.92827" lon="-0.95033">
        <ele>4.1</ele>
        <time>2022-06-21T09:55:36Z</time>
      </trkpt>
      <trkpt lat="45.92827" lon="-0.95034">
        <ele>4.1</ele>
        <time>2022-06-21T09:55:37Z</time>
      </trkpt>
      <trkpt lat="45.92829" lon="-0.95036">
        <ele>4.1</ele>
        <time>2022-06-21T09:55:38Z</time>
      </trkpt>
      <trkpt lat="45.9283" lon="-0.95036">
        <ele>4.1</ele>
        <time>2022-06-21T09:55:39Z</time>
      </trkpt>
      <trkpt lat="45.9283" lon="-0.95037">
        <ele>4.1</ele>
        <time>2022-06-21T09:55:40Z</time>
      </trkpt>
      <trkpt lat="45.92831" lon="-0.95038">
        <ele>4.1</ele>
        <time>2022-06-21T09:55:41Z</time>
      </trkpt>
      <trkpt lat="45.92833" lon="-0.95039">
        <ele>4.1</ele>
        <time>2022-06-21T09:55:43Z</time>
      </trkpt>
      <trkpt lat="45.92835" lon="-0.9504">
        <ele>4.1</ele>
        <time>2022-06-21T09:55:44Z</time>
      </trkpt>
      <trkpt lat="45.92836" lon="-0.95041">
        <ele>4.1</ele>
        <time>2022-06-21T09:55:45Z</time>
      </trkpt>
      <trkpt lat="45.92837" lon="-0.95042">
        <ele>4.1</ele>
        <time>2022-06-21T09:55:46Z</time>
      </trkpt>
      <trkpt lat="45.9284" lon="-0.95044">
        <ele>4.1</ele>
        <time>2022-06-21T09:55:48Z</time>
      </trkpt>
      <trkpt lat="45.92842" lon="-0.95045">
        <ele>4.1</ele>
        <time>2022-06-21T09:55:49Z</time>
      </trkpt>
      <trkpt lat="45.92843" lon="-0.95046">
        <ele>4.1</ele>
        <time>2022-06-21T09:55:50Z</time>
      </trkpt>
      <trkpt lat="45.92845" lon="-0.95047">
        <ele>4.1</ele>
        <time>2022-06-21T09:55:52Z</time>
      </trkpt>
      <trkpt lat="45.92846" lon="-0.95047">
        <ele>4.1</ele>
        <time>2022-06-21T09:55:53Z</time>
      </trkpt>
      <trkpt lat="45.92847" lon="-0.95048">
        <ele>4.1</ele>
        <time>2022-06-21T09:55:54Z</time>
      </trkpt>
      <trkpt lat="45.92849" lon="-0.95049">
        <ele>4.1</ele>
        <time>2022-06-21T09:55:55Z</time>
      </trkpt>
      <trkpt lat="45.9285" lon="-0.9505">
        <ele>4.1</ele>
        <time>2022-06-21T09:55:56Z</time>
      </trkpt>
      <trkpt lat="45.92851" lon="-0.9505">
        <ele>4.1</ele>
        <time>2022-06-21T09:55:57Z</time>
      </trkpt>
      <trkpt lat="45.92852" lon="-0.95051">
        <ele>4.1</ele>
        <time>2022-06-21T09:55:58Z</time>
      </trkpt>
      <trkpt lat="45.92853" lon="-0.95051">
        <ele>4.1</ele>
        <time>2022-06-21T09:55:59Z</time>
      </trkpt>
      <trkpt lat="45.92855" lon="-0.95052">
        <ele>4.1</ele>
        <time>2022-06-21T09:56:01Z</time>
      </trkpt>
      <trkpt lat="45.92856" lon="-0.95053">
        <ele>4.1</ele>
        <time>2022-06-21T09:56:02Z</time>
      </trkpt>
      <trkpt lat="45.92858" lon="-0.95054">
        <ele>4</ele>
        <time>2022-06-21T09:56:03Z</time>
      </trkpt>
      <trkpt lat="45.92858" lon="-0.95055">
        <ele>4</ele>
        <time>2022-06-21T09:56:04Z</time>
      </trkpt>
      <trkpt lat="45.92859" lon="-0.95056">
        <ele>4</ele>
        <time>2022-06-21T09:56:05Z</time>
      </trkpt>
      <trkpt lat="45.9286" lon="-0.95056">
        <ele>4</ele>
        <time>2022-06-21T09:56:06Z</time>
      </trkpt>
      <trkpt lat="45.92862" lon="-0.95058">
        <ele>4</ele>
        <time>2022-06-21T09:56:08Z</time>
      </trkpt>
      <trkpt lat="45.92863" lon="-0.95058">
        <ele>4</ele>
        <time>2022-06-21T09:56:09Z</time>
      </trkpt>
      <trkpt lat="45.92864" lon="-0.95059">
        <ele>4</ele>
        <time>2022-06-21T09:56:10Z</time>
      </trkpt>
      <trkpt lat="45.92866" lon="-0.9506">
        <ele>4</ele>
        <time>2022-06-21T09:56:11Z</time>
      </trkpt>
      <trkpt lat="45.92867" lon="-0.95061">
        <ele>4</ele>
        <time>2022-06-21T09:56:12Z</time>
      </trkpt>
      <trkpt lat="45.92868" lon="-0.95062">
        <ele>4</ele>
        <time>2022-06-21T09:56:13Z</time>
      </trkpt>
      <trkpt lat="45.92869" lon="-0.95062">
        <ele>4</ele>
        <time>2022-06-21T09:56:14Z</time>
      </trkpt>
      <trkpt lat="45.9287" lon="-0.95063">
        <ele>4</ele>
        <time>2022-06-21T09:56:15Z</time>
      </trkpt>
      <trkpt lat="45.92871" lon="-0.95063">
        <ele>4</ele>
        <time>2022-06-21T09:56:16Z</time>
      </trkpt>
      <trkpt lat="45.92873" lon="-0.95064">
        <ele>4</ele>
        <time>2022-06-21T09:56:17Z</time>
      </trkpt>
      <trkpt lat="45.92873" lon="-0.95065">
        <ele>4</ele>
        <time>2022-06-21T09:56:18Z</time>
      </trkpt>
      <trkpt lat="45.92874" lon="-0.95065">
        <ele>4.1</ele>
        <time>2022-06-21T09:56:20Z</time>
      </trkpt>
      <trkpt lat="45.92875" lon="-0.95066">
        <ele>4.1</ele>
        <time>2022-06-21T09:56:21Z</time>
      </trkpt>
      <trkpt lat="45.92876" lon="-0.95066">
        <ele>4.1</ele>
        <time>2022-06-21T09:56:22Z</time>
      </trkpt>
      <trkpt lat="45.92877" lon="-0.95067">
        <ele>4.1</ele>
        <time>2022-06-21T09:56:23Z</time>
      </trkpt>
      <trkpt lat="45.92878" lon="-0.95068">
        <ele>4.1</ele>
        <time>2022-06-21T09:56:24Z</time>
      </trkpt>
      <trkpt lat="45.9288" lon="-0.95068">
        <ele>4.1</ele>
        <time>2022-06-21T09:56:25Z</time>
      </trkpt>
      <trkpt lat="45.92881" lon="-0.95069">
        <ele>4.1</ele>
        <time>2022-06-21T09:56:26Z</time>
      </trkpt>
      <trkpt lat="45.92882" lon="-0.95069">
        <ele>4.1</ele>
        <time>2022-06-21T09:56:27Z</time>
      </trkpt>
      <trkpt lat="45.92883" lon="-0.95069">
        <ele>4.1</ele>
        <time>2022-06-21T09:56:28Z</time>
      </trkpt>
      <trkpt lat="45.92884" lon="-0.9507">
        <ele>4.1</ele>
        <time>2022-06-21T09:56:29Z</time>
      </trkpt>
      <trkpt lat="45.92885" lon="-0.9507">
        <ele>4.1</ele>
        <time>2022-06-21T09:56:30Z</time>
      </trkpt>
      <trkpt lat="45.92889" lon="-0.95072">
        <ele>4.1</ele>
        <time>2022-06-21T09:56:32Z</time>
      </trkpt>
      <trkpt lat="45.92889" lon="-0.95073">
        <ele>4.1</ele>
        <time>2022-06-21T09:56:33Z</time>
      </trkpt>
      <trkpt lat="45.92891" lon="-0.95073">
        <ele>4.1</ele>
        <time>2022-06-21T09:56:34Z</time>
      </trkpt>
      <trkpt lat="45.92892" lon="-0.95074">
        <ele>4.1</ele>
        <time>2022-06-21T09:56:35Z</time>
      </trkpt>
      <trkpt lat="45.92894" lon="-0.95074">
        <ele>4.1</ele>
        <time>2022-06-21T09:56:36Z</time>
      </trkpt>
      <trkpt lat="45.92895" lon="-0.95075">
        <ele>4.1</ele>
        <time>2022-06-21T09:56:37Z</time>
      </trkpt>
      <trkpt lat="45.92896" lon="-0.95075">
        <ele>4.1</ele>
        <time>2022-06-21T09:56:38Z</time>
      </trkpt>
      <trkpt lat="45.92898" lon="-0.95076">
        <ele>4.1</ele>
        <time>2022-06-21T09:56:40Z</time>
      </trkpt>
      <trkpt lat="45.92899" lon="-0.95077">
        <ele>4.1</ele>
        <time>2022-06-21T09:56:41Z</time>
      </trkpt>
      <trkpt lat="45.92899" lon="-0.95078">
        <ele>4.1</ele>
        <time>2022-06-21T09:56:42Z</time>
      </trkpt>
      <trkpt lat="45.92899" lon="-0.95078">
        <ele>4.1</ele>
        <time>2022-06-21T09:56:43Z</time>
      </trkpt>
      <trkpt lat="45.92899" lon="-0.95079">
        <ele>4.1</ele>
        <time>2022-06-21T09:56:45Z</time>
      </trkpt>
      <trkpt lat="45.929" lon="-0.9508">
        <ele>4.1</ele>
        <time>2022-06-21T09:56:46Z</time>
      </trkpt>
      <trkpt lat="45.929" lon="-0.95081">
        <ele>4.1</ele>
        <time>2022-06-21T09:56:47Z</time>
      </trkpt>
      <trkpt lat="45.92899" lon="-0.95083">
        <ele>4.1</ele>
        <time>2022-06-21T09:56:48Z</time>
      </trkpt>
      <trkpt lat="45.92898" lon="-0.95084">
        <ele>4.1</ele>
        <time>2022-06-21T09:56:49Z</time>
      </trkpt>
      <trkpt lat="45.92897" lon="-0.95085">
        <ele>4.1</ele>
        <time>2022-06-21T09:56:51Z</time>
      </trkpt>
      <trkpt lat="45.92896" lon="-0.95086">
        <ele>4.2</ele>
        <time>2022-06-21T09:56:52Z</time>
      </trkpt>
      <trkpt lat="45.92895" lon="-0.95087">
        <ele>4.2</ele>
        <time>2022-06-21T09:56:53Z</time>
      </trkpt>
      <trkpt lat="45.92894" lon="-0.95089">
        <ele>4.2</ele>
        <time>2022-06-21T09:56:54Z</time>
      </trkpt>
      <trkpt lat="45.92893" lon="-0.9509">
        <ele>4.2</ele>
        <time>2022-06-21T09:56:55Z</time>
      </trkpt>
      <trkpt lat="45.92892" lon="-0.95092">
        <ele>4.2</ele>
        <time>2022-06-21T09:56:56Z</time>
      </trkpt>
      <trkpt lat="45.92892" lon="-0.95094">
        <ele>4.2</ele>
        <time>2022-06-21T09:56:58Z</time>
      </trkpt>
      <trkpt lat="45.92891" lon="-0.95097">
        <ele>4.2</ele>
        <time>2022-06-21T09:56:59Z</time>
      </trkpt>
      <trkpt lat="45.9289" lon="-0.95098">
        <ele>4.2</ele>
        <time>2022-06-21T09:57:00Z</time>
      </trkpt>
      <trkpt lat="45.9289" lon="-0.951">
        <ele>4.2</ele>
        <time>2022-06-21T09:57:01Z</time>
      </trkpt>
      <trkpt lat="45.9289" lon="-0.95102">
        <ele>4.3</ele>
        <time>2022-06-21T09:57:02Z</time>
      </trkpt>
      <trkpt lat="45.92891" lon="-0.95105">
        <ele>4.3</ele>
        <time>2022-06-21T09:57:03Z</time>
      </trkpt>
      <trkpt lat="45.92891" lon="-0.95108">
        <ele>4.3</ele>
        <time>2022-06-21T09:57:04Z</time>
      </trkpt>
      <trkpt lat="45.92891" lon="-0.95109">
        <ele>4.3</ele>
        <time>2022-06-21T09:57:05Z</time>
      </trkpt>
      <trkpt lat="45.9289" lon="-0.95111">
        <ele>4.3</ele>
        <time>2022-06-21T09:57:07Z</time>
      </trkpt>
      <trkpt lat="45.9289" lon="-0.95112">
        <ele>4.3</ele>
        <time>2022-06-21T09:57:08Z</time>
      </trkpt>
      <trkpt lat="45.92891" lon="-0.95114">
        <ele>4.3</ele>
        <time>2022-06-21T09:57:09Z</time>
      </trkpt>
      <trkpt lat="45.92891" lon="-0.95115">
        <ele>4.3</ele>
        <time>2022-06-21T09:57:10Z</time>
      </trkpt>
      <trkpt lat="45.92891" lon="-0.95116">
        <ele>4.3</ele>
        <time>2022-06-21T09:57:11Z</time>
      </trkpt>
      <trkpt lat="45.92891" lon="-0.95117">
        <ele>4.4</ele>
        <time>2022-06-21T09:57:12Z</time>
      </trkpt>
      <trkpt lat="45.92891" lon="-0.95119">
        <ele>4.4</ele>
        <time>2022-06-21T09:57:13Z</time>
      </trkpt>
      <trkpt lat="45.92891" lon="-0.9512">
        <ele>4.4</ele>
        <time>2022-06-21T09:57:14Z</time>
      </trkpt>
      <trkpt lat="45.92891" lon="-0.95121">
        <ele>4.4</ele>
        <time>2022-06-21T09:57:15Z</time>
      </trkpt>
      <trkpt lat="45.92891" lon="-0.95121">
        <ele>4.4</ele>
        <time>2022-06-21T09:57:17Z</time>
      </trkpt>
      <trkpt lat="45.92891" lon="-0.95122">
        <ele>4.4</ele>
        <time>2022-06-21T09:57:18Z</time>
      </trkpt>
      <trkpt lat="45.9289" lon="-0.95123">
        <ele>4.4</ele>
        <time>2022-06-21T09:57:19Z</time>
      </trkpt>
      <trkpt lat="45.9289" lon="-0.95124">
        <ele>4.4</ele>
        <time>2022-06-21T09:57:20Z</time>
      </trkpt>
      <trkpt lat="45.9289" lon="-0.95124">
        <ele>4.4</ele>
        <time>2022-06-21T09:57:22Z</time>
      </trkpt>
      <trkpt lat="45.9289" lon="-0.95125">
        <ele>4.4</ele>
        <time>2022-06-21T09:57:23Z</time>
      </trkpt>
      <trkpt lat="45.9289" lon="-0.95126">
        <ele>4.4</ele>
        <time>2022-06-21T09:57:24Z</time>
      </trkpt>
      <trkpt lat="45.92889" lon="-0.95127">
        <ele>4.4</ele>
        <time>2022-06-21T09:57:26Z</time>
      </trkpt>
      <trkpt lat="45.92889" lon="-0.95127">
        <ele>4.4</ele>
        <time>2022-06-21T09:57:27Z</time>
      </trkpt>
      <trkpt lat="45.92889" lon="-0.95128">
        <ele>4.4</ele>
        <time>2022-06-21T09:57:28Z</time>
      </trkpt>
      <trkpt lat="45.92889" lon="-0.9513">
        <ele>4.3</ele>
        <time>2022-06-21T09:57:29Z</time>
      </trkpt>
      <trkpt lat="45.92888" lon="-0.95131">
        <ele>4.3</ele>
        <time>2022-06-21T09:57:31Z</time>
      </trkpt>
      <trkpt lat="45.92887" lon="-0.95132">
        <ele>4.3</ele>
        <time>2022-06-21T09:57:32Z</time>
      </trkpt>
      <trkpt lat="45.92887" lon="-0.95134">
        <ele>4.3</ele>
        <time>2022-06-21T09:57:33Z</time>
      </trkpt>
      <trkpt lat="45.92886" lon="-0.95135">
        <ele>4.3</ele>
        <time>2022-06-21T09:57:34Z</time>
      </trkpt>
      <trkpt lat="45.92884" lon="-0.95137">
        <ele>4.3</ele>
        <time>2022-06-21T09:57:35Z</time>
      </trkpt>
      <trkpt lat="45.92884" lon="-0.95138">
        <ele>4.3</ele>
        <time>2022-06-21T09:57:37Z</time>
      </trkpt>
      <trkpt lat="45.92883" lon="-0.95139">
        <ele>4.3</ele>
        <time>2022-06-21T09:57:38Z</time>
      </trkpt>
      <trkpt lat="45.92882" lon="-0.95139">
        <ele>4.3</ele>
        <time>2022-06-21T09:57:39Z</time>
      </trkpt>
      <trkpt lat="45.92882" lon="-0.9514">
        <ele>4.3</ele>
        <time>2022-06-21T09:57:40Z</time>
      </trkpt>
      <trkpt lat="45.92881" lon="-0.95141">
        <ele>4.3</ele>
        <time>2022-06-21T09:57:41Z</time>
      </trkpt>
      <trkpt lat="45.9288" lon="-0.95142">
        <ele>4.3</ele>
        <time>2022-06-21T09:57:42Z</time>
      </trkpt>
      <trkpt lat="45.92879" lon="-0.95144">
        <ele>4.5</ele>
        <time>2022-06-21T09:57:44Z</time>
      </trkpt>
      <trkpt lat="45.92878" lon="-0.95144">
        <ele>4.5</ele>
        <time>2022-06-21T09:57:45Z</time>
      </trkpt>
      <trkpt lat="45.92878" lon="-0.95144">
        <ele>4.5</ele>
        <time>2022-06-21T09:57:46Z</time>
      </trkpt>
      <trkpt lat="45.92877" lon="-0.95143">
        <ele>4.4</ele>
        <time>2022-06-21T09:57:48Z</time>
      </trkpt>
      <trkpt lat="45.92877" lon="-0.95143">
        <ele>4.4</ele>
        <time>2022-06-21T09:57:49Z</time>
      </trkpt>
      <trkpt lat="45.92876" lon="-0.95142">
        <ele>4.4</ele>
        <time>2022-06-21T09:57:50Z</time>
      </trkpt>
      <trkpt lat="45.92876" lon="-0.95142">
        <ele>4.4</ele>
        <time>2022-06-21T09:57:51Z</time>
      </trkpt>
      <trkpt lat="45.92876" lon="-0.95141">
        <ele>4.4</ele>
        <time>2022-06-21T09:57:52Z</time>
      </trkpt>
      <trkpt lat="45.92875" lon="-0.9514">
        <ele>4.4</ele>
        <time>2022-06-21T09:57:54Z</time>
      </trkpt>
      <trkpt lat="45.92875" lon="-0.95138">
        <ele>4.3</ele>
        <time>2022-06-21T09:57:55Z</time>
      </trkpt>
      <trkpt lat="45.92874" lon="-0.95137">
        <ele>4.3</ele>
        <time>2022-06-21T09:57:56Z</time>
      </trkpt>
      <trkpt lat="45.92874" lon="-0.95136">
        <ele>4.3</ele>
        <time>2022-06-21T09:57:57Z</time>
      </trkpt>
      <trkpt lat="45.92874" lon="-0.95135">
        <ele>4.3</ele>
        <time>2022-06-21T09:57:58Z</time>
      </trkpt>
      <trkpt lat="45.92873" lon="-0.95134">
        <ele>4.2</ele>
        <time>2022-06-21T09:58:00Z</time>
      </trkpt>
      <trkpt lat="45.92873" lon="-0.95134">
        <ele>4.2</ele>
        <time>2022-06-21T09:58:01Z</time>
      </trkpt>
      <trkpt lat="45.92872" lon="-0.95133">
        <ele>4.2</ele>
        <time>2022-06-21T09:58:02Z</time>
      </trkpt>
      <trkpt lat="45.92872" lon="-0.95132">
        <ele>4.2</ele>
        <time>2022-06-21T09:58:03Z</time>
      </trkpt>
      <trkpt lat="45.92871" lon="-0.95131">
        <ele>4.2</ele>
        <time>2022-06-21T09:58:05Z</time>
      </trkpt>
      <trkpt lat="45.92871" lon="-0.95131">
        <ele>4.3</ele>
        <time>2022-06-21T09:58:06Z</time>
      </trkpt>
      <trkpt lat="45.9287" lon="-0.9513">
        <ele>4.2</ele>
        <time>2022-06-21T09:58:07Z</time>
      </trkpt>
      <trkpt lat="45.9287" lon="-0.95129">
        <ele>4.2</ele>
        <time>2022-06-21T09:58:08Z</time>
      </trkpt>
      <trkpt lat="45.9287" lon="-0.95129">
        <ele>4.2</ele>
        <time>2022-06-21T09:58:09Z</time>
      </trkpt>
      <trkpt lat="45.92871" lon="-0.95129">
        <ele>4.2</ele>
        <time>2022-06-21T09:58:10Z</time>
      </trkpt>
      <trkpt lat="45.92871" lon="-0.95128">
        <ele>4.2</ele>
        <time>2022-06-21T09:58:11Z</time>
      </trkpt>
      <trkpt lat="45.92871" lon="-0.95128">
        <ele>4.2</ele>
        <time>2022-06-21T09:58:12Z</time>
      </trkpt>
      <trkpt lat="45.92871" lon="-0.95128">
        <ele>4.1</ele>
        <time>2022-06-21T09:58:14Z</time>
      </trkpt>
      <trkpt lat="45.92871" lon="-0.95128">
        <ele>4.1</ele>
        <time>2022-06-21T09:58:15Z</time>
      </trkpt>
      <trkpt lat="45.92872" lon="-0.95127">
        <ele>4.1</ele>
        <time>2022-06-21T09:58:16Z</time>
      </trkpt>
      <trkpt lat="45.92872" lon="-0.95126">
        <ele>4.1</ele>
        <time>2022-06-21T09:58:18Z</time>
      </trkpt>
      <trkpt lat="45.92872" lon="-0.95126">
        <ele>4</ele>
        <time>2022-06-21T09:58:19Z</time>
      </trkpt>
      <trkpt lat="45.92872" lon="-0.95125">
        <ele>4</ele>
        <time>2022-06-21T09:58:20Z</time>
      </trkpt>
      <trkpt lat="45.92872" lon="-0.95125">
        <ele>4</ele>
        <time>2022-06-21T09:58:21Z</time>
      </trkpt>
      <trkpt lat="45.92872" lon="-0.95125">
        <ele>4</ele>
        <time>2022-06-21T09:58:22Z</time>
      </trkpt>
      <trkpt lat="45.92872" lon="-0.95124">
        <ele>4</ele>
        <time>2022-06-21T09:58:23Z</time>
      </trkpt>
      <trkpt lat="45.92872" lon="-0.95124">
        <ele>4</ele>
        <time>2022-06-21T09:58:24Z</time>
      </trkpt>
      <trkpt lat="45.92872" lon="-0.95124">
        <ele>4</ele>
        <time>2022-06-21T09:58:25Z</time>
      </trkpt>
      <trkpt lat="45.92872" lon="-0.95124">
        <ele>4</ele>
        <time>2022-06-21T09:58:26Z</time>
      </trkpt>
      <trkpt lat="45.92873" lon="-0.95123">
        <ele>4</ele>
        <time>2022-06-21T09:58:28Z</time>
      </trkpt>
      <trkpt lat="45.92873" lon="-0.95123">
        <ele>4</ele>
        <time>2022-06-21T09:58:29Z</time>
      </trkpt>
      <trkpt lat="45.92873" lon="-0.95123">
        <ele>4</ele>
        <time>2022-06-21T09:58:30Z</time>
      </trkpt>
      <trkpt lat="45.92873" lon="-0.95124">
        <ele>4</ele>
        <time>2022-06-21T09:58:31Z</time>
      </trkpt>
      <trkpt lat="45.92873" lon="-0.95124">
        <ele>4</ele>
        <time>2022-06-21T09:58:32Z</time>
      </trkpt>
      <trkpt lat="45.92873" lon="-0.95123">
        <ele>4</ele>
        <time>2022-06-21T09:58:33Z</time>
      </trkpt>
      <trkpt lat="45.92873" lon="-0.95123">
        <ele>4</ele>
        <time>2022-06-21T09:58:35Z</time>
      </trkpt>
      <trkpt lat="45.92874" lon="-0.95123">
        <ele>4</ele>
        <time>2022-06-21T09:58:36Z</time>
      </trkpt>
      <trkpt lat="45.92874" lon="-0.95122">
        <ele>4</ele>
        <time>2022-06-21T09:58:37Z</time>
      </trkpt>
      <trkpt lat="45.92874" lon="-0.95122">
        <ele>3.9</ele>
        <time>2022-06-21T09:58:38Z</time>
      </trkpt>
      <trkpt lat="45.92874" lon="-0.95121">
        <ele>3.9</ele>
        <time>2022-06-21T09:58:39Z</time>
      </trkpt>
      <trkpt lat="45.92873" lon="-0.95121">
        <ele>3.9</ele>
        <time>2022-06-21T09:58:40Z</time>
      </trkpt>
      <trkpt lat="45.92873" lon="-0.95122">
        <ele>3.9</ele>
        <time>2022-06-21T09:58:41Z</time>
      </trkpt>
      <trkpt lat="45.92873" lon="-0.95122">
        <ele>4</ele>
        <time>2022-06-21T09:58:43Z</time>
      </trkpt>
      <trkpt lat="45.92873" lon="-0.95122">
        <ele>4</ele>
        <time>2022-06-21T09:58:44Z</time>
      </trkpt>
      <trkpt lat="45.92873" lon="-0.95122">
        <ele>4</ele>
        <time>2022-06-21T09:58:45Z</time>
      </trkpt>
      <trkpt lat="45.92873" lon="-0.95122">
        <ele>4</ele>
        <time>2022-06-21T09:58:46Z</time>
      </trkpt>
      <trkpt lat="45.92873" lon="-0.95122">
        <ele>4</ele>
        <time>2022-06-21T09:58:47Z</time>
      </trkpt>
      <trkpt lat="45.92872" lon="-0.95122">
        <ele>4</ele>
        <time>2022-06-21T09:58:48Z</time>
      </trkpt>
      <trkpt lat="45.92872" lon="-0.95122">
        <ele>4</ele>
        <time>2022-06-21T09:58:49Z</time>
      </trkpt>
      <trkpt lat="45.92872" lon="-0.95122">
        <ele>3.9</ele>
        <time>2022-06-21T09:58:51Z</time>
      </trkpt>
      <trkpt lat="45.92872" lon="-0.95122">
        <ele>3.9</ele>
        <time>2022-06-21T09:58:53Z</time>
      </trkpt>
      <trkpt lat="45.92872" lon="-0.95122">
        <ele>3.9</ele>
        <time>2022-06-21T09:58:54Z</time>
      </trkpt>
      <trkpt lat="45.92871" lon="-0.95122">
        <ele>3.9</ele>
        <time>2022-06-21T09:58:55Z</time>
      </trkpt>
      <trkpt lat="45.92871" lon="-0.95122">
        <ele>3.9</ele>
        <time>2022-06-21T09:58:56Z</time>
      </trkpt>
      <trkpt lat="45.92871" lon="-0.95122">
        <ele>4</ele>
        <time>2022-06-21T09:58:57Z</time>
      </trkpt>
      <trkpt lat="45.9287" lon="-0.95123">
        <ele>4</ele>
        <time>2022-06-21T09:58:58Z</time>
      </trkpt>
      <trkpt lat="45.9287" lon="-0.95123">
        <ele>4</ele>
        <time>2022-06-21T09:58:59Z</time>
      </trkpt>
      <trkpt lat="45.9287" lon="-0.95123">
        <ele>4</ele>
        <time>2022-06-21T09:59:00Z</time>
      </trkpt>
      <trkpt lat="45.9287" lon="-0.95123">
        <ele>4</ele>
        <time>2022-06-21T09:59:01Z</time>
      </trkpt>
      <trkpt lat="45.9287" lon="-0.95123">
        <ele>4</ele>
        <time>2022-06-21T09:59:02Z</time>
      </trkpt>
      <trkpt lat="45.9287" lon="-0.95123">
        <ele>4</ele>
        <time>2022-06-21T09:59:03Z</time>
      </trkpt>
      <trkpt lat="45.9287" lon="-0.95123">
        <ele>4</ele>
        <time>2022-06-21T09:59:04Z</time>
      </trkpt>
      <trkpt lat="45.9287" lon="-0.95123">
        <ele>4</ele>
        <time>2022-06-21T09:59:05Z</time>
      </trkpt>
      <trkpt lat="45.9287" lon="-0.95124">
        <ele>4</ele>
        <time>2022-06-21T09:59:06Z</time>
      </trkpt>
      <trkpt lat="45.9287" lon="-0.95124">
        <ele>4</ele>
        <time>2022-06-21T09:59:07Z</time>
      </trkpt>
      <trkpt lat="45.9287" lon="-0.95124">
        <ele>4</ele>
        <time>2022-06-21T09:59:09Z</time>
      </trkpt>
      <trkpt lat="45.9287" lon="-0.95124">
        <ele>4</ele>
        <time>2022-06-21T09:59:10Z</time>
      </trkpt>
      <trkpt lat="45.9287" lon="-0.95124">
        <ele>4</ele>
        <time>2022-06-21T09:59:11Z</time>
      </trkpt>
      <trkpt lat="45.9287" lon="-0.95124">
        <ele>4</ele>
        <time>2022-06-21T09:59:12Z</time>
      </trkpt>
      <trkpt lat="45.9287" lon="-0.95124">
        <ele>4</ele>
        <time>2022-06-21T09:59:13Z</time>
      </trkpt>
      <trkpt lat="45.9287" lon="-0.95124">
        <ele>4</ele>
        <time>2022-06-21T09:59:14Z</time>
      </trkpt>
      <trkpt lat="45.9287" lon="-0.95124">
        <ele>4</ele>
        <time>2022-06-21T09:59:15Z</time>
      </trkpt>
      <trkpt lat="45.9287" lon="-0.95125">
        <ele>4</ele>
        <time>2022-06-21T09:59:16Z</time>
      </trkpt>
      <trkpt lat="45.9287" lon="-0.95125">
        <ele>4</ele>
        <time>2022-06-21T09:59:17Z</time>
      </trkpt>
      <trkpt lat="45.9287" lon="-0.95125">
        <ele>4</ele>
        <time>2022-06-21T09:59:18Z</time>
      </trkpt>
      <trkpt lat="45.9287" lon="-0.95125">
        <ele>4</ele>
        <time>2022-06-21T09:59:19Z</time>
      </trkpt>
      <trkpt lat="45.9287" lon="-0.95125">
        <ele>4</ele>
        <time>2022-06-21T09:59:20Z</time>
      </trkpt>
      <trkpt lat="45.9287" lon="-0.95125">
        <ele>4</ele>
        <time>2022-06-21T09:59:21Z</time>
      </trkpt>
      <trkpt lat="45.9287" lon="-0.95125">
        <ele>4</ele>
        <time>2022-06-21T09:59:22Z</time>
      </trkpt>
      <trkpt lat="45.9287" lon="-0.95125">
        <ele>4</ele>
        <time>2022-06-21T09:59:23Z</time>
      </trkpt>
      <trkpt lat="45.92869" lon="-0.95125">
        <ele>4</ele>
        <time>2022-06-21T09:59:24Z</time>
      </trkpt>
      <trkpt lat="45.92869" lon="-0.95126">
        <ele>4</ele>
        <time>2022-06-21T09:59:25Z</time>
      </trkpt>
      <trkpt lat="45.92869" lon="-0.95126">
        <ele>4</ele>
        <time>2022-06-21T09:59:26Z</time>
      </trkpt>
      <trkpt lat="45.92869" lon="-0.95126">
        <ele>4</ele>
        <time>2022-06-21T09:59:27Z</time>
      </trkpt>
      <trkpt lat="45.92869" lon="-0.95126">
        <ele>4</ele>
        <time>2022-06-21T09:59:28Z</time>
      </trkpt>
      <trkpt lat="45.92869" lon="-0.95126">
        <ele>4</ele>
        <time>2022-06-21T09:59:29Z</time>
      </trkpt>
      <trkpt lat="45.92869" lon="-0.95126">
        <ele>4</ele>
        <time>2022-06-21T09:59:30Z</time>
      </trkpt>
      <trkpt lat="45.92869" lon="-0.95126">
        <ele>4</ele>
        <time>2022-06-21T09:59:31Z</time>
      </trkpt>
      <trkpt lat="45.92869" lon="-0.95126">
        <ele>4.1</ele>
        <time>2022-06-21T09:59:32Z</time>
      </trkpt>
      <trkpt lat="45.92869" lon="-0.95126">
        <ele>4.1</ele>
        <time>2022-06-21T09:59:33Z</time>
      </trkpt>
      <trkpt lat="45.92869" lon="-0.95127">
        <ele>4.1</ele>
        <time>2022-06-21T09:59:34Z</time>
      </trkpt>
      <trkpt lat="45.92869" lon="-0.95127">
        <ele>4.1</ele>
        <time>2022-06-21T09:59:35Z</time>
      </trkpt>
      <trkpt lat="45.92869" lon="-0.95127">
        <ele>4.1</ele>
        <time>2022-06-21T09:59:36Z</time>
      </trkpt>
      <trkpt lat="45.92869" lon="-0.95127">
        <ele>4.1</ele>
        <time>2022-06-21T09:59:37Z</time>
      </trkpt>
      <trkpt lat="45.92869" lon="-0.95127">
        <ele>4.1</ele>
        <time>2022-06-21T09:59:38Z</time>
      </trkpt>
      <trkpt lat="45.92869" lon="-0.95127">
        <ele>4.1</ele>
        <time>2022-06-21T09:59:39Z</time>
      </trkpt>
      <trkpt lat="45.92869" lon="-0.95127">
        <ele>4.1</ele>
        <time>2022-06-21T09:59:40Z</time>
      </trkpt>
      <trkpt lat="45.92869" lon="-0.95127">
        <ele>4.1</ele>
        <time>2022-06-21T09:59:41Z</time>
      </trkpt>
      <trkpt lat="45.92869" lon="-0.95127">
        <ele>4.1</ele>
        <time>2022-06-21T09:59:42Z</time>
      </trkpt>
      <trkpt lat="45.92869" lon="-0.95128">
        <ele>4.1</ele>
        <time>2022-06-21T09:59:43Z</time>
      </trkpt>
      <trkpt lat="45.92869" lon="-0.95128">
        <ele>4.1</ele>
        <time>2022-06-21T09:59:44Z</time>
      </trkpt>
      <trkpt lat="45.92869" lon="-0.95128">
        <ele>4.1</ele>
        <time>2022-06-21T09:59:45Z</time>
      </trkpt>
      <trkpt lat="45.92869" lon="-0.95131">
        <ele>4.2</ele>
        <time>2022-06-21T09:59:46Z</time>
      </trkpt>
      <trkpt lat="45.92869" lon="-0.95131">
        <ele>4.2</ele>
        <time>2022-06-21T09:59:47Z</time>
      </trkpt>
      <trkpt lat="45.92869" lon="-0.95131">
        <ele>4.2</ele>
        <time>2022-06-21T09:59:48Z</time>
      </trkpt>
      <trkpt lat="45.92869" lon="-0.95131">
        <ele>4.2</ele>
        <time>2022-06-21T09:59:49Z</time>
      </trkpt>
      <trkpt lat="45.92869" lon="-0.95131">
        <ele>4.2</ele>
        <time>2022-06-21T09:59:50Z</time>
      </trkpt>
      <trkpt lat="45.92869" lon="-0.95131">
        <ele>4.2</ele>
        <time>2022-06-21T09:59:51Z</time>
      </trkpt>
      <trkpt lat="45.92869" lon="-0.95131">
        <ele>4.2</ele>
        <time>2022-06-21T09:59:52Z</time>
      </trkpt>
      <trkpt lat="45.92869" lon="-0.95131">
        <ele>4.2</ele>
        <time>2022-06-21T09:59:53Z</time>
      </trkpt>
      <trkpt lat="45.92869" lon="-0.95131">
        <ele>4.2</ele>
        <time>2022-06-21T09:59:54Z</time>
      </trkpt>
      <trkpt lat="45.92869" lon="-0.95131">
        <ele>4.2</ele>
        <time>2022-06-21T09:59:55Z</time>
      </trkpt>
      <trkpt lat="45.92869" lon="-0.95131">
        <ele>4.2</ele>
        <time>2022-06-21T09:59:56Z</time>
      </trkpt>
      <trkpt lat="45.92869" lon="-0.95131">
        <ele>4.2</ele>
        <time>2022-06-21T09:59:57Z</time>
      </trkpt>
      <trkpt lat="45.92869" lon="-0.95131">
        <ele>4.2</ele>
        <time>2022-06-21T09:59:58Z</time>
      </trkpt>
      <trkpt lat="45.92869" lon="-0.95131">
        <ele>4.2</ele>
        <time>2022-06-21T09:59:59Z</time>
      </trkpt>
      <trkpt lat="45.92869" lon="-0.95131">
        <ele>4.2</ele>
        <time>2022-06-21T10:00:00Z</time>
      </trkpt>
      <trkpt lat="45.92869" lon="-0.95131">
        <ele>4.2</ele>
        <time>2022-06-21T10:00:01Z</time>
      </trkpt>
      <trkpt lat="45.92869" lon="-0.95131">
        <ele>4.2</ele>
        <time>2022-06-21T10:00:02Z</time>
      </trkpt>
      <trkpt lat="45.92869" lon="-0.95131">
        <ele>4.2</ele>
        <time>2022-06-21T10:00:03Z</time>
      </trkpt>
      <trkpt lat="45.92869" lon="-0.95131">
        <ele>4.2</ele>
        <time>2022-06-21T10:00:04Z</time>
      </trkpt>
      <trkpt lat="45.92869" lon="-0.95131">
        <ele>4.2</ele>
        <time>2022-06-21T10:00:05Z</time>
      </trkpt>
      <trkpt lat="45.92869" lon="-0.95131">
        <ele>4.2</ele>
        <time>2022-06-21T10:00:06Z</time>
      </trkpt>
      <trkpt lat="45.92869" lon="-0.95131">
        <ele>4.2</ele>
        <time>2022-06-21T10:00:07Z</time>
      </trkpt>
      <trkpt lat="45.92869" lon="-0.95131">
        <ele>4.2</ele>
        <time>2022-06-21T10:00:08Z</time>
      </trkpt>
      <trkpt lat="45.92869" lon="-0.95131">
        <ele>4.2</ele>
        <time>2022-06-21T10:00:09Z</time>
      </trkpt>
      <trkpt lat="45.92869" lon="-0.95131">
        <ele>4.2</ele>
        <time>2022-06-21T10:00:10Z</time>
      </trkpt>
      <trkpt lat="45.92869" lon="-0.95131">
        <ele>4.2</ele>
        <time>2022-06-21T10:00:11Z</time>
      </trkpt>
      <trkpt lat="45.92869" lon="-0.95131">
        <ele>4.2</ele>
        <time>2022-06-21T10:00:12Z</time>
      </trkpt>
      <trkpt lat="45.92869" lon="-0.95131">
        <ele>4.2</ele>
        <time>2022-06-21T10:00:13Z</time>
      </trkpt>
      <trkpt lat="45.92869" lon="-0.95131">
        <ele>4.2</ele>
        <time>2022-06-21T10:00:14Z</time>
      </trkpt>
      <trkpt lat="45.92869" lon="-0.95131">
        <ele>4.2</ele>
        <time>2022-06-21T10:00:15Z</time>
      </trkpt>
      <trkpt lat="45.92869" lon="-0.95131">
        <ele>4.2</ele>
        <time>2022-06-21T10:00:16Z</time>
      </trkpt>
      <trkpt lat="45.9287" lon="-0.95131">
        <ele>4.2</ele>
        <time>2022-06-21T10:00:17Z</time>
      </trkpt>
      <trkpt lat="45.92869" lon="-0.95131">
        <ele>4.2</ele>
        <time>2022-06-21T10:00:18Z</time>
      </trkpt>
      <trkpt lat="45.92869" lon="-0.95131">
        <ele>4.2</ele>
        <time>2022-06-21T10:00:19Z</time>
      </trkpt>
      <trkpt lat="45.92869" lon="-0.95131">
        <ele>4.2</ele>
        <time>2022-06-21T10:00:20Z</time>
      </trkpt>
      <trkpt lat="45.92869" lon="-0.95131">
        <ele>4.2</ele>
        <time>2022-06-21T10:00:21Z</time>
      </trkpt>
      <trkpt lat="45.92869" lon="-0.95131">
        <ele>4.2</ele>
        <time>2022-06-21T10:00:22Z</time>
      </trkpt>
      <trkpt lat="45.92869" lon="-0.95131">
        <ele>4.2</ele>
        <time>2022-06-21T10:00:23Z</time>
      </trkpt>
      <trkpt lat="45.92869" lon="-0.95131">
        <ele>4.2</ele>
        <time>2022-06-21T10:00:24Z</time>
      </trkpt>
      <trkpt lat="45.92869" lon="-0.95131">
        <ele>4.2</ele>
        <time>2022-06-21T10:00:25Z</time>
      </trkpt>
      <trkpt lat="45.92869" lon="-0.95131">
        <ele>4.2</ele>
        <time>2022-06-21T10:00:26Z</time>
      </trkpt>
      <trkpt lat="45.92869" lon="-0.95131">
        <ele>4.2</ele>
        <time>2022-06-21T10:00:27Z</time>
      </trkpt>
      <trkpt lat="45.92869" lon="-0.95131">
        <ele>4.2</ele>
        <time>2022-06-21T10:00:28Z</time>
      </trkpt>
      <trkpt lat="45.9287" lon="-0.9513">
        <ele>4.1</ele>
        <time>2022-06-21T10:00:29Z</time>
      </trkpt>
      <trkpt lat="45.9287" lon="-0.9513">
        <ele>4.1</ele>
        <time>2022-06-21T10:00:30Z</time>
      </trkpt>
      <trkpt lat="45.9287" lon="-0.9513">
        <ele>4.1</ele>
        <time>2022-06-21T10:00:31Z</time>
      </trkpt>
      <trkpt lat="45.9287" lon="-0.9513">
        <ele>4.1</ele>
        <time>2022-06-21T10:00:32Z</time>
      </trkpt>
      <trkpt lat="45.9287" lon="-0.9513">
        <ele>4.1</ele>
        <time>2022-06-21T10:00:33Z</time>
      </trkpt>
      <trkpt lat="45.9287" lon="-0.95129">
        <ele>4.1</ele>
        <time>2022-06-21T10:00:34Z</time>
      </trkpt>
      <trkpt lat="45.9287" lon="-0.95129">
        <ele>4.1</ele>
        <time>2022-06-21T10:00:35Z</time>
      </trkpt>
      <trkpt lat="45.92871" lon="-0.95129">
        <ele>4.1</ele>
        <time>2022-06-21T10:00:36Z</time>
      </trkpt>
      <trkpt lat="45.92871" lon="-0.95129">
        <ele>4.1</ele>
        <time>2022-06-21T10:00:37Z</time>
      </trkpt>
      <trkpt lat="45.92871" lon="-0.95129">
        <ele>4.1</ele>
        <time>2022-06-21T10:00:38Z</time>
      </trkpt>
      <trkpt lat="45.92871" lon="-0.95128">
        <ele>4.1</ele>
        <time>2022-06-21T10:00:39Z</time>
      </trkpt>
      <trkpt lat="45.92871" lon="-0.95128">
        <ele>4.1</ele>
        <time>2022-06-21T10:00:40Z</time>
      </trkpt>
      <trkpt lat="45.92871" lon="-0.95128">
        <ele>4.1</ele>
        <time>2022-06-21T10:00:41Z</time>
      </trkpt>
      <trkpt lat="45.92871" lon="-0.95128">
        <ele>4.1</ele>
        <time>2022-06-21T10:00:42Z</time>
      </trkpt>
      <trkpt lat="45.92871" lon="-0.95128">
        <ele>4.1</ele>
        <time>2022-06-21T10:00:43Z</time>
      </trkpt>
      <trkpt lat="45.92872" lon="-0.95127">
        <ele>4.1</ele>
        <time>2022-06-21T10:00:44Z</time>
      </trkpt>
      <trkpt lat="45.9287" lon="-0.95126">
        <ele>4.1</ele>
        <time>2022-06-21T10:00:45Z</time>
      </trkpt>
      <trkpt lat="45.92868" lon="-0.95125">
        <ele>4</ele>
        <time>2022-06-21T10:00:46Z</time>
      </trkpt>
      <trkpt lat="45.92867" lon="-0.95124">
        <ele>4.1</ele>
        <time>2022-06-21T10:00:47Z</time>
      </trkpt>
      <trkpt lat="45.92865" lon="-0.95124">
        <ele>4.1</ele>
        <time>2022-06-21T10:00:48Z</time>
      </trkpt>
      <trkpt lat="45.92863" lon="-0.95123">
        <ele>4.1</ele>
        <time>2022-06-21T10:00:49Z</time>
      </trkpt>
      <trkpt lat="45.92862" lon="-0.95122">
        <ele>4.1</ele>
        <time>2022-06-21T10:00:50Z</time>
      </trkpt>
      <trkpt lat="45.9286" lon="-0.95121">
        <ele>4.1</ele>
        <time>2022-06-21T10:00:51Z</time>
      </trkpt>
      <trkpt lat="45.92858" lon="-0.9512">
        <ele>4.2</ele>
        <time>2022-06-21T10:00:52Z</time>
      </trkpt>
      <trkpt lat="45.92857" lon="-0.95119">
        <ele>4.2</ele>
        <time>2022-06-21T10:00:53Z</time>
      </trkpt>
      <trkpt lat="45.92855" lon="-0.95118">
        <ele>4.2</ele>
        <time>2022-06-21T10:00:54Z</time>
      </trkpt>
      <trkpt lat="45.92853" lon="-0.95117">
        <ele>4.1</ele>
        <time>2022-06-21T10:00:55Z</time>
      </trkpt>
      <trkpt lat="45.92852" lon="-0.95116">
        <ele>4.2</ele>
        <time>2022-06-21T10:00:59Z</time>
      </trkpt>
      <trkpt lat="45.9285" lon="-0.95115">
        <ele>4.2</ele>
        <time>2022-06-21T10:01:04Z</time>
      </trkpt>
      <trkpt lat="45.92848" lon="-0.95114">
        <ele>4.3</ele>
        <time>2022-06-21T10:01:09Z</time>
      </trkpt>
      <trkpt lat="45.92847" lon="-0.95113">
        <ele>4.4</ele>
        <time>2022-06-21T10:01:19Z</time>
      </trkpt>
      <trkpt lat="45.92845" lon="-0.95112">
        <ele>4.3</ele>
        <time>2022-06-21T10:01:24Z</time>
      </trkpt>
      <trkpt lat="45.92843" lon="-0.95112">
        <ele>4.3</ele>
        <time>2022-06-21T10:01:29Z</time>
      </trkpt>
      <trkpt lat="45.92842" lon="-0.95111">
        <ele>4.3</ele>
        <time>2022-06-21T10:01:34Z</time>
      </trkpt>
      <trkpt lat="45.9284" lon="-0.9511">
        <ele>4.4</ele>
        <time>2022-06-21T10:01:39Z</time>
      </trkpt>
      <trkpt lat="45.92838" lon="-0.95109">
        <ele>4.3</ele>
        <time>2022-06-21T10:01:44Z</time>
      </trkpt>
      <trkpt lat="45.92837" lon="-0.95108">
        <ele>4.4</ele>
        <time>2022-06-21T10:01:55Z</time>
      </trkpt>
      <trkpt lat="45.92835" lon="-0.95107">
        <ele>4.4</ele>
        <time>2022-06-21T10:02:01Z</time>
      </trkpt>
      <trkpt lat="45.92833" lon="-0.95106">
        <ele>4.4</ele>
        <time>2022-06-21T10:02:07Z</time>
      </trkpt>
      <trkpt lat="45.92832" lon="-0.95105">
        <ele>4.5</ele>
        <time>2022-06-21T10:02:12Z</time>
      </trkpt>
      <trkpt lat="45.9283" lon="-0.95104">
        <ele>4.4</ele>
        <time>2022-06-21T10:02:17Z</time>
      </trkpt>
      <trkpt lat="45.92828" lon="-0.95103">
        <ele>4.5</ele>
        <time>2022-06-21T10:02:18Z</time>
      </trkpt>
      <trkpt lat="45.92827" lon="-0.95102">
        <ele>4.5</ele>
        <time>2022-06-21T10:02:19Z</time>
      </trkpt>
      <trkpt lat="45.92825" lon="-0.95101">
        <ele>4.5</ele>
        <time>2022-06-21T10:02:20Z</time>
      </trkpt>
      <trkpt lat="45.92825" lon="-0.95101">
        <ele>4.5</ele>
        <time>2022-06-21T10:02:21Z</time>
      </trkpt>
      <trkpt lat="45.92828" lon="-0.95102">
        <ele>4.5</ele>
        <time>2022-06-21T10:02:22Z</time>
      </trkpt>
      <trkpt lat="45.92829" lon="-0.95103">
        <ele>4.5</ele>
        <time>2022-06-21T10:02:23Z</time>
      </trkpt>
      <trkpt lat="45.92831" lon="-0.95104">
        <ele>4.4</ele>
        <time>2022-06-21T10:02:24Z</time>
      </trkpt>
      <trkpt lat="45.92833" lon="-0.95105">
        <ele>4.4</ele>
        <time>2022-06-21T10:02:25Z</time>
      </trkpt>
      <trkpt lat="45.92834" lon="-0.95105">
        <ele>4.4</ele>
        <time>2022-06-21T10:02:26Z</time>
      </trkpt>
      <trkpt lat="45.92836" lon="-0.95106">
        <ele>4.4</ele>
        <time>2022-06-21T10:02:27Z</time>
      </trkpt>
      <trkpt lat="45.92836" lon="-0.95106">
        <ele>4.4</ele>
        <time>2022-06-21T10:02:28Z</time>
      </trkpt>
      <trkpt lat="45.92837" lon="-0.95106">
        <ele>4.4</ele>
        <time>2022-06-21T10:02:29Z</time>
      </trkpt>
      <trkpt lat="45.92839" lon="-0.95107">
        <ele>4.3</ele>
        <time>2022-06-21T10:02:30Z</time>
      </trkpt>
      <trkpt lat="45.9284" lon="-0.95107">
        <ele>4.3</ele>
        <time>2022-06-21T10:02:31Z</time>
      </trkpt>
      <trkpt lat="45.92842" lon="-0.95108">
        <ele>4.2</ele>
        <time>2022-06-21T10:02:32Z</time>
      </trkpt>
      <trkpt lat="45.92843" lon="-0.95109">
        <ele>4.2</ele>
        <time>2022-06-21T10:02:33Z</time>
      </trkpt>
      <trkpt lat="45.92844" lon="-0.95109">
        <ele>4.3</ele>
        <time>2022-06-21T10:02:34Z</time>
      </trkpt>
      <trkpt lat="45.92845" lon="-0.9511">
        <ele>4.3</ele>
        <time>2022-06-21T10:02:35Z</time>
      </trkpt>
      <trkpt lat="45.92846" lon="-0.9511">
        <ele>4.3</ele>
        <time>2022-06-21T10:02:36Z</time>
      </trkpt>
      <trkpt lat="45.92848" lon="-0.95111">
        <ele>4.2</ele>
        <time>2022-06-21T10:02:37Z</time>
      </trkpt>
      <trkpt lat="45.9285" lon="-0.95112">
        <ele>4.1</ele>
        <time>2022-06-21T10:02:38Z</time>
      </trkpt>
      <trkpt lat="45.92851" lon="-0.95113">
        <ele>4.1</ele>
        <time>2022-06-21T10:02:39Z</time>
      </trkpt>
      <trkpt lat="45.92852" lon="-0.95113">
        <ele>4.1</ele>
        <time>2022-06-21T10:02:40Z</time>
      </trkpt>
      <trkpt lat="45.92852" lon="-0.9512">
        <ele>4.3</ele>
        <time>2022-06-21T10:02:41Z</time>
      </trkpt>
      <trkpt lat="45.92854" lon="-0.95126">
        <ele>4.3</ele>
        <time>2022-06-21T10:02:42Z</time>
      </trkpt>
      <trkpt lat="45.92855" lon="-0.95132">
        <ele>4.5</ele>
        <time>2022-06-21T10:02:43Z</time>
      </trkpt>
      <trkpt lat="45.92854" lon="-0.95135">
        <ele>4.6</ele>
        <time>2022-06-21T10:02:44Z</time>
      </trkpt>
      <trkpt lat="45.92854" lon="-0.95137">
        <ele>4.6</ele>
        <time>2022-06-21T10:02:46Z</time>
      </trkpt>
      <trkpt lat="45.92853" lon="-0.95138">
        <ele>4.6</ele>
        <time>2022-06-21T10:02:47Z</time>
      </trkpt>
      <trkpt lat="45.92852" lon="-0.9514">
        <ele>4.7</ele>
        <time>2022-06-21T10:02:48Z</time>
      </trkpt>
      <trkpt lat="45.92851" lon="-0.95142">
        <ele>4.7</ele>
        <time>2022-06-21T10:02:50Z</time>
      </trkpt>
      <trkpt lat="45.92851" lon="-0.95144">
        <ele>4.8</ele>
        <time>2022-06-21T10:02:51Z</time>
      </trkpt>
      <trkpt lat="45.92851" lon="-0.95145">
        <ele>4.8</ele>
        <time>2022-06-21T10:02:52Z</time>
      </trkpt>
      <trkpt lat="45.92852" lon="-0.95146">
        <ele>4.8</ele>
        <time>2022-06-21T10:02:53Z</time>
      </trkpt>
      <trkpt lat="45.92853" lon="-0.95147">
        <ele>4.8</ele>
        <time>2022-06-21T10:02:54Z</time>
      </trkpt>
      <trkpt lat="45.92854" lon="-0.95147">
        <ele>4.7</ele>
        <time>2022-06-21T10:02:55Z</time>
      </trkpt>
      <trkpt lat="45.92856" lon="-0.95147">
        <ele>4.7</ele>
        <time>2022-06-21T10:02:57Z</time>
      </trkpt>
      <trkpt lat="45.9286" lon="-0.95145">
        <ele>4.6</ele>
        <time>2022-06-21T10:02:58Z</time>
      </trkpt>
      <trkpt lat="45.92861" lon="-0.95144">
        <ele>4.6</ele>
        <time>2022-06-21T10:02:59Z</time>
      </trkpt>
      <trkpt lat="45.92863" lon="-0.95143">
        <ele>4.5</ele>
        <time>2022-06-21T10:03:00Z</time>
      </trkpt>
      <trkpt lat="45.92865" lon="-0.95141">
        <ele>4.5</ele>
        <time>2022-06-21T10:03:01Z</time>
      </trkpt>
      <trkpt lat="45.92869" lon="-0.95137">
        <ele>4.3</ele>
        <time>2022-06-21T10:03:03Z</time>
      </trkpt>
      <trkpt lat="45.92872" lon="-0.95134">
        <ele>4.3</ele>
        <time>2022-06-21T10:03:04Z</time>
      </trkpt>
      <trkpt lat="45.92872" lon="-0.95133">
        <ele>4.3</ele>
        <time>2022-06-21T10:03:05Z</time>
      </trkpt>
      <trkpt lat="45.92874" lon="-0.95131">
        <ele>4.3</ele>
        <time>2022-06-21T10:03:06Z</time>
      </trkpt>
      <trkpt lat="45.92875" lon="-0.9513">
        <ele>4.3</ele>
        <time>2022-06-21T10:03:07Z</time>
      </trkpt>
      <trkpt lat="45.92878" lon="-0.95126">
        <ele>4.3</ele>
        <time>2022-06-21T10:03:08Z</time>
      </trkpt>
      <trkpt lat="45.92882" lon="-0.95122">
        <ele>4.3</ele>
        <time>2022-06-21T10:03:10Z</time>
      </trkpt>
      <trkpt lat="45.92883" lon="-0.95121">
        <ele>4.3</ele>
        <time>2022-06-21T10:03:11Z</time>
      </trkpt>
      <trkpt lat="45.92884" lon="-0.95119">
        <ele>4.4</ele>
        <time>2022-06-21T10:03:12Z</time>
      </trkpt>
      <trkpt lat="45.92887" lon="-0.95116">
        <ele>4.4</ele>
        <time>2022-06-21T10:03:13Z</time>
      </trkpt>
      <trkpt lat="45.92887" lon="-0.95116">
        <ele>4.4</ele>
        <time>2022-06-21T10:03:14Z</time>
      </trkpt>
      <trkpt lat="45.92888" lon="-0.95116">
        <ele>4.4</ele>
        <time>2022-06-21T10:03:15Z</time>
      </trkpt>
      <trkpt lat="45.92889" lon="-0.95115">
        <ele>4.3</ele>
        <time>2022-06-21T10:03:16Z</time>
      </trkpt>
      <trkpt lat="45.92889" lon="-0.95113">
        <ele>4.3</ele>
        <time>2022-06-21T10:03:17Z</time>
      </trkpt>
      <trkpt lat="45.92889" lon="-0.95111">
        <ele>4.3</ele>
        <time>2022-06-21T10:03:19Z</time>
      </trkpt>
      <trkpt lat="45.92889" lon="-0.9511">
        <ele>4.3</ele>
        <time>2022-06-21T10:03:20Z</time>
      </trkpt>
      <trkpt lat="45.92888" lon="-0.95109">
        <ele>4.3</ele>
        <time>2022-06-21T10:03:21Z</time>
      </trkpt>
      <trkpt lat="45.92887" lon="-0.95109">
        <ele>4.3</ele>
        <time>2022-06-21T10:03:22Z</time>
      </trkpt>
      <trkpt lat="45.92887" lon="-0.95107">
        <ele>4.3</ele>
        <time>2022-06-21T10:03:23Z</time>
      </trkpt>
      <trkpt lat="45.92887" lon="-0.95103">
        <ele>4.2</ele>
        <time>2022-06-21T10:03:25Z</time>
      </trkpt>
      <trkpt lat="45.92887" lon="-0.95101">
        <ele>4.2</ele>
        <time>2022-06-21T10:03:26Z</time>
      </trkpt>
      <trkpt lat="45.92886" lon="-0.95099">
        <ele>4.2</ele>
        <time>2022-06-21T10:03:27Z</time>
      </trkpt>
      <trkpt lat="45.92886" lon="-0.95097">
        <ele>4.2</ele>
        <time>2022-06-21T10:03:28Z</time>
      </trkpt>
      <trkpt lat="45.92886" lon="-0.95095">
        <ele>4.2</ele>
        <time>2022-06-21T10:03:29Z</time>
      </trkpt>
      <trkpt lat="45.92886" lon="-0.95092">
        <ele>4.2</ele>
        <time>2022-06-21T10:03:31Z</time>
      </trkpt>
      <trkpt lat="45.92886" lon="-0.9509">
        <ele>4.2</ele>
        <time>2022-06-21T10:03:32Z</time>
      </trkpt>
      <trkpt lat="45.92886" lon="-0.95089">
        <ele>4.1</ele>
        <time>2022-06-21T10:03:33Z</time>
      </trkpt>
      <trkpt lat="45.92886" lon="-0.95086">
        <ele>4.1</ele>
        <time>2022-06-21T10:03:34Z</time>
      </trkpt>
      <trkpt lat="45.92887" lon="-0.95083">
        <ele>4.1</ele>
        <time>2022-06-21T10:03:35Z</time>
      </trkpt>
      <trkpt lat="45.92887" lon="-0.95082">
        <ele>4.1</ele>
        <time>2022-06-21T10:03:36Z</time>
      </trkpt>
      <trkpt lat="45.92888" lon="-0.95081">
        <ele>4.1</ele>
        <time>2022-06-21T10:03:37Z</time>
      </trkpt>
      <trkpt lat="45.92889" lon="-0.95077">
        <ele>4.1</ele>
        <time>2022-06-21T10:03:39Z</time>
      </trkpt>
      <trkpt lat="45.9289" lon="-0.95076">
        <ele>4.1</ele>
        <time>2022-06-21T10:03:40Z</time>
      </trkpt>
      <trkpt lat="45.92891" lon="-0.95074">
        <ele>4.1</ele>
        <time>2022-06-21T10:03:41Z</time>
      </trkpt>
      <trkpt lat="45.92892" lon="-0.95073">
        <ele>4.1</ele>
        <time>2022-06-21T10:03:42Z</time>
      </trkpt>
      <trkpt lat="45.92893" lon="-0.95074">
        <ele>4.1</ele>
        <time>2022-06-21T10:03:43Z</time>
      </trkpt>
      <trkpt lat="45.92896" lon="-0.95075">
        <ele>4.1</ele>
        <time>2022-06-21T10:03:44Z</time>
      </trkpt>
      <trkpt lat="45.92897" lon="-0.95076">
        <ele>4.1</ele>
        <time>2022-06-21T10:03:45Z</time>
      </trkpt>
      <trkpt lat="45.92898" lon="-0.95077">
        <ele>4.1</ele>
        <time>2022-06-21T10:03:46Z</time>
      </trkpt>
      <trkpt lat="45.92899" lon="-0.95077">
        <ele>4.1</ele>
        <time>2022-06-21T10:03:47Z</time>
      </trkpt>
      <trkpt lat="45.92901" lon="-0.95076">
        <ele>4.1</ele>
        <time>2022-06-21T10:03:48Z</time>
      </trkpt>
      <trkpt lat="45.92903" lon="-0.95077">
        <ele>4.1</ele>
        <time>2022-06-21T10:03:50Z</time>
      </trkpt>
      <trkpt lat="45.92904" lon="-0.95078">
        <ele>4</ele>
        <time>2022-06-21T10:03:51Z</time>
      </trkpt>
      <trkpt lat="45.92905" lon="-0.95079">
        <ele>4</ele>
        <time>2022-06-21T10:03:52Z</time>
      </trkpt>
      <trkpt lat="45.92907" lon="-0.9508">
        <ele>4</ele>
        <time>2022-06-21T10:03:53Z</time>
      </trkpt>
      <trkpt lat="45.92908" lon="-0.95081">
        <ele>4</ele>
        <time>2022-06-21T10:03:54Z</time>
      </trkpt>
      <trkpt lat="45.9291" lon="-0.95084">
        <ele>4</ele>
        <time>2022-06-21T10:03:55Z</time>
      </trkpt>
      <trkpt lat="45.92911" lon="-0.95086">
        <ele>4</ele>
        <time>2022-06-21T10:03:56Z</time>
      </trkpt>
      <trkpt lat="45.92913" lon="-0.95089">
        <ele>4</ele>
        <time>2022-06-21T10:03:58Z</time>
      </trkpt>
      <trkpt lat="45.92914" lon="-0.9509">
        <ele>4</ele>
        <time>2022-06-21T10:03:59Z</time>
      </trkpt>
      <trkpt lat="45.92916" lon="-0.95091">
        <ele>4</ele>
        <time>2022-06-21T10:04:00Z</time>
      </trkpt>
      <trkpt lat="45.92917" lon="-0.95092">
        <ele>4</ele>
        <time>2022-06-21T10:04:01Z</time>
      </trkpt>
      <trkpt lat="45.92918" lon="-0.95092">
        <ele>4</ele>
        <time>2022-06-21T10:04:02Z</time>
      </trkpt>
      <trkpt lat="45.9292" lon="-0.95093">
        <ele>4</ele>
        <time>2022-06-21T10:04:03Z</time>
      </trkpt>
      <trkpt lat="45.92921" lon="-0.95094">
        <ele>4</ele>
        <time>2022-06-21T10:04:04Z</time>
      </trkpt>
      <trkpt lat="45.92924" lon="-0.95096">
        <ele>4</ele>
        <time>2022-06-21T10:04:05Z</time>
      </trkpt>
      <trkpt lat="45.92925" lon="-0.95097">
        <ele>4</ele>
        <time>2022-06-21T10:04:07Z</time>
      </trkpt>
      <trkpt lat="45.92926" lon="-0.95097">
        <ele>4</ele>
        <time>2022-06-21T10:04:08Z</time>
      </trkpt>
      <trkpt lat="45.92926" lon="-0.95097">
        <ele>4</ele>
        <time>2022-06-21T10:04:09Z</time>
      </trkpt>
      <trkpt lat="45.92927" lon="-0.95098">
        <ele>4</ele>
        <time>2022-06-21T10:04:10Z</time>
      </trkpt>
      <trkpt lat="45.92928" lon="-0.95098">
        <ele>4.1</ele>
        <time>2022-06-21T10:04:11Z</time>
      </trkpt>
      <trkpt lat="45.92931" lon="-0.951">
        <ele>4.1</ele>
        <time>2022-06-21T10:04:13Z</time>
      </trkpt>
      <trkpt lat="45.92932" lon="-0.95101">
        <ele>4.1</ele>
        <time>2022-06-21T10:04:14Z</time>
      </trkpt>
      <trkpt lat="45.92933" lon="-0.95101">
        <ele>4.1</ele>
        <time>2022-06-21T10:04:15Z</time>
      </trkpt>
      <trkpt lat="45.92935" lon="-0.95102">
        <ele>4.1</ele>
        <time>2022-06-21T10:04:16Z</time>
      </trkpt>
      <trkpt lat="45.92936" lon="-0.95103">
        <ele>4.1</ele>
        <time>2022-06-21T10:04:17Z</time>
      </trkpt>
      <trkpt lat="45.92937" lon="-0.95103">
        <ele>4.1</ele>
        <time>2022-06-21T10:04:19Z</time>
      </trkpt>
      <trkpt lat="45.92938" lon="-0.95103">
        <ele>4.1</ele>
        <time>2022-06-21T10:04:20Z</time>
      </trkpt>
      <trkpt lat="45.92939" lon="-0.95104">
        <ele>4.1</ele>
        <time>2022-06-21T10:04:21Z</time>
      </trkpt>
      <trkpt lat="45.9294" lon="-0.95104">
        <ele>4.1</ele>
        <time>2022-06-21T10:04:22Z</time>
      </trkpt>
      <trkpt lat="45.92942" lon="-0.95104">
        <ele>4.1</ele>
        <time>2022-06-21T10:04:23Z</time>
      </trkpt>
      <trkpt lat="45.92943" lon="-0.95104">
        <ele>4.1</ele>
        <time>2022-06-21T10:04:24Z</time>
      </trkpt>
      <trkpt lat="45.92944" lon="-0.95104">
        <ele>4.1</ele>
        <time>2022-06-21T10:04:25Z</time>
      </trkpt>
      <trkpt lat="45.92946" lon="-0.95105">
        <ele>4.1</ele>
        <time>2022-06-21T10:04:26Z</time>
      </trkpt>
      <trkpt lat="45.92948" lon="-0.95105">
        <ele>4.1</ele>
        <time>2022-06-21T10:04:28Z</time>
      </trkpt>
      <trkpt lat="45.92949" lon="-0.95105">
        <ele>4.1</ele>
        <time>2022-06-21T10:04:29Z</time>
      </trkpt>
      <trkpt lat="45.92951" lon="-0.95105">
        <ele>4.1</ele>
        <time>2022-06-21T10:04:30Z</time>
      </trkpt>
      <trkpt lat="45.92953" lon="-0.95105">
        <ele>4.1</ele>
        <time>2022-06-21T10:04:31Z</time>
      </trkpt>
      <trkpt lat="45.92954" lon="-0.95105">
        <ele>4.1</ele>
        <time>2022-06-21T10:04:32Z</time>
      </trkpt>
      <trkpt lat="45.92957" lon="-0.95104">
        <ele>4</ele>
        <time>2022-06-21T10:04:33Z</time>
      </trkpt>
      <trkpt lat="45.92957" lon="-0.95104">
        <ele>4</ele>
        <time>2022-06-21T10:04:34Z</time>
      </trkpt>
      <trkpt lat="45.92958" lon="-0.95104">
        <ele>4</ele>
        <time>2022-06-21T10:04:35Z</time>
      </trkpt>
      <trkpt lat="45.9296" lon="-0.95104">
        <ele>4</ele>
        <time>2022-06-21T10:04:37Z</time>
      </trkpt>
      <trkpt lat="45.92963" lon="-0.95103">
        <ele>4</ele>
        <time>2022-06-21T10:04:39Z</time>
      </trkpt>
      <trkpt lat="45.92964" lon="-0.95102">
        <ele>4</ele>
        <time>2022-06-21T10:04:40Z</time>
      </trkpt>
      <trkpt lat="45.92965" lon="-0.95102">
        <ele>4</ele>
        <time>2022-06-21T10:04:41Z</time>
      </trkpt>
      <trkpt lat="45.92966" lon="-0.95102">
        <ele>4</ele>
        <time>2022-06-21T10:04:42Z</time>
      </trkpt>
      <trkpt lat="45.92968" lon="-0.95101">
        <ele>4</ele>
        <time>2022-06-21T10:04:43Z</time>
      </trkpt>
      <trkpt lat="45.92969" lon="-0.951">
        <ele>4</ele>
        <time>2022-06-21T10:04:44Z</time>
      </trkpt>
      <trkpt lat="45.92969" lon="-0.95099">
        <ele>4</ele>
        <time>2022-06-21T10:04:45Z</time>
      </trkpt>
      <trkpt lat="45.9297" lon="-0.95099">
        <ele>4</ele>
        <time>2022-06-21T10:04:46Z</time>
      </trkpt>
      <trkpt lat="45.92972" lon="-0.95098">
        <ele>4</ele>
        <time>2022-06-21T10:04:48Z</time>
      </trkpt>
      <trkpt lat="45.92973" lon="-0.95098">
        <ele>4</ele>
        <time>2022-06-21T10:04:49Z</time>
      </trkpt>
      <trkpt lat="45.92975" lon="-0.95097">
        <ele>4</ele>
        <time>2022-06-21T10:04:50Z</time>
      </trkpt>
      <trkpt lat="45.92976" lon="-0.95097">
        <ele>4</ele>
        <time>2022-06-21T10:04:51Z</time>
      </trkpt>
      <trkpt lat="45.92977" lon="-0.95097">
        <ele>4</ele>
        <time>2022-06-21T10:04:52Z</time>
      </trkpt>
      <trkpt lat="45.92978" lon="-0.95097">
        <ele>4.1</ele>
        <time>2022-06-21T10:04:54Z</time>
      </trkpt>
      <trkpt lat="45.92979" lon="-0.95097">
        <ele>4.1</ele>
        <time>2022-06-21T10:04:55Z</time>
      </trkpt>
      <trkpt lat="45.92977" lon="-0.95098">
        <ele>4.1</ele>
        <time>2022-06-21T10:04:56Z</time>
      </trkpt>
      <trkpt lat="45.92978" lon="-0.95098">
        <ele>4.1</ele>
        <time>2022-06-21T10:04:57Z</time>
      </trkpt>
      <trkpt lat="45.92979" lon="-0.95099">
        <ele>4.1</ele>
        <time>2022-06-21T10:04:58Z</time>
      </trkpt>
      <trkpt lat="45.92981" lon="-0.95101">
        <ele>4.1</ele>
        <time>2022-06-21T10:04:59Z</time>
      </trkpt>
      <trkpt lat="45.92982" lon="-0.95102">
        <ele>4.1</ele>
        <time>2022-06-21T10:05:01Z</time>
      </trkpt>
      <trkpt lat="45.92983" lon="-0.95103">
        <ele>4.1</ele>
        <time>2022-06-21T10:05:02Z</time>
      </trkpt>
      <trkpt lat="45.92984" lon="-0.95104">
        <ele>4.1</ele>
        <time>2022-06-21T10:05:03Z</time>
      </trkpt>
      <trkpt lat="45.92985" lon="-0.95105">
        <ele>4.1</ele>
        <time>2022-06-21T10:05:04Z</time>
      </trkpt>
      <trkpt lat="45.92986" lon="-0.95108">
        <ele>4.1</ele>
        <time>2022-06-21T10:05:05Z</time>
      </trkpt>
      <trkpt lat="45.92987" lon="-0.95109">
        <ele>4.1</ele>
        <time>2022-06-21T10:05:06Z</time>
      </trkpt>
      <trkpt lat="45.92987" lon="-0.95109">
        <ele>4.1</ele>
        <time>2022-06-21T10:05:07Z</time>
      </trkpt>
      <trkpt lat="45.92989" lon="-0.95111">
        <ele>4.1</ele>
        <time>2022-06-21T10:05:09Z</time>
      </trkpt>
      <trkpt lat="45.9299" lon="-0.95113">
        <ele>4.1</ele>
        <time>2022-06-21T10:05:10Z</time>
      </trkpt>
      <trkpt lat="45.92991" lon="-0.95114">
        <ele>4.1</ele>
        <time>2022-06-21T10:05:11Z</time>
      </trkpt>
      <trkpt lat="45.92992" lon="-0.95115">
        <ele>4.1</ele>
        <time>2022-06-21T10:05:12Z</time>
      </trkpt>
      <trkpt lat="45.92994" lon="-0.95116">
        <ele>4</ele>
        <time>2022-06-21T10:05:13Z</time>
      </trkpt>
      <trkpt lat="45.92995" lon="-0.95117">
        <ele>4</ele>
        <time>2022-06-21T10:05:14Z</time>
      </trkpt>
      <trkpt lat="45.92997" lon="-0.95118">
        <ele>4</ele>
        <time>2022-06-21T10:05:15Z</time>
      </trkpt>
      <trkpt lat="45.92998" lon="-0.95119">
        <ele>4</ele>
        <time>2022-06-21T10:05:16Z</time>
      </trkpt>
      <trkpt lat="45.92999" lon="-0.9512">
        <ele>4</ele>
        <time>2022-06-21T10:05:17Z</time>
      </trkpt>
      <trkpt lat="45.93001" lon="-0.95121">
        <ele>4</ele>
        <time>2022-06-21T10:05:18Z</time>
      </trkpt>
      <trkpt lat="45.93002" lon="-0.95122">
        <ele>4</ele>
        <time>2022-06-21T10:05:20Z</time>
      </trkpt>
      <trkpt lat="45.93003" lon="-0.95123">
        <ele>4</ele>
        <time>2022-06-21T10:05:21Z</time>
      </trkpt>
      <trkpt lat="45.93004" lon="-0.95124">
        <ele>4</ele>
        <time>2022-06-21T10:05:22Z</time>
      </trkpt>
      <trkpt lat="45.93005" lon="-0.95126">
        <ele>4</ele>
        <time>2022-06-21T10:05:24Z</time>
      </trkpt>
      <trkpt lat="45.93005" lon="-0.95126">
        <ele>4</ele>
        <time>2022-06-21T10:05:25Z</time>
      </trkpt>
      <trkpt lat="45.93006" lon="-0.95127">
        <ele>4</ele>
        <time>2022-06-21T10:05:26Z</time>
      </trkpt>
      <trkpt lat="45.93006" lon="-0.95127">
        <ele>4</ele>
        <time>2022-06-21T10:05:27Z</time>
      </trkpt>
      <trkpt lat="45.93007" lon="-0.95127">
        <ele>4</ele>
        <time>2022-06-21T10:05:28Z</time>
      </trkpt>
      <trkpt lat="45.93008" lon="-0.95128">
        <ele>4</ele>
        <time>2022-06-21T10:05:29Z</time>
      </trkpt>
      <trkpt lat="45.93008" lon="-0.95129">
        <ele>3.9</ele>
        <time>2022-06-21T10:05:31Z</time>
      </trkpt>
      <trkpt lat="45.93009" lon="-0.95129">
        <ele>3.9</ele>
        <time>2022-06-21T10:05:32Z</time>
      </trkpt>
      <trkpt lat="45.9301" lon="-0.9513">
        <ele>3.9</ele>
        <time>2022-06-21T10:05:33Z</time>
      </trkpt>
      <trkpt lat="45.93011" lon="-0.9513">
        <ele>3.9</ele>
        <time>2022-06-21T10:05:34Z</time>
      </trkpt>
      <trkpt lat="45.93012" lon="-0.9513">
        <ele>3.9</ele>
        <time>2022-06-21T10:05:35Z</time>
      </trkpt>
      <trkpt lat="45.93012" lon="-0.95131">
        <ele>3.9</ele>
        <time>2022-06-21T10:05:36Z</time>
      </trkpt>
      <trkpt lat="45.93013" lon="-0.95131">
        <ele>3.9</ele>
        <time>2022-06-21T10:05:37Z</time>
      </trkpt>
      <trkpt lat="45.93014" lon="-0.95132">
        <ele>3.9</ele>
        <time>2022-06-21T10:05:39Z</time>
      </trkpt>
      <trkpt lat="45.93016" lon="-0.95133">
        <ele>3.9</ele>
        <time>2022-06-21T10:05:40Z</time>
      </trkpt>
      <trkpt lat="45.93017" lon="-0.95134">
        <ele>3.9</ele>
        <time>2022-06-21T10:05:41Z</time>
      </trkpt>
      <trkpt lat="45.93018" lon="-0.95134">
        <ele>3.9</ele>
        <time>2022-06-21T10:05:42Z</time>
      </trkpt>
      <trkpt lat="45.93021" lon="-0.95136">
        <ele>3.9</ele>
        <time>2022-06-21T10:05:44Z</time>
      </trkpt>
      <trkpt lat="45.93022" lon="-0.95136">
        <ele>3.9</ele>
        <time>2022-06-21T10:05:45Z</time>
      </trkpt>
      <trkpt lat="45.93024" lon="-0.95138">
        <ele>3.9</ele>
        <time>2022-06-21T10:05:46Z</time>
      </trkpt>
      <trkpt lat="45.93025" lon="-0.95138">
        <ele>3.9</ele>
        <time>2022-06-21T10:05:47Z</time>
      </trkpt>
      <trkpt lat="45.93025" lon="-0.95139">
        <ele>3.9</ele>
        <time>2022-06-21T10:05:48Z</time>
      </trkpt>
      <trkpt lat="45.93029" lon="-0.9514">
        <ele>3.9</ele>
        <time>2022-06-21T10:05:50Z</time>
      </trkpt>
      <trkpt lat="45.9303" lon="-0.95141">
        <ele>3.9</ele>
        <time>2022-06-21T10:05:51Z</time>
      </trkpt>
      <trkpt lat="45.93032" lon="-0.95142">
        <ele>3.9</ele>
        <time>2022-06-21T10:05:52Z</time>
      </trkpt>
      <trkpt lat="45.93034" lon="-0.95143">
        <ele>3.9</ele>
        <time>2022-06-21T10:05:53Z</time>
      </trkpt>
      <trkpt lat="45.93035" lon="-0.95143">
        <ele>3.9</ele>
        <time>2022-06-21T10:05:54Z</time>
      </trkpt>
      <trkpt lat="45.93036" lon="-0.95143">
        <ele>3.9</ele>
        <time>2022-06-21T10:05:55Z</time>
      </trkpt>
      <trkpt lat="45.93037" lon="-0.95144">
        <ele>3.9</ele>
        <time>2022-06-21T10:05:56Z</time>
      </trkpt>
      <trkpt lat="45.93038" lon="-0.95144">
        <ele>3.9</ele>
        <time>2022-06-21T10:05:58Z</time>
      </trkpt>
      <trkpt lat="45.93039" lon="-0.95145">
        <ele>3.9</ele>
        <time>2022-06-21T10:05:59Z</time>
      </trkpt>
      <trkpt lat="45.9304" lon="-0.95146">
        <ele>3.9</ele>
        <time>2022-06-21T10:06:00Z</time>
      </trkpt>
      <trkpt lat="45.93043" lon="-0.95148">
        <ele>3.9</ele>
        <time>2022-06-21T10:06:02Z</time>
      </trkpt>
      <trkpt lat="45.93044" lon="-0.95149">
        <ele>3.9</ele>
        <time>2022-06-21T10:06:03Z</time>
      </trkpt>
      <trkpt lat="45.93044" lon="-0.9515">
        <ele>3.9</ele>
        <time>2022-06-21T10:06:04Z</time>
      </trkpt>
      <trkpt lat="45.93044" lon="-0.95151">
        <ele>3.9</ele>
        <time>2022-06-21T10:06:05Z</time>
      </trkpt>
      <trkpt lat="45.93046" lon="-0.95153">
        <ele>3.9</ele>
        <time>2022-06-21T10:06:06Z</time>
      </trkpt>
      <trkpt lat="45.93046" lon="-0.95154">
        <ele>3.9</ele>
        <time>2022-06-21T10:06:07Z</time>
      </trkpt>
      <trkpt lat="45.93047" lon="-0.95154">
        <ele>3.9</ele>
        <time>2022-06-21T10:06:08Z</time>
      </trkpt>
      <trkpt lat="45.93049" lon="-0.95156">
        <ele>3.9</ele>
        <time>2022-06-21T10:06:09Z</time>
      </trkpt>
      <trkpt lat="45.9305" lon="-0.95157">
        <ele>3.9</ele>
        <time>2022-06-21T10:06:10Z</time>
      </trkpt>
      <trkpt lat="45.93052" lon="-0.95158">
        <ele>3.9</ele>
        <time>2022-06-21T10:06:11Z</time>
      </trkpt>
      <trkpt lat="45.93053" lon="-0.95159">
        <ele>3.9</ele>
        <time>2022-06-21T10:06:13Z</time>
      </trkpt>
      <trkpt lat="45.93054" lon="-0.9516">
        <ele>4</ele>
        <time>2022-06-21T10:06:14Z</time>
      </trkpt>
      <trkpt lat="45.93055" lon="-0.9516">
        <ele>4</ele>
        <time>2022-06-21T10:06:15Z</time>
      </trkpt>
      <trkpt lat="45.93056" lon="-0.95161">
        <ele>4</ele>
        <time>2022-06-21T10:06:16Z</time>
      </trkpt>
      <trkpt lat="45.93057" lon="-0.95163">
        <ele>4</ele>
        <time>2022-06-21T10:06:18Z</time>
      </trkpt>
      <trkpt lat="45.93059" lon="-0.95165">
        <ele>4</ele>
        <time>2022-06-21T10:06:20Z</time>
      </trkpt>
      <trkpt lat="45.93061" lon="-0.95166">
        <ele>4</ele>
        <time>2022-06-21T10:06:21Z</time>
      </trkpt>
      <trkpt lat="45.93062" lon="-0.95168">
        <ele>4</ele>
        <time>2022-06-21T10:06:22Z</time>
      </trkpt>
      <trkpt lat="45.93063" lon="-0.95169">
        <ele>4</ele>
        <time>2022-06-21T10:06:23Z</time>
      </trkpt>
      <trkpt lat="45.93064" lon="-0.9517">
        <ele>4</ele>
        <time>2022-06-21T10:06:24Z</time>
      </trkpt>
      <trkpt lat="45.93066" lon="-0.95171">
        <ele>4</ele>
        <time>2022-06-21T10:06:25Z</time>
      </trkpt>
      <trkpt lat="45.93067" lon="-0.95172">
        <ele>4</ele>
        <time>2022-06-21T10:06:26Z</time>
      </trkpt>
      <trkpt lat="45.93069" lon="-0.95173">
        <ele>4</ele>
        <time>2022-06-21T10:06:28Z</time>
      </trkpt>
      <trkpt lat="45.93069" lon="-0.95174">
        <ele>4</ele>
        <time>2022-06-21T10:06:29Z</time>
      </trkpt>
      <trkpt lat="45.9307" lon="-0.95174">
        <ele>4</ele>
        <time>2022-06-21T10:06:30Z</time>
      </trkpt>
      <trkpt lat="45.93071" lon="-0.95175">
        <ele>4</ele>
        <time>2022-06-21T10:06:31Z</time>
      </trkpt>
      <trkpt lat="45.93071" lon="-0.95176">
        <ele>4</ele>
        <time>2022-06-21T10:06:32Z</time>
      </trkpt>
      <trkpt lat="45.93073" lon="-0.95177">
        <ele>4</ele>
        <time>2022-06-21T10:06:33Z</time>
      </trkpt>
      <trkpt lat="45.93075" lon="-0.95179">
        <ele>4</ele>
        <time>2022-06-21T10:06:34Z</time>
      </trkpt>
      <trkpt lat="45.93075" lon="-0.9518">
        <ele>4</ele>
        <time>2022-06-21T10:06:35Z</time>
      </trkpt>
      <trkpt lat="45.93076" lon="-0.95181">
        <ele>4</ele>
        <time>2022-06-21T10:06:36Z</time>
      </trkpt>
      <trkpt lat="45.93077" lon="-0.95182">
        <ele>4</ele>
        <time>2022-06-21T10:06:38Z</time>
      </trkpt>
      <trkpt lat="45.93078" lon="-0.95182">
        <ele>4</ele>
        <time>2022-06-21T10:06:39Z</time>
      </trkpt>
      <trkpt lat="45.93079" lon="-0.95183">
        <ele>4</ele>
        <time>2022-06-21T10:06:40Z</time>
      </trkpt>
      <trkpt lat="45.93079" lon="-0.95183">
        <ele>4</ele>
        <time>2022-06-21T10:06:41Z</time>
      </trkpt>
      <trkpt lat="45.93081" lon="-0.95185">
        <ele>4</ele>
        <time>2022-06-21T10:06:42Z</time>
      </trkpt>
      <trkpt lat="45.93082" lon="-0.95186">
        <ele>4</ele>
        <time>2022-06-21T10:06:44Z</time>
      </trkpt>
      <trkpt lat="45.93083" lon="-0.95187">
        <ele>4</ele>
        <time>2022-06-21T10:06:45Z</time>
      </trkpt>
      <trkpt lat="45.93084" lon="-0.95187">
        <ele>4</ele>
        <time>2022-06-21T10:06:46Z</time>
      </trkpt>
      <trkpt lat="45.93085" lon="-0.95188">
        <ele>4</ele>
        <time>2022-06-21T10:06:47Z</time>
      </trkpt>
      <trkpt lat="45.93086" lon="-0.95189">
        <ele>4</ele>
        <time>2022-06-21T10:06:48Z</time>
      </trkpt>
      <trkpt lat="45.93087" lon="-0.9519">
        <ele>4</ele>
        <time>2022-06-21T10:06:50Z</time>
      </trkpt>
      <trkpt lat="45.93087" lon="-0.95191">
        <ele>4</ele>
        <time>2022-06-21T10:06:51Z</time>
      </trkpt>
      <trkpt lat="45.93089" lon="-0.95193">
        <ele>4</ele>
        <time>2022-06-21T10:06:52Z</time>
      </trkpt>
      <trkpt lat="45.9309" lon="-0.95193">
        <ele>4</ele>
        <time>2022-06-21T10:06:53Z</time>
      </trkpt>
      <trkpt lat="45.93091" lon="-0.95194">
        <ele>4</ele>
        <time>2022-06-21T10:06:54Z</time>
      </trkpt>
      <trkpt lat="45.93092" lon="-0.95194">
        <ele>4</ele>
        <time>2022-06-21T10:06:55Z</time>
      </trkpt>
      <trkpt lat="45.93093" lon="-0.95195">
        <ele>4</ele>
        <time>2022-06-21T10:06:56Z</time>
      </trkpt>
      <trkpt lat="45.93094" lon="-0.95194">
        <ele>4</ele>
        <time>2022-06-21T10:06:57Z</time>
      </trkpt>
      <trkpt lat="45.93094" lon="-0.95189">
        <ele>4</ele>
        <time>2022-06-21T10:06:58Z</time>
      </trkpt>
      <trkpt lat="45.93095" lon="-0.95186">
        <ele>4</ele>
        <time>2022-06-21T10:07:00Z</time>
      </trkpt>
      <trkpt lat="45.93095" lon="-0.95186">
        <ele>4</ele>
        <time>2022-06-21T10:07:01Z</time>
      </trkpt>
      <trkpt lat="45.93096" lon="-0.95185">
        <ele>4</ele>
        <time>2022-06-21T10:07:02Z</time>
      </trkpt>
      <trkpt lat="45.93096" lon="-0.95185">
        <ele>4</ele>
        <time>2022-06-21T10:07:03Z</time>
      </trkpt>
      <trkpt lat="45.93097" lon="-0.95186">
        <ele>4</ele>
        <time>2022-06-21T10:07:05Z</time>
      </trkpt>
      <trkpt lat="45.93097" lon="-0.95187">
        <ele>4.1</ele>
        <time>2022-06-21T10:07:06Z</time>
      </trkpt>
      <trkpt lat="45.93098" lon="-0.95189">
        <ele>4.1</ele>
        <time>2022-06-21T10:07:07Z</time>
      </trkpt>
      <trkpt lat="45.93098" lon="-0.9519">
        <ele>4.1</ele>
        <time>2022-06-21T10:07:08Z</time>
      </trkpt>
      <trkpt lat="45.93098" lon="-0.95191">
        <ele>4.1</ele>
        <time>2022-06-21T10:07:09Z</time>
      </trkpt>
      <trkpt lat="45.93099" lon="-0.95194">
        <ele>4.1</ele>
        <time>2022-06-21T10:07:11Z</time>
      </trkpt>
      <trkpt lat="45.931" lon="-0.95196">
        <ele>4.1</ele>
        <time>2022-06-21T10:07:12Z</time>
      </trkpt>
      <trkpt lat="45.931" lon="-0.95198">
        <ele>4.1</ele>
        <time>2022-06-21T10:07:13Z</time>
      </trkpt>
      <trkpt lat="45.93101" lon="-0.95199">
        <ele>4.1</ele>
        <time>2022-06-21T10:07:14Z</time>
      </trkpt>
      <trkpt lat="45.93102" lon="-0.95201">
        <ele>4.1</ele>
        <time>2022-06-21T10:07:16Z</time>
      </trkpt>
      <trkpt lat="45.93102" lon="-0.95202">
        <ele>4.1</ele>
        <time>2022-06-21T10:07:17Z</time>
      </trkpt>
      <trkpt lat="45.93103" lon="-0.95203">
        <ele>4.1</ele>
        <time>2022-06-21T10:07:18Z</time>
      </trkpt>
      <trkpt lat="45.93104" lon="-0.95206">
        <ele>4.1</ele>
        <time>2022-06-21T10:07:19Z</time>
      </trkpt>
      <trkpt lat="45.93105" lon="-0.95206">
        <ele>4.1</ele>
        <time>2022-06-21T10:07:20Z</time>
      </trkpt>
      <trkpt lat="45.93106" lon="-0.95207">
        <ele>4.1</ele>
        <time>2022-06-21T10:07:21Z</time>
      </trkpt>
      <trkpt lat="45.93107" lon="-0.95208">
        <ele>4.1</ele>
        <time>2022-06-21T10:07:22Z</time>
      </trkpt>
      <trkpt lat="45.93108" lon="-0.9521">
        <ele>4.2</ele>
        <time>2022-06-21T10:07:24Z</time>
      </trkpt>
      <trkpt lat="45.93109" lon="-0.95212">
        <ele>4.2</ele>
        <time>2022-06-21T10:07:25Z</time>
      </trkpt>
      <trkpt lat="45.9311" lon="-0.95213">
        <ele>4.2</ele>
        <time>2022-06-21T10:07:26Z</time>
      </trkpt>
      <trkpt lat="45.93111" lon="-0.95214">
        <ele>4.2</ele>
        <time>2022-06-21T10:07:27Z</time>
      </trkpt>
      <trkpt lat="45.93111" lon="-0.95216">
        <ele>4.2</ele>
        <time>2022-06-21T10:07:29Z</time>
      </trkpt>
      <trkpt lat="45.93112" lon="-0.95217">
        <ele>4.2</ele>
        <time>2022-06-21T10:07:30Z</time>
      </trkpt>
      <trkpt lat="45.93112" lon="-0.95218">
        <ele>4.2</ele>
        <time>2022-06-21T10:07:31Z</time>
      </trkpt>
      <trkpt lat="45.93114" lon="-0.95218">
        <ele>4.2</ele>
        <time>2022-06-21T10:07:32Z</time>
      </trkpt>
      <trkpt lat="45.93115" lon="-0.95219">
        <ele>4.2</ele>
        <time>2022-06-21T10:07:33Z</time>
      </trkpt>
      <trkpt lat="45.93117" lon="-0.95221">
        <ele>4.2</ele>
        <time>2022-06-21T10:07:34Z</time>
      </trkpt>
      <trkpt lat="45.93118" lon="-0.95221">
        <ele>4.2</ele>
        <time>2022-06-21T10:07:36Z</time>
      </trkpt>
      <trkpt lat="45.93119" lon="-0.95222">
        <ele>4.2</ele>
        <time>2022-06-21T10:07:37Z</time>
      </trkpt>
      <trkpt lat="45.9312" lon="-0.95223">
        <ele>4.2</ele>
        <time>2022-06-21T10:07:38Z</time>
      </trkpt>
      <trkpt lat="45.93121" lon="-0.95224">
        <ele>4.2</ele>
        <time>2022-06-21T10:07:39Z</time>
      </trkpt>
      <trkpt lat="45.93122" lon="-0.95225">
        <ele>4.2</ele>
        <time>2022-06-21T10:07:41Z</time>
      </trkpt>
      <trkpt lat="45.93122" lon="-0.95226">
        <ele>4.2</ele>
        <time>2022-06-21T10:07:42Z</time>
      </trkpt>
      <trkpt lat="45.93123" lon="-0.95227">
        <ele>4.2</ele>
        <time>2022-06-21T10:07:43Z</time>
      </trkpt>
      <trkpt lat="45.93123" lon="-0.95228">
        <ele>4.2</ele>
        <time>2022-06-21T10:07:45Z</time>
      </trkpt>
      <trkpt lat="45.93123" lon="-0.95229">
        <ele>4.2</ele>
        <time>2022-06-21T10:07:46Z</time>
      </trkpt>
      <trkpt lat="45.93123" lon="-0.95229">
        <ele>4.2</ele>
        <time>2022-06-21T10:07:47Z</time>
      </trkpt>
      <trkpt lat="45.93125" lon="-0.95229">
        <ele>4.2</ele>
        <time>2022-06-21T10:07:49Z</time>
      </trkpt>
      <trkpt lat="45.93125" lon="-0.95229">
        <ele>4.2</ele>
        <time>2022-06-21T10:07:50Z</time>
      </trkpt>
      <trkpt lat="45.93126" lon="-0.95229">
        <ele>4.2</ele>
        <time>2022-06-21T10:07:51Z</time>
      </trkpt>
      <trkpt lat="45.93127" lon="-0.95229">
        <ele>4.2</ele>
        <time>2022-06-21T10:07:52Z</time>
      </trkpt>
      <trkpt lat="45.93128" lon="-0.95229">
        <ele>4.2</ele>
        <time>2022-06-21T10:07:53Z</time>
      </trkpt>
      <trkpt lat="45.93129" lon="-0.95229">
        <ele>4.2</ele>
        <time>2022-06-21T10:07:54Z</time>
      </trkpt>
      <trkpt lat="45.9313" lon="-0.95229">
        <ele>4.2</ele>
        <time>2022-06-21T10:07:55Z</time>
      </trkpt>
      <trkpt lat="45.93131" lon="-0.9523">
        <ele>4.2</ele>
        <time>2022-06-21T10:07:56Z</time>
      </trkpt>
      <trkpt lat="45.93133" lon="-0.9523">
        <ele>4.2</ele>
        <time>2022-06-21T10:07:58Z</time>
      </trkpt>
      <trkpt lat="45.93134" lon="-0.95231">
        <ele>4.2</ele>
        <time>2022-06-21T10:07:59Z</time>
      </trkpt>
      <trkpt lat="45.93135" lon="-0.95232">
        <ele>4.2</ele>
        <time>2022-06-21T10:08:00Z</time>
      </trkpt>
      <trkpt lat="45.93136" lon="-0.95232">
        <ele>4.2</ele>
        <time>2022-06-21T10:08:01Z</time>
      </trkpt>
      <trkpt lat="45.93137" lon="-0.95234">
        <ele>4.2</ele>
        <time>2022-06-21T10:08:03Z</time>
      </trkpt>
      <trkpt lat="45.93138" lon="-0.95234">
        <ele>4.2</ele>
        <time>2022-06-21T10:08:04Z</time>
      </trkpt>
      <trkpt lat="45.93138" lon="-0.95235">
        <ele>4.2</ele>
        <time>2022-06-21T10:08:05Z</time>
      </trkpt>
      <trkpt lat="45.93138" lon="-0.95235">
        <ele>4.2</ele>
        <time>2022-06-21T10:08:06Z</time>
      </trkpt>
      <trkpt lat="45.93138" lon="-0.95236">
        <ele>4.2</ele>
        <time>2022-06-21T10:08:07Z</time>
      </trkpt>
      <trkpt lat="45.93139" lon="-0.95236">
        <ele>4.2</ele>
        <time>2022-06-21T10:08:08Z</time>
      </trkpt>
      <trkpt lat="45.93139" lon="-0.95236">
        <ele>4.2</ele>
        <time>2022-06-21T10:08:09Z</time>
      </trkpt>
      <trkpt lat="45.93139" lon="-0.95236">
        <ele>4.2</ele>
        <time>2022-06-21T10:08:10Z</time>
      </trkpt>
      <trkpt lat="45.93139" lon="-0.95236">
        <ele>4.2</ele>
        <time>2022-06-21T10:08:11Z</time>
      </trkpt>
      <trkpt lat="45.93139" lon="-0.95236">
        <ele>4.2</ele>
        <time>2022-06-21T10:08:12Z</time>
      </trkpt>
      <trkpt lat="45.93139" lon="-0.95236">
        <ele>4.2</ele>
        <time>2022-06-21T10:08:13Z</time>
      </trkpt>
      <trkpt lat="45.93139" lon="-0.95236">
        <ele>4.2</ele>
        <time>2022-06-21T10:08:14Z</time>
      </trkpt>
      <trkpt lat="45.93138" lon="-0.95237">
        <ele>4.2</ele>
        <time>2022-06-21T10:08:15Z</time>
      </trkpt>
      <trkpt lat="45.93138" lon="-0.95237">
        <ele>4.2</ele>
        <time>2022-06-21T10:08:16Z</time>
      </trkpt>
      <trkpt lat="45.93138" lon="-0.95237">
        <ele>4.2</ele>
        <time>2022-06-21T10:08:17Z</time>
      </trkpt>
      <trkpt lat="45.93138" lon="-0.95237">
        <ele>4.2</ele>
        <time>2022-06-21T10:08:18Z</time>
      </trkpt>
      <trkpt lat="45.93138" lon="-0.95237">
        <ele>4.2</ele>
        <time>2022-06-21T10:08:19Z</time>
      </trkpt>
      <trkpt lat="45.93138" lon="-0.95237">
        <ele>4.2</ele>
        <time>2022-06-21T10:08:20Z</time>
      </trkpt>
      <trkpt lat="45.93138" lon="-0.95237">
        <ele>4.2</ele>
        <time>2022-06-21T10:08:21Z</time>
      </trkpt>
      <trkpt lat="45.93138" lon="-0.95237">
        <ele>4.2</ele>
        <time>2022-06-21T10:08:22Z</time>
      </trkpt>
      <trkpt lat="45.93138" lon="-0.95237">
        <ele>4.2</ele>
        <time>2022-06-21T10:08:23Z</time>
      </trkpt>
      <trkpt lat="45.93138" lon="-0.95237">
        <ele>4.2</ele>
        <time>2022-06-21T10:08:24Z</time>
      </trkpt>
      <trkpt lat="45.93138" lon="-0.95238">
        <ele>4.2</ele>
        <time>2022-06-21T10:08:25Z</time>
      </trkpt>
      <trkpt lat="45.93138" lon="-0.95238">
        <ele>4.2</ele>
        <time>2022-06-21T10:08:26Z</time>
      </trkpt>
      <trkpt lat="45.93138" lon="-0.95238">
        <ele>4.2</ele>
        <time>2022-06-21T10:08:27Z</time>
      </trkpt>
      <trkpt lat="45.93137" lon="-0.95236">
        <ele>4.2</ele>
        <time>2022-06-21T10:08:28Z</time>
      </trkpt>
      <trkpt lat="45.93137" lon="-0.95236">
        <ele>4.2</ele>
        <time>2022-06-21T10:08:29Z</time>
      </trkpt>
      <trkpt lat="45.93138" lon="-0.95237">
        <ele>4.2</ele>
        <time>2022-06-21T10:08:30Z</time>
      </trkpt>
      <trkpt lat="45.93138" lon="-0.95237">
        <ele>4.2</ele>
        <time>2022-06-21T10:08:32Z</time>
      </trkpt>
      <trkpt lat="45.93138" lon="-0.95238">
        <ele>4.2</ele>
        <time>2022-06-21T10:08:33Z</time>
      </trkpt>
      <trkpt lat="45.93139" lon="-0.95239">
        <ele>4.2</ele>
        <time>2022-06-21T10:08:34Z</time>
      </trkpt>
      <trkpt lat="45.9314" lon="-0.95241">
        <ele>4.2</ele>
        <time>2022-06-21T10:08:35Z</time>
      </trkpt>
      <trkpt lat="45.93141" lon="-0.95242">
        <ele>4.2</ele>
        <time>2022-06-21T10:08:36Z</time>
      </trkpt>
      <trkpt lat="45.93141" lon="-0.95243">
        <ele>4.2</ele>
        <time>2022-06-21T10:08:37Z</time>
      </trkpt>
      <trkpt lat="45.93143" lon="-0.95244">
        <ele>4.2</ele>
        <time>2022-06-21T10:08:38Z</time>
      </trkpt>
      <trkpt lat="45.93144" lon="-0.95245">
        <ele>4.2</ele>
        <time>2022-06-21T10:08:39Z</time>
      </trkpt>
      <trkpt lat="45.93145" lon="-0.95245">
        <ele>4.2</ele>
        <time>2022-06-21T10:08:40Z</time>
      </trkpt>
      <trkpt lat="45.93146" lon="-0.95247">
        <ele>4.2</ele>
        <time>2022-06-21T10:08:41Z</time>
      </trkpt>
      <trkpt lat="45.93147" lon="-0.95248">
        <ele>4.2</ele>
        <time>2022-06-21T10:08:42Z</time>
      </trkpt>
      <trkpt lat="45.93149" lon="-0.95249">
        <ele>4.2</ele>
        <time>2022-06-21T10:08:44Z</time>
      </trkpt>
      <trkpt lat="45.9315" lon="-0.95249">
        <ele>4.2</ele>
        <time>2022-06-21T10:08:45Z</time>
      </trkpt>
      <trkpt lat="45.93152" lon="-0.9525">
        <ele>4.2</ele>
        <time>2022-06-21T10:08:46Z</time>
      </trkpt>
      <trkpt lat="45.93153" lon="-0.9525">
        <ele>4.2</ele>
        <time>2022-06-21T10:08:47Z</time>
      </trkpt>
      <trkpt lat="45.93154" lon="-0.9525">
        <ele>4.1</ele>
        <time>2022-06-21T10:08:48Z</time>
      </trkpt>
      <trkpt lat="45.93155" lon="-0.95251">
        <ele>4.1</ele>
        <time>2022-06-21T10:08:49Z</time>
      </trkpt>
      <trkpt lat="45.93157" lon="-0.95252">
        <ele>4.1</ele>
        <time>2022-06-21T10:08:50Z</time>
      </trkpt>
      <trkpt lat="45.93158" lon="-0.95253">
        <ele>4.1</ele>
        <time>2022-06-21T10:08:52Z</time>
      </trkpt>
      <trkpt lat="45.9316" lon="-0.95254">
        <ele>4.1</ele>
        <time>2022-06-21T10:08:53Z</time>
      </trkpt>
      <trkpt lat="45.93162" lon="-0.95255">
        <ele>4.1</ele>
        <time>2022-06-21T10:08:54Z</time>
      </trkpt>
      <trkpt lat="45.93163" lon="-0.95256">
        <ele>4.1</ele>
        <time>2022-06-21T10:08:55Z</time>
      </trkpt>
      <trkpt lat="45.93165" lon="-0.95257">
        <ele>4.1</ele>
        <time>2022-06-21T10:08:56Z</time>
      </trkpt>
      <trkpt lat="45.93166" lon="-0.95258">
        <ele>4.1</ele>
        <time>2022-06-21T10:08:57Z</time>
      </trkpt>
      <trkpt lat="45.93168" lon="-0.9526">
        <ele>4.1</ele>
        <time>2022-06-21T10:08:58Z</time>
      </trkpt>
      <trkpt lat="45.93169" lon="-0.95261">
        <ele>4.2</ele>
        <time>2022-06-21T10:08:59Z</time>
      </trkpt>
      <trkpt lat="45.93171" lon="-0.95262">
        <ele>4.2</ele>
        <time>2022-06-21T10:09:00Z</time>
      </trkpt>
      <trkpt lat="45.93172" lon="-0.95263">
        <ele>4.2</ele>
        <time>2022-06-21T10:09:02Z</time>
      </trkpt>
      <trkpt lat="45.93173" lon="-0.95265">
        <ele>4.2</ele>
        <time>2022-06-21T10:09:03Z</time>
      </trkpt>
      <trkpt lat="45.93175" lon="-0.95266">
        <ele>4.2</ele>
        <time>2022-06-21T10:09:04Z</time>
      </trkpt>
      <trkpt lat="45.93176" lon="-0.95267">
        <ele>4.2</ele>
        <time>2022-06-21T10:09:05Z</time>
      </trkpt>
      <trkpt lat="45.93176" lon="-0.95268">
        <ele>4.2</ele>
        <time>2022-06-21T10:09:06Z</time>
      </trkpt>
      <trkpt lat="45.93177" lon="-0.95269">
        <ele>4.2</ele>
        <time>2022-06-21T10:09:07Z</time>
      </trkpt>
      <trkpt lat="45.93178" lon="-0.9527">
        <ele>4.2</ele>
        <time>2022-06-21T10:09:08Z</time>
      </trkpt>
      <trkpt lat="45.93179" lon="-0.95271">
        <ele>4.2</ele>
        <time>2022-06-21T10:09:09Z</time>
      </trkpt>
      <trkpt lat="45.9318" lon="-0.95272">
        <ele>4.2</ele>
        <time>2022-06-21T10:09:11Z</time>
      </trkpt>
      <trkpt lat="45.93181" lon="-0.95275">
        <ele>4.2</ele>
        <time>2022-06-21T10:09:12Z</time>
      </trkpt>
      <trkpt lat="45.93182" lon="-0.95275">
        <ele>4.2</ele>
        <time>2022-06-21T10:09:13Z</time>
      </trkpt>
      <trkpt lat="45.93183" lon="-0.95276">
        <ele>4.2</ele>
        <time>2022-06-21T10:09:14Z</time>
      </trkpt>
      <trkpt lat="45.93183" lon="-0.95276">
        <ele>4.2</ele>
        <time>2022-06-21T10:09:15Z</time>
      </trkpt>
      <trkpt lat="45.93183" lon="-0.95277">
        <ele>4.2</ele>
        <time>2022-06-21T10:09:16Z</time>
      </trkpt>
      <trkpt lat="45.93183" lon="-0.95278">
        <ele>4.2</ele>
        <time>2022-06-21T10:09:17Z</time>
      </trkpt>
      <trkpt lat="45.93184" lon="-0.9528">
        <ele>4.2</ele>
        <time>2022-06-21T10:09:18Z</time>
      </trkpt>
      <trkpt lat="45.93185" lon="-0.95281">
        <ele>4.2</ele>
        <time>2022-06-21T10:09:19Z</time>
      </trkpt>
      <trkpt lat="45.93186" lon="-0.95283">
        <ele>4.2</ele>
        <time>2022-06-21T10:09:21Z</time>
      </trkpt>
      <trkpt lat="45.93188" lon="-0.95285">
        <ele>4.2</ele>
        <time>2022-06-21T10:09:22Z</time>
      </trkpt>
      <trkpt lat="45.93189" lon="-0.95286">
        <ele>4.2</ele>
        <time>2022-06-21T10:09:23Z</time>
      </trkpt>
      <trkpt lat="45.9319" lon="-0.95288">
        <ele>4.2</ele>
        <time>2022-06-21T10:09:24Z</time>
      </trkpt>
      <trkpt lat="45.93191" lon="-0.95289">
        <ele>4.2</ele>
        <time>2022-06-21T10:09:25Z</time>
      </trkpt>
      <trkpt lat="45.93194" lon="-0.95292">
        <ele>4.2</ele>
        <time>2022-06-21T10:09:27Z</time>
      </trkpt>
      <trkpt lat="45.93194" lon="-0.95293">
        <ele>4.2</ele>
        <time>2022-06-21T10:09:28Z</time>
      </trkpt>
      <trkpt lat="45.93196" lon="-0.95295">
        <ele>4.2</ele>
        <time>2022-06-21T10:09:29Z</time>
      </trkpt>
      <trkpt lat="45.93197" lon="-0.95296">
        <ele>4.2</ele>
        <time>2022-06-21T10:09:30Z</time>
      </trkpt>
      <trkpt lat="45.93197" lon="-0.95297">
        <ele>4.2</ele>
        <time>2022-06-21T10:09:31Z</time>
      </trkpt>
      <trkpt lat="45.93198" lon="-0.95298">
        <ele>4.2</ele>
        <time>2022-06-21T10:09:32Z</time>
      </trkpt>
      <trkpt lat="45.932" lon="-0.95299">
        <ele>4.2</ele>
        <time>2022-06-21T10:09:33Z</time>
      </trkpt>
      <trkpt lat="45.93201" lon="-0.95301">
        <ele>4.2</ele>
        <time>2022-06-21T10:09:34Z</time>
      </trkpt>
      <trkpt lat="45.93202" lon="-0.95302">
        <ele>4.2</ele>
        <time>2022-06-21T10:09:36Z</time>
      </trkpt>
      <trkpt lat="45.93204" lon="-0.95303">
        <ele>4.2</ele>
        <time>2022-06-21T10:09:37Z</time>
      </trkpt>
      <trkpt lat="45.93205" lon="-0.95304">
        <ele>4.2</ele>
        <time>2022-06-21T10:09:38Z</time>
      </trkpt>
      <trkpt lat="45.93206" lon="-0.95305">
        <ele>4.2</ele>
        <time>2022-06-21T10:09:39Z</time>
      </trkpt>
      <trkpt lat="45.93208" lon="-0.95306">
        <ele>4.2</ele>
        <time>2022-06-21T10:09:40Z</time>
      </trkpt>
      <trkpt lat="45.93209" lon="-0.95307">
        <ele>4.2</ele>
        <time>2022-06-21T10:09:41Z</time>
      </trkpt>
      <trkpt lat="45.9321" lon="-0.95308">
        <ele>4.2</ele>
        <time>2022-06-21T10:09:42Z</time>
      </trkpt>
      <trkpt lat="45.93213" lon="-0.95309">
        <ele>4.2</ele>
        <time>2022-06-21T10:09:43Z</time>
      </trkpt>
      <trkpt lat="45.93214" lon="-0.9531">
        <ele>4.2</ele>
        <time>2022-06-21T10:09:45Z</time>
      </trkpt>
      <trkpt lat="45.93215" lon="-0.9531">
        <ele>4.2</ele>
        <time>2022-06-21T10:09:46Z</time>
      </trkpt>
      <trkpt lat="45.93216" lon="-0.9531">
        <ele>4.2</ele>
        <time>2022-06-21T10:09:47Z</time>
      </trkpt>
      <trkpt lat="45.93217" lon="-0.95311">
        <ele>4.2</ele>
        <time>2022-06-21T10:09:48Z</time>
      </trkpt>
      <trkpt lat="45.93218" lon="-0.95311">
        <ele>4.2</ele>
        <time>2022-06-21T10:09:49Z</time>
      </trkpt>
      <trkpt lat="45.9322" lon="-0.95311">
        <ele>4.2</ele>
        <time>2022-06-21T10:09:50Z</time>
      </trkpt>
      <trkpt lat="45.93222" lon="-0.95313">
        <ele>4.2</ele>
        <time>2022-06-21T10:09:52Z</time>
      </trkpt>
      <trkpt lat="45.93223" lon="-0.95314">
        <ele>4.2</ele>
        <time>2022-06-21T10:09:53Z</time>
      </trkpt>
      <trkpt lat="45.93224" lon="-0.95314">
        <ele>4.2</ele>
        <time>2022-06-21T10:09:54Z</time>
      </trkpt>
      <trkpt lat="45.93225" lon="-0.95315">
        <ele>4.2</ele>
        <time>2022-06-21T10:09:55Z</time>
      </trkpt>
      <trkpt lat="45.93226" lon="-0.95315">
        <ele>4.2</ele>
        <time>2022-06-21T10:09:56Z</time>
      </trkpt>
      <trkpt lat="45.93226" lon="-0.95316">
        <ele>4.2</ele>
        <time>2022-06-21T10:09:57Z</time>
      </trkpt>
      <trkpt lat="45.93227" lon="-0.95317">
        <ele>4.2</ele>
        <time>2022-06-21T10:09:58Z</time>
      </trkpt>
      <trkpt lat="45.93228" lon="-0.95317">
        <ele>4.2</ele>
        <time>2022-06-21T10:09:59Z</time>
      </trkpt>
      <trkpt lat="45.93229" lon="-0.95318">
        <ele>4.2</ele>
        <time>2022-06-21T10:10:00Z</time>
      </trkpt>
      <trkpt lat="45.93231" lon="-0.9532">
        <ele>4.2</ele>
        <time>2022-06-21T10:10:02Z</time>
      </trkpt>
      <trkpt lat="45.93232" lon="-0.9532">
        <ele>4.2</ele>
        <time>2022-06-21T10:10:03Z</time>
      </trkpt>
      <trkpt lat="45.93233" lon="-0.95321">
        <ele>4.2</ele>
        <time>2022-06-21T10:10:04Z</time>
      </trkpt>
      <trkpt lat="45.93234" lon="-0.95322">
        <ele>4.2</ele>
        <time>2022-06-21T10:10:05Z</time>
      </trkpt>
      <trkpt lat="45.93235" lon="-0.95323">
        <ele>4.2</ele>
        <time>2022-06-21T10:10:06Z</time>
      </trkpt>
      <trkpt lat="45.93236" lon="-0.95324">
        <ele>4.2</ele>
        <time>2022-06-21T10:10:07Z</time>
      </trkpt>
      <trkpt lat="45.93237" lon="-0.95324">
        <ele>4.2</ele>
        <time>2022-06-21T10:10:08Z</time>
      </trkpt>
      <trkpt lat="45.93238" lon="-0.95325">
        <ele>4.2</ele>
        <time>2022-06-21T10:10:09Z</time>
      </trkpt>
      <trkpt lat="45.93239" lon="-0.95326">
        <ele>4.2</ele>
        <time>2022-06-21T10:10:11Z</time>
      </trkpt>
      <trkpt lat="45.9324" lon="-0.95327">
        <ele>4.2</ele>
        <time>2022-06-21T10:10:12Z</time>
      </trkpt>
      <trkpt lat="45.93241" lon="-0.95328">
        <ele>4.2</ele>
        <time>2022-06-21T10:10:13Z</time>
      </trkpt>
      <trkpt lat="45.93243" lon="-0.9533">
        <ele>4.2</ele>
        <time>2022-06-21T10:10:14Z</time>
      </trkpt>
      <trkpt lat="45.93243" lon="-0.9533">
        <ele>4.2</ele>
        <time>2022-06-21T10:10:15Z</time>
      </trkpt>
      <trkpt lat="45.93244" lon="-0.95331">
        <ele>4.2</ele>
        <time>2022-06-21T10:10:16Z</time>
      </trkpt>
      <trkpt lat="45.93246" lon="-0.95331">
        <ele>4.2</ele>
        <time>2022-06-21T10:10:17Z</time>
      </trkpt>
      <trkpt lat="45.93248" lon="-0.95332">
        <ele>4.1</ele>
        <time>2022-06-21T10:10:19Z</time>
      </trkpt>
      <trkpt lat="45.9325" lon="-0.95335">
        <ele>4.1</ele>
        <time>2022-06-21T10:10:20Z</time>
      </trkpt>
      <trkpt lat="45.93251" lon="-0.95336">
        <ele>4.1</ele>
        <time>2022-06-21T10:10:22Z</time>
      </trkpt>
      <trkpt lat="45.93252" lon="-0.95337">
        <ele>4.1</ele>
        <time>2022-06-21T10:10:23Z</time>
      </trkpt>
      <trkpt lat="45.93252" lon="-0.95338">
        <ele>4.1</ele>
        <time>2022-06-21T10:10:24Z</time>
      </trkpt>
      <trkpt lat="45.93253" lon="-0.9534">
        <ele>4.1</ele>
        <time>2022-06-21T10:10:25Z</time>
      </trkpt>
      <trkpt lat="45.93254" lon="-0.9534">
        <ele>4.1</ele>
        <time>2022-06-21T10:10:26Z</time>
      </trkpt>
      <trkpt lat="45.93255" lon="-0.95341">
        <ele>4.1</ele>
        <time>2022-06-21T10:10:27Z</time>
      </trkpt>
      <trkpt lat="45.93255" lon="-0.95342">
        <ele>4.1</ele>
        <time>2022-06-21T10:10:28Z</time>
      </trkpt>
      <trkpt lat="45.93256" lon="-0.95343">
        <ele>4.1</ele>
        <time>2022-06-21T10:10:29Z</time>
      </trkpt>
      <trkpt lat="45.93257" lon="-0.95344">
        <ele>4.1</ele>
        <time>2022-06-21T10:10:30Z</time>
      </trkpt>
      <trkpt lat="45.93257" lon="-0.95345">
        <ele>4.1</ele>
        <time>2022-06-21T10:10:31Z</time>
      </trkpt>
      <trkpt lat="45.93258" lon="-0.95346">
        <ele>4.1</ele>
        <time>2022-06-21T10:10:32Z</time>
      </trkpt>
      <trkpt lat="45.93259" lon="-0.95347">
        <ele>4.1</ele>
        <time>2022-06-21T10:10:33Z</time>
      </trkpt>
      <trkpt lat="45.9326" lon="-0.95348">
        <ele>4.1</ele>
        <time>2022-06-21T10:10:34Z</time>
      </trkpt>
      <trkpt lat="45.93261" lon="-0.95349">
        <ele>4.1</ele>
        <time>2022-06-21T10:10:36Z</time>
      </trkpt>
      <trkpt lat="45.93262" lon="-0.9535">
        <ele>4.1</ele>
        <time>2022-06-21T10:10:37Z</time>
      </trkpt>
      <trkpt lat="45.93263" lon="-0.95351">
        <ele>4</ele>
        <time>2022-06-21T10:10:38Z</time>
      </trkpt>
      <trkpt lat="45.93264" lon="-0.95352">
        <ele>4</ele>
        <time>2022-06-21T10:10:39Z</time>
      </trkpt>
      <trkpt lat="45.93265" lon="-0.95353">
        <ele>4</ele>
        <time>2022-06-21T10:10:40Z</time>
      </trkpt>
      <trkpt lat="45.93267" lon="-0.95355">
        <ele>4</ele>
        <time>2022-06-21T10:10:42Z</time>
      </trkpt>
      <trkpt lat="45.93268" lon="-0.95357">
        <ele>4</ele>
        <time>2022-06-21T10:10:44Z</time>
      </trkpt>
      <trkpt lat="45.93269" lon="-0.95358">
        <ele>4</ele>
        <time>2022-06-21T10:10:45Z</time>
      </trkpt>
      <trkpt lat="45.9327" lon="-0.95359">
        <ele>4.1</ele>
        <time>2022-06-21T10:10:46Z</time>
      </trkpt>
      <trkpt lat="45.93272" lon="-0.9536">
        <ele>4.1</ele>
        <time>2022-06-21T10:10:47Z</time>
      </trkpt>
      <trkpt lat="45.93273" lon="-0.9536">
        <ele>4.1</ele>
        <time>2022-06-21T10:10:48Z</time>
      </trkpt>
      <trkpt lat="45.93275" lon="-0.95362">
        <ele>4.1</ele>
        <time>2022-06-21T10:10:49Z</time>
      </trkpt>
      <trkpt lat="45.93275" lon="-0.95363">
        <ele>4.1</ele>
        <time>2022-06-21T10:10:50Z</time>
      </trkpt>
      <trkpt lat="45.93276" lon="-0.95364">
        <ele>4.1</ele>
        <time>2022-06-21T10:10:52Z</time>
      </trkpt>
      <trkpt lat="45.93277" lon="-0.95365">
        <ele>4.1</ele>
        <time>2022-06-21T10:10:53Z</time>
      </trkpt>
      <trkpt lat="45.93278" lon="-0.95366">
        <ele>4.1</ele>
        <time>2022-06-21T10:10:54Z</time>
      </trkpt>
      <trkpt lat="45.93279" lon="-0.95366">
        <ele>4.1</ele>
        <time>2022-06-21T10:10:55Z</time>
      </trkpt>
      <trkpt lat="45.9328" lon="-0.95368">
        <ele>4.1</ele>
        <time>2022-06-21T10:10:56Z</time>
      </trkpt>
      <trkpt lat="45.9328" lon="-0.95368">
        <ele>4.1</ele>
        <time>2022-06-21T10:10:57Z</time>
      </trkpt>
      <trkpt lat="45.93281" lon="-0.95369">
        <ele>4.1</ele>
        <time>2022-06-21T10:10:58Z</time>
      </trkpt>
      <trkpt lat="45.93281" lon="-0.9537">
        <ele>4.1</ele>
        <time>2022-06-21T10:10:59Z</time>
      </trkpt>
      <trkpt lat="45.93282" lon="-0.95371">
        <ele>4.1</ele>
        <time>2022-06-21T10:11:00Z</time>
      </trkpt>
      <trkpt lat="45.93283" lon="-0.95372">
        <ele>4.1</ele>
        <time>2022-06-21T10:11:02Z</time>
      </trkpt>
      <trkpt lat="45.93283" lon="-0.95373">
        <ele>4.1</ele>
        <time>2022-06-21T10:11:03Z</time>
      </trkpt>
      <trkpt lat="45.93284" lon="-0.95373">
        <ele>4.1</ele>
        <time>2022-06-21T10:11:04Z</time>
      </trkpt>
      <trkpt lat="45.93285" lon="-0.95374">
        <ele>4.1</ele>
        <time>2022-06-21T10:11:05Z</time>
      </trkpt>
      <trkpt lat="45.93286" lon="-0.95374">
        <ele>4.1</ele>
        <time>2022-06-21T10:11:06Z</time>
      </trkpt>
      <trkpt lat="45.93287" lon="-0.95375">
        <ele>4.2</ele>
        <time>2022-06-21T10:11:07Z</time>
      </trkpt>
      <trkpt lat="45.93288" lon="-0.95376">
        <ele>4.2</ele>
        <time>2022-06-21T10:11:09Z</time>
      </trkpt>
      <trkpt lat="45.93289" lon="-0.95377">
        <ele>4.2</ele>
        <time>2022-06-21T10:11:10Z</time>
      </trkpt>
      <trkpt lat="45.9329" lon="-0.95378">
        <ele>4.2</ele>
        <time>2022-06-21T10:11:11Z</time>
      </trkpt>
      <trkpt lat="45.93291" lon="-0.95379">
        <ele>4.2</ele>
        <time>2022-06-21T10:11:12Z</time>
      </trkpt>
      <trkpt lat="45.93292" lon="-0.9538">
        <ele>4.2</ele>
        <time>2022-06-21T10:11:13Z</time>
      </trkpt>
      <trkpt lat="45.93294" lon="-0.95382">
        <ele>4.2</ele>
        <time>2022-06-21T10:11:14Z</time>
      </trkpt>
      <trkpt lat="45.93295" lon="-0.95383">
        <ele>4.2</ele>
        <time>2022-06-21T10:11:15Z</time>
      </trkpt>
      <trkpt lat="45.93296" lon="-0.95384">
        <ele>4.2</ele>
        <time>2022-06-21T10:11:16Z</time>
      </trkpt>
      <trkpt lat="45.93296" lon="-0.95384">
        <ele>4.2</ele>
        <time>2022-06-21T10:11:18Z</time>
      </trkpt>
      <trkpt lat="45.93296" lon="-0.95386">
        <ele>4.2</ele>
        <time>2022-06-21T10:11:19Z</time>
      </trkpt>
      <trkpt lat="45.93297" lon="-0.95387">
        <ele>4.2</ele>
        <time>2022-06-21T10:11:20Z</time>
      </trkpt>
      <trkpt lat="45.93298" lon="-0.95388">
        <ele>4.2</ele>
        <time>2022-06-21T10:11:21Z</time>
      </trkpt>
      <trkpt lat="45.93299" lon="-0.95388">
        <ele>4.2</ele>
        <time>2022-06-21T10:11:22Z</time>
      </trkpt>
      <trkpt lat="45.93299" lon="-0.95388">
        <ele>4.2</ele>
        <time>2022-06-21T10:11:23Z</time>
      </trkpt>
      <trkpt lat="45.933" lon="-0.95389">
        <ele>4.2</ele>
        <time>2022-06-21T10:11:24Z</time>
      </trkpt>
      <trkpt lat="45.933" lon="-0.95389">
        <ele>4.2</ele>
        <time>2022-06-21T10:11:26Z</time>
      </trkpt>
      <trkpt lat="45.933" lon="-0.9539">
        <ele>4.2</ele>
        <time>2022-06-21T10:11:27Z</time>
      </trkpt>
      <trkpt lat="45.93301" lon="-0.9539">
        <ele>4.2</ele>
        <time>2022-06-21T10:11:28Z</time>
      </trkpt>
      <trkpt lat="45.93301" lon="-0.9539">
        <ele>4.2</ele>
        <time>2022-06-21T10:11:29Z</time>
      </trkpt>
      <trkpt lat="45.93303" lon="-0.95392">
        <ele>4.2</ele>
        <time>2022-06-21T10:11:30Z</time>
      </trkpt>
      <trkpt lat="45.93304" lon="-0.95392">
        <ele>4.2</ele>
        <time>2022-06-21T10:11:31Z</time>
      </trkpt>
      <trkpt lat="45.93307" lon="-0.95393">
        <ele>4.2</ele>
        <time>2022-06-21T10:11:32Z</time>
      </trkpt>
      <trkpt lat="45.93308" lon="-0.95393">
        <ele>4.2</ele>
        <time>2022-06-21T10:11:34Z</time>
      </trkpt>
      <trkpt lat="45.93309" lon="-0.95393">
        <ele>4.2</ele>
        <time>2022-06-21T10:11:35Z</time>
      </trkpt>
      <trkpt lat="45.93311" lon="-0.95393">
        <ele>4.2</ele>
        <time>2022-06-21T10:11:36Z</time>
      </trkpt>
      <trkpt lat="45.93312" lon="-0.95393">
        <ele>4.2</ele>
        <time>2022-06-21T10:11:37Z</time>
      </trkpt>
      <trkpt lat="45.93313" lon="-0.95393">
        <ele>4.2</ele>
        <time>2022-06-21T10:11:39Z</time>
      </trkpt>
      <trkpt lat="45.93314" lon="-0.95394">
        <ele>4.2</ele>
        <time>2022-06-21T10:11:40Z</time>
      </trkpt>
      <trkpt lat="45.93315" lon="-0.95394">
        <ele>4.2</ele>
        <time>2022-06-21T10:11:41Z</time>
      </trkpt>
      <trkpt lat="45.93316" lon="-0.95395">
        <ele>4.2</ele>
        <time>2022-06-21T10:11:42Z</time>
      </trkpt>
      <trkpt lat="45.93318" lon="-0.95396">
        <ele>4.2</ele>
        <time>2022-06-21T10:11:43Z</time>
      </trkpt>
      <trkpt lat="45.93319" lon="-0.95397">
        <ele>4.2</ele>
        <time>2022-06-21T10:11:45Z</time>
      </trkpt>
      <trkpt lat="45.9332" lon="-0.95398">
        <ele>4.2</ele>
        <time>2022-06-21T10:11:46Z</time>
      </trkpt>
      <trkpt lat="45.93321" lon="-0.95399">
        <ele>4.2</ele>
        <time>2022-06-21T10:11:47Z</time>
      </trkpt>
      <trkpt lat="45.93323" lon="-0.95401">
        <ele>4.2</ele>
        <time>2022-06-21T10:11:48Z</time>
      </trkpt>
      <trkpt lat="45.93324" lon="-0.95402">
        <ele>4.2</ele>
        <time>2022-06-21T10:11:50Z</time>
      </trkpt>
      <trkpt lat="45.93325" lon="-0.95403">
        <ele>4.2</ele>
        <time>2022-06-21T10:11:51Z</time>
      </trkpt>
      <trkpt lat="45.93326" lon="-0.95404">
        <ele>4.2</ele>
        <time>2022-06-21T10:11:52Z</time>
      </trkpt>
      <trkpt lat="45.93327" lon="-0.95405">
        <ele>4.2</ele>
        <time>2022-06-21T10:11:53Z</time>
      </trkpt>
      <trkpt lat="45.93327" lon="-0.95406">
        <ele>4.2</ele>
        <time>2022-06-21T10:11:54Z</time>
      </trkpt>
      <trkpt lat="45.93328" lon="-0.95407">
        <ele>4.2</ele>
        <time>2022-06-21T10:11:55Z</time>
      </trkpt>
      <trkpt lat="45.93328" lon="-0.95409">
        <ele>4.2</ele>
        <time>2022-06-21T10:11:56Z</time>
      </trkpt>
      <trkpt lat="45.93329" lon="-0.9541">
        <ele>4.2</ele>
        <time>2022-06-21T10:11:58Z</time>
      </trkpt>
      <trkpt lat="45.9333" lon="-0.95412">
        <ele>4.2</ele>
        <time>2022-06-21T10:11:59Z</time>
      </trkpt>
      <trkpt lat="45.93331" lon="-0.95414">
        <ele>4.2</ele>
        <time>2022-06-21T10:12:00Z</time>
      </trkpt>
      <trkpt lat="45.93332" lon="-0.95415">
        <ele>4.2</ele>
        <time>2022-06-21T10:12:01Z</time>
      </trkpt>
      <trkpt lat="45.93333" lon="-0.95416">
        <ele>4.2</ele>
        <time>2022-06-21T10:12:02Z</time>
      </trkpt>
      <trkpt lat="45.93334" lon="-0.95418">
        <ele>4.2</ele>
        <time>2022-06-21T10:12:03Z</time>
      </trkpt>
      <trkpt lat="45.93335" lon="-0.95419">
        <ele>4.2</ele>
        <time>2022-06-21T10:12:04Z</time>
      </trkpt>
      <trkpt lat="45.93336" lon="-0.9542">
        <ele>4.2</ele>
        <time>2022-06-21T10:12:05Z</time>
      </trkpt>
      <trkpt lat="45.93336" lon="-0.95422">
        <ele>4.2</ele>
        <time>2022-06-21T10:12:07Z</time>
      </trkpt>
      <trkpt lat="45.93336" lon="-0.95423">
        <ele>4.2</ele>
        <time>2022-06-21T10:12:08Z</time>
      </trkpt>
      <trkpt lat="45.93336" lon="-0.95424">
        <ele>4.2</ele>
        <time>2022-06-21T10:12:09Z</time>
      </trkpt>
      <trkpt lat="45.93337" lon="-0.95426">
        <ele>4.3</ele>
        <time>2022-06-21T10:12:10Z</time>
      </trkpt>
      <trkpt lat="45.93338" lon="-0.95427">
        <ele>4.3</ele>
        <time>2022-06-21T10:12:11Z</time>
      </trkpt>
      <trkpt lat="45.93339" lon="-0.95428">
        <ele>4.3</ele>
        <time>2022-06-21T10:12:12Z</time>
      </trkpt>
      <trkpt lat="45.93341" lon="-0.95431">
        <ele>4.3</ele>
        <time>2022-06-21T10:12:13Z</time>
      </trkpt>
      <trkpt lat="45.93342" lon="-0.95431">
        <ele>4.3</ele>
        <time>2022-06-21T10:12:14Z</time>
      </trkpt>
      <trkpt lat="45.93344" lon="-0.95433">
        <ele>4.3</ele>
        <time>2022-06-21T10:12:15Z</time>
      </trkpt>
      <trkpt lat="45.93345" lon="-0.95434">
        <ele>4.3</ele>
        <time>2022-06-21T10:12:17Z</time>
      </trkpt>
      <trkpt lat="45.93346" lon="-0.95436">
        <ele>4.3</ele>
        <time>2022-06-21T10:12:18Z</time>
      </trkpt>
      <trkpt lat="45.93347" lon="-0.95437">
        <ele>4.3</ele>
        <time>2022-06-21T10:12:19Z</time>
      </trkpt>
      <trkpt lat="45.93348" lon="-0.95438">
        <ele>4.3</ele>
        <time>2022-06-21T10:12:20Z</time>
      </trkpt>
      <trkpt lat="45.93349" lon="-0.9544">
        <ele>4.3</ele>
        <time>2022-06-21T10:12:21Z</time>
      </trkpt>
      <trkpt lat="45.93351" lon="-0.95441">
        <ele>4.3</ele>
        <time>2022-06-21T10:12:22Z</time>
      </trkpt>
      <trkpt lat="45.93352" lon="-0.95442">
        <ele>4.3</ele>
        <time>2022-06-21T10:12:23Z</time>
      </trkpt>
      <trkpt lat="45.93352" lon="-0.95442">
        <ele>4.3</ele>
        <time>2022-06-21T10:12:24Z</time>
      </trkpt>
      <trkpt lat="45.93353" lon="-0.95443">
        <ele>4.3</ele>
        <time>2022-06-21T10:12:25Z</time>
      </trkpt>
      <trkpt lat="45.93354" lon="-0.95444">
        <ele>4.3</ele>
        <time>2022-06-21T10:12:27Z</time>
      </trkpt>
      <trkpt lat="45.93354" lon="-0.95446">
        <ele>4.3</ele>
        <time>2022-06-21T10:12:28Z</time>
      </trkpt>
      <trkpt lat="45.93355" lon="-0.95447">
        <ele>4.3</ele>
        <time>2022-06-21T10:12:29Z</time>
      </trkpt>
      <trkpt lat="45.93356" lon="-0.95448">
        <ele>4.3</ele>
        <time>2022-06-21T10:12:30Z</time>
      </trkpt>
      <trkpt lat="45.93357" lon="-0.95449">
        <ele>4.3</ele>
        <time>2022-06-21T10:12:31Z</time>
      </trkpt>
      <trkpt lat="45.93358" lon="-0.95451">
        <ele>4.3</ele>
        <time>2022-06-21T10:12:32Z</time>
      </trkpt>
      <trkpt lat="45.93359" lon="-0.95451">
        <ele>4.3</ele>
        <time>2022-06-21T10:12:33Z</time>
      </trkpt>
      <trkpt lat="45.9336" lon="-0.95452">
        <ele>4.3</ele>
        <time>2022-06-21T10:12:34Z</time>
      </trkpt>
      <trkpt lat="45.9336" lon="-0.95453">
        <ele>4.3</ele>
        <time>2022-06-21T10:12:35Z</time>
      </trkpt>
      <trkpt lat="45.93362" lon="-0.95454">
        <ele>4.3</ele>
        <time>2022-06-21T10:12:37Z</time>
      </trkpt>
      <trkpt lat="45.93363" lon="-0.95455">
        <ele>4.3</ele>
        <time>2022-06-21T10:12:38Z</time>
      </trkpt>
      <trkpt lat="45.93365" lon="-0.95457">
        <ele>4.3</ele>
        <time>2022-06-21T10:12:39Z</time>
      </trkpt>
      <trkpt lat="45.93366" lon="-0.95458">
        <ele>4.3</ele>
        <time>2022-06-21T10:12:40Z</time>
      </trkpt>
      <trkpt lat="45.93367" lon="-0.95459">
        <ele>4.3</ele>
        <time>2022-06-21T10:12:41Z</time>
      </trkpt>
      <trkpt lat="45.93368" lon="-0.9546">
        <ele>4.3</ele>
        <time>2022-06-21T10:12:42Z</time>
      </trkpt>
      <trkpt lat="45.93369" lon="-0.95462">
        <ele>4.3</ele>
        <time>2022-06-21T10:12:43Z</time>
      </trkpt>
      <trkpt lat="45.9337" lon="-0.95463">
        <ele>4.3</ele>
        <time>2022-06-21T10:12:44Z</time>
      </trkpt>
      <trkpt lat="45.93371" lon="-0.95465">
        <ele>4.3</ele>
        <time>2022-06-21T10:12:45Z</time>
      </trkpt>
      <trkpt lat="45.93372" lon="-0.95466">
        <ele>4.3</ele>
        <time>2022-06-21T10:12:46Z</time>
      </trkpt>
      <trkpt lat="45.93373" lon="-0.95468">
        <ele>4.3</ele>
        <time>2022-06-21T10:12:48Z</time>
      </trkpt>
      <trkpt lat="45.93374" lon="-0.9547">
        <ele>4.3</ele>
        <time>2022-06-21T10:12:49Z</time>
      </trkpt>
      <trkpt lat="45.93374" lon="-0.9547">
        <ele>4.3</ele>
        <time>2022-06-21T10:12:50Z</time>
      </trkpt>
      <trkpt lat="45.93374" lon="-0.95471">
        <ele>4.3</ele>
        <time>2022-06-21T10:12:51Z</time>
      </trkpt>
      <trkpt lat="45.93373" lon="-0.95471">
        <ele>4.3</ele>
        <time>2022-06-21T10:12:52Z</time>
      </trkpt>
      <trkpt lat="45.93374" lon="-0.95472">
        <ele>4.3</ele>
        <time>2022-06-21T10:12:53Z</time>
      </trkpt>
      <trkpt lat="45.93375" lon="-0.95473">
        <ele>4.3</ele>
        <time>2022-06-21T10:12:54Z</time>
      </trkpt>
      <trkpt lat="45.93376" lon="-0.95474">
        <ele>4.3</ele>
        <time>2022-06-21T10:12:55Z</time>
      </trkpt>
      <trkpt lat="45.93378" lon="-0.95476">
        <ele>4.3</ele>
        <time>2022-06-21T10:12:56Z</time>
      </trkpt>
      <trkpt lat="45.93379" lon="-0.95476">
        <ele>4.3</ele>
        <time>2022-06-21T10:12:58Z</time>
      </trkpt>
      <trkpt lat="45.9338" lon="-0.95477">
        <ele>4.3</ele>
        <time>2022-06-21T10:12:59Z</time>
      </trkpt>
      <trkpt lat="45.93382" lon="-0.95478">
        <ele>4.3</ele>
        <time>2022-06-21T10:13:00Z</time>
      </trkpt>
      <trkpt lat="45.93383" lon="-0.95478">
        <ele>4.3</ele>
        <time>2022-06-21T10:13:01Z</time>
      </trkpt>
      <trkpt lat="45.93384" lon="-0.95478">
        <ele>4.3</ele>
        <time>2022-06-21T10:13:02Z</time>
      </trkpt>
      <trkpt lat="45.93387" lon="-0.9548">
        <ele>4.3</ele>
        <time>2022-06-21T10:13:04Z</time>
      </trkpt>
      <trkpt lat="45.93388" lon="-0.95479">
        <ele>4.3</ele>
        <time>2022-06-21T10:13:05Z</time>
      </trkpt>
      <trkpt lat="45.93389" lon="-0.95478">
        <ele>4.3</ele>
        <time>2022-06-21T10:13:06Z</time>
      </trkpt>
      <trkpt lat="45.93389" lon="-0.95476">
        <ele>4.3</ele>
        <time>2022-06-21T10:13:07Z</time>
      </trkpt>
      <trkpt lat="45.9339" lon="-0.95475">
        <ele>4.3</ele>
        <time>2022-06-21T10:13:08Z</time>
      </trkpt>
      <trkpt lat="45.9339" lon="-0.95475">
        <ele>4.3</ele>
        <time>2022-06-21T10:13:09Z</time>
      </trkpt>
      <trkpt lat="45.93391" lon="-0.95474">
        <ele>4.3</ele>
        <time>2022-06-21T10:13:10Z</time>
      </trkpt>
      <trkpt lat="45.93393" lon="-0.95473">
        <ele>4.3</ele>
        <time>2022-06-21T10:13:11Z</time>
      </trkpt>
      <trkpt lat="45.93394" lon="-0.95473">
        <ele>4.3</ele>
        <time>2022-06-21T10:13:12Z</time>
      </trkpt>
      <trkpt lat="45.93395" lon="-0.95472">
        <ele>4.3</ele>
        <time>2022-06-21T10:13:14Z</time>
      </trkpt>
      <trkpt lat="45.93397" lon="-0.95471">
        <ele>4.3</ele>
        <time>2022-06-21T10:13:15Z</time>
      </trkpt>
      <trkpt lat="45.93398" lon="-0.9547">
        <ele>4.3</ele>
        <time>2022-06-21T10:13:16Z</time>
      </trkpt>
      <trkpt lat="45.93399" lon="-0.95469">
        <ele>4.3</ele>
        <time>2022-06-21T10:13:17Z</time>
      </trkpt>
      <trkpt lat="45.934" lon="-0.95468">
        <ele>4.3</ele>
        <time>2022-06-21T10:13:19Z</time>
      </trkpt>
      <trkpt lat="45.93402" lon="-0.95467">
        <ele>4.3</ele>
        <time>2022-06-21T10:13:20Z</time>
      </trkpt>
      <trkpt lat="45.93403" lon="-0.95463">
        <ele>4.3</ele>
        <time>2022-06-21T10:13:21Z</time>
      </trkpt>
      <trkpt lat="45.93403" lon="-0.95463">
        <ele>4.3</ele>
        <time>2022-06-21T10:13:22Z</time>
      </trkpt>
      <trkpt lat="45.93405" lon="-0.95461">
        <ele>4.3</ele>
        <time>2022-06-21T10:13:23Z</time>
      </trkpt>
      <trkpt lat="45.93406" lon="-0.9546">
        <ele>4.3</ele>
        <time>2022-06-21T10:13:24Z</time>
      </trkpt>
      <trkpt lat="45.93407" lon="-0.95459">
        <ele>4.3</ele>
        <time>2022-06-21T10:13:25Z</time>
      </trkpt>
      <trkpt lat="45.93407" lon="-0.95458">
        <ele>4.3</ele>
        <time>2022-06-21T10:13:26Z</time>
      </trkpt>
      <trkpt lat="45.93408" lon="-0.95458">
        <ele>4.3</ele>
        <time>2022-06-21T10:13:28Z</time>
      </trkpt>
      <trkpt lat="45.93409" lon="-0.95457">
        <ele>4.3</ele>
        <time>2022-06-21T10:13:29Z</time>
      </trkpt>
      <trkpt lat="45.9341" lon="-0.95456">
        <ele>4.3</ele>
        <time>2022-06-21T10:13:30Z</time>
      </trkpt>
      <trkpt lat="45.93412" lon="-0.95456">
        <ele>4.3</ele>
        <time>2022-06-21T10:13:31Z</time>
      </trkpt>
      <trkpt lat="45.93412" lon="-0.95456">
        <ele>4.3</ele>
        <time>2022-06-21T10:13:32Z</time>
      </trkpt>
      <trkpt lat="45.93413" lon="-0.95456">
        <ele>4.3</ele>
        <time>2022-06-21T10:13:33Z</time>
      </trkpt>
      <trkpt lat="45.93414" lon="-0.95456">
        <ele>4.3</ele>
        <time>2022-06-21T10:13:34Z</time>
      </trkpt>
      <trkpt lat="45.93417" lon="-0.95457">
        <ele>4.3</ele>
        <time>2022-06-21T10:13:36Z</time>
      </trkpt>
      <trkpt lat="45.93417" lon="-0.9546">
        <ele>4.3</ele>
        <time>2022-06-21T10:13:37Z</time>
      </trkpt>
      <trkpt lat="45.93418" lon="-0.95461">
        <ele>4.3</ele>
        <time>2022-06-21T10:13:38Z</time>
      </trkpt>
      <trkpt lat="45.93419" lon="-0.95461">
        <ele>4.3</ele>
        <time>2022-06-21T10:13:39Z</time>
      </trkpt>
      <trkpt lat="45.93421" lon="-0.95462">
        <ele>4.3</ele>
        <time>2022-06-21T10:13:40Z</time>
      </trkpt>
      <trkpt lat="45.93422" lon="-0.95463">
        <ele>4.3</ele>
        <time>2022-06-21T10:13:42Z</time>
      </trkpt>
      <trkpt lat="45.93422" lon="-0.95464">
        <ele>4.3</ele>
        <time>2022-06-21T10:13:43Z</time>
      </trkpt>
      <trkpt lat="45.93424" lon="-0.95465">
        <ele>4.3</ele>
        <time>2022-06-21T10:13:44Z</time>
      </trkpt>
      <trkpt lat="45.93424" lon="-0.95467">
        <ele>4.3</ele>
        <time>2022-06-21T10:13:45Z</time>
      </trkpt>
      <trkpt lat="45.93426" lon="-0.9547">
        <ele>4.3</ele>
        <time>2022-06-21T10:13:47Z</time>
      </trkpt>
      <trkpt lat="45.93427" lon="-0.95472">
        <ele>4.3</ele>
        <time>2022-06-21T10:13:48Z</time>
      </trkpt>
      <trkpt lat="45.93428" lon="-0.95473">
        <ele>4.3</ele>
        <time>2022-06-21T10:13:49Z</time>
      </trkpt>
      <trkpt lat="45.93429" lon="-0.95477">
        <ele>4.3</ele>
        <time>2022-06-21T10:13:50Z</time>
      </trkpt>
      <trkpt lat="45.9343" lon="-0.95478">
        <ele>4.3</ele>
        <time>2022-06-21T10:13:51Z</time>
      </trkpt>
      <trkpt lat="45.93431" lon="-0.9548">
        <ele>4.3</ele>
        <time>2022-06-21T10:13:52Z</time>
      </trkpt>
      <trkpt lat="45.93432" lon="-0.95481">
        <ele>4.3</ele>
        <time>2022-06-21T10:13:54Z</time>
      </trkpt>
      <trkpt lat="45.93433" lon="-0.95483">
        <ele>4.4</ele>
        <time>2022-06-21T10:13:55Z</time>
      </trkpt>
      <trkpt lat="45.93433" lon="-0.95485">
        <ele>4.4</ele>
        <time>2022-06-21T10:13:56Z</time>
      </trkpt>
      <trkpt lat="45.93434" lon="-0.95489">
        <ele>4.4</ele>
        <time>2022-06-21T10:13:57Z</time>
      </trkpt>
      <trkpt lat="45.93435" lon="-0.9549">
        <ele>4.4</ele>
        <time>2022-06-21T10:13:58Z</time>
      </trkpt>
      <trkpt lat="45.93434" lon="-0.95497">
        <ele>4.4</ele>
        <time>2022-06-21T10:14:00Z</time>
      </trkpt>
      <trkpt lat="45.93434" lon="-0.95501">
        <ele>4.4</ele>
        <time>2022-06-21T10:14:01Z</time>
      </trkpt>
      <trkpt lat="45.93433" lon="-0.955">
        <ele>4.4</ele>
        <time>2022-06-21T10:14:02Z</time>
      </trkpt>
      <trkpt lat="45.93433" lon="-0.95504">
        <ele>4.4</ele>
        <time>2022-06-21T10:14:04Z</time>
      </trkpt>
      <trkpt lat="45.93434" lon="-0.95505">
        <ele>4.5</ele>
        <time>2022-06-21T10:14:05Z</time>
      </trkpt>
      <trkpt lat="45.93434" lon="-0.95507">
        <ele>4.5</ele>
        <time>2022-06-21T10:14:06Z</time>
      </trkpt>
      <trkpt lat="45.93434" lon="-0.95508">
        <ele>4.5</ele>
        <time>2022-06-21T10:14:07Z</time>
      </trkpt>
      <trkpt lat="45.93435" lon="-0.95509">
        <ele>4.5</ele>
        <time>2022-06-21T10:14:08Z</time>
      </trkpt>
      <trkpt lat="45.93435" lon="-0.9551">
        <ele>4.5</ele>
        <time>2022-06-21T10:14:09Z</time>
      </trkpt>
      <trkpt lat="45.93437" lon="-0.95514">
        <ele>4.5</ele>
        <time>2022-06-21T10:14:11Z</time>
      </trkpt>
      <trkpt lat="45.93437" lon="-0.95513">
        <ele>4.5</ele>
        <time>2022-06-21T10:14:12Z</time>
      </trkpt>
      <trkpt lat="45.93436" lon="-0.9551">
        <ele>4.5</ele>
        <time>2022-06-21T10:14:13Z</time>
      </trkpt>
      <trkpt lat="45.93436" lon="-0.95511">
        <ele>4.5</ele>
        <time>2022-06-21T10:14:14Z</time>
      </trkpt>
      <trkpt lat="45.93436" lon="-0.95511">
        <ele>4.5</ele>
        <time>2022-06-21T10:14:15Z</time>
      </trkpt>
      <trkpt lat="45.93437" lon="-0.95513">
        <ele>4.5</ele>
        <time>2022-06-21T10:14:16Z</time>
      </trkpt>
      <trkpt lat="45.93438" lon="-0.95515">
        <ele>4.5</ele>
        <time>2022-06-21T10:14:17Z</time>
      </trkpt>
      <trkpt lat="45.93438" lon="-0.95516">
        <ele>4.5</ele>
        <time>2022-06-21T10:14:18Z</time>
      </trkpt>
      <trkpt lat="45.93438" lon="-0.95515">
        <ele>4.5</ele>
        <time>2022-06-21T10:14:20Z</time>
      </trkpt>
      <trkpt lat="45.93437" lon="-0.9551">
        <ele>4.5</ele>
        <time>2022-06-21T10:14:21Z</time>
      </trkpt>
      <trkpt lat="45.93438" lon="-0.95512">
        <ele>4.5</ele>
        <time>2022-06-21T10:14:22Z</time>
      </trkpt>
      <trkpt lat="45.93439" lon="-0.95513">
        <ele>4.5</ele>
        <time>2022-06-21T10:14:23Z</time>
      </trkpt>
      <trkpt lat="45.93439" lon="-0.95514">
        <ele>4.5</ele>
        <time>2022-06-21T10:14:24Z</time>
      </trkpt>
      <trkpt lat="45.93441" lon="-0.95516">
        <ele>4.5</ele>
        <time>2022-06-21T10:14:26Z</time>
      </trkpt>
      <trkpt lat="45.93442" lon="-0.95519">
        <ele>4.5</ele>
        <time>2022-06-21T10:14:27Z</time>
      </trkpt>
      <trkpt lat="45.93443" lon="-0.9552">
        <ele>4.5</ele>
        <time>2022-06-21T10:14:28Z</time>
      </trkpt>
      <trkpt lat="45.93443" lon="-0.95519">
        <ele>4.5</ele>
        <time>2022-06-21T10:14:29Z</time>
      </trkpt>
      <trkpt lat="45.93444" lon="-0.95519">
        <ele>4.5</ele>
        <time>2022-06-21T10:14:30Z</time>
      </trkpt>
      <trkpt lat="45.93444" lon="-0.9552">
        <ele>4.5</ele>
        <time>2022-06-21T10:14:31Z</time>
      </trkpt>
      <trkpt lat="45.93445" lon="-0.9552">
        <ele>4.5</ele>
        <time>2022-06-21T10:14:32Z</time>
      </trkpt>
      <trkpt lat="45.93447" lon="-0.95522">
        <ele>4.5</ele>
        <time>2022-06-21T10:14:34Z</time>
      </trkpt>
      <trkpt lat="45.93448" lon="-0.95523">
        <ele>4.5</ele>
        <time>2022-06-21T10:14:35Z</time>
      </trkpt>
      <trkpt lat="45.93449" lon="-0.95523">
        <ele>4.5</ele>
        <time>2022-06-21T10:14:36Z</time>
      </trkpt>
      <trkpt lat="45.9345" lon="-0.95524">
        <ele>4.5</ele>
        <time>2022-06-21T10:14:37Z</time>
      </trkpt>
      <trkpt lat="45.9345" lon="-0.95524">
        <ele>4.5</ele>
        <time>2022-06-21T10:14:38Z</time>
      </trkpt>
      <trkpt lat="45.93452" lon="-0.95525">
        <ele>4.5</ele>
        <time>2022-06-21T10:14:39Z</time>
      </trkpt>
      <trkpt lat="45.93453" lon="-0.95525">
        <ele>4.5</ele>
        <time>2022-06-21T10:14:40Z</time>
      </trkpt>
      <trkpt lat="45.93456" lon="-0.95525">
        <ele>4.5</ele>
        <time>2022-06-21T10:14:41Z</time>
      </trkpt>
      <trkpt lat="45.93457" lon="-0.95525">
        <ele>4.5</ele>
        <time>2022-06-21T10:14:43Z</time>
      </trkpt>
      <trkpt lat="45.93459" lon="-0.95525">
        <ele>4.5</ele>
        <time>2022-06-21T10:14:44Z</time>
      </trkpt>
      <trkpt lat="45.93458" lon="-0.95525">
        <ele>4.5</ele>
        <time>2022-06-21T10:14:45Z</time>
      </trkpt>
      <trkpt lat="45.93459" lon="-0.95525">
        <ele>4.5</ele>
        <time>2022-06-21T10:14:46Z</time>
      </trkpt>
      <trkpt lat="45.9346" lon="-0.95525">
        <ele>4.5</ele>
        <time>2022-06-21T10:14:47Z</time>
      </trkpt>
      <trkpt lat="45.93465" lon="-0.95526">
        <ele>4.5</ele>
        <time>2022-06-21T10:14:49Z</time>
      </trkpt>
      <trkpt lat="45.93466" lon="-0.95526">
        <ele>4.5</ele>
        <time>2022-06-21T10:14:50Z</time>
      </trkpt>
      <trkpt lat="45.93467" lon="-0.95526">
        <ele>4.5</ele>
        <time>2022-06-21T10:14:51Z</time>
      </trkpt>
      <trkpt lat="45.93468" lon="-0.95526">
        <ele>4.5</ele>
        <time>2022-06-21T10:14:52Z</time>
      </trkpt>
      <trkpt lat="45.93469" lon="-0.95526">
        <ele>4.5</ele>
        <time>2022-06-21T10:14:53Z</time>
      </trkpt>
      <trkpt lat="45.93471" lon="-0.95528">
        <ele>4.5</ele>
        <time>2022-06-21T10:14:54Z</time>
      </trkpt>
      <trkpt lat="45.93472" lon="-0.95527">
        <ele>4.5</ele>
        <time>2022-06-21T10:14:55Z</time>
      </trkpt>
      <trkpt lat="45.93473" lon="-0.95527">
        <ele>4.5</ele>
        <time>2022-06-21T10:14:56Z</time>
      </trkpt>
      <trkpt lat="45.93475" lon="-0.95528">
        <ele>4.5</ele>
        <time>2022-06-21T10:14:57Z</time>
      </trkpt>
      <trkpt lat="45.93478" lon="-0.95528">
        <ele>4.5</ele>
        <time>2022-06-21T10:14:59Z</time>
      </trkpt>
      <trkpt lat="45.93479" lon="-0.95528">
        <ele>4.5</ele>
        <time>2022-06-21T10:15:00Z</time>
      </trkpt>
      <trkpt lat="45.93481" lon="-0.95529">
        <ele>4.5</ele>
        <time>2022-06-21T10:15:01Z</time>
      </trkpt>
      <trkpt lat="45.93484" lon="-0.95529">
        <ele>4.5</ele>
        <time>2022-06-21T10:15:02Z</time>
      </trkpt>
      <trkpt lat="45.93486" lon="-0.95529">
        <ele>4.5</ele>
        <time>2022-06-21T10:15:03Z</time>
      </trkpt>
      <trkpt lat="45.93486" lon="-0.95529">
        <ele>4.5</ele>
        <time>2022-06-21T10:15:05Z</time>
      </trkpt>
      <trkpt lat="45.93487" lon="-0.9553">
        <ele>4.4</ele>
        <time>2022-06-21T10:15:06Z</time>
      </trkpt>
      <trkpt lat="45.93489" lon="-0.9553">
        <ele>4.4</ele>
        <time>2022-06-21T10:15:07Z</time>
      </trkpt>
      <trkpt lat="45.9349" lon="-0.9553">
        <ele>4.4</ele>
        <time>2022-06-21T10:15:08Z</time>
      </trkpt>
      <trkpt lat="45.93492" lon="-0.95531">
        <ele>4.4</ele>
        <time>2022-06-21T10:15:09Z</time>
      </trkpt>
      <trkpt lat="45.93495" lon="-0.95531">
        <ele>4.4</ele>
        <time>2022-06-21T10:15:10Z</time>
      </trkpt>
      <trkpt lat="45.93496" lon="-0.95531">
        <ele>4.4</ele>
        <time>2022-06-21T10:15:11Z</time>
      </trkpt>
      <trkpt lat="45.93498" lon="-0.95531">
        <ele>4.4</ele>
        <time>2022-06-21T10:15:12Z</time>
      </trkpt>
      <trkpt lat="45.935" lon="-0.95531">
        <ele>4.4</ele>
        <time>2022-06-21T10:15:14Z</time>
      </trkpt>
      <trkpt lat="45.93502" lon="-0.9553">
        <ele>4.4</ele>
        <time>2022-06-21T10:15:15Z</time>
      </trkpt>
      <trkpt lat="45.93503" lon="-0.9553">
        <ele>4.4</ele>
        <time>2022-06-21T10:15:16Z</time>
      </trkpt>
      <trkpt lat="45.93504" lon="-0.9553">
        <ele>4.4</ele>
        <time>2022-06-21T10:15:17Z</time>
      </trkpt>
      <trkpt lat="45.93506" lon="-0.95529">
        <ele>4.4</ele>
        <time>2022-06-21T10:15:18Z</time>
      </trkpt>
      <trkpt lat="45.93508" lon="-0.95527">
        <ele>4.4</ele>
        <time>2022-06-21T10:15:19Z</time>
      </trkpt>
      <trkpt lat="45.93509" lon="-0.95527">
        <ele>4.4</ele>
        <time>2022-06-21T10:15:20Z</time>
      </trkpt>
      <trkpt lat="45.93511" lon="-0.95526">
        <ele>4.4</ele>
        <time>2022-06-21T10:15:22Z</time>
      </trkpt>
      <trkpt lat="45.93512" lon="-0.95526">
        <ele>4.4</ele>
        <time>2022-06-21T10:15:23Z</time>
      </trkpt>
      <trkpt lat="45.93515" lon="-0.95524">
        <ele>4.5</ele>
        <time>2022-06-21T10:15:24Z</time>
      </trkpt>
      <trkpt lat="45.93516" lon="-0.95525">
        <ele>4.5</ele>
        <time>2022-06-21T10:15:25Z</time>
      </trkpt>
      <trkpt lat="45.93517" lon="-0.95525">
        <ele>4.5</ele>
        <time>2022-06-21T10:15:26Z</time>
      </trkpt>
      <trkpt lat="45.93518" lon="-0.95525">
        <ele>4.5</ele>
        <time>2022-06-21T10:15:27Z</time>
      </trkpt>
      <trkpt lat="45.93519" lon="-0.95525">
        <ele>4.5</ele>
        <time>2022-06-21T10:15:28Z</time>
      </trkpt>
      <trkpt lat="45.9352" lon="-0.95526">
        <ele>4.5</ele>
        <time>2022-06-21T10:15:29Z</time>
      </trkpt>
      <trkpt lat="45.93521" lon="-0.95527">
        <ele>4.5</ele>
        <time>2022-06-21T10:15:31Z</time>
      </trkpt>
      <trkpt lat="45.93523" lon="-0.95528">
        <ele>4.5</ele>
        <time>2022-06-21T10:15:32Z</time>
      </trkpt>
      <trkpt lat="45.93524" lon="-0.95529">
        <ele>4.5</ele>
        <time>2022-06-21T10:15:33Z</time>
      </trkpt>
      <trkpt lat="45.93525" lon="-0.9553">
        <ele>4.6</ele>
        <time>2022-06-21T10:15:34Z</time>
      </trkpt>
      <trkpt lat="45.93527" lon="-0.95531">
        <ele>4.6</ele>
        <time>2022-06-21T10:15:35Z</time>
      </trkpt>
      <trkpt lat="45.9353" lon="-0.95533">
        <ele>4.6</ele>
        <time>2022-06-21T10:15:36Z</time>
      </trkpt>
      <trkpt lat="45.9353" lon="-0.95534">
        <ele>4.6</ele>
        <time>2022-06-21T10:15:37Z</time>
      </trkpt>
      <trkpt lat="45.93533" lon="-0.95537">
        <ele>4.7</ele>
        <time>2022-06-21T10:15:39Z</time>
      </trkpt>
      <trkpt lat="45.93533" lon="-0.95538">
        <ele>4.7</ele>
        <time>2022-06-21T10:15:40Z</time>
      </trkpt>
      <trkpt lat="45.93534" lon="-0.9554">
        <ele>4.7</ele>
        <time>2022-06-21T10:15:41Z</time>
      </trkpt>
      <trkpt lat="45.93535" lon="-0.95542">
        <ele>4.7</ele>
        <time>2022-06-21T10:15:42Z</time>
      </trkpt>
      <trkpt lat="45.93536" lon="-0.95543">
        <ele>4.7</ele>
        <time>2022-06-21T10:15:43Z</time>
      </trkpt>
      <trkpt lat="45.93537" lon="-0.95545">
        <ele>4.7</ele>
        <time>2022-06-21T10:15:44Z</time>
      </trkpt>
      <trkpt lat="45.93538" lon="-0.95547">
        <ele>4.8</ele>
        <time>2022-06-21T10:15:45Z</time>
      </trkpt>
      <trkpt lat="45.93539" lon="-0.95549">
        <ele>4.8</ele>
        <time>2022-06-21T10:15:47Z</time>
      </trkpt>
      <trkpt lat="45.9354" lon="-0.95551">
        <ele>4.8</ele>
        <time>2022-06-21T10:15:48Z</time>
      </trkpt>
      <trkpt lat="45.93541" lon="-0.95553">
        <ele>4.8</ele>
        <time>2022-06-21T10:15:49Z</time>
      </trkpt>
      <trkpt lat="45.93542" lon="-0.95554">
        <ele>4.8</ele>
        <time>2022-06-21T10:15:50Z</time>
      </trkpt>
      <trkpt lat="45.93542" lon="-0.95556">
        <ele>4.9</ele>
        <time>2022-06-21T10:15:51Z</time>
      </trkpt>
      <trkpt lat="45.93543" lon="-0.95557">
        <ele>4.9</ele>
        <time>2022-06-21T10:15:52Z</time>
      </trkpt>
      <trkpt lat="45.93544" lon="-0.95558">
        <ele>4.9</ele>
        <time>2022-06-21T10:15:53Z</time>
      </trkpt>
      <trkpt lat="45.93545" lon="-0.95559">
        <ele>4.9</ele>
        <time>2022-06-21T10:15:55Z</time>
      </trkpt>
      <trkpt lat="45.93546" lon="-0.95559">
        <ele>4.9</ele>
        <time>2022-06-21T10:15:56Z</time>
      </trkpt>
      <trkpt lat="45.93547" lon="-0.9556">
        <ele>4.9</ele>
        <time>2022-06-21T10:15:57Z</time>
      </trkpt>
      <trkpt lat="45.93547" lon="-0.95561">
        <ele>4.9</ele>
        <time>2022-06-21T10:15:58Z</time>
      </trkpt>
      <trkpt lat="45.93548" lon="-0.95562">
        <ele>5</ele>
        <time>2022-06-21T10:15:59Z</time>
      </trkpt>
      <trkpt lat="45.9355" lon="-0.95562">
        <ele>5</ele>
        <time>2022-06-21T10:16:00Z</time>
      </trkpt>
      <trkpt lat="45.93551" lon="-0.95563">
        <ele>5</ele>
        <time>2022-06-21T10:16:02Z</time>
      </trkpt>
      <trkpt lat="45.93551" lon="-0.95563">
        <ele>5</ele>
        <time>2022-06-21T10:16:03Z</time>
      </trkpt>
      <trkpt lat="45.93552" lon="-0.95561">
        <ele>5</ele>
        <time>2022-06-21T10:16:04Z</time>
      </trkpt>
      <trkpt lat="45.93552" lon="-0.9556">
        <ele>5</ele>
        <time>2022-06-21T10:16:05Z</time>
      </trkpt>
      <trkpt lat="45.93552" lon="-0.9556">
        <ele>5</ele>
        <time>2022-06-21T10:16:06Z</time>
      </trkpt>
      <trkpt lat="45.93553" lon="-0.9556">
        <ele>5</ele>
        <time>2022-06-21T10:16:07Z</time>
      </trkpt>
      <trkpt lat="45.93555" lon="-0.95561">
        <ele>5.1</ele>
        <time>2022-06-21T10:16:09Z</time>
      </trkpt>
      <trkpt lat="45.93556" lon="-0.95561">
        <ele>5.1</ele>
        <time>2022-06-21T10:16:10Z</time>
      </trkpt>
      <trkpt lat="45.93557" lon="-0.95561">
        <ele>5.1</ele>
        <time>2022-06-21T10:16:11Z</time>
      </trkpt>
      <trkpt lat="45.93558" lon="-0.95561">
        <ele>5.1</ele>
        <time>2022-06-21T10:16:12Z</time>
      </trkpt>
      <trkpt lat="45.93559" lon="-0.95562">
        <ele>5.1</ele>
        <time>2022-06-21T10:16:13Z</time>
      </trkpt>
      <trkpt lat="45.93561" lon="-0.95562">
        <ele>5.1</ele>
        <time>2022-06-21T10:16:14Z</time>
      </trkpt>
      <trkpt lat="45.93563" lon="-0.95563">
        <ele>5.1</ele>
        <time>2022-06-21T10:16:16Z</time>
      </trkpt>
      <trkpt lat="45.93564" lon="-0.95563">
        <ele>5.1</ele>
        <time>2022-06-21T10:16:17Z</time>
      </trkpt>
      <trkpt lat="45.93566" lon="-0.95564">
        <ele>5.1</ele>
        <time>2022-06-21T10:16:18Z</time>
      </trkpt>
      <trkpt lat="45.93567" lon="-0.95565">
        <ele>5.1</ele>
        <time>2022-06-21T10:16:19Z</time>
      </trkpt>
      <trkpt lat="45.93568" lon="-0.95565">
        <ele>5.1</ele>
        <time>2022-06-21T10:16:21Z</time>
      </trkpt>
      <trkpt lat="45.9357" lon="-0.95566">
        <ele>5.1</ele>
        <time>2022-06-21T10:16:22Z</time>
      </trkpt>
      <trkpt lat="45.93571" lon="-0.95567">
        <ele>5.1</ele>
        <time>2022-06-21T10:16:23Z</time>
      </trkpt>
      <trkpt lat="45.93573" lon="-0.95567">
        <ele>5.1</ele>
        <time>2022-06-21T10:16:24Z</time>
      </trkpt>
      <trkpt lat="45.93574" lon="-0.95568">
        <ele>5.1</ele>
        <time>2022-06-21T10:16:25Z</time>
      </trkpt>
      <trkpt lat="45.93576" lon="-0.95568">
        <ele>5.1</ele>
        <time>2022-06-21T10:16:26Z</time>
      </trkpt>
      <trkpt lat="45.93578" lon="-0.95568">
        <ele>5.1</ele>
        <time>2022-06-21T10:16:28Z</time>
      </trkpt>
      <trkpt lat="45.93579" lon="-0.95569">
        <ele>5.1</ele>
        <time>2022-06-21T10:16:29Z</time>
      </trkpt>
      <trkpt lat="45.9358" lon="-0.95569">
        <ele>5.1</ele>
        <time>2022-06-21T10:16:30Z</time>
      </trkpt>
      <trkpt lat="45.93582" lon="-0.95569">
        <ele>5.1</ele>
        <time>2022-06-21T10:16:31Z</time>
      </trkpt>
      <trkpt lat="45.93582" lon="-0.9557">
        <ele>5.1</ele>
        <time>2022-06-21T10:16:32Z</time>
      </trkpt>
      <trkpt lat="45.93583" lon="-0.9557">
        <ele>5.1</ele>
        <time>2022-06-21T10:16:33Z</time>
      </trkpt>
      <trkpt lat="45.93585" lon="-0.95571">
        <ele>5.1</ele>
        <time>2022-06-21T10:16:35Z</time>
      </trkpt>
      <trkpt lat="45.93585" lon="-0.95571">
        <ele>5.1</ele>
        <time>2022-06-21T10:16:36Z</time>
      </trkpt>
      <trkpt lat="45.93586" lon="-0.95572">
        <ele>5.1</ele>
        <time>2022-06-21T10:16:37Z</time>
      </trkpt>
      <trkpt lat="45.93587" lon="-0.95574">
        <ele>5.1</ele>
        <time>2022-06-21T10:16:38Z</time>
      </trkpt>
      <trkpt lat="45.93587" lon="-0.95575">
        <ele>5.1</ele>
        <time>2022-06-21T10:16:40Z</time>
      </trkpt>
      <trkpt lat="45.93587" lon="-0.95577">
        <ele>5.2</ele>
        <time>2022-06-21T10:16:41Z</time>
      </trkpt>
      <trkpt lat="45.93582" lon="-0.95577">
        <ele>5.2</ele>
        <time>2022-06-21T10:16:42Z</time>
      </trkpt>
      <trkpt lat="45.9358" lon="-0.95577">
        <ele>5.2</ele>
        <time>2022-06-21T10:16:44Z</time>
      </trkpt>
      <trkpt lat="45.93579" lon="-0.95578">
        <ele>5.2</ele>
        <time>2022-06-21T10:16:45Z</time>
      </trkpt>
      <trkpt lat="45.93579" lon="-0.95578">
        <ele>5.2</ele>
        <time>2022-06-21T10:16:46Z</time>
      </trkpt>
      <trkpt lat="45.93578" lon="-0.95578">
        <ele>5.2</ele>
        <time>2022-06-21T10:16:47Z</time>
      </trkpt>
      <trkpt lat="45.93577" lon="-0.95577">
        <ele>5.2</ele>
        <time>2022-06-21T10:16:48Z</time>
      </trkpt>
      <trkpt lat="45.93577" lon="-0.95577">
        <ele>5.2</ele>
        <time>2022-06-21T10:16:50Z</time>
      </trkpt>
      <trkpt lat="45.93577" lon="-0.95578">
        <ele>5.2</ele>
        <time>2022-06-21T10:16:51Z</time>
      </trkpt>
      <trkpt lat="45.93578" lon="-0.95578">
        <ele>5.2</ele>
        <time>2022-06-21T10:16:52Z</time>
      </trkpt>
      <trkpt lat="45.93578" lon="-0.9558">
        <ele>5.2</ele>
        <time>2022-06-21T10:16:54Z</time>
      </trkpt>
      <trkpt lat="45.93579" lon="-0.95581">
        <ele>5.2</ele>
        <time>2022-06-21T10:16:55Z</time>
      </trkpt>
      <trkpt lat="45.93579" lon="-0.95581">
        <ele>5.2</ele>
        <time>2022-06-21T10:16:56Z</time>
      </trkpt>
      <trkpt lat="45.93579" lon="-0.9558">
        <ele>5.2</ele>
        <time>2022-06-21T10:16:57Z</time>
      </trkpt>
      <trkpt lat="45.93579" lon="-0.9558">
        <ele>5.2</ele>
        <time>2022-06-21T10:16:58Z</time>
      </trkpt>
      <trkpt lat="45.93579" lon="-0.9558">
        <ele>5.2</ele>
        <time>2022-06-21T10:16:59Z</time>
      </trkpt>
      <trkpt lat="45.93579" lon="-0.95581">
        <ele>5.2</ele>
        <time>2022-06-21T10:17:00Z</time>
      </trkpt>
      <trkpt lat="45.93579" lon="-0.95582">
        <ele>5.2</ele>
        <time>2022-06-21T10:17:01Z</time>
      </trkpt>
      <trkpt lat="45.93579" lon="-0.95582">
        <ele>5.2</ele>
        <time>2022-06-21T10:17:02Z</time>
      </trkpt>
      <trkpt lat="45.93579" lon="-0.95582">
        <ele>5.2</ele>
        <time>2022-06-21T10:17:03Z</time>
      </trkpt>
      <trkpt lat="45.93579" lon="-0.95582">
        <ele>5.2</ele>
        <time>2022-06-21T10:17:04Z</time>
      </trkpt>
      <trkpt lat="45.9358" lon="-0.95582">
        <ele>5.2</ele>
        <time>2022-06-21T10:17:05Z</time>
      </trkpt>
      <trkpt lat="45.9358" lon="-0.95583">
        <ele>5.2</ele>
        <time>2022-06-21T10:17:06Z</time>
      </trkpt>
      <trkpt lat="45.93581" lon="-0.95584">
        <ele>5.2</ele>
        <time>2022-06-21T10:17:08Z</time>
      </trkpt>
      <trkpt lat="45.93582" lon="-0.95585">
        <ele>5.2</ele>
        <time>2022-06-21T10:17:09Z</time>
      </trkpt>
      <trkpt lat="45.93583" lon="-0.95586">
        <ele>5.2</ele>
        <time>2022-06-21T10:17:10Z</time>
      </trkpt>
      <trkpt lat="45.93584" lon="-0.95587">
        <ele>5.2</ele>
        <time>2022-06-21T10:17:11Z</time>
      </trkpt>
      <trkpt lat="45.93585" lon="-0.95588">
        <ele>5.2</ele>
        <time>2022-06-21T10:17:13Z</time>
      </trkpt>
      <trkpt lat="45.93586" lon="-0.9559">
        <ele>5.2</ele>
        <time>2022-06-21T10:17:14Z</time>
      </trkpt>
      <trkpt lat="45.93588" lon="-0.95593">
        <ele>5.2</ele>
        <time>2022-06-21T10:17:15Z</time>
      </trkpt>
      <trkpt lat="45.93588" lon="-0.95594">
        <ele>5.2</ele>
        <time>2022-06-21T10:17:16Z</time>
      </trkpt>
      <trkpt lat="45.93589" lon="-0.95595">
        <ele>5.2</ele>
        <time>2022-06-21T10:17:17Z</time>
      </trkpt>
      <trkpt lat="45.9359" lon="-0.95596">
        <ele>5.2</ele>
        <time>2022-06-21T10:17:19Z</time>
      </trkpt>
      <trkpt lat="45.93591" lon="-0.95597">
        <ele>5.2</ele>
        <time>2022-06-21T10:17:20Z</time>
      </trkpt>
      <trkpt lat="45.93592" lon="-0.95596">
        <ele>5.2</ele>
        <time>2022-06-21T10:17:21Z</time>
      </trkpt>
      <trkpt lat="45.93592" lon="-0.95597">
        <ele>5.2</ele>
        <time>2022-06-21T10:17:22Z</time>
      </trkpt>
      <trkpt lat="45.93593" lon="-0.95597">
        <ele>5.2</ele>
        <time>2022-06-21T10:17:24Z</time>
      </trkpt>
      <trkpt lat="45.93594" lon="-0.95597">
        <ele>5.2</ele>
        <time>2022-06-21T10:17:25Z</time>
      </trkpt>
      <trkpt lat="45.93596" lon="-0.95597">
        <ele>5.2</ele>
        <time>2022-06-21T10:17:26Z</time>
      </trkpt>
      <trkpt lat="45.93597" lon="-0.95596">
        <ele>5.1</ele>
        <time>2022-06-21T10:17:27Z</time>
      </trkpt>
      <trkpt lat="45.93598" lon="-0.95596">
        <ele>5.1</ele>
        <time>2022-06-21T10:17:28Z</time>
      </trkpt>
      <trkpt lat="45.93599" lon="-0.95595">
        <ele>5.1</ele>
        <time>2022-06-21T10:17:29Z</time>
      </trkpt>
      <trkpt lat="45.936" lon="-0.95594">
        <ele>5.1</ele>
        <time>2022-06-21T10:17:30Z</time>
      </trkpt>
      <trkpt lat="45.93601" lon="-0.95594">
        <ele>5.1</ele>
        <time>2022-06-21T10:17:31Z</time>
      </trkpt>
      <trkpt lat="45.93604" lon="-0.95593">
        <ele>5.1</ele>
        <time>2022-06-21T10:17:32Z</time>
      </trkpt>
      <trkpt lat="45.93605" lon="-0.95593">
        <ele>5</ele>
        <time>2022-06-21T10:17:33Z</time>
      </trkpt>
      <trkpt lat="45.93606" lon="-0.95593">
        <ele>5</ele>
        <time>2022-06-21T10:17:34Z</time>
      </trkpt>
      <trkpt lat="45.93609" lon="-0.95592">
        <ele>5</ele>
        <time>2022-06-21T10:17:36Z</time>
      </trkpt>
      <trkpt lat="45.9361" lon="-0.95591">
        <ele>5</ele>
        <time>2022-06-21T10:17:37Z</time>
      </trkpt>
      <trkpt lat="45.93613" lon="-0.9559">
        <ele>5</ele>
        <time>2022-06-21T10:17:39Z</time>
      </trkpt>
      <trkpt lat="45.93614" lon="-0.95589">
        <ele>5</ele>
        <time>2022-06-21T10:17:40Z</time>
      </trkpt>
      <trkpt lat="45.93615" lon="-0.95588">
        <ele>5</ele>
        <time>2022-06-21T10:17:41Z</time>
      </trkpt>
      <trkpt lat="45.93616" lon="-0.95587">
        <ele>5</ele>
        <time>2022-06-21T10:17:42Z</time>
      </trkpt>
      <trkpt lat="45.93618" lon="-0.95586">
        <ele>5</ele>
        <time>2022-06-21T10:17:43Z</time>
      </trkpt>
      <trkpt lat="45.93619" lon="-0.95585">
        <ele>5</ele>
        <time>2022-06-21T10:17:44Z</time>
      </trkpt>
      <trkpt lat="45.9362" lon="-0.95584">
        <ele>5</ele>
        <time>2022-06-21T10:17:45Z</time>
      </trkpt>
      <trkpt lat="45.9362" lon="-0.95583">
        <ele>5</ele>
        <time>2022-06-21T10:17:46Z</time>
      </trkpt>
      <trkpt lat="45.93621" lon="-0.95583">
        <ele>5</ele>
        <time>2022-06-21T10:17:47Z</time>
      </trkpt>
      <trkpt lat="45.93622" lon="-0.95582">
        <ele>5</ele>
        <time>2022-06-21T10:17:48Z</time>
      </trkpt>
      <trkpt lat="45.93623" lon="-0.95581">
        <ele>5</ele>
        <time>2022-06-21T10:17:49Z</time>
      </trkpt>
      <trkpt lat="45.93621" lon="-0.95582">
        <ele>5</ele>
        <time>2022-06-21T10:17:50Z</time>
      </trkpt>
      <trkpt lat="45.93621" lon="-0.95582">
        <ele>5</ele>
        <time>2022-06-21T10:17:51Z</time>
      </trkpt>
      <trkpt lat="45.93621" lon="-0.95581">
        <ele>5</ele>
        <time>2022-06-21T10:17:52Z</time>
      </trkpt>
      <trkpt lat="45.9362" lon="-0.95582">
        <ele>5</ele>
        <time>2022-06-21T10:17:53Z</time>
      </trkpt>
      <trkpt lat="45.93621" lon="-0.95582">
        <ele>5</ele>
        <time>2022-06-21T10:17:54Z</time>
      </trkpt>
      <trkpt lat="45.93621" lon="-0.95581">
        <ele>5</ele>
        <time>2022-06-21T10:17:55Z</time>
      </trkpt>
      <trkpt lat="45.93621" lon="-0.95581">
        <ele>5</ele>
        <time>2022-06-21T10:17:56Z</time>
      </trkpt>
      <trkpt lat="45.93621" lon="-0.95582">
        <ele>5</ele>
        <time>2022-06-21T10:17:57Z</time>
      </trkpt>
      <trkpt lat="45.93621" lon="-0.95582">
        <ele>5</ele>
        <time>2022-06-21T10:17:58Z</time>
      </trkpt>
      <trkpt lat="45.93621" lon="-0.95582">
        <ele>5</ele>
        <time>2022-06-21T10:17:59Z</time>
      </trkpt>
      <trkpt lat="45.9362" lon="-0.95582">
        <ele>5</ele>
        <time>2022-06-21T10:18:00Z</time>
      </trkpt>
      <trkpt lat="45.9362" lon="-0.95582">
        <ele>5</ele>
        <time>2022-06-21T10:18:01Z</time>
      </trkpt>
      <trkpt lat="45.9362" lon="-0.95582">
        <ele>5</ele>
        <time>2022-06-21T10:18:02Z</time>
      </trkpt>
      <trkpt lat="45.9362" lon="-0.95582">
        <ele>5</ele>
        <time>2022-06-21T10:18:03Z</time>
      </trkpt>
      <trkpt lat="45.9362" lon="-0.95582">
        <ele>5</ele>
        <time>2022-06-21T10:18:04Z</time>
      </trkpt>
      <trkpt lat="45.9362" lon="-0.95582">
        <ele>5</ele>
        <time>2022-06-21T10:18:05Z</time>
      </trkpt>
      <trkpt lat="45.9362" lon="-0.95582">
        <ele>5</ele>
        <time>2022-06-21T10:18:06Z</time>
      </trkpt>
      <trkpt lat="45.9362" lon="-0.95583">
        <ele>5</ele>
        <time>2022-06-21T10:18:07Z</time>
      </trkpt>
      <trkpt lat="45.9362" lon="-0.95583">
        <ele>5</ele>
        <time>2022-06-21T10:18:08Z</time>
      </trkpt>
      <trkpt lat="45.9362" lon="-0.95583">
        <ele>5</ele>
        <time>2022-06-21T10:18:09Z</time>
      </trkpt>
      <trkpt lat="45.9362" lon="-0.95583">
        <ele>5</ele>
        <time>2022-06-21T10:18:10Z</time>
      </trkpt>
      <trkpt lat="45.9362" lon="-0.95583">
        <ele>5</ele>
        <time>2022-06-21T10:18:11Z</time>
      </trkpt>
      <trkpt lat="45.9362" lon="-0.95583">
        <ele>5</ele>
        <time>2022-06-21T10:18:12Z</time>
      </trkpt>
      <trkpt lat="45.9362" lon="-0.95583">
        <ele>5</ele>
        <time>2022-06-21T10:18:13Z</time>
      </trkpt>
      <trkpt lat="45.9362" lon="-0.95583">
        <ele>5</ele>
        <time>2022-06-21T10:18:14Z</time>
      </trkpt>
      <trkpt lat="45.9362" lon="-0.95583">
        <ele>5</ele>
        <time>2022-06-21T10:18:15Z</time>
      </trkpt>
      <trkpt lat="45.9362" lon="-0.95583">
        <ele>5</ele>
        <time>2022-06-21T10:18:16Z</time>
      </trkpt>
      <trkpt lat="45.9362" lon="-0.95583">
        <ele>5</ele>
        <time>2022-06-21T10:18:17Z</time>
      </trkpt>
      <trkpt lat="45.9362" lon="-0.95583">
        <ele>5</ele>
        <time>2022-06-21T10:18:18Z</time>
      </trkpt>
      <trkpt lat="45.9362" lon="-0.95583">
        <ele>5</ele>
        <time>2022-06-21T10:18:19Z</time>
      </trkpt>
      <trkpt lat="45.9362" lon="-0.95583">
        <ele>5</ele>
        <time>2022-06-21T10:18:20Z</time>
      </trkpt>
      <trkpt lat="45.9362" lon="-0.95583">
        <ele>5</ele>
        <time>2022-06-21T10:18:21Z</time>
      </trkpt>
      <trkpt lat="45.9362" lon="-0.95583">
        <ele>5</ele>
        <time>2022-06-21T10:18:22Z</time>
      </trkpt>
      <trkpt lat="45.9362" lon="-0.95583">
        <ele>5</ele>
        <time>2022-06-21T10:18:23Z</time>
      </trkpt>
      <trkpt lat="45.9362" lon="-0.95583">
        <ele>5</ele>
        <time>2022-06-21T10:18:24Z</time>
      </trkpt>
      <trkpt lat="45.9362" lon="-0.95583">
        <ele>5</ele>
        <time>2022-06-21T10:18:25Z</time>
      </trkpt>
      <trkpt lat="45.9362" lon="-0.95583">
        <ele>5</ele>
        <time>2022-06-21T10:18:26Z</time>
      </trkpt>
      <trkpt lat="45.9362" lon="-0.95583">
        <ele>5</ele>
        <time>2022-06-21T10:18:27Z</time>
      </trkpt>
      <trkpt lat="45.9362" lon="-0.95583">
        <ele>5</ele>
        <time>2022-06-21T10:18:28Z</time>
      </trkpt>
      <trkpt lat="45.9362" lon="-0.95583">
        <ele>5</ele>
        <time>2022-06-21T10:18:29Z</time>
      </trkpt>
      <trkpt lat="45.9362" lon="-0.95583">
        <ele>5</ele>
        <time>2022-06-21T10:18:30Z</time>
      </trkpt>
      <trkpt lat="45.9362" lon="-0.95583">
        <ele>5</ele>
        <time>2022-06-21T10:18:31Z</time>
      </trkpt>
      <trkpt lat="45.9362" lon="-0.95583">
        <ele>5</ele>
        <time>2022-06-21T10:18:32Z</time>
      </trkpt>
      <trkpt lat="45.9362" lon="-0.95583">
        <ele>5</ele>
        <time>2022-06-21T10:18:33Z</time>
      </trkpt>
      <trkpt lat="45.9362" lon="-0.95583">
        <ele>5</ele>
        <time>2022-06-21T10:18:34Z</time>
      </trkpt>
      <trkpt lat="45.9362" lon="-0.95583">
        <ele>5</ele>
        <time>2022-06-21T10:18:35Z</time>
      </trkpt>
      <trkpt lat="45.93619" lon="-0.95584">
        <ele>5</ele>
        <time>2022-06-21T10:18:36Z</time>
      </trkpt>
      <trkpt lat="45.93616" lon="-0.95587">
        <ele>5</ele>
        <time>2022-06-21T10:18:37Z</time>
      </trkpt>
      <trkpt lat="45.93615" lon="-0.95588">
        <ele>5</ele>
        <time>2022-06-21T10:18:38Z</time>
      </trkpt>
      <trkpt lat="45.93616" lon="-0.95587">
        <ele>5</ele>
        <time>2022-06-21T10:18:40Z</time>
      </trkpt>
      <trkpt lat="45.93617" lon="-0.95586">
        <ele>5</ele>
        <time>2022-06-21T10:18:41Z</time>
      </trkpt>
      <trkpt lat="45.93617" lon="-0.95585">
        <ele>5</ele>
        <time>2022-06-21T10:18:42Z</time>
      </trkpt>
      <trkpt lat="45.93618" lon="-0.95584">
        <ele>5</ele>
        <time>2022-06-21T10:18:43Z</time>
      </trkpt>
      <trkpt lat="45.93619" lon="-0.95583">
        <ele>5</ele>
        <time>2022-06-21T10:18:45Z</time>
      </trkpt>
      <trkpt lat="45.93621" lon="-0.95582">
        <ele>5</ele>
        <time>2022-06-21T10:18:46Z</time>
      </trkpt>
      <trkpt lat="45.93622" lon="-0.95582">
        <ele>5.1</ele>
        <time>2022-06-21T10:18:47Z</time>
      </trkpt>
      <trkpt lat="45.93623" lon="-0.95582">
        <ele>5.1</ele>
        <time>2022-06-21T10:18:48Z</time>
      </trkpt>
      <trkpt lat="45.93624" lon="-0.95582">
        <ele>5.1</ele>
        <time>2022-06-21T10:18:49Z</time>
      </trkpt>
      <trkpt lat="45.93625" lon="-0.95582">
        <ele>5.1</ele>
        <time>2022-06-21T10:18:50Z</time>
      </trkpt>
      <trkpt lat="45.93626" lon="-0.95582">
        <ele>5.1</ele>
        <time>2022-06-21T10:18:51Z</time>
      </trkpt>
      <trkpt lat="45.93627" lon="-0.95582">
        <ele>5.1</ele>
        <time>2022-06-21T10:18:52Z</time>
      </trkpt>
      <trkpt lat="45.93628" lon="-0.95582">
        <ele>5.1</ele>
        <time>2022-06-21T10:18:53Z</time>
      </trkpt>
      <trkpt lat="45.93629" lon="-0.95582">
        <ele>5.1</ele>
        <time>2022-06-21T10:18:54Z</time>
      </trkpt>
      <trkpt lat="45.9363" lon="-0.95582">
        <ele>5.1</ele>
        <time>2022-06-21T10:18:55Z</time>
      </trkpt>
      <trkpt lat="45.93631" lon="-0.95583">
        <ele>5.1</ele>
        <time>2022-06-21T10:18:57Z</time>
      </trkpt>
      <trkpt lat="45.93632" lon="-0.95583">
        <ele>5.1</ele>
        <time>2022-06-21T10:18:58Z</time>
      </trkpt>
      <trkpt lat="45.93631" lon="-0.95584">
        <ele>5.1</ele>
        <time>2022-06-21T10:18:59Z</time>
      </trkpt>
      <trkpt lat="45.93631" lon="-0.95585">
        <ele>5.1</ele>
        <time>2022-06-21T10:19:00Z</time>
      </trkpt>
      <trkpt lat="45.93632" lon="-0.95585">
        <ele>5.1</ele>
        <time>2022-06-21T10:19:01Z</time>
      </trkpt>
      <trkpt lat="45.93633" lon="-0.95586">
        <ele>5.1</ele>
        <time>2022-06-21T10:19:02Z</time>
      </trkpt>
      <trkpt lat="45.93634" lon="-0.95588">
        <ele>5.1</ele>
        <time>2022-06-21T10:19:03Z</time>
      </trkpt>
      <trkpt lat="45.93635" lon="-0.95589">
        <ele>5.2</ele>
        <time>2022-06-21T10:19:05Z</time>
      </trkpt>
      <trkpt lat="45.93636" lon="-0.95591">
        <ele>5.2</ele>
        <time>2022-06-21T10:19:06Z</time>
      </trkpt>
      <trkpt lat="45.93637" lon="-0.95596">
        <ele>5.2</ele>
        <time>2022-06-21T10:19:07Z</time>
      </trkpt>
      <trkpt lat="45.93638" lon="-0.95597">
        <ele>5.2</ele>
        <time>2022-06-21T10:19:08Z</time>
      </trkpt>
      <trkpt lat="45.93638" lon="-0.956">
        <ele>5.2</ele>
        <time>2022-06-21T10:19:10Z</time>
      </trkpt>
      <trkpt lat="45.93638" lon="-0.95602">
        <ele>5.2</ele>
        <time>2022-06-21T10:19:11Z</time>
      </trkpt>
      <trkpt lat="45.93637" lon="-0.95604">
        <ele>5.2</ele>
        <time>2022-06-21T10:19:12Z</time>
      </trkpt>
      <trkpt lat="45.93637" lon="-0.95606">
        <ele>5.2</ele>
        <time>2022-06-21T10:19:13Z</time>
      </trkpt>
      <trkpt lat="45.93637" lon="-0.95607">
        <ele>5.2</ele>
        <time>2022-06-21T10:19:14Z</time>
      </trkpt>
      <trkpt lat="45.93638" lon="-0.9561">
        <ele>5.2</ele>
        <time>2022-06-21T10:19:16Z</time>
      </trkpt>
      <trkpt lat="45.93638" lon="-0.95611">
        <ele>5.2</ele>
        <time>2022-06-21T10:19:17Z</time>
      </trkpt>
      <trkpt lat="45.93638" lon="-0.95612">
        <ele>5.2</ele>
        <time>2022-06-21T10:19:18Z</time>
      </trkpt>
      <trkpt lat="45.93638" lon="-0.95614">
        <ele>5.2</ele>
        <time>2022-06-21T10:19:19Z</time>
      </trkpt>
      <trkpt lat="45.93638" lon="-0.95616">
        <ele>5.2</ele>
        <time>2022-06-21T10:19:20Z</time>
      </trkpt>
      <trkpt lat="45.93638" lon="-0.95617">
        <ele>5.2</ele>
        <time>2022-06-21T10:19:22Z</time>
      </trkpt>
      <trkpt lat="45.93638" lon="-0.95618">
        <ele>5.2</ele>
        <time>2022-06-21T10:19:23Z</time>
      </trkpt>
      <trkpt lat="45.93637" lon="-0.9562">
        <ele>5.2</ele>
        <time>2022-06-21T10:19:25Z</time>
      </trkpt>
      <trkpt lat="45.93637" lon="-0.9562">
        <ele>5.2</ele>
        <time>2022-06-21T10:19:26Z</time>
      </trkpt>
      <trkpt lat="45.93636" lon="-0.95621">
        <ele>5.2</ele>
        <time>2022-06-21T10:19:27Z</time>
      </trkpt>
      <trkpt lat="45.93636" lon="-0.9562">
        <ele>5.2</ele>
        <time>2022-06-21T10:19:28Z</time>
      </trkpt>
      <trkpt lat="45.93636" lon="-0.95619">
        <ele>5.2</ele>
        <time>2022-06-21T10:19:29Z</time>
      </trkpt>
      <trkpt lat="45.93636" lon="-0.95619">
        <ele>5.2</ele>
        <time>2022-06-21T10:19:30Z</time>
      </trkpt>
      <trkpt lat="45.93636" lon="-0.95618">
        <ele>5.2</ele>
        <time>2022-06-21T10:19:31Z</time>
      </trkpt>
      <trkpt lat="45.93635" lon="-0.95617">
        <ele>5.2</ele>
        <time>2022-06-21T10:19:33Z</time>
      </trkpt>
      <trkpt lat="45.93635" lon="-0.95615">
        <ele>5.2</ele>
        <time>2022-06-21T10:19:34Z</time>
      </trkpt>
      <trkpt lat="45.93635" lon="-0.95614">
        <ele>5.2</ele>
        <time>2022-06-21T10:19:35Z</time>
      </trkpt>
      <trkpt lat="45.93634" lon="-0.95613">
        <ele>5.2</ele>
        <time>2022-06-21T10:19:36Z</time>
      </trkpt>
      <trkpt lat="45.93634" lon="-0.95613">
        <ele>5.2</ele>
        <time>2022-06-21T10:19:37Z</time>
      </trkpt>
      <trkpt lat="45.93634" lon="-0.95612">
        <ele>5.2</ele>
        <time>2022-06-21T10:19:38Z</time>
      </trkpt>
      <trkpt lat="45.93634" lon="-0.95614">
        <ele>5.2</ele>
        <time>2022-06-21T10:19:39Z</time>
      </trkpt>
      <trkpt lat="45.93634" lon="-0.95615">
        <ele>5.2</ele>
        <time>2022-06-21T10:19:40Z</time>
      </trkpt>
      <trkpt lat="45.93634" lon="-0.95615">
        <ele>5.2</ele>
        <time>2022-06-21T10:19:41Z</time>
      </trkpt>
      <trkpt lat="45.93634" lon="-0.95615">
        <ele>5.2</ele>
        <time>2022-06-21T10:19:42Z</time>
      </trkpt>
      <trkpt lat="45.93634" lon="-0.95615">
        <ele>5.2</ele>
        <time>2022-06-21T10:19:43Z</time>
      </trkpt>
      <trkpt lat="45.93635" lon="-0.95616">
        <ele>5.2</ele>
        <time>2022-06-21T10:19:44Z</time>
      </trkpt>
      <trkpt lat="45.93635" lon="-0.95616">
        <ele>5.2</ele>
        <time>2022-06-21T10:19:45Z</time>
      </trkpt>
      <trkpt lat="45.93635" lon="-0.95617">
        <ele>5.2</ele>
        <time>2022-06-21T10:19:46Z</time>
      </trkpt>
      <trkpt lat="45.93636" lon="-0.95618">
        <ele>5.2</ele>
        <time>2022-06-21T10:19:47Z</time>
      </trkpt>
      <trkpt lat="45.93638" lon="-0.9562">
        <ele>5.2</ele>
        <time>2022-06-21T10:19:49Z</time>
      </trkpt>
      <trkpt lat="45.93639" lon="-0.9562">
        <ele>5.2</ele>
        <time>2022-06-21T10:19:50Z</time>
      </trkpt>
      <trkpt lat="45.9364" lon="-0.95621">
        <ele>5.2</ele>
        <time>2022-06-21T10:19:51Z</time>
      </trkpt>
      <trkpt lat="45.93641" lon="-0.95621">
        <ele>5.2</ele>
        <time>2022-06-21T10:19:52Z</time>
      </trkpt>
      <trkpt lat="45.93642" lon="-0.95623">
        <ele>5.2</ele>
        <time>2022-06-21T10:19:54Z</time>
      </trkpt>
      <trkpt lat="45.93643" lon="-0.95624">
        <ele>5.2</ele>
        <time>2022-06-21T10:19:56Z</time>
      </trkpt>
      <trkpt lat="45.93644" lon="-0.95625">
        <ele>5.2</ele>
        <time>2022-06-21T10:19:57Z</time>
      </trkpt>
      <trkpt lat="45.93644" lon="-0.95625">
        <ele>5.2</ele>
        <time>2022-06-21T10:19:58Z</time>
      </trkpt>
      <trkpt lat="45.93645" lon="-0.95626">
        <ele>5.2</ele>
        <time>2022-06-21T10:19:59Z</time>
      </trkpt>
      <trkpt lat="45.93645" lon="-0.95627">
        <ele>5.2</ele>
        <time>2022-06-21T10:20:00Z</time>
      </trkpt>
      <trkpt lat="45.93646" lon="-0.95627">
        <ele>5.2</ele>
        <time>2022-06-21T10:20:02Z</time>
      </trkpt>
      <trkpt lat="45.93646" lon="-0.95628">
        <ele>5.2</ele>
        <time>2022-06-21T10:20:03Z</time>
      </trkpt>
      <trkpt lat="45.93645" lon="-0.95627">
        <ele>5.2</ele>
        <time>2022-06-21T10:20:04Z</time>
      </trkpt>
      <trkpt lat="45.93645" lon="-0.95628">
        <ele>5.2</ele>
        <time>2022-06-21T10:20:05Z</time>
      </trkpt>
      <trkpt lat="45.93645" lon="-0.95628">
        <ele>5.2</ele>
        <time>2022-06-21T10:20:06Z</time>
      </trkpt>
      <trkpt lat="45.93645" lon="-0.95628">
        <ele>5.2</ele>
        <time>2022-06-21T10:20:07Z</time>
      </trkpt>
      <trkpt lat="45.93645" lon="-0.95628">
        <ele>5.2</ele>
        <time>2022-06-21T10:20:08Z</time>
      </trkpt>
      <trkpt lat="45.93645" lon="-0.95627">
        <ele>5.2</ele>
        <time>2022-06-21T10:20:09Z</time>
      </trkpt>
      <trkpt lat="45.93645" lon="-0.95627">
        <ele>5.2</ele>
        <time>2022-06-21T10:20:11Z</time>
      </trkpt>
      <trkpt lat="45.93645" lon="-0.95627">
        <ele>5.2</ele>
        <time>2022-06-21T10:20:12Z</time>
      </trkpt>
      <trkpt lat="45.93646" lon="-0.95628">
        <ele>5.2</ele>
        <time>2022-06-21T10:20:14Z</time>
      </trkpt>
      <trkpt lat="45.93646" lon="-0.95628">
        <ele>5.2</ele>
        <time>2022-06-21T10:20:15Z</time>
      </trkpt>
      <trkpt lat="45.93647" lon="-0.95628">
        <ele>5.2</ele>
        <time>2022-06-21T10:20:16Z</time>
      </trkpt>
      <trkpt lat="45.93648" lon="-0.95629">
        <ele>5.2</ele>
        <time>2022-06-21T10:20:17Z</time>
      </trkpt>
      <trkpt lat="45.93649" lon="-0.9563">
        <ele>5.2</ele>
        <time>2022-06-21T10:20:19Z</time>
      </trkpt>
      <trkpt lat="45.93649" lon="-0.95631">
        <ele>5.2</ele>
        <time>2022-06-21T10:20:20Z</time>
      </trkpt>
      <trkpt lat="45.9365" lon="-0.95632">
        <ele>5.2</ele>
        <time>2022-06-21T10:20:21Z</time>
      </trkpt>
      <trkpt lat="45.93651" lon="-0.95632">
        <ele>5.2</ele>
        <time>2022-06-21T10:20:23Z</time>
      </trkpt>
      <trkpt lat="45.93652" lon="-0.95633">
        <ele>5.2</ele>
        <time>2022-06-21T10:20:24Z</time>
      </trkpt>
      <trkpt lat="45.93653" lon="-0.95633">
        <ele>5.4</ele>
        <time>2022-06-21T10:20:26Z</time>
      </trkpt>
      <trkpt lat="45.93653" lon="-0.95634">
        <ele>5.5</ele>
        <time>2022-06-21T10:20:27Z</time>
      </trkpt>
      <trkpt lat="45.93654" lon="-0.95636">
        <ele>5.5</ele>
        <time>2022-06-21T10:20:29Z</time>
      </trkpt>
      <trkpt lat="45.93655" lon="-0.95635">
        <ele>5.5</ele>
        <time>2022-06-21T10:20:31Z</time>
      </trkpt>
      <trkpt lat="45.93655" lon="-0.95633">
        <ele>5.5</ele>
        <time>2022-06-21T10:20:32Z</time>
      </trkpt>
      <trkpt lat="45.93655" lon="-0.95633">
        <ele>5.5</ele>
        <time>2022-06-21T10:20:33Z</time>
      </trkpt>
      <trkpt lat="45.93655" lon="-0.9563">
        <ele>5.5</ele>
        <time>2022-06-21T10:20:35Z</time>
      </trkpt>
      <trkpt lat="45.93655" lon="-0.95629">
        <ele>5.5</ele>
        <time>2022-06-21T10:20:36Z</time>
      </trkpt>
      <trkpt lat="45.93655" lon="-0.95628">
        <ele>5.5</ele>
        <time>2022-06-21T10:20:37Z</time>
      </trkpt>
      <trkpt lat="45.93655" lon="-0.95627">
        <ele>5.5</ele>
        <time>2022-06-21T10:20:38Z</time>
      </trkpt>
      <trkpt lat="45.93654" lon="-0.95628">
        <ele>5.5</ele>
        <time>2022-06-21T10:20:40Z</time>
      </trkpt>
      <trkpt lat="45.93654" lon="-0.95628">
        <ele>5.5</ele>
        <time>2022-06-21T10:20:41Z</time>
      </trkpt>
      <trkpt lat="45.93655" lon="-0.95627">
        <ele>5.5</ele>
        <time>2022-06-21T10:20:43Z</time>
      </trkpt>
      <trkpt lat="45.93654" lon="-0.95626">
        <ele>5.5</ele>
        <time>2022-06-21T10:20:44Z</time>
      </trkpt>
      <trkpt lat="45.93654" lon="-0.95626">
        <ele>5.5</ele>
        <time>2022-06-21T10:20:45Z</time>
      </trkpt>
      <trkpt lat="45.93654" lon="-0.95625">
        <ele>5.5</ele>
        <time>2022-06-21T10:20:46Z</time>
      </trkpt>
      <trkpt lat="45.93654" lon="-0.95625">
        <ele>5.5</ele>
        <time>2022-06-21T10:20:47Z</time>
      </trkpt>
      <trkpt lat="45.93654" lon="-0.95625">
        <ele>5.5</ele>
        <time>2022-06-21T10:20:48Z</time>
      </trkpt>
      <trkpt lat="45.93653" lon="-0.95625">
        <ele>5.5</ele>
        <time>2022-06-21T10:20:50Z</time>
      </trkpt>
      <trkpt lat="45.93652" lon="-0.95625">
        <ele>5.5</ele>
        <time>2022-06-21T10:20:51Z</time>
      </trkpt>
      <trkpt lat="45.93652" lon="-0.95625">
        <ele>5.5</ele>
        <time>2022-06-21T10:20:52Z</time>
      </trkpt>
      <trkpt lat="45.93652" lon="-0.95625">
        <ele>5.5</ele>
        <time>2022-06-21T10:20:53Z</time>
      </trkpt>
      <trkpt lat="45.93652" lon="-0.95625">
        <ele>5.5</ele>
        <time>2022-06-21T10:20:54Z</time>
      </trkpt>
      <trkpt lat="45.93652" lon="-0.95625">
        <ele>5.5</ele>
        <time>2022-06-21T10:20:55Z</time>
      </trkpt>
      <trkpt lat="45.93652" lon="-0.95625">
        <ele>5.5</ele>
        <time>2022-06-21T10:20:56Z</time>
      </trkpt>
      <trkpt lat="45.93652" lon="-0.95624">
        <ele>5.5</ele>
        <time>2022-06-21T10:20:57Z</time>
      </trkpt>
      <trkpt lat="45.93652" lon="-0.95624">
        <ele>5.5</ele>
        <time>2022-06-21T10:20:58Z</time>
      </trkpt>
      <trkpt lat="45.93651" lon="-0.95624">
        <ele>5.5</ele>
        <time>2022-06-21T10:21:00Z</time>
      </trkpt>
      <trkpt lat="45.93651" lon="-0.95624">
        <ele>5.5</ele>
        <time>2022-06-21T10:21:01Z</time>
      </trkpt>
      <trkpt lat="45.93652" lon="-0.95623">
        <ele>5.5</ele>
        <time>2022-06-21T10:21:02Z</time>
      </trkpt>
      <trkpt lat="45.93652" lon="-0.95623">
        <ele>5.5</ele>
        <time>2022-06-21T10:21:03Z</time>
      </trkpt>
      <trkpt lat="45.93652" lon="-0.95623">
        <ele>5.5</ele>
        <time>2022-06-21T10:21:04Z</time>
      </trkpt>
      <trkpt lat="45.93652" lon="-0.95623">
        <ele>5.5</ele>
        <time>2022-06-21T10:21:05Z</time>
      </trkpt>
      <trkpt lat="45.93652" lon="-0.95623">
        <ele>5.5</ele>
        <time>2022-06-21T10:21:06Z</time>
      </trkpt>
      <trkpt lat="45.93652" lon="-0.95623">
        <ele>5.5</ele>
        <time>2022-06-21T10:21:07Z</time>
      </trkpt>
      <trkpt lat="45.93652" lon="-0.95623">
        <ele>5.5</ele>
        <time>2022-06-21T10:21:08Z</time>
      </trkpt>
      <trkpt lat="45.93652" lon="-0.95623">
        <ele>5.5</ele>
        <time>2022-06-21T10:21:09Z</time>
      </trkpt>
      <trkpt lat="45.93652" lon="-0.95623">
        <ele>5.5</ele>
        <time>2022-06-21T10:21:10Z</time>
      </trkpt>
      <trkpt lat="45.93652" lon="-0.95623">
        <ele>5.5</ele>
        <time>2022-06-21T10:21:11Z</time>
      </trkpt>
      <trkpt lat="45.93652" lon="-0.95623">
        <ele>5.5</ele>
        <time>2022-06-21T10:21:12Z</time>
      </trkpt>
      <trkpt lat="45.93652" lon="-0.95623">
        <ele>5.5</ele>
        <time>2022-06-21T10:21:13Z</time>
      </trkpt>
      <trkpt lat="45.93652" lon="-0.95623">
        <ele>5.5</ele>
        <time>2022-06-21T10:21:14Z</time>
      </trkpt>
      <trkpt lat="45.93652" lon="-0.95623">
        <ele>5.5</ele>
        <time>2022-06-21T10:21:15Z</time>
      </trkpt>
      <trkpt lat="45.93652" lon="-0.95623">
        <ele>5.5</ele>
        <time>2022-06-21T10:21:16Z</time>
      </trkpt>
      <trkpt lat="45.93652" lon="-0.95623">
        <ele>5.5</ele>
        <time>2022-06-21T10:21:17Z</time>
      </trkpt>
      <trkpt lat="45.93652" lon="-0.95623">
        <ele>5.5</ele>
        <time>2022-06-21T10:21:18Z</time>
      </trkpt>
      <trkpt lat="45.93652" lon="-0.95623">
        <ele>5.5</ele>
        <time>2022-06-21T10:21:19Z</time>
      </trkpt>
      <trkpt lat="45.93652" lon="-0.95623">
        <ele>5.5</ele>
        <time>2022-06-21T10:21:20Z</time>
      </trkpt>
      <trkpt lat="45.93652" lon="-0.95623">
        <ele>5.5</ele>
        <time>2022-06-21T10:21:21Z</time>
      </trkpt>
      <trkpt lat="45.93652" lon="-0.95623">
        <ele>5.5</ele>
        <time>2022-06-21T10:21:22Z</time>
      </trkpt>
      <trkpt lat="45.93652" lon="-0.95623">
        <ele>5.5</ele>
        <time>2022-06-21T10:21:23Z</time>
      </trkpt>
      <trkpt lat="45.93652" lon="-0.95624">
        <ele>5.5</ele>
        <time>2022-06-21T10:21:24Z</time>
      </trkpt>
      <trkpt lat="45.9365" lon="-0.95627">
        <ele>5.5</ele>
        <time>2022-06-21T10:21:25Z</time>
      </trkpt>
      <trkpt lat="45.93651" lon="-0.95626">
        <ele>5.5</ele>
        <time>2022-06-21T10:21:26Z</time>
      </trkpt>
      <trkpt lat="45.93651" lon="-0.95625">
        <ele>5.5</ele>
        <time>2022-06-21T10:21:27Z</time>
      </trkpt>
      <trkpt lat="45.93651" lon="-0.95624">
        <ele>5.5</ele>
        <time>2022-06-21T10:21:28Z</time>
      </trkpt>
      <trkpt lat="45.93651" lon="-0.95623">
        <ele>5.5</ele>
        <time>2022-06-21T10:21:29Z</time>
      </trkpt>
      <trkpt lat="45.93649" lon="-0.95627">
        <ele>5.5</ele>
        <time>2022-06-21T10:21:30Z</time>
      </trkpt>
      <trkpt lat="45.93649" lon="-0.95628">
        <ele>5.5</ele>
        <time>2022-06-21T10:21:31Z</time>
      </trkpt>
      <trkpt lat="45.9365" lon="-0.95628">
        <ele>5.5</ele>
        <time>2022-06-21T10:21:33Z</time>
      </trkpt>
      <trkpt lat="45.93651" lon="-0.95627">
        <ele>5.5</ele>
        <time>2022-06-21T10:21:34Z</time>
      </trkpt>
      <trkpt lat="45.93651" lon="-0.95628">
        <ele>5.5</ele>
        <time>2022-06-21T10:21:35Z</time>
      </trkpt>
      <trkpt lat="45.93652" lon="-0.95628">
        <ele>5.5</ele>
        <time>2022-06-21T10:21:36Z</time>
      </trkpt>
      <trkpt lat="45.93652" lon="-0.95627">
        <ele>5.5</ele>
        <time>2022-06-21T10:21:37Z</time>
      </trkpt>
      <trkpt lat="45.93653" lon="-0.95626">
        <ele>5.5</ele>
        <time>2022-06-21T10:21:38Z</time>
      </trkpt>
      <trkpt lat="45.93653" lon="-0.95627">
        <ele>5.5</ele>
        <time>2022-06-21T10:21:39Z</time>
      </trkpt>
      <trkpt lat="45.93653" lon="-0.95627">
        <ele>5.5</ele>
        <time>2022-06-21T10:21:40Z</time>
      </trkpt>
      <trkpt lat="45.93653" lon="-0.95626">
        <ele>5.5</ele>
        <time>2022-06-21T10:21:41Z</time>
      </trkpt>
      <trkpt lat="45.93653" lon="-0.95626">
        <ele>5.5</ele>
        <time>2022-06-21T10:21:42Z</time>
      </trkpt>
      <trkpt lat="45.93653" lon="-0.95626">
        <ele>5.5</ele>
        <time>2022-06-21T10:21:43Z</time>
      </trkpt>
      <trkpt lat="45.93653" lon="-0.95626">
        <ele>5.5</ele>
        <time>2022-06-21T10:21:44Z</time>
      </trkpt>
      <trkpt lat="45.93654" lon="-0.95626">
        <ele>5.5</ele>
        <time>2022-06-21T10:21:45Z</time>
      </trkpt>
      <trkpt lat="45.93654" lon="-0.95625">
        <ele>5.5</ele>
        <time>2022-06-21T10:21:46Z</time>
      </trkpt>
      <trkpt lat="45.93654" lon="-0.95625">
        <ele>5.5</ele>
        <time>2022-06-21T10:21:47Z</time>
      </trkpt>
      <trkpt lat="45.93654" lon="-0.95624">
        <ele>5.5</ele>
        <time>2022-06-21T10:21:48Z</time>
      </trkpt>
      <trkpt lat="45.93654" lon="-0.95624">
        <ele>5.5</ele>
        <time>2022-06-21T10:21:49Z</time>
      </trkpt>
      <trkpt lat="45.93654" lon="-0.95624">
        <ele>5.5</ele>
        <time>2022-06-21T10:21:50Z</time>
      </trkpt>
      <trkpt lat="45.93654" lon="-0.95624">
        <ele>5.5</ele>
        <time>2022-06-21T10:21:51Z</time>
      </trkpt>
      <trkpt lat="45.93654" lon="-0.95623">
        <ele>5.5</ele>
        <time>2022-06-21T10:21:52Z</time>
      </trkpt>
      <trkpt lat="45.93654" lon="-0.95623">
        <ele>5.5</ele>
        <time>2022-06-21T10:21:53Z</time>
      </trkpt>
      <trkpt lat="45.93654" lon="-0.95623">
        <ele>5.5</ele>
        <time>2022-06-21T10:21:54Z</time>
      </trkpt>
      <trkpt lat="45.93654" lon="-0.95623">
        <ele>5.5</ele>
        <time>2022-06-21T10:21:55Z</time>
      </trkpt>
      <trkpt lat="45.93654" lon="-0.95623">
        <ele>5.5</ele>
        <time>2022-06-21T10:21:56Z</time>
      </trkpt>
      <trkpt lat="45.93654" lon="-0.95623">
        <ele>5.5</ele>
        <time>2022-06-21T10:21:57Z</time>
      </trkpt>
      <trkpt lat="45.93654" lon="-0.95623">
        <ele>5.5</ele>
        <time>2022-06-21T10:21:58Z</time>
      </trkpt>
      <trkpt lat="45.93654" lon="-0.95623">
        <ele>5.5</ele>
        <time>2022-06-21T10:21:59Z</time>
      </trkpt>
      <trkpt lat="45.93654" lon="-0.95623">
        <ele>5.5</ele>
        <time>2022-06-21T10:22:00Z</time>
      </trkpt>
      <trkpt lat="45.93654" lon="-0.95623">
        <ele>5.5</ele>
        <time>2022-06-21T10:22:01Z</time>
      </trkpt>
      <trkpt lat="45.93654" lon="-0.95623">
        <ele>5.5</ele>
        <time>2022-06-21T10:22:02Z</time>
      </trkpt>
      <trkpt lat="45.93654" lon="-0.95623">
        <ele>5.5</ele>
        <time>2022-06-21T10:22:03Z</time>
      </trkpt>
      <trkpt lat="45.93654" lon="-0.95623">
        <ele>5.5</ele>
        <time>2022-06-21T10:22:04Z</time>
      </trkpt>
      <trkpt lat="45.93654" lon="-0.95623">
        <ele>5.5</ele>
        <time>2022-06-21T10:22:05Z</time>
      </trkpt>
      <trkpt lat="45.93654" lon="-0.95623">
        <ele>5.5</ele>
        <time>2022-06-21T10:22:06Z</time>
      </trkpt>
      <trkpt lat="45.93654" lon="-0.95623">
        <ele>5.5</ele>
        <time>2022-06-21T10:22:07Z</time>
      </trkpt>
      <trkpt lat="45.93654" lon="-0.95623">
        <ele>5.5</ele>
        <time>2022-06-21T10:22:08Z</time>
      </trkpt>
      <trkpt lat="45.93654" lon="-0.95623">
        <ele>5.5</ele>
        <time>2022-06-21T10:22:09Z</time>
      </trkpt>
      <trkpt lat="45.93654" lon="-0.95623">
        <ele>5.5</ele>
        <time>2022-06-21T10:22:10Z</time>
      </trkpt>
      <trkpt lat="45.93654" lon="-0.95623">
        <ele>5.5</ele>
        <time>2022-06-21T10:22:11Z</time>
      </trkpt>
      <trkpt lat="45.93654" lon="-0.95623">
        <ele>5.5</ele>
        <time>2022-06-21T10:22:12Z</time>
      </trkpt>
      <trkpt lat="45.93654" lon="-0.95623">
        <ele>5.5</ele>
        <time>2022-06-21T10:22:13Z</time>
      </trkpt>
      <trkpt lat="45.93654" lon="-0.95623">
        <ele>5.5</ele>
        <time>2022-06-21T10:22:14Z</time>
      </trkpt>
      <trkpt lat="45.93654" lon="-0.95623">
        <ele>5.5</ele>
        <time>2022-06-21T10:22:15Z</time>
      </trkpt>
      <trkpt lat="45.93654" lon="-0.95623">
        <ele>5.5</ele>
        <time>2022-06-21T10:22:16Z</time>
      </trkpt>
      <trkpt lat="45.93654" lon="-0.95623">
        <ele>5.5</ele>
        <time>2022-06-21T10:22:17Z</time>
      </trkpt>
      <trkpt lat="45.93654" lon="-0.95623">
        <ele>5.5</ele>
        <time>2022-06-21T10:22:18Z</time>
      </trkpt>
      <trkpt lat="45.93654" lon="-0.95623">
        <ele>5.5</ele>
        <time>2022-06-21T10:22:19Z</time>
      </trkpt>
      <trkpt lat="45.93654" lon="-0.95623">
        <ele>5.5</ele>
        <time>2022-06-21T10:22:20Z</time>
      </trkpt>
      <trkpt lat="45.93654" lon="-0.95623">
        <ele>5.5</ele>
        <time>2022-06-21T10:22:21Z</time>
      </trkpt>
      <trkpt lat="45.93654" lon="-0.95623">
        <ele>5.5</ele>
        <time>2022-06-21T10:22:22Z</time>
      </trkpt>
      <trkpt lat="45.93654" lon="-0.95623">
        <ele>5.5</ele>
        <time>2022-06-21T10:22:23Z</time>
      </trkpt>
      <trkpt lat="45.93654" lon="-0.95623">
        <ele>5.5</ele>
        <time>2022-06-21T10:22:24Z</time>
      </trkpt>
      <trkpt lat="45.93654" lon="-0.95623">
        <ele>5.5</ele>
        <time>2022-06-21T10:22:25Z</time>
      </trkpt>
      <trkpt lat="45.93654" lon="-0.95623">
        <ele>5.5</ele>
        <time>2022-06-21T10:22:26Z</time>
      </trkpt>
      <trkpt lat="45.93654" lon="-0.95623">
        <ele>5.5</ele>
        <time>2022-06-21T10:22:27Z</time>
      </trkpt>
      <trkpt lat="45.93654" lon="-0.95623">
        <ele>5.5</ele>
        <time>2022-06-21T10:22:28Z</time>
      </trkpt>
      <trkpt lat="45.93654" lon="-0.95623">
        <ele>5.5</ele>
        <time>2022-06-21T10:22:29Z</time>
      </trkpt>
      <trkpt lat="45.93654" lon="-0.95623">
        <ele>5.5</ele>
        <time>2022-06-21T10:22:30Z</time>
      </trkpt>
      <trkpt lat="45.93654" lon="-0.95623">
        <ele>5.5</ele>
        <time>2022-06-21T10:22:31Z</time>
      </trkpt>
      <trkpt lat="45.93654" lon="-0.95623">
        <ele>5.5</ele>
        <time>2022-06-21T10:22:32Z</time>
      </trkpt>
      <trkpt lat="45.93654" lon="-0.95623">
        <ele>5.5</ele>
        <time>2022-06-21T10:22:33Z</time>
      </trkpt>
      <trkpt lat="45.93654" lon="-0.95623">
        <ele>5.5</ele>
        <time>2022-06-21T10:22:34Z</time>
      </trkpt>
      <trkpt lat="45.93654" lon="-0.95623">
        <ele>5.5</ele>
        <time>2022-06-21T10:22:35Z</time>
      </trkpt>
      <trkpt lat="45.93654" lon="-0.95623">
        <ele>5.5</ele>
        <time>2022-06-21T10:22:36Z</time>
      </trkpt>
      <trkpt lat="45.93654" lon="-0.95623">
        <ele>5.5</ele>
        <time>2022-06-21T10:22:37Z</time>
      </trkpt>
      <trkpt lat="45.93654" lon="-0.95623">
        <ele>5.5</ele>
        <time>2022-06-21T10:22:38Z</time>
      </trkpt>
      <trkpt lat="45.93654" lon="-0.95623">
        <ele>5.5</ele>
        <time>2022-06-21T10:22:39Z</time>
      </trkpt>
      <trkpt lat="45.93654" lon="-0.95623">
        <ele>5.5</ele>
        <time>2022-06-21T10:22:40Z</time>
      </trkpt>
      <trkpt lat="45.93654" lon="-0.95623">
        <ele>5.5</ele>
        <time>2022-06-21T10:22:41Z</time>
      </trkpt>
      <trkpt lat="45.93654" lon="-0.95623">
        <ele>5.5</ele>
        <time>2022-06-21T10:22:42Z</time>
      </trkpt>
      <trkpt lat="45.93654" lon="-0.95623">
        <ele>5.5</ele>
        <time>2022-06-21T10:22:43Z</time>
      </trkpt>
      <trkpt lat="45.93654" lon="-0.95623">
        <ele>5.5</ele>
        <time>2022-06-21T10:22:44Z</time>
      </trkpt>
      <trkpt lat="45.93654" lon="-0.95623">
        <ele>5.5</ele>
        <time>2022-06-21T10:22:45Z</time>
      </trkpt>
      <trkpt lat="45.93655" lon="-0.95623">
        <ele>5.5</ele>
        <time>2022-06-21T10:22:46Z</time>
      </trkpt>
      <trkpt lat="45.93656" lon="-0.95624">
        <ele>5.5</ele>
        <time>2022-06-21T10:22:47Z</time>
      </trkpt>
      <trkpt lat="45.93656" lon="-0.95623">
        <ele>5.5</ele>
        <time>2022-06-21T10:22:48Z</time>
      </trkpt>
      <trkpt lat="45.93657" lon="-0.95623">
        <ele>5.5</ele>
        <time>2022-06-21T10:22:49Z</time>
      </trkpt>
      <trkpt lat="45.93658" lon="-0.95622">
        <ele>5.5</ele>
        <time>2022-06-21T10:22:50Z</time>
      </trkpt>
      <trkpt lat="45.93658" lon="-0.95621">
        <ele>5.5</ele>
        <time>2022-06-21T10:22:51Z</time>
      </trkpt>
      <trkpt lat="45.93656" lon="-0.95621">
        <ele>5.5</ele>
        <time>2022-06-21T10:22:53Z</time>
      </trkpt>
      <trkpt lat="45.93657" lon="-0.95622">
        <ele>5.5</ele>
        <time>2022-06-21T10:22:54Z</time>
      </trkpt>
      <trkpt lat="45.93657" lon="-0.95622">
        <ele>5.5</ele>
        <time>2022-06-21T10:22:55Z</time>
      </trkpt>
      <trkpt lat="45.93659" lon="-0.95623">
        <ele>5.5</ele>
        <time>2022-06-21T10:22:56Z</time>
      </trkpt>
      <trkpt lat="45.93659" lon="-0.95623">
        <ele>5.5</ele>
        <time>2022-06-21T10:22:57Z</time>
      </trkpt>
      <trkpt lat="45.93658" lon="-0.95622">
        <ele>5.5</ele>
        <time>2022-06-21T10:22:58Z</time>
      </trkpt>
      <trkpt lat="45.93658" lon="-0.95622">
        <ele>5.5</ele>
        <time>2022-06-21T10:22:59Z</time>
      </trkpt>
      <trkpt lat="45.93658" lon="-0.95622">
        <ele>5.5</ele>
        <time>2022-06-21T10:23:00Z</time>
      </trkpt>
      <trkpt lat="45.93658" lon="-0.95623">
        <ele>5.5</ele>
        <time>2022-06-21T10:23:01Z</time>
      </trkpt>
      <trkpt lat="45.93659" lon="-0.95623">
        <ele>5.5</ele>
        <time>2022-06-21T10:23:02Z</time>
      </trkpt>
      <trkpt lat="45.9366" lon="-0.95623">
        <ele>5.5</ele>
        <time>2022-06-21T10:23:04Z</time>
      </trkpt>
      <trkpt lat="45.9366" lon="-0.95624">
        <ele>5.5</ele>
        <time>2022-06-21T10:23:05Z</time>
      </trkpt>
      <trkpt lat="45.93659" lon="-0.95625">
        <ele>5.5</ele>
        <time>2022-06-21T10:23:06Z</time>
      </trkpt>
      <trkpt lat="45.93659" lon="-0.95625">
        <ele>5.5</ele>
        <time>2022-06-21T10:23:07Z</time>
      </trkpt>
      <trkpt lat="45.93659" lon="-0.95625">
        <ele>5.5</ele>
        <time>2022-06-21T10:23:08Z</time>
      </trkpt>
      <trkpt lat="45.93659" lon="-0.95625">
        <ele>5.5</ele>
        <time>2022-06-21T10:23:09Z</time>
      </trkpt>
      <trkpt lat="45.9366" lon="-0.95626">
        <ele>5.5</ele>
        <time>2022-06-21T10:23:10Z</time>
      </trkpt>
      <trkpt lat="45.93662" lon="-0.95624">
        <ele>5.9</ele>
        <time>2022-06-21T10:23:11Z</time>
      </trkpt>
      <trkpt lat="45.93662" lon="-0.95624">
        <ele>5.9</ele>
        <time>2022-06-21T10:23:12Z</time>
      </trkpt>
      <trkpt lat="45.93663" lon="-0.95624">
        <ele>5.9</ele>
        <time>2022-06-21T10:23:13Z</time>
      </trkpt>
      <trkpt lat="45.93663" lon="-0.95624">
        <ele>5.9</ele>
        <time>2022-06-21T10:23:14Z</time>
      </trkpt>
      <trkpt lat="45.93665" lon="-0.95624">
        <ele>5.9</ele>
        <time>2022-06-21T10:23:16Z</time>
      </trkpt>
      <trkpt lat="45.93667" lon="-0.95625">
        <ele>5.9</ele>
        <time>2022-06-21T10:23:18Z</time>
      </trkpt>
      <trkpt lat="45.93668" lon="-0.95625">
        <ele>5.9</ele>
        <time>2022-06-21T10:23:19Z</time>
      </trkpt>
      <trkpt lat="45.93668" lon="-0.95625">
        <ele>5.9</ele>
        <time>2022-06-21T10:23:20Z</time>
      </trkpt>
      <trkpt lat="45.93668" lon="-0.95626">
        <ele>5.8</ele>
        <time>2022-06-21T10:23:21Z</time>
      </trkpt>
      <trkpt lat="45.93669" lon="-0.95627">
        <ele>5.8</ele>
        <time>2022-06-21T10:23:23Z</time>
      </trkpt>
      <trkpt lat="45.93669" lon="-0.95629">
        <ele>5.8</ele>
        <time>2022-06-21T10:23:24Z</time>
      </trkpt>
      <trkpt lat="45.93669" lon="-0.9563">
        <ele>5.8</ele>
        <time>2022-06-21T10:23:26Z</time>
      </trkpt>
      <trkpt lat="45.93667" lon="-0.95631">
        <ele>5.8</ele>
        <time>2022-06-21T10:23:27Z</time>
      </trkpt>
      <trkpt lat="45.93668" lon="-0.95632">
        <ele>5.8</ele>
        <time>2022-06-21T10:23:29Z</time>
      </trkpt>
      <trkpt lat="45.9367" lon="-0.95632">
        <ele>5.7</ele>
        <time>2022-06-21T10:23:31Z</time>
      </trkpt>
      <trkpt lat="45.93671" lon="-0.95631">
        <ele>5.7</ele>
        <time>2022-06-21T10:23:32Z</time>
      </trkpt>
      <trkpt lat="45.93671" lon="-0.95631">
        <ele>5.7</ele>
        <time>2022-06-21T10:23:33Z</time>
      </trkpt>
      <trkpt lat="45.9367" lon="-0.9563">
        <ele>5.7</ele>
        <time>2022-06-21T10:23:34Z</time>
      </trkpt>
      <trkpt lat="45.9367" lon="-0.95629">
        <ele>5.7</ele>
        <time>2022-06-21T10:23:36Z</time>
      </trkpt>
      <trkpt lat="45.9367" lon="-0.95628">
        <ele>5.7</ele>
        <time>2022-06-21T10:23:37Z</time>
      </trkpt>
      <trkpt lat="45.9367" lon="-0.95627">
        <ele>5.7</ele>
        <time>2022-06-21T10:23:38Z</time>
      </trkpt>
      <trkpt lat="45.9367" lon="-0.95627">
        <ele>5.7</ele>
        <time>2022-06-21T10:23:40Z</time>
      </trkpt>
      <trkpt lat="45.9367" lon="-0.95627">
        <ele>5.7</ele>
        <time>2022-06-21T10:23:41Z</time>
      </trkpt>
      <trkpt lat="45.93671" lon="-0.95628">
        <ele>5.6</ele>
        <time>2022-06-21T10:23:42Z</time>
      </trkpt>
      <trkpt lat="45.93671" lon="-0.95627">
        <ele>5.6</ele>
        <time>2022-06-21T10:23:43Z</time>
      </trkpt>
      <trkpt lat="45.93671" lon="-0.95626">
        <ele>5.6</ele>
        <time>2022-06-21T10:23:44Z</time>
      </trkpt>
      <trkpt lat="45.93672" lon="-0.95626">
        <ele>5.6</ele>
        <time>2022-06-21T10:23:45Z</time>
      </trkpt>
      <trkpt lat="45.93673" lon="-0.95625">
        <ele>5.6</ele>
        <time>2022-06-21T10:23:46Z</time>
      </trkpt>
      <trkpt lat="45.93673" lon="-0.95624">
        <ele>5.6</ele>
        <time>2022-06-21T10:23:47Z</time>
      </trkpt>
      <trkpt lat="45.93673" lon="-0.95624">
        <ele>5.6</ele>
        <time>2022-06-21T10:23:48Z</time>
      </trkpt>
      <trkpt lat="45.93674" lon="-0.95623">
        <ele>5.6</ele>
        <time>2022-06-21T10:23:49Z</time>
      </trkpt>
      <trkpt lat="45.93675" lon="-0.95623">
        <ele>5.6</ele>
        <time>2022-06-21T10:23:50Z</time>
      </trkpt>
      <trkpt lat="45.93675" lon="-0.95622">
        <ele>5.6</ele>
        <time>2022-06-21T10:23:51Z</time>
      </trkpt>
      <trkpt lat="45.93675" lon="-0.95621">
        <ele>5.5</ele>
        <time>2022-06-21T10:23:52Z</time>
      </trkpt>
      <trkpt lat="45.93675" lon="-0.9562">
        <ele>5.5</ele>
        <time>2022-06-21T10:23:53Z</time>
      </trkpt>
      <trkpt lat="45.93675" lon="-0.9562">
        <ele>5.5</ele>
        <time>2022-06-21T10:23:54Z</time>
      </trkpt>
      <trkpt lat="45.93676" lon="-0.95619">
        <ele>5.5</ele>
        <time>2022-06-21T10:23:55Z</time>
      </trkpt>
      <trkpt lat="45.93677" lon="-0.95618">
        <ele>5.5</ele>
        <time>2022-06-21T10:23:56Z</time>
      </trkpt>
      <trkpt lat="45.93675" lon="-0.95618">
        <ele>5.5</ele>
        <time>2022-06-21T10:23:57Z</time>
      </trkpt>
      <trkpt lat="45.93676" lon="-0.95617">
        <ele>5.5</ele>
        <time>2022-06-21T10:23:59Z</time>
      </trkpt>
      <trkpt lat="45.93677" lon="-0.95616">
        <ele>5.4</ele>
        <time>2022-06-21T10:24:00Z</time>
      </trkpt>
      <trkpt lat="45.93678" lon="-0.95614">
        <ele>5.4</ele>
        <time>2022-06-21T10:24:01Z</time>
      </trkpt>
      <trkpt lat="45.93678" lon="-0.95613">
        <ele>5.4</ele>
        <time>2022-06-21T10:24:02Z</time>
      </trkpt>
      <trkpt lat="45.93678" lon="-0.95613">
        <ele>5.4</ele>
        <time>2022-06-21T10:24:03Z</time>
      </trkpt>
      <trkpt lat="45.93679" lon="-0.95612">
        <ele>5.4</ele>
        <time>2022-06-21T10:24:04Z</time>
      </trkpt>
      <trkpt lat="45.9368" lon="-0.95609">
        <ele>5.4</ele>
        <time>2022-06-21T10:24:05Z</time>
      </trkpt>
      <trkpt lat="45.93681" lon="-0.95607">
        <ele>5.3</ele>
        <time>2022-06-21T10:24:06Z</time>
      </trkpt>
      <trkpt lat="45.93682" lon="-0.95605">
        <ele>5.3</ele>
        <time>2022-06-21T10:24:07Z</time>
      </trkpt>
      <trkpt lat="45.93683" lon="-0.95604">
        <ele>5.3</ele>
        <time>2022-06-21T10:24:08Z</time>
      </trkpt>
      <trkpt lat="45.93683" lon="-0.95603">
        <ele>5.3</ele>
        <time>2022-06-21T10:24:09Z</time>
      </trkpt>
      <trkpt lat="45.93684" lon="-0.95602">
        <ele>5.3</ele>
        <time>2022-06-21T10:24:10Z</time>
      </trkpt>
      <trkpt lat="45.93685" lon="-0.95601">
        <ele>5.3</ele>
        <time>2022-06-21T10:24:11Z</time>
      </trkpt>
      <trkpt lat="45.93685" lon="-0.95601">
        <ele>5.3</ele>
        <time>2022-06-21T10:24:13Z</time>
      </trkpt>
      <trkpt lat="45.93685" lon="-0.956">
        <ele>5.2</ele>
        <time>2022-06-21T10:24:14Z</time>
      </trkpt>
      <trkpt lat="45.93686" lon="-0.956">
        <ele>5.2</ele>
        <time>2022-06-21T10:24:15Z</time>
      </trkpt>
      <trkpt lat="45.93686" lon="-0.956">
        <ele>5.2</ele>
        <time>2022-06-21T10:24:16Z</time>
      </trkpt>
      <trkpt lat="45.93686" lon="-0.95599">
        <ele>5.2</ele>
        <time>2022-06-21T10:24:17Z</time>
      </trkpt>
      <trkpt lat="45.93686" lon="-0.95599">
        <ele>5.2</ele>
        <time>2022-06-21T10:24:18Z</time>
      </trkpt>
      <trkpt lat="45.93686" lon="-0.95598">
        <ele>5.2</ele>
        <time>2022-06-21T10:24:19Z</time>
      </trkpt>
      <trkpt lat="45.93687" lon="-0.95598">
        <ele>5.2</ele>
        <time>2022-06-21T10:24:20Z</time>
      </trkpt>
      <trkpt lat="45.93687" lon="-0.95598">
        <ele>5.2</ele>
        <time>2022-06-21T10:24:21Z</time>
      </trkpt>
      <trkpt lat="45.93687" lon="-0.95597">
        <ele>5.2</ele>
        <time>2022-06-21T10:24:22Z</time>
      </trkpt>
      <trkpt lat="45.93687" lon="-0.95597">
        <ele>5.2</ele>
        <time>2022-06-21T10:24:23Z</time>
      </trkpt>
      <trkpt lat="45.93687" lon="-0.95597">
        <ele>5.2</ele>
        <time>2022-06-21T10:24:24Z</time>
      </trkpt>
      <trkpt lat="45.93688" lon="-0.95596">
        <ele>5.2</ele>
        <time>2022-06-21T10:24:26Z</time>
      </trkpt>
      <trkpt lat="45.93688" lon="-0.95596">
        <ele>5.2</ele>
        <time>2022-06-21T10:24:27Z</time>
      </trkpt>
      <trkpt lat="45.9369" lon="-0.95593">
        <ele>5.2</ele>
        <time>2022-06-21T10:24:28Z</time>
      </trkpt>
      <trkpt lat="45.93691" lon="-0.95591">
        <ele>5.1</ele>
        <time>2022-06-21T10:24:30Z</time>
      </trkpt>
      <trkpt lat="45.93692" lon="-0.9559">
        <ele>5.1</ele>
        <time>2022-06-21T10:24:31Z</time>
      </trkpt>
      <trkpt lat="45.93693" lon="-0.95588">
        <ele>5.1</ele>
        <time>2022-06-21T10:24:32Z</time>
      </trkpt>
      <trkpt lat="45.93695" lon="-0.95586">
        <ele>5.1</ele>
        <time>2022-06-21T10:24:33Z</time>
      </trkpt>
      <trkpt lat="45.93695" lon="-0.95585">
        <ele>5.1</ele>
        <time>2022-06-21T10:24:35Z</time>
      </trkpt>
      <trkpt lat="45.93696" lon="-0.95584">
        <ele>5.1</ele>
        <time>2022-06-21T10:24:36Z</time>
      </trkpt>
      <trkpt lat="45.93697" lon="-0.95582">
        <ele>5</ele>
        <time>2022-06-21T10:24:37Z</time>
      </trkpt>
      <trkpt lat="45.93698" lon="-0.95582">
        <ele>5</ele>
        <time>2022-06-21T10:24:38Z</time>
      </trkpt>
      <trkpt lat="45.93699" lon="-0.95581">
        <ele>5</ele>
        <time>2022-06-21T10:24:39Z</time>
      </trkpt>
      <trkpt lat="45.937" lon="-0.95579">
        <ele>5</ele>
        <time>2022-06-21T10:24:40Z</time>
      </trkpt>
      <trkpt lat="45.93701" lon="-0.95578">
        <ele>5</ele>
        <time>2022-06-21T10:24:41Z</time>
      </trkpt>
      <trkpt lat="45.93702" lon="-0.95576">
        <ele>5</ele>
        <time>2022-06-21T10:24:42Z</time>
      </trkpt>
      <trkpt lat="45.93702" lon="-0.95576">
        <ele>5</ele>
        <time>2022-06-21T10:24:43Z</time>
      </trkpt>
      <trkpt lat="45.93703" lon="-0.95575">
        <ele>5</ele>
        <time>2022-06-21T10:24:45Z</time>
      </trkpt>
      <trkpt lat="45.93704" lon="-0.95574">
        <ele>4.9</ele>
        <time>2022-06-21T10:24:46Z</time>
      </trkpt>
      <trkpt lat="45.93706" lon="-0.95572">
        <ele>4.9</ele>
        <time>2022-06-21T10:24:47Z</time>
      </trkpt>
      <trkpt lat="45.93706" lon="-0.95571">
        <ele>4.9</ele>
        <time>2022-06-21T10:24:48Z</time>
      </trkpt>
      <trkpt lat="45.93707" lon="-0.9557">
        <ele>4.9</ele>
        <time>2022-06-21T10:24:50Z</time>
      </trkpt>
      <trkpt lat="45.93709" lon="-0.95569">
        <ele>4.9</ele>
        <time>2022-06-21T10:24:51Z</time>
      </trkpt>
      <trkpt lat="45.9371" lon="-0.95568">
        <ele>4.9</ele>
        <time>2022-06-21T10:24:52Z</time>
      </trkpt>
      <trkpt lat="45.93711" lon="-0.95568">
        <ele>4.9</ele>
        <time>2022-06-21T10:24:53Z</time>
      </trkpt>
      <trkpt lat="45.93712" lon="-0.95568">
        <ele>4.9</ele>
        <time>2022-06-21T10:24:55Z</time>
      </trkpt>
      <trkpt lat="45.93713" lon="-0.95567">
        <ele>4.8</ele>
        <time>2022-06-21T10:24:56Z</time>
      </trkpt>
      <trkpt lat="45.93713" lon="-0.95567">
        <ele>4.8</ele>
        <time>2022-06-21T10:24:57Z</time>
      </trkpt>
      <trkpt lat="45.93716" lon="-0.95565">
        <ele>4.8</ele>
        <time>2022-06-21T10:24:58Z</time>
      </trkpt>
      <trkpt lat="45.93717" lon="-0.95565">
        <ele>4.8</ele>
        <time>2022-06-21T10:25:00Z</time>
      </trkpt>
      <trkpt lat="45.93718" lon="-0.95566">
        <ele>4.8</ele>
        <time>2022-06-21T10:25:01Z</time>
      </trkpt>
      <trkpt lat="45.93719" lon="-0.95566">
        <ele>4.8</ele>
        <time>2022-06-21T10:25:02Z</time>
      </trkpt>
      <trkpt lat="45.9372" lon="-0.95566">
        <ele>4.8</ele>
        <time>2022-06-21T10:25:03Z</time>
      </trkpt>
      <trkpt lat="45.93722" lon="-0.95567">
        <ele>4.7</ele>
        <time>2022-06-21T10:25:04Z</time>
      </trkpt>
      <trkpt lat="45.93723" lon="-0.95568">
        <ele>4.7</ele>
        <time>2022-06-21T10:25:06Z</time>
      </trkpt>
      <trkpt lat="45.93723" lon="-0.95569">
        <ele>4.7</ele>
        <time>2022-06-21T10:25:07Z</time>
      </trkpt>
      <trkpt lat="45.93725" lon="-0.95572">
        <ele>4.7</ele>
        <time>2022-06-21T10:25:08Z</time>
      </trkpt>
      <trkpt lat="45.93727" lon="-0.95574">
        <ele>4.7</ele>
        <time>2022-06-21T10:25:09Z</time>
      </trkpt>
      <trkpt lat="45.93728" lon="-0.95574">
        <ele>4.7</ele>
        <time>2022-06-21T10:25:10Z</time>
      </trkpt>
      <trkpt lat="45.93729" lon="-0.95575">
        <ele>4.6</ele>
        <time>2022-06-21T10:25:11Z</time>
      </trkpt>
      <trkpt lat="45.9373" lon="-0.95576">
        <ele>4.6</ele>
        <time>2022-06-21T10:25:12Z</time>
      </trkpt>
      <trkpt lat="45.93731" lon="-0.95577">
        <ele>4.6</ele>
        <time>2022-06-21T10:25:14Z</time>
      </trkpt>
      <trkpt lat="45.93732" lon="-0.95578">
        <ele>4.6</ele>
        <time>2022-06-21T10:25:15Z</time>
      </trkpt>
      <trkpt lat="45.93734" lon="-0.95579">
        <ele>4.6</ele>
        <time>2022-06-21T10:25:17Z</time>
      </trkpt>
      <trkpt lat="45.93737" lon="-0.9558">
        <ele>4.6</ele>
        <time>2022-06-21T10:25:18Z</time>
      </trkpt>
      <trkpt lat="45.93738" lon="-0.95581">
        <ele>4.6</ele>
        <time>2022-06-21T10:25:20Z</time>
      </trkpt>
      <trkpt lat="45.93739" lon="-0.95582">
        <ele>4.5</ele>
        <time>2022-06-21T10:25:21Z</time>
      </trkpt>
      <trkpt lat="45.9374" lon="-0.95582">
        <ele>4.5</ele>
        <time>2022-06-21T10:25:22Z</time>
      </trkpt>
      <trkpt lat="45.93742" lon="-0.95582">
        <ele>4.5</ele>
        <time>2022-06-21T10:25:23Z</time>
      </trkpt>
      <trkpt lat="45.93742" lon="-0.95582">
        <ele>4.5</ele>
        <time>2022-06-21T10:25:24Z</time>
      </trkpt>
      <trkpt lat="45.93742" lon="-0.95582">
        <ele>4.5</ele>
        <time>2022-06-21T10:25:25Z</time>
      </trkpt>
      <trkpt lat="45.93742" lon="-0.95582">
        <ele>4.5</ele>
        <time>2022-06-21T10:25:26Z</time>
      </trkpt>
      <trkpt lat="45.93742" lon="-0.95582">
        <ele>4.5</ele>
        <time>2022-06-21T10:25:27Z</time>
      </trkpt>
      <trkpt lat="45.93742" lon="-0.95581">
        <ele>4.5</ele>
        <time>2022-06-21T10:25:28Z</time>
      </trkpt>
      <trkpt lat="45.93741" lon="-0.95581">
        <ele>4.5</ele>
        <time>2022-06-21T10:25:29Z</time>
      </trkpt>
      <trkpt lat="45.93741" lon="-0.95581">
        <ele>4.5</ele>
        <time>2022-06-21T10:25:30Z</time>
      </trkpt>
      <trkpt lat="45.93741" lon="-0.95581">
        <ele>4.5</ele>
        <time>2022-06-21T10:25:31Z</time>
      </trkpt>
      <trkpt lat="45.93741" lon="-0.95581">
        <ele>4.5</ele>
        <time>2022-06-21T10:25:32Z</time>
      </trkpt>
      <trkpt lat="45.9374" lon="-0.9558">
        <ele>4.5</ele>
        <time>2022-06-21T10:25:34Z</time>
      </trkpt>
      <trkpt lat="45.9374" lon="-0.9558">
        <ele>4.5</ele>
        <time>2022-06-21T10:25:35Z</time>
      </trkpt>
      <trkpt lat="45.9374" lon="-0.9558">
        <ele>4.5</ele>
        <time>2022-06-21T10:25:36Z</time>
      </trkpt>
      <trkpt lat="45.9374" lon="-0.9558">
        <ele>4.5</ele>
        <time>2022-06-21T10:25:37Z</time>
      </trkpt>
      <trkpt lat="45.9374" lon="-0.9558">
        <ele>4.5</ele>
        <time>2022-06-21T10:25:38Z</time>
      </trkpt>
      <trkpt lat="45.93738" lon="-0.9558">
        <ele>4.5</ele>
        <time>2022-06-21T10:25:39Z</time>
      </trkpt>
      <trkpt lat="45.93738" lon="-0.95579">
        <ele>4.5</ele>
        <time>2022-06-21T10:25:40Z</time>
      </trkpt>
      <trkpt lat="45.93738" lon="-0.95579">
        <ele>4.5</ele>
        <time>2022-06-21T10:25:41Z</time>
      </trkpt>
      <trkpt lat="45.93738" lon="-0.95579">
        <ele>4.5</ele>
        <time>2022-06-21T10:25:42Z</time>
      </trkpt>
      <trkpt lat="45.93738" lon="-0.95579">
        <ele>4.5</ele>
        <time>2022-06-21T10:25:43Z</time>
      </trkpt>
      <trkpt lat="45.93738" lon="-0.95579">
        <ele>4.5</ele>
        <time>2022-06-21T10:25:44Z</time>
      </trkpt>
      <trkpt lat="45.93738" lon="-0.95579">
        <ele>4.5</ele>
        <time>2022-06-21T10:25:45Z</time>
      </trkpt>
      <trkpt lat="45.93738" lon="-0.95579">
        <ele>4.5</ele>
        <time>2022-06-21T10:25:46Z</time>
      </trkpt>
      <trkpt lat="45.93738" lon="-0.95579">
        <ele>4.5</ele>
        <time>2022-06-21T10:25:47Z</time>
      </trkpt>
      <trkpt lat="45.93738" lon="-0.95579">
        <ele>4.5</ele>
        <time>2022-06-21T10:25:48Z</time>
      </trkpt>
      <trkpt lat="45.93738" lon="-0.95579">
        <ele>4.5</ele>
        <time>2022-06-21T10:25:49Z</time>
      </trkpt>
      <trkpt lat="45.93738" lon="-0.95579">
        <ele>4.5</ele>
        <time>2022-06-21T10:25:50Z</time>
      </trkpt>
      <trkpt lat="45.93738" lon="-0.95579">
        <ele>4.5</ele>
        <time>2022-06-21T10:25:51Z</time>
      </trkpt>
      <trkpt lat="45.93738" lon="-0.95579">
        <ele>4.5</ele>
        <time>2022-06-21T10:25:52Z</time>
      </trkpt>
      <trkpt lat="45.93738" lon="-0.95579">
        <ele>4.5</ele>
        <time>2022-06-21T10:25:53Z</time>
      </trkpt>
      <trkpt lat="45.93737" lon="-0.9558">
        <ele>4.5</ele>
        <time>2022-06-21T10:25:54Z</time>
      </trkpt>
      <trkpt lat="45.93738" lon="-0.95581">
        <ele>4.5</ele>
        <time>2022-06-21T10:25:55Z</time>
      </trkpt>
      <trkpt lat="45.93739" lon="-0.95581">
        <ele>4.5</ele>
        <time>2022-06-21T10:25:56Z</time>
      </trkpt>
      <trkpt lat="45.9374" lon="-0.95582">
        <ele>4.5</ele>
        <time>2022-06-21T10:25:57Z</time>
      </trkpt>
      <trkpt lat="45.93741" lon="-0.95583">
        <ele>4.5</ele>
        <time>2022-06-21T10:25:58Z</time>
      </trkpt>
      <trkpt lat="45.93741" lon="-0.95584">
        <ele>4.5</ele>
        <time>2022-06-21T10:25:59Z</time>
      </trkpt>
      <trkpt lat="45.93738" lon="-0.9558">
        <ele>4.4</ele>
        <time>2022-06-21T10:26:00Z</time>
      </trkpt>
      <trkpt lat="45.93738" lon="-0.95577">
        <ele>4.4</ele>
        <time>2022-06-21T10:26:02Z</time>
      </trkpt>
      <trkpt lat="45.93738" lon="-0.95575">
        <ele>4.4</ele>
        <time>2022-06-21T10:26:03Z</time>
      </trkpt>
      <trkpt lat="45.93739" lon="-0.95573">
        <ele>4.4</ele>
        <time>2022-06-21T10:26:04Z</time>
      </trkpt>
      <trkpt lat="45.93739" lon="-0.95572">
        <ele>4.4</ele>
        <time>2022-06-21T10:26:05Z</time>
      </trkpt>
      <trkpt lat="45.9374" lon="-0.9557">
        <ele>4.4</ele>
        <time>2022-06-21T10:26:06Z</time>
      </trkpt>
      <trkpt lat="45.9374" lon="-0.95569">
        <ele>4.4</ele>
        <time>2022-06-21T10:26:07Z</time>
      </trkpt>
      <trkpt lat="45.93741" lon="-0.95566">
        <ele>4.4</ele>
        <time>2022-06-21T10:26:08Z</time>
      </trkpt>
      <trkpt lat="45.93742" lon="-0.95564">
        <ele>4.4</ele>
        <time>2022-06-21T10:26:09Z</time>
      </trkpt>
      <trkpt lat="45.93743" lon="-0.95562">
        <ele>4.4</ele>
        <time>2022-06-21T10:26:10Z</time>
      </trkpt>
      <trkpt lat="45.93744" lon="-0.95561">
        <ele>4.4</ele>
        <time>2022-06-21T10:26:12Z</time>
      </trkpt>
      <trkpt lat="45.93744" lon="-0.95559">
        <ele>4.4</ele>
        <time>2022-06-21T10:26:13Z</time>
      </trkpt>
      <trkpt lat="45.93745" lon="-0.95558">
        <ele>4.4</ele>
        <time>2022-06-21T10:26:14Z</time>
      </trkpt>
      <trkpt lat="45.93746" lon="-0.95557">
        <ele>4.4</ele>
        <time>2022-06-21T10:26:15Z</time>
      </trkpt>
      <trkpt lat="45.93747" lon="-0.95556">
        <ele>4.4</ele>
        <time>2022-06-21T10:26:16Z</time>
      </trkpt>
      <trkpt lat="45.93747" lon="-0.95555">
        <ele>4.4</ele>
        <time>2022-06-21T10:26:17Z</time>
      </trkpt>
      <trkpt lat="45.93748" lon="-0.95554">
        <ele>4.3</ele>
        <time>2022-06-21T10:26:18Z</time>
      </trkpt>
      <trkpt lat="45.93749" lon="-0.95552">
        <ele>4.3</ele>
        <time>2022-06-21T10:26:19Z</time>
      </trkpt>
      <trkpt lat="45.9375" lon="-0.95551">
        <ele>4.3</ele>
        <time>2022-06-21T10:26:20Z</time>
      </trkpt>
      <trkpt lat="45.93751" lon="-0.9555">
        <ele>4.3</ele>
        <time>2022-06-21T10:26:21Z</time>
      </trkpt>
      <trkpt lat="45.93752" lon="-0.95549">
        <ele>4.3</ele>
        <time>2022-06-21T10:26:22Z</time>
      </trkpt>
      <trkpt lat="45.93753" lon="-0.95548">
        <ele>4.3</ele>
        <time>2022-06-21T10:26:23Z</time>
      </trkpt>
      <trkpt lat="45.93754" lon="-0.95546">
        <ele>4.3</ele>
        <time>2022-06-21T10:26:25Z</time>
      </trkpt>
      <trkpt lat="45.93755" lon="-0.95545">
        <ele>4.3</ele>
        <time>2022-06-21T10:26:26Z</time>
      </trkpt>
      <trkpt lat="45.93756" lon="-0.95544">
        <ele>4.3</ele>
        <time>2022-06-21T10:26:27Z</time>
      </trkpt>
      <trkpt lat="45.93757" lon="-0.95543">
        <ele>4.3</ele>
        <time>2022-06-21T10:26:28Z</time>
      </trkpt>
      <trkpt lat="45.93759" lon="-0.95541">
        <ele>4.3</ele>
        <time>2022-06-21T10:26:29Z</time>
      </trkpt>
      <trkpt lat="45.9376" lon="-0.9554">
        <ele>4.3</ele>
        <time>2022-06-21T10:26:30Z</time>
      </trkpt>
      <trkpt lat="45.93761" lon="-0.9554">
        <ele>4.3</ele>
        <time>2022-06-21T10:26:31Z</time>
      </trkpt>
      <trkpt lat="45.93762" lon="-0.95539">
        <ele>4.3</ele>
        <time>2022-06-21T10:26:32Z</time>
      </trkpt>
      <trkpt lat="45.93763" lon="-0.95539">
        <ele>4.3</ele>
        <time>2022-06-21T10:26:34Z</time>
      </trkpt>
      <trkpt lat="45.93765" lon="-0.95538">
        <ele>4.3</ele>
        <time>2022-06-21T10:26:35Z</time>
      </trkpt>
      <trkpt lat="45.93766" lon="-0.95538">
        <ele>4.3</ele>
        <time>2022-06-21T10:26:36Z</time>
      </trkpt>
      <trkpt lat="45.93768" lon="-0.95538">
        <ele>4.3</ele>
        <time>2022-06-21T10:26:37Z</time>
      </trkpt>
      <trkpt lat="45.93769" lon="-0.95538">
        <ele>4.3</ele>
        <time>2022-06-21T10:26:38Z</time>
      </trkpt>
      <trkpt lat="45.93771" lon="-0.95538">
        <ele>4.3</ele>
        <time>2022-06-21T10:26:40Z</time>
      </trkpt>
      <trkpt lat="45.93772" lon="-0.95538">
        <ele>4.3</ele>
        <time>2022-06-21T10:26:41Z</time>
      </trkpt>
      <trkpt lat="45.93772" lon="-0.95539">
        <ele>4.3</ele>
        <time>2022-06-21T10:26:42Z</time>
      </trkpt>
      <trkpt lat="45.93771" lon="-0.95539">
        <ele>4.3</ele>
        <time>2022-06-21T10:26:43Z</time>
      </trkpt>
      <trkpt lat="45.93771" lon="-0.95538">
        <ele>4.3</ele>
        <time>2022-06-21T10:26:44Z</time>
      </trkpt>
      <trkpt lat="45.93771" lon="-0.95537">
        <ele>4.3</ele>
        <time>2022-06-21T10:26:45Z</time>
      </trkpt>
      <trkpt lat="45.93771" lon="-0.95536">
        <ele>4.3</ele>
        <time>2022-06-21T10:26:46Z</time>
      </trkpt>
      <trkpt lat="45.93771" lon="-0.95536">
        <ele>4.3</ele>
        <time>2022-06-21T10:26:47Z</time>
      </trkpt>
      <trkpt lat="45.93771" lon="-0.95535">
        <ele>4.3</ele>
        <time>2022-06-21T10:26:48Z</time>
      </trkpt>
      <trkpt lat="45.93771" lon="-0.95534">
        <ele>4.3</ele>
        <time>2022-06-21T10:26:49Z</time>
      </trkpt>
      <trkpt lat="45.93771" lon="-0.95534">
        <ele>4.3</ele>
        <time>2022-06-21T10:26:50Z</time>
      </trkpt>
      <trkpt lat="45.93771" lon="-0.95534">
        <ele>4.3</ele>
        <time>2022-06-21T10:26:51Z</time>
      </trkpt>
      <trkpt lat="45.93771" lon="-0.95534">
        <ele>4.3</ele>
        <time>2022-06-21T10:26:52Z</time>
      </trkpt>
      <trkpt lat="45.93771" lon="-0.95534">
        <ele>4.3</ele>
        <time>2022-06-21T10:26:53Z</time>
      </trkpt>
      <trkpt lat="45.93771" lon="-0.95534">
        <ele>4.3</ele>
        <time>2022-06-21T10:26:54Z</time>
      </trkpt>
      <trkpt lat="45.93771" lon="-0.95534">
        <ele>4.3</ele>
        <time>2022-06-21T10:26:55Z</time>
      </trkpt>
      <trkpt lat="45.93771" lon="-0.95534">
        <ele>4.3</ele>
        <time>2022-06-21T10:26:57Z</time>
      </trkpt>
      <trkpt lat="45.93771" lon="-0.95533">
        <ele>4.3</ele>
        <time>2022-06-21T10:26:58Z</time>
      </trkpt>
      <trkpt lat="45.93771" lon="-0.95533">
        <ele>4.3</ele>
        <time>2022-06-21T10:26:59Z</time>
      </trkpt>
      <trkpt lat="45.93771" lon="-0.95533">
        <ele>4.3</ele>
        <time>2022-06-21T10:27:00Z</time>
      </trkpt>
      <trkpt lat="45.93771" lon="-0.95532">
        <ele>4.3</ele>
        <time>2022-06-21T10:27:01Z</time>
      </trkpt>
      <trkpt lat="45.9377" lon="-0.95532">
        <ele>4.3</ele>
        <time>2022-06-21T10:27:02Z</time>
      </trkpt>
      <trkpt lat="45.93769" lon="-0.95531">
        <ele>4.3</ele>
        <time>2022-06-21T10:27:03Z</time>
      </trkpt>
      <trkpt lat="45.93769" lon="-0.95531">
        <ele>4.3</ele>
        <time>2022-06-21T10:27:04Z</time>
      </trkpt>
      <trkpt lat="45.93767" lon="-0.95532">
        <ele>4.3</ele>
        <time>2022-06-21T10:27:05Z</time>
      </trkpt>
      <trkpt lat="45.93766" lon="-0.95532">
        <ele>4.3</ele>
        <time>2022-06-21T10:27:06Z</time>
      </trkpt>
      <trkpt lat="45.93765" lon="-0.95533">
        <ele>4.3</ele>
        <time>2022-06-21T10:27:07Z</time>
      </trkpt>
      <trkpt lat="45.93764" lon="-0.95533">
        <ele>4.3</ele>
        <time>2022-06-21T10:27:08Z</time>
      </trkpt>
      <trkpt lat="45.93762" lon="-0.95536">
        <ele>4.2</ele>
        <time>2022-06-21T10:27:10Z</time>
      </trkpt>
      <trkpt lat="45.9376" lon="-0.95538">
        <ele>4.2</ele>
        <time>2022-06-21T10:27:11Z</time>
      </trkpt>
      <trkpt lat="45.93759" lon="-0.95539">
        <ele>4.2</ele>
        <time>2022-06-21T10:27:12Z</time>
      </trkpt>
      <trkpt lat="45.93756" lon="-0.9554">
        <ele>4.2</ele>
        <time>2022-06-21T10:27:13Z</time>
      </trkpt>
      <trkpt lat="45.93755" lon="-0.95539">
        <ele>4.2</ele>
        <time>2022-06-21T10:27:14Z</time>
      </trkpt>
      <trkpt lat="45.93754" lon="-0.9554">
        <ele>4.2</ele>
        <time>2022-06-21T10:27:15Z</time>
      </trkpt>
      <trkpt lat="45.93752" lon="-0.9554">
        <ele>4.2</ele>
        <time>2022-06-21T10:27:17Z</time>
      </trkpt>
      <trkpt lat="45.9375" lon="-0.9554">
        <ele>4.2</ele>
        <time>2022-06-21T10:27:18Z</time>
      </trkpt>
      <trkpt lat="45.93749" lon="-0.9554">
        <ele>4.2</ele>
        <time>2022-06-21T10:27:19Z</time>
      </trkpt>
      <trkpt lat="45.93747" lon="-0.95539">
        <ele>4.2</ele>
        <time>2022-06-21T10:27:20Z</time>
      </trkpt>
      <trkpt lat="45.93746" lon="-0.95539">
        <ele>4.2</ele>
        <time>2022-06-21T10:27:21Z</time>
      </trkpt>
      <trkpt lat="45.93746" lon="-0.95539">
        <ele>4.2</ele>
        <time>2022-06-21T10:27:23Z</time>
      </trkpt>
      <trkpt lat="45.93745" lon="-0.95539">
        <ele>4.2</ele>
        <time>2022-06-21T10:27:24Z</time>
      </trkpt>
      <trkpt lat="45.93745" lon="-0.95539">
        <ele>4.2</ele>
        <time>2022-06-21T10:27:25Z</time>
      </trkpt>
      <trkpt lat="45.93745" lon="-0.95539">
        <ele>4.2</ele>
        <time>2022-06-21T10:27:26Z</time>
      </trkpt>
      <trkpt lat="45.93744" lon="-0.95539">
        <ele>4.2</ele>
        <time>2022-06-21T10:27:27Z</time>
      </trkpt>
      <trkpt lat="45.93744" lon="-0.95539">
        <ele>4.2</ele>
        <time>2022-06-21T10:27:28Z</time>
      </trkpt>
      <trkpt lat="45.93744" lon="-0.95538">
        <ele>4.2</ele>
        <time>2022-06-21T10:27:30Z</time>
      </trkpt>
      <trkpt lat="45.93744" lon="-0.95536">
        <ele>4.2</ele>
        <time>2022-06-21T10:27:31Z</time>
      </trkpt>
      <trkpt lat="45.93744" lon="-0.95534">
        <ele>4.2</ele>
        <time>2022-06-21T10:27:32Z</time>
      </trkpt>
      <trkpt lat="45.93747" lon="-0.95532">
        <ele>4.2</ele>
        <time>2022-06-21T10:27:33Z</time>
      </trkpt>
      <trkpt lat="45.93748" lon="-0.9553">
        <ele>4.2</ele>
        <time>2022-06-21T10:27:34Z</time>
      </trkpt>
      <trkpt lat="45.9375" lon="-0.95529">
        <ele>4.2</ele>
        <time>2022-06-21T10:27:36Z</time>
      </trkpt>
      <trkpt lat="45.93751" lon="-0.95528">
        <ele>4.2</ele>
        <time>2022-06-21T10:27:37Z</time>
      </trkpt>
      <trkpt lat="45.93752" lon="-0.95527">
        <ele>4.2</ele>
        <time>2022-06-21T10:27:38Z</time>
      </trkpt>
      <trkpt lat="45.93754" lon="-0.95526">
        <ele>4.2</ele>
        <time>2022-06-21T10:27:39Z</time>
      </trkpt>
      <trkpt lat="45.93756" lon="-0.95525">
        <ele>4.2</ele>
        <time>2022-06-21T10:27:40Z</time>
      </trkpt>
      <trkpt lat="45.93758" lon="-0.95527">
        <ele>4.2</ele>
        <time>2022-06-21T10:27:42Z</time>
      </trkpt>
      <trkpt lat="45.93758" lon="-0.95529">
        <ele>4.2</ele>
        <time>2022-06-21T10:27:43Z</time>
      </trkpt>
      <trkpt lat="45.93759" lon="-0.95531">
        <ele>4.2</ele>
        <time>2022-06-21T10:27:45Z</time>
      </trkpt>
      <trkpt lat="45.9376" lon="-0.95532">
        <ele>4.2</ele>
        <time>2022-06-21T10:27:46Z</time>
      </trkpt>
      <trkpt lat="45.9376" lon="-0.95533">
        <ele>4.2</ele>
        <time>2022-06-21T10:27:47Z</time>
      </trkpt>
      <trkpt lat="45.9376" lon="-0.95533">
        <ele>4.2</ele>
        <time>2022-06-21T10:27:48Z</time>
      </trkpt>
      <trkpt lat="45.93761" lon="-0.95533">
        <ele>4.2</ele>
        <time>2022-06-21T10:27:49Z</time>
      </trkpt>
      <trkpt lat="45.93761" lon="-0.95533">
        <ele>4.2</ele>
        <time>2022-06-21T10:27:50Z</time>
      </trkpt>
      <trkpt lat="45.93761" lon="-0.95533">
        <ele>4.2</ele>
        <time>2022-06-21T10:27:51Z</time>
      </trkpt>
      <trkpt lat="45.93761" lon="-0.95532">
        <ele>4.2</ele>
        <time>2022-06-21T10:27:53Z</time>
      </trkpt>
      <trkpt lat="45.93761" lon="-0.95532">
        <ele>4.2</ele>
        <time>2022-06-21T10:27:54Z</time>
      </trkpt>
      <trkpt lat="45.93761" lon="-0.95531">
        <ele>4.2</ele>
        <time>2022-06-21T10:27:55Z</time>
      </trkpt>
      <trkpt lat="45.93761" lon="-0.95531">
        <ele>4.2</ele>
        <time>2022-06-21T10:27:56Z</time>
      </trkpt>
      <trkpt lat="45.93762" lon="-0.9553">
        <ele>4.2</ele>
        <time>2022-06-21T10:27:58Z</time>
      </trkpt>
      <trkpt lat="45.93763" lon="-0.9553">
        <ele>4.2</ele>
        <time>2022-06-21T10:27:59Z</time>
      </trkpt>
      <trkpt lat="45.93764" lon="-0.9553">
        <ele>4.2</ele>
        <time>2022-06-21T10:28:00Z</time>
      </trkpt>
      <trkpt lat="45.93765" lon="-0.95529">
        <ele>4.2</ele>
        <time>2022-06-21T10:28:01Z</time>
      </trkpt>
      <trkpt lat="45.93766" lon="-0.95529">
        <ele>4.2</ele>
        <time>2022-06-21T10:28:02Z</time>
      </trkpt>
      <trkpt lat="45.93768" lon="-0.95527">
        <ele>4.2</ele>
        <time>2022-06-21T10:28:04Z</time>
      </trkpt>
      <trkpt lat="45.93769" lon="-0.95527">
        <ele>4.2</ele>
        <time>2022-06-21T10:28:05Z</time>
      </trkpt>
      <trkpt lat="45.9377" lon="-0.95526">
        <ele>4.2</ele>
        <time>2022-06-21T10:28:06Z</time>
      </trkpt>
      <trkpt lat="45.9377" lon="-0.95525">
        <ele>4.2</ele>
        <time>2022-06-21T10:28:07Z</time>
      </trkpt>
      <trkpt lat="45.93771" lon="-0.95525">
        <ele>4.2</ele>
        <time>2022-06-21T10:28:08Z</time>
      </trkpt>
      <trkpt lat="45.93772" lon="-0.95524">
        <ele>4.2</ele>
        <time>2022-06-21T10:28:09Z</time>
      </trkpt>
      <trkpt lat="45.93773" lon="-0.95523">
        <ele>4.2</ele>
        <time>2022-06-21T10:28:10Z</time>
      </trkpt>
      <trkpt lat="45.93775" lon="-0.95522">
        <ele>4.2</ele>
        <time>2022-06-21T10:28:11Z</time>
      </trkpt>
      <trkpt lat="45.93775" lon="-0.95521">
        <ele>4.2</ele>
        <time>2022-06-21T10:28:12Z</time>
      </trkpt>
      <trkpt lat="45.93776" lon="-0.95521">
        <ele>4.2</ele>
        <time>2022-06-21T10:28:13Z</time>
      </trkpt>
      <trkpt lat="45.93777" lon="-0.9552">
        <ele>4.2</ele>
        <time>2022-06-21T10:28:14Z</time>
      </trkpt>
      <trkpt lat="45.93779" lon="-0.95518">
        <ele>4.2</ele>
        <time>2022-06-21T10:28:15Z</time>
      </trkpt>
      <trkpt lat="45.9378" lon="-0.95518">
        <ele>4.2</ele>
        <time>2022-06-21T10:28:17Z</time>
      </trkpt>
      <trkpt lat="45.9378" lon="-0.95518">
        <ele>4.2</ele>
        <time>2022-06-21T10:28:18Z</time>
      </trkpt>
      <trkpt lat="45.93781" lon="-0.95517">
        <ele>4.2</ele>
        <time>2022-06-21T10:28:19Z</time>
      </trkpt>
      <trkpt lat="45.93782" lon="-0.95517">
        <ele>4.2</ele>
        <time>2022-06-21T10:28:20Z</time>
      </trkpt>
      <trkpt lat="45.93783" lon="-0.95516">
        <ele>4.2</ele>
        <time>2022-06-21T10:28:21Z</time>
      </trkpt>
      <trkpt lat="45.93785" lon="-0.95516">
        <ele>4.2</ele>
        <time>2022-06-21T10:28:23Z</time>
      </trkpt>
      <trkpt lat="45.93786" lon="-0.95516">
        <ele>4.2</ele>
        <time>2022-06-21T10:28:24Z</time>
      </trkpt>
      <trkpt lat="45.93787" lon="-0.95515">
        <ele>4.2</ele>
        <time>2022-06-21T10:28:25Z</time>
      </trkpt>
      <trkpt lat="45.93788" lon="-0.95515">
        <ele>4.2</ele>
        <time>2022-06-21T10:28:26Z</time>
      </trkpt>
      <trkpt lat="45.93789" lon="-0.95515">
        <ele>4.2</ele>
        <time>2022-06-21T10:28:27Z</time>
      </trkpt>
      <trkpt lat="45.9379" lon="-0.95514">
        <ele>4.2</ele>
        <time>2022-06-21T10:28:28Z</time>
      </trkpt>
      <trkpt lat="45.93794" lon="-0.95514">
        <ele>4.2</ele>
        <time>2022-06-21T10:28:30Z</time>
      </trkpt>
      <trkpt lat="45.93794" lon="-0.95513">
        <ele>4.2</ele>
        <time>2022-06-21T10:28:31Z</time>
      </trkpt>
      <trkpt lat="45.93796" lon="-0.95513">
        <ele>4.2</ele>
        <time>2022-06-21T10:28:32Z</time>
      </trkpt>
      <trkpt lat="45.93797" lon="-0.95512">
        <ele>4.2</ele>
        <time>2022-06-21T10:28:33Z</time>
      </trkpt>
      <trkpt lat="45.93799" lon="-0.95512">
        <ele>4.2</ele>
        <time>2022-06-21T10:28:34Z</time>
      </trkpt>
      <trkpt lat="45.938" lon="-0.95511">
        <ele>4.2</ele>
        <time>2022-06-21T10:28:36Z</time>
      </trkpt>
      <trkpt lat="45.93801" lon="-0.95511">
        <ele>4.2</ele>
        <time>2022-06-21T10:28:37Z</time>
      </trkpt>
      <trkpt lat="45.93802" lon="-0.95511">
        <ele>4.2</ele>
        <time>2022-06-21T10:28:38Z</time>
      </trkpt>
      <trkpt lat="45.93803" lon="-0.9551">
        <ele>4.2</ele>
        <time>2022-06-21T10:28:39Z</time>
      </trkpt>
      <trkpt lat="45.93804" lon="-0.95511">
        <ele>4.2</ele>
        <time>2022-06-21T10:28:40Z</time>
      </trkpt>
      <trkpt lat="45.93804" lon="-0.95511">
        <ele>4.2</ele>
        <time>2022-06-21T10:28:41Z</time>
      </trkpt>
      <trkpt lat="45.93806" lon="-0.95511">
        <ele>4.2</ele>
        <time>2022-06-21T10:28:42Z</time>
      </trkpt>
      <trkpt lat="45.93807" lon="-0.95511">
        <ele>4.2</ele>
        <time>2022-06-21T10:28:44Z</time>
      </trkpt>
      <trkpt lat="45.93809" lon="-0.9551">
        <ele>4.2</ele>
        <time>2022-06-21T10:28:45Z</time>
      </trkpt>
      <trkpt lat="45.93809" lon="-0.9551">
        <ele>4.2</ele>
        <time>2022-06-21T10:28:46Z</time>
      </trkpt>
      <trkpt lat="45.9381" lon="-0.95511">
        <ele>4.2</ele>
        <time>2022-06-21T10:28:47Z</time>
      </trkpt>
      <trkpt lat="45.93811" lon="-0.9551">
        <ele>4.2</ele>
        <time>2022-06-21T10:28:48Z</time>
      </trkpt>
      <trkpt lat="45.93813" lon="-0.9551">
        <ele>4.2</ele>
        <time>2022-06-21T10:28:49Z</time>
      </trkpt>
      <trkpt lat="45.93815" lon="-0.95509">
        <ele>4.2</ele>
        <time>2022-06-21T10:28:50Z</time>
      </trkpt>
      <trkpt lat="45.93816" lon="-0.95508">
        <ele>4.2</ele>
        <time>2022-06-21T10:28:52Z</time>
      </trkpt>
      <trkpt lat="45.93818" lon="-0.95508">
        <ele>4.2</ele>
        <time>2022-06-21T10:28:53Z</time>
      </trkpt>
      <trkpt lat="45.93818" lon="-0.95508">
        <ele>4.2</ele>
        <time>2022-06-21T10:28:54Z</time>
      </trkpt>
      <trkpt lat="45.93819" lon="-0.95509">
        <ele>4.1</ele>
        <time>2022-06-21T10:28:56Z</time>
      </trkpt>
      <trkpt lat="45.93819" lon="-0.9551">
        <ele>4.1</ele>
        <time>2022-06-21T10:28:57Z</time>
      </trkpt>
      <trkpt lat="45.9382" lon="-0.9551">
        <ele>4.1</ele>
        <time>2022-06-21T10:28:58Z</time>
      </trkpt>
      <trkpt lat="45.9382" lon="-0.95511">
        <ele>4.1</ele>
        <time>2022-06-21T10:28:59Z</time>
      </trkpt>
      <trkpt lat="45.9382" lon="-0.95513">
        <ele>4.1</ele>
        <time>2022-06-21T10:29:00Z</time>
      </trkpt>
      <trkpt lat="45.9382" lon="-0.95516">
        <ele>4.1</ele>
        <time>2022-06-21T10:29:02Z</time>
      </trkpt>
      <trkpt lat="45.93819" lon="-0.95518">
        <ele>4.1</ele>
        <time>2022-06-21T10:29:03Z</time>
      </trkpt>
      <trkpt lat="45.93819" lon="-0.9552">
        <ele>4.1</ele>
        <time>2022-06-21T10:29:04Z</time>
      </trkpt>
      <trkpt lat="45.93818" lon="-0.95522">
        <ele>4.1</ele>
        <time>2022-06-21T10:29:06Z</time>
      </trkpt>
      <trkpt lat="45.93818" lon="-0.95523">
        <ele>4.1</ele>
        <time>2022-06-21T10:29:07Z</time>
      </trkpt>
      <trkpt lat="45.93818" lon="-0.95524">
        <ele>4.1</ele>
        <time>2022-06-21T10:29:08Z</time>
      </trkpt>
      <trkpt lat="45.93818" lon="-0.95525">
        <ele>4.1</ele>
        <time>2022-06-21T10:29:09Z</time>
      </trkpt>
      <trkpt lat="45.93818" lon="-0.95525">
        <ele>4.1</ele>
        <time>2022-06-21T10:29:10Z</time>
      </trkpt>
      <trkpt lat="45.93818" lon="-0.95525">
        <ele>4.1</ele>
        <time>2022-06-21T10:29:11Z</time>
      </trkpt>
      <trkpt lat="45.93818" lon="-0.95524">
        <ele>4.1</ele>
        <time>2022-06-21T10:29:12Z</time>
      </trkpt>
      <trkpt lat="45.93818" lon="-0.95524">
        <ele>4.1</ele>
        <time>2022-06-21T10:29:13Z</time>
      </trkpt>
      <trkpt lat="45.93818" lon="-0.95524">
        <ele>4.1</ele>
        <time>2022-06-21T10:29:14Z</time>
      </trkpt>
      <trkpt lat="45.93818" lon="-0.95524">
        <ele>4.1</ele>
        <time>2022-06-21T10:29:15Z</time>
      </trkpt>
      <trkpt lat="45.93818" lon="-0.95523">
        <ele>4.1</ele>
        <time>2022-06-21T10:29:16Z</time>
      </trkpt>
      <trkpt lat="45.93818" lon="-0.95523">
        <ele>4.1</ele>
        <time>2022-06-21T10:29:17Z</time>
      </trkpt>
      <trkpt lat="45.93818" lon="-0.95522">
        <ele>4.1</ele>
        <time>2022-06-21T10:29:18Z</time>
      </trkpt>
      <trkpt lat="45.93818" lon="-0.95522">
        <ele>4.1</ele>
        <time>2022-06-21T10:29:19Z</time>
      </trkpt>
      <trkpt lat="45.93818" lon="-0.95521">
        <ele>4.1</ele>
        <time>2022-06-21T10:29:21Z</time>
      </trkpt>
      <trkpt lat="45.93819" lon="-0.95521">
        <ele>4.1</ele>
        <time>2022-06-21T10:29:22Z</time>
      </trkpt>
      <trkpt lat="45.93819" lon="-0.9552">
        <ele>4.1</ele>
        <time>2022-06-21T10:29:23Z</time>
      </trkpt>
      <trkpt lat="45.9382" lon="-0.9552">
        <ele>4.1</ele>
        <time>2022-06-21T10:29:24Z</time>
      </trkpt>
      <trkpt lat="45.93821" lon="-0.95519">
        <ele>4.1</ele>
        <time>2022-06-21T10:29:25Z</time>
      </trkpt>
      <trkpt lat="45.93823" lon="-0.95518">
        <ele>4.1</ele>
        <time>2022-06-21T10:29:27Z</time>
      </trkpt>
      <trkpt lat="45.93823" lon="-0.95518">
        <ele>4.1</ele>
        <time>2022-06-21T10:29:28Z</time>
      </trkpt>
      <trkpt lat="45.93824" lon="-0.95517">
        <ele>4.1</ele>
        <time>2022-06-21T10:29:30Z</time>
      </trkpt>
      <trkpt lat="45.93825" lon="-0.95516">
        <ele>4.1</ele>
        <time>2022-06-21T10:29:31Z</time>
      </trkpt>
      <trkpt lat="45.93828" lon="-0.95514">
        <ele>4.1</ele>
        <time>2022-06-21T10:29:32Z</time>
      </trkpt>
      <trkpt lat="45.93828" lon="-0.95513">
        <ele>4.1</ele>
        <time>2022-06-21T10:29:33Z</time>
      </trkpt>
      <trkpt lat="45.93829" lon="-0.95511">
        <ele>4.1</ele>
        <time>2022-06-21T10:29:34Z</time>
      </trkpt>
      <trkpt lat="45.9383" lon="-0.9551">
        <ele>4.1</ele>
        <time>2022-06-21T10:29:35Z</time>
      </trkpt>
      <trkpt lat="45.9383" lon="-0.95508">
        <ele>4.1</ele>
        <time>2022-06-21T10:29:36Z</time>
      </trkpt>
      <trkpt lat="45.93831" lon="-0.95507">
        <ele>4.1</ele>
        <time>2022-06-21T10:29:37Z</time>
      </trkpt>
      <trkpt lat="45.93831" lon="-0.95506">
        <ele>4.1</ele>
        <time>2022-06-21T10:29:38Z</time>
      </trkpt>
      <trkpt lat="45.93833" lon="-0.95505">
        <ele>4.1</ele>
        <time>2022-06-21T10:29:39Z</time>
      </trkpt>
      <trkpt lat="45.93833" lon="-0.95505">
        <ele>4.1</ele>
        <time>2022-06-21T10:29:40Z</time>
      </trkpt>
      <trkpt lat="45.93834" lon="-0.95504">
        <ele>4.1</ele>
        <time>2022-06-21T10:29:42Z</time>
      </trkpt>
      <trkpt lat="45.93835" lon="-0.95504">
        <ele>4.1</ele>
        <time>2022-06-21T10:29:43Z</time>
      </trkpt>
      <trkpt lat="45.93836" lon="-0.95503">
        <ele>4.1</ele>
        <time>2022-06-21T10:29:44Z</time>
      </trkpt>
      <trkpt lat="45.93836" lon="-0.95502">
        <ele>4.1</ele>
        <time>2022-06-21T10:29:45Z</time>
      </trkpt>
      <trkpt lat="45.93837" lon="-0.95501">
        <ele>4.1</ele>
        <time>2022-06-21T10:29:46Z</time>
      </trkpt>
      <trkpt lat="45.93837" lon="-0.955">
        <ele>4.1</ele>
        <time>2022-06-21T10:29:47Z</time>
      </trkpt>
      <trkpt lat="45.93837" lon="-0.95499">
        <ele>4.1</ele>
        <time>2022-06-21T10:29:48Z</time>
      </trkpt>
      <trkpt lat="45.93836" lon="-0.95498">
        <ele>4.1</ele>
        <time>2022-06-21T10:29:49Z</time>
      </trkpt>
      <trkpt lat="45.93834" lon="-0.95499">
        <ele>4.1</ele>
        <time>2022-06-21T10:29:50Z</time>
      </trkpt>
      <trkpt lat="45.93834" lon="-0.95499">
        <ele>4.1</ele>
        <time>2022-06-21T10:29:51Z</time>
      </trkpt>
      <trkpt lat="45.93834" lon="-0.95499">
        <ele>4.1</ele>
        <time>2022-06-21T10:29:53Z</time>
      </trkpt>
      <trkpt lat="45.93835" lon="-0.95498">
        <ele>4.1</ele>
        <time>2022-06-21T10:29:54Z</time>
      </trkpt>
      <trkpt lat="45.93835" lon="-0.95498">
        <ele>4.1</ele>
        <time>2022-06-21T10:29:55Z</time>
      </trkpt>
      <trkpt lat="45.93835" lon="-0.95498">
        <ele>4.1</ele>
        <time>2022-06-21T10:29:56Z</time>
      </trkpt>
      <trkpt lat="45.93835" lon="-0.95498">
        <ele>4.1</ele>
        <time>2022-06-21T10:29:57Z</time>
      </trkpt>
      <trkpt lat="45.93835" lon="-0.95498">
        <ele>4.1</ele>
        <time>2022-06-21T10:29:58Z</time>
      </trkpt>
      <trkpt lat="45.93835" lon="-0.95497">
        <ele>4.1</ele>
        <time>2022-06-21T10:29:59Z</time>
      </trkpt>
      <trkpt lat="45.93835" lon="-0.95497">
        <ele>4.1</ele>
        <time>2022-06-21T10:30:00Z</time>
      </trkpt>
      <trkpt lat="45.93835" lon="-0.95497">
        <ele>4.1</ele>
        <time>2022-06-21T10:30:01Z</time>
      </trkpt>
      <trkpt lat="45.93835" lon="-0.95497">
        <ele>4.1</ele>
        <time>2022-06-21T10:30:02Z</time>
      </trkpt>
      <trkpt lat="45.93835" lon="-0.95497">
        <ele>4.1</ele>
        <time>2022-06-21T10:30:03Z</time>
      </trkpt>
      <trkpt lat="45.93835" lon="-0.95497">
        <ele>4.1</ele>
        <time>2022-06-21T10:30:04Z</time>
      </trkpt>
      <trkpt lat="45.93835" lon="-0.95497">
        <ele>4.1</ele>
        <time>2022-06-21T10:30:05Z</time>
      </trkpt>
      <trkpt lat="45.93835" lon="-0.95497">
        <ele>4.1</ele>
        <time>2022-06-21T10:30:06Z</time>
      </trkpt>
      <trkpt lat="45.93835" lon="-0.95497">
        <ele>4.1</ele>
        <time>2022-06-21T10:30:07Z</time>
      </trkpt>
      <trkpt lat="45.93835" lon="-0.95497">
        <ele>4.1</ele>
        <time>2022-06-21T10:30:08Z</time>
      </trkpt>
      <trkpt lat="45.93835" lon="-0.95497">
        <ele>4.1</ele>
        <time>2022-06-21T10:30:09Z</time>
      </trkpt>
      <trkpt lat="45.93835" lon="-0.95497">
        <ele>4.1</ele>
        <time>2022-06-21T10:30:10Z</time>
      </trkpt>
      <trkpt lat="45.93835" lon="-0.95497">
        <ele>4.1</ele>
        <time>2022-06-21T10:30:12Z</time>
      </trkpt>
      <trkpt lat="45.93835" lon="-0.95497">
        <ele>4.1</ele>
        <time>2022-06-21T10:30:13Z</time>
      </trkpt>
      <trkpt lat="45.93835" lon="-0.95497">
        <ele>4.1</ele>
        <time>2022-06-21T10:30:14Z</time>
      </trkpt>
      <trkpt lat="45.93835" lon="-0.95497">
        <ele>4.1</ele>
        <time>2022-06-21T10:30:15Z</time>
      </trkpt>
      <trkpt lat="45.93835" lon="-0.95497">
        <ele>4.1</ele>
        <time>2022-06-21T10:30:16Z</time>
      </trkpt>
      <trkpt lat="45.93835" lon="-0.95497">
        <ele>4.1</ele>
        <time>2022-06-21T10:30:17Z</time>
      </trkpt>
      <trkpt lat="45.93835" lon="-0.95497">
        <ele>4.1</ele>
        <time>2022-06-21T10:30:18Z</time>
      </trkpt>
      <trkpt lat="45.93835" lon="-0.95497">
        <ele>4.1</ele>
        <time>2022-06-21T10:30:19Z</time>
      </trkpt>
      <trkpt lat="45.93835" lon="-0.95497">
        <ele>4.1</ele>
        <time>2022-06-21T10:30:20Z</time>
      </trkpt>
      <trkpt lat="45.93835" lon="-0.955">
        <ele>4.1</ele>
        <time>2022-06-21T10:30:21Z</time>
      </trkpt>
      <trkpt lat="45.93836" lon="-0.95499">
        <ele>4.1</ele>
        <time>2022-06-21T10:30:22Z</time>
      </trkpt>
      <trkpt lat="45.93837" lon="-0.955">
        <ele>4.1</ele>
        <time>2022-06-21T10:30:23Z</time>
      </trkpt>
      <trkpt lat="45.93837" lon="-0.95501">
        <ele>4.1</ele>
        <time>2022-06-21T10:30:24Z</time>
      </trkpt>
      <trkpt lat="45.93838" lon="-0.95502">
        <ele>4.1</ele>
        <time>2022-06-21T10:30:25Z</time>
      </trkpt>
      <trkpt lat="45.93839" lon="-0.95505">
        <ele>4.1</ele>
        <time>2022-06-21T10:30:27Z</time>
      </trkpt>
      <trkpt lat="45.93842" lon="-0.95508">
        <ele>4.1</ele>
        <time>2022-06-21T10:30:28Z</time>
      </trkpt>
      <trkpt lat="45.93843" lon="-0.95506">
        <ele>4.1</ele>
        <time>2022-06-21T10:30:29Z</time>
      </trkpt>
      <trkpt lat="45.93844" lon="-0.95505">
        <ele>4</ele>
        <time>2022-06-21T10:30:30Z</time>
      </trkpt>
      <trkpt lat="45.93846" lon="-0.95503">
        <ele>4</ele>
        <time>2022-06-21T10:30:31Z</time>
      </trkpt>
      <trkpt lat="45.93847" lon="-0.95502">
        <ele>4</ele>
        <time>2022-06-21T10:30:32Z</time>
      </trkpt>
      <trkpt lat="45.93848" lon="-0.95501">
        <ele>4</ele>
        <time>2022-06-21T10:30:33Z</time>
      </trkpt>
      <trkpt lat="45.9385" lon="-0.955">
        <ele>4</ele>
        <time>2022-06-21T10:30:35Z</time>
      </trkpt>
      <trkpt lat="45.93851" lon="-0.95499">
        <ele>4</ele>
        <time>2022-06-21T10:30:36Z</time>
      </trkpt>
      <trkpt lat="45.93852" lon="-0.95499">
        <ele>4</ele>
        <time>2022-06-21T10:30:37Z</time>
      </trkpt>
      <trkpt lat="45.93853" lon="-0.95497">
        <ele>4</ele>
        <time>2022-06-21T10:30:38Z</time>
      </trkpt>
      <trkpt lat="45.93855" lon="-0.95496">
        <ele>4</ele>
        <time>2022-06-21T10:30:40Z</time>
      </trkpt>
      <trkpt lat="45.93856" lon="-0.95495">
        <ele>4</ele>
        <time>2022-06-21T10:30:41Z</time>
      </trkpt>
      <trkpt lat="45.93858" lon="-0.95495">
        <ele>4</ele>
        <time>2022-06-21T10:30:42Z</time>
      </trkpt>
      <trkpt lat="45.93859" lon="-0.95494">
        <ele>4</ele>
        <time>2022-06-21T10:30:43Z</time>
      </trkpt>
      <trkpt lat="45.93861" lon="-0.95493">
        <ele>4</ele>
        <time>2022-06-21T10:30:45Z</time>
      </trkpt>
      <trkpt lat="45.93862" lon="-0.95492">
        <ele>4</ele>
        <time>2022-06-21T10:30:46Z</time>
      </trkpt>
      <trkpt lat="45.93864" lon="-0.95492">
        <ele>4</ele>
        <time>2022-06-21T10:30:47Z</time>
      </trkpt>
      <trkpt lat="45.93865" lon="-0.95491">
        <ele>4</ele>
        <time>2022-06-21T10:30:48Z</time>
      </trkpt>
      <trkpt lat="45.93867" lon="-0.95491">
        <ele>4</ele>
        <time>2022-06-21T10:30:49Z</time>
      </trkpt>
      <trkpt lat="45.93868" lon="-0.9549">
        <ele>4.1</ele>
        <time>2022-06-21T10:30:50Z</time>
      </trkpt>
      <trkpt lat="45.9387" lon="-0.9549">
        <ele>4.1</ele>
        <time>2022-06-21T10:30:52Z</time>
      </trkpt>
      <trkpt lat="45.9387" lon="-0.95491">
        <ele>4.1</ele>
        <time>2022-06-21T10:30:53Z</time>
      </trkpt>
      <trkpt lat="45.9387" lon="-0.95491">
        <ele>4.1</ele>
        <time>2022-06-21T10:30:54Z</time>
      </trkpt>
      <trkpt lat="45.9387" lon="-0.95491">
        <ele>4.1</ele>
        <time>2022-06-21T10:30:55Z</time>
      </trkpt>
      <trkpt lat="45.93871" lon="-0.95491">
        <ele>4.1</ele>
        <time>2022-06-21T10:30:56Z</time>
      </trkpt>
      <trkpt lat="45.93875" lon="-0.95489">
        <ele>4.1</ele>
        <time>2022-06-21T10:30:58Z</time>
      </trkpt>
      <trkpt lat="45.93875" lon="-0.95489">
        <ele>4.1</ele>
        <time>2022-06-21T10:30:59Z</time>
      </trkpt>
      <trkpt lat="45.93877" lon="-0.95488">
        <ele>4.1</ele>
        <time>2022-06-21T10:31:00Z</time>
      </trkpt>
      <trkpt lat="45.93879" lon="-0.95488">
        <ele>4.1</ele>
        <time>2022-06-21T10:31:01Z</time>
      </trkpt>
      <trkpt lat="45.9388" lon="-0.95487">
        <ele>4.1</ele>
        <time>2022-06-21T10:31:02Z</time>
      </trkpt>
      <trkpt lat="45.93882" lon="-0.95487">
        <ele>4.1</ele>
        <time>2022-06-21T10:31:03Z</time>
      </trkpt>
      <trkpt lat="45.93885" lon="-0.95486">
        <ele>4.1</ele>
        <time>2022-06-21T10:31:05Z</time>
      </trkpt>
      <trkpt lat="45.93885" lon="-0.95486">
        <ele>4.1</ele>
        <time>2022-06-21T10:31:06Z</time>
      </trkpt>
      <trkpt lat="45.93887" lon="-0.95485">
        <ele>4.1</ele>
        <time>2022-06-21T10:31:07Z</time>
      </trkpt>
      <trkpt lat="45.93889" lon="-0.95485">
        <ele>4.1</ele>
        <time>2022-06-21T10:31:08Z</time>
      </trkpt>
      <trkpt lat="45.9389" lon="-0.95485">
        <ele>4.1</ele>
        <time>2022-06-21T10:31:09Z</time>
      </trkpt>
      <trkpt lat="45.93892" lon="-0.95484">
        <ele>4.1</ele>
        <time>2022-06-21T10:31:10Z</time>
      </trkpt>
      <trkpt lat="45.93893" lon="-0.95485">
        <ele>4.1</ele>
        <time>2022-06-21T10:31:11Z</time>
      </trkpt>
      <trkpt lat="45.93895" lon="-0.95484">
        <ele>4.1</ele>
        <time>2022-06-21T10:31:13Z</time>
      </trkpt>
      <trkpt lat="45.93897" lon="-0.95484">
        <ele>4.1</ele>
        <time>2022-06-21T10:31:14Z</time>
      </trkpt>
      <trkpt lat="45.93898" lon="-0.95485">
        <ele>4.1</ele>
        <time>2022-06-21T10:31:15Z</time>
      </trkpt>
      <trkpt lat="45.93899" lon="-0.95485">
        <ele>4.1</ele>
        <time>2022-06-21T10:31:16Z</time>
      </trkpt>
      <trkpt lat="45.939" lon="-0.95486">
        <ele>4.1</ele>
        <time>2022-06-21T10:31:17Z</time>
      </trkpt>
      <trkpt lat="45.93901" lon="-0.95486">
        <ele>4.1</ele>
        <time>2022-06-21T10:31:18Z</time>
      </trkpt>
      <trkpt lat="45.93902" lon="-0.95487">
        <ele>4.1</ele>
        <time>2022-06-21T10:31:19Z</time>
      </trkpt>
      <trkpt lat="45.93901" lon="-0.95488">
        <ele>4.1</ele>
        <time>2022-06-21T10:31:21Z</time>
      </trkpt>
      <trkpt lat="45.93902" lon="-0.95489">
        <ele>4.1</ele>
        <time>2022-06-21T10:31:22Z</time>
      </trkpt>
      <trkpt lat="45.93902" lon="-0.95489">
        <ele>4.1</ele>
        <time>2022-06-21T10:31:23Z</time>
      </trkpt>
      <trkpt lat="45.93903" lon="-0.9549">
        <ele>4.1</ele>
        <time>2022-06-21T10:31:24Z</time>
      </trkpt>
      <trkpt lat="45.93904" lon="-0.95491">
        <ele>4.1</ele>
        <time>2022-06-21T10:31:25Z</time>
      </trkpt>
      <trkpt lat="45.93906" lon="-0.95491">
        <ele>4.1</ele>
        <time>2022-06-21T10:31:26Z</time>
      </trkpt>
      <trkpt lat="45.93907" lon="-0.95491">
        <ele>4.1</ele>
        <time>2022-06-21T10:31:27Z</time>
      </trkpt>
      <trkpt lat="45.93908" lon="-0.95491">
        <ele>4.1</ele>
        <time>2022-06-21T10:31:28Z</time>
      </trkpt>
      <trkpt lat="45.93909" lon="-0.95492">
        <ele>4.1</ele>
        <time>2022-06-21T10:31:29Z</time>
      </trkpt>
      <trkpt lat="45.9391" lon="-0.95492">
        <ele>4.1</ele>
        <time>2022-06-21T10:31:31Z</time>
      </trkpt>
      <trkpt lat="45.93911" lon="-0.95492">
        <ele>4.1</ele>
        <time>2022-06-21T10:31:33Z</time>
      </trkpt>
      <trkpt lat="45.93913" lon="-0.95492">
        <ele>4.1</ele>
        <time>2022-06-21T10:31:34Z</time>
      </trkpt>
      <trkpt lat="45.93914" lon="-0.95493">
        <ele>4.1</ele>
        <time>2022-06-21T10:31:35Z</time>
      </trkpt>
      <trkpt lat="45.93915" lon="-0.95493">
        <ele>4.1</ele>
        <time>2022-06-21T10:31:36Z</time>
      </trkpt>
      <trkpt lat="45.93917" lon="-0.95492">
        <ele>4.1</ele>
        <time>2022-06-21T10:31:38Z</time>
      </trkpt>
      <trkpt lat="45.93919" lon="-0.95492">
        <ele>4.1</ele>
        <time>2022-06-21T10:31:39Z</time>
      </trkpt>
      <trkpt lat="45.9392" lon="-0.95492">
        <ele>4.1</ele>
        <time>2022-06-21T10:31:40Z</time>
      </trkpt>
      <trkpt lat="45.9392" lon="-0.95492">
        <ele>4.1</ele>
        <time>2022-06-21T10:31:41Z</time>
      </trkpt>
      <trkpt lat="45.93921" lon="-0.95492">
        <ele>4.1</ele>
        <time>2022-06-21T10:31:42Z</time>
      </trkpt>
      <trkpt lat="45.93922" lon="-0.95491">
        <ele>4.1</ele>
        <time>2022-06-21T10:31:43Z</time>
      </trkpt>
      <trkpt lat="45.93924" lon="-0.95491">
        <ele>4.1</ele>
        <time>2022-06-21T10:31:44Z</time>
      </trkpt>
      <trkpt lat="45.93926" lon="-0.95491">
        <ele>4.1</ele>
        <time>2022-06-21T10:31:45Z</time>
      </trkpt>
      <trkpt lat="45.93927" lon="-0.9549">
        <ele>4.1</ele>
        <time>2022-06-21T10:31:46Z</time>
      </trkpt>
      <trkpt lat="45.93929" lon="-0.95489">
        <ele>4.1</ele>
        <time>2022-06-21T10:31:47Z</time>
      </trkpt>
      <trkpt lat="45.9393" lon="-0.95488">
        <ele>4.1</ele>
        <time>2022-06-21T10:31:49Z</time>
      </trkpt>
      <trkpt lat="45.93931" lon="-0.95487">
        <ele>4.1</ele>
        <time>2022-06-21T10:31:50Z</time>
      </trkpt>
      <trkpt lat="45.93932" lon="-0.95486">
        <ele>4.1</ele>
        <time>2022-06-21T10:31:51Z</time>
      </trkpt>
      <trkpt lat="45.93932" lon="-0.95485">
        <ele>4.1</ele>
        <time>2022-06-21T10:31:52Z</time>
      </trkpt>
      <trkpt lat="45.93933" lon="-0.95483">
        <ele>4.1</ele>
        <time>2022-06-21T10:31:53Z</time>
      </trkpt>
      <trkpt lat="45.93934" lon="-0.95481">
        <ele>4.1</ele>
        <time>2022-06-21T10:31:54Z</time>
      </trkpt>
      <trkpt lat="45.93935" lon="-0.95477">
        <ele>4.1</ele>
        <time>2022-06-21T10:31:56Z</time>
      </trkpt>
      <trkpt lat="45.93936" lon="-0.95476">
        <ele>4.1</ele>
        <time>2022-06-21T10:31:57Z</time>
      </trkpt>
      <trkpt lat="45.93936" lon="-0.95474">
        <ele>4.1</ele>
        <time>2022-06-21T10:31:58Z</time>
      </trkpt>
      <trkpt lat="45.93937" lon="-0.95472">
        <ele>4.1</ele>
        <time>2022-06-21T10:31:59Z</time>
      </trkpt>
      <trkpt lat="45.93937" lon="-0.9547">
        <ele>4.1</ele>
        <time>2022-06-21T10:32:01Z</time>
      </trkpt>
      <trkpt lat="45.93938" lon="-0.95468">
        <ele>4.1</ele>
        <time>2022-06-21T10:32:02Z</time>
      </trkpt>
      <trkpt lat="45.9394" lon="-0.95466">
        <ele>4.1</ele>
        <time>2022-06-21T10:32:03Z</time>
      </trkpt>
      <trkpt lat="45.93939" lon="-0.95463">
        <ele>4.1</ele>
        <time>2022-06-21T10:32:04Z</time>
      </trkpt>
      <trkpt lat="45.93939" lon="-0.95462">
        <ele>4.1</ele>
        <time>2022-06-21T10:32:05Z</time>
      </trkpt>
      <trkpt lat="45.93939" lon="-0.9546">
        <ele>4.1</ele>
        <time>2022-06-21T10:32:06Z</time>
      </trkpt>
      <trkpt lat="45.9394" lon="-0.95458">
        <ele>4.1</ele>
        <time>2022-06-21T10:32:08Z</time>
      </trkpt>
      <trkpt lat="45.93942" lon="-0.95457">
        <ele>4.1</ele>
        <time>2022-06-21T10:32:09Z</time>
      </trkpt>
      <trkpt lat="45.93943" lon="-0.95456">
        <ele>4.1</ele>
        <time>2022-06-21T10:32:10Z</time>
      </trkpt>
      <trkpt lat="45.93944" lon="-0.95456">
        <ele>4.1</ele>
        <time>2022-06-21T10:32:11Z</time>
      </trkpt>
      <trkpt lat="45.93945" lon="-0.95455">
        <ele>4.1</ele>
        <time>2022-06-21T10:32:12Z</time>
      </trkpt>
      <trkpt lat="45.93947" lon="-0.95455">
        <ele>4.1</ele>
        <time>2022-06-21T10:32:13Z</time>
      </trkpt>
      <trkpt lat="45.93949" lon="-0.95455">
        <ele>4.1</ele>
        <time>2022-06-21T10:32:14Z</time>
      </trkpt>
      <trkpt lat="45.9395" lon="-0.95455">
        <ele>4.1</ele>
        <time>2022-06-21T10:32:16Z</time>
      </trkpt>
      <trkpt lat="45.9395" lon="-0.95455">
        <ele>4.1</ele>
        <time>2022-06-21T10:32:17Z</time>
      </trkpt>
      <trkpt lat="45.93952" lon="-0.95455">
        <ele>4.1</ele>
        <time>2022-06-21T10:32:18Z</time>
      </trkpt>
      <trkpt lat="45.93953" lon="-0.95455">
        <ele>4.1</ele>
        <time>2022-06-21T10:32:19Z</time>
      </trkpt>
      <trkpt lat="45.93954" lon="-0.95455">
        <ele>4.1</ele>
        <time>2022-06-21T10:32:20Z</time>
      </trkpt>
      <trkpt lat="45.93956" lon="-0.95455">
        <ele>4.1</ele>
        <time>2022-06-21T10:32:21Z</time>
      </trkpt>
      <trkpt lat="45.93958" lon="-0.95455">
        <ele>4.1</ele>
        <time>2022-06-21T10:32:23Z</time>
      </trkpt>
      <trkpt lat="45.93959" lon="-0.95455">
        <ele>4.1</ele>
        <time>2022-06-21T10:32:24Z</time>
      </trkpt>
      <trkpt lat="45.93961" lon="-0.95455">
        <ele>4.1</ele>
        <time>2022-06-21T10:32:25Z</time>
      </trkpt>
      <trkpt lat="45.93962" lon="-0.95456">
        <ele>4.1</ele>
        <time>2022-06-21T10:32:26Z</time>
      </trkpt>
      <trkpt lat="45.93962" lon="-0.95457">
        <ele>4.1</ele>
        <time>2022-06-21T10:32:27Z</time>
      </trkpt>
      <trkpt lat="45.93963" lon="-0.95458">
        <ele>4.1</ele>
        <time>2022-06-21T10:32:28Z</time>
      </trkpt>
      <trkpt lat="45.93962" lon="-0.9546">
        <ele>4.1</ele>
        <time>2022-06-21T10:32:29Z</time>
      </trkpt>
      <trkpt lat="45.93962" lon="-0.95461">
        <ele>4.1</ele>
        <time>2022-06-21T10:32:30Z</time>
      </trkpt>
      <trkpt lat="45.93961" lon="-0.95462">
        <ele>4.1</ele>
        <time>2022-06-21T10:32:31Z</time>
      </trkpt>
      <trkpt lat="45.93961" lon="-0.95462">
        <ele>4.1</ele>
        <time>2022-06-21T10:32:32Z</time>
      </trkpt>
      <trkpt lat="45.9396" lon="-0.95462">
        <ele>4.1</ele>
        <time>2022-06-21T10:32:33Z</time>
      </trkpt>
      <trkpt lat="45.9396" lon="-0.95463">
        <ele>4.1</ele>
        <time>2022-06-21T10:32:34Z</time>
      </trkpt>
      <trkpt lat="45.93959" lon="-0.95463">
        <ele>4.1</ele>
        <time>2022-06-21T10:32:35Z</time>
      </trkpt>
      <trkpt lat="45.93959" lon="-0.95463">
        <ele>4.1</ele>
        <time>2022-06-21T10:32:36Z</time>
      </trkpt>
      <trkpt lat="45.93959" lon="-0.95463">
        <ele>4.1</ele>
        <time>2022-06-21T10:32:37Z</time>
      </trkpt>
      <trkpt lat="45.93959" lon="-0.95463">
        <ele>4.1</ele>
        <time>2022-06-21T10:32:38Z</time>
      </trkpt>
      <trkpt lat="45.93959" lon="-0.95463">
        <ele>4.1</ele>
        <time>2022-06-21T10:32:39Z</time>
      </trkpt>
      <trkpt lat="45.93959" lon="-0.95463">
        <ele>4.1</ele>
        <time>2022-06-21T10:32:40Z</time>
      </trkpt>
      <trkpt lat="45.93959" lon="-0.95463">
        <ele>4.1</ele>
        <time>2022-06-21T10:32:41Z</time>
      </trkpt>
      <trkpt lat="45.9396" lon="-0.95463">
        <ele>4.1</ele>
        <time>2022-06-21T10:32:42Z</time>
      </trkpt>
      <trkpt lat="45.9396" lon="-0.95464">
        <ele>4.1</ele>
        <time>2022-06-21T10:32:43Z</time>
      </trkpt>
      <trkpt lat="45.9396" lon="-0.95464">
        <ele>4.1</ele>
        <time>2022-06-21T10:32:44Z</time>
      </trkpt>
      <trkpt lat="45.9396" lon="-0.95465">
        <ele>4.1</ele>
        <time>2022-06-21T10:32:45Z</time>
      </trkpt>
      <trkpt lat="45.93961" lon="-0.95465">
        <ele>4.1</ele>
        <time>2022-06-21T10:32:46Z</time>
      </trkpt>
      <trkpt lat="45.93961" lon="-0.95465">
        <ele>4.1</ele>
        <time>2022-06-21T10:32:48Z</time>
      </trkpt>
      <trkpt lat="45.93962" lon="-0.95466">
        <ele>4.1</ele>
        <time>2022-06-21T10:32:49Z</time>
      </trkpt>
      <trkpt lat="45.93962" lon="-0.95466">
        <ele>4.1</ele>
        <time>2022-06-21T10:32:50Z</time>
      </trkpt>
      <trkpt lat="45.93963" lon="-0.95466">
        <ele>4.1</ele>
        <time>2022-06-21T10:32:51Z</time>
      </trkpt>
      <trkpt lat="45.93963" lon="-0.95466">
        <ele>4.1</ele>
        <time>2022-06-21T10:32:52Z</time>
      </trkpt>
      <trkpt lat="45.93964" lon="-0.95465">
        <ele>4.1</ele>
        <time>2022-06-21T10:32:53Z</time>
      </trkpt>
      <trkpt lat="45.93965" lon="-0.95465">
        <ele>4.1</ele>
        <time>2022-06-21T10:32:54Z</time>
      </trkpt>
      <trkpt lat="45.93967" lon="-0.95464">
        <ele>4.1</ele>
        <time>2022-06-21T10:32:55Z</time>
      </trkpt>
      <trkpt lat="45.93968" lon="-0.95464">
        <ele>4.1</ele>
        <time>2022-06-21T10:32:56Z</time>
      </trkpt>
      <trkpt lat="45.93969" lon="-0.95464">
        <ele>4.1</ele>
        <time>2022-06-21T10:32:58Z</time>
      </trkpt>
      <trkpt lat="45.9397" lon="-0.95464">
        <ele>4.1</ele>
        <time>2022-06-21T10:32:59Z</time>
      </trkpt>
      <trkpt lat="45.93971" lon="-0.95464">
        <ele>4.1</ele>
        <time>2022-06-21T10:33:00Z</time>
      </trkpt>
      <trkpt lat="45.93972" lon="-0.95464">
        <ele>4.1</ele>
        <time>2022-06-21T10:33:01Z</time>
      </trkpt>
      <trkpt lat="45.93973" lon="-0.95463">
        <ele>4.1</ele>
        <time>2022-06-21T10:33:02Z</time>
      </trkpt>
      <trkpt lat="45.93974" lon="-0.95463">
        <ele>4.1</ele>
        <time>2022-06-21T10:33:04Z</time>
      </trkpt>
      <trkpt lat="45.93975" lon="-0.95462">
        <ele>4.1</ele>
        <time>2022-06-21T10:33:05Z</time>
      </trkpt>
      <trkpt lat="45.93977" lon="-0.95463">
        <ele>4.1</ele>
        <time>2022-06-21T10:33:06Z</time>
      </trkpt>
      <trkpt lat="45.93978" lon="-0.95463">
        <ele>4.1</ele>
        <time>2022-06-21T10:33:07Z</time>
      </trkpt>
      <trkpt lat="45.93979" lon="-0.95463">
        <ele>4.1</ele>
        <time>2022-06-21T10:33:08Z</time>
      </trkpt>
      <trkpt lat="45.93979" lon="-0.95463">
        <ele>4.1</ele>
        <time>2022-06-21T10:33:09Z</time>
      </trkpt>
      <trkpt lat="45.9398" lon="-0.95462">
        <ele>4.1</ele>
        <time>2022-06-21T10:33:10Z</time>
      </trkpt>
      <trkpt lat="45.9398" lon="-0.95462">
        <ele>4.1</ele>
        <time>2022-06-21T10:33:11Z</time>
      </trkpt>
      <trkpt lat="45.93981" lon="-0.95462">
        <ele>4.1</ele>
        <time>2022-06-21T10:33:12Z</time>
      </trkpt>
      <trkpt lat="45.93983" lon="-0.95461">
        <ele>4.1</ele>
        <time>2022-06-21T10:33:14Z</time>
      </trkpt>
      <trkpt lat="45.93984" lon="-0.95461">
        <ele>4.1</ele>
        <time>2022-06-21T10:33:15Z</time>
      </trkpt>
      <trkpt lat="45.93985" lon="-0.95461">
        <ele>4.1</ele>
        <time>2022-06-21T10:33:16Z</time>
      </trkpt>
      <trkpt lat="45.93986" lon="-0.95461">
        <ele>4.1</ele>
        <time>2022-06-21T10:33:17Z</time>
      </trkpt>
      <trkpt lat="45.93987" lon="-0.9546">
        <ele>4.1</ele>
        <time>2022-06-21T10:33:18Z</time>
      </trkpt>
      <trkpt lat="45.93988" lon="-0.9546">
        <ele>4.1</ele>
        <time>2022-06-21T10:33:19Z</time>
      </trkpt>
      <trkpt lat="45.9399" lon="-0.9546">
        <ele>4.1</ele>
        <time>2022-06-21T10:33:21Z</time>
      </trkpt>
      <trkpt lat="45.9399" lon="-0.95459">
        <ele>4.1</ele>
        <time>2022-06-21T10:33:22Z</time>
      </trkpt>
      <trkpt lat="45.93991" lon="-0.95459">
        <ele>4.1</ele>
        <time>2022-06-21T10:33:23Z</time>
      </trkpt>
      <trkpt lat="45.93992" lon="-0.95458">
        <ele>4.1</ele>
        <time>2022-06-21T10:33:24Z</time>
      </trkpt>
      <trkpt lat="45.93994" lon="-0.95458">
        <ele>4.1</ele>
        <time>2022-06-21T10:33:25Z</time>
      </trkpt>
      <trkpt lat="45.93995" lon="-0.95457">
        <ele>4.1</ele>
        <time>2022-06-21T10:33:26Z</time>
      </trkpt>
      <trkpt lat="45.93995" lon="-0.95456">
        <ele>4.1</ele>
        <time>2022-06-21T10:33:27Z</time>
      </trkpt>
      <trkpt lat="45.93996" lon="-0.95456">
        <ele>4.1</ele>
        <time>2022-06-21T10:33:29Z</time>
      </trkpt>
      <trkpt lat="45.93997" lon="-0.95455">
        <ele>4.1</ele>
        <time>2022-06-21T10:33:30Z</time>
      </trkpt>
      <trkpt lat="45.93998" lon="-0.95454">
        <ele>4.1</ele>
        <time>2022-06-21T10:33:31Z</time>
      </trkpt>
      <trkpt lat="45.93999" lon="-0.95453">
        <ele>4.1</ele>
        <time>2022-06-21T10:33:32Z</time>
      </trkpt>
      <trkpt lat="45.94" lon="-0.95452">
        <ele>4.1</ele>
        <time>2022-06-21T10:33:33Z</time>
      </trkpt>
      <trkpt lat="45.94001" lon="-0.95451">
        <ele>4.1</ele>
        <time>2022-06-21T10:33:34Z</time>
      </trkpt>
      <trkpt lat="45.94002" lon="-0.9545">
        <ele>4.1</ele>
        <time>2022-06-21T10:33:35Z</time>
      </trkpt>
      <trkpt lat="45.94003" lon="-0.95449">
        <ele>4</ele>
        <time>2022-06-21T10:33:37Z</time>
      </trkpt>
      <trkpt lat="45.94005" lon="-0.95448">
        <ele>4</ele>
        <time>2022-06-21T10:33:38Z</time>
      </trkpt>
      <trkpt lat="45.94006" lon="-0.95447">
        <ele>4</ele>
        <time>2022-06-21T10:33:39Z</time>
      </trkpt>
      <trkpt lat="45.94007" lon="-0.95447">
        <ele>4</ele>
        <time>2022-06-21T10:33:40Z</time>
      </trkpt>
      <trkpt lat="45.94009" lon="-0.95446">
        <ele>4</ele>
        <time>2022-06-21T10:33:41Z</time>
      </trkpt>
      <trkpt lat="45.9401" lon="-0.95445">
        <ele>4</ele>
        <time>2022-06-21T10:33:42Z</time>
      </trkpt>
      <trkpt lat="45.94012" lon="-0.95444">
        <ele>4</ele>
        <time>2022-06-21T10:33:43Z</time>
      </trkpt>
      <trkpt lat="45.94013" lon="-0.95444">
        <ele>4</ele>
        <time>2022-06-21T10:33:45Z</time>
      </trkpt>
      <trkpt lat="45.94014" lon="-0.95443">
        <ele>4</ele>
        <time>2022-06-21T10:33:46Z</time>
      </trkpt>
      <trkpt lat="45.94015" lon="-0.95443">
        <ele>4</ele>
        <time>2022-06-21T10:33:47Z</time>
      </trkpt>
      <trkpt lat="45.94017" lon="-0.95442">
        <ele>4</ele>
        <time>2022-06-21T10:33:48Z</time>
      </trkpt>
      <trkpt lat="45.94018" lon="-0.95442">
        <ele>4</ele>
        <time>2022-06-21T10:33:49Z</time>
      </trkpt>
      <trkpt lat="45.94021" lon="-0.9544">
        <ele>4</ele>
        <time>2022-06-21T10:33:51Z</time>
      </trkpt>
      <trkpt lat="45.94021" lon="-0.9544">
        <ele>4</ele>
        <time>2022-06-21T10:33:52Z</time>
      </trkpt>
      <trkpt lat="45.94022" lon="-0.95439">
        <ele>4</ele>
        <time>2022-06-21T10:33:53Z</time>
      </trkpt>
      <trkpt lat="45.94024" lon="-0.95439">
        <ele>4</ele>
        <time>2022-06-21T10:33:54Z</time>
      </trkpt>
      <trkpt lat="45.94025" lon="-0.95438">
        <ele>4</ele>
        <time>2022-06-21T10:33:55Z</time>
      </trkpt>
      <trkpt lat="45.94027" lon="-0.95437">
        <ele>4</ele>
        <time>2022-06-21T10:33:57Z</time>
      </trkpt>
      <trkpt lat="45.94027" lon="-0.95436">
        <ele>4</ele>
        <time>2022-06-21T10:33:58Z</time>
      </trkpt>
      <trkpt lat="45.94028" lon="-0.95436">
        <ele>4</ele>
        <time>2022-06-21T10:33:59Z</time>
      </trkpt>
      <trkpt lat="45.9403" lon="-0.95435">
        <ele>4</ele>
        <time>2022-06-21T10:34:00Z</time>
      </trkpt>
      <trkpt lat="45.94032" lon="-0.95434">
        <ele>4</ele>
        <time>2022-06-21T10:34:02Z</time>
      </trkpt>
      <trkpt lat="45.94033" lon="-0.95434">
        <ele>4</ele>
        <time>2022-06-21T10:34:03Z</time>
      </trkpt>
      <trkpt lat="45.94034" lon="-0.95434">
        <ele>4</ele>
        <time>2022-06-21T10:34:04Z</time>
      </trkpt>
      <trkpt lat="45.94036" lon="-0.95433">
        <ele>4</ele>
        <time>2022-06-21T10:34:05Z</time>
      </trkpt>
      <trkpt lat="45.94038" lon="-0.95433">
        <ele>4</ele>
        <time>2022-06-21T10:34:07Z</time>
      </trkpt>
      <trkpt lat="45.94039" lon="-0.95433">
        <ele>4</ele>
        <time>2022-06-21T10:34:08Z</time>
      </trkpt>
      <trkpt lat="45.94041" lon="-0.95433">
        <ele>4</ele>
        <time>2022-06-21T10:34:09Z</time>
      </trkpt>
      <trkpt lat="45.94042" lon="-0.95432">
        <ele>4</ele>
        <time>2022-06-21T10:34:10Z</time>
      </trkpt>
      <trkpt lat="45.94043" lon="-0.95432">
        <ele>4</ele>
        <time>2022-06-21T10:34:11Z</time>
      </trkpt>
      <trkpt lat="45.94045" lon="-0.95432">
        <ele>4</ele>
        <time>2022-06-21T10:34:13Z</time>
      </trkpt>
      <trkpt lat="45.94046" lon="-0.95432">
        <ele>4</ele>
        <time>2022-06-21T10:34:14Z</time>
      </trkpt>
      <trkpt lat="45.94046" lon="-0.95431">
        <ele>4</ele>
        <time>2022-06-21T10:34:15Z</time>
      </trkpt>
      <trkpt lat="45.94048" lon="-0.95431">
        <ele>4</ele>
        <time>2022-06-21T10:34:16Z</time>
      </trkpt>
      <trkpt lat="45.94049" lon="-0.9543">
        <ele>4</ele>
        <time>2022-06-21T10:34:17Z</time>
      </trkpt>
      <trkpt lat="45.9405" lon="-0.95429">
        <ele>4</ele>
        <time>2022-06-21T10:34:19Z</time>
      </trkpt>
      <trkpt lat="45.9405" lon="-0.95428">
        <ele>4</ele>
        <time>2022-06-21T10:34:20Z</time>
      </trkpt>
      <trkpt lat="45.94052" lon="-0.95427">
        <ele>4</ele>
        <time>2022-06-21T10:34:21Z</time>
      </trkpt>
      <trkpt lat="45.94053" lon="-0.95427">
        <ele>4</ele>
        <time>2022-06-21T10:34:22Z</time>
      </trkpt>
      <trkpt lat="45.94053" lon="-0.95426">
        <ele>4</ele>
        <time>2022-06-21T10:34:23Z</time>
      </trkpt>
      <trkpt lat="45.94055" lon="-0.95425">
        <ele>4</ele>
        <time>2022-06-21T10:34:24Z</time>
      </trkpt>
      <trkpt lat="45.94056" lon="-0.95424">
        <ele>4</ele>
        <time>2022-06-21T10:34:26Z</time>
      </trkpt>
      <trkpt lat="45.94057" lon="-0.95423">
        <ele>4</ele>
        <time>2022-06-21T10:34:27Z</time>
      </trkpt>
      <trkpt lat="45.94059" lon="-0.95423">
        <ele>4</ele>
        <time>2022-06-21T10:34:28Z</time>
      </trkpt>
      <trkpt lat="45.9406" lon="-0.95422">
        <ele>4</ele>
        <time>2022-06-21T10:34:29Z</time>
      </trkpt>
      <trkpt lat="45.94062" lon="-0.95422">
        <ele>4</ele>
        <time>2022-06-21T10:34:30Z</time>
      </trkpt>
      <trkpt lat="45.94063" lon="-0.95422">
        <ele>4</ele>
        <time>2022-06-21T10:34:32Z</time>
      </trkpt>
      <trkpt lat="45.94064" lon="-0.95422">
        <ele>4</ele>
        <time>2022-06-21T10:34:33Z</time>
      </trkpt>
      <trkpt lat="45.94066" lon="-0.95422">
        <ele>4</ele>
        <time>2022-06-21T10:34:34Z</time>
      </trkpt>
      <trkpt lat="45.94066" lon="-0.95422">
        <ele>4</ele>
        <time>2022-06-21T10:34:35Z</time>
      </trkpt>
      <trkpt lat="45.94067" lon="-0.95421">
        <ele>4.1</ele>
        <time>2022-06-21T10:34:36Z</time>
      </trkpt>
      <trkpt lat="45.94068" lon="-0.95421">
        <ele>4.1</ele>
        <time>2022-06-21T10:34:37Z</time>
      </trkpt>
      <trkpt lat="45.94069" lon="-0.95421">
        <ele>4.1</ele>
        <time>2022-06-21T10:34:39Z</time>
      </trkpt>
      <trkpt lat="45.9407" lon="-0.9542">
        <ele>4.1</ele>
        <time>2022-06-21T10:34:40Z</time>
      </trkpt>
      <trkpt lat="45.94071" lon="-0.9542">
        <ele>4.1</ele>
        <time>2022-06-21T10:34:41Z</time>
      </trkpt>
      <trkpt lat="45.94072" lon="-0.95419">
        <ele>4.1</ele>
        <time>2022-06-21T10:34:42Z</time>
      </trkpt>
      <trkpt lat="45.94073" lon="-0.95419">
        <ele>4.1</ele>
        <time>2022-06-21T10:34:43Z</time>
      </trkpt>
      <trkpt lat="45.94074" lon="-0.95419">
        <ele>4.1</ele>
        <time>2022-06-21T10:34:44Z</time>
      </trkpt>
      <trkpt lat="45.94074" lon="-0.95418">
        <ele>4.1</ele>
        <time>2022-06-21T10:34:45Z</time>
      </trkpt>
      <trkpt lat="45.94075" lon="-0.95418">
        <ele>4.1</ele>
        <time>2022-06-21T10:34:46Z</time>
      </trkpt>
      <trkpt lat="45.94076" lon="-0.95418">
        <ele>4.1</ele>
        <time>2022-06-21T10:34:47Z</time>
      </trkpt>
      <trkpt lat="45.94077" lon="-0.95417">
        <ele>4.1</ele>
        <time>2022-06-21T10:34:48Z</time>
      </trkpt>
      <trkpt lat="45.94078" lon="-0.95417">
        <ele>4.1</ele>
        <time>2022-06-21T10:34:49Z</time>
      </trkpt>
      <trkpt lat="45.94079" lon="-0.95416">
        <ele>4.1</ele>
        <time>2022-06-21T10:34:51Z</time>
      </trkpt>
      <trkpt lat="45.9408" lon="-0.95415">
        <ele>4.1</ele>
        <time>2022-06-21T10:34:52Z</time>
      </trkpt>
      <trkpt lat="45.9408" lon="-0.95415">
        <ele>4.1</ele>
        <time>2022-06-21T10:34:53Z</time>
      </trkpt>
      <trkpt lat="45.94079" lon="-0.95414">
        <ele>4.1</ele>
        <time>2022-06-21T10:34:54Z</time>
      </trkpt>
      <trkpt lat="45.94078" lon="-0.95414">
        <ele>4.1</ele>
        <time>2022-06-21T10:34:55Z</time>
      </trkpt>
      <trkpt lat="45.94077" lon="-0.95413">
        <ele>4.1</ele>
        <time>2022-06-21T10:34:56Z</time>
      </trkpt>
      <trkpt lat="45.94077" lon="-0.95413">
        <ele>4.1</ele>
        <time>2022-06-21T10:34:57Z</time>
      </trkpt>
      <trkpt lat="45.94076" lon="-0.95413">
        <ele>4.1</ele>
        <time>2022-06-21T10:34:58Z</time>
      </trkpt>
      <trkpt lat="45.94075" lon="-0.95413">
        <ele>4.1</ele>
        <time>2022-06-21T10:34:59Z</time>
      </trkpt>
      <trkpt lat="45.94075" lon="-0.95413">
        <ele>4.1</ele>
        <time>2022-06-21T10:35:00Z</time>
      </trkpt>
      <trkpt lat="45.94075" lon="-0.95413">
        <ele>4.1</ele>
        <time>2022-06-21T10:35:01Z</time>
      </trkpt>
      <trkpt lat="45.94075" lon="-0.95413">
        <ele>4.1</ele>
        <time>2022-06-21T10:35:02Z</time>
      </trkpt>
      <trkpt lat="45.94076" lon="-0.95413">
        <ele>4.1</ele>
        <time>2022-06-21T10:35:03Z</time>
      </trkpt>
      <trkpt lat="45.94076" lon="-0.95413">
        <ele>4.1</ele>
        <time>2022-06-21T10:35:04Z</time>
      </trkpt>
      <trkpt lat="45.94076" lon="-0.95413">
        <ele>4.1</ele>
        <time>2022-06-21T10:35:05Z</time>
      </trkpt>
      <trkpt lat="45.94077" lon="-0.95413">
        <ele>4.1</ele>
        <time>2022-06-21T10:35:06Z</time>
      </trkpt>
      <trkpt lat="45.94078" lon="-0.95413">
        <ele>4.1</ele>
        <time>2022-06-21T10:35:07Z</time>
      </trkpt>
      <trkpt lat="45.94079" lon="-0.95413">
        <ele>4.1</ele>
        <time>2022-06-21T10:35:09Z</time>
      </trkpt>
      <trkpt lat="45.9408" lon="-0.95414">
        <ele>4.1</ele>
        <time>2022-06-21T10:35:10Z</time>
      </trkpt>
      <trkpt lat="45.94081" lon="-0.95414">
        <ele>4.1</ele>
        <time>2022-06-21T10:35:11Z</time>
      </trkpt>
      <trkpt lat="45.94082" lon="-0.95414">
        <ele>4.1</ele>
        <time>2022-06-21T10:35:12Z</time>
      </trkpt>
      <trkpt lat="45.94083" lon="-0.95415">
        <ele>4.1</ele>
        <time>2022-06-21T10:35:13Z</time>
      </trkpt>
      <trkpt lat="45.94085" lon="-0.95415">
        <ele>4.2</ele>
        <time>2022-06-21T10:35:15Z</time>
      </trkpt>
      <trkpt lat="45.94086" lon="-0.95416">
        <ele>4.2</ele>
        <time>2022-06-21T10:35:16Z</time>
      </trkpt>
      <trkpt lat="45.94087" lon="-0.95417">
        <ele>4.2</ele>
        <time>2022-06-21T10:35:17Z</time>
      </trkpt>
      <trkpt lat="45.94088" lon="-0.95417">
        <ele>4.2</ele>
        <time>2022-06-21T10:35:18Z</time>
      </trkpt>
      <trkpt lat="45.94089" lon="-0.95419">
        <ele>4.2</ele>
        <time>2022-06-21T10:35:19Z</time>
      </trkpt>
      <trkpt lat="45.9409" lon="-0.9542">
        <ele>4.2</ele>
        <time>2022-06-21T10:35:21Z</time>
      </trkpt>
      <trkpt lat="45.94091" lon="-0.95422">
        <ele>4.2</ele>
        <time>2022-06-21T10:35:22Z</time>
      </trkpt>
      <trkpt lat="45.94092" lon="-0.95424">
        <ele>4.2</ele>
        <time>2022-06-21T10:35:23Z</time>
      </trkpt>
      <trkpt lat="45.94093" lon="-0.95426">
        <ele>4.2</ele>
        <time>2022-06-21T10:35:25Z</time>
      </trkpt>
      <trkpt lat="45.94095" lon="-0.95427">
        <ele>4.2</ele>
        <time>2022-06-21T10:35:26Z</time>
      </trkpt>
      <trkpt lat="45.94096" lon="-0.95428">
        <ele>4.2</ele>
        <time>2022-06-21T10:35:28Z</time>
      </trkpt>
      <trkpt lat="45.94097" lon="-0.95428">
        <ele>4.2</ele>
        <time>2022-06-21T10:35:29Z</time>
      </trkpt>
      <trkpt lat="45.94098" lon="-0.95429">
        <ele>4.2</ele>
        <time>2022-06-21T10:35:30Z</time>
      </trkpt>
      <trkpt lat="45.94099" lon="-0.95429">
        <ele>4.2</ele>
        <time>2022-06-21T10:35:32Z</time>
      </trkpt>
      <trkpt lat="45.941" lon="-0.9543">
        <ele>4.2</ele>
        <time>2022-06-21T10:35:33Z</time>
      </trkpt>
      <trkpt lat="45.941" lon="-0.9543">
        <ele>4.2</ele>
        <time>2022-06-21T10:35:34Z</time>
      </trkpt>
      <trkpt lat="45.941" lon="-0.9543">
        <ele>4.2</ele>
        <time>2022-06-21T10:35:35Z</time>
      </trkpt>
      <trkpt lat="45.941" lon="-0.9543">
        <ele>4.2</ele>
        <time>2022-06-21T10:35:36Z</time>
      </trkpt>
      <trkpt lat="45.941" lon="-0.95431">
        <ele>4.2</ele>
        <time>2022-06-21T10:35:37Z</time>
      </trkpt>
      <trkpt lat="45.941" lon="-0.95431">
        <ele>4.2</ele>
        <time>2022-06-21T10:35:38Z</time>
      </trkpt>
      <trkpt lat="45.941" lon="-0.9543">
        <ele>4.2</ele>
        <time>2022-06-21T10:35:39Z</time>
      </trkpt>
      <trkpt lat="45.941" lon="-0.9543">
        <ele>4.2</ele>
        <time>2022-06-21T10:35:40Z</time>
      </trkpt>
      <trkpt lat="45.941" lon="-0.9543">
        <ele>4.2</ele>
        <time>2022-06-21T10:35:41Z</time>
      </trkpt>
      <trkpt lat="45.94101" lon="-0.9543">
        <ele>4.2</ele>
        <time>2022-06-21T10:35:42Z</time>
      </trkpt>
      <trkpt lat="45.94101" lon="-0.9543">
        <ele>4.2</ele>
        <time>2022-06-21T10:35:43Z</time>
      </trkpt>
      <trkpt lat="45.94102" lon="-0.9543">
        <ele>4.2</ele>
        <time>2022-06-21T10:35:44Z</time>
      </trkpt>
      <trkpt lat="45.94102" lon="-0.95429">
        <ele>4.2</ele>
        <time>2022-06-21T10:35:46Z</time>
      </trkpt>
      <trkpt lat="45.94103" lon="-0.95429">
        <ele>4.2</ele>
        <time>2022-06-21T10:35:47Z</time>
      </trkpt>
      <trkpt lat="45.94103" lon="-0.95428">
        <ele>4.2</ele>
        <time>2022-06-21T10:35:48Z</time>
      </trkpt>
      <trkpt lat="45.94104" lon="-0.95428">
        <ele>4.2</ele>
        <time>2022-06-21T10:35:49Z</time>
      </trkpt>
      <trkpt lat="45.94105" lon="-0.95429">
        <ele>4.2</ele>
        <time>2022-06-21T10:35:50Z</time>
      </trkpt>
      <trkpt lat="45.94106" lon="-0.95429">
        <ele>4.2</ele>
        <time>2022-06-21T10:35:51Z</time>
      </trkpt>
      <trkpt lat="45.94106" lon="-0.9543">
        <ele>4.2</ele>
        <time>2022-06-21T10:35:52Z</time>
      </trkpt>
      <trkpt lat="45.94108" lon="-0.9543">
        <ele>4.2</ele>
        <time>2022-06-21T10:35:53Z</time>
      </trkpt>
      <trkpt lat="45.94109" lon="-0.9543">
        <ele>4.2</ele>
        <time>2022-06-21T10:35:55Z</time>
      </trkpt>
      <trkpt lat="45.94109" lon="-0.9543">
        <ele>4.2</ele>
        <time>2022-06-21T10:35:56Z</time>
      </trkpt>
      <trkpt lat="45.9411" lon="-0.95431">
        <ele>4.2</ele>
        <time>2022-06-21T10:35:57Z</time>
      </trkpt>
      <trkpt lat="45.94111" lon="-0.95431">
        <ele>4.2</ele>
        <time>2022-06-21T10:35:58Z</time>
      </trkpt>
      <trkpt lat="45.94112" lon="-0.95431">
        <ele>4.2</ele>
        <time>2022-06-21T10:35:59Z</time>
      </trkpt>
      <trkpt lat="45.94112" lon="-0.95431">
        <ele>4.3</ele>
        <time>2022-06-21T10:36:00Z</time>
      </trkpt>
      <trkpt lat="45.94113" lon="-0.95432">
        <ele>4.3</ele>
        <time>2022-06-21T10:36:01Z</time>
      </trkpt>
      <trkpt lat="45.94114" lon="-0.95433">
        <ele>4.3</ele>
        <time>2022-06-21T10:36:02Z</time>
      </trkpt>
      <trkpt lat="45.94114" lon="-0.95434">
        <ele>4.3</ele>
        <time>2022-06-21T10:36:03Z</time>
      </trkpt>
      <trkpt lat="45.94115" lon="-0.95434">
        <ele>4.3</ele>
        <time>2022-06-21T10:36:04Z</time>
      </trkpt>
      <trkpt lat="45.94116" lon="-0.95434">
        <ele>4.3</ele>
        <time>2022-06-21T10:36:06Z</time>
      </trkpt>
      <trkpt lat="45.94117" lon="-0.95435">
        <ele>4.3</ele>
        <time>2022-06-21T10:36:07Z</time>
      </trkpt>
      <trkpt lat="45.94118" lon="-0.95434">
        <ele>4.3</ele>
        <time>2022-06-21T10:36:08Z</time>
      </trkpt>
      <trkpt lat="45.94119" lon="-0.95434">
        <ele>4.3</ele>
        <time>2022-06-21T10:36:09Z</time>
      </trkpt>
      <trkpt lat="45.94119" lon="-0.95434">
        <ele>4.3</ele>
        <time>2022-06-21T10:36:11Z</time>
      </trkpt>
      <trkpt lat="45.9412" lon="-0.95434">
        <ele>4.3</ele>
        <time>2022-06-21T10:36:12Z</time>
      </trkpt>
      <trkpt lat="45.9412" lon="-0.95434">
        <ele>4.3</ele>
        <time>2022-06-21T10:36:13Z</time>
      </trkpt>
      <trkpt lat="45.94121" lon="-0.95434">
        <ele>4.3</ele>
        <time>2022-06-21T10:36:14Z</time>
      </trkpt>
      <trkpt lat="45.94121" lon="-0.95434">
        <ele>4.3</ele>
        <time>2022-06-21T10:36:16Z</time>
      </trkpt>
      <trkpt lat="45.94121" lon="-0.95433">
        <ele>4.3</ele>
        <time>2022-06-21T10:36:17Z</time>
      </trkpt>
      <trkpt lat="45.94122" lon="-0.95433">
        <ele>4.3</ele>
        <time>2022-06-21T10:36:18Z</time>
      </trkpt>
      <trkpt lat="45.94122" lon="-0.95432">
        <ele>4.3</ele>
        <time>2022-06-21T10:36:20Z</time>
      </trkpt>
      <trkpt lat="45.94123" lon="-0.95432">
        <ele>4.3</ele>
        <time>2022-06-21T10:36:21Z</time>
      </trkpt>
      <trkpt lat="45.94123" lon="-0.95432">
        <ele>4.3</ele>
        <time>2022-06-21T10:36:22Z</time>
      </trkpt>
      <trkpt lat="45.94123" lon="-0.95432">
        <ele>4.3</ele>
        <time>2022-06-21T10:36:23Z</time>
      </trkpt>
      <trkpt lat="45.94124" lon="-0.95432">
        <ele>4.3</ele>
        <time>2022-06-21T10:36:24Z</time>
      </trkpt>
      <trkpt lat="45.94124" lon="-0.95432">
        <ele>4.3</ele>
        <time>2022-06-21T10:36:25Z</time>
      </trkpt>
      <trkpt lat="45.94124" lon="-0.95432">
        <ele>4.3</ele>
        <time>2022-06-21T10:36:26Z</time>
      </trkpt>
      <trkpt lat="45.94124" lon="-0.95431">
        <ele>4.3</ele>
        <time>2022-06-21T10:36:27Z</time>
      </trkpt>
      <trkpt lat="45.94124" lon="-0.95431">
        <ele>4.3</ele>
        <time>2022-06-21T10:36:28Z</time>
      </trkpt>
      <trkpt lat="45.94124" lon="-0.95431">
        <ele>4.3</ele>
        <time>2022-06-21T10:36:29Z</time>
      </trkpt>
      <trkpt lat="45.94124" lon="-0.95431">
        <ele>4.3</ele>
        <time>2022-06-21T10:36:30Z</time>
      </trkpt>
      <trkpt lat="45.94124" lon="-0.95431">
        <ele>4.3</ele>
        <time>2022-06-21T10:36:31Z</time>
      </trkpt>
      <trkpt lat="45.94124" lon="-0.95431">
        <ele>4.3</ele>
        <time>2022-06-21T10:36:32Z</time>
      </trkpt>
      <trkpt lat="45.94124" lon="-0.95431">
        <ele>4.3</ele>
        <time>2022-06-21T10:36:33Z</time>
      </trkpt>
      <trkpt lat="45.94124" lon="-0.95431">
        <ele>4.3</ele>
        <time>2022-06-21T10:36:34Z</time>
      </trkpt>
      <trkpt lat="45.94124" lon="-0.95431">
        <ele>4.3</ele>
        <time>2022-06-21T10:36:35Z</time>
      </trkpt>
      <trkpt lat="45.94124" lon="-0.95431">
        <ele>4.3</ele>
        <time>2022-06-21T10:36:36Z</time>
      </trkpt>
      <trkpt lat="45.94124" lon="-0.95431">
        <ele>4.3</ele>
        <time>2022-06-21T10:36:37Z</time>
      </trkpt>
      <trkpt lat="45.94124" lon="-0.95431">
        <ele>4.3</ele>
        <time>2022-06-21T10:36:38Z</time>
      </trkpt>
      <trkpt lat="45.94124" lon="-0.95431">
        <ele>4.3</ele>
        <time>2022-06-21T10:36:39Z</time>
      </trkpt>
      <trkpt lat="45.94124" lon="-0.95431">
        <ele>4.3</ele>
        <time>2022-06-21T10:36:40Z</time>
      </trkpt>
      <trkpt lat="45.94124" lon="-0.95431">
        <ele>4.3</ele>
        <time>2022-06-21T10:36:41Z</time>
      </trkpt>
      <trkpt lat="45.94124" lon="-0.95431">
        <ele>4.3</ele>
        <time>2022-06-21T10:36:42Z</time>
      </trkpt>
      <trkpt lat="45.94124" lon="-0.95431">
        <ele>4.3</ele>
        <time>2022-06-21T10:36:43Z</time>
      </trkpt>
      <trkpt lat="45.94123" lon="-0.95431">
        <ele>4.3</ele>
        <time>2022-06-21T10:36:44Z</time>
      </trkpt>
      <trkpt lat="45.94123" lon="-0.95431">
        <ele>4.3</ele>
        <time>2022-06-21T10:36:45Z</time>
      </trkpt>
      <trkpt lat="45.94123" lon="-0.95431">
        <ele>4.3</ele>
        <time>2022-06-21T10:36:46Z</time>
      </trkpt>
      <trkpt lat="45.94123" lon="-0.95431">
        <ele>4.3</ele>
        <time>2022-06-21T10:36:47Z</time>
      </trkpt>
      <trkpt lat="45.94123" lon="-0.95431">
        <ele>4.3</ele>
        <time>2022-06-21T10:36:48Z</time>
      </trkpt>
      <trkpt lat="45.94123" lon="-0.95431">
        <ele>4.3</ele>
        <time>2022-06-21T10:36:49Z</time>
      </trkpt>
      <trkpt lat="45.94123" lon="-0.95431">
        <ele>4.3</ele>
        <time>2022-06-21T10:36:50Z</time>
      </trkpt>
      <trkpt lat="45.94123" lon="-0.95431">
        <ele>4.3</ele>
        <time>2022-06-21T10:36:51Z</time>
      </trkpt>
      <trkpt lat="45.94123" lon="-0.95431">
        <ele>4.3</ele>
        <time>2022-06-21T10:36:52Z</time>
      </trkpt>
      <trkpt lat="45.94123" lon="-0.95431">
        <ele>4.3</ele>
        <time>2022-06-21T10:36:53Z</time>
      </trkpt>
      <trkpt lat="45.94123" lon="-0.95431">
        <ele>4.3</ele>
        <time>2022-06-21T10:36:54Z</time>
      </trkpt>
      <trkpt lat="45.94123" lon="-0.95431">
        <ele>4.3</ele>
        <time>2022-06-21T10:36:55Z</time>
      </trkpt>
      <trkpt lat="45.94123" lon="-0.95431">
        <ele>4.3</ele>
        <time>2022-06-21T10:36:56Z</time>
      </trkpt>
      <trkpt lat="45.94123" lon="-0.95431">
        <ele>4.3</ele>
        <time>2022-06-21T10:36:57Z</time>
      </trkpt>
      <trkpt lat="45.94123" lon="-0.95431">
        <ele>4.3</ele>
        <time>2022-06-21T10:36:58Z</time>
      </trkpt>
      <trkpt lat="45.94123" lon="-0.95431">
        <ele>4.3</ele>
        <time>2022-06-21T10:36:59Z</time>
      </trkpt>
      <trkpt lat="45.94123" lon="-0.95431">
        <ele>4.3</ele>
        <time>2022-06-21T10:37:00Z</time>
      </trkpt>
      <trkpt lat="45.94123" lon="-0.95431">
        <ele>4.3</ele>
        <time>2022-06-21T10:37:01Z</time>
      </trkpt>
      <trkpt lat="45.94123" lon="-0.95431">
        <ele>4.3</ele>
        <time>2022-06-21T10:37:02Z</time>
      </trkpt>
      <trkpt lat="45.94125" lon="-0.9543">
        <ele>4.3</ele>
        <time>2022-06-21T10:37:03Z</time>
      </trkpt>
      <trkpt lat="45.94126" lon="-0.95429">
        <ele>4.3</ele>
        <time>2022-06-21T10:37:04Z</time>
      </trkpt>
      <trkpt lat="45.94125" lon="-0.95431">
        <ele>4.3</ele>
        <time>2022-06-21T10:37:06Z</time>
      </trkpt>
      <trkpt lat="45.94125" lon="-0.95432">
        <ele>4.3</ele>
        <time>2022-06-21T10:37:07Z</time>
      </trkpt>
      <trkpt lat="45.94126" lon="-0.95432">
        <ele>4.3</ele>
        <time>2022-06-21T10:37:08Z</time>
      </trkpt>
      <trkpt lat="45.94126" lon="-0.95432">
        <ele>4.3</ele>
        <time>2022-06-21T10:37:09Z</time>
      </trkpt>
      <trkpt lat="45.94127" lon="-0.95432">
        <ele>4.3</ele>
        <time>2022-06-21T10:37:10Z</time>
      </trkpt>
      <trkpt lat="45.94127" lon="-0.95431">
        <ele>4.3</ele>
        <time>2022-06-21T10:37:11Z</time>
      </trkpt>
      <trkpt lat="45.94127" lon="-0.95431">
        <ele>4.3</ele>
        <time>2022-06-21T10:37:12Z</time>
      </trkpt>
      <trkpt lat="45.94127" lon="-0.95431">
        <ele>4.3</ele>
        <time>2022-06-21T10:37:13Z</time>
      </trkpt>
      <trkpt lat="45.94127" lon="-0.9543">
        <ele>4.3</ele>
        <time>2022-06-21T10:37:14Z</time>
      </trkpt>
      <trkpt lat="45.94127" lon="-0.9543">
        <ele>4.3</ele>
        <time>2022-06-21T10:37:15Z</time>
      </trkpt>
      <trkpt lat="45.94127" lon="-0.9543">
        <ele>4.3</ele>
        <time>2022-06-21T10:37:16Z</time>
      </trkpt>
      <trkpt lat="45.94126" lon="-0.95431">
        <ele>4.3</ele>
        <time>2022-06-21T10:37:17Z</time>
      </trkpt>
      <trkpt lat="45.94126" lon="-0.95431">
        <ele>4.3</ele>
        <time>2022-06-21T10:37:18Z</time>
      </trkpt>
      <trkpt lat="45.94126" lon="-0.95431">
        <ele>4.3</ele>
        <time>2022-06-21T10:37:19Z</time>
      </trkpt>
      <trkpt lat="45.94126" lon="-0.95432">
        <ele>4.3</ele>
        <time>2022-06-21T10:37:21Z</time>
      </trkpt>
      <trkpt lat="45.94126" lon="-0.95432">
        <ele>4.3</ele>
        <time>2022-06-21T10:37:22Z</time>
      </trkpt>
      <trkpt lat="45.94126" lon="-0.95432">
        <ele>4.3</ele>
        <time>2022-06-21T10:37:23Z</time>
      </trkpt>
      <trkpt lat="45.94126" lon="-0.95432">
        <ele>4.3</ele>
        <time>2022-06-21T10:37:24Z</time>
      </trkpt>
      <trkpt lat="45.94126" lon="-0.95432">
        <ele>4.3</ele>
        <time>2022-06-21T10:37:25Z</time>
      </trkpt>
      <trkpt lat="45.94126" lon="-0.95432">
        <ele>4.3</ele>
        <time>2022-06-21T10:37:26Z</time>
      </trkpt>
      <trkpt lat="45.94126" lon="-0.95433">
        <ele>4.3</ele>
        <time>2022-06-21T10:37:27Z</time>
      </trkpt>
      <trkpt lat="45.94126" lon="-0.95433">
        <ele>4.3</ele>
        <time>2022-06-21T10:37:29Z</time>
      </trkpt>
      <trkpt lat="45.94126" lon="-0.95433">
        <ele>4.3</ele>
        <time>2022-06-21T10:37:30Z</time>
      </trkpt>
      <trkpt lat="45.94126" lon="-0.95432">
        <ele>4.3</ele>
        <time>2022-06-21T10:37:31Z</time>
      </trkpt>
      <trkpt lat="45.94126" lon="-0.95432">
        <ele>4.3</ele>
        <time>2022-06-21T10:37:32Z</time>
      </trkpt>
      <trkpt lat="45.94127" lon="-0.95432">
        <ele>4.3</ele>
        <time>2022-06-21T10:37:33Z</time>
      </trkpt>
      <trkpt lat="45.94127" lon="-0.95432">
        <ele>4.3</ele>
        <time>2022-06-21T10:37:34Z</time>
      </trkpt>
      <trkpt lat="45.94127" lon="-0.95432">
        <ele>4.3</ele>
        <time>2022-06-21T10:37:35Z</time>
      </trkpt>
      <trkpt lat="45.94127" lon="-0.95432">
        <ele>4.3</ele>
        <time>2022-06-21T10:37:36Z</time>
      </trkpt>
      <trkpt lat="45.94127" lon="-0.95432">
        <ele>4.3</ele>
        <time>2022-06-21T10:37:37Z</time>
      </trkpt>
      <trkpt lat="45.94127" lon="-0.95432">
        <ele>4.3</ele>
        <time>2022-06-21T10:37:38Z</time>
      </trkpt>
      <trkpt lat="45.94127" lon="-0.95432">
        <ele>4.3</ele>
        <time>2022-06-21T10:37:39Z</time>
      </trkpt>
      <trkpt lat="45.94127" lon="-0.95432">
        <ele>4.3</ele>
        <time>2022-06-21T10:37:40Z</time>
      </trkpt>
      <trkpt lat="45.94127" lon="-0.95432">
        <ele>4.3</ele>
        <time>2022-06-21T10:37:41Z</time>
      </trkpt>
      <trkpt lat="45.94127" lon="-0.95432">
        <ele>4.3</ele>
        <time>2022-06-21T10:37:42Z</time>
      </trkpt>
      <trkpt lat="45.94127" lon="-0.95432">
        <ele>4.3</ele>
        <time>2022-06-21T10:37:43Z</time>
      </trkpt>
      <trkpt lat="45.94127" lon="-0.95432">
        <ele>4.3</ele>
        <time>2022-06-21T10:37:44Z</time>
      </trkpt>
      <trkpt lat="45.94127" lon="-0.95432">
        <ele>4.3</ele>
        <time>2022-06-21T10:37:45Z</time>
      </trkpt>
      <trkpt lat="45.94127" lon="-0.95432">
        <ele>4.3</ele>
        <time>2022-06-21T10:37:46Z</time>
      </trkpt>
      <trkpt lat="45.94127" lon="-0.95432">
        <ele>4.3</ele>
        <time>2022-06-21T10:37:47Z</time>
      </trkpt>
      <trkpt lat="45.94127" lon="-0.95432">
        <ele>4.3</ele>
        <time>2022-06-21T10:37:48Z</time>
      </trkpt>
      <trkpt lat="45.94127" lon="-0.95432">
        <ele>4.3</ele>
        <time>2022-06-21T10:37:49Z</time>
      </trkpt>
      <trkpt lat="45.94127" lon="-0.95432">
        <ele>4.3</ele>
        <time>2022-06-21T10:37:50Z</time>
      </trkpt>
      <trkpt lat="45.94127" lon="-0.95432">
        <ele>4.3</ele>
        <time>2022-06-21T10:37:51Z</time>
      </trkpt>
      <trkpt lat="45.94127" lon="-0.95432">
        <ele>4.3</ele>
        <time>2022-06-21T10:37:52Z</time>
      </trkpt>
      <trkpt lat="45.94127" lon="-0.95432">
        <ele>4.3</ele>
        <time>2022-06-21T10:37:53Z</time>
      </trkpt>
      <trkpt lat="45.94127" lon="-0.95432">
        <ele>4.3</ele>
        <time>2022-06-21T10:37:54Z</time>
      </trkpt>
      <trkpt lat="45.94127" lon="-0.95432">
        <ele>4.3</ele>
        <time>2022-06-21T10:37:55Z</time>
      </trkpt>
      <trkpt lat="45.94127" lon="-0.95432">
        <ele>4.3</ele>
        <time>2022-06-21T10:37:56Z</time>
      </trkpt>
      <trkpt lat="45.94127" lon="-0.95432">
        <ele>4.3</ele>
        <time>2022-06-21T10:37:57Z</time>
      </trkpt>
      <trkpt lat="45.94127" lon="-0.95432">
        <ele>4.3</ele>
        <time>2022-06-21T10:37:58Z</time>
      </trkpt>
      <trkpt lat="45.94127" lon="-0.95432">
        <ele>4.3</ele>
        <time>2022-06-21T10:37:59Z</time>
      </trkpt>
      <trkpt lat="45.94127" lon="-0.95432">
        <ele>4.3</ele>
        <time>2022-06-21T10:38:00Z</time>
      </trkpt>
      <trkpt lat="45.94127" lon="-0.95432">
        <ele>4.3</ele>
        <time>2022-06-21T10:38:01Z</time>
      </trkpt>
      <trkpt lat="45.94127" lon="-0.95432">
        <ele>4.3</ele>
        <time>2022-06-21T10:38:02Z</time>
      </trkpt>
      <trkpt lat="45.94127" lon="-0.95432">
        <ele>4.3</ele>
        <time>2022-06-21T10:38:03Z</time>
      </trkpt>
      <trkpt lat="45.94127" lon="-0.95432">
        <ele>4.3</ele>
        <time>2022-06-21T10:38:04Z</time>
      </trkpt>
      <trkpt lat="45.94127" lon="-0.95432">
        <ele>4.3</ele>
        <time>2022-06-21T10:38:05Z</time>
      </trkpt>
      <trkpt lat="45.94127" lon="-0.95432">
        <ele>4.3</ele>
        <time>2022-06-21T10:38:06Z</time>
      </trkpt>
      <trkpt lat="45.94127" lon="-0.95432">
        <ele>4.3</ele>
        <time>2022-06-21T10:38:07Z</time>
      </trkpt>
      <trkpt lat="45.94127" lon="-0.95432">
        <ele>4.3</ele>
        <time>2022-06-21T10:38:08Z</time>
      </trkpt>
      <trkpt lat="45.94126" lon="-0.95433">
        <ele>4.3</ele>
        <time>2022-06-21T10:38:09Z</time>
      </trkpt>
      <trkpt lat="45.94125" lon="-0.95434">
        <ele>4.3</ele>
        <time>2022-06-21T10:38:10Z</time>
      </trkpt>
      <trkpt lat="45.94125" lon="-0.95435">
        <ele>4.3</ele>
        <time>2022-06-21T10:38:11Z</time>
      </trkpt>
      <trkpt lat="45.94125" lon="-0.95435">
        <ele>4.3</ele>
        <time>2022-06-21T10:38:12Z</time>
      </trkpt>
      <trkpt lat="45.94126" lon="-0.95435">
        <ele>4.3</ele>
        <time>2022-06-21T10:38:13Z</time>
      </trkpt>
      <trkpt lat="45.94126" lon="-0.95435">
        <ele>4.3</ele>
        <time>2022-06-21T10:38:14Z</time>
      </trkpt>
      <trkpt lat="45.94125" lon="-0.95436">
        <ele>4.3</ele>
        <time>2022-06-21T10:38:15Z</time>
      </trkpt>
      <trkpt lat="45.94125" lon="-0.95436">
        <ele>4.3</ele>
        <time>2022-06-21T10:38:16Z</time>
      </trkpt>
      <trkpt lat="45.94124" lon="-0.95436">
        <ele>4.3</ele>
        <time>2022-06-21T10:38:17Z</time>
      </trkpt>
      <trkpt lat="45.94124" lon="-0.95436">
        <ele>4.3</ele>
        <time>2022-06-21T10:38:18Z</time>
      </trkpt>
      <trkpt lat="45.94124" lon="-0.95436">
        <ele>4.3</ele>
        <time>2022-06-21T10:38:19Z</time>
      </trkpt>
      <trkpt lat="45.94124" lon="-0.95436">
        <ele>4.3</ele>
        <time>2022-06-21T10:38:20Z</time>
      </trkpt>
      <trkpt lat="45.94124" lon="-0.95436">
        <ele>4.3</ele>
        <time>2022-06-21T10:38:21Z</time>
      </trkpt>
      <trkpt lat="45.94124" lon="-0.95436">
        <ele>4.3</ele>
        <time>2022-06-21T10:38:22Z</time>
      </trkpt>
      <trkpt lat="45.94125" lon="-0.95437">
        <ele>4.3</ele>
        <time>2022-06-21T10:38:23Z</time>
      </trkpt>
      <trkpt lat="45.94125" lon="-0.95437">
        <ele>4.3</ele>
        <time>2022-06-21T10:38:24Z</time>
      </trkpt>
      <trkpt lat="45.94125" lon="-0.95437">
        <ele>4.3</ele>
        <time>2022-06-21T10:38:25Z</time>
      </trkpt>
      <trkpt lat="45.94125" lon="-0.95437">
        <ele>4.3</ele>
        <time>2022-06-21T10:38:26Z</time>
      </trkpt>
      <trkpt lat="45.94124" lon="-0.95437">
        <ele>4.3</ele>
        <time>2022-06-21T10:38:27Z</time>
      </trkpt>
      <trkpt lat="45.94124" lon="-0.95438">
        <ele>4.3</ele>
        <time>2022-06-21T10:38:28Z</time>
      </trkpt>
      <trkpt lat="45.94124" lon="-0.95438">
        <ele>4.3</ele>
        <time>2022-06-21T10:38:29Z</time>
      </trkpt>
      <trkpt lat="45.94124" lon="-0.95438">
        <ele>4.3</ele>
        <time>2022-06-21T10:38:30Z</time>
      </trkpt>
      <trkpt lat="45.94124" lon="-0.95438">
        <ele>4.3</ele>
        <time>2022-06-21T10:38:31Z</time>
      </trkpt>
      <trkpt lat="45.94124" lon="-0.95438">
        <ele>4.3</ele>
        <time>2022-06-21T10:38:32Z</time>
      </trkpt>
      <trkpt lat="45.94124" lon="-0.95438">
        <ele>4.3</ele>
        <time>2022-06-21T10:38:33Z</time>
      </trkpt>
      <trkpt lat="45.94124" lon="-0.95438">
        <ele>4.3</ele>
        <time>2022-06-21T10:38:34Z</time>
      </trkpt>
      <trkpt lat="45.94124" lon="-0.95438">
        <ele>4.3</ele>
        <time>2022-06-21T10:38:35Z</time>
      </trkpt>
      <trkpt lat="45.94124" lon="-0.95438">
        <ele>4.3</ele>
        <time>2022-06-21T10:38:36Z</time>
      </trkpt>
      <trkpt lat="45.94124" lon="-0.95438">
        <ele>4.3</ele>
        <time>2022-06-21T10:38:37Z</time>
      </trkpt>
      <trkpt lat="45.94124" lon="-0.95438">
        <ele>4.3</ele>
        <time>2022-06-21T10:38:38Z</time>
      </trkpt>
      <trkpt lat="45.94124" lon="-0.95438">
        <ele>4.3</ele>
        <time>2022-06-21T10:38:39Z</time>
      </trkpt>
      <trkpt lat="45.94124" lon="-0.95438">
        <ele>4.3</ele>
        <time>2022-06-21T10:38:40Z</time>
      </trkpt>
      <trkpt lat="45.94124" lon="-0.95438">
        <ele>4.3</ele>
        <time>2022-06-21T10:38:41Z</time>
      </trkpt>
      <trkpt lat="45.94124" lon="-0.95438">
        <ele>4.3</ele>
        <time>2022-06-21T10:38:42Z</time>
      </trkpt>
      <trkpt lat="45.94124" lon="-0.95438">
        <ele>4.3</ele>
        <time>2022-06-21T10:38:43Z</time>
      </trkpt>
      <trkpt lat="45.94124" lon="-0.95438">
        <ele>4.3</ele>
        <time>2022-06-21T10:38:44Z</time>
      </trkpt>
      <trkpt lat="45.94124" lon="-0.95438">
        <ele>4.3</ele>
        <time>2022-06-21T10:38:46Z</time>
      </trkpt>
      <trkpt lat="45.94124" lon="-0.95438">
        <ele>4.3</ele>
        <time>2022-06-21T10:38:47Z</time>
      </trkpt>
      <trkpt lat="45.94124" lon="-0.95437">
        <ele>4.3</ele>
        <time>2022-06-21T10:38:48Z</time>
      </trkpt>
      <trkpt lat="45.94124" lon="-0.95437">
        <ele>4.3</ele>
        <time>2022-06-21T10:38:49Z</time>
      </trkpt>
      <trkpt lat="45.94124" lon="-0.95437">
        <ele>4.3</ele>
        <time>2022-06-21T10:38:50Z</time>
      </trkpt>
      <trkpt lat="45.94124" lon="-0.95437">
        <ele>4.3</ele>
        <time>2022-06-21T10:38:51Z</time>
      </trkpt>
      <trkpt lat="45.94124" lon="-0.95437">
        <ele>4.3</ele>
        <time>2022-06-21T10:38:52Z</time>
      </trkpt>
      <trkpt lat="45.94124" lon="-0.95437">
        <ele>4.3</ele>
        <time>2022-06-21T10:38:53Z</time>
      </trkpt>
      <trkpt lat="45.94124" lon="-0.95437">
        <ele>4.3</ele>
        <time>2022-06-21T10:38:54Z</time>
      </trkpt>
      <trkpt lat="45.94124" lon="-0.95437">
        <ele>4.3</ele>
        <time>2022-06-21T10:38:55Z</time>
      </trkpt>
      <trkpt lat="45.94124" lon="-0.95437">
        <ele>4.3</ele>
        <time>2022-06-21T10:38:56Z</time>
      </trkpt>
      <trkpt lat="45.94124" lon="-0.95437">
        <ele>4.3</ele>
        <time>2022-06-21T10:38:57Z</time>
      </trkpt>
      <trkpt lat="45.94124" lon="-0.95437">
        <ele>4.3</ele>
        <time>2022-06-21T10:38:58Z</time>
      </trkpt>
      <trkpt lat="45.94124" lon="-0.95437">
        <ele>4.3</ele>
        <time>2022-06-21T10:38:59Z</time>
      </trkpt>
      <trkpt lat="45.94124" lon="-0.95437">
        <ele>4.3</ele>
        <time>2022-06-21T10:39:00Z</time>
      </trkpt>
      <trkpt lat="45.94124" lon="-0.95437">
        <ele>4.3</ele>
        <time>2022-06-21T10:39:01Z</time>
      </trkpt>
      <trkpt lat="45.94124" lon="-0.95437">
        <ele>4.3</ele>
        <time>2022-06-21T10:39:02Z</time>
      </trkpt>
      <trkpt lat="45.94124" lon="-0.95437">
        <ele>4.3</ele>
        <time>2022-06-21T10:39:03Z</time>
      </trkpt>
      <trkpt lat="45.94124" lon="-0.95437">
        <ele>4.3</ele>
        <time>2022-06-21T10:39:04Z</time>
      </trkpt>
      <trkpt lat="45.94124" lon="-0.95437">
        <ele>4.3</ele>
        <time>2022-06-21T10:39:05Z</time>
      </trkpt>
      <trkpt lat="45.94124" lon="-0.95437">
        <ele>4.3</ele>
        <time>2022-06-21T10:39:06Z</time>
      </trkpt>
      <trkpt lat="45.94124" lon="-0.95437">
        <ele>4.3</ele>
        <time>2022-06-21T10:39:07Z</time>
      </trkpt>
      <trkpt lat="45.94124" lon="-0.95437">
        <ele>4.3</ele>
        <time>2022-06-21T10:39:08Z</time>
      </trkpt>
      <trkpt lat="45.94124" lon="-0.95437">
        <ele>4.3</ele>
        <time>2022-06-21T10:39:09Z</time>
      </trkpt>
      <trkpt lat="45.94124" lon="-0.95437">
        <ele>4.3</ele>
        <time>2022-06-21T10:39:10Z</time>
      </trkpt>
      <trkpt lat="45.94124" lon="-0.95437">
        <ele>4.3</ele>
        <time>2022-06-21T10:39:11Z</time>
      </trkpt>
      <trkpt lat="45.94124" lon="-0.95437">
        <ele>4.3</ele>
        <time>2022-06-21T10:39:12Z</time>
      </trkpt>
      <trkpt lat="45.94124" lon="-0.95437">
        <ele>4.3</ele>
        <time>2022-06-21T10:39:13Z</time>
      </trkpt>
      <trkpt lat="45.94124" lon="-0.95437">
        <ele>4.3</ele>
        <time>2022-06-21T10:39:14Z</time>
      </trkpt>
      <trkpt lat="45.94124" lon="-0.95437">
        <ele>4.3</ele>
        <time>2022-06-21T10:39:15Z</time>
      </trkpt>
      <trkpt lat="45.94124" lon="-0.95437">
        <ele>4.3</ele>
        <time>2022-06-21T10:39:16Z</time>
      </trkpt>
      <trkpt lat="45.94124" lon="-0.95437">
        <ele>4.3</ele>
        <time>2022-06-21T10:39:17Z</time>
      </trkpt>
      <trkpt lat="45.94124" lon="-0.95437">
        <ele>4.3</ele>
        <time>2022-06-21T10:39:18Z</time>
      </trkpt>
      <trkpt lat="45.94124" lon="-0.95437">
        <ele>4.3</ele>
        <time>2022-06-21T10:39:19Z</time>
      </trkpt>
      <trkpt lat="45.94124" lon="-0.95437">
        <ele>4.3</ele>
        <time>2022-06-21T10:39:20Z</time>
      </trkpt>
      <trkpt lat="45.94124" lon="-0.95437">
        <ele>4.3</ele>
        <time>2022-06-21T10:39:21Z</time>
      </trkpt>
      <trkpt lat="45.94124" lon="-0.95437">
        <ele>4.3</ele>
        <time>2022-06-21T10:39:22Z</time>
      </trkpt>
      <trkpt lat="45.94124" lon="-0.95437">
        <ele>4.3</ele>
        <time>2022-06-21T10:39:23Z</time>
      </trkpt>
      <trkpt lat="45.94124" lon="-0.95437">
        <ele>4.3</ele>
        <time>2022-06-21T10:39:24Z</time>
      </trkpt>
      <trkpt lat="45.94124" lon="-0.95437">
        <ele>4.3</ele>
        <time>2022-06-21T10:39:25Z</time>
      </trkpt>
      <trkpt lat="45.94124" lon="-0.95437">
        <ele>4.3</ele>
        <time>2022-06-21T10:39:26Z</time>
      </trkpt>
      <trkpt lat="45.94124" lon="-0.95437">
        <ele>4.3</ele>
        <time>2022-06-21T10:39:27Z</time>
      </trkpt>
      <trkpt lat="45.94124" lon="-0.95437">
        <ele>4.3</ele>
        <time>2022-06-21T10:39:28Z</time>
      </trkpt>
      <trkpt lat="45.94124" lon="-0.95437">
        <ele>4.3</ele>
        <time>2022-06-21T10:39:29Z</time>
      </trkpt>
      <trkpt lat="45.94124" lon="-0.95437">
        <ele>4.3</ele>
        <time>2022-06-21T10:39:30Z</time>
      </trkpt>
      <trkpt lat="45.94124" lon="-0.95437">
        <ele>4.3</ele>
        <time>2022-06-21T10:39:31Z</time>
      </trkpt>
      <trkpt lat="45.94124" lon="-0.95437">
        <ele>4.3</ele>
        <time>2022-06-21T10:39:32Z</time>
      </trkpt>
      <trkpt lat="45.94124" lon="-0.95437">
        <ele>4.3</ele>
        <time>2022-06-21T10:39:33Z</time>
      </trkpt>
      <trkpt lat="45.94124" lon="-0.95437">
        <ele>4.3</ele>
        <time>2022-06-21T10:39:34Z</time>
      </trkpt>
      <trkpt lat="45.94124" lon="-0.95437">
        <ele>4.3</ele>
        <time>2022-06-21T10:39:35Z</time>
      </trkpt>
      <trkpt lat="45.94124" lon="-0.95437">
        <ele>4.3</ele>
        <time>2022-06-21T10:39:36Z</time>
      </trkpt>
      <trkpt lat="45.94124" lon="-0.95437">
        <ele>4.3</ele>
        <time>2022-06-21T10:39:37Z</time>
      </trkpt>
      <trkpt lat="45.94124" lon="-0.95437">
        <ele>4.3</ele>
        <time>2022-06-21T10:39:38Z</time>
      </trkpt>
      <trkpt lat="45.94124" lon="-0.95437">
        <ele>4.3</ele>
        <time>2022-06-21T10:39:39Z</time>
      </trkpt>
      <trkpt lat="45.94124" lon="-0.95437">
        <ele>4.3</ele>
        <time>2022-06-21T10:39:40Z</time>
      </trkpt>
      <trkpt lat="45.94124" lon="-0.95437">
        <ele>4.3</ele>
        <time>2022-06-21T10:39:41Z</time>
      </trkpt>
      <trkpt lat="45.94124" lon="-0.95437">
        <ele>4.3</ele>
        <time>2022-06-21T10:39:42Z</time>
      </trkpt>
      <trkpt lat="45.94124" lon="-0.95437">
        <ele>4.3</ele>
        <time>2022-06-21T10:39:43Z</time>
      </trkpt>
      <trkpt lat="45.94124" lon="-0.95437">
        <ele>4.3</ele>
        <time>2022-06-21T10:39:44Z</time>
      </trkpt>
      <trkpt lat="45.94124" lon="-0.95437">
        <ele>4.3</ele>
        <time>2022-06-21T10:39:45Z</time>
      </trkpt>
      <trkpt lat="45.94124" lon="-0.95437">
        <ele>4.3</ele>
        <time>2022-06-21T10:39:46Z</time>
      </trkpt>
      <trkpt lat="45.94124" lon="-0.95437">
        <ele>4.3</ele>
        <time>2022-06-21T10:39:47Z</time>
      </trkpt>
      <trkpt lat="45.94124" lon="-0.95437">
        <ele>4.3</ele>
        <time>2022-06-21T10:39:48Z</time>
      </trkpt>
      <trkpt lat="45.94124" lon="-0.95437">
        <ele>4.3</ele>
        <time>2022-06-21T10:39:49Z</time>
      </trkpt>
      <trkpt lat="45.94124" lon="-0.95437">
        <ele>4.3</ele>
        <time>2022-06-21T10:39:50Z</time>
      </trkpt>
      <trkpt lat="45.94124" lon="-0.95437">
        <ele>4.3</ele>
        <time>2022-06-21T10:39:51Z</time>
      </trkpt>
      <trkpt lat="45.94124" lon="-0.95437">
        <ele>4.3</ele>
        <time>2022-06-21T10:39:52Z</time>
      </trkpt>
      <trkpt lat="45.94124" lon="-0.95437">
        <ele>4.3</ele>
        <time>2022-06-21T10:39:53Z</time>
      </trkpt>
      <trkpt lat="45.94124" lon="-0.95437">
        <ele>4.3</ele>
        <time>2022-06-21T10:39:54Z</time>
      </trkpt>
      <trkpt lat="45.94124" lon="-0.95437">
        <ele>4.3</ele>
        <time>2022-06-21T10:39:55Z</time>
      </trkpt>
      <trkpt lat="45.94124" lon="-0.95437">
        <ele>4.3</ele>
        <time>2022-06-21T10:39:56Z</time>
      </trkpt>
      <trkpt lat="45.94124" lon="-0.95437">
        <ele>4.3</ele>
        <time>2022-06-21T10:39:57Z</time>
      </trkpt>
      <trkpt lat="45.94124" lon="-0.95437">
        <ele>4.3</ele>
        <time>2022-06-21T10:39:58Z</time>
      </trkpt>
      <trkpt lat="45.94124" lon="-0.95437">
        <ele>4.3</ele>
        <time>2022-06-21T10:39:59Z</time>
      </trkpt>
      <trkpt lat="45.94124" lon="-0.95437">
        <ele>4.3</ele>
        <time>2022-06-21T10:40:00Z</time>
      </trkpt>
      <trkpt lat="45.94124" lon="-0.95437">
        <ele>4.3</ele>
        <time>2022-06-21T10:40:01Z</time>
      </trkpt>
      <trkpt lat="45.94124" lon="-0.95437">
        <ele>4.3</ele>
        <time>2022-06-21T10:40:02Z</time>
      </trkpt>
      <trkpt lat="45.94124" lon="-0.95437">
        <ele>4.3</ele>
        <time>2022-06-21T10:40:03Z</time>
      </trkpt>
      <trkpt lat="45.94124" lon="-0.95437">
        <ele>4.3</ele>
        <time>2022-06-21T10:40:04Z</time>
      </trkpt>
      <trkpt lat="45.94124" lon="-0.95437">
        <ele>4.3</ele>
        <time>2022-06-21T10:40:05Z</time>
      </trkpt>
      <trkpt lat="45.94124" lon="-0.95437">
        <ele>4.3</ele>
        <time>2022-06-21T10:40:06Z</time>
      </trkpt>
      <trkpt lat="45.94124" lon="-0.95437">
        <ele>4.3</ele>
        <time>2022-06-21T10:40:07Z</time>
      </trkpt>
      <trkpt lat="45.94124" lon="-0.95437">
        <ele>4.3</ele>
        <time>2022-06-21T10:40:08Z</time>
      </trkpt>
      <trkpt lat="45.94124" lon="-0.95437">
        <ele>4.3</ele>
        <time>2022-06-21T10:40:09Z</time>
      </trkpt>
      <trkpt lat="45.94124" lon="-0.95437">
        <ele>4.3</ele>
        <time>2022-06-21T10:40:10Z</time>
      </trkpt>
      <trkpt lat="45.94124" lon="-0.95437">
        <ele>4.3</ele>
        <time>2022-06-21T10:40:11Z</time>
      </trkpt>
      <trkpt lat="45.94124" lon="-0.95437">
        <ele>4.3</ele>
        <time>2022-06-21T10:40:12Z</time>
      </trkpt>
      <trkpt lat="45.94124" lon="-0.95437">
        <ele>4.3</ele>
        <time>2022-06-21T10:40:13Z</time>
      </trkpt>
      <trkpt lat="45.94124" lon="-0.95437">
        <ele>4.3</ele>
        <time>2022-06-21T10:40:14Z</time>
      </trkpt>
      <trkpt lat="45.94124" lon="-0.95437">
        <ele>4.3</ele>
        <time>2022-06-21T10:40:15Z</time>
      </trkpt>
      <trkpt lat="45.94124" lon="-0.95437">
        <ele>4.3</ele>
        <time>2022-06-21T10:40:16Z</time>
      </trkpt>
      <trkpt lat="45.94124" lon="-0.95437">
        <ele>4.3</ele>
        <time>2022-06-21T10:40:17Z</time>
      </trkpt>
      <trkpt lat="45.94124" lon="-0.95437">
        <ele>4.3</ele>
        <time>2022-06-21T10:40:18Z</time>
      </trkpt>
      <trkpt lat="45.94124" lon="-0.95437">
        <ele>4.3</ele>
        <time>2022-06-21T10:40:19Z</time>
      </trkpt>
      <trkpt lat="45.94124" lon="-0.95437">
        <ele>4.3</ele>
        <time>2022-06-21T10:40:20Z</time>
      </trkpt>
      <trkpt lat="45.94124" lon="-0.95437">
        <ele>4.3</ele>
        <time>2022-06-21T10:40:21Z</time>
      </trkpt>
      <trkpt lat="45.94124" lon="-0.95437">
        <ele>4.3</ele>
        <time>2022-06-21T10:40:22Z</time>
      </trkpt>
      <trkpt lat="45.94124" lon="-0.95437">
        <ele>4.3</ele>
        <time>2022-06-21T10:40:23Z</time>
      </trkpt>
      <trkpt lat="45.94124" lon="-0.95437">
        <ele>4.3</ele>
        <time>2022-06-21T10:40:24Z</time>
      </trkpt>
      <trkpt lat="45.94124" lon="-0.95437">
        <ele>4.3</ele>
        <time>2022-06-21T10:40:25Z</time>
      </trkpt>
      <trkpt lat="45.94124" lon="-0.95437">
        <ele>4.3</ele>
        <time>2022-06-21T10:40:26Z</time>
      </trkpt>
      <trkpt lat="45.94124" lon="-0.95437">
        <ele>4.3</ele>
        <time>2022-06-21T10:40:27Z</time>
      </trkpt>
      <trkpt lat="45.94124" lon="-0.95437">
        <ele>4.3</ele>
        <time>2022-06-21T10:40:28Z</time>
      </trkpt>
      <trkpt lat="45.94124" lon="-0.95437">
        <ele>4.3</ele>
        <time>2022-06-21T10:40:29Z</time>
      </trkpt>
      <trkpt lat="45.94124" lon="-0.95437">
        <ele>4.3</ele>
        <time>2022-06-21T10:40:30Z</time>
      </trkpt>
      <trkpt lat="45.94124" lon="-0.95437">
        <ele>4.3</ele>
        <time>2022-06-21T10:40:31Z</time>
      </trkpt>
      <trkpt lat="45.94124" lon="-0.95437">
        <ele>4.3</ele>
        <time>2022-06-21T10:40:32Z</time>
      </trkpt>
      <trkpt lat="45.94124" lon="-0.95437">
        <ele>4.3</ele>
        <time>2022-06-21T10:40:33Z</time>
      </trkpt>
      <trkpt lat="45.94124" lon="-0.95437">
        <ele>4.3</ele>
        <time>2022-06-21T10:40:34Z</time>
      </trkpt>
      <trkpt lat="45.94124" lon="-0.95437">
        <ele>4.3</ele>
        <time>2022-06-21T10:40:35Z</time>
      </trkpt>
      <trkpt lat="45.94124" lon="-0.95437">
        <ele>4.3</ele>
        <time>2022-06-21T10:40:36Z</time>
      </trkpt>
      <trkpt lat="45.94124" lon="-0.95437">
        <ele>4.3</ele>
        <time>2022-06-21T10:40:37Z</time>
      </trkpt>
      <trkpt lat="45.94124" lon="-0.95437">
        <ele>4.3</ele>
        <time>2022-06-21T10:40:38Z</time>
      </trkpt>
      <trkpt lat="45.94124" lon="-0.95437">
        <ele>4.3</ele>
        <time>2022-06-21T10:40:39Z</time>
      </trkpt>
      <trkpt lat="45.94124" lon="-0.95437">
        <ele>4.3</ele>
        <time>2022-06-21T10:40:40Z</time>
      </trkpt>
      <trkpt lat="45.94124" lon="-0.95437">
        <ele>4.3</ele>
        <time>2022-06-21T10:40:41Z</time>
      </trkpt>
      <trkpt lat="45.94124" lon="-0.95437">
        <ele>4.3</ele>
        <time>2022-06-21T10:40:42Z</time>
      </trkpt>
      <trkpt lat="45.94124" lon="-0.95437">
        <ele>4.3</ele>
        <time>2022-06-21T10:40:43Z</time>
      </trkpt>
      <trkpt lat="45.94124" lon="-0.95437">
        <ele>4.3</ele>
        <time>2022-06-21T10:40:44Z</time>
      </trkpt>
      <trkpt lat="45.94124" lon="-0.95437">
        <ele>4.3</ele>
        <time>2022-06-21T10:40:45Z</time>
      </trkpt>
      <trkpt lat="45.94124" lon="-0.95437">
        <ele>4.3</ele>
        <time>2022-06-21T10:40:46Z</time>
      </trkpt>
      <trkpt lat="45.94124" lon="-0.95437">
        <ele>4.3</ele>
        <time>2022-06-21T10:40:47Z</time>
      </trkpt>
      <trkpt lat="45.94124" lon="-0.95437">
        <ele>4.3</ele>
        <time>2022-06-21T10:40:48Z</time>
      </trkpt>
      <trkpt lat="45.94124" lon="-0.95437">
        <ele>4.3</ele>
        <time>2022-06-21T10:40:49Z</time>
      </trkpt>
      <trkpt lat="45.94124" lon="-0.95437">
        <ele>4.3</ele>
        <time>2022-06-21T10:40:50Z</time>
      </trkpt>
      <trkpt lat="45.94124" lon="-0.95437">
        <ele>4.3</ele>
        <time>2022-06-21T10:40:51Z</time>
      </trkpt>
      <trkpt lat="45.94124" lon="-0.95437">
        <ele>4.3</ele>
        <time>2022-06-21T10:40:52Z</time>
      </trkpt>
      <trkpt lat="45.94124" lon="-0.95437">
        <ele>4.3</ele>
        <time>2022-06-21T10:40:53Z</time>
      </trkpt>
      <trkpt lat="45.94124" lon="-0.95437">
        <ele>4.3</ele>
        <time>2022-06-21T10:40:54Z</time>
      </trkpt>
      <trkpt lat="45.94124" lon="-0.95437">
        <ele>4.3</ele>
        <time>2022-06-21T10:40:55Z</time>
      </trkpt>
      <trkpt lat="45.94124" lon="-0.95437">
        <ele>4.3</ele>
        <time>2022-06-21T10:40:56Z</time>
      </trkpt>
      <trkpt lat="45.94124" lon="-0.95437">
        <ele>4.3</ele>
        <time>2022-06-21T10:40:57Z</time>
      </trkpt>
      <trkpt lat="45.94124" lon="-0.95437">
        <ele>4.3</ele>
        <time>2022-06-21T10:40:58Z</time>
      </trkpt>
      <trkpt lat="45.94124" lon="-0.95437">
        <ele>4.3</ele>
        <time>2022-06-21T10:40:59Z</time>
      </trkpt>
      <trkpt lat="45.94124" lon="-0.95437">
        <ele>4.3</ele>
        <time>2022-06-21T10:41:00Z</time>
      </trkpt>
      <trkpt lat="45.94124" lon="-0.95437">
        <ele>4.3</ele>
        <time>2022-06-21T10:41:01Z</time>
      </trkpt>
      <trkpt lat="45.94124" lon="-0.95437">
        <ele>4.3</ele>
        <time>2022-06-21T10:41:02Z</time>
      </trkpt>
      <trkpt lat="45.94124" lon="-0.95437">
        <ele>4.3</ele>
        <time>2022-06-21T10:41:03Z</time>
      </trkpt>
      <trkpt lat="45.94124" lon="-0.95437">
        <ele>4.3</ele>
        <time>2022-06-21T10:41:04Z</time>
      </trkpt>
      <trkpt lat="45.94124" lon="-0.95437">
        <ele>4.3</ele>
        <time>2022-06-21T10:41:05Z</time>
      </trkpt>
      <trkpt lat="45.94124" lon="-0.95437">
        <ele>4.3</ele>
        <time>2022-06-21T10:41:06Z</time>
      </trkpt>
      <trkpt lat="45.94124" lon="-0.95437">
        <ele>4.3</ele>
        <time>2022-06-21T10:41:07Z</time>
      </trkpt>
      <trkpt lat="45.94124" lon="-0.95437">
        <ele>4.3</ele>
        <time>2022-06-21T10:41:08Z</time>
      </trkpt>
      <trkpt lat="45.94124" lon="-0.95437">
        <ele>4.3</ele>
        <time>2022-06-21T10:41:09Z</time>
      </trkpt>
      <trkpt lat="45.94124" lon="-0.95437">
        <ele>4.3</ele>
        <time>2022-06-21T10:41:10Z</time>
      </trkpt>
      <trkpt lat="45.94124" lon="-0.95437">
        <ele>4.3</ele>
        <time>2022-06-21T10:41:11Z</time>
      </trkpt>
      <trkpt lat="45.94124" lon="-0.95437">
        <ele>4.3</ele>
        <time>2022-06-21T10:41:12Z</time>
      </trkpt>
      <trkpt lat="45.94124" lon="-0.95437">
        <ele>4.3</ele>
        <time>2022-06-21T10:41:13Z</time>
      </trkpt>
      <trkpt lat="45.94124" lon="-0.95437">
        <ele>4.3</ele>
        <time>2022-06-21T10:41:14Z</time>
      </trkpt>
      <trkpt lat="45.94124" lon="-0.95437">
        <ele>4.3</ele>
        <time>2022-06-21T10:41:15Z</time>
      </trkpt>
      <trkpt lat="45.94124" lon="-0.95437">
        <ele>4.3</ele>
        <time>2022-06-21T10:41:16Z</time>
      </trkpt>
      <trkpt lat="45.94124" lon="-0.95437">
        <ele>4.3</ele>
        <time>2022-06-21T10:41:17Z</time>
      </trkpt>
      <trkpt lat="45.94124" lon="-0.95437">
        <ele>4.3</ele>
        <time>2022-06-21T10:41:18Z</time>
      </trkpt>
      <trkpt lat="45.94124" lon="-0.95437">
        <ele>4.3</ele>
        <time>2022-06-21T10:41:19Z</time>
      </trkpt>
      <trkpt lat="45.94124" lon="-0.95437">
        <ele>4.3</ele>
        <time>2022-06-21T10:41:20Z</time>
      </trkpt>
      <trkpt lat="45.94124" lon="-0.95437">
        <ele>4.3</ele>
        <time>2022-06-21T10:41:21Z</time>
      </trkpt>
      <trkpt lat="45.94124" lon="-0.95437">
        <ele>4.3</ele>
        <time>2022-06-21T10:41:22Z</time>
      </trkpt>
      <trkpt lat="45.94124" lon="-0.95437">
        <ele>4.3</ele>
        <time>2022-06-21T10:41:23Z</time>
      </trkpt>
      <trkpt lat="45.94124" lon="-0.95437">
        <ele>4.3</ele>
        <time>2022-06-21T10:41:24Z</time>
      </trkpt>
      <trkpt lat="45.94124" lon="-0.95437">
        <ele>4.3</ele>
        <time>2022-06-21T10:41:25Z</time>
      </trkpt>
      <trkpt lat="45.94124" lon="-0.95437">
        <ele>4.3</ele>
        <time>2022-06-21T10:41:26Z</time>
      </trkpt>
      <trkpt lat="45.94124" lon="-0.95437">
        <ele>4.3</ele>
        <time>2022-06-21T10:41:27Z</time>
      </trkpt>
      <trkpt lat="45.94124" lon="-0.95437">
        <ele>4.3</ele>
        <time>2022-06-21T10:41:28Z</time>
      </trkpt>
      <trkpt lat="45.94124" lon="-0.95437">
        <ele>4.3</ele>
        <time>2022-06-21T10:41:29Z</time>
      </trkpt>
      <trkpt lat="45.94124" lon="-0.95437">
        <ele>4.3</ele>
        <time>2022-06-21T10:41:30Z</time>
      </trkpt>
      <trkpt lat="45.94124" lon="-0.95437">
        <ele>4.3</ele>
        <time>2022-06-21T10:41:31Z</time>
      </trkpt>
      <trkpt lat="45.94124" lon="-0.95437">
        <ele>4.3</ele>
        <time>2022-06-21T10:41:32Z</time>
      </trkpt>
      <trkpt lat="45.94124" lon="-0.95437">
        <ele>4.3</ele>
        <time>2022-06-21T10:41:33Z</time>
      </trkpt>
      <trkpt lat="45.94124" lon="-0.95437">
        <ele>4.3</ele>
        <time>2022-06-21T10:41:34Z</time>
      </trkpt>
      <trkpt lat="45.94124" lon="-0.95437">
        <ele>4.3</ele>
        <time>2022-06-21T10:41:35Z</time>
      </trkpt>
      <trkpt lat="45.94124" lon="-0.95437">
        <ele>4.3</ele>
        <time>2022-06-21T10:41:36Z</time>
      </trkpt>
      <trkpt lat="45.94124" lon="-0.95437">
        <ele>4.3</ele>
        <time>2022-06-21T10:41:37Z</time>
      </trkpt>
      <trkpt lat="45.94124" lon="-0.95437">
        <ele>4.3</ele>
        <time>2022-06-21T10:41:38Z</time>
      </trkpt>
      <trkpt lat="45.94124" lon="-0.95437">
        <ele>4.3</ele>
        <time>2022-06-21T10:41:39Z</time>
      </trkpt>
      <trkpt lat="45.94124" lon="-0.95437">
        <ele>4.3</ele>
        <time>2022-06-21T10:41:40Z</time>
      </trkpt>
      <trkpt lat="45.94124" lon="-0.95437">
        <ele>4.3</ele>
        <time>2022-06-21T10:41:41Z</time>
      </trkpt>
      <trkpt lat="45.94124" lon="-0.95437">
        <ele>4.3</ele>
        <time>2022-06-21T10:41:42Z</time>
      </trkpt>
      <trkpt lat="45.94124" lon="-0.95437">
        <ele>4.3</ele>
        <time>2022-06-21T10:41:43Z</time>
      </trkpt>
      <trkpt lat="45.94124" lon="-0.95437">
        <ele>4.3</ele>
        <time>2022-06-21T10:41:44Z</time>
      </trkpt>
      <trkpt lat="45.94124" lon="-0.95437">
        <ele>4.3</ele>
        <time>2022-06-21T10:41:45Z</time>
      </trkpt>
      <trkpt lat="45.94124" lon="-0.95437">
        <ele>4.3</ele>
        <time>2022-06-21T10:41:46Z</time>
      </trkpt>
      <trkpt lat="45.94124" lon="-0.95437">
        <ele>4.3</ele>
        <time>2022-06-21T10:41:47Z</time>
      </trkpt>
      <trkpt lat="45.94124" lon="-0.95437">
        <ele>4.3</ele>
        <time>2022-06-21T10:41:48Z</time>
      </trkpt>
      <trkpt lat="45.94124" lon="-0.95437">
        <ele>4.3</ele>
        <time>2022-06-21T10:41:49Z</time>
      </trkpt>
      <trkpt lat="45.94124" lon="-0.95437">
        <ele>4.3</ele>
        <time>2022-06-21T10:41:50Z</time>
      </trkpt>
      <trkpt lat="45.94124" lon="-0.95437">
        <ele>4.3</ele>
        <time>2022-06-21T10:41:51Z</time>
      </trkpt>
      <trkpt lat="45.94124" lon="-0.95437">
        <ele>4.3</ele>
        <time>2022-06-21T10:41:52Z</time>
      </trkpt>
      <trkpt lat="45.94124" lon="-0.95437">
        <ele>4.3</ele>
        <time>2022-06-21T10:41:53Z</time>
      </trkpt>
      <trkpt lat="45.94124" lon="-0.95437">
        <ele>4.3</ele>
        <time>2022-06-21T10:41:54Z</time>
      </trkpt>
      <trkpt lat="45.94124" lon="-0.95437">
        <ele>4.3</ele>
        <time>2022-06-21T10:41:55Z</time>
      </trkpt>
      <trkpt lat="45.94124" lon="-0.95437">
        <ele>4.3</ele>
        <time>2022-06-21T10:41:56Z</time>
      </trkpt>
      <trkpt lat="45.94124" lon="-0.95437">
        <ele>4.3</ele>
        <time>2022-06-21T10:41:57Z</time>
      </trkpt>
      <trkpt lat="45.94124" lon="-0.95437">
        <ele>4.3</ele>
        <time>2022-06-21T10:41:58Z</time>
      </trkpt>
      <trkpt lat="45.94124" lon="-0.95437">
        <ele>4.3</ele>
        <time>2022-06-21T10:41:59Z</time>
      </trkpt>
      <trkpt lat="45.94124" lon="-0.95437">
        <ele>4.3</ele>
        <time>2022-06-21T10:42:00Z</time>
      </trkpt>
      <trkpt lat="45.94124" lon="-0.95437">
        <ele>4.3</ele>
        <time>2022-06-21T10:42:01Z</time>
      </trkpt>
      <trkpt lat="45.94124" lon="-0.95437">
        <ele>4.3</ele>
        <time>2022-06-21T10:42:02Z</time>
      </trkpt>
      <trkpt lat="45.94124" lon="-0.95437">
        <ele>4.3</ele>
        <time>2022-06-21T10:42:03Z</time>
      </trkpt>
      <trkpt lat="45.94124" lon="-0.95437">
        <ele>4.3</ele>
        <time>2022-06-21T10:42:04Z</time>
      </trkpt>
      <trkpt lat="45.94124" lon="-0.95437">
        <ele>4.3</ele>
        <time>2022-06-21T10:42:05Z</time>
      </trkpt>
      <trkpt lat="45.94124" lon="-0.95437">
        <ele>4.3</ele>
        <time>2022-06-21T10:42:06Z</time>
      </trkpt>
      <trkpt lat="45.94124" lon="-0.95437">
        <ele>4.3</ele>
        <time>2022-06-21T10:42:07Z</time>
      </trkpt>
      <trkpt lat="45.94124" lon="-0.95437">
        <ele>4.3</ele>
        <time>2022-06-21T10:42:08Z</time>
      </trkpt>
      <trkpt lat="45.94124" lon="-0.95437">
        <ele>4.3</ele>
        <time>2022-06-21T10:42:09Z</time>
      </trkpt>
      <trkpt lat="45.94124" lon="-0.95437">
        <ele>4.3</ele>
        <time>2022-06-21T10:42:10Z</time>
      </trkpt>
      <trkpt lat="45.94124" lon="-0.95437">
        <ele>4.3</ele>
        <time>2022-06-21T10:42:11Z</time>
      </trkpt>
      <trkpt lat="45.94124" lon="-0.95437">
        <ele>4.3</ele>
        <time>2022-06-21T10:42:12Z</time>
      </trkpt>
      <trkpt lat="45.94124" lon="-0.95437">
        <ele>4.3</ele>
        <time>2022-06-21T10:42:13Z</time>
      </trkpt>
      <trkpt lat="45.94124" lon="-0.95437">
        <ele>4.3</ele>
        <time>2022-06-21T10:42:14Z</time>
      </trkpt>
      <trkpt lat="45.94124" lon="-0.95437">
        <ele>4.3</ele>
        <time>2022-06-21T10:42:15Z</time>
      </trkpt>
      <trkpt lat="45.94124" lon="-0.95437">
        <ele>4.3</ele>
        <time>2022-06-21T10:42:16Z</time>
      </trkpt>
      <trkpt lat="45.94124" lon="-0.95437">
        <ele>4.3</ele>
        <time>2022-06-21T10:42:17Z</time>
      </trkpt>
      <trkpt lat="45.94124" lon="-0.95437">
        <ele>4.3</ele>
        <time>2022-06-21T10:42:18Z</time>
      </trkpt>
      <trkpt lat="45.94124" lon="-0.95437">
        <ele>4.3</ele>
        <time>2022-06-21T10:42:19Z</time>
      </trkpt>
      <trkpt lat="45.94124" lon="-0.95437">
        <ele>4.3</ele>
        <time>2022-06-21T10:42:20Z</time>
      </trkpt>
      <trkpt lat="45.94124" lon="-0.95437">
        <ele>4.3</ele>
        <time>2022-06-21T10:42:21Z</time>
      </trkpt>
      <trkpt lat="45.94124" lon="-0.95437">
        <ele>4.3</ele>
        <time>2022-06-21T10:42:22Z</time>
      </trkpt>
      <trkpt lat="45.94124" lon="-0.95437">
        <ele>4.3</ele>
        <time>2022-06-21T10:42:23Z</time>
      </trkpt>
      <trkpt lat="45.94124" lon="-0.95437">
        <ele>4.3</ele>
        <time>2022-06-21T10:42:24Z</time>
      </trkpt>
      <trkpt lat="45.94124" lon="-0.95437">
        <ele>4.3</ele>
        <time>2022-06-21T10:42:25Z</time>
      </trkpt>
      <trkpt lat="45.94124" lon="-0.95437">
        <ele>4.3</ele>
        <time>2022-06-21T10:42:26Z</time>
      </trkpt>
      <trkpt lat="45.94124" lon="-0.95437">
        <ele>4.3</ele>
        <time>2022-06-21T10:42:27Z</time>
      </trkpt>
      <trkpt lat="45.94124" lon="-0.95437">
        <ele>4.3</ele>
        <time>2022-06-21T10:42:28Z</time>
      </trkpt>
      <trkpt lat="45.94124" lon="-0.95437">
        <ele>4.3</ele>
        <time>2022-06-21T10:42:29Z</time>
      </trkpt>
      <trkpt lat="45.94124" lon="-0.95437">
        <ele>4.3</ele>
        <time>2022-06-21T10:42:30Z</time>
      </trkpt>
      <trkpt lat="45.94124" lon="-0.95437">
        <ele>4.3</ele>
        <time>2022-06-21T10:42:31Z</time>
      </trkpt>
      <trkpt lat="45.94124" lon="-0.95437">
        <ele>4.3</ele>
        <time>2022-06-21T10:42:32Z</time>
      </trkpt>
      <trkpt lat="45.94124" lon="-0.95437">
        <ele>4.3</ele>
        <time>2022-06-21T10:42:33Z</time>
      </trkpt>
      <trkpt lat="45.94124" lon="-0.95437">
        <ele>4.3</ele>
        <time>2022-06-21T10:42:34Z</time>
      </trkpt>
      <trkpt lat="45.94124" lon="-0.95437">
        <ele>4.3</ele>
        <time>2022-06-21T10:42:35Z</time>
      </trkpt>
      <trkpt lat="45.94124" lon="-0.95437">
        <ele>4.3</ele>
        <time>2022-06-21T10:42:36Z</time>
      </trkpt>
      <trkpt lat="45.94124" lon="-0.95437">
        <ele>4.3</ele>
        <time>2022-06-21T10:42:37Z</time>
      </trkpt>
      <trkpt lat="45.94124" lon="-0.95437">
        <ele>4.3</ele>
        <time>2022-06-21T10:42:38Z</time>
      </trkpt>
      <trkpt lat="45.94124" lon="-0.95437">
        <ele>4.3</ele>
        <time>2022-06-21T10:42:39Z</time>
      </trkpt>
      <trkpt lat="45.94124" lon="-0.95437">
        <ele>4.3</ele>
        <time>2022-06-21T10:42:40Z</time>
      </trkpt>
      <trkpt lat="45.94124" lon="-0.95437">
        <ele>4.3</ele>
        <time>2022-06-21T10:42:41Z</time>
      </trkpt>
      <trkpt lat="45.94124" lon="-0.95437">
        <ele>4.3</ele>
        <time>2022-06-21T10:42:42Z</time>
      </trkpt>
      <trkpt lat="45.94124" lon="-0.95437">
        <ele>4.3</ele>
        <time>2022-06-21T10:42:43Z</time>
      </trkpt>
      <trkpt lat="45.94124" lon="-0.95437">
        <ele>4.3</ele>
        <time>2022-06-21T10:42:44Z</time>
      </trkpt>
      <trkpt lat="45.94124" lon="-0.95437">
        <ele>4.3</ele>
        <time>2022-06-21T10:42:45Z</time>
      </trkpt>
      <trkpt lat="45.94124" lon="-0.95437">
        <ele>4.3</ele>
        <time>2022-06-21T10:42:46Z</time>
      </trkpt>
      <trkpt lat="45.94124" lon="-0.95437">
        <ele>4.3</ele>
        <time>2022-06-21T10:42:47Z</time>
      </trkpt>
      <trkpt lat="45.94124" lon="-0.95437">
        <ele>4.3</ele>
        <time>2022-06-21T10:42:48Z</time>
      </trkpt>
      <trkpt lat="45.94124" lon="-0.95437">
        <ele>4.3</ele>
        <time>2022-06-21T10:42:49Z</time>
      </trkpt>
      <trkpt lat="45.94124" lon="-0.95437">
        <ele>4.3</ele>
        <time>2022-06-21T10:42:50Z</time>
      </trkpt>
      <trkpt lat="45.94124" lon="-0.95437">
        <ele>4.3</ele>
        <time>2022-06-21T10:42:51Z</time>
      </trkpt>
      <trkpt lat="45.94124" lon="-0.95437">
        <ele>4.3</ele>
        <time>2022-06-21T10:42:52Z</time>
      </trkpt>
      <trkpt lat="45.94124" lon="-0.95437">
        <ele>4.3</ele>
        <time>2022-06-21T10:42:53Z</time>
      </trkpt>
      <trkpt lat="45.94124" lon="-0.95437">
        <ele>4.3</ele>
        <time>2022-06-21T10:42:54Z</time>
      </trkpt>
      <trkpt lat="45.94124" lon="-0.95437">
        <ele>4.3</ele>
        <time>2022-06-21T10:42:55Z</time>
      </trkpt>
      <trkpt lat="45.94124" lon="-0.95437">
        <ele>4.3</ele>
        <time>2022-06-21T10:42:56Z</time>
      </trkpt>
      <trkpt lat="45.94124" lon="-0.95437">
        <ele>4.3</ele>
        <time>2022-06-21T10:42:57Z</time>
      </trkpt>
      <trkpt lat="45.94124" lon="-0.95437">
        <ele>4.3</ele>
        <time>2022-06-21T10:42:58Z</time>
      </trkpt>
      <trkpt lat="45.94124" lon="-0.95437">
        <ele>4.3</ele>
        <time>2022-06-21T10:42:59Z</time>
      </trkpt>
      <trkpt lat="45.94124" lon="-0.95437">
        <ele>4.3</ele>
        <time>2022-06-21T10:43:00Z</time>
      </trkpt>
      <trkpt lat="45.94124" lon="-0.95437">
        <ele>4.3</ele>
        <time>2022-06-21T10:43:01Z</time>
      </trkpt>
      <trkpt lat="45.94124" lon="-0.95437">
        <ele>4.3</ele>
        <time>2022-06-21T10:43:02Z</time>
      </trkpt>
      <trkpt lat="45.94124" lon="-0.95437">
        <ele>4.3</ele>
        <time>2022-06-21T10:43:03Z</time>
      </trkpt>
      <trkpt lat="45.94124" lon="-0.95437">
        <ele>4.3</ele>
        <time>2022-06-21T10:43:04Z</time>
      </trkpt>
      <trkpt lat="45.94124" lon="-0.95437">
        <ele>4.3</ele>
        <time>2022-06-21T10:43:05Z</time>
      </trkpt>
      <trkpt lat="45.94124" lon="-0.95437">
        <ele>4.3</ele>
        <time>2022-06-21T10:43:06Z</time>
      </trkpt>
      <trkpt lat="45.94124" lon="-0.95437">
        <ele>4.3</ele>
        <time>2022-06-21T10:43:07Z</time>
      </trkpt>
      <trkpt lat="45.94124" lon="-0.95437">
        <ele>4.3</ele>
        <time>2022-06-21T10:43:08Z</time>
      </trkpt>
      <trkpt lat="45.94124" lon="-0.95437">
        <ele>4.3</ele>
        <time>2022-06-21T10:43:09Z</time>
      </trkpt>
      <trkpt lat="45.94124" lon="-0.95437">
        <ele>4.3</ele>
        <time>2022-06-21T10:43:10Z</time>
      </trkpt>
      <trkpt lat="45.94124" lon="-0.95437">
        <ele>4.3</ele>
        <time>2022-06-21T10:43:11Z</time>
      </trkpt>
      <trkpt lat="45.94124" lon="-0.95437">
        <ele>4.3</ele>
        <time>2022-06-21T10:43:12Z</time>
      </trkpt>
      <trkpt lat="45.94124" lon="-0.95437">
        <ele>4.3</ele>
        <time>2022-06-21T10:43:13Z</time>
      </trkpt>
      <trkpt lat="45.94124" lon="-0.95437">
        <ele>4.3</ele>
        <time>2022-06-21T10:43:14Z</time>
      </trkpt>
      <trkpt lat="45.94124" lon="-0.95437">
        <ele>4.3</ele>
        <time>2022-06-21T10:43:15Z</time>
      </trkpt>
      <trkpt lat="45.94124" lon="-0.95437">
        <ele>4.3</ele>
        <time>2022-06-21T10:43:16Z</time>
      </trkpt>
      <trkpt lat="45.94124" lon="-0.95437">
        <ele>4.3</ele>
        <time>2022-06-21T10:43:17Z</time>
      </trkpt>
      <trkpt lat="45.94124" lon="-0.95437">
        <ele>4.3</ele>
        <time>2022-06-21T10:43:18Z</time>
      </trkpt>
      <trkpt lat="45.94124" lon="-0.95437">
        <ele>4.3</ele>
        <time>2022-06-21T10:43:19Z</time>
      </trkpt>
      <trkpt lat="45.94124" lon="-0.95437">
        <ele>4.3</ele>
        <time>2022-06-21T10:43:20Z</time>
      </trkpt>
      <trkpt lat="45.94124" lon="-0.95437">
        <ele>4.3</ele>
        <time>2022-06-21T10:43:21Z</time>
      </trkpt>
      <trkpt lat="45.94124" lon="-0.95437">
        <ele>4.3</ele>
        <time>2022-06-21T10:43:22Z</time>
      </trkpt>
      <trkpt lat="45.94124" lon="-0.95437">
        <ele>4.3</ele>
        <time>2022-06-21T10:43:23Z</time>
      </trkpt>
      <trkpt lat="45.94124" lon="-0.95437">
        <ele>4.3</ele>
        <time>2022-06-21T10:43:24Z</time>
      </trkpt>
      <trkpt lat="45.94124" lon="-0.95437">
        <ele>4.3</ele>
        <time>2022-06-21T10:43:25Z</time>
      </trkpt>
      <trkpt lat="45.94124" lon="-0.95437">
        <ele>4.3</ele>
        <time>2022-06-21T10:43:26Z</time>
      </trkpt>
      <trkpt lat="45.94124" lon="-0.95437">
        <ele>4.3</ele>
        <time>2022-06-21T10:43:27Z</time>
      </trkpt>
      <trkpt lat="45.94124" lon="-0.95437">
        <ele>4.3</ele>
        <time>2022-06-21T10:43:28Z</time>
      </trkpt>
      <trkpt lat="45.94124" lon="-0.95437">
        <ele>4.3</ele>
        <time>2022-06-21T10:43:29Z</time>
      </trkpt>
      <trkpt lat="45.94124" lon="-0.95437">
        <ele>4.3</ele>
        <time>2022-06-21T10:43:30Z</time>
      </trkpt>
      <trkpt lat="45.94124" lon="-0.95437">
        <ele>4.3</ele>
        <time>2022-06-21T10:43:31Z</time>
      </trkpt>
      <trkpt lat="45.94124" lon="-0.95437">
        <ele>4.3</ele>
        <time>2022-06-21T10:43:32Z</time>
      </trkpt>
      <trkpt lat="45.94124" lon="-0.95437">
        <ele>4.3</ele>
        <time>2022-06-21T10:43:33Z</time>
      </trkpt>
      <trkpt lat="45.94124" lon="-0.95437">
        <ele>4.3</ele>
        <time>2022-06-21T10:43:34Z</time>
      </trkpt>
      <trkpt lat="45.94124" lon="-0.95437">
        <ele>4.3</ele>
        <time>2022-06-21T10:43:35Z</time>
      </trkpt>
      <trkpt lat="45.94124" lon="-0.95437">
        <ele>4.3</ele>
        <time>2022-06-21T10:43:36Z</time>
      </trkpt>
      <trkpt lat="45.94124" lon="-0.95437">
        <ele>4.3</ele>
        <time>2022-06-21T10:43:37Z</time>
      </trkpt>
      <trkpt lat="45.94124" lon="-0.95437">
        <ele>4.3</ele>
        <time>2022-06-21T10:43:38Z</time>
      </trkpt>
      <trkpt lat="45.94124" lon="-0.95437">
        <ele>4.3</ele>
        <time>2022-06-21T10:43:39Z</time>
      </trkpt>
      <trkpt lat="45.94124" lon="-0.95437">
        <ele>4.3</ele>
        <time>2022-06-21T10:43:40Z</time>
      </trkpt>
      <trkpt lat="45.94124" lon="-0.95437">
        <ele>4.3</ele>
        <time>2022-06-21T10:43:41Z</time>
      </trkpt>
      <trkpt lat="45.94124" lon="-0.95437">
        <ele>4.3</ele>
        <time>2022-06-21T10:43:42Z</time>
      </trkpt>
      <trkpt lat="45.94124" lon="-0.95437">
        <ele>4.3</ele>
        <time>2022-06-21T10:43:43Z</time>
      </trkpt>
      <trkpt lat="45.94124" lon="-0.95437">
        <ele>4.3</ele>
        <time>2022-06-21T10:43:44Z</time>
      </trkpt>
      <trkpt lat="45.94124" lon="-0.95437">
        <ele>4.3</ele>
        <time>2022-06-21T10:43:45Z</time>
      </trkpt>
      <trkpt lat="45.94124" lon="-0.95437">
        <ele>4.3</ele>
        <time>2022-06-21T10:43:46Z</time>
      </trkpt>
      <trkpt lat="45.94124" lon="-0.95437">
        <ele>4.3</ele>
        <time>2022-06-21T10:43:47Z</time>
      </trkpt>
      <trkpt lat="45.94124" lon="-0.95437">
        <ele>4.3</ele>
        <time>2022-06-21T10:43:48Z</time>
      </trkpt>
      <trkpt lat="45.94124" lon="-0.95437">
        <ele>4.3</ele>
        <time>2022-06-21T10:43:49Z</time>
      </trkpt>
      <trkpt lat="45.94124" lon="-0.95437">
        <ele>4.3</ele>
        <time>2022-06-21T10:43:50Z</time>
      </trkpt>
      <trkpt lat="45.94124" lon="-0.95437">
        <ele>4.3</ele>
        <time>2022-06-21T10:43:51Z</time>
      </trkpt>
      <trkpt lat="45.94124" lon="-0.95437">
        <ele>4.3</ele>
        <time>2022-06-21T10:43:52Z</time>
      </trkpt>
      <trkpt lat="45.94124" lon="-0.95437">
        <ele>4.3</ele>
        <time>2022-06-21T10:43:53Z</time>
      </trkpt>
      <trkpt lat="45.94124" lon="-0.95437">
        <ele>4.3</ele>
        <time>2022-06-21T10:43:54Z</time>
      </trkpt>
      <trkpt lat="45.94124" lon="-0.95437">
        <ele>4.3</ele>
        <time>2022-06-21T10:43:55Z</time>
      </trkpt>
      <trkpt lat="45.94124" lon="-0.95437">
        <ele>4.3</ele>
        <time>2022-06-21T10:43:56Z</time>
      </trkpt>
      <trkpt lat="45.94124" lon="-0.95437">
        <ele>4.3</ele>
        <time>2022-06-21T10:43:57Z</time>
      </trkpt>
      <trkpt lat="45.94124" lon="-0.95437">
        <ele>4.3</ele>
        <time>2022-06-21T10:43:58Z</time>
      </trkpt>
      <trkpt lat="45.94124" lon="-0.95437">
        <ele>4.3</ele>
        <time>2022-06-21T10:43:59Z</time>
      </trkpt>
      <trkpt lat="45.94124" lon="-0.95437">
        <ele>4.3</ele>
        <time>2022-06-21T10:44:00Z</time>
      </trkpt>
      <trkpt lat="45.94124" lon="-0.95437">
        <ele>4.3</ele>
        <time>2022-06-21T10:44:01Z</time>
      </trkpt>
      <trkpt lat="45.94124" lon="-0.95437">
        <ele>4.3</ele>
        <time>2022-06-21T10:44:02Z</time>
      </trkpt>
      <trkpt lat="45.94124" lon="-0.95437">
        <ele>4.3</ele>
        <time>2022-06-21T10:44:03Z</time>
      </trkpt>
      <trkpt lat="45.94124" lon="-0.95437">
        <ele>4.3</ele>
        <time>2022-06-21T10:44:04Z</time>
      </trkpt>
      <trkpt lat="45.94124" lon="-0.95437">
        <ele>4.3</ele>
        <time>2022-06-21T10:44:05Z</time>
      </trkpt>
      <trkpt lat="45.94124" lon="-0.95437">
        <ele>4.3</ele>
        <time>2022-06-21T10:44:06Z</time>
      </trkpt>
      <trkpt lat="45.94124" lon="-0.95437">
        <ele>4.3</ele>
        <time>2022-06-21T10:44:07Z</time>
      </trkpt>
      <trkpt lat="45.94124" lon="-0.95437">
        <ele>4.3</ele>
        <time>2022-06-21T10:44:08Z</time>
      </trkpt>
      <trkpt lat="45.94124" lon="-0.95437">
        <ele>4.3</ele>
        <time>2022-06-21T10:44:09Z</time>
      </trkpt>
      <trkpt lat="45.94124" lon="-0.95437">
        <ele>4.3</ele>
        <time>2022-06-21T10:44:10Z</time>
      </trkpt>
      <trkpt lat="45.94124" lon="-0.95437">
        <ele>4.3</ele>
        <time>2022-06-21T10:44:11Z</time>
      </trkpt>
      <trkpt lat="45.94124" lon="-0.95437">
        <ele>4.3</ele>
        <time>2022-06-21T10:44:12Z</time>
      </trkpt>
      <trkpt lat="45.94124" lon="-0.95437">
        <ele>4.3</ele>
        <time>2022-06-21T10:44:13Z</time>
      </trkpt>
      <trkpt lat="45.94124" lon="-0.95437">
        <ele>4.3</ele>
        <time>2022-06-21T10:44:14Z</time>
      </trkpt>
      <trkpt lat="45.94124" lon="-0.95437">
        <ele>4.3</ele>
        <time>2022-06-21T10:44:15Z</time>
      </trkpt>
      <trkpt lat="45.94124" lon="-0.95437">
        <ele>4.3</ele>
        <time>2022-06-21T10:44:16Z</time>
      </trkpt>
      <trkpt lat="45.94124" lon="-0.95437">
        <ele>4.3</ele>
        <time>2022-06-21T10:44:17Z</time>
      </trkpt>
      <trkpt lat="45.94124" lon="-0.95437">
        <ele>4.3</ele>
        <time>2022-06-21T10:44:18Z</time>
      </trkpt>
      <trkpt lat="45.94124" lon="-0.95437">
        <ele>4.3</ele>
        <time>2022-06-21T10:44:19Z</time>
      </trkpt>
      <trkpt lat="45.94124" lon="-0.95437">
        <ele>4.3</ele>
        <time>2022-06-21T10:44:20Z</time>
      </trkpt>
      <trkpt lat="45.94124" lon="-0.95437">
        <ele>4.3</ele>
        <time>2022-06-21T10:44:21Z</time>
      </trkpt>
      <trkpt lat="45.94124" lon="-0.95437">
        <ele>4.3</ele>
        <time>2022-06-21T10:44:22Z</time>
      </trkpt>
      <trkpt lat="45.94124" lon="-0.95437">
        <ele>4.3</ele>
        <time>2022-06-21T10:44:23Z</time>
      </trkpt>
      <trkpt lat="45.94124" lon="-0.95437">
        <ele>4.3</ele>
        <time>2022-06-21T10:44:24Z</time>
      </trkpt>
      <trkpt lat="45.94124" lon="-0.95437">
        <ele>4.3</ele>
        <time>2022-06-21T10:44:25Z</time>
      </trkpt>
      <trkpt lat="45.94124" lon="-0.95437">
        <ele>4.3</ele>
        <time>2022-06-21T10:44:26Z</time>
      </trkpt>
      <trkpt lat="45.94124" lon="-0.95437">
        <ele>4.3</ele>
        <time>2022-06-21T10:44:27Z</time>
      </trkpt>
      <trkpt lat="45.94124" lon="-0.95437">
        <ele>4.3</ele>
        <time>2022-06-21T10:44:28Z</time>
      </trkpt>
      <trkpt lat="45.94124" lon="-0.95437">
        <ele>4.3</ele>
        <time>2022-06-21T10:44:29Z</time>
      </trkpt>
      <trkpt lat="45.94124" lon="-0.95437">
        <ele>4.3</ele>
        <time>2022-06-21T10:44:30Z</time>
      </trkpt>
      <trkpt lat="45.94124" lon="-0.95437">
        <ele>4.3</ele>
        <time>2022-06-21T10:44:31Z</time>
      </trkpt>
      <trkpt lat="45.94124" lon="-0.95437">
        <ele>4.3</ele>
        <time>2022-06-21T10:44:32Z</time>
      </trkpt>
      <trkpt lat="45.94124" lon="-0.95437">
        <ele>4.3</ele>
        <time>2022-06-21T10:44:33Z</time>
      </trkpt>
      <trkpt lat="45.94124" lon="-0.95437">
        <ele>4.3</ele>
        <time>2022-06-21T10:44:34Z</time>
      </trkpt>
      <trkpt lat="45.94124" lon="-0.95437">
        <ele>4.3</ele>
        <time>2022-06-21T10:44:35Z</time>
      </trkpt>
      <trkpt lat="45.94124" lon="-0.95437">
        <ele>4.3</ele>
        <time>2022-06-21T10:44:36Z</time>
      </trkpt>
      <trkpt lat="45.94124" lon="-0.95437">
        <ele>4.3</ele>
        <time>2022-06-21T10:44:37Z</time>
      </trkpt>
      <trkpt lat="45.94124" lon="-0.95437">
        <ele>4.3</ele>
        <time>2022-06-21T10:44:38Z</time>
      </trkpt>
      <trkpt lat="45.94124" lon="-0.95437">
        <ele>4.3</ele>
        <time>2022-06-21T10:44:39Z</time>
      </trkpt>
      <trkpt lat="45.94124" lon="-0.95437">
        <ele>4.3</ele>
        <time>2022-06-21T10:44:40Z</time>
      </trkpt>
      <trkpt lat="45.94124" lon="-0.95437">
        <ele>4.3</ele>
        <time>2022-06-21T10:44:41Z</time>
      </trkpt>
      <trkpt lat="45.94124" lon="-0.95437">
        <ele>4.3</ele>
        <time>2022-06-21T10:44:42Z</time>
      </trkpt>
      <trkpt lat="45.94124" lon="-0.95437">
        <ele>4.3</ele>
        <time>2022-06-21T10:44:43Z</time>
      </trkpt>
      <trkpt lat="45.94124" lon="-0.95437">
        <ele>4.3</ele>
        <time>2022-06-21T10:44:44Z</time>
      </trkpt>
      <trkpt lat="45.94124" lon="-0.95437">
        <ele>4.3</ele>
        <time>2022-06-21T10:44:45Z</time>
      </trkpt>
      <trkpt lat="45.94124" lon="-0.95437">
        <ele>4.3</ele>
        <time>2022-06-21T10:44:46Z</time>
      </trkpt>
      <trkpt lat="45.94124" lon="-0.95437">
        <ele>4.3</ele>
        <time>2022-06-21T10:44:47Z</time>
      </trkpt>
      <trkpt lat="45.94124" lon="-0.95437">
        <ele>4.3</ele>
        <time>2022-06-21T10:44:48Z</time>
      </trkpt>
      <trkpt lat="45.94124" lon="-0.95437">
        <ele>4.3</ele>
        <time>2022-06-21T10:44:49Z</time>
      </trkpt>
      <trkpt lat="45.94124" lon="-0.95437">
        <ele>4.3</ele>
        <time>2022-06-21T10:44:50Z</time>
      </trkpt>
      <trkpt lat="45.94124" lon="-0.95437">
        <ele>4.3</ele>
        <time>2022-06-21T10:44:51Z</time>
      </trkpt>
      <trkpt lat="45.94124" lon="-0.95437">
        <ele>4.3</ele>
        <time>2022-06-21T10:44:52Z</time>
      </trkpt>
      <trkpt lat="45.94124" lon="-0.95437">
        <ele>4.3</ele>
        <time>2022-06-21T10:44:53Z</time>
      </trkpt>
      <trkpt lat="45.94124" lon="-0.95437">
        <ele>4.3</ele>
        <time>2022-06-21T10:44:54Z</time>
      </trkpt>
      <trkpt lat="45.94124" lon="-0.95437">
        <ele>4.3</ele>
        <time>2022-06-21T10:44:55Z</time>
      </trkpt>
      <trkpt lat="45.94124" lon="-0.95437">
        <ele>4.3</ele>
        <time>2022-06-21T10:44:56Z</time>
      </trkpt>
      <trkpt lat="45.94124" lon="-0.95437">
        <ele>4.3</ele>
        <time>2022-06-21T10:44:57Z</time>
      </trkpt>
      <trkpt lat="45.94124" lon="-0.95437">
        <ele>4.3</ele>
        <time>2022-06-21T10:44:58Z</time>
      </trkpt>
      <trkpt lat="45.94124" lon="-0.95437">
        <ele>4.3</ele>
        <time>2022-06-21T10:44:59Z</time>
      </trkpt>
      <trkpt lat="45.94124" lon="-0.95437">
        <ele>4.3</ele>
        <time>2022-06-21T10:45:00Z</time>
      </trkpt>
      <trkpt lat="45.94124" lon="-0.95437">
        <ele>4.3</ele>
        <time>2022-06-21T10:45:01Z</time>
      </trkpt>
      <trkpt lat="45.94124" lon="-0.95437">
        <ele>4.3</ele>
        <time>2022-06-21T10:45:02Z</time>
      </trkpt>
      <trkpt lat="45.94124" lon="-0.95437">
        <ele>4.3</ele>
        <time>2022-06-21T10:45:03Z</time>
      </trkpt>
      <trkpt lat="45.94124" lon="-0.95437">
        <ele>4.3</ele>
        <time>2022-06-21T10:45:04Z</time>
      </trkpt>
      <trkpt lat="45.94124" lon="-0.95437">
        <ele>4.3</ele>
        <time>2022-06-21T10:45:05Z</time>
      </trkpt>
      <trkpt lat="45.94124" lon="-0.95437">
        <ele>4.3</ele>
        <time>2022-06-21T10:45:06Z</time>
      </trkpt>
      <trkpt lat="45.94124" lon="-0.95437">
        <ele>4.3</ele>
        <time>2022-06-21T10:45:07Z</time>
      </trkpt>
      <trkpt lat="45.94124" lon="-0.95437">
        <ele>4.3</ele>
        <time>2022-06-21T10:45:08Z</time>
      </trkpt>
      <trkpt lat="45.94124" lon="-0.95437">
        <ele>4.3</ele>
        <time>2022-06-21T10:45:09Z</time>
      </trkpt>
      <trkpt lat="45.94124" lon="-0.95437">
        <ele>4.3</ele>
        <time>2022-06-21T10:45:10Z</time>
      </trkpt>
      <trkpt lat="45.94124" lon="-0.95437">
        <ele>4.3</ele>
        <time>2022-06-21T10:45:11Z</time>
      </trkpt>
      <trkpt lat="45.94124" lon="-0.95437">
        <ele>4.3</ele>
        <time>2022-06-21T10:45:12Z</time>
      </trkpt>
      <trkpt lat="45.94124" lon="-0.95437">
        <ele>4.3</ele>
        <time>2022-06-21T10:45:13Z</time>
      </trkpt>
      <trkpt lat="45.94124" lon="-0.95437">
        <ele>4.3</ele>
        <time>2022-06-21T10:45:14Z</time>
      </trkpt>
      <trkpt lat="45.94124" lon="-0.95437">
        <ele>4.3</ele>
        <time>2022-06-21T10:45:15Z</time>
      </trkpt>
      <trkpt lat="45.94124" lon="-0.95437">
        <ele>4.3</ele>
        <time>2022-06-21T10:45:16Z</time>
      </trkpt>
      <trkpt lat="45.94124" lon="-0.95437">
        <ele>4.3</ele>
        <time>2022-06-21T10:45:17Z</time>
      </trkpt>
      <trkpt lat="45.94124" lon="-0.95437">
        <ele>4.3</ele>
        <time>2022-06-21T10:45:18Z</time>
      </trkpt>
      <trkpt lat="45.94124" lon="-0.95437">
        <ele>4.3</ele>
        <time>2022-06-21T10:45:19Z</time>
      </trkpt>
      <trkpt lat="45.94124" lon="-0.95437">
        <ele>4.3</ele>
        <time>2022-06-21T10:45:20Z</time>
      </trkpt>
      <trkpt lat="45.94124" lon="-0.95437">
        <ele>4.3</ele>
        <time>2022-06-21T10:45:21Z</time>
      </trkpt>
      <trkpt lat="45.94124" lon="-0.95437">
        <ele>4.3</ele>
        <time>2022-06-21T10:45:22Z</time>
      </trkpt>
      <trkpt lat="45.94124" lon="-0.95437">
        <ele>4.3</ele>
        <time>2022-06-21T10:45:23Z</time>
      </trkpt>
      <trkpt lat="45.94124" lon="-0.95437">
        <ele>4.3</ele>
        <time>2022-06-21T10:45:24Z</time>
      </trkpt>
      <trkpt lat="45.94124" lon="-0.95437">
        <ele>4.3</ele>
        <time>2022-06-21T10:45:25Z</time>
      </trkpt>
      <trkpt lat="45.94124" lon="-0.95437">
        <ele>4.3</ele>
        <time>2022-06-21T10:45:26Z</time>
      </trkpt>
      <trkpt lat="45.94124" lon="-0.95437">
        <ele>4.3</ele>
        <time>2022-06-21T10:45:27Z</time>
      </trkpt>
      <trkpt lat="45.94124" lon="-0.95437">
        <ele>4.3</ele>
        <time>2022-06-21T10:45:28Z</time>
      </trkpt>
      <trkpt lat="45.94124" lon="-0.95437">
        <ele>4.3</ele>
        <time>2022-06-21T10:45:29Z</time>
      </trkpt>
      <trkpt lat="45.94124" lon="-0.95437">
        <ele>4.3</ele>
        <time>2022-06-21T10:45:30Z</time>
      </trkpt>
      <trkpt lat="45.94124" lon="-0.95437">
        <ele>4.3</ele>
        <time>2022-06-21T10:45:31Z</time>
      </trkpt>
      <trkpt lat="45.94124" lon="-0.95437">
        <ele>4.3</ele>
        <time>2022-06-21T10:45:32Z</time>
      </trkpt>
      <trkpt lat="45.94124" lon="-0.95437">
        <ele>4.3</ele>
        <time>2022-06-21T10:45:33Z</time>
      </trkpt>
      <trkpt lat="45.94124" lon="-0.95437">
        <ele>4.3</ele>
        <time>2022-06-21T10:45:34Z</time>
      </trkpt>
      <trkpt lat="45.94124" lon="-0.95437">
        <ele>4.3</ele>
        <time>2022-06-21T10:45:35Z</time>
      </trkpt>
      <trkpt lat="45.94124" lon="-0.95437">
        <ele>4.3</ele>
        <time>2022-06-21T10:45:36Z</time>
      </trkpt>
      <trkpt lat="45.94124" lon="-0.95437">
        <ele>4.3</ele>
        <time>2022-06-21T10:45:37Z</time>
      </trkpt>
      <trkpt lat="45.94124" lon="-0.95437">
        <ele>4.3</ele>
        <time>2022-06-21T10:45:38Z</time>
      </trkpt>
      <trkpt lat="45.94124" lon="-0.95437">
        <ele>4.3</ele>
        <time>2022-06-21T10:45:39Z</time>
      </trkpt>
      <trkpt lat="45.94124" lon="-0.95437">
        <ele>4.3</ele>
        <time>2022-06-21T10:45:40Z</time>
      </trkpt>
      <trkpt lat="45.94124" lon="-0.95437">
        <ele>4.3</ele>
        <time>2022-06-21T10:45:41Z</time>
      </trkpt>
      <trkpt lat="45.94124" lon="-0.95437">
        <ele>4.3</ele>
        <time>2022-06-21T10:45:42Z</time>
      </trkpt>
      <trkpt lat="45.94124" lon="-0.95437">
        <ele>4.3</ele>
        <time>2022-06-21T10:45:43Z</time>
      </trkpt>
      <trkpt lat="45.94124" lon="-0.95437">
        <ele>4.3</ele>
        <time>2022-06-21T10:45:44Z</time>
      </trkpt>
      <trkpt lat="45.94124" lon="-0.95437">
        <ele>4.3</ele>
        <time>2022-06-21T10:45:45Z</time>
      </trkpt>
      <trkpt lat="45.94124" lon="-0.95437">
        <ele>4.3</ele>
        <time>2022-06-21T10:45:46Z</time>
      </trkpt>
      <trkpt lat="45.94124" lon="-0.95437">
        <ele>4.3</ele>
        <time>2022-06-21T10:45:47Z</time>
      </trkpt>
      <trkpt lat="45.94124" lon="-0.95437">
        <ele>4.3</ele>
        <time>2022-06-21T10:45:48Z</time>
      </trkpt>
      <trkpt lat="45.94124" lon="-0.95437">
        <ele>4.3</ele>
        <time>2022-06-21T10:45:49Z</time>
      </trkpt>
      <trkpt lat="45.94124" lon="-0.95437">
        <ele>4.3</ele>
        <time>2022-06-21T10:45:50Z</time>
      </trkpt>
      <trkpt lat="45.94124" lon="-0.95437">
        <ele>4.3</ele>
        <time>2022-06-21T10:45:51Z</time>
      </trkpt>
      <trkpt lat="45.94124" lon="-0.95437">
        <ele>4.3</ele>
        <time>2022-06-21T10:45:52Z</time>
      </trkpt>
      <trkpt lat="45.94124" lon="-0.95437">
        <ele>4.3</ele>
        <time>2022-06-21T10:45:53Z</time>
      </trkpt>
      <trkpt lat="45.94124" lon="-0.95437">
        <ele>4.3</ele>
        <time>2022-06-21T10:45:54Z</time>
      </trkpt>
      <trkpt lat="45.94124" lon="-0.95437">
        <ele>4.3</ele>
        <time>2022-06-21T10:45:55Z</time>
      </trkpt>
      <trkpt lat="45.94124" lon="-0.95437">
        <ele>4.3</ele>
        <time>2022-06-21T10:45:56Z</time>
      </trkpt>
      <trkpt lat="45.94124" lon="-0.95437">
        <ele>4.3</ele>
        <time>2022-06-21T10:45:57Z</time>
      </trkpt>
      <trkpt lat="45.94124" lon="-0.95437">
        <ele>4.3</ele>
        <time>2022-06-21T10:45:58Z</time>
      </trkpt>
      <trkpt lat="45.94124" lon="-0.95437">
        <ele>4.3</ele>
        <time>2022-06-21T10:45:59Z</time>
      </trkpt>
      <trkpt lat="45.94124" lon="-0.95437">
        <ele>4.3</ele>
        <time>2022-06-21T10:46:00Z</time>
      </trkpt>
      <trkpt lat="45.94124" lon="-0.95437">
        <ele>4.3</ele>
        <time>2022-06-21T10:46:01Z</time>
      </trkpt>
      <trkpt lat="45.94124" lon="-0.95437">
        <ele>4.3</ele>
        <time>2022-06-21T10:46:02Z</time>
      </trkpt>
      <trkpt lat="45.94124" lon="-0.95437">
        <ele>4.3</ele>
        <time>2022-06-21T10:46:03Z</time>
      </trkpt>
      <trkpt lat="45.94124" lon="-0.95437">
        <ele>4.3</ele>
        <time>2022-06-21T10:46:04Z</time>
      </trkpt>
      <trkpt lat="45.94124" lon="-0.95437">
        <ele>4.3</ele>
        <time>2022-06-21T10:46:05Z</time>
      </trkpt>
      <trkpt lat="45.94124" lon="-0.95437">
        <ele>4.3</ele>
        <time>2022-06-21T10:46:06Z</time>
      </trkpt>
      <trkpt lat="45.94124" lon="-0.95437">
        <ele>4.3</ele>
        <time>2022-06-21T10:46:07Z</time>
      </trkpt>
      <trkpt lat="45.94124" lon="-0.95437">
        <ele>4.3</ele>
        <time>2022-06-21T10:46:08Z</time>
      </trkpt>
      <trkpt lat="45.94124" lon="-0.95437">
        <ele>4.3</ele>
        <time>2022-06-21T10:46:09Z</time>
      </trkpt>
      <trkpt lat="45.94124" lon="-0.95437">
        <ele>4.3</ele>
        <time>2022-06-21T10:46:10Z</time>
      </trkpt>
      <trkpt lat="45.94124" lon="-0.95437">
        <ele>4.3</ele>
        <time>2022-06-21T10:46:11Z</time>
      </trkpt>
      <trkpt lat="45.94124" lon="-0.95437">
        <ele>4.3</ele>
        <time>2022-06-21T10:46:12Z</time>
      </trkpt>
      <trkpt lat="45.94124" lon="-0.95437">
        <ele>4.3</ele>
        <time>2022-06-21T10:46:13Z</time>
      </trkpt>
      <trkpt lat="45.94124" lon="-0.95437">
        <ele>4.3</ele>
        <time>2022-06-21T10:46:14Z</time>
      </trkpt>
      <trkpt lat="45.94124" lon="-0.95437">
        <ele>4.3</ele>
        <time>2022-06-21T10:46:15Z</time>
      </trkpt>
      <trkpt lat="45.94124" lon="-0.95437">
        <ele>4.3</ele>
        <time>2022-06-21T10:46:16Z</time>
      </trkpt>
      <trkpt lat="45.94124" lon="-0.95437">
        <ele>4.3</ele>
        <time>2022-06-21T10:46:17Z</time>
      </trkpt>
      <trkpt lat="45.94124" lon="-0.95437">
        <ele>4.3</ele>
        <time>2022-06-21T10:46:18Z</time>
      </trkpt>
      <trkpt lat="45.94124" lon="-0.95437">
        <ele>4.3</ele>
        <time>2022-06-21T10:46:19Z</time>
      </trkpt>
      <trkpt lat="45.94124" lon="-0.95437">
        <ele>4.3</ele>
        <time>2022-06-21T10:46:20Z</time>
      </trkpt>
      <trkpt lat="45.94124" lon="-0.95437">
        <ele>4.3</ele>
        <time>2022-06-21T10:46:21Z</time>
      </trkpt>
      <trkpt lat="45.94124" lon="-0.95437">
        <ele>4.3</ele>
        <time>2022-06-21T10:46:22Z</time>
      </trkpt>
      <trkpt lat="45.94124" lon="-0.95437">
        <ele>4.3</ele>
        <time>2022-06-21T10:46:23Z</time>
      </trkpt>
      <trkpt lat="45.94124" lon="-0.95437">
        <ele>4.3</ele>
        <time>2022-06-21T10:46:24Z</time>
      </trkpt>
      <trkpt lat="45.94124" lon="-0.95437">
        <ele>4.3</ele>
        <time>2022-06-21T10:46:25Z</time>
      </trkpt>
      <trkpt lat="45.94124" lon="-0.95437">
        <ele>4.3</ele>
        <time>2022-06-21T10:46:26Z</time>
      </trkpt>
      <trkpt lat="45.94124" lon="-0.95437">
        <ele>4.3</ele>
        <time>2022-06-21T10:46:27Z</time>
      </trkpt>
      <trkpt lat="45.94124" lon="-0.95437">
        <ele>4.3</ele>
        <time>2022-06-21T10:46:28Z</time>
      </trkpt>
      <trkpt lat="45.94124" lon="-0.95437">
        <ele>4.3</ele>
        <time>2022-06-21T10:46:29Z</time>
      </trkpt>
      <trkpt lat="45.94124" lon="-0.95437">
        <ele>4.3</ele>
        <time>2022-06-21T10:46:30Z</time>
      </trkpt>
      <trkpt lat="45.94124" lon="-0.95437">
        <ele>4.3</ele>
        <time>2022-06-21T10:46:31Z</time>
      </trkpt>
      <trkpt lat="45.94124" lon="-0.95437">
        <ele>4.3</ele>
        <time>2022-06-21T10:46:32Z</time>
      </trkpt>
      <trkpt lat="45.94124" lon="-0.95437">
        <ele>4.3</ele>
        <time>2022-06-21T10:46:33Z</time>
      </trkpt>
      <trkpt lat="45.94124" lon="-0.95437">
        <ele>4.3</ele>
        <time>2022-06-21T10:46:34Z</time>
      </trkpt>
      <trkpt lat="45.94124" lon="-0.95437">
        <ele>4.3</ele>
        <time>2022-06-21T10:46:35Z</time>
      </trkpt>
      <trkpt lat="45.94124" lon="-0.95437">
        <ele>4.3</ele>
        <time>2022-06-21T10:46:36Z</time>
      </trkpt>
      <trkpt lat="45.94124" lon="-0.95437">
        <ele>4.3</ele>
        <time>2022-06-21T10:46:37Z</time>
      </trkpt>
      <trkpt lat="45.94124" lon="-0.95437">
        <ele>4.3</ele>
        <time>2022-06-21T10:46:38Z</time>
      </trkpt>
      <trkpt lat="45.94124" lon="-0.95437">
        <ele>4.3</ele>
        <time>2022-06-21T10:46:39Z</time>
      </trkpt>
      <trkpt lat="45.94124" lon="-0.95437">
        <ele>4.3</ele>
        <time>2022-06-21T10:46:40Z</time>
      </trkpt>
      <trkpt lat="45.94124" lon="-0.95437">
        <ele>4.3</ele>
        <time>2022-06-21T10:46:41Z</time>
      </trkpt>
      <trkpt lat="45.94124" lon="-0.95437">
        <ele>4.3</ele>
        <time>2022-06-21T10:46:42Z</time>
      </trkpt>
      <trkpt lat="45.94124" lon="-0.95437">
        <ele>4.3</ele>
        <time>2022-06-21T10:46:43Z</time>
      </trkpt>
      <trkpt lat="45.94124" lon="-0.95437">
        <ele>4.3</ele>
        <time>2022-06-21T10:46:44Z</time>
      </trkpt>
      <trkpt lat="45.94124" lon="-0.95437">
        <ele>4.3</ele>
        <time>2022-06-21T10:46:45Z</time>
      </trkpt>
      <trkpt lat="45.94124" lon="-0.95437">
        <ele>4.3</ele>
        <time>2022-06-21T10:46:46Z</time>
      </trkpt>
      <trkpt lat="45.94124" lon="-0.95437">
        <ele>4.3</ele>
        <time>2022-06-21T10:46:47Z</time>
      </trkpt>
      <trkpt lat="45.94124" lon="-0.95437">
        <ele>4.3</ele>
        <time>2022-06-21T10:46:48Z</time>
      </trkpt>
      <trkpt lat="45.94124" lon="-0.95437">
        <ele>4.3</ele>
        <time>2022-06-21T10:46:49Z</time>
      </trkpt>
      <trkpt lat="45.94124" lon="-0.95437">
        <ele>4.3</ele>
        <time>2022-06-21T10:46:50Z</time>
      </trkpt>
      <trkpt lat="45.94124" lon="-0.95437">
        <ele>4.3</ele>
        <time>2022-06-21T10:46:51Z</time>
      </trkpt>
      <trkpt lat="45.94124" lon="-0.95437">
        <ele>4.3</ele>
        <time>2022-06-21T10:46:52Z</time>
      </trkpt>
      <trkpt lat="45.94124" lon="-0.95437">
        <ele>4.3</ele>
        <time>2022-06-21T10:46:53Z</time>
      </trkpt>
      <trkpt lat="45.94124" lon="-0.95437">
        <ele>4.3</ele>
        <time>2022-06-21T10:46:54Z</time>
      </trkpt>
      <trkpt lat="45.94124" lon="-0.95437">
        <ele>4.3</ele>
        <time>2022-06-21T10:46:55Z</time>
      </trkpt>
      <trkpt lat="45.94124" lon="-0.95437">
        <ele>4.3</ele>
        <time>2022-06-21T10:46:56Z</time>
      </trkpt>
      <trkpt lat="45.94124" lon="-0.95437">
        <ele>4.3</ele>
        <time>2022-06-21T10:46:57Z</time>
      </trkpt>
      <trkpt lat="45.94124" lon="-0.95437">
        <ele>4.3</ele>
        <time>2022-06-21T10:46:58Z</time>
      </trkpt>
      <trkpt lat="45.94124" lon="-0.95437">
        <ele>4.3</ele>
        <time>2022-06-21T10:46:59Z</time>
      </trkpt>
      <trkpt lat="45.94124" lon="-0.95437">
        <ele>4.3</ele>
        <time>2022-06-21T10:47:00Z</time>
      </trkpt>
      <trkpt lat="45.94124" lon="-0.95437">
        <ele>4.3</ele>
        <time>2022-06-21T10:47:01Z</time>
      </trkpt>
      <trkpt lat="45.94124" lon="-0.95437">
        <ele>4.3</ele>
        <time>2022-06-21T10:47:02Z</time>
      </trkpt>
      <trkpt lat="45.94124" lon="-0.95437">
        <ele>4.3</ele>
        <time>2022-06-21T10:47:03Z</time>
      </trkpt>
      <trkpt lat="45.94124" lon="-0.95437">
        <ele>4.3</ele>
        <time>2022-06-21T10:47:04Z</time>
      </trkpt>
      <trkpt lat="45.94124" lon="-0.95437">
        <ele>4.3</ele>
        <time>2022-06-21T10:47:05Z</time>
      </trkpt>
      <trkpt lat="45.94124" lon="-0.95437">
        <ele>4.3</ele>
        <time>2022-06-21T10:47:06Z</time>
      </trkpt>
      <trkpt lat="45.94124" lon="-0.95437">
        <ele>4.3</ele>
        <time>2022-06-21T10:47:07Z</time>
      </trkpt>
      <trkpt lat="45.94124" lon="-0.95437">
        <ele>4.3</ele>
        <time>2022-06-21T10:47:08Z</time>
      </trkpt>
      <trkpt lat="45.94124" lon="-0.95437">
        <ele>4.3</ele>
        <time>2022-06-21T10:47:09Z</time>
      </trkpt>
      <trkpt lat="45.94124" lon="-0.95437">
        <ele>4.3</ele>
        <time>2022-06-21T10:47:10Z</time>
      </trkpt>
      <trkpt lat="45.94124" lon="-0.95437">
        <ele>4.3</ele>
        <time>2022-06-21T10:47:11Z</time>
      </trkpt>
      <trkpt lat="45.94124" lon="-0.95437">
        <ele>4.3</ele>
        <time>2022-06-21T10:47:12Z</time>
      </trkpt>
      <trkpt lat="45.94124" lon="-0.95437">
        <ele>4.3</ele>
        <time>2022-06-21T10:47:13Z</time>
      </trkpt>
      <trkpt lat="45.94124" lon="-0.95437">
        <ele>4.3</ele>
        <time>2022-06-21T10:47:14Z</time>
      </trkpt>
      <trkpt lat="45.94124" lon="-0.95437">
        <ele>4.3</ele>
        <time>2022-06-21T10:47:15Z</time>
      </trkpt>
      <trkpt lat="45.94124" lon="-0.95437">
        <ele>4.3</ele>
        <time>2022-06-21T10:47:16Z</time>
      </trkpt>
      <trkpt lat="45.94124" lon="-0.95437">
        <ele>4.3</ele>
        <time>2022-06-21T10:47:17Z</time>
      </trkpt>
      <trkpt lat="45.94124" lon="-0.95437">
        <ele>4.3</ele>
        <time>2022-06-21T10:47:18Z</time>
      </trkpt>
      <trkpt lat="45.94124" lon="-0.95437">
        <ele>4.3</ele>
        <time>2022-06-21T10:47:19Z</time>
      </trkpt>
      <trkpt lat="45.94124" lon="-0.95437">
        <ele>4.3</ele>
        <time>2022-06-21T10:47:20Z</time>
      </trkpt>
      <trkpt lat="45.94124" lon="-0.95437">
        <ele>4.3</ele>
        <time>2022-06-21T10:47:21Z</time>
      </trkpt>
      <trkpt lat="45.94124" lon="-0.95437">
        <ele>4.3</ele>
        <time>2022-06-21T10:47:22Z</time>
      </trkpt>
      <trkpt lat="45.94124" lon="-0.95437">
        <ele>4.3</ele>
        <time>2022-06-21T10:47:23Z</time>
      </trkpt>
      <trkpt lat="45.94124" lon="-0.95437">
        <ele>4.3</ele>
        <time>2022-06-21T10:47:24Z</time>
      </trkpt>
      <trkpt lat="45.94124" lon="-0.95437">
        <ele>4.3</ele>
        <time>2022-06-21T10:47:25Z</time>
      </trkpt>
      <trkpt lat="45.94124" lon="-0.95437">
        <ele>4.3</ele>
        <time>2022-06-21T10:47:26Z</time>
      </trkpt>
      <trkpt lat="45.94124" lon="-0.95437">
        <ele>4.3</ele>
        <time>2022-06-21T10:47:27Z</time>
      </trkpt>
      <trkpt lat="45.94124" lon="-0.95437">
        <ele>4.3</ele>
        <time>2022-06-21T10:47:28Z</time>
      </trkpt>
      <trkpt lat="45.94124" lon="-0.95437">
        <ele>4.3</ele>
        <time>2022-06-21T10:47:29Z</time>
      </trkpt>
      <trkpt lat="45.94124" lon="-0.95437">
        <ele>4.3</ele>
        <time>2022-06-21T10:47:30Z</time>
      </trkpt>
      <trkpt lat="45.94124" lon="-0.95437">
        <ele>4.3</ele>
        <time>2022-06-21T10:47:31Z</time>
      </trkpt>
      <trkpt lat="45.94124" lon="-0.95437">
        <ele>4.3</ele>
        <time>2022-06-21T10:47:32Z</time>
      </trkpt>
      <trkpt lat="45.94124" lon="-0.95437">
        <ele>4.3</ele>
        <time>2022-06-21T10:47:33Z</time>
      </trkpt>
      <trkpt lat="45.94124" lon="-0.95437">
        <ele>4.3</ele>
        <time>2022-06-21T10:47:34Z</time>
      </trkpt>
      <trkpt lat="45.94124" lon="-0.95437">
        <ele>4.3</ele>
        <time>2022-06-21T10:47:35Z</time>
      </trkpt>
      <trkpt lat="45.94124" lon="-0.95437">
        <ele>4.3</ele>
        <time>2022-06-21T10:47:36Z</time>
      </trkpt>
      <trkpt lat="45.94124" lon="-0.95437">
        <ele>4.3</ele>
        <time>2022-06-21T10:47:37Z</time>
      </trkpt>
      <trkpt lat="45.94124" lon="-0.95437">
        <ele>4.3</ele>
        <time>2022-06-21T10:47:38Z</time>
      </trkpt>
      <trkpt lat="45.94124" lon="-0.95437">
        <ele>4.3</ele>
        <time>2022-06-21T10:47:39Z</time>
      </trkpt>
      <trkpt lat="45.94124" lon="-0.95437">
        <ele>4.3</ele>
        <time>2022-06-21T10:47:40Z</time>
      </trkpt>
      <trkpt lat="45.94124" lon="-0.95437">
        <ele>4.3</ele>
        <time>2022-06-21T10:47:41Z</time>
      </trkpt>
      <trkpt lat="45.94124" lon="-0.95437">
        <ele>4.3</ele>
        <time>2022-06-21T10:47:42Z</time>
      </trkpt>
      <trkpt lat="45.94124" lon="-0.95437">
        <ele>4.3</ele>
        <time>2022-06-21T10:47:43Z</time>
      </trkpt>
      <trkpt lat="45.94124" lon="-0.95437">
        <ele>4.3</ele>
        <time>2022-06-21T10:47:44Z</time>
      </trkpt>
      <trkpt lat="45.94124" lon="-0.95437">
        <ele>4.3</ele>
        <time>2022-06-21T10:47:45Z</time>
      </trkpt>
      <trkpt lat="45.94124" lon="-0.95437">
        <ele>4.3</ele>
        <time>2022-06-21T10:47:46Z</time>
      </trkpt>
      <trkpt lat="45.94124" lon="-0.95437">
        <ele>4.3</ele>
        <time>2022-06-21T10:47:47Z</time>
      </trkpt>
      <trkpt lat="45.94124" lon="-0.95437">
        <ele>4.3</ele>
        <time>2022-06-21T10:47:48Z</time>
      </trkpt>
      <trkpt lat="45.94124" lon="-0.95437">
        <ele>4.3</ele>
        <time>2022-06-21T10:47:49Z</time>
      </trkpt>
      <trkpt lat="45.94124" lon="-0.95437">
        <ele>4.3</ele>
        <time>2022-06-21T10:47:50Z</time>
      </trkpt>
      <trkpt lat="45.94124" lon="-0.95437">
        <ele>4.3</ele>
        <time>2022-06-21T10:47:51Z</time>
      </trkpt>
      <trkpt lat="45.94124" lon="-0.95437">
        <ele>4.3</ele>
        <time>2022-06-21T10:47:52Z</time>
      </trkpt>
      <trkpt lat="45.94124" lon="-0.95437">
        <ele>4.3</ele>
        <time>2022-06-21T10:47:53Z</time>
      </trkpt>
      <trkpt lat="45.94124" lon="-0.95437">
        <ele>4.3</ele>
        <time>2022-06-21T10:47:54Z</time>
      </trkpt>
      <trkpt lat="45.94124" lon="-0.95437">
        <ele>4.3</ele>
        <time>2022-06-21T10:47:55Z</time>
      </trkpt>
      <trkpt lat="45.94124" lon="-0.95437">
        <ele>4.3</ele>
        <time>2022-06-21T10:47:56Z</time>
      </trkpt>
      <trkpt lat="45.94124" lon="-0.95437">
        <ele>4.3</ele>
        <time>2022-06-21T10:47:57Z</time>
      </trkpt>
      <trkpt lat="45.94124" lon="-0.95437">
        <ele>4.3</ele>
        <time>2022-06-21T10:47:58Z</time>
      </trkpt>
      <trkpt lat="45.94124" lon="-0.95437">
        <ele>4.3</ele>
        <time>2022-06-21T10:47:59Z</time>
      </trkpt>
      <trkpt lat="45.94124" lon="-0.95437">
        <ele>4.3</ele>
        <time>2022-06-21T10:48:00Z</time>
      </trkpt>
      <trkpt lat="45.94124" lon="-0.95437">
        <ele>4.3</ele>
        <time>2022-06-21T10:48:01Z</time>
      </trkpt>
      <trkpt lat="45.94124" lon="-0.95437">
        <ele>4.3</ele>
        <time>2022-06-21T10:48:02Z</time>
      </trkpt>
      <trkpt lat="45.94124" lon="-0.95437">
        <ele>4.3</ele>
        <time>2022-06-21T10:48:03Z</time>
      </trkpt>
      <trkpt lat="45.94124" lon="-0.95437">
        <ele>4.3</ele>
        <time>2022-06-21T10:48:04Z</time>
      </trkpt>
      <trkpt lat="45.94124" lon="-0.95437">
        <ele>4.3</ele>
        <time>2022-06-21T10:48:05Z</time>
      </trkpt>
      <trkpt lat="45.94124" lon="-0.95437">
        <ele>4.3</ele>
        <time>2022-06-21T10:48:06Z</time>
      </trkpt>
      <trkpt lat="45.94124" lon="-0.95437">
        <ele>4.3</ele>
        <time>2022-06-21T10:48:07Z</time>
      </trkpt>
      <trkpt lat="45.94124" lon="-0.95437">
        <ele>4.3</ele>
        <time>2022-06-21T10:48:08Z</time>
      </trkpt>
      <trkpt lat="45.94124" lon="-0.95437">
        <ele>4.3</ele>
        <time>2022-06-21T10:48:09Z</time>
      </trkpt>
      <trkpt lat="45.94124" lon="-0.95437">
        <ele>4.3</ele>
        <time>2022-06-21T10:48:10Z</time>
      </trkpt>
      <trkpt lat="45.94124" lon="-0.95437">
        <ele>4.3</ele>
        <time>2022-06-21T10:48:11Z</time>
      </trkpt>
      <trkpt lat="45.94124" lon="-0.95437">
        <ele>4.3</ele>
        <time>2022-06-21T10:48:12Z</time>
      </trkpt>
      <trkpt lat="45.94124" lon="-0.95437">
        <ele>4.3</ele>
        <time>2022-06-21T10:48:13Z</time>
      </trkpt>
      <trkpt lat="45.94124" lon="-0.95437">
        <ele>4.3</ele>
        <time>2022-06-21T10:48:14Z</time>
      </trkpt>
      <trkpt lat="45.94124" lon="-0.95437">
        <ele>4.3</ele>
        <time>2022-06-21T10:48:15Z</time>
      </trkpt>
      <trkpt lat="45.94124" lon="-0.95437">
        <ele>4.3</ele>
        <time>2022-06-21T10:48:16Z</time>
      </trkpt>
      <trkpt lat="45.94124" lon="-0.95437">
        <ele>4.3</ele>
        <time>2022-06-21T10:48:17Z</time>
      </trkpt>
      <trkpt lat="45.94124" lon="-0.95437">
        <ele>4.3</ele>
        <time>2022-06-21T10:48:18Z</time>
      </trkpt>
      <trkpt lat="45.94124" lon="-0.95437">
        <ele>4.3</ele>
        <time>2022-06-21T10:48:19Z</time>
      </trkpt>
      <trkpt lat="45.94124" lon="-0.95437">
        <ele>4.3</ele>
        <time>2022-06-21T10:48:20Z</time>
      </trkpt>
      <trkpt lat="45.94124" lon="-0.95437">
        <ele>4.3</ele>
        <time>2022-06-21T10:48:21Z</time>
      </trkpt>
      <trkpt lat="45.94124" lon="-0.95437">
        <ele>4.3</ele>
        <time>2022-06-21T10:48:22Z</time>
      </trkpt>
      <trkpt lat="45.94124" lon="-0.95437">
        <ele>4.3</ele>
        <time>2022-06-21T10:48:23Z</time>
      </trkpt>
      <trkpt lat="45.94124" lon="-0.95437">
        <ele>4.3</ele>
        <time>2022-06-21T10:48:24Z</time>
      </trkpt>
      <trkpt lat="45.94124" lon="-0.95437">
        <ele>4.3</ele>
        <time>2022-06-21T10:48:25Z</time>
      </trkpt>
      <trkpt lat="45.94124" lon="-0.95437">
        <ele>4.3</ele>
        <time>2022-06-21T10:48:26Z</time>
      </trkpt>
      <trkpt lat="45.94124" lon="-0.95437">
        <ele>4.3</ele>
        <time>2022-06-21T10:48:27Z</time>
      </trkpt>
      <trkpt lat="45.94124" lon="-0.95437">
        <ele>4.3</ele>
        <time>2022-06-21T10:48:28Z</time>
      </trkpt>
      <trkpt lat="45.94124" lon="-0.95437">
        <ele>4.3</ele>
        <time>2022-06-21T10:48:29Z</time>
      </trkpt>
      <trkpt lat="45.94124" lon="-0.95437">
        <ele>4.3</ele>
        <time>2022-06-21T10:48:30Z</time>
      </trkpt>
      <trkpt lat="45.94124" lon="-0.95437">
        <ele>4.3</ele>
        <time>2022-06-21T10:48:31Z</time>
      </trkpt>
      <trkpt lat="45.94124" lon="-0.95437">
        <ele>4.3</ele>
        <time>2022-06-21T10:48:32Z</time>
      </trkpt>
      <trkpt lat="45.94124" lon="-0.95437">
        <ele>4.3</ele>
        <time>2022-06-21T10:48:33Z</time>
      </trkpt>
      <trkpt lat="45.94124" lon="-0.95437">
        <ele>4.3</ele>
        <time>2022-06-21T10:48:34Z</time>
      </trkpt>
      <trkpt lat="45.94124" lon="-0.95437">
        <ele>4.3</ele>
        <time>2022-06-21T10:48:35Z</time>
      </trkpt>
      <trkpt lat="45.94124" lon="-0.95437">
        <ele>4.3</ele>
        <time>2022-06-21T10:48:36Z</time>
      </trkpt>
      <trkpt lat="45.94124" lon="-0.95437">
        <ele>4.3</ele>
        <time>2022-06-21T10:48:37Z</time>
      </trkpt>
      <trkpt lat="45.94124" lon="-0.95437">
        <ele>4.3</ele>
        <time>2022-06-21T10:48:38Z</time>
      </trkpt>
      <trkpt lat="45.94124" lon="-0.95437">
        <ele>4.3</ele>
        <time>2022-06-21T10:48:39Z</time>
      </trkpt>
      <trkpt lat="45.94124" lon="-0.95437">
        <ele>4.3</ele>
        <time>2022-06-21T10:48:40Z</time>
      </trkpt>
      <trkpt lat="45.94124" lon="-0.95437">
        <ele>4.3</ele>
        <time>2022-06-21T10:48:41Z</time>
      </trkpt>
      <trkpt lat="45.94124" lon="-0.95437">
        <ele>4.3</ele>
        <time>2022-06-21T10:48:42Z</time>
      </trkpt>
      <trkpt lat="45.94124" lon="-0.95437">
        <ele>4.3</ele>
        <time>2022-06-21T10:48:43Z</time>
      </trkpt>
      <trkpt lat="45.94124" lon="-0.95437">
        <ele>4.3</ele>
        <time>2022-06-21T10:48:44Z</time>
      </trkpt>
      <trkpt lat="45.94124" lon="-0.95437">
        <ele>4.3</ele>
        <time>2022-06-21T10:48:45Z</time>
      </trkpt>
      <trkpt lat="45.94124" lon="-0.95437">
        <ele>4.3</ele>
        <time>2022-06-21T10:48:46Z</time>
      </trkpt>
      <trkpt lat="45.94124" lon="-0.95437">
        <ele>4.3</ele>
        <time>2022-06-21T10:48:47Z</time>
      </trkpt>
      <trkpt lat="45.94124" lon="-0.95437">
        <ele>4.3</ele>
        <time>2022-06-21T10:48:48Z</time>
      </trkpt>
      <trkpt lat="45.94124" lon="-0.95437">
        <ele>4.3</ele>
        <time>2022-06-21T10:48:49Z</time>
      </trkpt>
      <trkpt lat="45.94124" lon="-0.95437">
        <ele>4.3</ele>
        <time>2022-06-21T10:48:50Z</time>
      </trkpt>
      <trkpt lat="45.94124" lon="-0.95437">
        <ele>4.3</ele>
        <time>2022-06-21T10:48:51Z</time>
      </trkpt>
      <trkpt lat="45.94124" lon="-0.95437">
        <ele>4.3</ele>
        <time>2022-06-21T10:48:52Z</time>
      </trkpt>
      <trkpt lat="45.94124" lon="-0.95437">
        <ele>4.3</ele>
        <time>2022-06-21T10:48:53Z</time>
      </trkpt>
      <trkpt lat="45.94124" lon="-0.95437">
        <ele>4.3</ele>
        <time>2022-06-21T10:48:54Z</time>
      </trkpt>
      <trkpt lat="45.94124" lon="-0.95437">
        <ele>4.3</ele>
        <time>2022-06-21T10:48:55Z</time>
      </trkpt>
      <trkpt lat="45.94124" lon="-0.95437">
        <ele>4.3</ele>
        <time>2022-06-21T10:48:56Z</time>
      </trkpt>
      <trkpt lat="45.94124" lon="-0.95437">
        <ele>4.3</ele>
        <time>2022-06-21T10:48:57Z</time>
      </trkpt>
      <trkpt lat="45.94124" lon="-0.95437">
        <ele>4.3</ele>
        <time>2022-06-21T10:48:58Z</time>
      </trkpt>
      <trkpt lat="45.94124" lon="-0.95437">
        <ele>4.3</ele>
        <time>2022-06-21T10:48:59Z</time>
      </trkpt>
      <trkpt lat="45.94124" lon="-0.95437">
        <ele>4.3</ele>
        <time>2022-06-21T10:49:00Z</time>
      </trkpt>
      <trkpt lat="45.94124" lon="-0.95437">
        <ele>4.3</ele>
        <time>2022-06-21T10:49:01Z</time>
      </trkpt>
      <trkpt lat="45.94124" lon="-0.95437">
        <ele>4.3</ele>
        <time>2022-06-21T10:49:02Z</time>
      </trkpt>
      <trkpt lat="45.94124" lon="-0.95437">
        <ele>4.3</ele>
        <time>2022-06-21T10:49:03Z</time>
      </trkpt>
      <trkpt lat="45.94124" lon="-0.95437">
        <ele>4.3</ele>
        <time>2022-06-21T10:49:04Z</time>
      </trkpt>
      <trkpt lat="45.94124" lon="-0.95437">
        <ele>4.3</ele>
        <time>2022-06-21T10:49:05Z</time>
      </trkpt>
      <trkpt lat="45.94124" lon="-0.95437">
        <ele>4.3</ele>
        <time>2022-06-21T10:49:06Z</time>
      </trkpt>
      <trkpt lat="45.94124" lon="-0.95437">
        <ele>4.3</ele>
        <time>2022-06-21T10:49:07Z</time>
      </trkpt>
      <trkpt lat="45.94124" lon="-0.95437">
        <ele>4.3</ele>
        <time>2022-06-21T10:49:08Z</time>
      </trkpt>
      <trkpt lat="45.94124" lon="-0.95437">
        <ele>4.3</ele>
        <time>2022-06-21T10:49:09Z</time>
      </trkpt>
      <trkpt lat="45.94124" lon="-0.95437">
        <ele>4.3</ele>
        <time>2022-06-21T10:49:10Z</time>
      </trkpt>
      <trkpt lat="45.94124" lon="-0.95437">
        <ele>4.3</ele>
        <time>2022-06-21T10:49:11Z</time>
      </trkpt>
      <trkpt lat="45.94124" lon="-0.95437">
        <ele>4.3</ele>
        <time>2022-06-21T10:49:12Z</time>
      </trkpt>
      <trkpt lat="45.94124" lon="-0.95437">
        <ele>4.3</ele>
        <time>2022-06-21T10:49:13Z</time>
      </trkpt>
      <trkpt lat="45.94124" lon="-0.95437">
        <ele>4.3</ele>
        <time>2022-06-21T10:49:14Z</time>
      </trkpt>
      <trkpt lat="45.94124" lon="-0.95437">
        <ele>4.3</ele>
        <time>2022-06-21T10:49:15Z</time>
      </trkpt>
      <trkpt lat="45.94124" lon="-0.95437">
        <ele>4.3</ele>
        <time>2022-06-21T10:49:16Z</time>
      </trkpt>
      <trkpt lat="45.94124" lon="-0.95437">
        <ele>4.3</ele>
        <time>2022-06-21T10:49:17Z</time>
      </trkpt>
      <trkpt lat="45.94124" lon="-0.95437">
        <ele>4.3</ele>
        <time>2022-06-21T10:49:18Z</time>
      </trkpt>
      <trkpt lat="45.94124" lon="-0.95437">
        <ele>4.3</ele>
        <time>2022-06-21T10:49:19Z</time>
      </trkpt>
      <trkpt lat="45.94124" lon="-0.95437">
        <ele>4.3</ele>
        <time>2022-06-21T10:49:20Z</time>
      </trkpt>
      <trkpt lat="45.94124" lon="-0.95437">
        <ele>4.3</ele>
        <time>2022-06-21T10:49:21Z</time>
      </trkpt>
      <trkpt lat="45.94124" lon="-0.95437">
        <ele>4.3</ele>
        <time>2022-06-21T10:49:22Z</time>
      </trkpt>
      <trkpt lat="45.94124" lon="-0.95437">
        <ele>4.3</ele>
        <time>2022-06-21T10:49:23Z</time>
      </trkpt>
      <trkpt lat="45.94124" lon="-0.95437">
        <ele>4.3</ele>
        <time>2022-06-21T10:49:24Z</time>
      </trkpt>
      <trkpt lat="45.94124" lon="-0.95437">
        <ele>4.3</ele>
        <time>2022-06-21T10:49:25Z</time>
      </trkpt>
      <trkpt lat="45.94124" lon="-0.95437">
        <ele>4.3</ele>
        <time>2022-06-21T10:49:26Z</time>
      </trkpt>
      <trkpt lat="45.94124" lon="-0.95437">
        <ele>4.3</ele>
        <time>2022-06-21T10:49:27Z</time>
      </trkpt>
      <trkpt lat="45.94124" lon="-0.95437">
        <ele>4.3</ele>
        <time>2022-06-21T10:49:28Z</time>
      </trkpt>
      <trkpt lat="45.94124" lon="-0.95437">
        <ele>4.3</ele>
        <time>2022-06-21T10:49:29Z</time>
      </trkpt>
      <trkpt lat="45.94124" lon="-0.95437">
        <ele>4.3</ele>
        <time>2022-06-21T10:49:30Z</time>
      </trkpt>
      <trkpt lat="45.94124" lon="-0.95437">
        <ele>4.3</ele>
        <time>2022-06-21T10:49:31Z</time>
      </trkpt>
      <trkpt lat="45.94124" lon="-0.95437">
        <ele>4.3</ele>
        <time>2022-06-21T10:49:32Z</time>
      </trkpt>
      <trkpt lat="45.94124" lon="-0.95437">
        <ele>4.3</ele>
        <time>2022-06-21T10:49:33Z</time>
      </trkpt>
      <trkpt lat="45.94124" lon="-0.95437">
        <ele>4.3</ele>
        <time>2022-06-21T10:49:34Z</time>
      </trkpt>
      <trkpt lat="45.94124" lon="-0.95437">
        <ele>4.3</ele>
        <time>2022-06-21T10:49:35Z</time>
      </trkpt>
      <trkpt lat="45.94124" lon="-0.95437">
        <ele>4.3</ele>
        <time>2022-06-21T10:49:36Z</time>
      </trkpt>
      <trkpt lat="45.94124" lon="-0.95437">
        <ele>4.3</ele>
        <time>2022-06-21T10:49:37Z</time>
      </trkpt>
      <trkpt lat="45.94124" lon="-0.95437">
        <ele>4.3</ele>
        <time>2022-06-21T10:49:38Z</time>
      </trkpt>
      <trkpt lat="45.94124" lon="-0.95437">
        <ele>4.3</ele>
        <time>2022-06-21T10:49:39Z</time>
      </trkpt>
      <trkpt lat="45.94124" lon="-0.95437">
        <ele>4.3</ele>
        <time>2022-06-21T10:49:40Z</time>
      </trkpt>
      <trkpt lat="45.94124" lon="-0.95437">
        <ele>4.3</ele>
        <time>2022-06-21T10:49:41Z</time>
      </trkpt>
      <trkpt lat="45.94124" lon="-0.95437">
        <ele>4.3</ele>
        <time>2022-06-21T10:49:42Z</time>
      </trkpt>
      <trkpt lat="45.94124" lon="-0.95437">
        <ele>4.3</ele>
        <time>2022-06-21T10:49:43Z</time>
      </trkpt>
      <trkpt lat="45.94124" lon="-0.95437">
        <ele>4.3</ele>
        <time>2022-06-21T10:49:44Z</time>
      </trkpt>
      <trkpt lat="45.94124" lon="-0.95437">
        <ele>4.3</ele>
        <time>2022-06-21T10:49:45Z</time>
      </trkpt>
      <trkpt lat="45.94124" lon="-0.95437">
        <ele>4.3</ele>
        <time>2022-06-21T10:49:46Z</time>
      </trkpt>
      <trkpt lat="45.94124" lon="-0.95437">
        <ele>4.3</ele>
        <time>2022-06-21T10:49:47Z</time>
      </trkpt>
      <trkpt lat="45.94124" lon="-0.95437">
        <ele>4.3</ele>
        <time>2022-06-21T10:49:48Z</time>
      </trkpt>
      <trkpt lat="45.94124" lon="-0.95437">
        <ele>4.3</ele>
        <time>2022-06-21T10:49:49Z</time>
      </trkpt>
      <trkpt lat="45.94124" lon="-0.95437">
        <ele>4.3</ele>
        <time>2022-06-21T10:49:50Z</time>
      </trkpt>
      <trkpt lat="45.94124" lon="-0.95437">
        <ele>4.3</ele>
        <time>2022-06-21T10:49:51Z</time>
      </trkpt>
      <trkpt lat="45.94124" lon="-0.95437">
        <ele>4.3</ele>
        <time>2022-06-21T10:49:52Z</time>
      </trkpt>
      <trkpt lat="45.94124" lon="-0.95437">
        <ele>4.3</ele>
        <time>2022-06-21T10:49:53Z</time>
      </trkpt>
      <trkpt lat="45.94124" lon="-0.95437">
        <ele>4.3</ele>
        <time>2022-06-21T10:49:54Z</time>
      </trkpt>
      <trkpt lat="45.94124" lon="-0.95437">
        <ele>4.3</ele>
        <time>2022-06-21T10:49:55Z</time>
      </trkpt>
      <trkpt lat="45.94124" lon="-0.95437">
        <ele>4.3</ele>
        <time>2022-06-21T10:49:56Z</time>
      </trkpt>
      <trkpt lat="45.94124" lon="-0.95437">
        <ele>4.3</ele>
        <time>2022-06-21T10:49:57Z</time>
      </trkpt>
      <trkpt lat="45.94124" lon="-0.95437">
        <ele>4.3</ele>
        <time>2022-06-21T10:49:58Z</time>
      </trkpt>
      <trkpt lat="45.94124" lon="-0.95437">
        <ele>4.3</ele>
        <time>2022-06-21T10:49:59Z</time>
      </trkpt>
      <trkpt lat="45.94124" lon="-0.95437">
        <ele>4.3</ele>
        <time>2022-06-21T10:50:00Z</time>
      </trkpt>
      <trkpt lat="45.94124" lon="-0.95437">
        <ele>4.3</ele>
        <time>2022-06-21T10:50:01Z</time>
      </trkpt>
      <trkpt lat="45.94124" lon="-0.95437">
        <ele>4.3</ele>
        <time>2022-06-21T10:50:02Z</time>
      </trkpt>
      <trkpt lat="45.94124" lon="-0.95437">
        <ele>4.3</ele>
        <time>2022-06-21T10:50:03Z</time>
      </trkpt>
      <trkpt lat="45.94124" lon="-0.95437">
        <ele>4.3</ele>
        <time>2022-06-21T10:50:04Z</time>
      </trkpt>
      <trkpt lat="45.94124" lon="-0.95437">
        <ele>4.3</ele>
        <time>2022-06-21T10:50:05Z</time>
      </trkpt>
      <trkpt lat="45.94124" lon="-0.95437">
        <ele>4.3</ele>
        <time>2022-06-21T10:50:06Z</time>
      </trkpt>
      <trkpt lat="45.94124" lon="-0.95437">
        <ele>4.3</ele>
        <time>2022-06-21T10:50:07Z</time>
      </trkpt>
      <trkpt lat="45.94124" lon="-0.95437">
        <ele>4.3</ele>
        <time>2022-06-21T10:50:08Z</time>
      </trkpt>
      <trkpt lat="45.94124" lon="-0.95437">
        <ele>4.3</ele>
        <time>2022-06-21T10:50:09Z</time>
      </trkpt>
      <trkpt lat="45.94124" lon="-0.95437">
        <ele>4.3</ele>
        <time>2022-06-21T10:50:10Z</time>
      </trkpt>
      <trkpt lat="45.94124" lon="-0.95437">
        <ele>4.3</ele>
        <time>2022-06-21T10:50:11Z</time>
      </trkpt>
      <trkpt lat="45.94124" lon="-0.95437">
        <ele>4.3</ele>
        <time>2022-06-21T10:50:12Z</time>
      </trkpt>
      <trkpt lat="45.94124" lon="-0.95437">
        <ele>4.3</ele>
        <time>2022-06-21T10:50:13Z</time>
      </trkpt>
      <trkpt lat="45.94124" lon="-0.95437">
        <ele>4.3</ele>
        <time>2022-06-21T10:50:14Z</time>
      </trkpt>
      <trkpt lat="45.94124" lon="-0.95437">
        <ele>4.3</ele>
        <time>2022-06-21T10:50:15Z</time>
      </trkpt>
      <trkpt lat="45.94124" lon="-0.95437">
        <ele>4.3</ele>
        <time>2022-06-21T10:50:16Z</time>
      </trkpt>
      <trkpt lat="45.94124" lon="-0.95437">
        <ele>4.3</ele>
        <time>2022-06-21T10:50:17Z</time>
      </trkpt>
      <trkpt lat="45.94124" lon="-0.95437">
        <ele>4.3</ele>
        <time>2022-06-21T10:50:18Z</time>
      </trkpt>
      <trkpt lat="45.94124" lon="-0.95437">
        <ele>4.3</ele>
        <time>2022-06-21T10:50:19Z</time>
      </trkpt>
      <trkpt lat="45.94124" lon="-0.95437">
        <ele>4.3</ele>
        <time>2022-06-21T10:50:20Z</time>
      </trkpt>
      <trkpt lat="45.94124" lon="-0.95437">
        <ele>4.3</ele>
        <time>2022-06-21T10:50:21Z</time>
      </trkpt>
      <trkpt lat="45.94124" lon="-0.95437">
        <ele>4.3</ele>
        <time>2022-06-21T10:50:22Z</time>
      </trkpt>
      <trkpt lat="45.94124" lon="-0.95437">
        <ele>4.3</ele>
        <time>2022-06-21T10:50:23Z</time>
      </trkpt>
      <trkpt lat="45.94124" lon="-0.95437">
        <ele>4.3</ele>
        <time>2022-06-21T10:50:24Z</time>
      </trkpt>
      <trkpt lat="45.94124" lon="-0.95437">
        <ele>4.3</ele>
        <time>2022-06-21T10:50:25Z</time>
      </trkpt>
      <trkpt lat="45.94124" lon="-0.95437">
        <ele>4.3</ele>
        <time>2022-06-21T10:50:26Z</time>
      </trkpt>
      <trkpt lat="45.94124" lon="-0.95437">
        <ele>4.3</ele>
        <time>2022-06-21T10:50:27Z</time>
      </trkpt>
      <trkpt lat="45.94124" lon="-0.95437">
        <ele>4.3</ele>
        <time>2022-06-21T10:50:28Z</time>
      </trkpt>
      <trkpt lat="45.94124" lon="-0.95437">
        <ele>4.3</ele>
        <time>2022-06-21T10:50:29Z</time>
      </trkpt>
      <trkpt lat="45.94124" lon="-0.95437">
        <ele>4.3</ele>
        <time>2022-06-21T10:50:30Z</time>
      </trkpt>
      <trkpt lat="45.94124" lon="-0.95437">
        <ele>4.3</ele>
        <time>2022-06-21T10:50:31Z</time>
      </trkpt>
      <trkpt lat="45.94124" lon="-0.95437">
        <ele>4.3</ele>
        <time>2022-06-21T10:50:32Z</time>
      </trkpt>
      <trkpt lat="45.94124" lon="-0.95437">
        <ele>4.3</ele>
        <time>2022-06-21T10:50:33Z</time>
      </trkpt>
      <trkpt lat="45.94124" lon="-0.95437">
        <ele>4.3</ele>
        <time>2022-06-21T10:50:34Z</time>
      </trkpt>
      <trkpt lat="45.94124" lon="-0.95437">
        <ele>4.3</ele>
        <time>2022-06-21T10:50:35Z</time>
      </trkpt>
      <trkpt lat="45.94124" lon="-0.95437">
        <ele>4.3</ele>
        <time>2022-06-21T10:50:36Z</time>
      </trkpt>
      <trkpt lat="45.94124" lon="-0.95437">
        <ele>4.3</ele>
        <time>2022-06-21T10:50:37Z</time>
      </trkpt>
      <trkpt lat="45.94124" lon="-0.95437">
        <ele>4.3</ele>
        <time>2022-06-21T10:50:38Z</time>
      </trkpt>
      <trkpt lat="45.94124" lon="-0.95437">
        <ele>4.3</ele>
        <time>2022-06-21T10:50:39Z</time>
      </trkpt>
      <trkpt lat="45.94124" lon="-0.95437">
        <ele>4.3</ele>
        <time>2022-06-21T10:50:40Z</time>
      </trkpt>
      <trkpt lat="45.94124" lon="-0.95437">
        <ele>4.3</ele>
        <time>2022-06-21T10:50:41Z</time>
      </trkpt>
      <trkpt lat="45.94124" lon="-0.95437">
        <ele>4.3</ele>
        <time>2022-06-21T10:50:42Z</time>
      </trkpt>
      <trkpt lat="45.94124" lon="-0.95437">
        <ele>4.3</ele>
        <time>2022-06-21T10:50:43Z</time>
      </trkpt>
      <trkpt lat="45.94124" lon="-0.95437">
        <ele>4.3</ele>
        <time>2022-06-21T10:50:44Z</time>
      </trkpt>
      <trkpt lat="45.94124" lon="-0.95437">
        <ele>4.3</ele>
        <time>2022-06-21T10:50:45Z</time>
      </trkpt>
      <trkpt lat="45.94124" lon="-0.95437">
        <ele>4.3</ele>
        <time>2022-06-21T10:50:46Z</time>
      </trkpt>
      <trkpt lat="45.94124" lon="-0.95437">
        <ele>4.3</ele>
        <time>2022-06-21T10:50:47Z</time>
      </trkpt>
      <trkpt lat="45.94124" lon="-0.95437">
        <ele>4.3</ele>
        <time>2022-06-21T10:50:48Z</time>
      </trkpt>
      <trkpt lat="45.94124" lon="-0.95437">
        <ele>4.3</ele>
        <time>2022-06-21T10:50:49Z</time>
      </trkpt>
      <trkpt lat="45.94124" lon="-0.95437">
        <ele>4.3</ele>
        <time>2022-06-21T10:50:50Z</time>
      </trkpt>
      <trkpt lat="45.94124" lon="-0.95437">
        <ele>4.3</ele>
        <time>2022-06-21T10:50:51Z</time>
      </trkpt>
      <trkpt lat="45.94124" lon="-0.95437">
        <ele>4.3</ele>
        <time>2022-06-21T10:50:52Z</time>
      </trkpt>
      <trkpt lat="45.94124" lon="-0.95437">
        <ele>4.3</ele>
        <time>2022-06-21T10:50:53Z</time>
      </trkpt>
      <trkpt lat="45.94124" lon="-0.95437">
        <ele>4.3</ele>
        <time>2022-06-21T10:50:54Z</time>
      </trkpt>
      <trkpt lat="45.94124" lon="-0.95437">
        <ele>4.3</ele>
        <time>2022-06-21T10:50:55Z</time>
      </trkpt>
      <trkpt lat="45.94124" lon="-0.95437">
        <ele>4.3</ele>
        <time>2022-06-21T10:50:56Z</time>
      </trkpt>
      <trkpt lat="45.94124" lon="-0.95437">
        <ele>4.3</ele>
        <time>2022-06-21T10:50:57Z</time>
      </trkpt>
      <trkpt lat="45.94124" lon="-0.95437">
        <ele>4.3</ele>
        <time>2022-06-21T10:50:58Z</time>
      </trkpt>
      <trkpt lat="45.94124" lon="-0.95437">
        <ele>4.3</ele>
        <time>2022-06-21T10:50:59Z</time>
      </trkpt>
      <trkpt lat="45.94124" lon="-0.95437">
        <ele>4.3</ele>
        <time>2022-06-21T10:51:00Z</time>
      </trkpt>
      <trkpt lat="45.94124" lon="-0.95437">
        <ele>4.3</ele>
        <time>2022-06-21T10:51:01Z</time>
      </trkpt>
      <trkpt lat="45.94124" lon="-0.95437">
        <ele>4.3</ele>
        <time>2022-06-21T10:51:02Z</time>
      </trkpt>
      <trkpt lat="45.94124" lon="-0.95437">
        <ele>4.3</ele>
        <time>2022-06-21T10:51:03Z</time>
      </trkpt>
      <trkpt lat="45.94124" lon="-0.95437">
        <ele>4.3</ele>
        <time>2022-06-21T10:51:04Z</time>
      </trkpt>
      <trkpt lat="45.94124" lon="-0.95437">
        <ele>4.3</ele>
        <time>2022-06-21T10:51:05Z</time>
      </trkpt>
      <trkpt lat="45.94124" lon="-0.95437">
        <ele>4.3</ele>
        <time>2022-06-21T10:51:06Z</time>
      </trkpt>
      <trkpt lat="45.94124" lon="-0.95437">
        <ele>4.3</ele>
        <time>2022-06-21T10:51:07Z</time>
      </trkpt>
      <trkpt lat="45.94124" lon="-0.95437">
        <ele>4.3</ele>
        <time>2022-06-21T10:51:08Z</time>
      </trkpt>
      <trkpt lat="45.94124" lon="-0.95437">
        <ele>4.3</ele>
        <time>2022-06-21T10:51:09Z</time>
      </trkpt>
      <trkpt lat="45.94124" lon="-0.95437">
        <ele>4.3</ele>
        <time>2022-06-21T10:51:10Z</time>
      </trkpt>
      <trkpt lat="45.94124" lon="-0.95437">
        <ele>4.3</ele>
        <time>2022-06-21T10:51:11Z</time>
      </trkpt>
      <trkpt lat="45.94124" lon="-0.95437">
        <ele>4.3</ele>
        <time>2022-06-21T10:51:12Z</time>
      </trkpt>
      <trkpt lat="45.94124" lon="-0.95437">
        <ele>4.3</ele>
        <time>2022-06-21T10:51:13Z</time>
      </trkpt>
      <trkpt lat="45.94124" lon="-0.95437">
        <ele>4.3</ele>
        <time>2022-06-21T10:51:14Z</time>
      </trkpt>
      <trkpt lat="45.94124" lon="-0.95437">
        <ele>4.3</ele>
        <time>2022-06-21T10:51:15Z</time>
      </trkpt>
      <trkpt lat="45.94124" lon="-0.95437">
        <ele>4.3</ele>
        <time>2022-06-21T10:51:16Z</time>
      </trkpt>
      <trkpt lat="45.94124" lon="-0.95437">
        <ele>4.3</ele>
        <time>2022-06-21T10:51:17Z</time>
      </trkpt>
      <trkpt lat="45.94124" lon="-0.95437">
        <ele>4.3</ele>
        <time>2022-06-21T10:51:18Z</time>
      </trkpt>
      <trkpt lat="45.94124" lon="-0.95437">
        <ele>4.3</ele>
        <time>2022-06-21T10:51:19Z</time>
      </trkpt>
      <trkpt lat="45.94124" lon="-0.95437">
        <ele>4.3</ele>
        <time>2022-06-21T10:51:20Z</time>
      </trkpt>
      <trkpt lat="45.94124" lon="-0.95437">
        <ele>4.3</ele>
        <time>2022-06-21T10:51:21Z</time>
      </trkpt>
      <trkpt lat="45.94124" lon="-0.95437">
        <ele>4.3</ele>
        <time>2022-06-21T10:51:22Z</time>
      </trkpt>
      <trkpt lat="45.94124" lon="-0.95437">
        <ele>4.3</ele>
        <time>2022-06-21T10:51:23Z</time>
      </trkpt>
      <trkpt lat="45.94124" lon="-0.95437">
        <ele>4.3</ele>
        <time>2022-06-21T10:51:24Z</time>
      </trkpt>
      <trkpt lat="45.94124" lon="-0.95437">
        <ele>4.3</ele>
        <time>2022-06-21T10:51:25Z</time>
      </trkpt>
      <trkpt lat="45.94124" lon="-0.95437">
        <ele>4.3</ele>
        <time>2022-06-21T10:51:26Z</time>
      </trkpt>
      <trkpt lat="45.94124" lon="-0.95437">
        <ele>4.3</ele>
        <time>2022-06-21T10:51:27Z</time>
      </trkpt>
      <trkpt lat="45.94124" lon="-0.95437">
        <ele>4.3</ele>
        <time>2022-06-21T10:51:28Z</time>
      </trkpt>
      <trkpt lat="45.94124" lon="-0.95437">
        <ele>4.3</ele>
        <time>2022-06-21T10:51:29Z</time>
      </trkpt>
      <trkpt lat="45.94124" lon="-0.95437">
        <ele>4.3</ele>
        <time>2022-06-21T10:51:30Z</time>
      </trkpt>
      <trkpt lat="45.94124" lon="-0.95437">
        <ele>4.3</ele>
        <time>2022-06-21T10:51:31Z</time>
      </trkpt>
      <trkpt lat="45.94124" lon="-0.95437">
        <ele>4.3</ele>
        <time>2022-06-21T10:51:32Z</time>
      </trkpt>
      <trkpt lat="45.94124" lon="-0.95437">
        <ele>4.3</ele>
        <time>2022-06-21T10:51:33Z</time>
      </trkpt>
      <trkpt lat="45.94124" lon="-0.95437">
        <ele>4.3</ele>
        <time>2022-06-21T10:51:34Z</time>
      </trkpt>
      <trkpt lat="45.94124" lon="-0.95437">
        <ele>4.3</ele>
        <time>2022-06-21T10:51:35Z</time>
      </trkpt>
      <trkpt lat="45.94124" lon="-0.95437">
        <ele>4.3</ele>
        <time>2022-06-21T10:51:36Z</time>
      </trkpt>
      <trkpt lat="45.94124" lon="-0.95437">
        <ele>4.3</ele>
        <time>2022-06-21T10:51:37Z</time>
      </trkpt>
      <trkpt lat="45.94124" lon="-0.95437">
        <ele>4.3</ele>
        <time>2022-06-21T10:51:38Z</time>
      </trkpt>
      <trkpt lat="45.94124" lon="-0.95437">
        <ele>4.3</ele>
        <time>2022-06-21T10:51:39Z</time>
      </trkpt>
      <trkpt lat="45.94124" lon="-0.95437">
        <ele>4.3</ele>
        <time>2022-06-21T10:51:40Z</time>
      </trkpt>
      <trkpt lat="45.94124" lon="-0.95437">
        <ele>4.3</ele>
        <time>2022-06-21T10:51:41Z</time>
      </trkpt>
      <trkpt lat="45.94124" lon="-0.95437">
        <ele>4.3</ele>
        <time>2022-06-21T10:51:42Z</time>
      </trkpt>
      <trkpt lat="45.94124" lon="-0.95437">
        <ele>4.3</ele>
        <time>2022-06-21T10:51:43Z</time>
      </trkpt>
      <trkpt lat="45.94124" lon="-0.95437">
        <ele>4.3</ele>
        <time>2022-06-21T10:51:44Z</time>
      </trkpt>
      <trkpt lat="45.94124" lon="-0.95437">
        <ele>4.3</ele>
        <time>2022-06-21T10:51:45Z</time>
      </trkpt>
      <trkpt lat="45.94124" lon="-0.95437">
        <ele>4.3</ele>
        <time>2022-06-21T10:51:46Z</time>
      </trkpt>
      <trkpt lat="45.94124" lon="-0.95437">
        <ele>4.3</ele>
        <time>2022-06-21T10:51:47Z</time>
      </trkpt>
      <trkpt lat="45.94124" lon="-0.95437">
        <ele>4.3</ele>
        <time>2022-06-21T10:51:48Z</time>
      </trkpt>
      <trkpt lat="45.94124" lon="-0.95437">
        <ele>4.3</ele>
        <time>2022-06-21T10:51:49Z</time>
      </trkpt>
      <trkpt lat="45.94124" lon="-0.95437">
        <ele>4.3</ele>
        <time>2022-06-21T10:51:50Z</time>
      </trkpt>
      <trkpt lat="45.94124" lon="-0.95437">
        <ele>4.3</ele>
        <time>2022-06-21T10:51:51Z</time>
      </trkpt>
      <trkpt lat="45.94124" lon="-0.95437">
        <ele>4.3</ele>
        <time>2022-06-21T10:51:52Z</time>
      </trkpt>
      <trkpt lat="45.94124" lon="-0.95437">
        <ele>4.3</ele>
        <time>2022-06-21T10:51:53Z</time>
      </trkpt>
      <trkpt lat="45.94124" lon="-0.95437">
        <ele>4.3</ele>
        <time>2022-06-21T10:51:54Z</time>
      </trkpt>
      <trkpt lat="45.94124" lon="-0.95437">
        <ele>4.3</ele>
        <time>2022-06-21T10:51:55Z</time>
      </trkpt>
      <trkpt lat="45.94124" lon="-0.95437">
        <ele>4.3</ele>
        <time>2022-06-21T10:51:56Z</time>
      </trkpt>
      <trkpt lat="45.94124" lon="-0.95437">
        <ele>4.3</ele>
        <time>2022-06-21T10:51:57Z</time>
      </trkpt>
      <trkpt lat="45.94124" lon="-0.95437">
        <ele>4.3</ele>
        <time>2022-06-21T10:51:58Z</time>
      </trkpt>
      <trkpt lat="45.94124" lon="-0.95437">
        <ele>4.3</ele>
        <time>2022-06-21T10:51:59Z</time>
      </trkpt>
      <trkpt lat="45.94124" lon="-0.95437">
        <ele>4.3</ele>
        <time>2022-06-21T10:52:00Z</time>
      </trkpt>
      <trkpt lat="45.94124" lon="-0.95437">
        <ele>4.3</ele>
        <time>2022-06-21T10:52:01Z</time>
      </trkpt>
      <trkpt lat="45.94124" lon="-0.95437">
        <ele>4.3</ele>
        <time>2022-06-21T10:52:02Z</time>
      </trkpt>
      <trkpt lat="45.94124" lon="-0.95437">
        <ele>4.3</ele>
        <time>2022-06-21T10:52:03Z</time>
      </trkpt>
      <trkpt lat="45.94124" lon="-0.95437">
        <ele>4.3</ele>
        <time>2022-06-21T10:52:04Z</time>
      </trkpt>
      <trkpt lat="45.94124" lon="-0.95437">
        <ele>4.3</ele>
        <time>2022-06-21T10:52:05Z</time>
      </trkpt>
      <trkpt lat="45.94124" lon="-0.95437">
        <ele>4.3</ele>
        <time>2022-06-21T10:52:06Z</time>
      </trkpt>
      <trkpt lat="45.94124" lon="-0.95437">
        <ele>4.3</ele>
        <time>2022-06-21T10:52:07Z</time>
      </trkpt>
      <trkpt lat="45.94124" lon="-0.95437">
        <ele>4.3</ele>
        <time>2022-06-21T10:52:08Z</time>
      </trkpt>
      <trkpt lat="45.94124" lon="-0.95437">
        <ele>4.3</ele>
        <time>2022-06-21T10:52:09Z</time>
      </trkpt>
      <trkpt lat="45.94124" lon="-0.95437">
        <ele>4.3</ele>
        <time>2022-06-21T10:52:10Z</time>
      </trkpt>
      <trkpt lat="45.94124" lon="-0.95437">
        <ele>4.3</ele>
        <time>2022-06-21T10:52:11Z</time>
      </trkpt>
      <trkpt lat="45.94124" lon="-0.95437">
        <ele>4.3</ele>
        <time>2022-06-21T10:52:12Z</time>
      </trkpt>
      <trkpt lat="45.94124" lon="-0.95437">
        <ele>4.3</ele>
        <time>2022-06-21T10:52:13Z</time>
      </trkpt>
      <trkpt lat="45.94124" lon="-0.95437">
        <ele>4.3</ele>
        <time>2022-06-21T10:52:14Z</time>
      </trkpt>
      <trkpt lat="45.94124" lon="-0.95437">
        <ele>4.3</ele>
        <time>2022-06-21T10:52:15Z</time>
      </trkpt>
      <trkpt lat="45.94124" lon="-0.95437">
        <ele>4.3</ele>
        <time>2022-06-21T10:52:16Z</time>
      </trkpt>
      <trkpt lat="45.94124" lon="-0.95437">
        <ele>4.3</ele>
        <time>2022-06-21T10:52:17Z</time>
      </trkpt>
      <trkpt lat="45.94124" lon="-0.95437">
        <ele>4.3</ele>
        <time>2022-06-21T10:52:18Z</time>
      </trkpt>
      <trkpt lat="45.94124" lon="-0.95437">
        <ele>4.3</ele>
        <time>2022-06-21T10:52:19Z</time>
      </trkpt>
      <trkpt lat="45.94124" lon="-0.95437">
        <ele>4.3</ele>
        <time>2022-06-21T10:52:20Z</time>
      </trkpt>
      <trkpt lat="45.94124" lon="-0.95437">
        <ele>4.3</ele>
        <time>2022-06-21T10:52:21Z</time>
      </trkpt>
      <trkpt lat="45.94124" lon="-0.95437">
        <ele>4.3</ele>
        <time>2022-06-21T10:52:22Z</time>
      </trkpt>
      <trkpt lat="45.94124" lon="-0.95437">
        <ele>4.3</ele>
        <time>2022-06-21T10:52:23Z</time>
      </trkpt>
      <trkpt lat="45.94124" lon="-0.95437">
        <ele>4.3</ele>
        <time>2022-06-21T10:52:24Z</time>
      </trkpt>
      <trkpt lat="45.94124" lon="-0.95437">
        <ele>4.3</ele>
        <time>2022-06-21T10:52:25Z</time>
      </trkpt>
      <trkpt lat="45.94124" lon="-0.95437">
        <ele>4.3</ele>
        <time>2022-06-21T10:52:26Z</time>
      </trkpt>
      <trkpt lat="45.94124" lon="-0.95437">
        <ele>4.3</ele>
        <time>2022-06-21T10:52:27Z</time>
      </trkpt>
      <trkpt lat="45.94124" lon="-0.95437">
        <ele>4.3</ele>
        <time>2022-06-21T10:52:28Z</time>
      </trkpt>
      <trkpt lat="45.94124" lon="-0.95437">
        <ele>4.3</ele>
        <time>2022-06-21T10:52:29Z</time>
      </trkpt>
      <trkpt lat="45.94124" lon="-0.95437">
        <ele>4.3</ele>
        <time>2022-06-21T10:52:30Z</time>
      </trkpt>
      <trkpt lat="45.94124" lon="-0.95437">
        <ele>4.3</ele>
        <time>2022-06-21T10:52:31Z</time>
      </trkpt>
      <trkpt lat="45.94124" lon="-0.95437">
        <ele>4.3</ele>
        <time>2022-06-21T10:52:32Z</time>
      </trkpt>
      <trkpt lat="45.94124" lon="-0.95437">
        <ele>4.3</ele>
        <time>2022-06-21T10:52:33Z</time>
      </trkpt>
      <trkpt lat="45.94124" lon="-0.95437">
        <ele>4.3</ele>
        <time>2022-06-21T10:52:34Z</time>
      </trkpt>
      <trkpt lat="45.94124" lon="-0.95437">
        <ele>4.3</ele>
        <time>2022-06-21T10:52:35Z</time>
      </trkpt>
      <trkpt lat="45.94124" lon="-0.95437">
        <ele>4.3</ele>
        <time>2022-06-21T10:52:36Z</time>
      </trkpt>
      <trkpt lat="45.94124" lon="-0.95437">
        <ele>4.3</ele>
        <time>2022-06-21T10:52:37Z</time>
      </trkpt>
      <trkpt lat="45.94124" lon="-0.95437">
        <ele>4.3</ele>
        <time>2022-06-21T10:52:38Z</time>
      </trkpt>
      <trkpt lat="45.94124" lon="-0.95437">
        <ele>4.3</ele>
        <time>2022-06-21T10:52:39Z</time>
      </trkpt>
      <trkpt lat="45.94124" lon="-0.95437">
        <ele>4.3</ele>
        <time>2022-06-21T10:52:40Z</time>
      </trkpt>
      <trkpt lat="45.94124" lon="-0.95437">
        <ele>4.3</ele>
        <time>2022-06-21T10:52:41Z</time>
      </trkpt>
      <trkpt lat="45.94124" lon="-0.95437">
        <ele>4.3</ele>
        <time>2022-06-21T10:52:42Z</time>
      </trkpt>
      <trkpt lat="45.94124" lon="-0.95437">
        <ele>4.3</ele>
        <time>2022-06-21T10:52:43Z</time>
      </trkpt>
      <trkpt lat="45.94124" lon="-0.95437">
        <ele>4.3</ele>
        <time>2022-06-21T10:52:44Z</time>
      </trkpt>
      <trkpt lat="45.94124" lon="-0.95437">
        <ele>4.3</ele>
        <time>2022-06-21T10:52:45Z</time>
      </trkpt>
      <trkpt lat="45.94124" lon="-0.95437">
        <ele>4.3</ele>
        <time>2022-06-21T10:52:46Z</time>
      </trkpt>
      <trkpt lat="45.94124" lon="-0.95437">
        <ele>4.3</ele>
        <time>2022-06-21T10:52:47Z</time>
      </trkpt>
      <trkpt lat="45.94124" lon="-0.95437">
        <ele>4.3</ele>
        <time>2022-06-21T10:52:48Z</time>
      </trkpt>
      <trkpt lat="45.94124" lon="-0.95437">
        <ele>4.3</ele>
        <time>2022-06-21T10:52:49Z</time>
      </trkpt>
      <trkpt lat="45.94124" lon="-0.95437">
        <ele>4.3</ele>
        <time>2022-06-21T10:52:50Z</time>
      </trkpt>
      <trkpt lat="45.94124" lon="-0.95437">
        <ele>4.3</ele>
        <time>2022-06-21T10:52:51Z</time>
      </trkpt>
      <trkpt lat="45.94124" lon="-0.95437">
        <ele>4.3</ele>
        <time>2022-06-21T10:52:52Z</time>
      </trkpt>
      <trkpt lat="45.94124" lon="-0.95437">
        <ele>4.3</ele>
        <time>2022-06-21T10:52:53Z</time>
      </trkpt>
      <trkpt lat="45.94124" lon="-0.95437">
        <ele>4.3</ele>
        <time>2022-06-21T10:52:54Z</time>
      </trkpt>
      <trkpt lat="45.94124" lon="-0.95437">
        <ele>4.3</ele>
        <time>2022-06-21T10:52:55Z</time>
      </trkpt>
      <trkpt lat="45.94124" lon="-0.95437">
        <ele>4.3</ele>
        <time>2022-06-21T10:52:56Z</time>
      </trkpt>
      <trkpt lat="45.94124" lon="-0.95437">
        <ele>4.3</ele>
        <time>2022-06-21T10:52:57Z</time>
      </trkpt>
      <trkpt lat="45.94124" lon="-0.95437">
        <ele>4.3</ele>
        <time>2022-06-21T10:52:58Z</time>
      </trkpt>
      <trkpt lat="45.94124" lon="-0.95437">
        <ele>4.3</ele>
        <time>2022-06-21T10:52:59Z</time>
      </trkpt>
      <trkpt lat="45.94124" lon="-0.95437">
        <ele>4.3</ele>
        <time>2022-06-21T10:53:00Z</time>
      </trkpt>
      <trkpt lat="45.94124" lon="-0.95437">
        <ele>4.3</ele>
        <time>2022-06-21T10:53:01Z</time>
      </trkpt>
      <trkpt lat="45.94124" lon="-0.95437">
        <ele>4.3</ele>
        <time>2022-06-21T10:53:02Z</time>
      </trkpt>
      <trkpt lat="45.94124" lon="-0.95437">
        <ele>4.3</ele>
        <time>2022-06-21T10:53:03Z</time>
      </trkpt>
      <trkpt lat="45.94124" lon="-0.95437">
        <ele>4.3</ele>
        <time>2022-06-21T10:53:04Z</time>
      </trkpt>
      <trkpt lat="45.94124" lon="-0.95437">
        <ele>4.3</ele>
        <time>2022-06-21T10:53:05Z</time>
      </trkpt>
      <trkpt lat="45.94124" lon="-0.95437">
        <ele>4.3</ele>
        <time>2022-06-21T10:53:06Z</time>
      </trkpt>
      <trkpt lat="45.94124" lon="-0.95437">
        <ele>4.3</ele>
        <time>2022-06-21T10:53:07Z</time>
      </trkpt>
      <trkpt lat="45.94124" lon="-0.95437">
        <ele>4.3</ele>
        <time>2022-06-21T10:53:08Z</time>
      </trkpt>
      <trkpt lat="45.94124" lon="-0.95437">
        <ele>4.3</ele>
        <time>2022-06-21T10:53:09Z</time>
      </trkpt>
      <trkpt lat="45.94124" lon="-0.95437">
        <ele>4.3</ele>
        <time>2022-06-21T10:53:10Z</time>
      </trkpt>
      <trkpt lat="45.94124" lon="-0.95437">
        <ele>4.3</ele>
        <time>2022-06-21T10:53:11Z</time>
      </trkpt>
      <trkpt lat="45.94124" lon="-0.95437">
        <ele>4.3</ele>
        <time>2022-06-21T10:53:12Z</time>
      </trkpt>
      <trkpt lat="45.94124" lon="-0.95437">
        <ele>4.3</ele>
        <time>2022-06-21T10:53:13Z</time>
      </trkpt>
      <trkpt lat="45.94124" lon="-0.95437">
        <ele>4.3</ele>
        <time>2022-06-21T10:53:14Z</time>
      </trkpt>
      <trkpt lat="45.94124" lon="-0.95437">
        <ele>4.3</ele>
        <time>2022-06-21T10:53:15Z</time>
      </trkpt>
      <trkpt lat="45.94124" lon="-0.95437">
        <ele>4.3</ele>
        <time>2022-06-21T10:53:16Z</time>
      </trkpt>
      <trkpt lat="45.94124" lon="-0.95437">
        <ele>4.3</ele>
        <time>2022-06-21T10:53:17Z</time>
      </trkpt>
      <trkpt lat="45.94124" lon="-0.95437">
        <ele>4.3</ele>
        <time>2022-06-21T10:53:18Z</time>
      </trkpt>
      <trkpt lat="45.94124" lon="-0.95437">
        <ele>4.3</ele>
        <time>2022-06-21T10:53:19Z</time>
      </trkpt>
      <trkpt lat="45.94124" lon="-0.95437">
        <ele>4.3</ele>
        <time>2022-06-21T10:53:20Z</time>
      </trkpt>
      <trkpt lat="45.94124" lon="-0.95437">
        <ele>4.3</ele>
        <time>2022-06-21T10:53:21Z</time>
      </trkpt>
      <trkpt lat="45.94124" lon="-0.95437">
        <ele>4.3</ele>
        <time>2022-06-21T10:53:22Z</time>
      </trkpt>
      <trkpt lat="45.94124" lon="-0.95437">
        <ele>4.3</ele>
        <time>2022-06-21T10:53:23Z</time>
      </trkpt>
      <trkpt lat="45.94124" lon="-0.95437">
        <ele>4.3</ele>
        <time>2022-06-21T10:53:24Z</time>
      </trkpt>
      <trkpt lat="45.94124" lon="-0.95437">
        <ele>4.3</ele>
        <time>2022-06-21T10:53:25Z</time>
      </trkpt>
      <trkpt lat="45.94124" lon="-0.95437">
        <ele>4.3</ele>
        <time>2022-06-21T10:53:26Z</time>
      </trkpt>
      <trkpt lat="45.94124" lon="-0.95437">
        <ele>4.3</ele>
        <time>2022-06-21T10:53:27Z</time>
      </trkpt>
      <trkpt lat="45.94124" lon="-0.95437">
        <ele>4.3</ele>
        <time>2022-06-21T10:53:28Z</time>
      </trkpt>
      <trkpt lat="45.94124" lon="-0.95437">
        <ele>4.3</ele>
        <time>2022-06-21T10:53:29Z</time>
      </trkpt>
      <trkpt lat="45.94124" lon="-0.95437">
        <ele>4.3</ele>
        <time>2022-06-21T10:53:30Z</time>
      </trkpt>
      <trkpt lat="45.94124" lon="-0.95437">
        <ele>4.3</ele>
        <time>2022-06-21T10:53:31Z</time>
      </trkpt>
      <trkpt lat="45.94124" lon="-0.95437">
        <ele>4.3</ele>
        <time>2022-06-21T10:53:32Z</time>
      </trkpt>
      <trkpt lat="45.94124" lon="-0.95437">
        <ele>4.3</ele>
        <time>2022-06-21T10:53:33Z</time>
      </trkpt>
      <trkpt lat="45.94124" lon="-0.95437">
        <ele>4.3</ele>
        <time>2022-06-21T10:53:34Z</time>
      </trkpt>
      <trkpt lat="45.94124" lon="-0.95437">
        <ele>4.3</ele>
        <time>2022-06-21T10:53:35Z</time>
      </trkpt>
      <trkpt lat="45.94124" lon="-0.95437">
        <ele>4.3</ele>
        <time>2022-06-21T10:53:36Z</time>
      </trkpt>
      <trkpt lat="45.94124" lon="-0.95437">
        <ele>4.3</ele>
        <time>2022-06-21T10:53:37Z</time>
      </trkpt>
      <trkpt lat="45.94124" lon="-0.95437">
        <ele>4.3</ele>
        <time>2022-06-21T10:53:38Z</time>
      </trkpt>
      <trkpt lat="45.94124" lon="-0.95437">
        <ele>4.3</ele>
        <time>2022-06-21T10:53:39Z</time>
      </trkpt>
      <trkpt lat="45.94124" lon="-0.95437">
        <ele>4.3</ele>
        <time>2022-06-21T10:53:40Z</time>
      </trkpt>
      <trkpt lat="45.94124" lon="-0.95437">
        <ele>4.3</ele>
        <time>2022-06-21T10:53:41Z</time>
      </trkpt>
      <trkpt lat="45.94124" lon="-0.95437">
        <ele>4.3</ele>
        <time>2022-06-21T10:53:42Z</time>
      </trkpt>
      <trkpt lat="45.94124" lon="-0.95437">
        <ele>4.3</ele>
        <time>2022-06-21T10:53:43Z</time>
      </trkpt>
      <trkpt lat="45.94124" lon="-0.95437">
        <ele>4.3</ele>
        <time>2022-06-21T10:53:44Z</time>
      </trkpt>
      <trkpt lat="45.94124" lon="-0.95437">
        <ele>4.3</ele>
        <time>2022-06-21T10:53:45Z</time>
      </trkpt>
      <trkpt lat="45.94124" lon="-0.95437">
        <ele>4.3</ele>
        <time>2022-06-21T10:53:46Z</time>
      </trkpt>
      <trkpt lat="45.94124" lon="-0.95437">
        <ele>4.3</ele>
        <time>2022-06-21T10:53:47Z</time>
      </trkpt>
      <trkpt lat="45.94124" lon="-0.95437">
        <ele>4.3</ele>
        <time>2022-06-21T10:53:48Z</time>
      </trkpt>
      <trkpt lat="45.94124" lon="-0.95437">
        <ele>4.3</ele>
        <time>2022-06-21T10:53:49Z</time>
      </trkpt>
      <trkpt lat="45.94124" lon="-0.95437">
        <ele>4.3</ele>
        <time>2022-06-21T10:53:50Z</time>
      </trkpt>
      <trkpt lat="45.94124" lon="-0.95437">
        <ele>4.3</ele>
        <time>2022-06-21T10:53:51Z</time>
      </trkpt>
      <trkpt lat="45.94124" lon="-0.95437">
        <ele>4.3</ele>
        <time>2022-06-21T10:53:52Z</time>
      </trkpt>
      <trkpt lat="45.94124" lon="-0.95437">
        <ele>4.3</ele>
        <time>2022-06-21T10:53:53Z</time>
      </trkpt>
      <trkpt lat="45.94124" lon="-0.95437">
        <ele>4.3</ele>
        <time>2022-06-21T10:53:54Z</time>
      </trkpt>
      <trkpt lat="45.94124" lon="-0.95437">
        <ele>4.3</ele>
        <time>2022-06-21T10:53:55Z</time>
      </trkpt>
      <trkpt lat="45.94124" lon="-0.95437">
        <ele>4.3</ele>
        <time>2022-06-21T10:53:56Z</time>
      </trkpt>
      <trkpt lat="45.94124" lon="-0.95437">
        <ele>4.3</ele>
        <time>2022-06-21T10:53:57Z</time>
      </trkpt>
      <trkpt lat="45.94124" lon="-0.95437">
        <ele>4.3</ele>
        <time>2022-06-21T10:53:58Z</time>
      </trkpt>
      <trkpt lat="45.94124" lon="-0.95437">
        <ele>4.3</ele>
        <time>2022-06-21T10:53:59Z</time>
      </trkpt>
      <trkpt lat="45.94124" lon="-0.95437">
        <ele>4.3</ele>
        <time>2022-06-21T10:54:00Z</time>
      </trkpt>
      <trkpt lat="45.94124" lon="-0.95437">
        <ele>4.3</ele>
        <time>2022-06-21T10:54:01Z</time>
      </trkpt>
      <trkpt lat="45.94124" lon="-0.95437">
        <ele>4.3</ele>
        <time>2022-06-21T10:54:02Z</time>
      </trkpt>
      <trkpt lat="45.94124" lon="-0.95437">
        <ele>4.3</ele>
        <time>2022-06-21T10:54:03Z</time>
      </trkpt>
      <trkpt lat="45.94124" lon="-0.95437">
        <ele>4.3</ele>
        <time>2022-06-21T10:54:04Z</time>
      </trkpt>
      <trkpt lat="45.94124" lon="-0.95437">
        <ele>4.3</ele>
        <time>2022-06-21T10:54:05Z</time>
      </trkpt>
      <trkpt lat="45.94124" lon="-0.95437">
        <ele>4.3</ele>
        <time>2022-06-21T10:54:06Z</time>
      </trkpt>
      <trkpt lat="45.94124" lon="-0.95437">
        <ele>4.3</ele>
        <time>2022-06-21T10:54:07Z</time>
      </trkpt>
      <trkpt lat="45.94124" lon="-0.95437">
        <ele>4.3</ele>
        <time>2022-06-21T10:54:08Z</time>
      </trkpt>
      <trkpt lat="45.94124" lon="-0.95437">
        <ele>4.3</ele>
        <time>2022-06-21T10:54:09Z</time>
      </trkpt>
      <trkpt lat="45.94124" lon="-0.95437">
        <ele>4.3</ele>
        <time>2022-06-21T10:54:10Z</time>
      </trkpt>
      <trkpt lat="45.94124" lon="-0.95437">
        <ele>4.3</ele>
        <time>2022-06-21T10:54:11Z</time>
      </trkpt>
      <trkpt lat="45.94124" lon="-0.95437">
        <ele>4.3</ele>
        <time>2022-06-21T10:54:12Z</time>
      </trkpt>
      <trkpt lat="45.94124" lon="-0.95437">
        <ele>4.3</ele>
        <time>2022-06-21T10:54:13Z</time>
      </trkpt>
      <trkpt lat="45.94124" lon="-0.95437">
        <ele>4.3</ele>
        <time>2022-06-21T10:54:14Z</time>
      </trkpt>
      <trkpt lat="45.94124" lon="-0.95437">
        <ele>4.3</ele>
        <time>2022-06-21T10:54:15Z</time>
      </trkpt>
      <trkpt lat="45.94124" lon="-0.95437">
        <ele>4.3</ele>
        <time>2022-06-21T10:54:16Z</time>
      </trkpt>
      <trkpt lat="45.94124" lon="-0.95437">
        <ele>4.3</ele>
        <time>2022-06-21T10:54:17Z</time>
      </trkpt>
      <trkpt lat="45.94124" lon="-0.95437">
        <ele>4.3</ele>
        <time>2022-06-21T10:54:18Z</time>
      </trkpt>
      <trkpt lat="45.94124" lon="-0.95437">
        <ele>4.3</ele>
        <time>2022-06-21T10:54:19Z</time>
      </trkpt>
      <trkpt lat="45.94124" lon="-0.95437">
        <ele>4.3</ele>
        <time>2022-06-21T10:54:20Z</time>
      </trkpt>
      <trkpt lat="45.94124" lon="-0.95437">
        <ele>4.3</ele>
        <time>2022-06-21T10:54:21Z</time>
      </trkpt>
      <trkpt lat="45.94124" lon="-0.95437">
        <ele>4.3</ele>
        <time>2022-06-21T10:54:22Z</time>
      </trkpt>
      <trkpt lat="45.94124" lon="-0.95437">
        <ele>4.3</ele>
        <time>2022-06-21T10:54:23Z</time>
      </trkpt>
      <trkpt lat="45.94124" lon="-0.95437">
        <ele>4.3</ele>
        <time>2022-06-21T10:54:24Z</time>
      </trkpt>
      <trkpt lat="45.94124" lon="-0.95437">
        <ele>4.3</ele>
        <time>2022-06-21T10:54:25Z</time>
      </trkpt>
      <trkpt lat="45.94124" lon="-0.95437">
        <ele>4.3</ele>
        <time>2022-06-21T10:54:26Z</time>
      </trkpt>
      <trkpt lat="45.94124" lon="-0.95437">
        <ele>4.3</ele>
        <time>2022-06-21T10:54:27Z</time>
      </trkpt>
      <trkpt lat="45.94124" lon="-0.95437">
        <ele>4.3</ele>
        <time>2022-06-21T10:54:28Z</time>
      </trkpt>
      <trkpt lat="45.94124" lon="-0.95437">
        <ele>4.3</ele>
        <time>2022-06-21T10:54:29Z</time>
      </trkpt>
      <trkpt lat="45.94124" lon="-0.95437">
        <ele>4.3</ele>
        <time>2022-06-21T10:54:30Z</time>
      </trkpt>
      <trkpt lat="45.94124" lon="-0.95437">
        <ele>4.3</ele>
        <time>2022-06-21T10:54:31Z</time>
      </trkpt>
      <trkpt lat="45.94124" lon="-0.95437">
        <ele>4.3</ele>
        <time>2022-06-21T10:54:32Z</time>
      </trkpt>
      <trkpt lat="45.94124" lon="-0.95437">
        <ele>4.3</ele>
        <time>2022-06-21T10:54:33Z</time>
      </trkpt>
      <trkpt lat="45.94124" lon="-0.95437">
        <ele>4.3</ele>
        <time>2022-06-21T10:54:34Z</time>
      </trkpt>
      <trkpt lat="45.94124" lon="-0.95437">
        <ele>4.3</ele>
        <time>2022-06-21T10:54:35Z</time>
      </trkpt>
      <trkpt lat="45.94124" lon="-0.95437">
        <ele>4.3</ele>
        <time>2022-06-21T10:54:36Z</time>
      </trkpt>
      <trkpt lat="45.94124" lon="-0.95437">
        <ele>4.3</ele>
        <time>2022-06-21T10:54:37Z</time>
      </trkpt>
      <trkpt lat="45.94124" lon="-0.95437">
        <ele>4.3</ele>
        <time>2022-06-21T10:54:38Z</time>
      </trkpt>
      <trkpt lat="45.94124" lon="-0.95437">
        <ele>4.3</ele>
        <time>2022-06-21T10:54:39Z</time>
      </trkpt>
      <trkpt lat="45.94124" lon="-0.95437">
        <ele>4.3</ele>
        <time>2022-06-21T10:54:40Z</time>
      </trkpt>
      <trkpt lat="45.94124" lon="-0.95437">
        <ele>4.3</ele>
        <time>2022-06-21T10:54:41Z</time>
      </trkpt>
      <trkpt lat="45.94124" lon="-0.95437">
        <ele>4.3</ele>
        <time>2022-06-21T10:54:42Z</time>
      </trkpt>
      <trkpt lat="45.94124" lon="-0.95437">
        <ele>4.3</ele>
        <time>2022-06-21T10:54:43Z</time>
      </trkpt>
      <trkpt lat="45.94124" lon="-0.95437">
        <ele>4.3</ele>
        <time>2022-06-21T10:54:44Z</time>
      </trkpt>
      <trkpt lat="45.94124" lon="-0.95437">
        <ele>4.3</ele>
        <time>2022-06-21T10:54:45Z</time>
      </trkpt>
      <trkpt lat="45.94124" lon="-0.95437">
        <ele>4.3</ele>
        <time>2022-06-21T10:54:46Z</time>
      </trkpt>
      <trkpt lat="45.94124" lon="-0.95437">
        <ele>4.3</ele>
        <time>2022-06-21T10:54:47Z</time>
      </trkpt>
      <trkpt lat="45.94124" lon="-0.95437">
        <ele>4.3</ele>
        <time>2022-06-21T10:54:48Z</time>
      </trkpt>
      <trkpt lat="45.94124" lon="-0.95437">
        <ele>4.3</ele>
        <time>2022-06-21T10:54:49Z</time>
      </trkpt>
      <trkpt lat="45.94124" lon="-0.95437">
        <ele>4.3</ele>
        <time>2022-06-21T10:54:50Z</time>
      </trkpt>
      <trkpt lat="45.94124" lon="-0.95437">
        <ele>4.3</ele>
        <time>2022-06-21T10:54:51Z</time>
      </trkpt>
      <trkpt lat="45.94124" lon="-0.95437">
        <ele>4.3</ele>
        <time>2022-06-21T10:54:52Z</time>
      </trkpt>
      <trkpt lat="45.94124" lon="-0.95437">
        <ele>4.3</ele>
        <time>2022-06-21T10:54:53Z</time>
      </trkpt>
      <trkpt lat="45.94124" lon="-0.95437">
        <ele>4.3</ele>
        <time>2022-06-21T10:54:54Z</time>
      </trkpt>
      <trkpt lat="45.94124" lon="-0.95437">
        <ele>4.3</ele>
        <time>2022-06-21T10:54:55Z</time>
      </trkpt>
      <trkpt lat="45.94124" lon="-0.95437">
        <ele>4.3</ele>
        <time>2022-06-21T10:54:56Z</time>
      </trkpt>
      <trkpt lat="45.94124" lon="-0.95437">
        <ele>4.3</ele>
        <time>2022-06-21T10:54:57Z</time>
      </trkpt>
      <trkpt lat="45.94124" lon="-0.95437">
        <ele>4.3</ele>
        <time>2022-06-21T10:54:58Z</time>
      </trkpt>
      <trkpt lat="45.94124" lon="-0.95437">
        <ele>4.3</ele>
        <time>2022-06-21T10:54:59Z</time>
      </trkpt>
      <trkpt lat="45.94124" lon="-0.95437">
        <ele>4.3</ele>
        <time>2022-06-21T10:55:00Z</time>
      </trkpt>
      <trkpt lat="45.94124" lon="-0.95437">
        <ele>4.3</ele>
        <time>2022-06-21T10:55:01Z</time>
      </trkpt>
      <trkpt lat="45.94124" lon="-0.95437">
        <ele>4.3</ele>
        <time>2022-06-21T10:55:02Z</time>
      </trkpt>
      <trkpt lat="45.94124" lon="-0.95437">
        <ele>4.3</ele>
        <time>2022-06-21T10:55:03Z</time>
      </trkpt>
      <trkpt lat="45.94124" lon="-0.95437">
        <ele>4.3</ele>
        <time>2022-06-21T10:55:04Z</time>
      </trkpt>
      <trkpt lat="45.94124" lon="-0.95437">
        <ele>4.3</ele>
        <time>2022-06-21T10:55:05Z</time>
      </trkpt>
      <trkpt lat="45.94124" lon="-0.95437">
        <ele>4.3</ele>
        <time>2022-06-21T10:55:06Z</time>
      </trkpt>
      <trkpt lat="45.94124" lon="-0.95437">
        <ele>4.3</ele>
        <time>2022-06-21T10:55:07Z</time>
      </trkpt>
      <trkpt lat="45.94124" lon="-0.95437">
        <ele>4.3</ele>
        <time>2022-06-21T10:55:08Z</time>
      </trkpt>
      <trkpt lat="45.94124" lon="-0.95437">
        <ele>4.3</ele>
        <time>2022-06-21T10:55:09Z</time>
      </trkpt>
      <trkpt lat="45.94124" lon="-0.95437">
        <ele>4.3</ele>
        <time>2022-06-21T10:55:10Z</time>
      </trkpt>
      <trkpt lat="45.94124" lon="-0.95437">
        <ele>4.3</ele>
        <time>2022-06-21T10:55:11Z</time>
      </trkpt>
      <trkpt lat="45.94124" lon="-0.95437">
        <ele>4.3</ele>
        <time>2022-06-21T10:55:12Z</time>
      </trkpt>
      <trkpt lat="45.94124" lon="-0.95437">
        <ele>4.3</ele>
        <time>2022-06-21T10:55:13Z</time>
      </trkpt>
      <trkpt lat="45.94124" lon="-0.95437">
        <ele>4.3</ele>
        <time>2022-06-21T10:55:14Z</time>
      </trkpt>
      <trkpt lat="45.94124" lon="-0.95437">
        <ele>4.3</ele>
        <time>2022-06-21T10:55:15Z</time>
      </trkpt>
      <trkpt lat="45.94124" lon="-0.95437">
        <ele>4.3</ele>
        <time>2022-06-21T10:55:16Z</time>
      </trkpt>
      <trkpt lat="45.94124" lon="-0.95437">
        <ele>4.3</ele>
        <time>2022-06-21T10:55:17Z</time>
      </trkpt>
      <trkpt lat="45.94124" lon="-0.95437">
        <ele>4.3</ele>
        <time>2022-06-21T10:55:18Z</time>
      </trkpt>
      <trkpt lat="45.94124" lon="-0.95437">
        <ele>4.3</ele>
        <time>2022-06-21T10:55:19Z</time>
      </trkpt>
      <trkpt lat="45.94124" lon="-0.95437">
        <ele>4.3</ele>
        <time>2022-06-21T10:55:20Z</time>
      </trkpt>
      <trkpt lat="45.94124" lon="-0.95437">
        <ele>4.3</ele>
        <time>2022-06-21T10:55:21Z</time>
      </trkpt>
      <trkpt lat="45.94124" lon="-0.95437">
        <ele>4.3</ele>
        <time>2022-06-21T10:55:22Z</time>
      </trkpt>
      <trkpt lat="45.94124" lon="-0.95437">
        <ele>4.3</ele>
        <time>2022-06-21T10:55:23Z</time>
      </trkpt>
      <trkpt lat="45.94124" lon="-0.95437">
        <ele>4.3</ele>
        <time>2022-06-21T10:55:24Z</time>
      </trkpt>
      <trkpt lat="45.94124" lon="-0.95437">
        <ele>4.3</ele>
        <time>2022-06-21T10:55:25Z</time>
      </trkpt>
      <trkpt lat="45.94124" lon="-0.95437">
        <ele>4.3</ele>
        <time>2022-06-21T10:55:26Z</time>
      </trkpt>
      <trkpt lat="45.94124" lon="-0.95437">
        <ele>4.3</ele>
        <time>2022-06-21T10:55:27Z</time>
      </trkpt>
      <trkpt lat="45.94124" lon="-0.95437">
        <ele>4.3</ele>
        <time>2022-06-21T10:55:28Z</time>
      </trkpt>
      <trkpt lat="45.94124" lon="-0.95437">
        <ele>4.3</ele>
        <time>2022-06-21T10:55:29Z</time>
      </trkpt>
      <trkpt lat="45.94124" lon="-0.95437">
        <ele>4.3</ele>
        <time>2022-06-21T10:55:30Z</time>
      </trkpt>
      <trkpt lat="45.94124" lon="-0.95437">
        <ele>4.3</ele>
        <time>2022-06-21T10:55:31Z</time>
      </trkpt>
      <trkpt lat="45.94124" lon="-0.95437">
        <ele>4.3</ele>
        <time>2022-06-21T10:55:32Z</time>
      </trkpt>
      <trkpt lat="45.94124" lon="-0.95437">
        <ele>4.3</ele>
        <time>2022-06-21T10:55:33Z</time>
      </trkpt>
      <trkpt lat="45.94124" lon="-0.95437">
        <ele>4.3</ele>
        <time>2022-06-21T10:55:34Z</time>
      </trkpt>
      <trkpt lat="45.94124" lon="-0.95437">
        <ele>4.3</ele>
        <time>2022-06-21T10:55:35Z</time>
      </trkpt>
      <trkpt lat="45.94124" lon="-0.95437">
        <ele>4.3</ele>
        <time>2022-06-21T10:55:36Z</time>
      </trkpt>
      <trkpt lat="45.94124" lon="-0.95437">
        <ele>4.3</ele>
        <time>2022-06-21T10:55:37Z</time>
      </trkpt>
      <trkpt lat="45.94124" lon="-0.95437">
        <ele>4.3</ele>
        <time>2022-06-21T10:55:38Z</time>
      </trkpt>
      <trkpt lat="45.94124" lon="-0.95437">
        <ele>4.3</ele>
        <time>2022-06-21T10:55:39Z</time>
      </trkpt>
      <trkpt lat="45.94124" lon="-0.95437">
        <ele>4.3</ele>
        <time>2022-06-21T10:55:40Z</time>
      </trkpt>
      <trkpt lat="45.94124" lon="-0.95437">
        <ele>4.3</ele>
        <time>2022-06-21T10:55:41Z</time>
      </trkpt>
      <trkpt lat="45.94124" lon="-0.95437">
        <ele>4.3</ele>
        <time>2022-06-21T10:55:42Z</time>
      </trkpt>
      <trkpt lat="45.94124" lon="-0.95437">
        <ele>4.3</ele>
        <time>2022-06-21T10:55:43Z</time>
      </trkpt>
      <trkpt lat="45.94124" lon="-0.95437">
        <ele>4.3</ele>
        <time>2022-06-21T10:55:44Z</time>
      </trkpt>
      <trkpt lat="45.94124" lon="-0.95437">
        <ele>4.3</ele>
        <time>2022-06-21T10:55:45Z</time>
      </trkpt>
      <trkpt lat="45.94124" lon="-0.95437">
        <ele>4.3</ele>
        <time>2022-06-21T10:55:46Z</time>
      </trkpt>
      <trkpt lat="45.94124" lon="-0.95437">
        <ele>4.3</ele>
        <time>2022-06-21T10:55:47Z</time>
      </trkpt>
      <trkpt lat="45.94124" lon="-0.95437">
        <ele>4.3</ele>
        <time>2022-06-21T10:55:48Z</time>
      </trkpt>
      <trkpt lat="45.94124" lon="-0.95437">
        <ele>4.3</ele>
        <time>2022-06-21T10:55:49Z</time>
      </trkpt>
      <trkpt lat="45.94124" lon="-0.95437">
        <ele>4.3</ele>
        <time>2022-06-21T10:55:50Z</time>
      </trkpt>
      <trkpt lat="45.94124" lon="-0.95437">
        <ele>4.3</ele>
        <time>2022-06-21T10:55:51Z</time>
      </trkpt>
      <trkpt lat="45.94124" lon="-0.95437">
        <ele>4.3</ele>
        <time>2022-06-21T10:55:52Z</time>
      </trkpt>
      <trkpt lat="45.94124" lon="-0.95437">
        <ele>4.3</ele>
        <time>2022-06-21T10:55:53Z</time>
      </trkpt>
      <trkpt lat="45.94124" lon="-0.95437">
        <ele>4.3</ele>
        <time>2022-06-21T10:55:54Z</time>
      </trkpt>
      <trkpt lat="45.94124" lon="-0.95437">
        <ele>4.3</ele>
        <time>2022-06-21T10:55:55Z</time>
      </trkpt>
      <trkpt lat="45.94124" lon="-0.95437">
        <ele>4.3</ele>
        <time>2022-06-21T10:55:56Z</time>
      </trkpt>
      <trkpt lat="45.94124" lon="-0.95437">
        <ele>4.3</ele>
        <time>2022-06-21T10:55:57Z</time>
      </trkpt>
      <trkpt lat="45.94124" lon="-0.95437">
        <ele>4.3</ele>
        <time>2022-06-21T10:55:58Z</time>
      </trkpt>
      <trkpt lat="45.94124" lon="-0.95437">
        <ele>4.3</ele>
        <time>2022-06-21T10:55:59Z</time>
      </trkpt>
      <trkpt lat="45.94124" lon="-0.95437">
        <ele>4.3</ele>
        <time>2022-06-21T10:56:00Z</time>
      </trkpt>
      <trkpt lat="45.94124" lon="-0.95437">
        <ele>4.3</ele>
        <time>2022-06-21T10:56:01Z</time>
      </trkpt>
      <trkpt lat="45.94124" lon="-0.95437">
        <ele>4.3</ele>
        <time>2022-06-21T10:56:02Z</time>
      </trkpt>
      <trkpt lat="45.94124" lon="-0.95437">
        <ele>4.3</ele>
        <time>2022-06-21T10:56:03Z</time>
      </trkpt>
      <trkpt lat="45.94124" lon="-0.95437">
        <ele>4.3</ele>
        <time>2022-06-21T10:56:04Z</time>
      </trkpt>
      <trkpt lat="45.94124" lon="-0.95437">
        <ele>4.3</ele>
        <time>2022-06-21T10:56:05Z</time>
      </trkpt>
      <trkpt lat="45.94124" lon="-0.95437">
        <ele>4.3</ele>
        <time>2022-06-21T10:56:06Z</time>
      </trkpt>
      <trkpt lat="45.94124" lon="-0.95437">
        <ele>4.3</ele>
        <time>2022-06-21T10:56:07Z</time>
      </trkpt>
      <trkpt lat="45.94124" lon="-0.95437">
        <ele>4.3</ele>
        <time>2022-06-21T10:56:08Z</time>
      </trkpt>
      <trkpt lat="45.94124" lon="-0.95437">
        <ele>4.3</ele>
        <time>2022-06-21T10:56:09Z</time>
      </trkpt>
      <trkpt lat="45.94124" lon="-0.95437">
        <ele>4.3</ele>
        <time>2022-06-21T10:56:10Z</time>
      </trkpt>
      <trkpt lat="45.94124" lon="-0.95437">
        <ele>4.3</ele>
        <time>2022-06-21T10:56:11Z</time>
      </trkpt>
      <trkpt lat="45.94124" lon="-0.95437">
        <ele>4.3</ele>
        <time>2022-06-21T10:56:12Z</time>
      </trkpt>
      <trkpt lat="45.94124" lon="-0.95437">
        <ele>4.3</ele>
        <time>2022-06-21T10:56:13Z</time>
      </trkpt>
      <trkpt lat="45.94124" lon="-0.95437">
        <ele>4.3</ele>
        <time>2022-06-21T10:56:14Z</time>
      </trkpt>
      <trkpt lat="45.94124" lon="-0.95437">
        <ele>4.3</ele>
        <time>2022-06-21T10:56:15Z</time>
      </trkpt>
      <trkpt lat="45.94124" lon="-0.95437">
        <ele>4.3</ele>
        <time>2022-06-21T10:56:16Z</time>
      </trkpt>
      <trkpt lat="45.94124" lon="-0.95437">
        <ele>4.3</ele>
        <time>2022-06-21T10:56:17Z</time>
      </trkpt>
      <trkpt lat="45.94124" lon="-0.95437">
        <ele>4.3</ele>
        <time>2022-06-21T10:56:18Z</time>
      </trkpt>
      <trkpt lat="45.94124" lon="-0.95437">
        <ele>4.3</ele>
        <time>2022-06-21T10:56:19Z</time>
      </trkpt>
      <trkpt lat="45.94124" lon="-0.95437">
        <ele>4.3</ele>
        <time>2022-06-21T10:56:20Z</time>
      </trkpt>
      <trkpt lat="45.94124" lon="-0.95437">
        <ele>4.3</ele>
        <time>2022-06-21T10:56:21Z</time>
      </trkpt>
      <trkpt lat="45.94124" lon="-0.95437">
        <ele>4.3</ele>
        <time>2022-06-21T10:56:22Z</time>
      </trkpt>
      <trkpt lat="45.94124" lon="-0.95437">
        <ele>4.3</ele>
        <time>2022-06-21T10:56:23Z</time>
      </trkpt>
      <trkpt lat="45.94124" lon="-0.95437">
        <ele>4.3</ele>
        <time>2022-06-21T10:56:24Z</time>
      </trkpt>
      <trkpt lat="45.94124" lon="-0.95437">
        <ele>4.3</ele>
        <time>2022-06-21T10:56:25Z</time>
      </trkpt>
      <trkpt lat="45.94124" lon="-0.95437">
        <ele>4.3</ele>
        <time>2022-06-21T10:56:26Z</time>
      </trkpt>
      <trkpt lat="45.94124" lon="-0.95437">
        <ele>4.3</ele>
        <time>2022-06-21T10:56:27Z</time>
      </trkpt>
      <trkpt lat="45.94124" lon="-0.95437">
        <ele>4.3</ele>
        <time>2022-06-21T10:56:28Z</time>
      </trkpt>
      <trkpt lat="45.94124" lon="-0.95437">
        <ele>4.3</ele>
        <time>2022-06-21T10:56:29Z</time>
      </trkpt>
      <trkpt lat="45.94124" lon="-0.95437">
        <ele>4.3</ele>
        <time>2022-06-21T10:56:30Z</time>
      </trkpt>
      <trkpt lat="45.94124" lon="-0.95437">
        <ele>4.3</ele>
        <time>2022-06-21T10:56:31Z</time>
      </trkpt>
      <trkpt lat="45.94124" lon="-0.95437">
        <ele>4.3</ele>
        <time>2022-06-21T10:56:32Z</time>
      </trkpt>
      <trkpt lat="45.94124" lon="-0.95437">
        <ele>4.3</ele>
        <time>2022-06-21T10:56:33Z</time>
      </trkpt>
      <trkpt lat="45.94124" lon="-0.95437">
        <ele>4.3</ele>
        <time>2022-06-21T10:56:34Z</time>
      </trkpt>
      <trkpt lat="45.94124" lon="-0.95437">
        <ele>4.3</ele>
        <time>2022-06-21T10:56:35Z</time>
      </trkpt>
      <trkpt lat="45.94124" lon="-0.95437">
        <ele>4.3</ele>
        <time>2022-06-21T10:56:36Z</time>
      </trkpt>
      <trkpt lat="45.94124" lon="-0.95437">
        <ele>4.3</ele>
        <time>2022-06-21T10:56:37Z</time>
      </trkpt>
      <trkpt lat="45.94124" lon="-0.95437">
        <ele>4.3</ele>
        <time>2022-06-21T10:56:38Z</time>
      </trkpt>
      <trkpt lat="45.94124" lon="-0.95437">
        <ele>4.3</ele>
        <time>2022-06-21T10:56:39Z</time>
      </trkpt>
      <trkpt lat="45.94124" lon="-0.95437">
        <ele>4.3</ele>
        <time>2022-06-21T10:56:40Z</time>
      </trkpt>
      <trkpt lat="45.94124" lon="-0.95437">
        <ele>4.3</ele>
        <time>2022-06-21T10:56:41Z</time>
      </trkpt>
      <trkpt lat="45.94124" lon="-0.95437">
        <ele>4.3</ele>
        <time>2022-06-21T10:56:42Z</time>
      </trkpt>
      <trkpt lat="45.94124" lon="-0.95437">
        <ele>4.3</ele>
        <time>2022-06-21T10:56:43Z</time>
      </trkpt>
      <trkpt lat="45.94124" lon="-0.95437">
        <ele>4.3</ele>
        <time>2022-06-21T10:56:44Z</time>
      </trkpt>
      <trkpt lat="45.94124" lon="-0.95437">
        <ele>4.3</ele>
        <time>2022-06-21T10:56:45Z</time>
      </trkpt>
      <trkpt lat="45.94124" lon="-0.95437">
        <ele>4.3</ele>
        <time>2022-06-21T10:56:46Z</time>
      </trkpt>
      <trkpt lat="45.94124" lon="-0.95437">
        <ele>4.3</ele>
        <time>2022-06-21T10:56:47Z</time>
      </trkpt>
      <trkpt lat="45.94124" lon="-0.95437">
        <ele>4.3</ele>
        <time>2022-06-21T10:56:48Z</time>
      </trkpt>
      <trkpt lat="45.94124" lon="-0.95437">
        <ele>4.3</ele>
        <time>2022-06-21T10:56:49Z</time>
      </trkpt>
      <trkpt lat="45.94124" lon="-0.95437">
        <ele>4.3</ele>
        <time>2022-06-21T10:56:50Z</time>
      </trkpt>
      <trkpt lat="45.94124" lon="-0.95437">
        <ele>4.3</ele>
        <time>2022-06-21T10:56:51Z</time>
      </trkpt>
      <trkpt lat="45.94124" lon="-0.95437">
        <ele>4.3</ele>
        <time>2022-06-21T10:56:52Z</time>
      </trkpt>
      <trkpt lat="45.94124" lon="-0.95437">
        <ele>4.3</ele>
        <time>2022-06-21T10:56:53Z</time>
      </trkpt>
      <trkpt lat="45.94124" lon="-0.95437">
        <ele>4.3</ele>
        <time>2022-06-21T10:56:54Z</time>
      </trkpt>
      <trkpt lat="45.94124" lon="-0.95437">
        <ele>4.3</ele>
        <time>2022-06-21T10:56:55Z</time>
      </trkpt>
      <trkpt lat="45.94124" lon="-0.95437">
        <ele>4.3</ele>
        <time>2022-06-21T10:56:56Z</time>
      </trkpt>
      <trkpt lat="45.94124" lon="-0.95437">
        <ele>4.3</ele>
        <time>2022-06-21T10:56:57Z</time>
      </trkpt>
      <trkpt lat="45.94124" lon="-0.95437">
        <ele>4.3</ele>
        <time>2022-06-21T10:56:58Z</time>
      </trkpt>
      <trkpt lat="45.94124" lon="-0.95437">
        <ele>4.3</ele>
        <time>2022-06-21T10:56:59Z</time>
      </trkpt>
      <trkpt lat="45.94124" lon="-0.95437">
        <ele>4.3</ele>
        <time>2022-06-21T10:57:00Z</time>
      </trkpt>
      <trkpt lat="45.94124" lon="-0.95437">
        <ele>4.3</ele>
        <time>2022-06-21T10:57:01Z</time>
      </trkpt>
      <trkpt lat="45.94124" lon="-0.95437">
        <ele>4.3</ele>
        <time>2022-06-21T10:57:02Z</time>
      </trkpt>
      <trkpt lat="45.94124" lon="-0.95437">
        <ele>4.3</ele>
        <time>2022-06-21T10:57:03Z</time>
      </trkpt>
      <trkpt lat="45.94124" lon="-0.95437">
        <ele>4.3</ele>
        <time>2022-06-21T10:57:04Z</time>
      </trkpt>
      <trkpt lat="45.94124" lon="-0.95437">
        <ele>4.3</ele>
        <time>2022-06-21T10:57:05Z</time>
      </trkpt>
      <trkpt lat="45.94124" lon="-0.95437">
        <ele>4.3</ele>
        <time>2022-06-21T10:57:06Z</time>
      </trkpt>
      <trkpt lat="45.94124" lon="-0.95437">
        <ele>4.3</ele>
        <time>2022-06-21T10:57:07Z</time>
      </trkpt>
      <trkpt lat="45.94124" lon="-0.95437">
        <ele>4.3</ele>
        <time>2022-06-21T10:57:08Z</time>
      </trkpt>
      <trkpt lat="45.94124" lon="-0.95437">
        <ele>4.3</ele>
        <time>2022-06-21T10:57:09Z</time>
      </trkpt>
      <trkpt lat="45.94124" lon="-0.95437">
        <ele>4.3</ele>
        <time>2022-06-21T10:57:10Z</time>
      </trkpt>
      <trkpt lat="45.94124" lon="-0.95437">
        <ele>4.3</ele>
        <time>2022-06-21T10:57:11Z</time>
      </trkpt>
      <trkpt lat="45.94124" lon="-0.95437">
        <ele>4.3</ele>
        <time>2022-06-21T10:57:12Z</time>
      </trkpt>
      <trkpt lat="45.94124" lon="-0.95437">
        <ele>4.3</ele>
        <time>2022-06-21T10:57:13Z</time>
      </trkpt>
      <trkpt lat="45.94124" lon="-0.95437">
        <ele>4.3</ele>
        <time>2022-06-21T10:57:14Z</time>
      </trkpt>
      <trkpt lat="45.94124" lon="-0.95437">
        <ele>4.3</ele>
        <time>2022-06-21T10:57:15Z</time>
      </trkpt>
      <trkpt lat="45.94124" lon="-0.95437">
        <ele>4.3</ele>
        <time>2022-06-21T10:57:16Z</time>
      </trkpt>
      <trkpt lat="45.94124" lon="-0.95437">
        <ele>4.3</ele>
        <time>2022-06-21T10:57:17Z</time>
      </trkpt>
      <trkpt lat="45.94124" lon="-0.95437">
        <ele>4.3</ele>
        <time>2022-06-21T10:57:18Z</time>
      </trkpt>
      <trkpt lat="45.94124" lon="-0.95437">
        <ele>4.3</ele>
        <time>2022-06-21T10:57:19Z</time>
      </trkpt>
      <trkpt lat="45.94124" lon="-0.95437">
        <ele>4.3</ele>
        <time>2022-06-21T10:57:20Z</time>
      </trkpt>
      <trkpt lat="45.94124" lon="-0.95437">
        <ele>4.3</ele>
        <time>2022-06-21T10:57:21Z</time>
      </trkpt>
      <trkpt lat="45.94124" lon="-0.95437">
        <ele>4.3</ele>
        <time>2022-06-21T10:57:22Z</time>
      </trkpt>
      <trkpt lat="45.94124" lon="-0.95437">
        <ele>4.3</ele>
        <time>2022-06-21T10:57:23Z</time>
      </trkpt>
      <trkpt lat="45.94124" lon="-0.95437">
        <ele>4.3</ele>
        <time>2022-06-21T10:57:24Z</time>
      </trkpt>
      <trkpt lat="45.94124" lon="-0.95437">
        <ele>4.3</ele>
        <time>2022-06-21T10:57:25Z</time>
      </trkpt>
      <trkpt lat="45.94124" lon="-0.95437">
        <ele>4.3</ele>
        <time>2022-06-21T10:57:26Z</time>
      </trkpt>
      <trkpt lat="45.94124" lon="-0.95437">
        <ele>4.3</ele>
        <time>2022-06-21T10:57:27Z</time>
      </trkpt>
      <trkpt lat="45.94124" lon="-0.95437">
        <ele>4.3</ele>
        <time>2022-06-21T10:57:28Z</time>
      </trkpt>
      <trkpt lat="45.94124" lon="-0.95437">
        <ele>4.3</ele>
        <time>2022-06-21T10:57:29Z</time>
      </trkpt>
      <trkpt lat="45.94124" lon="-0.95437">
        <ele>4.3</ele>
        <time>2022-06-21T10:57:30Z</time>
      </trkpt>
      <trkpt lat="45.94124" lon="-0.95437">
        <ele>4.3</ele>
        <time>2022-06-21T10:57:31Z</time>
      </trkpt>
      <trkpt lat="45.94124" lon="-0.95437">
        <ele>4.3</ele>
        <time>2022-06-21T10:57:32Z</time>
      </trkpt>
      <trkpt lat="45.94124" lon="-0.95437">
        <ele>4.3</ele>
        <time>2022-06-21T10:57:33Z</time>
      </trkpt>
      <trkpt lat="45.94124" lon="-0.95437">
        <ele>4.3</ele>
        <time>2022-06-21T10:57:34Z</time>
      </trkpt>
      <trkpt lat="45.94124" lon="-0.95437">
        <ele>4.3</ele>
        <time>2022-06-21T10:57:35Z</time>
      </trkpt>
      <trkpt lat="45.94124" lon="-0.95437">
        <ele>4.3</ele>
        <time>2022-06-21T10:57:36Z</time>
      </trkpt>
      <trkpt lat="45.94124" lon="-0.95437">
        <ele>4.3</ele>
        <time>2022-06-21T10:57:37Z</time>
      </trkpt>
      <trkpt lat="45.94124" lon="-0.95437">
        <ele>4.3</ele>
        <time>2022-06-21T10:57:38Z</time>
      </trkpt>
      <trkpt lat="45.94124" lon="-0.95437">
        <ele>4.3</ele>
        <time>2022-06-21T10:57:39Z</time>
      </trkpt>
      <trkpt lat="45.94124" lon="-0.95437">
        <ele>4.3</ele>
        <time>2022-06-21T10:57:40Z</time>
      </trkpt>
      <trkpt lat="45.94124" lon="-0.95437">
        <ele>4.3</ele>
        <time>2022-06-21T10:57:41Z</time>
      </trkpt>
      <trkpt lat="45.94124" lon="-0.95437">
        <ele>4.3</ele>
        <time>2022-06-21T10:57:42Z</time>
      </trkpt>
      <trkpt lat="45.94124" lon="-0.95437">
        <ele>4.3</ele>
        <time>2022-06-21T10:57:43Z</time>
      </trkpt>
      <trkpt lat="45.94124" lon="-0.95437">
        <ele>4.3</ele>
        <time>2022-06-21T10:57:44Z</time>
      </trkpt>
      <trkpt lat="45.94124" lon="-0.95437">
        <ele>4.3</ele>
        <time>2022-06-21T10:57:45Z</time>
      </trkpt>
      <trkpt lat="45.94124" lon="-0.95437">
        <ele>4.3</ele>
        <time>2022-06-21T10:57:46Z</time>
      </trkpt>
      <trkpt lat="45.94124" lon="-0.95437">
        <ele>4.3</ele>
        <time>2022-06-21T10:57:47Z</time>
      </trkpt>
      <trkpt lat="45.94124" lon="-0.95437">
        <ele>4.3</ele>
        <time>2022-06-21T10:57:48Z</time>
      </trkpt>
      <trkpt lat="45.94124" lon="-0.95437">
        <ele>4.3</ele>
        <time>2022-06-21T10:57:49Z</time>
      </trkpt>
      <trkpt lat="45.94124" lon="-0.95437">
        <ele>4.3</ele>
        <time>2022-06-21T10:57:50Z</time>
      </trkpt>
      <trkpt lat="45.94124" lon="-0.95437">
        <ele>4.3</ele>
        <time>2022-06-21T10:57:51Z</time>
      </trkpt>
      <trkpt lat="45.94124" lon="-0.95437">
        <ele>4.3</ele>
        <time>2022-06-21T10:57:52Z</time>
      </trkpt>
      <trkpt lat="45.94124" lon="-0.95437">
        <ele>4.3</ele>
        <time>2022-06-21T10:57:53Z</time>
      </trkpt>
      <trkpt lat="45.94124" lon="-0.95437">
        <ele>4.3</ele>
        <time>2022-06-21T10:57:54Z</time>
      </trkpt>
      <trkpt lat="45.94124" lon="-0.95437">
        <ele>4.3</ele>
        <time>2022-06-21T10:57:55Z</time>
      </trkpt>
      <trkpt lat="45.94124" lon="-0.95437">
        <ele>4.3</ele>
        <time>2022-06-21T10:57:56Z</time>
      </trkpt>
      <trkpt lat="45.94124" lon="-0.95437">
        <ele>4.3</ele>
        <time>2022-06-21T10:57:57Z</time>
      </trkpt>
      <trkpt lat="45.94124" lon="-0.95437">
        <ele>4.3</ele>
        <time>2022-06-21T10:57:58Z</time>
      </trkpt>
      <trkpt lat="45.94124" lon="-0.95437">
        <ele>4.3</ele>
        <time>2022-06-21T10:57:59Z</time>
      </trkpt>
      <trkpt lat="45.94124" lon="-0.95437">
        <ele>4.3</ele>
        <time>2022-06-21T10:58:00Z</time>
      </trkpt>
      <trkpt lat="45.94124" lon="-0.95437">
        <ele>4.3</ele>
        <time>2022-06-21T10:58:01Z</time>
      </trkpt>
      <trkpt lat="45.94124" lon="-0.95437">
        <ele>4.3</ele>
        <time>2022-06-21T10:58:02Z</time>
      </trkpt>
      <trkpt lat="45.94124" lon="-0.95437">
        <ele>4.3</ele>
        <time>2022-06-21T10:58:03Z</time>
      </trkpt>
      <trkpt lat="45.94124" lon="-0.95437">
        <ele>4.3</ele>
        <time>2022-06-21T10:58:04Z</time>
      </trkpt>
      <trkpt lat="45.94124" lon="-0.95437">
        <ele>4.3</ele>
        <time>2022-06-21T10:58:05Z</time>
      </trkpt>
      <trkpt lat="45.94124" lon="-0.95437">
        <ele>4.3</ele>
        <time>2022-06-21T10:58:06Z</time>
      </trkpt>
      <trkpt lat="45.94124" lon="-0.95437">
        <ele>4.3</ele>
        <time>2022-06-21T10:58:07Z</time>
      </trkpt>
      <trkpt lat="45.94124" lon="-0.95437">
        <ele>4.3</ele>
        <time>2022-06-21T10:58:08Z</time>
      </trkpt>
      <trkpt lat="45.94124" lon="-0.95437">
        <ele>4.3</ele>
        <time>2022-06-21T10:58:09Z</time>
      </trkpt>
      <trkpt lat="45.94124" lon="-0.95437">
        <ele>4.3</ele>
        <time>2022-06-21T10:58:10Z</time>
      </trkpt>
      <trkpt lat="45.94124" lon="-0.95437">
        <ele>4.3</ele>
        <time>2022-06-21T10:58:11Z</time>
      </trkpt>
      <trkpt lat="45.94124" lon="-0.95437">
        <ele>4.3</ele>
        <time>2022-06-21T10:58:12Z</time>
      </trkpt>
      <trkpt lat="45.94124" lon="-0.95437">
        <ele>4.3</ele>
        <time>2022-06-21T10:58:13Z</time>
      </trkpt>
      <trkpt lat="45.94124" lon="-0.95437">
        <ele>4.3</ele>
        <time>2022-06-21T10:58:14Z</time>
      </trkpt>
      <trkpt lat="45.94124" lon="-0.95437">
        <ele>4.3</ele>
        <time>2022-06-21T10:58:15Z</time>
      </trkpt>
      <trkpt lat="45.94124" lon="-0.95437">
        <ele>4.3</ele>
        <time>2022-06-21T10:58:16Z</time>
      </trkpt>
      <trkpt lat="45.94124" lon="-0.95437">
        <ele>4.3</ele>
        <time>2022-06-21T10:58:17Z</time>
      </trkpt>
      <trkpt lat="45.94124" lon="-0.95437">
        <ele>4.3</ele>
        <time>2022-06-21T10:58:18Z</time>
      </trkpt>
      <trkpt lat="45.94124" lon="-0.95437">
        <ele>4.3</ele>
        <time>2022-06-21T10:58:19Z</time>
      </trkpt>
      <trkpt lat="45.94124" lon="-0.95437">
        <ele>4.3</ele>
        <time>2022-06-21T10:58:20Z</time>
      </trkpt>
      <trkpt lat="45.94124" lon="-0.95437">
        <ele>4.3</ele>
        <time>2022-06-21T10:58:21Z</time>
      </trkpt>
      <trkpt lat="45.94124" lon="-0.95437">
        <ele>4.3</ele>
        <time>2022-06-21T10:58:22Z</time>
      </trkpt>
      <trkpt lat="45.94124" lon="-0.95437">
        <ele>4.3</ele>
        <time>2022-06-21T10:58:23Z</time>
      </trkpt>
      <trkpt lat="45.94124" lon="-0.95437">
        <ele>4.3</ele>
        <time>2022-06-21T10:58:24Z</time>
      </trkpt>
      <trkpt lat="45.94124" lon="-0.95437">
        <ele>4.3</ele>
        <time>2022-06-21T10:58:25Z</time>
      </trkpt>
      <trkpt lat="45.94124" lon="-0.95437">
        <ele>4.3</ele>
        <time>2022-06-21T10:58:26Z</time>
      </trkpt>
      <trkpt lat="45.94124" lon="-0.95437">
        <ele>4.3</ele>
        <time>2022-06-21T10:58:27Z</time>
      </trkpt>
      <trkpt lat="45.94124" lon="-0.95437">
        <ele>4.3</ele>
        <time>2022-06-21T10:58:28Z</time>
      </trkpt>
      <trkpt lat="45.94124" lon="-0.95437">
        <ele>4.3</ele>
        <time>2022-06-21T10:58:29Z</time>
      </trkpt>
      <trkpt lat="45.94124" lon="-0.95437">
        <ele>4.3</ele>
        <time>2022-06-21T10:58:30Z</time>
      </trkpt>
      <trkpt lat="45.94124" lon="-0.95437">
        <ele>4.3</ele>
        <time>2022-06-21T10:58:31Z</time>
      </trkpt>
      <trkpt lat="45.94124" lon="-0.95437">
        <ele>4.3</ele>
        <time>2022-06-21T10:58:32Z</time>
      </trkpt>
      <trkpt lat="45.94124" lon="-0.95437">
        <ele>4.3</ele>
        <time>2022-06-21T10:58:33Z</time>
      </trkpt>
      <trkpt lat="45.94124" lon="-0.95437">
        <ele>4.3</ele>
        <time>2022-06-21T10:58:34Z</time>
      </trkpt>
      <trkpt lat="45.94124" lon="-0.95437">
        <ele>4.3</ele>
        <time>2022-06-21T10:58:35Z</time>
      </trkpt>
      <trkpt lat="45.94124" lon="-0.95437">
        <ele>4.3</ele>
        <time>2022-06-21T10:58:36Z</time>
      </trkpt>
      <trkpt lat="45.94124" lon="-0.95437">
        <ele>4.3</ele>
        <time>2022-06-21T10:58:37Z</time>
      </trkpt>
      <trkpt lat="45.94124" lon="-0.95437">
        <ele>4.3</ele>
        <time>2022-06-21T10:58:38Z</time>
      </trkpt>
      <trkpt lat="45.94124" lon="-0.95437">
        <ele>4.3</ele>
        <time>2022-06-21T10:58:39Z</time>
      </trkpt>
      <trkpt lat="45.94124" lon="-0.95437">
        <ele>4.3</ele>
        <time>2022-06-21T10:58:40Z</time>
      </trkpt>
      <trkpt lat="45.94124" lon="-0.95437">
        <ele>4.3</ele>
        <time>2022-06-21T10:58:41Z</time>
      </trkpt>
      <trkpt lat="45.94124" lon="-0.95437">
        <ele>4.3</ele>
        <time>2022-06-21T10:58:42Z</time>
      </trkpt>
      <trkpt lat="45.94124" lon="-0.95437">
        <ele>4.3</ele>
        <time>2022-06-21T10:58:43Z</time>
      </trkpt>
      <trkpt lat="45.94124" lon="-0.95437">
        <ele>4.3</ele>
        <time>2022-06-21T10:58:44Z</time>
      </trkpt>
      <trkpt lat="45.94124" lon="-0.95437">
        <ele>4.3</ele>
        <time>2022-06-21T10:58:45Z</time>
      </trkpt>
      <trkpt lat="45.94124" lon="-0.95437">
        <ele>4.3</ele>
        <time>2022-06-21T10:58:46Z</time>
      </trkpt>
      <trkpt lat="45.94124" lon="-0.95437">
        <ele>4.3</ele>
        <time>2022-06-21T10:58:47Z</time>
      </trkpt>
      <trkpt lat="45.94124" lon="-0.95437">
        <ele>4.3</ele>
        <time>2022-06-21T10:58:48Z</time>
      </trkpt>
      <trkpt lat="45.94124" lon="-0.95437">
        <ele>4.3</ele>
        <time>2022-06-21T10:58:49Z</time>
      </trkpt>
      <trkpt lat="45.94124" lon="-0.95437">
        <ele>4.3</ele>
        <time>2022-06-21T10:58:50Z</time>
      </trkpt>
      <trkpt lat="45.94124" lon="-0.95437">
        <ele>4.3</ele>
        <time>2022-06-21T10:58:51Z</time>
      </trkpt>
      <trkpt lat="45.94124" lon="-0.95437">
        <ele>4.3</ele>
        <time>2022-06-21T10:58:52Z</time>
      </trkpt>
      <trkpt lat="45.94124" lon="-0.95437">
        <ele>4.3</ele>
        <time>2022-06-21T10:58:53Z</time>
      </trkpt>
      <trkpt lat="45.94124" lon="-0.95437">
        <ele>4.3</ele>
        <time>2022-06-21T10:58:54Z</time>
      </trkpt>
      <trkpt lat="45.94124" lon="-0.95437">
        <ele>4.3</ele>
        <time>2022-06-21T10:58:55Z</time>
      </trkpt>
      <trkpt lat="45.94124" lon="-0.95437">
        <ele>4.3</ele>
        <time>2022-06-21T10:58:56Z</time>
      </trkpt>
      <trkpt lat="45.94124" lon="-0.95437">
        <ele>4.3</ele>
        <time>2022-06-21T10:58:57Z</time>
      </trkpt>
      <trkpt lat="45.94124" lon="-0.95437">
        <ele>4.3</ele>
        <time>2022-06-21T10:58:58Z</time>
      </trkpt>
      <trkpt lat="45.94124" lon="-0.95437">
        <ele>4.3</ele>
        <time>2022-06-21T10:58:59Z</time>
      </trkpt>
      <trkpt lat="45.94124" lon="-0.95437">
        <ele>4.3</ele>
        <time>2022-06-21T10:59:00Z</time>
      </trkpt>
      <trkpt lat="45.94124" lon="-0.95437">
        <ele>4.3</ele>
        <time>2022-06-21T10:59:01Z</time>
      </trkpt>
      <trkpt lat="45.94124" lon="-0.95437">
        <ele>4.3</ele>
        <time>2022-06-21T10:59:02Z</time>
      </trkpt>
      <trkpt lat="45.94124" lon="-0.95437">
        <ele>4.3</ele>
        <time>2022-06-21T10:59:03Z</time>
      </trkpt>
      <trkpt lat="45.94124" lon="-0.95437">
        <ele>4.3</ele>
        <time>2022-06-21T10:59:04Z</time>
      </trkpt>
      <trkpt lat="45.94124" lon="-0.95437">
        <ele>4.3</ele>
        <time>2022-06-21T10:59:05Z</time>
      </trkpt>
      <trkpt lat="45.94124" lon="-0.95437">
        <ele>4.3</ele>
        <time>2022-06-21T10:59:06Z</time>
      </trkpt>
      <trkpt lat="45.94124" lon="-0.95437">
        <ele>4.3</ele>
        <time>2022-06-21T10:59:07Z</time>
      </trkpt>
      <trkpt lat="45.94124" lon="-0.95437">
        <ele>4.3</ele>
        <time>2022-06-21T10:59:08Z</time>
      </trkpt>
      <trkpt lat="45.94124" lon="-0.95437">
        <ele>4.3</ele>
        <time>2022-06-21T10:59:09Z</time>
      </trkpt>
      <trkpt lat="45.94124" lon="-0.95437">
        <ele>4.3</ele>
        <time>2022-06-21T10:59:10Z</time>
      </trkpt>
      <trkpt lat="45.94124" lon="-0.95437">
        <ele>4.3</ele>
        <time>2022-06-21T10:59:11Z</time>
      </trkpt>
      <trkpt lat="45.94124" lon="-0.95437">
        <ele>4.3</ele>
        <time>2022-06-21T10:59:12Z</time>
      </trkpt>
      <trkpt lat="45.94124" lon="-0.95437">
        <ele>4.3</ele>
        <time>2022-06-21T10:59:13Z</time>
      </trkpt>
      <trkpt lat="45.94124" lon="-0.95437">
        <ele>4.3</ele>
        <time>2022-06-21T10:59:14Z</time>
      </trkpt>
      <trkpt lat="45.94124" lon="-0.95437">
        <ele>4.3</ele>
        <time>2022-06-21T10:59:15Z</time>
      </trkpt>
      <trkpt lat="45.94124" lon="-0.95437">
        <ele>4.3</ele>
        <time>2022-06-21T10:59:16Z</time>
      </trkpt>
      <trkpt lat="45.94124" lon="-0.95437">
        <ele>4.3</ele>
        <time>2022-06-21T10:59:17Z</time>
      </trkpt>
      <trkpt lat="45.94124" lon="-0.95437">
        <ele>4.3</ele>
        <time>2022-06-21T10:59:18Z</time>
      </trkpt>
      <trkpt lat="45.94124" lon="-0.95437">
        <ele>4.3</ele>
        <time>2022-06-21T10:59:19Z</time>
      </trkpt>
      <trkpt lat="45.94124" lon="-0.95437">
        <ele>4.3</ele>
        <time>2022-06-21T10:59:20Z</time>
      </trkpt>
      <trkpt lat="45.94124" lon="-0.95437">
        <ele>4.3</ele>
        <time>2022-06-21T10:59:21Z</time>
      </trkpt>
      <trkpt lat="45.94124" lon="-0.95437">
        <ele>4.3</ele>
        <time>2022-06-21T10:59:22Z</time>
      </trkpt>
      <trkpt lat="45.94124" lon="-0.95437">
        <ele>4.3</ele>
        <time>2022-06-21T10:59:23Z</time>
      </trkpt>
      <trkpt lat="45.94124" lon="-0.95437">
        <ele>4.3</ele>
        <time>2022-06-21T10:59:24Z</time>
      </trkpt>
      <trkpt lat="45.94124" lon="-0.95437">
        <ele>4.3</ele>
        <time>2022-06-21T10:59:25Z</time>
      </trkpt>
      <trkpt lat="45.94124" lon="-0.95437">
        <ele>4.3</ele>
        <time>2022-06-21T10:59:26Z</time>
      </trkpt>
      <trkpt lat="45.94124" lon="-0.95437">
        <ele>4.3</ele>
        <time>2022-06-21T10:59:27Z</time>
      </trkpt>
      <trkpt lat="45.94124" lon="-0.95437">
        <ele>4.3</ele>
        <time>2022-06-21T10:59:28Z</time>
      </trkpt>
      <trkpt lat="45.94124" lon="-0.95437">
        <ele>4.3</ele>
        <time>2022-06-21T10:59:29Z</time>
      </trkpt>
      <trkpt lat="45.94124" lon="-0.95437">
        <ele>4.3</ele>
        <time>2022-06-21T10:59:30Z</time>
      </trkpt>
      <trkpt lat="45.94124" lon="-0.95437">
        <ele>4.3</ele>
        <time>2022-06-21T10:59:31Z</time>
      </trkpt>
      <trkpt lat="45.94124" lon="-0.95437">
        <ele>4.3</ele>
        <time>2022-06-21T10:59:32Z</time>
      </trkpt>
      <trkpt lat="45.94124" lon="-0.95437">
        <ele>4.3</ele>
        <time>2022-06-21T10:59:33Z</time>
      </trkpt>
      <trkpt lat="45.94124" lon="-0.95437">
        <ele>4.3</ele>
        <time>2022-06-21T10:59:34Z</time>
      </trkpt>
      <trkpt lat="45.94124" lon="-0.95437">
        <ele>4.3</ele>
        <time>2022-06-21T10:59:35Z</time>
      </trkpt>
      <trkpt lat="45.94124" lon="-0.95437">
        <ele>4.3</ele>
        <time>2022-06-21T10:59:36Z</time>
      </trkpt>
      <trkpt lat="45.94124" lon="-0.95437">
        <ele>4.3</ele>
        <time>2022-06-21T10:59:37Z</time>
      </trkpt>
      <trkpt lat="45.94124" lon="-0.95437">
        <ele>4.3</ele>
        <time>2022-06-21T10:59:38Z</time>
      </trkpt>
      <trkpt lat="45.94124" lon="-0.95437">
        <ele>4.3</ele>
        <time>2022-06-21T10:59:39Z</time>
      </trkpt>
      <trkpt lat="45.94124" lon="-0.95437">
        <ele>4.3</ele>
        <time>2022-06-21T10:59:40Z</time>
      </trkpt>
      <trkpt lat="45.94124" lon="-0.95437">
        <ele>4.3</ele>
        <time>2022-06-21T10:59:41Z</time>
      </trkpt>
      <trkpt lat="45.94124" lon="-0.95437">
        <ele>4.3</ele>
        <time>2022-06-21T10:59:42Z</time>
      </trkpt>
      <trkpt lat="45.94124" lon="-0.95437">
        <ele>4.3</ele>
        <time>2022-06-21T10:59:43Z</time>
      </trkpt>
      <trkpt lat="45.94124" lon="-0.95437">
        <ele>4.3</ele>
        <time>2022-06-21T10:59:44Z</time>
      </trkpt>
      <trkpt lat="45.94124" lon="-0.95437">
        <ele>4.3</ele>
        <time>2022-06-21T10:59:45Z</time>
      </trkpt>
      <trkpt lat="45.94124" lon="-0.95437">
        <ele>4.3</ele>
        <time>2022-06-21T10:59:46Z</time>
      </trkpt>
      <trkpt lat="45.94124" lon="-0.95437">
        <ele>4.3</ele>
        <time>2022-06-21T10:59:47Z</time>
      </trkpt>
      <trkpt lat="45.94124" lon="-0.95437">
        <ele>4.3</ele>
        <time>2022-06-21T10:59:48Z</time>
      </trkpt>
      <trkpt lat="45.94124" lon="-0.95437">
        <ele>4.3</ele>
        <time>2022-06-21T10:59:49Z</time>
      </trkpt>
      <trkpt lat="45.94124" lon="-0.95437">
        <ele>4.3</ele>
        <time>2022-06-21T10:59:50Z</time>
      </trkpt>
      <trkpt lat="45.94124" lon="-0.95437">
        <ele>4.3</ele>
        <time>2022-06-21T10:59:51Z</time>
      </trkpt>
      <trkpt lat="45.94124" lon="-0.95437">
        <ele>4.3</ele>
        <time>2022-06-21T10:59:52Z</time>
      </trkpt>
      <trkpt lat="45.94124" lon="-0.95437">
        <ele>4.3</ele>
        <time>2022-06-21T10:59:53Z</time>
      </trkpt>
      <trkpt lat="45.94124" lon="-0.95437">
        <ele>4.3</ele>
        <time>2022-06-21T10:59:54Z</time>
      </trkpt>
      <trkpt lat="45.94124" lon="-0.95437">
        <ele>4.3</ele>
        <time>2022-06-21T10:59:55Z</time>
      </trkpt>
      <trkpt lat="45.94124" lon="-0.95437">
        <ele>4.3</ele>
        <time>2022-06-21T10:59:56Z</time>
      </trkpt>
      <trkpt lat="45.94124" lon="-0.95437">
        <ele>4.3</ele>
        <time>2022-06-21T10:59:57Z</time>
      </trkpt>
      <trkpt lat="45.94124" lon="-0.95437">
        <ele>4.3</ele>
        <time>2022-06-21T10:59:58Z</time>
      </trkpt>
      <trkpt lat="45.94124" lon="-0.95437">
        <ele>4.3</ele>
        <time>2022-06-21T10:59:59Z</time>
      </trkpt>
      <trkpt lat="45.94124" lon="-0.95437">
        <ele>4.3</ele>
        <time>2022-06-21T11:00:00Z</time>
      </trkpt>
      <trkpt lat="45.94124" lon="-0.95437">
        <ele>4.3</ele>
        <time>2022-06-21T11:00:01Z</time>
      </trkpt>
      <trkpt lat="45.94124" lon="-0.95437">
        <ele>4.3</ele>
        <time>2022-06-21T11:00:02Z</time>
      </trkpt>
      <trkpt lat="45.94124" lon="-0.95437">
        <ele>4.3</ele>
        <time>2022-06-21T11:00:03Z</time>
      </trkpt>
      <trkpt lat="45.94124" lon="-0.95437">
        <ele>4.3</ele>
        <time>2022-06-21T11:00:04Z</time>
      </trkpt>
      <trkpt lat="45.94124" lon="-0.95437">
        <ele>4.3</ele>
        <time>2022-06-21T11:00:05Z</time>
      </trkpt>
      <trkpt lat="45.94124" lon="-0.95437">
        <ele>4.3</ele>
        <time>2022-06-21T11:00:06Z</time>
      </trkpt>
      <trkpt lat="45.94124" lon="-0.95437">
        <ele>4.3</ele>
        <time>2022-06-21T11:00:07Z</time>
      </trkpt>
      <trkpt lat="45.94124" lon="-0.95437">
        <ele>4.3</ele>
        <time>2022-06-21T11:00:08Z</time>
      </trkpt>
      <trkpt lat="45.94124" lon="-0.95437">
        <ele>4.3</ele>
        <time>2022-06-21T11:00:09Z</time>
      </trkpt>
      <trkpt lat="45.94124" lon="-0.95437">
        <ele>4.3</ele>
        <time>2022-06-21T11:00:10Z</time>
      </trkpt>
      <trkpt lat="45.94124" lon="-0.95437">
        <ele>4.3</ele>
        <time>2022-06-21T11:00:11Z</time>
      </trkpt>
      <trkpt lat="45.94124" lon="-0.95437">
        <ele>4.3</ele>
        <time>2022-06-21T11:00:12Z</time>
      </trkpt>
      <trkpt lat="45.94124" lon="-0.95437">
        <ele>4.3</ele>
        <time>2022-06-21T11:00:13Z</time>
      </trkpt>
      <trkpt lat="45.94124" lon="-0.95437">
        <ele>4.3</ele>
        <time>2022-06-21T11:00:14Z</time>
      </trkpt>
      <trkpt lat="45.94124" lon="-0.95437">
        <ele>4.3</ele>
        <time>2022-06-21T11:00:15Z</time>
      </trkpt>
      <trkpt lat="45.94124" lon="-0.95437">
        <ele>4.3</ele>
        <time>2022-06-21T11:00:16Z</time>
      </trkpt>
      <trkpt lat="45.94124" lon="-0.95437">
        <ele>4.3</ele>
        <time>2022-06-21T11:00:17Z</time>
      </trkpt>
      <trkpt lat="45.94124" lon="-0.95437">
        <ele>4.3</ele>
        <time>2022-06-21T11:00:18Z</time>
      </trkpt>
      <trkpt lat="45.94124" lon="-0.95437">
        <ele>4.3</ele>
        <time>2022-06-21T11:00:19Z</time>
      </trkpt>
      <trkpt lat="45.94124" lon="-0.95437">
        <ele>4.3</ele>
        <time>2022-06-21T11:00:20Z</time>
      </trkpt>
      <trkpt lat="45.94124" lon="-0.95437">
        <ele>4.3</ele>
        <time>2022-06-21T11:00:21Z</time>
      </trkpt>
      <trkpt lat="45.94124" lon="-0.95437">
        <ele>4.3</ele>
        <time>2022-06-21T11:00:22Z</time>
      </trkpt>
      <trkpt lat="45.94124" lon="-0.95437">
        <ele>4.3</ele>
        <time>2022-06-21T11:00:23Z</time>
      </trkpt>
      <trkpt lat="45.94124" lon="-0.95437">
        <ele>4.3</ele>
        <time>2022-06-21T11:00:24Z</time>
      </trkpt>
      <trkpt lat="45.94124" lon="-0.95437">
        <ele>4.3</ele>
        <time>2022-06-21T11:00:25Z</time>
      </trkpt>
      <trkpt lat="45.94124" lon="-0.95437">
        <ele>4.3</ele>
        <time>2022-06-21T11:00:26Z</time>
      </trkpt>
      <trkpt lat="45.94124" lon="-0.95437">
        <ele>4.3</ele>
        <time>2022-06-21T11:00:27Z</time>
      </trkpt>
      <trkpt lat="45.94124" lon="-0.95437">
        <ele>4.3</ele>
        <time>2022-06-21T11:00:28Z</time>
      </trkpt>
      <trkpt lat="45.94124" lon="-0.95437">
        <ele>4.3</ele>
        <time>2022-06-21T11:00:29Z</time>
      </trkpt>
      <trkpt lat="45.94124" lon="-0.95437">
        <ele>4.3</ele>
        <time>2022-06-21T11:00:30Z</time>
      </trkpt>
      <trkpt lat="45.94124" lon="-0.95437">
        <ele>4.3</ele>
        <time>2022-06-21T11:00:31Z</time>
      </trkpt>
      <trkpt lat="45.94124" lon="-0.95437">
        <ele>4.3</ele>
        <time>2022-06-21T11:00:32Z</time>
      </trkpt>
      <trkpt lat="45.94124" lon="-0.95437">
        <ele>4.3</ele>
        <time>2022-06-21T11:00:33Z</time>
      </trkpt>
      <trkpt lat="45.94124" lon="-0.95437">
        <ele>4.3</ele>
        <time>2022-06-21T11:00:34Z</time>
      </trkpt>
      <trkpt lat="45.94124" lon="-0.95437">
        <ele>4.3</ele>
        <time>2022-06-21T11:00:35Z</time>
      </trkpt>
      <trkpt lat="45.94124" lon="-0.95437">
        <ele>4.3</ele>
        <time>2022-06-21T11:00:36Z</time>
      </trkpt>
      <trkpt lat="45.94124" lon="-0.95437">
        <ele>4.3</ele>
        <time>2022-06-21T11:00:37Z</time>
      </trkpt>
      <trkpt lat="45.94124" lon="-0.95437">
        <ele>4.3</ele>
        <time>2022-06-21T11:00:38Z</time>
      </trkpt>
      <trkpt lat="45.94124" lon="-0.95437">
        <ele>4.3</ele>
        <time>2022-06-21T11:00:39Z</time>
      </trkpt>
      <trkpt lat="45.94124" lon="-0.95437">
        <ele>4.3</ele>
        <time>2022-06-21T11:00:40Z</time>
      </trkpt>
      <trkpt lat="45.94124" lon="-0.95437">
        <ele>4.3</ele>
        <time>2022-06-21T11:00:41Z</time>
      </trkpt>
      <trkpt lat="45.94124" lon="-0.95437">
        <ele>4.3</ele>
        <time>2022-06-21T11:00:42Z</time>
      </trkpt>
      <trkpt lat="45.94124" lon="-0.95437">
        <ele>4.3</ele>
        <time>2022-06-21T11:00:43Z</time>
      </trkpt>
      <trkpt lat="45.94124" lon="-0.95437">
        <ele>4.3</ele>
        <time>2022-06-21T11:00:44Z</time>
      </trkpt>
      <trkpt lat="45.94124" lon="-0.95437">
        <ele>4.3</ele>
        <time>2022-06-21T11:00:45Z</time>
      </trkpt>
      <trkpt lat="45.94124" lon="-0.95437">
        <ele>4.3</ele>
        <time>2022-06-21T11:00:46Z</time>
      </trkpt>
      <trkpt lat="45.94124" lon="-0.95437">
        <ele>4.3</ele>
        <time>2022-06-21T11:00:47Z</time>
      </trkpt>
      <trkpt lat="45.94124" lon="-0.95437">
        <ele>4.3</ele>
        <time>2022-06-21T11:00:48Z</time>
      </trkpt>
      <trkpt lat="45.94124" lon="-0.95437">
        <ele>4.3</ele>
        <time>2022-06-21T11:00:49Z</time>
      </trkpt>
      <trkpt lat="45.94124" lon="-0.95437">
        <ele>4.3</ele>
        <time>2022-06-21T11:00:50Z</time>
      </trkpt>
      <trkpt lat="45.94124" lon="-0.95437">
        <ele>4.3</ele>
        <time>2022-06-21T11:00:51Z</time>
      </trkpt>
      <trkpt lat="45.94124" lon="-0.95437">
        <ele>4.3</ele>
        <time>2022-06-21T11:00:52Z</time>
      </trkpt>
      <trkpt lat="45.94124" lon="-0.95437">
        <ele>4.3</ele>
        <time>2022-06-21T11:00:53Z</time>
      </trkpt>
      <trkpt lat="45.94124" lon="-0.95437">
        <ele>4.3</ele>
        <time>2022-06-21T11:00:54Z</time>
      </trkpt>
      <trkpt lat="45.94124" lon="-0.95437">
        <ele>4.3</ele>
        <time>2022-06-21T11:00:55Z</time>
      </trkpt>
      <trkpt lat="45.94124" lon="-0.95437">
        <ele>4.3</ele>
        <time>2022-06-21T11:00:56Z</time>
      </trkpt>
      <trkpt lat="45.94124" lon="-0.95437">
        <ele>4.3</ele>
        <time>2022-06-21T11:00:57Z</time>
      </trkpt>
      <trkpt lat="45.94124" lon="-0.95437">
        <ele>4.3</ele>
        <time>2022-06-21T11:00:58Z</time>
      </trkpt>
      <trkpt lat="45.94124" lon="-0.95437">
        <ele>4.3</ele>
        <time>2022-06-21T11:00:59Z</time>
      </trkpt>
      <trkpt lat="45.94124" lon="-0.95437">
        <ele>4.3</ele>
        <time>2022-06-21T11:01:00Z</time>
      </trkpt>
      <trkpt lat="45.94124" lon="-0.95437">
        <ele>4.3</ele>
        <time>2022-06-21T11:01:01Z</time>
      </trkpt>
      <trkpt lat="45.94124" lon="-0.95437">
        <ele>4.3</ele>
        <time>2022-06-21T11:01:02Z</time>
      </trkpt>
      <trkpt lat="45.94124" lon="-0.95437">
        <ele>4.3</ele>
        <time>2022-06-21T11:01:03Z</time>
      </trkpt>
      <trkpt lat="45.94124" lon="-0.95437">
        <ele>4.3</ele>
        <time>2022-06-21T11:01:04Z</time>
      </trkpt>
      <trkpt lat="45.94124" lon="-0.95437">
        <ele>4.3</ele>
        <time>2022-06-21T11:01:05Z</time>
      </trkpt>
      <trkpt lat="45.94124" lon="-0.95437">
        <ele>4.3</ele>
        <time>2022-06-21T11:01:06Z</time>
      </trkpt>
      <trkpt lat="45.94124" lon="-0.95437">
        <ele>4.3</ele>
        <time>2022-06-21T11:01:07Z</time>
      </trkpt>
      <trkpt lat="45.94124" lon="-0.95437">
        <ele>4.3</ele>
        <time>2022-06-21T11:01:08Z</time>
      </trkpt>
      <trkpt lat="45.94124" lon="-0.95437">
        <ele>4.3</ele>
        <time>2022-06-21T11:01:09Z</time>
      </trkpt>
      <trkpt lat="45.94124" lon="-0.95437">
        <ele>4.3</ele>
        <time>2022-06-21T11:01:10Z</time>
      </trkpt>
      <trkpt lat="45.94124" lon="-0.95437">
        <ele>4.3</ele>
        <time>2022-06-21T11:01:11Z</time>
      </trkpt>
      <trkpt lat="45.94124" lon="-0.95437">
        <ele>4.3</ele>
        <time>2022-06-21T11:01:12Z</time>
      </trkpt>
      <trkpt lat="45.94124" lon="-0.95437">
        <ele>4.3</ele>
        <time>2022-06-21T11:01:13Z</time>
      </trkpt>
      <trkpt lat="45.94124" lon="-0.95437">
        <ele>4.3</ele>
        <time>2022-06-21T11:01:14Z</time>
      </trkpt>
      <trkpt lat="45.94124" lon="-0.95437">
        <ele>4.3</ele>
        <time>2022-06-21T11:01:15Z</time>
      </trkpt>
      <trkpt lat="45.94124" lon="-0.95437">
        <ele>4.3</ele>
        <time>2022-06-21T11:01:16Z</time>
      </trkpt>
      <trkpt lat="45.94124" lon="-0.95437">
        <ele>4.3</ele>
        <time>2022-06-21T11:01:17Z</time>
      </trkpt>
      <trkpt lat="45.94124" lon="-0.95437">
        <ele>4.3</ele>
        <time>2022-06-21T11:01:18Z</time>
      </trkpt>
      <trkpt lat="45.94124" lon="-0.95437">
        <ele>4.3</ele>
        <time>2022-06-21T11:01:19Z</time>
      </trkpt>
      <trkpt lat="45.94124" lon="-0.95437">
        <ele>4.3</ele>
        <time>2022-06-21T11:01:20Z</time>
      </trkpt>
      <trkpt lat="45.94124" lon="-0.95437">
        <ele>4.3</ele>
        <time>2022-06-21T11:01:21Z</time>
      </trkpt>
      <trkpt lat="45.94124" lon="-0.95437">
        <ele>4.3</ele>
        <time>2022-06-21T11:01:22Z</time>
      </trkpt>
      <trkpt lat="45.94124" lon="-0.95437">
        <ele>4.3</ele>
        <time>2022-06-21T11:01:23Z</time>
      </trkpt>
      <trkpt lat="45.94124" lon="-0.95437">
        <ele>4.3</ele>
        <time>2022-06-21T11:01:24Z</time>
      </trkpt>
      <trkpt lat="45.94124" lon="-0.95437">
        <ele>4.3</ele>
        <time>2022-06-21T11:01:25Z</time>
      </trkpt>
      <trkpt lat="45.94124" lon="-0.95437">
        <ele>4.3</ele>
        <time>2022-06-21T11:01:26Z</time>
      </trkpt>
      <trkpt lat="45.94124" lon="-0.95437">
        <ele>4.3</ele>
        <time>2022-06-21T11:01:27Z</time>
      </trkpt>
      <trkpt lat="45.94124" lon="-0.95437">
        <ele>4.3</ele>
        <time>2022-06-21T11:01:28Z</time>
      </trkpt>
      <trkpt lat="45.94124" lon="-0.95437">
        <ele>4.3</ele>
        <time>2022-06-21T11:01:29Z</time>
      </trkpt>
      <trkpt lat="45.94124" lon="-0.95437">
        <ele>4.3</ele>
        <time>2022-06-21T11:01:30Z</time>
      </trkpt>
      <trkpt lat="45.94124" lon="-0.95437">
        <ele>4.3</ele>
        <time>2022-06-21T11:01:31Z</time>
      </trkpt>
      <trkpt lat="45.94124" lon="-0.95437">
        <ele>4.3</ele>
        <time>2022-06-21T11:01:32Z</time>
      </trkpt>
      <trkpt lat="45.94124" lon="-0.95437">
        <ele>4.3</ele>
        <time>2022-06-21T11:01:33Z</time>
      </trkpt>
      <trkpt lat="45.94124" lon="-0.95437">
        <ele>4.3</ele>
        <time>2022-06-21T11:01:34Z</time>
      </trkpt>
      <trkpt lat="45.94124" lon="-0.95437">
        <ele>4.3</ele>
        <time>2022-06-21T11:01:35Z</time>
      </trkpt>
      <trkpt lat="45.94124" lon="-0.95437">
        <ele>4.3</ele>
        <time>2022-06-21T11:01:36Z</time>
      </trkpt>
      <trkpt lat="45.94124" lon="-0.95437">
        <ele>4.3</ele>
        <time>2022-06-21T11:01:37Z</time>
      </trkpt>
      <trkpt lat="45.94124" lon="-0.95437">
        <ele>4.3</ele>
        <time>2022-06-21T11:01:38Z</time>
      </trkpt>
      <trkpt lat="45.94124" lon="-0.95437">
        <ele>4.3</ele>
        <time>2022-06-21T11:01:39Z</time>
      </trkpt>
      <trkpt lat="45.94124" lon="-0.95437">
        <ele>4.3</ele>
        <time>2022-06-21T11:01:40Z</time>
      </trkpt>
      <trkpt lat="45.94124" lon="-0.95437">
        <ele>4.3</ele>
        <time>2022-06-21T11:01:41Z</time>
      </trkpt>
      <trkpt lat="45.94124" lon="-0.95437">
        <ele>4.3</ele>
        <time>2022-06-21T11:01:42Z</time>
      </trkpt>
      <trkpt lat="45.94124" lon="-0.95437">
        <ele>4.3</ele>
        <time>2022-06-21T11:01:43Z</time>
      </trkpt>
      <trkpt lat="45.94124" lon="-0.95437">
        <ele>4.3</ele>
        <time>2022-06-21T11:01:44Z</time>
      </trkpt>
      <trkpt lat="45.94124" lon="-0.95437">
        <ele>4.3</ele>
        <time>2022-06-21T11:01:45Z</time>
      </trkpt>
      <trkpt lat="45.94124" lon="-0.95437">
        <ele>4.3</ele>
        <time>2022-06-21T11:01:46Z</time>
      </trkpt>
      <trkpt lat="45.94124" lon="-0.95437">
        <ele>4.3</ele>
        <time>2022-06-21T11:01:47Z</time>
      </trkpt>
      <trkpt lat="45.94124" lon="-0.95437">
        <ele>4.3</ele>
        <time>2022-06-21T11:01:48Z</time>
      </trkpt>
      <trkpt lat="45.94124" lon="-0.95437">
        <ele>4.3</ele>
        <time>2022-06-21T11:01:49Z</time>
      </trkpt>
      <trkpt lat="45.94124" lon="-0.95437">
        <ele>4.3</ele>
        <time>2022-06-21T11:01:50Z</time>
      </trkpt>
      <trkpt lat="45.94124" lon="-0.95437">
        <ele>4.3</ele>
        <time>2022-06-21T11:01:51Z</time>
      </trkpt>
      <trkpt lat="45.94124" lon="-0.95437">
        <ele>4.3</ele>
        <time>2022-06-21T11:01:52Z</time>
      </trkpt>
      <trkpt lat="45.94124" lon="-0.95437">
        <ele>4.3</ele>
        <time>2022-06-21T11:01:53Z</time>
      </trkpt>
      <trkpt lat="45.94124" lon="-0.95437">
        <ele>4.3</ele>
        <time>2022-06-21T11:01:54Z</time>
      </trkpt>
      <trkpt lat="45.94124" lon="-0.95437">
        <ele>4.3</ele>
        <time>2022-06-21T11:01:55Z</time>
      </trkpt>
      <trkpt lat="45.94124" lon="-0.95437">
        <ele>4.3</ele>
        <time>2022-06-21T11:01:56Z</time>
      </trkpt>
      <trkpt lat="45.94124" lon="-0.95437">
        <ele>4.3</ele>
        <time>2022-06-21T11:01:57Z</time>
      </trkpt>
      <trkpt lat="45.94124" lon="-0.95437">
        <ele>4.3</ele>
        <time>2022-06-21T11:01:58Z</time>
      </trkpt>
      <trkpt lat="45.94124" lon="-0.95437">
        <ele>4.3</ele>
        <time>2022-06-21T11:01:59Z</time>
      </trkpt>
      <trkpt lat="45.94124" lon="-0.95437">
        <ele>4.3</ele>
        <time>2022-06-21T11:02:00Z</time>
      </trkpt>
      <trkpt lat="45.94124" lon="-0.95437">
        <ele>4.3</ele>
        <time>2022-06-21T11:02:01Z</time>
      </trkpt>
      <trkpt lat="45.94124" lon="-0.95437">
        <ele>4.3</ele>
        <time>2022-06-21T11:02:02Z</time>
      </trkpt>
      <trkpt lat="45.94124" lon="-0.95437">
        <ele>4.3</ele>
        <time>2022-06-21T11:02:03Z</time>
      </trkpt>
      <trkpt lat="45.94124" lon="-0.95437">
        <ele>4.3</ele>
        <time>2022-06-21T11:02:04Z</time>
      </trkpt>
      <trkpt lat="45.94124" lon="-0.95437">
        <ele>4.3</ele>
        <time>2022-06-21T11:02:05Z</time>
      </trkpt>
      <trkpt lat="45.94124" lon="-0.95437">
        <ele>4.3</ele>
        <time>2022-06-21T11:02:06Z</time>
      </trkpt>
      <trkpt lat="45.94124" lon="-0.95437">
        <ele>4.3</ele>
        <time>2022-06-21T11:02:07Z</time>
      </trkpt>
      <trkpt lat="45.94124" lon="-0.95437">
        <ele>4.3</ele>
        <time>2022-06-21T11:02:08Z</time>
      </trkpt>
      <trkpt lat="45.94124" lon="-0.95437">
        <ele>4.3</ele>
        <time>2022-06-21T11:02:09Z</time>
      </trkpt>
      <trkpt lat="45.94124" lon="-0.95437">
        <ele>4.3</ele>
        <time>2022-06-21T11:02:10Z</time>
      </trkpt>
      <trkpt lat="45.94124" lon="-0.95437">
        <ele>4.3</ele>
        <time>2022-06-21T11:02:11Z</time>
      </trkpt>
      <trkpt lat="45.94124" lon="-0.95437">
        <ele>4.3</ele>
        <time>2022-06-21T11:02:12Z</time>
      </trkpt>
      <trkpt lat="45.94124" lon="-0.95437">
        <ele>4.3</ele>
        <time>2022-06-21T11:02:13Z</time>
      </trkpt>
      <trkpt lat="45.94124" lon="-0.95437">
        <ele>4.3</ele>
        <time>2022-06-21T11:02:14Z</time>
      </trkpt>
      <trkpt lat="45.94124" lon="-0.95437">
        <ele>4.3</ele>
        <time>2022-06-21T11:02:15Z</time>
      </trkpt>
      <trkpt lat="45.94124" lon="-0.95437">
        <ele>4.3</ele>
        <time>2022-06-21T11:02:16Z</time>
      </trkpt>
      <trkpt lat="45.94124" lon="-0.95437">
        <ele>4.3</ele>
        <time>2022-06-21T11:02:17Z</time>
      </trkpt>
      <trkpt lat="45.94124" lon="-0.95437">
        <ele>4.3</ele>
        <time>2022-06-21T11:02:18Z</time>
      </trkpt>
      <trkpt lat="45.94124" lon="-0.95437">
        <ele>4.3</ele>
        <time>2022-06-21T11:02:19Z</time>
      </trkpt>
      <trkpt lat="45.94124" lon="-0.95437">
        <ele>4.3</ele>
        <time>2022-06-21T11:02:20Z</time>
      </trkpt>
      <trkpt lat="45.94124" lon="-0.95437">
        <ele>4.3</ele>
        <time>2022-06-21T11:02:21Z</time>
      </trkpt>
      <trkpt lat="45.94124" lon="-0.95437">
        <ele>4.3</ele>
        <time>2022-06-21T11:02:22Z</time>
      </trkpt>
      <trkpt lat="45.94124" lon="-0.95437">
        <ele>4.3</ele>
        <time>2022-06-21T11:02:23Z</time>
      </trkpt>
      <trkpt lat="45.94124" lon="-0.95437">
        <ele>4.3</ele>
        <time>2022-06-21T11:02:24Z</time>
      </trkpt>
      <trkpt lat="45.94124" lon="-0.95437">
        <ele>4.3</ele>
        <time>2022-06-21T11:02:25Z</time>
      </trkpt>
      <trkpt lat="45.94124" lon="-0.95437">
        <ele>4.3</ele>
        <time>2022-06-21T11:02:26Z</time>
      </trkpt>
      <trkpt lat="45.94124" lon="-0.95437">
        <ele>4.3</ele>
        <time>2022-06-21T11:02:27Z</time>
      </trkpt>
      <trkpt lat="45.94124" lon="-0.95437">
        <ele>4.3</ele>
        <time>2022-06-21T11:02:28Z</time>
      </trkpt>
      <trkpt lat="45.94124" lon="-0.95437">
        <ele>4.3</ele>
        <time>2022-06-21T11:02:29Z</time>
      </trkpt>
      <trkpt lat="45.94124" lon="-0.95437">
        <ele>4.3</ele>
        <time>2022-06-21T11:02:30Z</time>
      </trkpt>
      <trkpt lat="45.94124" lon="-0.95437">
        <ele>4.3</ele>
        <time>2022-06-21T11:02:31Z</time>
      </trkpt>
      <trkpt lat="45.94124" lon="-0.95437">
        <ele>4.3</ele>
        <time>2022-06-21T11:02:32Z</time>
      </trkpt>
      <trkpt lat="45.94124" lon="-0.95437">
        <ele>4.3</ele>
        <time>2022-06-21T11:02:33Z</time>
      </trkpt>
      <trkpt lat="45.94124" lon="-0.95437">
        <ele>4.3</ele>
        <time>2022-06-21T11:02:34Z</time>
      </trkpt>
      <trkpt lat="45.94124" lon="-0.95437">
        <ele>4.3</ele>
        <time>2022-06-21T11:02:35Z</time>
      </trkpt>
      <trkpt lat="45.94124" lon="-0.95437">
        <ele>4.3</ele>
        <time>2022-06-21T11:02:36Z</time>
      </trkpt>
      <trkpt lat="45.94124" lon="-0.95437">
        <ele>4.3</ele>
        <time>2022-06-21T11:02:37Z</time>
      </trkpt>
      <trkpt lat="45.94124" lon="-0.95437">
        <ele>4.3</ele>
        <time>2022-06-21T11:02:38Z</time>
      </trkpt>
      <trkpt lat="45.94124" lon="-0.95437">
        <ele>4.3</ele>
        <time>2022-06-21T11:02:39Z</time>
      </trkpt>
      <trkpt lat="45.94124" lon="-0.95437">
        <ele>4.3</ele>
        <time>2022-06-21T11:02:40Z</time>
      </trkpt>
      <trkpt lat="45.94124" lon="-0.95437">
        <ele>4.3</ele>
        <time>2022-06-21T11:02:41Z</time>
      </trkpt>
      <trkpt lat="45.94124" lon="-0.95437">
        <ele>4.3</ele>
        <time>2022-06-21T11:02:42Z</time>
      </trkpt>
      <trkpt lat="45.94124" lon="-0.95437">
        <ele>4.3</ele>
        <time>2022-06-21T11:02:43Z</time>
      </trkpt>
      <trkpt lat="45.94124" lon="-0.95437">
        <ele>4.3</ele>
        <time>2022-06-21T11:02:44Z</time>
      </trkpt>
      <trkpt lat="45.94124" lon="-0.95437">
        <ele>4.3</ele>
        <time>2022-06-21T11:02:45Z</time>
      </trkpt>
      <trkpt lat="45.94124" lon="-0.95437">
        <ele>4.3</ele>
        <time>2022-06-21T11:02:46Z</time>
      </trkpt>
      <trkpt lat="45.94124" lon="-0.95437">
        <ele>4.3</ele>
        <time>2022-06-21T11:02:47Z</time>
      </trkpt>
      <trkpt lat="45.94124" lon="-0.95437">
        <ele>4.3</ele>
        <time>2022-06-21T11:02:48Z</time>
      </trkpt>
      <trkpt lat="45.94124" lon="-0.95437">
        <ele>4.3</ele>
        <time>2022-06-21T11:02:49Z</time>
      </trkpt>
      <trkpt lat="45.94124" lon="-0.95437">
        <ele>4.3</ele>
        <time>2022-06-21T11:02:50Z</time>
      </trkpt>
      <trkpt lat="45.94124" lon="-0.95437">
        <ele>4.3</ele>
        <time>2022-06-21T11:02:51Z</time>
      </trkpt>
      <trkpt lat="45.94124" lon="-0.95437">
        <ele>4.3</ele>
        <time>2022-06-21T11:02:52Z</time>
      </trkpt>
      <trkpt lat="45.94124" lon="-0.95437">
        <ele>4.3</ele>
        <time>2022-06-21T11:02:53Z</time>
      </trkpt>
      <trkpt lat="45.94124" lon="-0.95437">
        <ele>4.3</ele>
        <time>2022-06-21T11:02:54Z</time>
      </trkpt>
      <trkpt lat="45.94124" lon="-0.95437">
        <ele>4.3</ele>
        <time>2022-06-21T11:02:55Z</time>
      </trkpt>
      <trkpt lat="45.94124" lon="-0.95437">
        <ele>4.3</ele>
        <time>2022-06-21T11:02:56Z</time>
      </trkpt>
      <trkpt lat="45.94124" lon="-0.95437">
        <ele>4.3</ele>
        <time>2022-06-21T11:02:57Z</time>
      </trkpt>
      <trkpt lat="45.94124" lon="-0.95437">
        <ele>4.3</ele>
        <time>2022-06-21T11:02:58Z</time>
      </trkpt>
      <trkpt lat="45.94124" lon="-0.95437">
        <ele>4.3</ele>
        <time>2022-06-21T11:02:59Z</time>
      </trkpt>
      <trkpt lat="45.94124" lon="-0.95437">
        <ele>4.3</ele>
        <time>2022-06-21T11:03:00Z</time>
      </trkpt>
      <trkpt lat="45.94124" lon="-0.95437">
        <ele>4.3</ele>
        <time>2022-06-21T11:03:01Z</time>
      </trkpt>
      <trkpt lat="45.94124" lon="-0.95437">
        <ele>4.3</ele>
        <time>2022-06-21T11:03:02Z</time>
      </trkpt>
      <trkpt lat="45.94124" lon="-0.95437">
        <ele>4.3</ele>
        <time>2022-06-21T11:03:03Z</time>
      </trkpt>
      <trkpt lat="45.94124" lon="-0.95437">
        <ele>4.3</ele>
        <time>2022-06-21T11:03:04Z</time>
      </trkpt>
      <trkpt lat="45.94124" lon="-0.95437">
        <ele>4.3</ele>
        <time>2022-06-21T11:03:05Z</time>
      </trkpt>
      <trkpt lat="45.94124" lon="-0.95437">
        <ele>4.3</ele>
        <time>2022-06-21T11:03:06Z</time>
      </trkpt>
      <trkpt lat="45.94124" lon="-0.95437">
        <ele>4.3</ele>
        <time>2022-06-21T11:03:07Z</time>
      </trkpt>
      <trkpt lat="45.94124" lon="-0.95437">
        <ele>4.3</ele>
        <time>2022-06-21T11:03:08Z</time>
      </trkpt>
      <trkpt lat="45.94124" lon="-0.95437">
        <ele>4.3</ele>
        <time>2022-06-21T11:03:09Z</time>
      </trkpt>
      <trkpt lat="45.94124" lon="-0.95437">
        <ele>4.3</ele>
        <time>2022-06-21T11:03:10Z</time>
      </trkpt>
      <trkpt lat="45.94124" lon="-0.95437">
        <ele>4.3</ele>
        <time>2022-06-21T11:03:11Z</time>
      </trkpt>
      <trkpt lat="45.94124" lon="-0.95437">
        <ele>4.3</ele>
        <time>2022-06-21T11:03:12Z</time>
      </trkpt>
      <trkpt lat="45.94124" lon="-0.95437">
        <ele>4.3</ele>
        <time>2022-06-21T11:03:13Z</time>
      </trkpt>
      <trkpt lat="45.94124" lon="-0.95437">
        <ele>4.3</ele>
        <time>2022-06-21T11:03:14Z</time>
      </trkpt>
      <trkpt lat="45.94124" lon="-0.95437">
        <ele>4.3</ele>
        <time>2022-06-21T11:03:15Z</time>
      </trkpt>
      <trkpt lat="45.94124" lon="-0.95437">
        <ele>4.3</ele>
        <time>2022-06-21T11:03:16Z</time>
      </trkpt>
      <trkpt lat="45.94124" lon="-0.95437">
        <ele>4.3</ele>
        <time>2022-06-21T11:03:17Z</time>
      </trkpt>
      <trkpt lat="45.94124" lon="-0.95437">
        <ele>4.3</ele>
        <time>2022-06-21T11:03:18Z</time>
      </trkpt>
      <trkpt lat="45.94124" lon="-0.95437">
        <ele>4.3</ele>
        <time>2022-06-21T11:03:19Z</time>
      </trkpt>
      <trkpt lat="45.94124" lon="-0.95437">
        <ele>4.3</ele>
        <time>2022-06-21T11:03:20Z</time>
      </trkpt>
      <trkpt lat="45.94124" lon="-0.95437">
        <ele>4.3</ele>
        <time>2022-06-21T11:03:21Z</time>
      </trkpt>
      <trkpt lat="45.94124" lon="-0.95437">
        <ele>4.3</ele>
        <time>2022-06-21T11:03:22Z</time>
      </trkpt>
      <trkpt lat="45.94124" lon="-0.95437">
        <ele>4.3</ele>
        <time>2022-06-21T11:03:23Z</time>
      </trkpt>
      <trkpt lat="45.94124" lon="-0.95437">
        <ele>4.3</ele>
        <time>2022-06-21T11:03:24Z</time>
      </trkpt>
      <trkpt lat="45.94124" lon="-0.95437">
        <ele>4.3</ele>
        <time>2022-06-21T11:03:25Z</time>
      </trkpt>
      <trkpt lat="45.94124" lon="-0.95437">
        <ele>4.3</ele>
        <time>2022-06-21T11:03:26Z</time>
      </trkpt>
      <trkpt lat="45.94124" lon="-0.95437">
        <ele>4.3</ele>
        <time>2022-06-21T11:03:27Z</time>
      </trkpt>
      <trkpt lat="45.94124" lon="-0.95437">
        <ele>4.3</ele>
        <time>2022-06-21T11:03:28Z</time>
      </trkpt>
      <trkpt lat="45.94124" lon="-0.95437">
        <ele>4.3</ele>
        <time>2022-06-21T11:03:29Z</time>
      </trkpt>
      <trkpt lat="45.94124" lon="-0.95437">
        <ele>4.3</ele>
        <time>2022-06-21T11:03:30Z</time>
      </trkpt>
      <trkpt lat="45.94124" lon="-0.95437">
        <ele>4.3</ele>
        <time>2022-06-21T11:03:31Z</time>
      </trkpt>
      <trkpt lat="45.94124" lon="-0.95437">
        <ele>4.3</ele>
        <time>2022-06-21T11:03:32Z</time>
      </trkpt>
      <trkpt lat="45.94124" lon="-0.95437">
        <ele>4.3</ele>
        <time>2022-06-21T11:03:33Z</time>
      </trkpt>
      <trkpt lat="45.94124" lon="-0.95437">
        <ele>4.3</ele>
        <time>2022-06-21T11:03:34Z</time>
      </trkpt>
      <trkpt lat="45.94124" lon="-0.95437">
        <ele>4.3</ele>
        <time>2022-06-21T11:03:35Z</time>
      </trkpt>
      <trkpt lat="45.94124" lon="-0.95437">
        <ele>4.3</ele>
        <time>2022-06-21T11:03:36Z</time>
      </trkpt>
      <trkpt lat="45.94124" lon="-0.95437">
        <ele>4.3</ele>
        <time>2022-06-21T11:03:37Z</time>
      </trkpt>
      <trkpt lat="45.94124" lon="-0.95437">
        <ele>4.3</ele>
        <time>2022-06-21T11:03:38Z</time>
      </trkpt>
      <trkpt lat="45.94124" lon="-0.95437">
        <ele>4.3</ele>
        <time>2022-06-21T11:03:39Z</time>
      </trkpt>
      <trkpt lat="45.94124" lon="-0.95437">
        <ele>4.3</ele>
        <time>2022-06-21T11:03:40Z</time>
      </trkpt>
      <trkpt lat="45.94124" lon="-0.95437">
        <ele>4.3</ele>
        <time>2022-06-21T11:03:41Z</time>
      </trkpt>
      <trkpt lat="45.94124" lon="-0.95437">
        <ele>4.3</ele>
        <time>2022-06-21T11:03:42Z</time>
      </trkpt>
      <trkpt lat="45.94124" lon="-0.95437">
        <ele>4.3</ele>
        <time>2022-06-21T11:03:43Z</time>
      </trkpt>
      <trkpt lat="45.94124" lon="-0.95437">
        <ele>4.3</ele>
        <time>2022-06-21T11:03:44Z</time>
      </trkpt>
      <trkpt lat="45.94124" lon="-0.95437">
        <ele>4.3</ele>
        <time>2022-06-21T11:03:45Z</time>
      </trkpt>
      <trkpt lat="45.94124" lon="-0.95437">
        <ele>4.3</ele>
        <time>2022-06-21T11:03:46Z</time>
      </trkpt>
      <trkpt lat="45.94124" lon="-0.95437">
        <ele>4.3</ele>
        <time>2022-06-21T11:03:47Z</time>
      </trkpt>
      <trkpt lat="45.94124" lon="-0.95437">
        <ele>4.3</ele>
        <time>2022-06-21T11:03:48Z</time>
      </trkpt>
      <trkpt lat="45.94124" lon="-0.95437">
        <ele>4.3</ele>
        <time>2022-06-21T11:03:49Z</time>
      </trkpt>
      <trkpt lat="45.94124" lon="-0.95437">
        <ele>4.3</ele>
        <time>2022-06-21T11:03:50Z</time>
      </trkpt>
      <trkpt lat="45.94124" lon="-0.95437">
        <ele>4.3</ele>
        <time>2022-06-21T11:03:51Z</time>
      </trkpt>
      <trkpt lat="45.94124" lon="-0.95437">
        <ele>4.3</ele>
        <time>2022-06-21T11:03:52Z</time>
      </trkpt>
      <trkpt lat="45.94124" lon="-0.95437">
        <ele>4.3</ele>
        <time>2022-06-21T11:03:53Z</time>
      </trkpt>
      <trkpt lat="45.94124" lon="-0.95437">
        <ele>4.3</ele>
        <time>2022-06-21T11:03:54Z</time>
      </trkpt>
      <trkpt lat="45.94124" lon="-0.95437">
        <ele>4.3</ele>
        <time>2022-06-21T11:03:55Z</time>
      </trkpt>
      <trkpt lat="45.94124" lon="-0.95437">
        <ele>4.3</ele>
        <time>2022-06-21T11:03:56Z</time>
      </trkpt>
      <trkpt lat="45.94124" lon="-0.95437">
        <ele>4.3</ele>
        <time>2022-06-21T11:03:57Z</time>
      </trkpt>
      <trkpt lat="45.94124" lon="-0.95437">
        <ele>4.3</ele>
        <time>2022-06-21T11:03:58Z</time>
      </trkpt>
      <trkpt lat="45.94124" lon="-0.95437">
        <ele>4.3</ele>
        <time>2022-06-21T11:03:59Z</time>
      </trkpt>
      <trkpt lat="45.94124" lon="-0.95437">
        <ele>4.3</ele>
        <time>2022-06-21T11:04:00Z</time>
      </trkpt>
      <trkpt lat="45.94124" lon="-0.95437">
        <ele>4.3</ele>
        <time>2022-06-21T11:04:01Z</time>
      </trkpt>
      <trkpt lat="45.94124" lon="-0.95437">
        <ele>4.3</ele>
        <time>2022-06-21T11:04:02Z</time>
      </trkpt>
      <trkpt lat="45.94124" lon="-0.95437">
        <ele>4.3</ele>
        <time>2022-06-21T11:04:03Z</time>
      </trkpt>
      <trkpt lat="45.94124" lon="-0.95437">
        <ele>4.3</ele>
        <time>2022-06-21T11:04:04Z</time>
      </trkpt>
      <trkpt lat="45.94124" lon="-0.95437">
        <ele>4.3</ele>
        <time>2022-06-21T11:04:05Z</time>
      </trkpt>
      <trkpt lat="45.94124" lon="-0.95437">
        <ele>4.3</ele>
        <time>2022-06-21T11:04:06Z</time>
      </trkpt>
      <trkpt lat="45.94124" lon="-0.95437">
        <ele>4.3</ele>
        <time>2022-06-21T11:04:07Z</time>
      </trkpt>
      <trkpt lat="45.94124" lon="-0.95437">
        <ele>4.3</ele>
        <time>2022-06-21T11:04:08Z</time>
      </trkpt>
      <trkpt lat="45.94124" lon="-0.95437">
        <ele>4.3</ele>
        <time>2022-06-21T11:04:09Z</time>
      </trkpt>
      <trkpt lat="45.94124" lon="-0.95437">
        <ele>4.3</ele>
        <time>2022-06-21T11:04:10Z</time>
      </trkpt>
      <trkpt lat="45.94124" lon="-0.95437">
        <ele>4.3</ele>
        <time>2022-06-21T11:04:11Z</time>
      </trkpt>
      <trkpt lat="45.94124" lon="-0.95437">
        <ele>4.3</ele>
        <time>2022-06-21T11:04:12Z</time>
      </trkpt>
      <trkpt lat="45.94124" lon="-0.95437">
        <ele>4.3</ele>
        <time>2022-06-21T11:04:13Z</time>
      </trkpt>
      <trkpt lat="45.94124" lon="-0.95437">
        <ele>4.3</ele>
        <time>2022-06-21T11:04:14Z</time>
      </trkpt>
      <trkpt lat="45.94124" lon="-0.95437">
        <ele>4.3</ele>
        <time>2022-06-21T11:04:15Z</time>
      </trkpt>
      <trkpt lat="45.94124" lon="-0.95437">
        <ele>4.3</ele>
        <time>2022-06-21T11:04:16Z</time>
      </trkpt>
      <trkpt lat="45.94124" lon="-0.95437">
        <ele>4.3</ele>
        <time>2022-06-21T11:04:17Z</time>
      </trkpt>
      <trkpt lat="45.94124" lon="-0.95437">
        <ele>4.3</ele>
        <time>2022-06-21T11:04:18Z</time>
      </trkpt>
      <trkpt lat="45.94124" lon="-0.95437">
        <ele>4.3</ele>
        <time>2022-06-21T11:04:19Z</time>
      </trkpt>
      <trkpt lat="45.94124" lon="-0.95437">
        <ele>4.3</ele>
        <time>2022-06-21T11:04:20Z</time>
      </trkpt>
      <trkpt lat="45.94124" lon="-0.95437">
        <ele>4.3</ele>
        <time>2022-06-21T11:04:21Z</time>
      </trkpt>
      <trkpt lat="45.94124" lon="-0.95437">
        <ele>4.3</ele>
        <time>2022-06-21T11:04:22Z</time>
      </trkpt>
      <trkpt lat="45.94124" lon="-0.95437">
        <ele>4.3</ele>
        <time>2022-06-21T11:04:23Z</time>
      </trkpt>
      <trkpt lat="45.94124" lon="-0.95437">
        <ele>4.3</ele>
        <time>2022-06-21T11:04:24Z</time>
      </trkpt>
      <trkpt lat="45.94124" lon="-0.95437">
        <ele>4.3</ele>
        <time>2022-06-21T11:04:25Z</time>
      </trkpt>
      <trkpt lat="45.94124" lon="-0.95437">
        <ele>4.3</ele>
        <time>2022-06-21T11:04:26Z</time>
      </trkpt>
      <trkpt lat="45.94124" lon="-0.95437">
        <ele>4.3</ele>
        <time>2022-06-21T11:04:27Z</time>
      </trkpt>
      <trkpt lat="45.94124" lon="-0.95437">
        <ele>4.3</ele>
        <time>2022-06-21T11:04:28Z</time>
      </trkpt>
      <trkpt lat="45.94124" lon="-0.95437">
        <ele>4.3</ele>
        <time>2022-06-21T11:04:29Z</time>
      </trkpt>
      <trkpt lat="45.94124" lon="-0.95437">
        <ele>4.3</ele>
        <time>2022-06-21T11:04:30Z</time>
      </trkpt>
      <trkpt lat="45.94124" lon="-0.95437">
        <ele>4.3</ele>
        <time>2022-06-21T11:04:31Z</time>
      </trkpt>
      <trkpt lat="45.94124" lon="-0.95437">
        <ele>4.3</ele>
        <time>2022-06-21T11:04:32Z</time>
      </trkpt>
      <trkpt lat="45.94124" lon="-0.95437">
        <ele>4.3</ele>
        <time>2022-06-21T11:04:33Z</time>
      </trkpt>
      <trkpt lat="45.94124" lon="-0.95437">
        <ele>4.3</ele>
        <time>2022-06-21T11:04:34Z</time>
      </trkpt>
      <trkpt lat="45.94124" lon="-0.95437">
        <ele>4.3</ele>
        <time>2022-06-21T11:04:35Z</time>
      </trkpt>
      <trkpt lat="45.94124" lon="-0.95437">
        <ele>4.3</ele>
        <time>2022-06-21T11:04:36Z</time>
      </trkpt>
      <trkpt lat="45.94124" lon="-0.95437">
        <ele>4.3</ele>
        <time>2022-06-21T11:04:37Z</time>
      </trkpt>
      <trkpt lat="45.94124" lon="-0.95437">
        <ele>4.3</ele>
        <time>2022-06-21T11:04:38Z</time>
      </trkpt>
      <trkpt lat="45.94124" lon="-0.95437">
        <ele>4.3</ele>
        <time>2022-06-21T11:04:39Z</time>
      </trkpt>
      <trkpt lat="45.94124" lon="-0.95437">
        <ele>4.3</ele>
        <time>2022-06-21T11:04:40Z</time>
      </trkpt>
      <trkpt lat="45.94124" lon="-0.95437">
        <ele>4.3</ele>
        <time>2022-06-21T11:04:41Z</time>
      </trkpt>
      <trkpt lat="45.94124" lon="-0.95437">
        <ele>4.3</ele>
        <time>2022-06-21T11:04:42Z</time>
      </trkpt>
      <trkpt lat="45.94124" lon="-0.95437">
        <ele>4.3</ele>
        <time>2022-06-21T11:04:43Z</time>
      </trkpt>
      <trkpt lat="45.94124" lon="-0.95437">
        <ele>4.3</ele>
        <time>2022-06-21T11:04:44Z</time>
      </trkpt>
      <trkpt lat="45.94124" lon="-0.95437">
        <ele>4.3</ele>
        <time>2022-06-21T11:04:45Z</time>
      </trkpt>
      <trkpt lat="45.94124" lon="-0.95437">
        <ele>4.3</ele>
        <time>2022-06-21T11:04:46Z</time>
      </trkpt>
      <trkpt lat="45.94124" lon="-0.95437">
        <ele>4.3</ele>
        <time>2022-06-21T11:04:47Z</time>
      </trkpt>
      <trkpt lat="45.94124" lon="-0.95437">
        <ele>4.3</ele>
        <time>2022-06-21T11:04:48Z</time>
      </trkpt>
      <trkpt lat="45.94124" lon="-0.95437">
        <ele>4.3</ele>
        <time>2022-06-21T11:04:49Z</time>
      </trkpt>
      <trkpt lat="45.94124" lon="-0.95437">
        <ele>4.3</ele>
        <time>2022-06-21T11:04:50Z</time>
      </trkpt>
      <trkpt lat="45.94124" lon="-0.95437">
        <ele>4.3</ele>
        <time>2022-06-21T11:04:51Z</time>
      </trkpt>
      <trkpt lat="45.94124" lon="-0.95437">
        <ele>4.3</ele>
        <time>2022-06-21T11:04:52Z</time>
      </trkpt>
      <trkpt lat="45.94124" lon="-0.95437">
        <ele>4.3</ele>
        <time>2022-06-21T11:04:53Z</time>
      </trkpt>
      <trkpt lat="45.94124" lon="-0.95437">
        <ele>4.3</ele>
        <time>2022-06-21T11:04:54Z</time>
      </trkpt>
      <trkpt lat="45.94124" lon="-0.95437">
        <ele>4.3</ele>
        <time>2022-06-21T11:04:55Z</time>
      </trkpt>
      <trkpt lat="45.94124" lon="-0.95437">
        <ele>4.3</ele>
        <time>2022-06-21T11:04:56Z</time>
      </trkpt>
      <trkpt lat="45.94124" lon="-0.95437">
        <ele>4.3</ele>
        <time>2022-06-21T11:04:57Z</time>
      </trkpt>
      <trkpt lat="45.94124" lon="-0.95437">
        <ele>4.3</ele>
        <time>2022-06-21T11:04:58Z</time>
      </trkpt>
      <trkpt lat="45.94124" lon="-0.95437">
        <ele>4.3</ele>
        <time>2022-06-21T11:04:59Z</time>
      </trkpt>
      <trkpt lat="45.94124" lon="-0.95437">
        <ele>4.3</ele>
        <time>2022-06-21T11:05:00Z</time>
      </trkpt>
      <trkpt lat="45.94124" lon="-0.95437">
        <ele>4.3</ele>
        <time>2022-06-21T11:05:01Z</time>
      </trkpt>
      <trkpt lat="45.94124" lon="-0.95437">
        <ele>4.3</ele>
        <time>2022-06-21T11:05:02Z</time>
      </trkpt>
      <trkpt lat="45.94124" lon="-0.95437">
        <ele>4.3</ele>
        <time>2022-06-21T11:05:03Z</time>
      </trkpt>
      <trkpt lat="45.94124" lon="-0.95437">
        <ele>4.3</ele>
        <time>2022-06-21T11:05:04Z</time>
      </trkpt>
      <trkpt lat="45.94124" lon="-0.95437">
        <ele>4.3</ele>
        <time>2022-06-21T11:05:05Z</time>
      </trkpt>
      <trkpt lat="45.94124" lon="-0.95437">
        <ele>4.3</ele>
        <time>2022-06-21T11:05:06Z</time>
      </trkpt>
      <trkpt lat="45.94124" lon="-0.95437">
        <ele>4.3</ele>
        <time>2022-06-21T11:05:07Z</time>
      </trkpt>
      <trkpt lat="45.94124" lon="-0.95437">
        <ele>4.3</ele>
        <time>2022-06-21T11:05:08Z</time>
      </trkpt>
      <trkpt lat="45.94124" lon="-0.95437">
        <ele>4.3</ele>
        <time>2022-06-21T11:05:09Z</time>
      </trkpt>
      <trkpt lat="45.94124" lon="-0.95437">
        <ele>4.3</ele>
        <time>2022-06-21T11:05:10Z</time>
      </trkpt>
      <trkpt lat="45.94124" lon="-0.95437">
        <ele>4.3</ele>
        <time>2022-06-21T11:05:11Z</time>
      </trkpt>
      <trkpt lat="45.94124" lon="-0.95437">
        <ele>4.3</ele>
        <time>2022-06-21T11:05:12Z</time>
      </trkpt>
      <trkpt lat="45.94124" lon="-0.95437">
        <ele>4.3</ele>
        <time>2022-06-21T11:05:13Z</time>
      </trkpt>
      <trkpt lat="45.94124" lon="-0.95437">
        <ele>4.3</ele>
        <time>2022-06-21T11:05:14Z</time>
      </trkpt>
      <trkpt lat="45.94124" lon="-0.95437">
        <ele>4.3</ele>
        <time>2022-06-21T11:05:15Z</time>
      </trkpt>
      <trkpt lat="45.94124" lon="-0.95437">
        <ele>4.3</ele>
        <time>2022-06-21T11:05:16Z</time>
      </trkpt>
      <trkpt lat="45.94124" lon="-0.95437">
        <ele>4.3</ele>
        <time>2022-06-21T11:05:17Z</time>
      </trkpt>
      <trkpt lat="45.94124" lon="-0.95437">
        <ele>4.3</ele>
        <time>2022-06-21T11:05:18Z</time>
      </trkpt>
      <trkpt lat="45.94124" lon="-0.95437">
        <ele>4.3</ele>
        <time>2022-06-21T11:05:19Z</time>
      </trkpt>
      <trkpt lat="45.94124" lon="-0.95437">
        <ele>4.3</ele>
        <time>2022-06-21T11:05:20Z</time>
      </trkpt>
      <trkpt lat="45.94124" lon="-0.95437">
        <ele>4.3</ele>
        <time>2022-06-21T11:05:21Z</time>
      </trkpt>
      <trkpt lat="45.94124" lon="-0.95437">
        <ele>4.3</ele>
        <time>2022-06-21T11:05:22Z</time>
      </trkpt>
      <trkpt lat="45.94124" lon="-0.95437">
        <ele>4.3</ele>
        <time>2022-06-21T11:05:23Z</time>
      </trkpt>
      <trkpt lat="45.94124" lon="-0.95437">
        <ele>4.3</ele>
        <time>2022-06-21T11:05:24Z</time>
      </trkpt>
      <trkpt lat="45.94124" lon="-0.95437">
        <ele>4.3</ele>
        <time>2022-06-21T11:05:25Z</time>
      </trkpt>
      <trkpt lat="45.94124" lon="-0.95437">
        <ele>4.3</ele>
        <time>2022-06-21T11:05:26Z</time>
      </trkpt>
      <trkpt lat="45.94124" lon="-0.95437">
        <ele>4.3</ele>
        <time>2022-06-21T11:05:27Z</time>
      </trkpt>
      <trkpt lat="45.94124" lon="-0.95437">
        <ele>4.3</ele>
        <time>2022-06-21T11:05:28Z</time>
      </trkpt>
      <trkpt lat="45.94124" lon="-0.95437">
        <ele>4.3</ele>
        <time>2022-06-21T11:05:29Z</time>
      </trkpt>
      <trkpt lat="45.94124" lon="-0.95437">
        <ele>4.3</ele>
        <time>2022-06-21T11:05:30Z</time>
      </trkpt>
      <trkpt lat="45.94124" lon="-0.95437">
        <ele>4.3</ele>
        <time>2022-06-21T11:05:31Z</time>
      </trkpt>
      <trkpt lat="45.94124" lon="-0.95437">
        <ele>4.3</ele>
        <time>2022-06-21T11:05:32Z</time>
      </trkpt>
      <trkpt lat="45.94124" lon="-0.95437">
        <ele>4.3</ele>
        <time>2022-06-21T11:05:33Z</time>
      </trkpt>
      <trkpt lat="45.94124" lon="-0.95437">
        <ele>4.3</ele>
        <time>2022-06-21T11:05:34Z</time>
      </trkpt>
      <trkpt lat="45.94124" lon="-0.95437">
        <ele>4.3</ele>
        <time>2022-06-21T11:05:35Z</time>
      </trkpt>
      <trkpt lat="45.94124" lon="-0.95437">
        <ele>4.3</ele>
        <time>2022-06-21T11:05:36Z</time>
      </trkpt>
      <trkpt lat="45.94124" lon="-0.95437">
        <ele>4.3</ele>
        <time>2022-06-21T11:05:37Z</time>
      </trkpt>
      <trkpt lat="45.94124" lon="-0.95437">
        <ele>4.3</ele>
        <time>2022-06-21T11:05:38Z</time>
      </trkpt>
      <trkpt lat="45.94124" lon="-0.95437">
        <ele>4.3</ele>
        <time>2022-06-21T11:05:39Z</time>
      </trkpt>
      <trkpt lat="45.94124" lon="-0.95437">
        <ele>4.3</ele>
        <time>2022-06-21T11:05:40Z</time>
      </trkpt>
      <trkpt lat="45.94124" lon="-0.95437">
        <ele>4.3</ele>
        <time>2022-06-21T11:05:41Z</time>
      </trkpt>
      <trkpt lat="45.94124" lon="-0.95437">
        <ele>4.3</ele>
        <time>2022-06-21T11:05:42Z</time>
      </trkpt>
      <trkpt lat="45.94124" lon="-0.95437">
        <ele>4.3</ele>
        <time>2022-06-21T11:05:43Z</time>
      </trkpt>
      <trkpt lat="45.94124" lon="-0.95437">
        <ele>4.3</ele>
        <time>2022-06-21T11:05:44Z</time>
      </trkpt>
      <trkpt lat="45.94124" lon="-0.95437">
        <ele>4.3</ele>
        <time>2022-06-21T11:05:45Z</time>
      </trkpt>
      <trkpt lat="45.94124" lon="-0.95437">
        <ele>4.3</ele>
        <time>2022-06-21T11:05:46Z</time>
      </trkpt>
      <trkpt lat="45.94124" lon="-0.95437">
        <ele>4.3</ele>
        <time>2022-06-21T11:05:47Z</time>
      </trkpt>
      <trkpt lat="45.94124" lon="-0.95437">
        <ele>4.3</ele>
        <time>2022-06-21T11:05:48Z</time>
      </trkpt>
      <trkpt lat="45.94124" lon="-0.95437">
        <ele>4.3</ele>
        <time>2022-06-21T11:05:49Z</time>
      </trkpt>
      <trkpt lat="45.94124" lon="-0.95437">
        <ele>4.3</ele>
        <time>2022-06-21T11:05:50Z</time>
      </trkpt>
      <trkpt lat="45.94124" lon="-0.95437">
        <ele>4.3</ele>
        <time>2022-06-21T11:05:51Z</time>
      </trkpt>
      <trkpt lat="45.94124" lon="-0.95437">
        <ele>4.3</ele>
        <time>2022-06-21T11:05:52Z</time>
      </trkpt>
      <trkpt lat="45.94124" lon="-0.95437">
        <ele>4.3</ele>
        <time>2022-06-21T11:05:53Z</time>
      </trkpt>
      <trkpt lat="45.94124" lon="-0.95437">
        <ele>4.3</ele>
        <time>2022-06-21T11:05:54Z</time>
      </trkpt>
      <trkpt lat="45.94124" lon="-0.95437">
        <ele>4.3</ele>
        <time>2022-06-21T11:05:55Z</time>
      </trkpt>
      <trkpt lat="45.94124" lon="-0.95437">
        <ele>4.3</ele>
        <time>2022-06-21T11:05:56Z</time>
      </trkpt>
      <trkpt lat="45.94124" lon="-0.95437">
        <ele>4.3</ele>
        <time>2022-06-21T11:05:57Z</time>
      </trkpt>
      <trkpt lat="45.94124" lon="-0.95437">
        <ele>4.3</ele>
        <time>2022-06-21T11:05:58Z</time>
      </trkpt>
      <trkpt lat="45.94124" lon="-0.95437">
        <ele>4.3</ele>
        <time>2022-06-21T11:05:59Z</time>
      </trkpt>
      <trkpt lat="45.94124" lon="-0.95437">
        <ele>4.3</ele>
        <time>2022-06-21T11:06:00Z</time>
      </trkpt>
      <trkpt lat="45.94124" lon="-0.95437">
        <ele>4.3</ele>
        <time>2022-06-21T11:06:01Z</time>
      </trkpt>
      <trkpt lat="45.94124" lon="-0.95437">
        <ele>4.3</ele>
        <time>2022-06-21T11:06:02Z</time>
      </trkpt>
      <trkpt lat="45.94124" lon="-0.95437">
        <ele>4.3</ele>
        <time>2022-06-21T11:06:03Z</time>
      </trkpt>
      <trkpt lat="45.94124" lon="-0.95437">
        <ele>4.3</ele>
        <time>2022-06-21T11:06:04Z</time>
      </trkpt>
      <trkpt lat="45.94124" lon="-0.95437">
        <ele>4.3</ele>
        <time>2022-06-21T11:06:05Z</time>
      </trkpt>
      <trkpt lat="45.94124" lon="-0.95437">
        <ele>4.3</ele>
        <time>2022-06-21T11:06:06Z</time>
      </trkpt>
      <trkpt lat="45.94124" lon="-0.95437">
        <ele>4.3</ele>
        <time>2022-06-21T11:06:07Z</time>
      </trkpt>
      <trkpt lat="45.94124" lon="-0.95437">
        <ele>4.3</ele>
        <time>2022-06-21T11:06:08Z</time>
      </trkpt>
      <trkpt lat="45.94124" lon="-0.95437">
        <ele>4.3</ele>
        <time>2022-06-21T11:06:09Z</time>
      </trkpt>
      <trkpt lat="45.94124" lon="-0.95437">
        <ele>4.3</ele>
        <time>2022-06-21T11:06:10Z</time>
      </trkpt>
      <trkpt lat="45.94124" lon="-0.95437">
        <ele>4.3</ele>
        <time>2022-06-21T11:06:11Z</time>
      </trkpt>
      <trkpt lat="45.94124" lon="-0.95437">
        <ele>4.3</ele>
        <time>2022-06-21T11:06:12Z</time>
      </trkpt>
      <trkpt lat="45.94124" lon="-0.95437">
        <ele>4.3</ele>
        <time>2022-06-21T11:06:13Z</time>
      </trkpt>
      <trkpt lat="45.94124" lon="-0.95437">
        <ele>4.3</ele>
        <time>2022-06-21T11:06:14Z</time>
      </trkpt>
      <trkpt lat="45.94124" lon="-0.95437">
        <ele>4.3</ele>
        <time>2022-06-21T11:06:15Z</time>
      </trkpt>
      <trkpt lat="45.94124" lon="-0.95437">
        <ele>4.3</ele>
        <time>2022-06-21T11:06:16Z</time>
      </trkpt>
      <trkpt lat="45.94124" lon="-0.95437">
        <ele>4.3</ele>
        <time>2022-06-21T11:06:17Z</time>
      </trkpt>
      <trkpt lat="45.94124" lon="-0.95437">
        <ele>4.3</ele>
        <time>2022-06-21T11:06:18Z</time>
      </trkpt>
      <trkpt lat="45.94124" lon="-0.95437">
        <ele>4.3</ele>
        <time>2022-06-21T11:06:19Z</time>
      </trkpt>
      <trkpt lat="45.94124" lon="-0.95437">
        <ele>4.3</ele>
        <time>2022-06-21T11:06:20Z</time>
      </trkpt>
      <trkpt lat="45.94124" lon="-0.95437">
        <ele>4.3</ele>
        <time>2022-06-21T11:06:21Z</time>
      </trkpt>
      <trkpt lat="45.94124" lon="-0.95437">
        <ele>4.3</ele>
        <time>2022-06-21T11:06:22Z</time>
      </trkpt>
      <trkpt lat="45.94124" lon="-0.95437">
        <ele>4.3</ele>
        <time>2022-06-21T11:06:23Z</time>
      </trkpt>
      <trkpt lat="45.94124" lon="-0.95437">
        <ele>4.3</ele>
        <time>2022-06-21T11:06:24Z</time>
      </trkpt>
      <trkpt lat="45.94124" lon="-0.95437">
        <ele>4.3</ele>
        <time>2022-06-21T11:06:25Z</time>
      </trkpt>
      <trkpt lat="45.94124" lon="-0.95437">
        <ele>4.3</ele>
        <time>2022-06-21T11:06:26Z</time>
      </trkpt>
      <trkpt lat="45.94124" lon="-0.95437">
        <ele>4.3</ele>
        <time>2022-06-21T11:06:27Z</time>
      </trkpt>
      <trkpt lat="45.94124" lon="-0.95437">
        <ele>4.3</ele>
        <time>2022-06-21T11:06:28Z</time>
      </trkpt>
      <trkpt lat="45.94124" lon="-0.95437">
        <ele>4.3</ele>
        <time>2022-06-21T11:06:29Z</time>
      </trkpt>
      <trkpt lat="45.94124" lon="-0.95437">
        <ele>4.3</ele>
        <time>2022-06-21T11:06:30Z</time>
      </trkpt>
      <trkpt lat="45.94124" lon="-0.95437">
        <ele>4.3</ele>
        <time>2022-06-21T11:06:31Z</time>
      </trkpt>
      <trkpt lat="45.94124" lon="-0.95437">
        <ele>4.3</ele>
        <time>2022-06-21T11:06:32Z</time>
      </trkpt>
      <trkpt lat="45.94124" lon="-0.95437">
        <ele>4.3</ele>
        <time>2022-06-21T11:06:33Z</time>
      </trkpt>
      <trkpt lat="45.94124" lon="-0.95437">
        <ele>4.3</ele>
        <time>2022-06-21T11:06:34Z</time>
      </trkpt>
      <trkpt lat="45.94124" lon="-0.95437">
        <ele>4.3</ele>
        <time>2022-06-21T11:06:35Z</time>
      </trkpt>
      <trkpt lat="45.94124" lon="-0.95437">
        <ele>4.3</ele>
        <time>2022-06-21T11:06:36Z</time>
      </trkpt>
      <trkpt lat="45.94124" lon="-0.95437">
        <ele>4.3</ele>
        <time>2022-06-21T11:06:37Z</time>
      </trkpt>
      <trkpt lat="45.94124" lon="-0.95437">
        <ele>4.3</ele>
        <time>2022-06-21T11:06:38Z</time>
      </trkpt>
      <trkpt lat="45.94124" lon="-0.95437">
        <ele>4.3</ele>
        <time>2022-06-21T11:06:39Z</time>
      </trkpt>
      <trkpt lat="45.94124" lon="-0.95437">
        <ele>4.3</ele>
        <time>2022-06-21T11:06:40Z</time>
      </trkpt>
      <trkpt lat="45.94124" lon="-0.95437">
        <ele>4.3</ele>
        <time>2022-06-21T11:06:41Z</time>
      </trkpt>
      <trkpt lat="45.94124" lon="-0.95437">
        <ele>4.3</ele>
        <time>2022-06-21T11:06:42Z</time>
      </trkpt>
      <trkpt lat="45.94124" lon="-0.95437">
        <ele>4.3</ele>
        <time>2022-06-21T11:06:43Z</time>
      </trkpt>
      <trkpt lat="45.94124" lon="-0.95437">
        <ele>4.3</ele>
        <time>2022-06-21T11:06:44Z</time>
      </trkpt>
      <trkpt lat="45.94124" lon="-0.95437">
        <ele>4.3</ele>
        <time>2022-06-21T11:06:45Z</time>
      </trkpt>
      <trkpt lat="45.94124" lon="-0.95437">
        <ele>4.3</ele>
        <time>2022-06-21T11:06:46Z</time>
      </trkpt>
      <trkpt lat="45.94124" lon="-0.95437">
        <ele>4.3</ele>
        <time>2022-06-21T11:06:47Z</time>
      </trkpt>
      <trkpt lat="45.94124" lon="-0.95437">
        <ele>4.3</ele>
        <time>2022-06-21T11:06:48Z</time>
      </trkpt>
      <trkpt lat="45.94124" lon="-0.95437">
        <ele>4.3</ele>
        <time>2022-06-21T11:06:49Z</time>
      </trkpt>
      <trkpt lat="45.94124" lon="-0.95437">
        <ele>4.3</ele>
        <time>2022-06-21T11:06:50Z</time>
      </trkpt>
      <trkpt lat="45.94124" lon="-0.95437">
        <ele>4.3</ele>
        <time>2022-06-21T11:06:51Z</time>
      </trkpt>
      <trkpt lat="45.94124" lon="-0.95437">
        <ele>4.3</ele>
        <time>2022-06-21T11:06:52Z</time>
      </trkpt>
      <trkpt lat="45.94124" lon="-0.95437">
        <ele>4.3</ele>
        <time>2022-06-21T11:06:53Z</time>
      </trkpt>
      <trkpt lat="45.94124" lon="-0.95437">
        <ele>4.3</ele>
        <time>2022-06-21T11:06:54Z</time>
      </trkpt>
      <trkpt lat="45.94124" lon="-0.95437">
        <ele>4.3</ele>
        <time>2022-06-21T11:06:55Z</time>
      </trkpt>
      <trkpt lat="45.94124" lon="-0.95437">
        <ele>4.3</ele>
        <time>2022-06-21T11:06:56Z</time>
      </trkpt>
      <trkpt lat="45.94124" lon="-0.95437">
        <ele>4.3</ele>
        <time>2022-06-21T11:06:57Z</time>
      </trkpt>
      <trkpt lat="45.94124" lon="-0.95437">
        <ele>4.3</ele>
        <time>2022-06-21T11:06:58Z</time>
      </trkpt>
      <trkpt lat="45.94124" lon="-0.95437">
        <ele>4.3</ele>
        <time>2022-06-21T11:06:59Z</time>
      </trkpt>
      <trkpt lat="45.94124" lon="-0.95437">
        <ele>4.3</ele>
        <time>2022-06-21T11:07:00Z</time>
      </trkpt>
      <trkpt lat="45.94124" lon="-0.95437">
        <ele>4.3</ele>
        <time>2022-06-21T11:07:01Z</time>
      </trkpt>
      <trkpt lat="45.94124" lon="-0.95437">
        <ele>4.3</ele>
        <time>2022-06-21T11:07:02Z</time>
      </trkpt>
      <trkpt lat="45.94124" lon="-0.95437">
        <ele>4.3</ele>
        <time>2022-06-21T11:07:03Z</time>
      </trkpt>
      <trkpt lat="45.94124" lon="-0.95437">
        <ele>4.3</ele>
        <time>2022-06-21T11:07:04Z</time>
      </trkpt>
      <trkpt lat="45.94124" lon="-0.95437">
        <ele>4.3</ele>
        <time>2022-06-21T11:07:05Z</time>
      </trkpt>
      <trkpt lat="45.94124" lon="-0.95437">
        <ele>4.3</ele>
        <time>2022-06-21T11:07:06Z</time>
      </trkpt>
      <trkpt lat="45.94124" lon="-0.95437">
        <ele>4.3</ele>
        <time>2022-06-21T11:07:07Z</time>
      </trkpt>
      <trkpt lat="45.94124" lon="-0.95437">
        <ele>4.3</ele>
        <time>2022-06-21T11:07:08Z</time>
      </trkpt>
      <trkpt lat="45.94124" lon="-0.95437">
        <ele>4.3</ele>
        <time>2022-06-21T11:07:09Z</time>
      </trkpt>
      <trkpt lat="45.94124" lon="-0.95437">
        <ele>4.3</ele>
        <time>2022-06-21T11:07:10Z</time>
      </trkpt>
      <trkpt lat="45.94124" lon="-0.95437">
        <ele>4.3</ele>
        <time>2022-06-21T11:07:11Z</time>
      </trkpt>
      <trkpt lat="45.94124" lon="-0.95437">
        <ele>4.3</ele>
        <time>2022-06-21T11:07:12Z</time>
      </trkpt>
      <trkpt lat="45.94124" lon="-0.95437">
        <ele>4.3</ele>
        <time>2022-06-21T11:07:13Z</time>
      </trkpt>
      <trkpt lat="45.94124" lon="-0.95437">
        <ele>4.3</ele>
        <time>2022-06-21T11:07:14Z</time>
      </trkpt>
      <trkpt lat="45.94124" lon="-0.95437">
        <ele>4.3</ele>
        <time>2022-06-21T11:07:15Z</time>
      </trkpt>
      <trkpt lat="45.94124" lon="-0.95437">
        <ele>4.3</ele>
        <time>2022-06-21T11:07:16Z</time>
      </trkpt>
      <trkpt lat="45.94124" lon="-0.95437">
        <ele>4.3</ele>
        <time>2022-06-21T11:07:17Z</time>
      </trkpt>
      <trkpt lat="45.94124" lon="-0.95437">
        <ele>4.3</ele>
        <time>2022-06-21T11:07:18Z</time>
      </trkpt>
      <trkpt lat="45.94124" lon="-0.95437">
        <ele>4.3</ele>
        <time>2022-06-21T11:07:19Z</time>
      </trkpt>
      <trkpt lat="45.94124" lon="-0.95437">
        <ele>4.3</ele>
        <time>2022-06-21T11:07:20Z</time>
      </trkpt>
      <trkpt lat="45.94124" lon="-0.95437">
        <ele>4.3</ele>
        <time>2022-06-21T11:07:21Z</time>
      </trkpt>
      <trkpt lat="45.94124" lon="-0.95437">
        <ele>4.3</ele>
        <time>2022-06-21T11:07:22Z</time>
      </trkpt>
      <trkpt lat="45.94124" lon="-0.95437">
        <ele>4.3</ele>
        <time>2022-06-21T11:07:23Z</time>
      </trkpt>
      <trkpt lat="45.94124" lon="-0.95437">
        <ele>4.3</ele>
        <time>2022-06-21T11:07:24Z</time>
      </trkpt>
      <trkpt lat="45.94124" lon="-0.95437">
        <ele>4.3</ele>
        <time>2022-06-21T11:07:25Z</time>
      </trkpt>
      <trkpt lat="45.94124" lon="-0.95437">
        <ele>4.3</ele>
        <time>2022-06-21T11:07:26Z</time>
      </trkpt>
      <trkpt lat="45.94124" lon="-0.95437">
        <ele>4.3</ele>
        <time>2022-06-21T11:07:27Z</time>
      </trkpt>
      <trkpt lat="45.94124" lon="-0.95437">
        <ele>4.3</ele>
        <time>2022-06-21T11:07:28Z</time>
      </trkpt>
      <trkpt lat="45.94124" lon="-0.95437">
        <ele>4.3</ele>
        <time>2022-06-21T11:07:29Z</time>
      </trkpt>
      <trkpt lat="45.94124" lon="-0.95437">
        <ele>4.3</ele>
        <time>2022-06-21T11:07:30Z</time>
      </trkpt>
      <trkpt lat="45.94124" lon="-0.95437">
        <ele>4.3</ele>
        <time>2022-06-21T11:07:31Z</time>
      </trkpt>
      <trkpt lat="45.94124" lon="-0.95437">
        <ele>4.3</ele>
        <time>2022-06-21T11:07:32Z</time>
      </trkpt>
      <trkpt lat="45.94124" lon="-0.95437">
        <ele>4.3</ele>
        <time>2022-06-21T11:07:33Z</time>
      </trkpt>
      <trkpt lat="45.94124" lon="-0.95437">
        <ele>4.3</ele>
        <time>2022-06-21T11:07:34Z</time>
      </trkpt>
      <trkpt lat="45.94124" lon="-0.95437">
        <ele>4.3</ele>
        <time>2022-06-21T11:07:35Z</time>
      </trkpt>
      <trkpt lat="45.94124" lon="-0.95437">
        <ele>4.3</ele>
        <time>2022-06-21T11:07:36Z</time>
      </trkpt>
      <trkpt lat="45.94124" lon="-0.95437">
        <ele>4.3</ele>
        <time>2022-06-21T11:07:37Z</time>
      </trkpt>
      <trkpt lat="45.94124" lon="-0.95437">
        <ele>4.3</ele>
        <time>2022-06-21T11:07:38Z</time>
      </trkpt>
      <trkpt lat="45.94124" lon="-0.95437">
        <ele>4.3</ele>
        <time>2022-06-21T11:07:39Z</time>
      </trkpt>
      <trkpt lat="45.94124" lon="-0.95437">
        <ele>4.3</ele>
        <time>2022-06-21T11:07:40Z</time>
      </trkpt>
      <trkpt lat="45.94124" lon="-0.95437">
        <ele>4.3</ele>
        <time>2022-06-21T11:07:41Z</time>
      </trkpt>
      <trkpt lat="45.94124" lon="-0.95437">
        <ele>4.3</ele>
        <time>2022-06-21T11:07:42Z</time>
      </trkpt>
      <trkpt lat="45.94124" lon="-0.95437">
        <ele>4.3</ele>
        <time>2022-06-21T11:07:43Z</time>
      </trkpt>
      <trkpt lat="45.94124" lon="-0.95437">
        <ele>4.3</ele>
        <time>2022-06-21T11:07:44Z</time>
      </trkpt>
      <trkpt lat="45.94124" lon="-0.95437">
        <ele>4.3</ele>
        <time>2022-06-21T11:07:45Z</time>
      </trkpt>
      <trkpt lat="45.94124" lon="-0.95437">
        <ele>4.3</ele>
        <time>2022-06-21T11:07:46Z</time>
      </trkpt>
      <trkpt lat="45.94124" lon="-0.95437">
        <ele>4.3</ele>
        <time>2022-06-21T11:07:47Z</time>
      </trkpt>
      <trkpt lat="45.94124" lon="-0.95437">
        <ele>4.3</ele>
        <time>2022-06-21T11:07:48Z</time>
      </trkpt>
      <trkpt lat="45.94124" lon="-0.95437">
        <ele>4.3</ele>
        <time>2022-06-21T11:07:49Z</time>
      </trkpt>
      <trkpt lat="45.94124" lon="-0.95437">
        <ele>4.3</ele>
        <time>2022-06-21T11:07:50Z</time>
      </trkpt>
      <trkpt lat="45.94124" lon="-0.95437">
        <ele>4.3</ele>
        <time>2022-06-21T11:07:51Z</time>
      </trkpt>
      <trkpt lat="45.94124" lon="-0.95437">
        <ele>4.3</ele>
        <time>2022-06-21T11:07:52Z</time>
      </trkpt>
      <trkpt lat="45.94124" lon="-0.95437">
        <ele>4.3</ele>
        <time>2022-06-21T11:07:53Z</time>
      </trkpt>
      <trkpt lat="45.94124" lon="-0.95437">
        <ele>4.3</ele>
        <time>2022-06-21T11:07:54Z</time>
      </trkpt>
      <trkpt lat="45.94124" lon="-0.95437">
        <ele>4.3</ele>
        <time>2022-06-21T11:07:55Z</time>
      </trkpt>
      <trkpt lat="45.94124" lon="-0.95437">
        <ele>4.3</ele>
        <time>2022-06-21T11:07:56Z</time>
      </trkpt>
      <trkpt lat="45.94124" lon="-0.95437">
        <ele>4.3</ele>
        <time>2022-06-21T11:07:57Z</time>
      </trkpt>
      <trkpt lat="45.94124" lon="-0.95437">
        <ele>4.3</ele>
        <time>2022-06-21T11:07:58Z</time>
      </trkpt>
      <trkpt lat="45.94124" lon="-0.95437">
        <ele>4.3</ele>
        <time>2022-06-21T11:07:59Z</time>
      </trkpt>
      <trkpt lat="45.94124" lon="-0.95437">
        <ele>4.3</ele>
        <time>2022-06-21T11:08:00Z</time>
      </trkpt>
      <trkpt lat="45.94124" lon="-0.95437">
        <ele>4.3</ele>
        <time>2022-06-21T11:08:01Z</time>
      </trkpt>
      <trkpt lat="45.94124" lon="-0.95437">
        <ele>4.3</ele>
        <time>2022-06-21T11:08:02Z</time>
      </trkpt>
      <trkpt lat="45.94124" lon="-0.95437">
        <ele>4.3</ele>
        <time>2022-06-21T11:08:03Z</time>
      </trkpt>
      <trkpt lat="45.94124" lon="-0.95437">
        <ele>4.3</ele>
        <time>2022-06-21T11:08:04Z</time>
      </trkpt>
      <trkpt lat="45.94124" lon="-0.95437">
        <ele>4.3</ele>
        <time>2022-06-21T11:08:05Z</time>
      </trkpt>
      <trkpt lat="45.94124" lon="-0.95437">
        <ele>4.3</ele>
        <time>2022-06-21T11:08:06Z</time>
      </trkpt>
      <trkpt lat="45.94124" lon="-0.95437">
        <ele>4.3</ele>
        <time>2022-06-21T11:08:07Z</time>
      </trkpt>
      <trkpt lat="45.94124" lon="-0.95437">
        <ele>4.3</ele>
        <time>2022-06-21T11:08:08Z</time>
      </trkpt>
      <trkpt lat="45.94124" lon="-0.95437">
        <ele>4.3</ele>
        <time>2022-06-21T11:08:09Z</time>
      </trkpt>
      <trkpt lat="45.94124" lon="-0.95437">
        <ele>4.3</ele>
        <time>2022-06-21T11:08:10Z</time>
      </trkpt>
      <trkpt lat="45.94124" lon="-0.95437">
        <ele>4.3</ele>
        <time>2022-06-21T11:08:11Z</time>
      </trkpt>
      <trkpt lat="45.94124" lon="-0.95437">
        <ele>4.3</ele>
        <time>2022-06-21T11:08:12Z</time>
      </trkpt>
      <trkpt lat="45.94124" lon="-0.95437">
        <ele>4.3</ele>
        <time>2022-06-21T11:08:13Z</time>
      </trkpt>
      <trkpt lat="45.94124" lon="-0.95437">
        <ele>4.3</ele>
        <time>2022-06-21T11:08:14Z</time>
      </trkpt>
      <trkpt lat="45.94124" lon="-0.95437">
        <ele>4.3</ele>
        <time>2022-06-21T11:08:15Z</time>
      </trkpt>
      <trkpt lat="45.94124" lon="-0.95437">
        <ele>4.3</ele>
        <time>2022-06-21T11:08:16Z</time>
      </trkpt>
      <trkpt lat="45.94124" lon="-0.95437">
        <ele>4.3</ele>
        <time>2022-06-21T11:08:17Z</time>
      </trkpt>
      <trkpt lat="45.94124" lon="-0.95437">
        <ele>4.3</ele>
        <time>2022-06-21T11:08:18Z</time>
      </trkpt>
      <trkpt lat="45.94124" lon="-0.95437">
        <ele>4.3</ele>
        <time>2022-06-21T11:08:19Z</time>
      </trkpt>
      <trkpt lat="45.94124" lon="-0.95437">
        <ele>4.3</ele>
        <time>2022-06-21T11:08:20Z</time>
      </trkpt>
      <trkpt lat="45.94124" lon="-0.95437">
        <ele>4.3</ele>
        <time>2022-06-21T11:08:21Z</time>
      </trkpt>
      <trkpt lat="45.94124" lon="-0.95437">
        <ele>4.3</ele>
        <time>2022-06-21T11:08:22Z</time>
      </trkpt>
      <trkpt lat="45.94124" lon="-0.95437">
        <ele>4.3</ele>
        <time>2022-06-21T11:08:23Z</time>
      </trkpt>
      <trkpt lat="45.94124" lon="-0.95437">
        <ele>4.3</ele>
        <time>2022-06-21T11:08:24Z</time>
      </trkpt>
      <trkpt lat="45.94124" lon="-0.95437">
        <ele>4.3</ele>
        <time>2022-06-21T11:08:25Z</time>
      </trkpt>
      <trkpt lat="45.94124" lon="-0.95437">
        <ele>4.3</ele>
        <time>2022-06-21T11:08:26Z</time>
      </trkpt>
      <trkpt lat="45.94124" lon="-0.95437">
        <ele>4.3</ele>
        <time>2022-06-21T11:08:27Z</time>
      </trkpt>
      <trkpt lat="45.94124" lon="-0.95437">
        <ele>4.3</ele>
        <time>2022-06-21T11:08:28Z</time>
      </trkpt>
      <trkpt lat="45.94124" lon="-0.95437">
        <ele>4.3</ele>
        <time>2022-06-21T11:08:29Z</time>
      </trkpt>
      <trkpt lat="45.94124" lon="-0.95437">
        <ele>4.3</ele>
        <time>2022-06-21T11:08:30Z</time>
      </trkpt>
      <trkpt lat="45.94124" lon="-0.95437">
        <ele>4.3</ele>
        <time>2022-06-21T11:08:31Z</time>
      </trkpt>
      <trkpt lat="45.94124" lon="-0.95437">
        <ele>4.3</ele>
        <time>2022-06-21T11:08:32Z</time>
      </trkpt>
      <trkpt lat="45.94124" lon="-0.95437">
        <ele>4.3</ele>
        <time>2022-06-21T11:08:33Z</time>
      </trkpt>
      <trkpt lat="45.94124" lon="-0.95437">
        <ele>4.3</ele>
        <time>2022-06-21T11:08:34Z</time>
      </trkpt>
      <trkpt lat="45.94124" lon="-0.95437">
        <ele>4.3</ele>
        <time>2022-06-21T11:08:35Z</time>
      </trkpt>
      <trkpt lat="45.94124" lon="-0.95437">
        <ele>4.3</ele>
        <time>2022-06-21T11:08:36Z</time>
      </trkpt>
      <trkpt lat="45.94124" lon="-0.95437">
        <ele>4.3</ele>
        <time>2022-06-21T11:08:37Z</time>
      </trkpt>
      <trkpt lat="45.94124" lon="-0.95437">
        <ele>4.3</ele>
        <time>2022-06-21T11:08:38Z</time>
      </trkpt>
      <trkpt lat="45.94124" lon="-0.95437">
        <ele>4.3</ele>
        <time>2022-06-21T11:08:39Z</time>
      </trkpt>
      <trkpt lat="45.94124" lon="-0.95437">
        <ele>4.3</ele>
        <time>2022-06-21T11:08:40Z</time>
      </trkpt>
      <trkpt lat="45.94124" lon="-0.95437">
        <ele>4.3</ele>
        <time>2022-06-21T11:08:41Z</time>
      </trkpt>
      <trkpt lat="45.94124" lon="-0.95437">
        <ele>4.3</ele>
        <time>2022-06-21T11:08:42Z</time>
      </trkpt>
      <trkpt lat="45.94124" lon="-0.95437">
        <ele>4.3</ele>
        <time>2022-06-21T11:08:43Z</time>
      </trkpt>
      <trkpt lat="45.94124" lon="-0.95437">
        <ele>4.3</ele>
        <time>2022-06-21T11:08:44Z</time>
      </trkpt>
      <trkpt lat="45.94124" lon="-0.95437">
        <ele>4.3</ele>
        <time>2022-06-21T11:08:45Z</time>
      </trkpt>
      <trkpt lat="45.94124" lon="-0.95437">
        <ele>4.3</ele>
        <time>2022-06-21T11:08:46Z</time>
      </trkpt>
      <trkpt lat="45.94124" lon="-0.95437">
        <ele>4.3</ele>
        <time>2022-06-21T11:08:47Z</time>
      </trkpt>
      <trkpt lat="45.94124" lon="-0.95437">
        <ele>4.3</ele>
        <time>2022-06-21T11:08:48Z</time>
      </trkpt>
      <trkpt lat="45.94124" lon="-0.95437">
        <ele>4.3</ele>
        <time>2022-06-21T11:08:49Z</time>
      </trkpt>
      <trkpt lat="45.94124" lon="-0.95437">
        <ele>4.3</ele>
        <time>2022-06-21T11:08:50Z</time>
      </trkpt>
      <trkpt lat="45.94124" lon="-0.95437">
        <ele>4.3</ele>
        <time>2022-06-21T11:08:51Z</time>
      </trkpt>
      <trkpt lat="45.94124" lon="-0.95437">
        <ele>4.3</ele>
        <time>2022-06-21T11:08:52Z</time>
      </trkpt>
      <trkpt lat="45.94124" lon="-0.95437">
        <ele>4.3</ele>
        <time>2022-06-21T11:08:53Z</time>
      </trkpt>
      <trkpt lat="45.94124" lon="-0.95437">
        <ele>4.3</ele>
        <time>2022-06-21T11:08:54Z</time>
      </trkpt>
      <trkpt lat="45.94124" lon="-0.95437">
        <ele>4.3</ele>
        <time>2022-06-21T11:08:55Z</time>
      </trkpt>
      <trkpt lat="45.94124" lon="-0.95437">
        <ele>4.3</ele>
        <time>2022-06-21T11:08:56Z</time>
      </trkpt>
      <trkpt lat="45.94124" lon="-0.95437">
        <ele>4.3</ele>
        <time>2022-06-21T11:08:57Z</time>
      </trkpt>
      <trkpt lat="45.94124" lon="-0.95437">
        <ele>4.3</ele>
        <time>2022-06-21T11:08:58Z</time>
      </trkpt>
      <trkpt lat="45.94124" lon="-0.95437">
        <ele>4.3</ele>
        <time>2022-06-21T11:08:59Z</time>
      </trkpt>
      <trkpt lat="45.94124" lon="-0.95437">
        <ele>4.3</ele>
        <time>2022-06-21T11:09:00Z</time>
      </trkpt>
      <trkpt lat="45.94124" lon="-0.95437">
        <ele>4.3</ele>
        <time>2022-06-21T11:09:01Z</time>
      </trkpt>
      <trkpt lat="45.94124" lon="-0.95437">
        <ele>4.3</ele>
        <time>2022-06-21T11:09:02Z</time>
      </trkpt>
      <trkpt lat="45.94124" lon="-0.95437">
        <ele>4.3</ele>
        <time>2022-06-21T11:09:03Z</time>
      </trkpt>
      <trkpt lat="45.94124" lon="-0.95437">
        <ele>4.3</ele>
        <time>2022-06-21T11:09:04Z</time>
      </trkpt>
      <trkpt lat="45.94124" lon="-0.95437">
        <ele>4.3</ele>
        <time>2022-06-21T11:09:05Z</time>
      </trkpt>
      <trkpt lat="45.94124" lon="-0.95437">
        <ele>4.3</ele>
        <time>2022-06-21T11:09:06Z</time>
      </trkpt>
      <trkpt lat="45.94124" lon="-0.95437">
        <ele>4.3</ele>
        <time>2022-06-21T11:09:07Z</time>
      </trkpt>
      <trkpt lat="45.94124" lon="-0.95437">
        <ele>4.3</ele>
        <time>2022-06-21T11:09:08Z</time>
      </trkpt>
      <trkpt lat="45.94124" lon="-0.95437">
        <ele>4.3</ele>
        <time>2022-06-21T11:09:09Z</time>
      </trkpt>
      <trkpt lat="45.94124" lon="-0.95437">
        <ele>4.3</ele>
        <time>2022-06-21T11:09:10Z</time>
      </trkpt>
      <trkpt lat="45.94124" lon="-0.95437">
        <ele>4.3</ele>
        <time>2022-06-21T11:09:11Z</time>
      </trkpt>
      <trkpt lat="45.94124" lon="-0.95437">
        <ele>4.3</ele>
        <time>2022-06-21T11:09:12Z</time>
      </trkpt>
      <trkpt lat="45.94124" lon="-0.95437">
        <ele>4.3</ele>
        <time>2022-06-21T11:09:13Z</time>
      </trkpt>
      <trkpt lat="45.94124" lon="-0.95437">
        <ele>4.3</ele>
        <time>2022-06-21T11:09:14Z</time>
      </trkpt>
      <trkpt lat="45.94124" lon="-0.95437">
        <ele>4.3</ele>
        <time>2022-06-21T11:09:15Z</time>
      </trkpt>
      <trkpt lat="45.94124" lon="-0.95437">
        <ele>4.3</ele>
        <time>2022-06-21T11:09:16Z</time>
      </trkpt>
      <trkpt lat="45.94124" lon="-0.95437">
        <ele>4.3</ele>
        <time>2022-06-21T11:09:17Z</time>
      </trkpt>
      <trkpt lat="45.94124" lon="-0.95437">
        <ele>4.3</ele>
        <time>2022-06-21T11:09:18Z</time>
      </trkpt>
      <trkpt lat="45.94124" lon="-0.95437">
        <ele>4.3</ele>
        <time>2022-06-21T11:09:19Z</time>
      </trkpt>
      <trkpt lat="45.94124" lon="-0.95437">
        <ele>4.3</ele>
        <time>2022-06-21T11:09:20Z</time>
      </trkpt>
      <trkpt lat="45.94124" lon="-0.95437">
        <ele>4.3</ele>
        <time>2022-06-21T11:09:21Z</time>
      </trkpt>
      <trkpt lat="45.94124" lon="-0.95437">
        <ele>4.3</ele>
        <time>2022-06-21T11:09:22Z</time>
      </trkpt>
      <trkpt lat="45.94124" lon="-0.95437">
        <ele>4.3</ele>
        <time>2022-06-21T11:09:23Z</time>
      </trkpt>
      <trkpt lat="45.94124" lon="-0.95437">
        <ele>4.3</ele>
        <time>2022-06-21T11:09:24Z</time>
      </trkpt>
      <trkpt lat="45.94124" lon="-0.95437">
        <ele>4.3</ele>
        <time>2022-06-21T11:09:25Z</time>
      </trkpt>
      <trkpt lat="45.94124" lon="-0.95437">
        <ele>4.3</ele>
        <time>2022-06-21T11:09:26Z</time>
      </trkpt>
      <trkpt lat="45.94124" lon="-0.95437">
        <ele>4.3</ele>
        <time>2022-06-21T11:09:27Z</time>
      </trkpt>
      <trkpt lat="45.94124" lon="-0.95437">
        <ele>4.3</ele>
        <time>2022-06-21T11:09:28Z</time>
      </trkpt>
      <trkpt lat="45.94124" lon="-0.95437">
        <ele>4.3</ele>
        <time>2022-06-21T11:09:29Z</time>
      </trkpt>
      <trkpt lat="45.94124" lon="-0.95437">
        <ele>4.3</ele>
        <time>2022-06-21T11:09:30Z</time>
      </trkpt>
      <trkpt lat="45.94124" lon="-0.95437">
        <ele>4.3</ele>
        <time>2022-06-21T11:09:31Z</time>
      </trkpt>
      <trkpt lat="45.94124" lon="-0.95437">
        <ele>4.3</ele>
        <time>2022-06-21T11:09:32Z</time>
      </trkpt>
      <trkpt lat="45.94124" lon="-0.95437">
        <ele>4.3</ele>
        <time>2022-06-21T11:09:33Z</time>
      </trkpt>
      <trkpt lat="45.94124" lon="-0.95437">
        <ele>4.3</ele>
        <time>2022-06-21T11:09:34Z</time>
      </trkpt>
      <trkpt lat="45.94124" lon="-0.95437">
        <ele>4.3</ele>
        <time>2022-06-21T11:09:35Z</time>
      </trkpt>
      <trkpt lat="45.94124" lon="-0.95437">
        <ele>4.3</ele>
        <time>2022-06-21T11:09:36Z</time>
      </trkpt>
      <trkpt lat="45.94124" lon="-0.95437">
        <ele>4.3</ele>
        <time>2022-06-21T11:09:37Z</time>
      </trkpt>
      <trkpt lat="45.94124" lon="-0.95437">
        <ele>4.3</ele>
        <time>2022-06-21T11:09:38Z</time>
      </trkpt>
      <trkpt lat="45.94124" lon="-0.95437">
        <ele>4.3</ele>
        <time>2022-06-21T11:09:39Z</time>
      </trkpt>
      <trkpt lat="45.94124" lon="-0.95437">
        <ele>4.3</ele>
        <time>2022-06-21T11:09:40Z</time>
      </trkpt>
      <trkpt lat="45.94124" lon="-0.95437">
        <ele>4.3</ele>
        <time>2022-06-21T11:09:41Z</time>
      </trkpt>
      <trkpt lat="45.94124" lon="-0.95437">
        <ele>4.3</ele>
        <time>2022-06-21T11:09:42Z</time>
      </trkpt>
      <trkpt lat="45.94124" lon="-0.95437">
        <ele>4.3</ele>
        <time>2022-06-21T11:09:43Z</time>
      </trkpt>
      <trkpt lat="45.94124" lon="-0.95437">
        <ele>4.3</ele>
        <time>2022-06-21T11:09:44Z</time>
      </trkpt>
      <trkpt lat="45.94124" lon="-0.95437">
        <ele>4.3</ele>
        <time>2022-06-21T11:09:45Z</time>
      </trkpt>
      <trkpt lat="45.94124" lon="-0.95437">
        <ele>4.3</ele>
        <time>2022-06-21T11:09:46Z</time>
      </trkpt>
      <trkpt lat="45.94124" lon="-0.95437">
        <ele>4.3</ele>
        <time>2022-06-21T11:09:47Z</time>
      </trkpt>
      <trkpt lat="45.94124" lon="-0.95437">
        <ele>4.3</ele>
        <time>2022-06-21T11:09:48Z</time>
      </trkpt>
      <trkpt lat="45.94124" lon="-0.95437">
        <ele>4.3</ele>
        <time>2022-06-21T11:09:49Z</time>
      </trkpt>
      <trkpt lat="45.94124" lon="-0.95437">
        <ele>4.3</ele>
        <time>2022-06-21T11:09:50Z</time>
      </trkpt>
      <trkpt lat="45.94124" lon="-0.95437">
        <ele>4.3</ele>
        <time>2022-06-21T11:09:51Z</time>
      </trkpt>
      <trkpt lat="45.94124" lon="-0.95437">
        <ele>4.3</ele>
        <time>2022-06-21T11:09:52Z</time>
      </trkpt>
      <trkpt lat="45.94124" lon="-0.95437">
        <ele>4.3</ele>
        <time>2022-06-21T11:09:53Z</time>
      </trkpt>
      <trkpt lat="45.94124" lon="-0.95437">
        <ele>4.3</ele>
        <time>2022-06-21T11:09:54Z</time>
      </trkpt>
      <trkpt lat="45.94124" lon="-0.95437">
        <ele>4.3</ele>
        <time>2022-06-21T11:09:55Z</time>
      </trkpt>
      <trkpt lat="45.94124" lon="-0.95437">
        <ele>4.3</ele>
        <time>2022-06-21T11:09:56Z</time>
      </trkpt>
      <trkpt lat="45.94124" lon="-0.95437">
        <ele>4.3</ele>
        <time>2022-06-21T11:09:57Z</time>
      </trkpt>
      <trkpt lat="45.94124" lon="-0.95437">
        <ele>4.3</ele>
        <time>2022-06-21T11:09:58Z</time>
      </trkpt>
      <trkpt lat="45.94124" lon="-0.95437">
        <ele>4.3</ele>
        <time>2022-06-21T11:09:59Z</time>
      </trkpt>
      <trkpt lat="45.94124" lon="-0.95437">
        <ele>4.3</ele>
        <time>2022-06-21T11:10:00Z</time>
      </trkpt>
      <trkpt lat="45.94124" lon="-0.95437">
        <ele>4.3</ele>
        <time>2022-06-21T11:10:01Z</time>
      </trkpt>
      <trkpt lat="45.94124" lon="-0.95437">
        <ele>4.3</ele>
        <time>2022-06-21T11:10:02Z</time>
      </trkpt>
      <trkpt lat="45.94124" lon="-0.95437">
        <ele>4.3</ele>
        <time>2022-06-21T11:10:03Z</time>
      </trkpt>
      <trkpt lat="45.94124" lon="-0.95437">
        <ele>4.3</ele>
        <time>2022-06-21T11:10:04Z</time>
      </trkpt>
      <trkpt lat="45.94124" lon="-0.95437">
        <ele>4.3</ele>
        <time>2022-06-21T11:10:05Z</time>
      </trkpt>
      <trkpt lat="45.94124" lon="-0.95437">
        <ele>4.3</ele>
        <time>2022-06-21T11:10:06Z</time>
      </trkpt>
      <trkpt lat="45.94124" lon="-0.95437">
        <ele>4.3</ele>
        <time>2022-06-21T11:10:07Z</time>
      </trkpt>
      <trkpt lat="45.94124" lon="-0.95437">
        <ele>4.3</ele>
        <time>2022-06-21T11:10:08Z</time>
      </trkpt>
      <trkpt lat="45.94124" lon="-0.95437">
        <ele>4.3</ele>
        <time>2022-06-21T11:10:09Z</time>
      </trkpt>
      <trkpt lat="45.94124" lon="-0.95437">
        <ele>4.3</ele>
        <time>2022-06-21T11:10:10Z</time>
      </trkpt>
      <trkpt lat="45.94124" lon="-0.95437">
        <ele>4.3</ele>
        <time>2022-06-21T11:10:11Z</time>
      </trkpt>
      <trkpt lat="45.94124" lon="-0.95437">
        <ele>4.3</ele>
        <time>2022-06-21T11:10:12Z</time>
      </trkpt>
      <trkpt lat="45.94124" lon="-0.95437">
        <ele>4.3</ele>
        <time>2022-06-21T11:10:13Z</time>
      </trkpt>
      <trkpt lat="45.94124" lon="-0.95437">
        <ele>4.3</ele>
        <time>2022-06-21T11:10:14Z</time>
      </trkpt>
      <trkpt lat="45.94124" lon="-0.95437">
        <ele>4.3</ele>
        <time>2022-06-21T11:10:15Z</time>
      </trkpt>
      <trkpt lat="45.94124" lon="-0.95437">
        <ele>4.3</ele>
        <time>2022-06-21T11:10:16Z</time>
      </trkpt>
      <trkpt lat="45.94124" lon="-0.95437">
        <ele>4.3</ele>
        <time>2022-06-21T11:10:17Z</time>
      </trkpt>
      <trkpt lat="45.94124" lon="-0.95437">
        <ele>4.3</ele>
        <time>2022-06-21T11:10:18Z</time>
      </trkpt>
      <trkpt lat="45.94124" lon="-0.95437">
        <ele>4.3</ele>
        <time>2022-06-21T11:10:19Z</time>
      </trkpt>
      <trkpt lat="45.94124" lon="-0.95437">
        <ele>4.3</ele>
        <time>2022-06-21T11:10:20Z</time>
      </trkpt>
      <trkpt lat="45.94124" lon="-0.95437">
        <ele>4.3</ele>
        <time>2022-06-21T11:10:21Z</time>
      </trkpt>
      <trkpt lat="45.94124" lon="-0.95437">
        <ele>4.3</ele>
        <time>2022-06-21T11:10:22Z</time>
      </trkpt>
      <trkpt lat="45.94124" lon="-0.95437">
        <ele>4.3</ele>
        <time>2022-06-21T11:10:23Z</time>
      </trkpt>
      <trkpt lat="45.94124" lon="-0.95437">
        <ele>4.3</ele>
        <time>2022-06-21T11:10:24Z</time>
      </trkpt>
      <trkpt lat="45.94124" lon="-0.95437">
        <ele>4.3</ele>
        <time>2022-06-21T11:10:25Z</time>
      </trkpt>
      <trkpt lat="45.94124" lon="-0.95437">
        <ele>4.3</ele>
        <time>2022-06-21T11:10:26Z</time>
      </trkpt>
      <trkpt lat="45.94124" lon="-0.95437">
        <ele>4.3</ele>
        <time>2022-06-21T11:10:27Z</time>
      </trkpt>
      <trkpt lat="45.94124" lon="-0.95437">
        <ele>4.3</ele>
        <time>2022-06-21T11:10:28Z</time>
      </trkpt>
      <trkpt lat="45.94124" lon="-0.95437">
        <ele>4.3</ele>
        <time>2022-06-21T11:10:29Z</time>
      </trkpt>
      <trkpt lat="45.94124" lon="-0.95437">
        <ele>4.3</ele>
        <time>2022-06-21T11:10:30Z</time>
      </trkpt>
      <trkpt lat="45.94124" lon="-0.95437">
        <ele>4.3</ele>
        <time>2022-06-21T11:10:31Z</time>
      </trkpt>
      <trkpt lat="45.94124" lon="-0.95437">
        <ele>4.3</ele>
        <time>2022-06-21T11:10:32Z</time>
      </trkpt>
      <trkpt lat="45.94124" lon="-0.95437">
        <ele>4.3</ele>
        <time>2022-06-21T11:10:33Z</time>
      </trkpt>
      <trkpt lat="45.94124" lon="-0.95437">
        <ele>4.3</ele>
        <time>2022-06-21T11:10:34Z</time>
      </trkpt>
      <trkpt lat="45.94124" lon="-0.95437">
        <ele>4.3</ele>
        <time>2022-06-21T11:10:35Z</time>
      </trkpt>
      <trkpt lat="45.94124" lon="-0.95437">
        <ele>4.3</ele>
        <time>2022-06-21T11:10:36Z</time>
      </trkpt>
      <trkpt lat="45.94124" lon="-0.95437">
        <ele>4.3</ele>
        <time>2022-06-21T11:10:37Z</time>
      </trkpt>
      <trkpt lat="45.94124" lon="-0.95437">
        <ele>4.3</ele>
        <time>2022-06-21T11:10:38Z</time>
      </trkpt>
      <trkpt lat="45.94124" lon="-0.95437">
        <ele>4.3</ele>
        <time>2022-06-21T11:10:39Z</time>
      </trkpt>
      <trkpt lat="45.94124" lon="-0.95437">
        <ele>4.3</ele>
        <time>2022-06-21T11:10:40Z</time>
      </trkpt>
      <trkpt lat="45.94124" lon="-0.95437">
        <ele>4.3</ele>
        <time>2022-06-21T11:10:41Z</time>
      </trkpt>
      <trkpt lat="45.94124" lon="-0.95437">
        <ele>4.3</ele>
        <time>2022-06-21T11:10:42Z</time>
      </trkpt>
      <trkpt lat="45.94124" lon="-0.95437">
        <ele>4.3</ele>
        <time>2022-06-21T11:10:43Z</time>
      </trkpt>
      <trkpt lat="45.94124" lon="-0.95437">
        <ele>4.3</ele>
        <time>2022-06-21T11:10:44Z</time>
      </trkpt>
      <trkpt lat="45.94124" lon="-0.95437">
        <ele>4.3</ele>
        <time>2022-06-21T11:10:45Z</time>
      </trkpt>
      <trkpt lat="45.94124" lon="-0.95437">
        <ele>4.3</ele>
        <time>2022-06-21T11:10:46Z</time>
      </trkpt>
      <trkpt lat="45.94124" lon="-0.95437">
        <ele>4.3</ele>
        <time>2022-06-21T11:10:47Z</time>
      </trkpt>
      <trkpt lat="45.94124" lon="-0.95437">
        <ele>4.3</ele>
        <time>2022-06-21T11:10:48Z</time>
      </trkpt>
      <trkpt lat="45.94124" lon="-0.95437">
        <ele>4.3</ele>
        <time>2022-06-21T11:10:49Z</time>
      </trkpt>
      <trkpt lat="45.94124" lon="-0.95437">
        <ele>4.3</ele>
        <time>2022-06-21T11:10:50Z</time>
      </trkpt>
      <trkpt lat="45.94124" lon="-0.95437">
        <ele>4.3</ele>
        <time>2022-06-21T11:10:51Z</time>
      </trkpt>
      <trkpt lat="45.94124" lon="-0.95437">
        <ele>4.3</ele>
        <time>2022-06-21T11:10:52Z</time>
      </trkpt>
      <trkpt lat="45.94124" lon="-0.95437">
        <ele>4.3</ele>
        <time>2022-06-21T11:10:53Z</time>
      </trkpt>
      <trkpt lat="45.94124" lon="-0.95437">
        <ele>4.3</ele>
        <time>2022-06-21T11:10:54Z</time>
      </trkpt>
      <trkpt lat="45.94124" lon="-0.95437">
        <ele>4.3</ele>
        <time>2022-06-21T11:10:55Z</time>
      </trkpt>
      <trkpt lat="45.94124" lon="-0.95437">
        <ele>4.3</ele>
        <time>2022-06-21T11:10:56Z</time>
      </trkpt>
      <trkpt lat="45.94124" lon="-0.95437">
        <ele>4.3</ele>
        <time>2022-06-21T11:10:57Z</time>
      </trkpt>
      <trkpt lat="45.94124" lon="-0.95437">
        <ele>4.3</ele>
        <time>2022-06-21T11:10:58Z</time>
      </trkpt>
      <trkpt lat="45.94124" lon="-0.95437">
        <ele>4.3</ele>
        <time>2022-06-21T11:10:59Z</time>
      </trkpt>
      <trkpt lat="45.94124" lon="-0.95437">
        <ele>4.3</ele>
        <time>2022-06-21T11:11:00Z</time>
      </trkpt>
      <trkpt lat="45.94124" lon="-0.95437">
        <ele>4.3</ele>
        <time>2022-06-21T11:11:01Z</time>
      </trkpt>
      <trkpt lat="45.94124" lon="-0.95437">
        <ele>4.3</ele>
        <time>2022-06-21T11:11:02Z</time>
      </trkpt>
      <trkpt lat="45.94124" lon="-0.95437">
        <ele>4.3</ele>
        <time>2022-06-21T11:11:03Z</time>
      </trkpt>
      <trkpt lat="45.94124" lon="-0.95437">
        <ele>4.3</ele>
        <time>2022-06-21T11:11:04Z</time>
      </trkpt>
      <trkpt lat="45.94124" lon="-0.95437">
        <ele>4.3</ele>
        <time>2022-06-21T11:11:05Z</time>
      </trkpt>
      <trkpt lat="45.94124" lon="-0.95437">
        <ele>4.3</ele>
        <time>2022-06-21T11:11:06Z</time>
      </trkpt>
      <trkpt lat="45.94124" lon="-0.95437">
        <ele>4.3</ele>
        <time>2022-06-21T11:11:07Z</time>
      </trkpt>
      <trkpt lat="45.94124" lon="-0.95437">
        <ele>4.3</ele>
        <time>2022-06-21T11:11:08Z</time>
      </trkpt>
      <trkpt lat="45.94124" lon="-0.95437">
        <ele>4.3</ele>
        <time>2022-06-21T11:11:09Z</time>
      </trkpt>
      <trkpt lat="45.94124" lon="-0.95437">
        <ele>4.3</ele>
        <time>2022-06-21T11:11:10Z</time>
      </trkpt>
      <trkpt lat="45.94124" lon="-0.95437">
        <ele>4.3</ele>
        <time>2022-06-21T11:11:11Z</time>
      </trkpt>
      <trkpt lat="45.94124" lon="-0.95437">
        <ele>4.3</ele>
        <time>2022-06-21T11:11:12Z</time>
      </trkpt>
      <trkpt lat="45.94124" lon="-0.95437">
        <ele>4.3</ele>
        <time>2022-06-21T11:11:13Z</time>
      </trkpt>
      <trkpt lat="45.94124" lon="-0.95437">
        <ele>4.3</ele>
        <time>2022-06-21T11:11:14Z</time>
      </trkpt>
      <trkpt lat="45.94124" lon="-0.95437">
        <ele>4.3</ele>
        <time>2022-06-21T11:11:15Z</time>
      </trkpt>
      <trkpt lat="45.94124" lon="-0.95437">
        <ele>4.3</ele>
        <time>2022-06-21T11:11:16Z</time>
      </trkpt>
      <trkpt lat="45.94124" lon="-0.95437">
        <ele>4.3</ele>
        <time>2022-06-21T11:11:17Z</time>
      </trkpt>
      <trkpt lat="45.94124" lon="-0.95437">
        <ele>4.3</ele>
        <time>2022-06-21T11:11:18Z</time>
      </trkpt>
      <trkpt lat="45.94124" lon="-0.95437">
        <ele>4.3</ele>
        <time>2022-06-21T11:11:19Z</time>
      </trkpt>
      <trkpt lat="45.94124" lon="-0.95437">
        <ele>4.3</ele>
        <time>2022-06-21T11:11:20Z</time>
      </trkpt>
      <trkpt lat="45.94124" lon="-0.95437">
        <ele>4.3</ele>
        <time>2022-06-21T11:11:21Z</time>
      </trkpt>
      <trkpt lat="45.94124" lon="-0.95437">
        <ele>4.3</ele>
        <time>2022-06-21T11:11:22Z</time>
      </trkpt>
      <trkpt lat="45.94124" lon="-0.95437">
        <ele>4.3</ele>
        <time>2022-06-21T11:11:23Z</time>
      </trkpt>
      <trkpt lat="45.94124" lon="-0.95437">
        <ele>4.3</ele>
        <time>2022-06-21T11:11:24Z</time>
      </trkpt>
      <trkpt lat="45.94124" lon="-0.95437">
        <ele>4.3</ele>
        <time>2022-06-21T11:11:25Z</time>
      </trkpt>
      <trkpt lat="45.94124" lon="-0.95437">
        <ele>4.3</ele>
        <time>2022-06-21T11:11:26Z</time>
      </trkpt>
      <trkpt lat="45.94124" lon="-0.95437">
        <ele>4.3</ele>
        <time>2022-06-21T11:11:27Z</time>
      </trkpt>
      <trkpt lat="45.94124" lon="-0.95437">
        <ele>4.3</ele>
        <time>2022-06-21T11:11:28Z</time>
      </trkpt>
      <trkpt lat="45.94124" lon="-0.95437">
        <ele>4.3</ele>
        <time>2022-06-21T11:11:29Z</time>
      </trkpt>
      <trkpt lat="45.94124" lon="-0.95437">
        <ele>4.3</ele>
        <time>2022-06-21T11:11:30Z</time>
      </trkpt>
      <trkpt lat="45.94124" lon="-0.95437">
        <ele>4.3</ele>
        <time>2022-06-21T11:11:31Z</time>
      </trkpt>
      <trkpt lat="45.94124" lon="-0.95437">
        <ele>4.3</ele>
        <time>2022-06-21T11:11:32Z</time>
      </trkpt>
      <trkpt lat="45.94124" lon="-0.95437">
        <ele>4.3</ele>
        <time>2022-06-21T11:11:33Z</time>
      </trkpt>
      <trkpt lat="45.94124" lon="-0.95437">
        <ele>4.3</ele>
        <time>2022-06-21T11:11:34Z</time>
      </trkpt>
      <trkpt lat="45.94124" lon="-0.95437">
        <ele>4.3</ele>
        <time>2022-06-21T11:11:35Z</time>
      </trkpt>
      <trkpt lat="45.94124" lon="-0.95437">
        <ele>4.3</ele>
        <time>2022-06-21T11:11:36Z</time>
      </trkpt>
      <trkpt lat="45.94124" lon="-0.95437">
        <ele>4.3</ele>
        <time>2022-06-21T11:11:37Z</time>
      </trkpt>
      <trkpt lat="45.94124" lon="-0.95437">
        <ele>4.3</ele>
        <time>2022-06-21T11:11:38Z</time>
      </trkpt>
      <trkpt lat="45.94124" lon="-0.95437">
        <ele>4.3</ele>
        <time>2022-06-21T11:11:39Z</time>
      </trkpt>
      <trkpt lat="45.94124" lon="-0.95437">
        <ele>4.3</ele>
        <time>2022-06-21T11:11:40Z</time>
      </trkpt>
      <trkpt lat="45.94124" lon="-0.95437">
        <ele>4.3</ele>
        <time>2022-06-21T11:11:41Z</time>
      </trkpt>
      <trkpt lat="45.94124" lon="-0.95437">
        <ele>4.3</ele>
        <time>2022-06-21T11:11:42Z</time>
      </trkpt>
      <trkpt lat="45.94124" lon="-0.95437">
        <ele>4.3</ele>
        <time>2022-06-21T11:11:43Z</time>
      </trkpt>
      <trkpt lat="45.94124" lon="-0.95437">
        <ele>4.3</ele>
        <time>2022-06-21T11:11:44Z</time>
      </trkpt>
      <trkpt lat="45.94124" lon="-0.95437">
        <ele>4.3</ele>
        <time>2022-06-21T11:11:45Z</time>
      </trkpt>
      <trkpt lat="45.94124" lon="-0.95437">
        <ele>4.3</ele>
        <time>2022-06-21T11:11:46Z</time>
      </trkpt>
      <trkpt lat="45.94124" lon="-0.95437">
        <ele>4.3</ele>
        <time>2022-06-21T11:11:47Z</time>
      </trkpt>
      <trkpt lat="45.94124" lon="-0.95437">
        <ele>4.3</ele>
        <time>2022-06-21T11:11:48Z</time>
      </trkpt>
      <trkpt lat="45.94124" lon="-0.95437">
        <ele>4.3</ele>
        <time>2022-06-21T11:11:49Z</time>
      </trkpt>
      <trkpt lat="45.94124" lon="-0.95437">
        <ele>4.3</ele>
        <time>2022-06-21T11:11:50Z</time>
      </trkpt>
      <trkpt lat="45.94124" lon="-0.95437">
        <ele>4.3</ele>
        <time>2022-06-21T11:11:51Z</time>
      </trkpt>
      <trkpt lat="45.94124" lon="-0.95437">
        <ele>4.3</ele>
        <time>2022-06-21T11:11:52Z</time>
      </trkpt>
      <trkpt lat="45.94124" lon="-0.95437">
        <ele>4.3</ele>
        <time>2022-06-21T11:11:53Z</time>
      </trkpt>
      <trkpt lat="45.94124" lon="-0.95437">
        <ele>4.3</ele>
        <time>2022-06-21T11:11:54Z</time>
      </trkpt>
      <trkpt lat="45.94124" lon="-0.95437">
        <ele>4.3</ele>
        <time>2022-06-21T11:11:55Z</time>
      </trkpt>
      <trkpt lat="45.94124" lon="-0.95437">
        <ele>4.3</ele>
        <time>2022-06-21T11:11:56Z</time>
      </trkpt>
      <trkpt lat="45.94124" lon="-0.95437">
        <ele>4.3</ele>
        <time>2022-06-21T11:11:57Z</time>
      </trkpt>
      <trkpt lat="45.94124" lon="-0.95437">
        <ele>4.3</ele>
        <time>2022-06-21T11:11:58Z</time>
      </trkpt>
      <trkpt lat="45.94124" lon="-0.95437">
        <ele>4.3</ele>
        <time>2022-06-21T11:11:59Z</time>
      </trkpt>
      <trkpt lat="45.94124" lon="-0.95437">
        <ele>4.3</ele>
        <time>2022-06-21T11:12:00Z</time>
      </trkpt>
      <trkpt lat="45.94124" lon="-0.95436">
        <ele>4.3</ele>
        <time>2022-06-21T11:12:01Z</time>
      </trkpt>
      <trkpt lat="45.94124" lon="-0.95436">
        <ele>4.3</ele>
        <time>2022-06-21T11:12:02Z</time>
      </trkpt>
      <trkpt lat="45.94124" lon="-0.95436">
        <ele>4.3</ele>
        <time>2022-06-21T11:12:03Z</time>
      </trkpt>
      <trkpt lat="45.94124" lon="-0.95436">
        <ele>4.3</ele>
        <time>2022-06-21T11:12:04Z</time>
      </trkpt>
      <trkpt lat="45.94124" lon="-0.95436">
        <ele>4.3</ele>
        <time>2022-06-21T11:12:05Z</time>
      </trkpt>
      <trkpt lat="45.94124" lon="-0.95436">
        <ele>4.3</ele>
        <time>2022-06-21T11:12:06Z</time>
      </trkpt>
      <trkpt lat="45.94124" lon="-0.95436">
        <ele>4.3</ele>
        <time>2022-06-21T11:12:07Z</time>
      </trkpt>
      <trkpt lat="45.94124" lon="-0.95436">
        <ele>4.3</ele>
        <time>2022-06-21T11:12:08Z</time>
      </trkpt>
      <trkpt lat="45.94124" lon="-0.95436">
        <ele>4.3</ele>
        <time>2022-06-21T11:12:09Z</time>
      </trkpt>
      <trkpt lat="45.94124" lon="-0.95436">
        <ele>4.3</ele>
        <time>2022-06-21T11:12:10Z</time>
      </trkpt>
      <trkpt lat="45.94124" lon="-0.95436">
        <ele>4.3</ele>
        <time>2022-06-21T11:12:11Z</time>
      </trkpt>
      <trkpt lat="45.94124" lon="-0.95436">
        <ele>4.3</ele>
        <time>2022-06-21T11:12:12Z</time>
      </trkpt>
      <trkpt lat="45.94124" lon="-0.95436">
        <ele>4.3</ele>
        <time>2022-06-21T11:12:13Z</time>
      </trkpt>
      <trkpt lat="45.94124" lon="-0.95436">
        <ele>4.3</ele>
        <time>2022-06-21T11:12:14Z</time>
      </trkpt>
      <trkpt lat="45.94124" lon="-0.95436">
        <ele>4.3</ele>
        <time>2022-06-21T11:12:15Z</time>
      </trkpt>
      <trkpt lat="45.94124" lon="-0.95436">
        <ele>4.3</ele>
        <time>2022-06-21T11:12:16Z</time>
      </trkpt>
      <trkpt lat="45.94124" lon="-0.95436">
        <ele>4.3</ele>
        <time>2022-06-21T11:12:17Z</time>
      </trkpt>
      <trkpt lat="45.94124" lon="-0.95436">
        <ele>4.3</ele>
        <time>2022-06-21T11:12:18Z</time>
      </trkpt>
      <trkpt lat="45.94124" lon="-0.95436">
        <ele>4.3</ele>
        <time>2022-06-21T11:12:19Z</time>
      </trkpt>
      <trkpt lat="45.94124" lon="-0.95436">
        <ele>4.3</ele>
        <time>2022-06-21T11:12:20Z</time>
      </trkpt>
      <trkpt lat="45.94124" lon="-0.95436">
        <ele>4.3</ele>
        <time>2022-06-21T11:12:21Z</time>
      </trkpt>
      <trkpt lat="45.94124" lon="-0.95436">
        <ele>4.3</ele>
        <time>2022-06-21T11:12:22Z</time>
      </trkpt>
      <trkpt lat="45.94124" lon="-0.95436">
        <ele>4.3</ele>
        <time>2022-06-21T11:12:23Z</time>
      </trkpt>
      <trkpt lat="45.94124" lon="-0.95436">
        <ele>4.3</ele>
        <time>2022-06-21T11:12:24Z</time>
      </trkpt>
      <trkpt lat="45.94124" lon="-0.95436">
        <ele>4.3</ele>
        <time>2022-06-21T11:12:25Z</time>
      </trkpt>
      <trkpt lat="45.94124" lon="-0.95436">
        <ele>4.3</ele>
        <time>2022-06-21T11:12:26Z</time>
      </trkpt>
      <trkpt lat="45.94124" lon="-0.95436">
        <ele>4.3</ele>
        <time>2022-06-21T11:12:27Z</time>
      </trkpt>
      <trkpt lat="45.94124" lon="-0.95436">
        <ele>4.3</ele>
        <time>2022-06-21T11:12:28Z</time>
      </trkpt>
      <trkpt lat="45.94124" lon="-0.95436">
        <ele>4.3</ele>
        <time>2022-06-21T11:12:29Z</time>
      </trkpt>
      <trkpt lat="45.94124" lon="-0.95436">
        <ele>4.3</ele>
        <time>2022-06-21T11:12:30Z</time>
      </trkpt>
      <trkpt lat="45.94124" lon="-0.95436">
        <ele>4.3</ele>
        <time>2022-06-21T11:12:31Z</time>
      </trkpt>
      <trkpt lat="45.94124" lon="-0.95436">
        <ele>4.3</ele>
        <time>2022-06-21T11:12:32Z</time>
      </trkpt>
      <trkpt lat="45.94124" lon="-0.95436">
        <ele>4.3</ele>
        <time>2022-06-21T11:12:33Z</time>
      </trkpt>
      <trkpt lat="45.94124" lon="-0.95436">
        <ele>4.3</ele>
        <time>2022-06-21T11:12:34Z</time>
      </trkpt>
      <trkpt lat="45.94124" lon="-0.95436">
        <ele>4.3</ele>
        <time>2022-06-21T11:12:35Z</time>
      </trkpt>
      <trkpt lat="45.94124" lon="-0.95436">
        <ele>4.3</ele>
        <time>2022-06-21T11:12:36Z</time>
      </trkpt>
      <trkpt lat="45.94124" lon="-0.95436">
        <ele>4.3</ele>
        <time>2022-06-21T11:12:37Z</time>
      </trkpt>
      <trkpt lat="45.94124" lon="-0.95436">
        <ele>4.3</ele>
        <time>2022-06-21T11:12:38Z</time>
      </trkpt>
      <trkpt lat="45.94124" lon="-0.95436">
        <ele>4.3</ele>
        <time>2022-06-21T11:12:39Z</time>
      </trkpt>
      <trkpt lat="45.94124" lon="-0.95436">
        <ele>4.3</ele>
        <time>2022-06-21T11:12:40Z</time>
      </trkpt>
      <trkpt lat="45.94124" lon="-0.95436">
        <ele>4.3</ele>
        <time>2022-06-21T11:12:41Z</time>
      </trkpt>
      <trkpt lat="45.94124" lon="-0.95436">
        <ele>4.3</ele>
        <time>2022-06-21T11:12:42Z</time>
      </trkpt>
      <trkpt lat="45.94124" lon="-0.95436">
        <ele>4.3</ele>
        <time>2022-06-21T11:12:43Z</time>
      </trkpt>
      <trkpt lat="45.94124" lon="-0.95436">
        <ele>4.3</ele>
        <time>2022-06-21T11:12:44Z</time>
      </trkpt>
      <trkpt lat="45.94124" lon="-0.95436">
        <ele>4.3</ele>
        <time>2022-06-21T11:12:45Z</time>
      </trkpt>
      <trkpt lat="45.94124" lon="-0.95436">
        <ele>4.3</ele>
        <time>2022-06-21T11:12:46Z</time>
      </trkpt>
      <trkpt lat="45.94124" lon="-0.95436">
        <ele>4.3</ele>
        <time>2022-06-21T11:12:47Z</time>
      </trkpt>
      <trkpt lat="45.94124" lon="-0.95436">
        <ele>4.3</ele>
        <time>2022-06-21T11:12:48Z</time>
      </trkpt>
      <trkpt lat="45.94124" lon="-0.95436">
        <ele>4.3</ele>
        <time>2022-06-21T11:12:49Z</time>
      </trkpt>
      <trkpt lat="45.94124" lon="-0.95436">
        <ele>4.3</ele>
        <time>2022-06-21T11:12:50Z</time>
      </trkpt>
      <trkpt lat="45.94124" lon="-0.95436">
        <ele>4.3</ele>
        <time>2022-06-21T11:12:51Z</time>
      </trkpt>
      <trkpt lat="45.94124" lon="-0.95436">
        <ele>4.3</ele>
        <time>2022-06-21T11:12:52Z</time>
      </trkpt>
      <trkpt lat="45.94124" lon="-0.95436">
        <ele>4.3</ele>
        <time>2022-06-21T11:12:53Z</time>
      </trkpt>
      <trkpt lat="45.94124" lon="-0.95436">
        <ele>4.3</ele>
        <time>2022-06-21T11:12:54Z</time>
      </trkpt>
      <trkpt lat="45.94124" lon="-0.95436">
        <ele>4.3</ele>
        <time>2022-06-21T11:12:55Z</time>
      </trkpt>
      <trkpt lat="45.94124" lon="-0.95436">
        <ele>4.3</ele>
        <time>2022-06-21T11:12:56Z</time>
      </trkpt>
      <trkpt lat="45.94124" lon="-0.95436">
        <ele>4.3</ele>
        <time>2022-06-21T11:12:57Z</time>
      </trkpt>
      <trkpt lat="45.94124" lon="-0.95436">
        <ele>4.3</ele>
        <time>2022-06-21T11:12:58Z</time>
      </trkpt>
      <trkpt lat="45.94124" lon="-0.95436">
        <ele>4.3</ele>
        <time>2022-06-21T11:12:59Z</time>
      </trkpt>
      <trkpt lat="45.94124" lon="-0.95436">
        <ele>4.3</ele>
        <time>2022-06-21T11:13:00Z</time>
      </trkpt>
      <trkpt lat="45.94124" lon="-0.95436">
        <ele>4.3</ele>
        <time>2022-06-21T11:13:01Z</time>
      </trkpt>
      <trkpt lat="45.94124" lon="-0.95436">
        <ele>4.3</ele>
        <time>2022-06-21T11:13:02Z</time>
      </trkpt>
      <trkpt lat="45.94124" lon="-0.95436">
        <ele>4.3</ele>
        <time>2022-06-21T11:13:03Z</time>
      </trkpt>
      <trkpt lat="45.94124" lon="-0.95436">
        <ele>4.3</ele>
        <time>2022-06-21T11:13:04Z</time>
      </trkpt>
      <trkpt lat="45.94124" lon="-0.95436">
        <ele>4.3</ele>
        <time>2022-06-21T11:13:05Z</time>
      </trkpt>
      <trkpt lat="45.94124" lon="-0.95436">
        <ele>4.3</ele>
        <time>2022-06-21T11:13:06Z</time>
      </trkpt>
      <trkpt lat="45.94124" lon="-0.95436">
        <ele>4.3</ele>
        <time>2022-06-21T11:13:07Z</time>
      </trkpt>
      <trkpt lat="45.94124" lon="-0.95436">
        <ele>4.3</ele>
        <time>2022-06-21T11:13:08Z</time>
      </trkpt>
      <trkpt lat="45.94124" lon="-0.95436">
        <ele>4.3</ele>
        <time>2022-06-21T11:13:09Z</time>
      </trkpt>
      <trkpt lat="45.94124" lon="-0.95436">
        <ele>4.3</ele>
        <time>2022-06-21T11:13:10Z</time>
      </trkpt>
      <trkpt lat="45.94124" lon="-0.95436">
        <ele>4.3</ele>
        <time>2022-06-21T11:13:11Z</time>
      </trkpt>
      <trkpt lat="45.94124" lon="-0.95436">
        <ele>4.3</ele>
        <time>2022-06-21T11:13:12Z</time>
      </trkpt>
      <trkpt lat="45.94124" lon="-0.95436">
        <ele>4.3</ele>
        <time>2022-06-21T11:13:13Z</time>
      </trkpt>
      <trkpt lat="45.94124" lon="-0.95436">
        <ele>4.3</ele>
        <time>2022-06-21T11:13:14Z</time>
      </trkpt>
      <trkpt lat="45.94124" lon="-0.95436">
        <ele>4.3</ele>
        <time>2022-06-21T11:13:15Z</time>
      </trkpt>
      <trkpt lat="45.94124" lon="-0.95436">
        <ele>4.3</ele>
        <time>2022-06-21T11:13:16Z</time>
      </trkpt>
      <trkpt lat="45.94124" lon="-0.95436">
        <ele>4.3</ele>
        <time>2022-06-21T11:13:17Z</time>
      </trkpt>
      <trkpt lat="45.94124" lon="-0.95436">
        <ele>4.3</ele>
        <time>2022-06-21T11:13:18Z</time>
      </trkpt>
      <trkpt lat="45.94124" lon="-0.95436">
        <ele>4.3</ele>
        <time>2022-06-21T11:13:19Z</time>
      </trkpt>
      <trkpt lat="45.94124" lon="-0.95436">
        <ele>4.3</ele>
        <time>2022-06-21T11:13:20Z</time>
      </trkpt>
      <trkpt lat="45.94124" lon="-0.95436">
        <ele>4.3</ele>
        <time>2022-06-21T11:13:21Z</time>
      </trkpt>
      <trkpt lat="45.94124" lon="-0.95436">
        <ele>4.3</ele>
        <time>2022-06-21T11:13:22Z</time>
      </trkpt>
      <trkpt lat="45.94124" lon="-0.95436">
        <ele>4.3</ele>
        <time>2022-06-21T11:13:23Z</time>
      </trkpt>
      <trkpt lat="45.94124" lon="-0.95436">
        <ele>4.3</ele>
        <time>2022-06-21T11:13:24Z</time>
      </trkpt>
      <trkpt lat="45.94124" lon="-0.95436">
        <ele>4.3</ele>
        <time>2022-06-21T11:13:25Z</time>
      </trkpt>
      <trkpt lat="45.94124" lon="-0.95436">
        <ele>4.3</ele>
        <time>2022-06-21T11:13:26Z</time>
      </trkpt>
      <trkpt lat="45.94124" lon="-0.95436">
        <ele>4.3</ele>
        <time>2022-06-21T11:13:27Z</time>
      </trkpt>
      <trkpt lat="45.94124" lon="-0.95436">
        <ele>4.3</ele>
        <time>2022-06-21T11:13:28Z</time>
      </trkpt>
      <trkpt lat="45.94124" lon="-0.95436">
        <ele>4.3</ele>
        <time>2022-06-21T11:13:29Z</time>
      </trkpt>
      <trkpt lat="45.94124" lon="-0.95436">
        <ele>4.3</ele>
        <time>2022-06-21T11:13:30Z</time>
      </trkpt>
      <trkpt lat="45.94124" lon="-0.95436">
        <ele>4.3</ele>
        <time>2022-06-21T11:13:31Z</time>
      </trkpt>
      <trkpt lat="45.94124" lon="-0.95436">
        <ele>4.3</ele>
        <time>2022-06-21T11:13:32Z</time>
      </trkpt>
      <trkpt lat="45.94124" lon="-0.95436">
        <ele>4.3</ele>
        <time>2022-06-21T11:13:33Z</time>
      </trkpt>
      <trkpt lat="45.94124" lon="-0.95436">
        <ele>4.3</ele>
        <time>2022-06-21T11:13:34Z</time>
      </trkpt>
      <trkpt lat="45.94124" lon="-0.95436">
        <ele>4.3</ele>
        <time>2022-06-21T11:13:35Z</time>
      </trkpt>
      <trkpt lat="45.94124" lon="-0.95436">
        <ele>4.3</ele>
        <time>2022-06-21T11:13:36Z</time>
      </trkpt>
      <trkpt lat="45.94124" lon="-0.95436">
        <ele>4.3</ele>
        <time>2022-06-21T11:13:37Z</time>
      </trkpt>
      <trkpt lat="45.94124" lon="-0.95436">
        <ele>4.3</ele>
        <time>2022-06-21T11:13:38Z</time>
      </trkpt>
      <trkpt lat="45.94124" lon="-0.95436">
        <ele>4.3</ele>
        <time>2022-06-21T11:13:39Z</time>
      </trkpt>
      <trkpt lat="45.94124" lon="-0.95436">
        <ele>4.3</ele>
        <time>2022-06-21T11:13:40Z</time>
      </trkpt>
      <trkpt lat="45.94124" lon="-0.95436">
        <ele>4.3</ele>
        <time>2022-06-21T11:13:41Z</time>
      </trkpt>
      <trkpt lat="45.94124" lon="-0.95436">
        <ele>4.3</ele>
        <time>2022-06-21T11:13:42Z</time>
      </trkpt>
      <trkpt lat="45.94124" lon="-0.95436">
        <ele>4.3</ele>
        <time>2022-06-21T11:13:43Z</time>
      </trkpt>
      <trkpt lat="45.94124" lon="-0.95436">
        <ele>4.3</ele>
        <time>2022-06-21T11:13:44Z</time>
      </trkpt>
      <trkpt lat="45.94124" lon="-0.95436">
        <ele>4.3</ele>
        <time>2022-06-21T11:13:45Z</time>
      </trkpt>
      <trkpt lat="45.94124" lon="-0.95436">
        <ele>4.3</ele>
        <time>2022-06-21T11:13:46Z</time>
      </trkpt>
      <trkpt lat="45.94124" lon="-0.95436">
        <ele>4.3</ele>
        <time>2022-06-21T11:13:47Z</time>
      </trkpt>
      <trkpt lat="45.94124" lon="-0.95436">
        <ele>4.3</ele>
        <time>2022-06-21T11:13:48Z</time>
      </trkpt>
      <trkpt lat="45.94124" lon="-0.95436">
        <ele>4.3</ele>
        <time>2022-06-21T11:13:49Z</time>
      </trkpt>
      <trkpt lat="45.94124" lon="-0.95436">
        <ele>4.3</ele>
        <time>2022-06-21T11:13:50Z</time>
      </trkpt>
      <trkpt lat="45.94124" lon="-0.95436">
        <ele>4.3</ele>
        <time>2022-06-21T11:13:51Z</time>
      </trkpt>
      <trkpt lat="45.94124" lon="-0.95436">
        <ele>4.3</ele>
        <time>2022-06-21T11:13:52Z</time>
      </trkpt>
      <trkpt lat="45.94124" lon="-0.95436">
        <ele>4.3</ele>
        <time>2022-06-21T11:13:53Z</time>
      </trkpt>
      <trkpt lat="45.94124" lon="-0.95436">
        <ele>4.3</ele>
        <time>2022-06-21T11:13:54Z</time>
      </trkpt>
      <trkpt lat="45.94124" lon="-0.95436">
        <ele>4.3</ele>
        <time>2022-06-21T11:13:55Z</time>
      </trkpt>
      <trkpt lat="45.94124" lon="-0.95436">
        <ele>4.3</ele>
        <time>2022-06-21T11:13:56Z</time>
      </trkpt>
      <trkpt lat="45.94124" lon="-0.95436">
        <ele>4.3</ele>
        <time>2022-06-21T11:13:57Z</time>
      </trkpt>
      <trkpt lat="45.94124" lon="-0.95436">
        <ele>4.3</ele>
        <time>2022-06-21T11:13:58Z</time>
      </trkpt>
      <trkpt lat="45.94124" lon="-0.95436">
        <ele>4.3</ele>
        <time>2022-06-21T11:13:59Z</time>
      </trkpt>
      <trkpt lat="45.94124" lon="-0.95436">
        <ele>4.3</ele>
        <time>2022-06-21T11:14:00Z</time>
      </trkpt>
      <trkpt lat="45.94124" lon="-0.95436">
        <ele>4.3</ele>
        <time>2022-06-21T11:14:01Z</time>
      </trkpt>
      <trkpt lat="45.94124" lon="-0.95436">
        <ele>4.3</ele>
        <time>2022-06-21T11:14:02Z</time>
      </trkpt>
      <trkpt lat="45.94124" lon="-0.95436">
        <ele>4.3</ele>
        <time>2022-06-21T11:14:03Z</time>
      </trkpt>
      <trkpt lat="45.94124" lon="-0.95436">
        <ele>4.3</ele>
        <time>2022-06-21T11:14:04Z</time>
      </trkpt>
      <trkpt lat="45.94124" lon="-0.95436">
        <ele>4.3</ele>
        <time>2022-06-21T11:14:05Z</time>
      </trkpt>
      <trkpt lat="45.94124" lon="-0.95436">
        <ele>4.3</ele>
        <time>2022-06-21T11:14:06Z</time>
      </trkpt>
      <trkpt lat="45.94124" lon="-0.95436">
        <ele>4.3</ele>
        <time>2022-06-21T11:14:07Z</time>
      </trkpt>
      <trkpt lat="45.94124" lon="-0.95436">
        <ele>4.3</ele>
        <time>2022-06-21T11:14:08Z</time>
      </trkpt>
      <trkpt lat="45.94124" lon="-0.95436">
        <ele>4.3</ele>
        <time>2022-06-21T11:14:09Z</time>
      </trkpt>
      <trkpt lat="45.94124" lon="-0.95436">
        <ele>4.3</ele>
        <time>2022-06-21T11:14:10Z</time>
      </trkpt>
      <trkpt lat="45.94124" lon="-0.95436">
        <ele>4.3</ele>
        <time>2022-06-21T11:14:11Z</time>
      </trkpt>
      <trkpt lat="45.94124" lon="-0.95436">
        <ele>4.3</ele>
        <time>2022-06-21T11:14:12Z</time>
      </trkpt>
      <trkpt lat="45.94124" lon="-0.95436">
        <ele>4.3</ele>
        <time>2022-06-21T11:14:13Z</time>
      </trkpt>
      <trkpt lat="45.94124" lon="-0.95436">
        <ele>4.3</ele>
        <time>2022-06-21T11:14:14Z</time>
      </trkpt>
      <trkpt lat="45.94124" lon="-0.95436">
        <ele>4.3</ele>
        <time>2022-06-21T11:14:15Z</time>
      </trkpt>
      <trkpt lat="45.94124" lon="-0.95436">
        <ele>4.3</ele>
        <time>2022-06-21T11:14:16Z</time>
      </trkpt>
      <trkpt lat="45.94124" lon="-0.95436">
        <ele>4.3</ele>
        <time>2022-06-21T11:14:17Z</time>
      </trkpt>
      <trkpt lat="45.94124" lon="-0.95436">
        <ele>4.3</ele>
        <time>2022-06-21T11:14:18Z</time>
      </trkpt>
      <trkpt lat="45.94124" lon="-0.95436">
        <ele>4.3</ele>
        <time>2022-06-21T11:14:19Z</time>
      </trkpt>
      <trkpt lat="45.94124" lon="-0.95436">
        <ele>4.3</ele>
        <time>2022-06-21T11:14:20Z</time>
      </trkpt>
      <trkpt lat="45.94124" lon="-0.95436">
        <ele>4.3</ele>
        <time>2022-06-21T11:14:21Z</time>
      </trkpt>
      <trkpt lat="45.94124" lon="-0.95436">
        <ele>4.3</ele>
        <time>2022-06-21T11:14:22Z</time>
      </trkpt>
      <trkpt lat="45.94124" lon="-0.95436">
        <ele>4.3</ele>
        <time>2022-06-21T11:14:23Z</time>
      </trkpt>
      <trkpt lat="45.94124" lon="-0.95436">
        <ele>4.3</ele>
        <time>2022-06-21T11:14:24Z</time>
      </trkpt>
      <trkpt lat="45.94124" lon="-0.95436">
        <ele>4.3</ele>
        <time>2022-06-21T11:14:25Z</time>
      </trkpt>
      <trkpt lat="45.94124" lon="-0.95436">
        <ele>4.3</ele>
        <time>2022-06-21T11:14:26Z</time>
      </trkpt>
      <trkpt lat="45.94124" lon="-0.95436">
        <ele>4.3</ele>
        <time>2022-06-21T11:14:27Z</time>
      </trkpt>
      <trkpt lat="45.94124" lon="-0.95436">
        <ele>4.3</ele>
        <time>2022-06-21T11:14:28Z</time>
      </trkpt>
      <trkpt lat="45.94124" lon="-0.95436">
        <ele>4.3</ele>
        <time>2022-06-21T11:14:29Z</time>
      </trkpt>
      <trkpt lat="45.94124" lon="-0.95436">
        <ele>4.3</ele>
        <time>2022-06-21T11:14:30Z</time>
      </trkpt>
      <trkpt lat="45.94124" lon="-0.95436">
        <ele>4.3</ele>
        <time>2022-06-21T11:14:31Z</time>
      </trkpt>
      <trkpt lat="45.94124" lon="-0.95436">
        <ele>4.3</ele>
        <time>2022-06-21T11:14:32Z</time>
      </trkpt>
      <trkpt lat="45.94124" lon="-0.95436">
        <ele>4.3</ele>
        <time>2022-06-21T11:14:33Z</time>
      </trkpt>
      <trkpt lat="45.94124" lon="-0.95436">
        <ele>4.3</ele>
        <time>2022-06-21T11:14:34Z</time>
      </trkpt>
      <trkpt lat="45.94124" lon="-0.95436">
        <ele>4.3</ele>
        <time>2022-06-21T11:14:35Z</time>
      </trkpt>
      <trkpt lat="45.94124" lon="-0.95436">
        <ele>4.3</ele>
        <time>2022-06-21T11:14:36Z</time>
      </trkpt>
      <trkpt lat="45.94124" lon="-0.95436">
        <ele>4.3</ele>
        <time>2022-06-21T11:14:37Z</time>
      </trkpt>
      <trkpt lat="45.94124" lon="-0.95436">
        <ele>4.3</ele>
        <time>2022-06-21T11:14:38Z</time>
      </trkpt>
      <trkpt lat="45.94124" lon="-0.95436">
        <ele>4.3</ele>
        <time>2022-06-21T11:14:39Z</time>
      </trkpt>
      <trkpt lat="45.94124" lon="-0.95436">
        <ele>4.3</ele>
        <time>2022-06-21T11:14:40Z</time>
      </trkpt>
      <trkpt lat="45.94124" lon="-0.95436">
        <ele>4.3</ele>
        <time>2022-06-21T11:14:41Z</time>
      </trkpt>
      <trkpt lat="45.94124" lon="-0.95436">
        <ele>4.3</ele>
        <time>2022-06-21T11:14:42Z</time>
      </trkpt>
      <trkpt lat="45.94124" lon="-0.95436">
        <ele>4.3</ele>
        <time>2022-06-21T11:14:43Z</time>
      </trkpt>
      <trkpt lat="45.94124" lon="-0.95436">
        <ele>4.3</ele>
        <time>2022-06-21T11:14:44Z</time>
      </trkpt>
      <trkpt lat="45.94124" lon="-0.95436">
        <ele>4.3</ele>
        <time>2022-06-21T11:14:45Z</time>
      </trkpt>
      <trkpt lat="45.94124" lon="-0.95436">
        <ele>4.3</ele>
        <time>2022-06-21T11:14:46Z</time>
      </trkpt>
      <trkpt lat="45.94124" lon="-0.95436">
        <ele>4.3</ele>
        <time>2022-06-21T11:14:47Z</time>
      </trkpt>
      <trkpt lat="45.94124" lon="-0.95436">
        <ele>4.3</ele>
        <time>2022-06-21T11:14:48Z</time>
      </trkpt>
      <trkpt lat="45.94124" lon="-0.95436">
        <ele>4.3</ele>
        <time>2022-06-21T11:14:49Z</time>
      </trkpt>
      <trkpt lat="45.94124" lon="-0.95436">
        <ele>4.3</ele>
        <time>2022-06-21T11:14:50Z</time>
      </trkpt>
      <trkpt lat="45.94124" lon="-0.95436">
        <ele>4.3</ele>
        <time>2022-06-21T11:14:51Z</time>
      </trkpt>
      <trkpt lat="45.94124" lon="-0.95436">
        <ele>4.3</ele>
        <time>2022-06-21T11:14:52Z</time>
      </trkpt>
      <trkpt lat="45.94124" lon="-0.95436">
        <ele>4.3</ele>
        <time>2022-06-21T11:14:53Z</time>
      </trkpt>
      <trkpt lat="45.94124" lon="-0.95436">
        <ele>4.3</ele>
        <time>2022-06-21T11:14:54Z</time>
      </trkpt>
      <trkpt lat="45.94124" lon="-0.95436">
        <ele>4.3</ele>
        <time>2022-06-21T11:14:55Z</time>
      </trkpt>
      <trkpt lat="45.94124" lon="-0.95436">
        <ele>4.3</ele>
        <time>2022-06-21T11:14:56Z</time>
      </trkpt>
      <trkpt lat="45.94124" lon="-0.95436">
        <ele>4.3</ele>
        <time>2022-06-21T11:14:57Z</time>
      </trkpt>
      <trkpt lat="45.94124" lon="-0.95436">
        <ele>4.3</ele>
        <time>2022-06-21T11:14:58Z</time>
      </trkpt>
      <trkpt lat="45.94124" lon="-0.95436">
        <ele>4.3</ele>
        <time>2022-06-21T11:14:59Z</time>
      </trkpt>
      <trkpt lat="45.94124" lon="-0.95436">
        <ele>4.3</ele>
        <time>2022-06-21T11:15:00Z</time>
      </trkpt>
      <trkpt lat="45.94124" lon="-0.95436">
        <ele>4.3</ele>
        <time>2022-06-21T11:15:01Z</time>
      </trkpt>
      <trkpt lat="45.94124" lon="-0.95436">
        <ele>4.3</ele>
        <time>2022-06-21T11:15:02Z</time>
      </trkpt>
      <trkpt lat="45.94124" lon="-0.95436">
        <ele>4.3</ele>
        <time>2022-06-21T11:15:03Z</time>
      </trkpt>
      <trkpt lat="45.94124" lon="-0.95436">
        <ele>4.3</ele>
        <time>2022-06-21T11:15:04Z</time>
      </trkpt>
      <trkpt lat="45.94124" lon="-0.95436">
        <ele>4.3</ele>
        <time>2022-06-21T11:15:05Z</time>
      </trkpt>
      <trkpt lat="45.94124" lon="-0.95436">
        <ele>4.3</ele>
        <time>2022-06-21T11:15:06Z</time>
      </trkpt>
      <trkpt lat="45.94124" lon="-0.95436">
        <ele>4.3</ele>
        <time>2022-06-21T11:15:07Z</time>
      </trkpt>
      <trkpt lat="45.94124" lon="-0.95436">
        <ele>4.3</ele>
        <time>2022-06-21T11:15:08Z</time>
      </trkpt>
      <trkpt lat="45.94124" lon="-0.95436">
        <ele>4.3</ele>
        <time>2022-06-21T11:15:09Z</time>
      </trkpt>
      <trkpt lat="45.94124" lon="-0.95436">
        <ele>4.3</ele>
        <time>2022-06-21T11:15:10Z</time>
      </trkpt>
      <trkpt lat="45.94124" lon="-0.95436">
        <ele>4.3</ele>
        <time>2022-06-21T11:15:11Z</time>
      </trkpt>
      <trkpt lat="45.94124" lon="-0.95436">
        <ele>4.3</ele>
        <time>2022-06-21T11:15:12Z</time>
      </trkpt>
      <trkpt lat="45.94124" lon="-0.95436">
        <ele>4.3</ele>
        <time>2022-06-21T11:15:13Z</time>
      </trkpt>
      <trkpt lat="45.94124" lon="-0.95436">
        <ele>4.3</ele>
        <time>2022-06-21T11:15:14Z</time>
      </trkpt>
      <trkpt lat="45.94124" lon="-0.95436">
        <ele>4.3</ele>
        <time>2022-06-21T11:15:15Z</time>
      </trkpt>
      <trkpt lat="45.94124" lon="-0.95436">
        <ele>4.3</ele>
        <time>2022-06-21T11:15:16Z</time>
      </trkpt>
      <trkpt lat="45.94124" lon="-0.95436">
        <ele>4.4</ele>
        <time>2022-06-21T11:15:17Z</time>
      </trkpt>
      <trkpt lat="45.94124" lon="-0.95436">
        <ele>4.4</ele>
        <time>2022-06-21T11:15:18Z</time>
      </trkpt>
      <trkpt lat="45.94124" lon="-0.95436">
        <ele>4.4</ele>
        <time>2022-06-21T11:15:19Z</time>
      </trkpt>
      <trkpt lat="45.94124" lon="-0.95436">
        <ele>4.4</ele>
        <time>2022-06-21T11:15:20Z</time>
      </trkpt>
      <trkpt lat="45.94124" lon="-0.95436">
        <ele>4.4</ele>
        <time>2022-06-21T11:15:21Z</time>
      </trkpt>
      <trkpt lat="45.94124" lon="-0.95436">
        <ele>4.4</ele>
        <time>2022-06-21T11:15:22Z</time>
      </trkpt>
      <trkpt lat="45.94124" lon="-0.95436">
        <ele>4.4</ele>
        <time>2022-06-21T11:15:23Z</time>
      </trkpt>
      <trkpt lat="45.94124" lon="-0.95436">
        <ele>4.4</ele>
        <time>2022-06-21T11:15:24Z</time>
      </trkpt>
      <trkpt lat="45.94124" lon="-0.95436">
        <ele>4.4</ele>
        <time>2022-06-21T11:15:25Z</time>
      </trkpt>
      <trkpt lat="45.94124" lon="-0.95436">
        <ele>4.4</ele>
        <time>2022-06-21T11:15:26Z</time>
      </trkpt>
      <trkpt lat="45.94124" lon="-0.95436">
        <ele>4.4</ele>
        <time>2022-06-21T11:15:27Z</time>
      </trkpt>
      <trkpt lat="45.94124" lon="-0.95436">
        <ele>4.4</ele>
        <time>2022-06-21T11:15:28Z</time>
      </trkpt>
      <trkpt lat="45.94124" lon="-0.95436">
        <ele>4.4</ele>
        <time>2022-06-21T11:15:29Z</time>
      </trkpt>
      <trkpt lat="45.94124" lon="-0.95436">
        <ele>4.4</ele>
        <time>2022-06-21T11:15:30Z</time>
      </trkpt>
      <trkpt lat="45.94124" lon="-0.95436">
        <ele>4.4</ele>
        <time>2022-06-21T11:15:31Z</time>
      </trkpt>
      <trkpt lat="45.94124" lon="-0.95436">
        <ele>4.4</ele>
        <time>2022-06-21T11:15:32Z</time>
      </trkpt>
      <trkpt lat="45.94124" lon="-0.95436">
        <ele>4.4</ele>
        <time>2022-06-21T11:15:33Z</time>
      </trkpt>
      <trkpt lat="45.94124" lon="-0.95436">
        <ele>4.4</ele>
        <time>2022-06-21T11:15:34Z</time>
      </trkpt>
      <trkpt lat="45.94124" lon="-0.95436">
        <ele>4.4</ele>
        <time>2022-06-21T11:15:35Z</time>
      </trkpt>
      <trkpt lat="45.94124" lon="-0.95436">
        <ele>4.4</ele>
        <time>2022-06-21T11:15:36Z</time>
      </trkpt>
      <trkpt lat="45.94124" lon="-0.95436">
        <ele>4.4</ele>
        <time>2022-06-21T11:15:37Z</time>
      </trkpt>
      <trkpt lat="45.94124" lon="-0.95436">
        <ele>4.4</ele>
        <time>2022-06-21T11:15:38Z</time>
      </trkpt>
      <trkpt lat="45.94124" lon="-0.95436">
        <ele>4.4</ele>
        <time>2022-06-21T11:15:39Z</time>
      </trkpt>
      <trkpt lat="45.94124" lon="-0.95436">
        <ele>4.4</ele>
        <time>2022-06-21T11:15:40Z</time>
      </trkpt>
      <trkpt lat="45.94124" lon="-0.95436">
        <ele>4.4</ele>
        <time>2022-06-21T11:15:41Z</time>
      </trkpt>
      <trkpt lat="45.94124" lon="-0.95436">
        <ele>4.4</ele>
        <time>2022-06-21T11:15:42Z</time>
      </trkpt>
      <trkpt lat="45.94124" lon="-0.95436">
        <ele>4.4</ele>
        <time>2022-06-21T11:15:43Z</time>
      </trkpt>
      <trkpt lat="45.94124" lon="-0.95436">
        <ele>4.4</ele>
        <time>2022-06-21T11:15:44Z</time>
      </trkpt>
      <trkpt lat="45.94124" lon="-0.95436">
        <ele>4.4</ele>
        <time>2022-06-21T11:15:45Z</time>
      </trkpt>
      <trkpt lat="45.94124" lon="-0.95436">
        <ele>4.4</ele>
        <time>2022-06-21T11:15:46Z</time>
      </trkpt>
      <trkpt lat="45.94124" lon="-0.95436">
        <ele>4.4</ele>
        <time>2022-06-21T11:15:47Z</time>
      </trkpt>
      <trkpt lat="45.94124" lon="-0.95436">
        <ele>4.4</ele>
        <time>2022-06-21T11:15:48Z</time>
      </trkpt>
      <trkpt lat="45.94124" lon="-0.95436">
        <ele>4.4</ele>
        <time>2022-06-21T11:15:49Z</time>
      </trkpt>
      <trkpt lat="45.94124" lon="-0.95436">
        <ele>4.4</ele>
        <time>2022-06-21T11:15:50Z</time>
      </trkpt>
      <trkpt lat="45.94124" lon="-0.95436">
        <ele>4.5</ele>
        <time>2022-06-21T11:15:51Z</time>
      </trkpt>
      <trkpt lat="45.94124" lon="-0.95436">
        <ele>4.5</ele>
        <time>2022-06-21T11:15:52Z</time>
      </trkpt>
      <trkpt lat="45.94124" lon="-0.95436">
        <ele>4.5</ele>
        <time>2022-06-21T11:15:53Z</time>
      </trkpt>
      <trkpt lat="45.94124" lon="-0.95436">
        <ele>4.5</ele>
        <time>2022-06-21T11:15:54Z</time>
      </trkpt>
      <trkpt lat="45.94124" lon="-0.95436">
        <ele>4.5</ele>
        <time>2022-06-21T11:15:55Z</time>
      </trkpt>
      <trkpt lat="45.94124" lon="-0.95436">
        <ele>4.5</ele>
        <time>2022-06-21T11:15:56Z</time>
      </trkpt>
      <trkpt lat="45.94124" lon="-0.95436">
        <ele>4.5</ele>
        <time>2022-06-21T11:15:57Z</time>
      </trkpt>
      <trkpt lat="45.94124" lon="-0.95436">
        <ele>4.5</ele>
        <time>2022-06-21T11:15:58Z</time>
      </trkpt>
      <trkpt lat="45.94124" lon="-0.95436">
        <ele>4.5</ele>
        <time>2022-06-21T11:15:59Z</time>
      </trkpt>
      <trkpt lat="45.94124" lon="-0.95436">
        <ele>4.5</ele>
        <time>2022-06-21T11:16:00Z</time>
      </trkpt>
      <trkpt lat="45.94124" lon="-0.95436">
        <ele>4.5</ele>
        <time>2022-06-21T11:16:01Z</time>
      </trkpt>
      <trkpt lat="45.94124" lon="-0.95436">
        <ele>4.5</ele>
        <time>2022-06-21T11:16:02Z</time>
      </trkpt>
      <trkpt lat="45.94124" lon="-0.95436">
        <ele>4.5</ele>
        <time>2022-06-21T11:16:03Z</time>
      </trkpt>
      <trkpt lat="45.94124" lon="-0.95436">
        <ele>4.5</ele>
        <time>2022-06-21T11:16:04Z</time>
      </trkpt>
      <trkpt lat="45.94124" lon="-0.95436">
        <ele>4.5</ele>
        <time>2022-06-21T11:16:05Z</time>
      </trkpt>
      <trkpt lat="45.94124" lon="-0.95436">
        <ele>4.5</ele>
        <time>2022-06-21T11:16:06Z</time>
      </trkpt>
      <trkpt lat="45.94124" lon="-0.95436">
        <ele>4.5</ele>
        <time>2022-06-21T11:16:07Z</time>
      </trkpt>
      <trkpt lat="45.94124" lon="-0.95436">
        <ele>4.5</ele>
        <time>2022-06-21T11:16:08Z</time>
      </trkpt>
      <trkpt lat="45.94124" lon="-0.95436">
        <ele>4.5</ele>
        <time>2022-06-21T11:16:09Z</time>
      </trkpt>
      <trkpt lat="45.94124" lon="-0.95436">
        <ele>4.5</ele>
        <time>2022-06-21T11:16:10Z</time>
      </trkpt>
      <trkpt lat="45.94124" lon="-0.95436">
        <ele>4.5</ele>
        <time>2022-06-21T11:16:11Z</time>
      </trkpt>
      <trkpt lat="45.94124" lon="-0.95436">
        <ele>4.5</ele>
        <time>2022-06-21T11:16:12Z</time>
      </trkpt>
      <trkpt lat="45.94124" lon="-0.95436">
        <ele>4.5</ele>
        <time>2022-06-21T11:16:13Z</time>
      </trkpt>
      <trkpt lat="45.94124" lon="-0.95436">
        <ele>4.5</ele>
        <time>2022-06-21T11:16:14Z</time>
      </trkpt>
      <trkpt lat="45.94124" lon="-0.95436">
        <ele>4.5</ele>
        <time>2022-06-21T11:16:15Z</time>
      </trkpt>
      <trkpt lat="45.94124" lon="-0.95436">
        <ele>4.5</ele>
        <time>2022-06-21T11:16:16Z</time>
      </trkpt>
      <trkpt lat="45.94124" lon="-0.95436">
        <ele>4.5</ele>
        <time>2022-06-21T11:16:17Z</time>
      </trkpt>
      <trkpt lat="45.94124" lon="-0.95436">
        <ele>4.5</ele>
        <time>2022-06-21T11:16:18Z</time>
      </trkpt>
      <trkpt lat="45.94124" lon="-0.95436">
        <ele>4.5</ele>
        <time>2022-06-21T11:16:19Z</time>
      </trkpt>
      <trkpt lat="45.94124" lon="-0.95436">
        <ele>4.5</ele>
        <time>2022-06-21T11:16:20Z</time>
      </trkpt>
      <trkpt lat="45.94124" lon="-0.95436">
        <ele>4.5</ele>
        <time>2022-06-21T11:16:21Z</time>
      </trkpt>
      <trkpt lat="45.94124" lon="-0.95436">
        <ele>4.5</ele>
        <time>2022-06-21T11:16:22Z</time>
      </trkpt>
      <trkpt lat="45.94124" lon="-0.95436">
        <ele>4.5</ele>
        <time>2022-06-21T11:16:23Z</time>
      </trkpt>
      <trkpt lat="45.94124" lon="-0.95436">
        <ele>4.6</ele>
        <time>2022-06-21T11:16:24Z</time>
      </trkpt>
      <trkpt lat="45.94124" lon="-0.95436">
        <ele>4.6</ele>
        <time>2022-06-21T11:16:25Z</time>
      </trkpt>
      <trkpt lat="45.94124" lon="-0.95436">
        <ele>4.6</ele>
        <time>2022-06-21T11:16:26Z</time>
      </trkpt>
      <trkpt lat="45.94124" lon="-0.95436">
        <ele>4.6</ele>
        <time>2022-06-21T11:16:27Z</time>
      </trkpt>
      <trkpt lat="45.94124" lon="-0.95436">
        <ele>4.6</ele>
        <time>2022-06-21T11:16:28Z</time>
      </trkpt>
      <trkpt lat="45.94124" lon="-0.95436">
        <ele>4.6</ele>
        <time>2022-06-21T11:16:29Z</time>
      </trkpt>
      <trkpt lat="45.94124" lon="-0.95436">
        <ele>4.6</ele>
        <time>2022-06-21T11:16:30Z</time>
      </trkpt>
      <trkpt lat="45.94124" lon="-0.95436">
        <ele>4.6</ele>
        <time>2022-06-21T11:16:31Z</time>
      </trkpt>
      <trkpt lat="45.94124" lon="-0.95436">
        <ele>4.6</ele>
        <time>2022-06-21T11:16:32Z</time>
      </trkpt>
      <trkpt lat="45.94124" lon="-0.95436">
        <ele>4.6</ele>
        <time>2022-06-21T11:16:33Z</time>
      </trkpt>
      <trkpt lat="45.94124" lon="-0.95436">
        <ele>4.6</ele>
        <time>2022-06-21T11:16:34Z</time>
      </trkpt>
      <trkpt lat="45.94124" lon="-0.95436">
        <ele>4.6</ele>
        <time>2022-06-21T11:16:35Z</time>
      </trkpt>
      <trkpt lat="45.94124" lon="-0.95436">
        <ele>4.6</ele>
        <time>2022-06-21T11:16:36Z</time>
      </trkpt>
      <trkpt lat="45.94124" lon="-0.95436">
        <ele>4.6</ele>
        <time>2022-06-21T11:16:37Z</time>
      </trkpt>
      <trkpt lat="45.94124" lon="-0.95436">
        <ele>4.6</ele>
        <time>2022-06-21T11:16:38Z</time>
      </trkpt>
      <trkpt lat="45.94124" lon="-0.95436">
        <ele>4.6</ele>
        <time>2022-06-21T11:16:39Z</time>
      </trkpt>
      <trkpt lat="45.94124" lon="-0.95436">
        <ele>4.6</ele>
        <time>2022-06-21T11:16:40Z</time>
      </trkpt>
      <trkpt lat="45.94124" lon="-0.95436">
        <ele>4.6</ele>
        <time>2022-06-21T11:16:41Z</time>
      </trkpt>
      <trkpt lat="45.94124" lon="-0.95436">
        <ele>4.6</ele>
        <time>2022-06-21T11:16:42Z</time>
      </trkpt>
      <trkpt lat="45.94124" lon="-0.95436">
        <ele>4.6</ele>
        <time>2022-06-21T11:16:43Z</time>
      </trkpt>
      <trkpt lat="45.94124" lon="-0.95436">
        <ele>4.6</ele>
        <time>2022-06-21T11:16:44Z</time>
      </trkpt>
      <trkpt lat="45.94124" lon="-0.95436">
        <ele>4.6</ele>
        <time>2022-06-21T11:16:45Z</time>
      </trkpt>
      <trkpt lat="45.94124" lon="-0.95436">
        <ele>4.6</ele>
        <time>2022-06-21T11:16:46Z</time>
      </trkpt>
      <trkpt lat="45.94124" lon="-0.95436">
        <ele>4.6</ele>
        <time>2022-06-21T11:16:47Z</time>
      </trkpt>
      <trkpt lat="45.94124" lon="-0.95436">
        <ele>4.6</ele>
        <time>2022-06-21T11:16:48Z</time>
      </trkpt>
      <trkpt lat="45.94124" lon="-0.95436">
        <ele>4.6</ele>
        <time>2022-06-21T11:16:49Z</time>
      </trkpt>
      <trkpt lat="45.94124" lon="-0.95436">
        <ele>4.6</ele>
        <time>2022-06-21T11:16:50Z</time>
      </trkpt>
      <trkpt lat="45.94124" lon="-0.95436">
        <ele>4.6</ele>
        <time>2022-06-21T11:16:51Z</time>
      </trkpt>
      <trkpt lat="45.94124" lon="-0.95436">
        <ele>4.6</ele>
        <time>2022-06-21T11:16:52Z</time>
      </trkpt>
      <trkpt lat="45.94124" lon="-0.95436">
        <ele>4.6</ele>
        <time>2022-06-21T11:16:53Z</time>
      </trkpt>
      <trkpt lat="45.94124" lon="-0.95436">
        <ele>4.6</ele>
        <time>2022-06-21T11:16:54Z</time>
      </trkpt>
      <trkpt lat="45.94124" lon="-0.95436">
        <ele>4.6</ele>
        <time>2022-06-21T11:16:55Z</time>
      </trkpt>
      <trkpt lat="45.94124" lon="-0.95436">
        <ele>4.6</ele>
        <time>2022-06-21T11:16:56Z</time>
      </trkpt>
      <trkpt lat="45.94124" lon="-0.95436">
        <ele>4.6</ele>
        <time>2022-06-21T11:16:57Z</time>
      </trkpt>
      <trkpt lat="45.94124" lon="-0.95437">
        <ele>4.6</ele>
        <time>2022-06-21T11:16:58Z</time>
      </trkpt>
      <trkpt lat="45.94124" lon="-0.95437">
        <ele>4.6</ele>
        <time>2022-06-21T11:16:59Z</time>
      </trkpt>
      <trkpt lat="45.94124" lon="-0.95437">
        <ele>4.6</ele>
        <time>2022-06-21T11:17:00Z</time>
      </trkpt>
      <trkpt lat="45.94124" lon="-0.95437">
        <ele>4.6</ele>
        <time>2022-06-21T11:17:01Z</time>
      </trkpt>
      <trkpt lat="45.94125" lon="-0.95437">
        <ele>4.6</ele>
        <time>2022-06-21T11:17:02Z</time>
      </trkpt>
      <trkpt lat="45.94124" lon="-0.95437">
        <ele>4.6</ele>
        <time>2022-06-21T11:17:03Z</time>
      </trkpt>
      <trkpt lat="45.94124" lon="-0.95437">
        <ele>4.6</ele>
        <time>2022-06-21T11:17:04Z</time>
      </trkpt>
      <trkpt lat="45.94124" lon="-0.95437">
        <ele>4.6</ele>
        <time>2022-06-21T11:17:05Z</time>
      </trkpt>
      <trkpt lat="45.94124" lon="-0.95437">
        <ele>4.6</ele>
        <time>2022-06-21T11:17:06Z</time>
      </trkpt>
      <trkpt lat="45.94124" lon="-0.95437">
        <ele>4.6</ele>
        <time>2022-06-21T11:17:07Z</time>
      </trkpt>
      <trkpt lat="45.94124" lon="-0.95437">
        <ele>4.6</ele>
        <time>2022-06-21T11:17:08Z</time>
      </trkpt>
      <trkpt lat="45.94124" lon="-0.95437">
        <ele>4.6</ele>
        <time>2022-06-21T11:17:09Z</time>
      </trkpt>
      <trkpt lat="45.94124" lon="-0.95436">
        <ele>4.6</ele>
        <time>2022-06-21T11:17:10Z</time>
      </trkpt>
      <trkpt lat="45.94124" lon="-0.95436">
        <ele>4.6</ele>
        <time>2022-06-21T11:17:11Z</time>
      </trkpt>
      <trkpt lat="45.94124" lon="-0.95436">
        <ele>4.6</ele>
        <time>2022-06-21T11:17:12Z</time>
      </trkpt>
      <trkpt lat="45.94124" lon="-0.95436">
        <ele>4.6</ele>
        <time>2022-06-21T11:17:14Z</time>
      </trkpt>
      <trkpt lat="45.94124" lon="-0.95436">
        <ele>4.6</ele>
        <time>2022-06-21T11:17:15Z</time>
      </trkpt>
      <trkpt lat="45.94124" lon="-0.95436">
        <ele>4.6</ele>
        <time>2022-06-21T11:17:17Z</time>
      </trkpt>
      <trkpt lat="45.94124" lon="-0.95436">
        <ele>4.6</ele>
        <time>2022-06-21T11:17:18Z</time>
      </trkpt>
      <trkpt lat="45.94124" lon="-0.95436">
        <ele>4.6</ele>
        <time>2022-06-21T11:17:19Z</time>
      </trkpt>
      <trkpt lat="45.94124" lon="-0.95436">
        <ele>4.6</ele>
        <time>2022-06-21T11:17:20Z</time>
      </trkpt>
      <trkpt lat="45.94124" lon="-0.95436">
        <ele>4.6</ele>
        <time>2022-06-21T11:17:21Z</time>
      </trkpt>
      <trkpt lat="45.94124" lon="-0.95436">
        <ele>4.6</ele>
        <time>2022-06-21T11:17:22Z</time>
      </trkpt>
      <trkpt lat="45.94124" lon="-0.95436">
        <ele>4.6</ele>
        <time>2022-06-21T11:17:23Z</time>
      </trkpt>
      <trkpt lat="45.94124" lon="-0.95436">
        <ele>4.6</ele>
        <time>2022-06-21T11:17:24Z</time>
      </trkpt>
      <trkpt lat="45.94124" lon="-0.95436">
        <ele>4.6</ele>
        <time>2022-06-21T11:17:25Z</time>
      </trkpt>
      <trkpt lat="45.94124" lon="-0.95436">
        <ele>4.6</ele>
        <time>2022-06-21T11:17:26Z</time>
      </trkpt>
      <trkpt lat="45.94124" lon="-0.95436">
        <ele>4.6</ele>
        <time>2022-06-21T11:17:27Z</time>
      </trkpt>
      <trkpt lat="45.94124" lon="-0.95436">
        <ele>4.6</ele>
        <time>2022-06-21T11:17:28Z</time>
      </trkpt>
      <trkpt lat="45.94124" lon="-0.95436">
        <ele>4.6</ele>
        <time>2022-06-21T11:17:29Z</time>
      </trkpt>
      <trkpt lat="45.94124" lon="-0.95436">
        <ele>4.6</ele>
        <time>2022-06-21T11:17:30Z</time>
      </trkpt>
      <trkpt lat="45.94124" lon="-0.95436">
        <ele>4.6</ele>
        <time>2022-06-21T11:17:31Z</time>
      </trkpt>
      <trkpt lat="45.94124" lon="-0.95436">
        <ele>4.6</ele>
        <time>2022-06-21T11:17:32Z</time>
      </trkpt>
      <trkpt lat="45.94124" lon="-0.95436">
        <ele>4.6</ele>
        <time>2022-06-21T11:17:33Z</time>
      </trkpt>
      <trkpt lat="45.94124" lon="-0.95437">
        <ele>4.6</ele>
        <time>2022-06-21T11:17:34Z</time>
      </trkpt>
      <trkpt lat="45.94124" lon="-0.95437">
        <ele>4.6</ele>
        <time>2022-06-21T11:17:35Z</time>
      </trkpt>
      <trkpt lat="45.94124" lon="-0.95437">
        <ele>4.6</ele>
        <time>2022-06-21T11:17:36Z</time>
      </trkpt>
      <trkpt lat="45.94124" lon="-0.95437">
        <ele>4.6</ele>
        <time>2022-06-21T11:17:37Z</time>
      </trkpt>
      <trkpt lat="45.94124" lon="-0.95437">
        <ele>4.6</ele>
        <time>2022-06-21T11:17:38Z</time>
      </trkpt>
      <trkpt lat="45.94124" lon="-0.95437">
        <ele>4.6</ele>
        <time>2022-06-21T11:17:39Z</time>
      </trkpt>
      <trkpt lat="45.94124" lon="-0.95437">
        <ele>4.6</ele>
        <time>2022-06-21T11:17:40Z</time>
      </trkpt>
      <trkpt lat="45.94124" lon="-0.95437">
        <ele>4.6</ele>
        <time>2022-06-21T11:17:41Z</time>
      </trkpt>
      <trkpt lat="45.94124" lon="-0.95437">
        <ele>4.6</ele>
        <time>2022-06-21T11:17:42Z</time>
      </trkpt>
      <trkpt lat="45.94124" lon="-0.95437">
        <ele>4.6</ele>
        <time>2022-06-21T11:17:43Z</time>
      </trkpt>
      <trkpt lat="45.94124" lon="-0.95437">
        <ele>4.6</ele>
        <time>2022-06-21T11:17:44Z</time>
      </trkpt>
      <trkpt lat="45.94124" lon="-0.95437">
        <ele>4.6</ele>
        <time>2022-06-21T11:17:45Z</time>
      </trkpt>
      <trkpt lat="45.94124" lon="-0.95437">
        <ele>4.6</ele>
        <time>2022-06-21T11:17:46Z</time>
      </trkpt>
      <trkpt lat="45.94124" lon="-0.95437">
        <ele>4.6</ele>
        <time>2022-06-21T11:17:47Z</time>
      </trkpt>
      <trkpt lat="45.94124" lon="-0.95437">
        <ele>4.6</ele>
        <time>2022-06-21T11:17:49Z</time>
      </trkpt>
      <trkpt lat="45.94124" lon="-0.95437">
        <ele>4.6</ele>
        <time>2022-06-21T11:17:50Z</time>
      </trkpt>
      <trkpt lat="45.94124" lon="-0.95437">
        <ele>4.6</ele>
        <time>2022-06-21T11:17:51Z</time>
      </trkpt>
      <trkpt lat="45.94124" lon="-0.95437">
        <ele>4.6</ele>
        <time>2022-06-21T11:17:52Z</time>
      </trkpt>
      <trkpt lat="45.94124" lon="-0.95437">
        <ele>4.6</ele>
        <time>2022-06-21T11:17:53Z</time>
      </trkpt>
      <trkpt lat="45.94124" lon="-0.95437">
        <ele>4.6</ele>
        <time>2022-06-21T11:17:54Z</time>
      </trkpt>
      <trkpt lat="45.94124" lon="-0.95437">
        <ele>4.6</ele>
        <time>2022-06-21T11:17:55Z</time>
      </trkpt>
      <trkpt lat="45.94124" lon="-0.95437">
        <ele>4.6</ele>
        <time>2022-06-21T11:17:56Z</time>
      </trkpt>
      <trkpt lat="45.94124" lon="-0.95437">
        <ele>4.6</ele>
        <time>2022-06-21T11:17:57Z</time>
      </trkpt>
      <trkpt lat="45.94124" lon="-0.95437">
        <ele>4.6</ele>
        <time>2022-06-21T11:17:58Z</time>
      </trkpt>
      <trkpt lat="45.94124" lon="-0.95437">
        <ele>4.6</ele>
        <time>2022-06-21T11:17:59Z</time>
      </trkpt>
      <trkpt lat="45.94124" lon="-0.95437">
        <ele>4.6</ele>
        <time>2022-06-21T11:18:00Z</time>
      </trkpt>
      <trkpt lat="45.94124" lon="-0.95437">
        <ele>4.6</ele>
        <time>2022-06-21T11:18:01Z</time>
      </trkpt>
      <trkpt lat="45.94124" lon="-0.95437">
        <ele>4.6</ele>
        <time>2022-06-21T11:18:02Z</time>
      </trkpt>
      <trkpt lat="45.94124" lon="-0.95437">
        <ele>4.6</ele>
        <time>2022-06-21T11:18:03Z</time>
      </trkpt>
      <trkpt lat="45.94124" lon="-0.95437">
        <ele>4.6</ele>
        <time>2022-06-21T11:18:04Z</time>
      </trkpt>
      <trkpt lat="45.94124" lon="-0.95437">
        <ele>4.6</ele>
        <time>2022-06-21T11:18:05Z</time>
      </trkpt>
      <trkpt lat="45.94124" lon="-0.95437">
        <ele>4.6</ele>
        <time>2022-06-21T11:18:06Z</time>
      </trkpt>
      <trkpt lat="45.94124" lon="-0.95437">
        <ele>4.6</ele>
        <time>2022-06-21T11:18:07Z</time>
      </trkpt>
      <trkpt lat="45.94124" lon="-0.95437">
        <ele>4.6</ele>
        <time>2022-06-21T11:18:08Z</time>
      </trkpt>
      <trkpt lat="45.94124" lon="-0.95437">
        <ele>4.6</ele>
        <time>2022-06-21T11:18:09Z</time>
      </trkpt>
      <trkpt lat="45.94124" lon="-0.95437">
        <ele>4.6</ele>
        <time>2022-06-21T11:18:10Z</time>
      </trkpt>
      <trkpt lat="45.94124" lon="-0.95437">
        <ele>4.6</ele>
        <time>2022-06-21T11:18:11Z</time>
      </trkpt>
      <trkpt lat="45.94124" lon="-0.95437">
        <ele>4.6</ele>
        <time>2022-06-21T11:18:12Z</time>
      </trkpt>
      <trkpt lat="45.94124" lon="-0.95437">
        <ele>4.6</ele>
        <time>2022-06-21T11:18:13Z</time>
      </trkpt>
      <trkpt lat="45.94124" lon="-0.95437">
        <ele>4.6</ele>
        <time>2022-06-21T11:18:14Z</time>
      </trkpt>
      <trkpt lat="45.94124" lon="-0.95437">
        <ele>4.6</ele>
        <time>2022-06-21T11:18:15Z</time>
      </trkpt>
      <trkpt lat="45.94124" lon="-0.95437">
        <ele>4.6</ele>
        <time>2022-06-21T11:18:16Z</time>
      </trkpt>
      <trkpt lat="45.94124" lon="-0.95437">
        <ele>4.6</ele>
        <time>2022-06-21T11:18:17Z</time>
      </trkpt>
      <trkpt lat="45.94124" lon="-0.95437">
        <ele>4.6</ele>
        <time>2022-06-21T11:18:18Z</time>
      </trkpt>
      <trkpt lat="45.94124" lon="-0.95437">
        <ele>4.6</ele>
        <time>2022-06-21T11:18:19Z</time>
      </trkpt>
      <trkpt lat="45.94124" lon="-0.95437">
        <ele>4.6</ele>
        <time>2022-06-21T11:18:20Z</time>
      </trkpt>
      <trkpt lat="45.94124" lon="-0.95437">
        <ele>4.6</ele>
        <time>2022-06-21T11:18:21Z</time>
      </trkpt>
      <trkpt lat="45.94124" lon="-0.95437">
        <ele>4.6</ele>
        <time>2022-06-21T11:18:22Z</time>
      </trkpt>
      <trkpt lat="45.94124" lon="-0.95437">
        <ele>4.6</ele>
        <time>2022-06-21T11:18:23Z</time>
      </trkpt>
      <trkpt lat="45.94124" lon="-0.95437">
        <ele>4.6</ele>
        <time>2022-06-21T11:18:24Z</time>
      </trkpt>
      <trkpt lat="45.94124" lon="-0.95437">
        <ele>4.6</ele>
        <time>2022-06-21T11:18:25Z</time>
      </trkpt>
      <trkpt lat="45.94124" lon="-0.95437">
        <ele>4.6</ele>
        <time>2022-06-21T11:18:26Z</time>
      </trkpt>
      <trkpt lat="45.94124" lon="-0.95437">
        <ele>4.6</ele>
        <time>2022-06-21T11:18:27Z</time>
      </trkpt>
      <trkpt lat="45.94124" lon="-0.95437">
        <ele>4.6</ele>
        <time>2022-06-21T11:18:28Z</time>
      </trkpt>
      <trkpt lat="45.94124" lon="-0.95437">
        <ele>4.6</ele>
        <time>2022-06-21T11:18:29Z</time>
      </trkpt>
      <trkpt lat="45.94124" lon="-0.95437">
        <ele>4.6</ele>
        <time>2022-06-21T11:18:30Z</time>
      </trkpt>
      <trkpt lat="45.94124" lon="-0.95437">
        <ele>4.6</ele>
        <time>2022-06-21T11:18:31Z</time>
      </trkpt>
      <trkpt lat="45.94124" lon="-0.95437">
        <ele>4.6</ele>
        <time>2022-06-21T11:18:32Z</time>
      </trkpt>
      <trkpt lat="45.94124" lon="-0.95437">
        <ele>4.6</ele>
        <time>2022-06-21T11:18:33Z</time>
      </trkpt>
      <trkpt lat="45.94124" lon="-0.95437">
        <ele>4.6</ele>
        <time>2022-06-21T11:18:34Z</time>
      </trkpt>
      <trkpt lat="45.94124" lon="-0.95437">
        <ele>4.6</ele>
        <time>2022-06-21T11:18:35Z</time>
      </trkpt>
      <trkpt lat="45.94124" lon="-0.95437">
        <ele>4.6</ele>
        <time>2022-06-21T11:18:36Z</time>
      </trkpt>
      <trkpt lat="45.94124" lon="-0.95437">
        <ele>4.6</ele>
        <time>2022-06-21T11:18:37Z</time>
      </trkpt>
      <trkpt lat="45.94124" lon="-0.95437">
        <ele>4.6</ele>
        <time>2022-06-21T11:18:38Z</time>
      </trkpt>
      <trkpt lat="45.94124" lon="-0.95437">
        <ele>4.6</ele>
        <time>2022-06-21T11:18:39Z</time>
      </trkpt>
      <trkpt lat="45.94124" lon="-0.95437">
        <ele>4.6</ele>
        <time>2022-06-21T11:18:40Z</time>
      </trkpt>
      <trkpt lat="45.94124" lon="-0.95437">
        <ele>4.6</ele>
        <time>2022-06-21T11:18:41Z</time>
      </trkpt>
      <trkpt lat="45.94124" lon="-0.95437">
        <ele>4.6</ele>
        <time>2022-06-21T11:18:42Z</time>
      </trkpt>
      <trkpt lat="45.94124" lon="-0.95437">
        <ele>4.6</ele>
        <time>2022-06-21T11:18:43Z</time>
      </trkpt>
      <trkpt lat="45.94124" lon="-0.95437">
        <ele>4.6</ele>
        <time>2022-06-21T11:18:44Z</time>
      </trkpt>
      <trkpt lat="45.94124" lon="-0.95437">
        <ele>4.6</ele>
        <time>2022-06-21T11:18:45Z</time>
      </trkpt>
      <trkpt lat="45.94124" lon="-0.95437">
        <ele>4.6</ele>
        <time>2022-06-21T11:18:46Z</time>
      </trkpt>
      <trkpt lat="45.94124" lon="-0.95437">
        <ele>4.6</ele>
        <time>2022-06-21T11:18:47Z</time>
      </trkpt>
      <trkpt lat="45.94124" lon="-0.95437">
        <ele>4.6</ele>
        <time>2022-06-21T11:18:48Z</time>
      </trkpt>
      <trkpt lat="45.94124" lon="-0.95437">
        <ele>4.6</ele>
        <time>2022-06-21T11:18:49Z</time>
      </trkpt>
      <trkpt lat="45.94124" lon="-0.95437">
        <ele>4.6</ele>
        <time>2022-06-21T11:18:50Z</time>
      </trkpt>
      <trkpt lat="45.94124" lon="-0.95437">
        <ele>4.6</ele>
        <time>2022-06-21T11:18:51Z</time>
      </trkpt>
      <trkpt lat="45.94124" lon="-0.95437">
        <ele>4.6</ele>
        <time>2022-06-21T11:18:52Z</time>
      </trkpt>
      <trkpt lat="45.94124" lon="-0.95437">
        <ele>4.6</ele>
        <time>2022-06-21T11:18:53Z</time>
      </trkpt>
      <trkpt lat="45.94124" lon="-0.95437">
        <ele>4.6</ele>
        <time>2022-06-21T11:18:54Z</time>
      </trkpt>
      <trkpt lat="45.94124" lon="-0.95437">
        <ele>4.6</ele>
        <time>2022-06-21T11:18:55Z</time>
      </trkpt>
      <trkpt lat="45.94124" lon="-0.95437">
        <ele>4.6</ele>
        <time>2022-06-21T11:18:56Z</time>
      </trkpt>
      <trkpt lat="45.94124" lon="-0.95437">
        <ele>4.6</ele>
        <time>2022-06-21T11:18:57Z</time>
      </trkpt>
      <trkpt lat="45.94124" lon="-0.95437">
        <ele>4.6</ele>
        <time>2022-06-21T11:18:58Z</time>
      </trkpt>
      <trkpt lat="45.94124" lon="-0.95437">
        <ele>4.6</ele>
        <time>2022-06-21T11:18:59Z</time>
      </trkpt>
      <trkpt lat="45.94124" lon="-0.95437">
        <ele>4.6</ele>
        <time>2022-06-21T11:19:00Z</time>
      </trkpt>
      <trkpt lat="45.94124" lon="-0.95437">
        <ele>4.6</ele>
        <time>2022-06-21T11:19:01Z</time>
      </trkpt>
      <trkpt lat="45.94124" lon="-0.95437">
        <ele>4.6</ele>
        <time>2022-06-21T11:19:02Z</time>
      </trkpt>
      <trkpt lat="45.94124" lon="-0.95437">
        <ele>4.6</ele>
        <time>2022-06-21T11:19:03Z</time>
      </trkpt>
      <trkpt lat="45.94124" lon="-0.95437">
        <ele>4.6</ele>
        <time>2022-06-21T11:19:04Z</time>
      </trkpt>
      <trkpt lat="45.94124" lon="-0.95437">
        <ele>4.6</ele>
        <time>2022-06-21T11:19:05Z</time>
      </trkpt>
      <trkpt lat="45.94124" lon="-0.95437">
        <ele>4.6</ele>
        <time>2022-06-21T11:19:06Z</time>
      </trkpt>
      <trkpt lat="45.94124" lon="-0.95437">
        <ele>4.6</ele>
        <time>2022-06-21T11:19:07Z</time>
      </trkpt>
      <trkpt lat="45.94124" lon="-0.95437">
        <ele>4.6</ele>
        <time>2022-06-21T11:19:08Z</time>
      </trkpt>
      <trkpt lat="45.94124" lon="-0.95437">
        <ele>4.6</ele>
        <time>2022-06-21T11:19:09Z</time>
      </trkpt>
      <trkpt lat="45.94124" lon="-0.95437">
        <ele>4.6</ele>
        <time>2022-06-21T11:19:10Z</time>
      </trkpt>
      <trkpt lat="45.94124" lon="-0.95437">
        <ele>4.6</ele>
        <time>2022-06-21T11:19:11Z</time>
      </trkpt>
      <trkpt lat="45.94124" lon="-0.95437">
        <ele>4.6</ele>
        <time>2022-06-21T11:19:12Z</time>
      </trkpt>
      <trkpt lat="45.94124" lon="-0.95437">
        <ele>4.6</ele>
        <time>2022-06-21T11:19:13Z</time>
      </trkpt>
      <trkpt lat="45.94124" lon="-0.95437">
        <ele>4.6</ele>
        <time>2022-06-21T11:19:14Z</time>
      </trkpt>
      <trkpt lat="45.94124" lon="-0.95437">
        <ele>4.6</ele>
        <time>2022-06-21T11:19:15Z</time>
      </trkpt>
      <trkpt lat="45.94124" lon="-0.95437">
        <ele>4.6</ele>
        <time>2022-06-21T11:19:16Z</time>
      </trkpt>
      <trkpt lat="45.94124" lon="-0.95437">
        <ele>4.6</ele>
        <time>2022-06-21T11:19:17Z</time>
      </trkpt>
      <trkpt lat="45.94124" lon="-0.95437">
        <ele>4.6</ele>
        <time>2022-06-21T11:19:18Z</time>
      </trkpt>
      <trkpt lat="45.94124" lon="-0.95437">
        <ele>4.6</ele>
        <time>2022-06-21T11:19:19Z</time>
      </trkpt>
      <trkpt lat="45.94124" lon="-0.95437">
        <ele>4.6</ele>
        <time>2022-06-21T11:19:20Z</time>
      </trkpt>
      <trkpt lat="45.94124" lon="-0.95437">
        <ele>4.6</ele>
        <time>2022-06-21T11:19:21Z</time>
      </trkpt>
      <trkpt lat="45.94124" lon="-0.95437">
        <ele>4.6</ele>
        <time>2022-06-21T11:19:22Z</time>
      </trkpt>
      <trkpt lat="45.94124" lon="-0.95437">
        <ele>4.6</ele>
        <time>2022-06-21T11:19:23Z</time>
      </trkpt>
      <trkpt lat="45.94124" lon="-0.95437">
        <ele>4.6</ele>
        <time>2022-06-21T11:19:24Z</time>
      </trkpt>
      <trkpt lat="45.94124" lon="-0.95437">
        <ele>4.6</ele>
        <time>2022-06-21T11:19:25Z</time>
      </trkpt>
      <trkpt lat="45.94124" lon="-0.95437">
        <ele>4.6</ele>
        <time>2022-06-21T11:19:26Z</time>
      </trkpt>
      <trkpt lat="45.94124" lon="-0.95437">
        <ele>4.6</ele>
        <time>2022-06-21T11:19:27Z</time>
      </trkpt>
      <trkpt lat="45.94124" lon="-0.95437">
        <ele>4.6</ele>
        <time>2022-06-21T11:19:28Z</time>
      </trkpt>
      <trkpt lat="45.94124" lon="-0.95437">
        <ele>4.6</ele>
        <time>2022-06-21T11:19:29Z</time>
      </trkpt>
      <trkpt lat="45.94124" lon="-0.95437">
        <ele>4.6</ele>
        <time>2022-06-21T11:19:30Z</time>
      </trkpt>
      <trkpt lat="45.94124" lon="-0.95437">
        <ele>4.6</ele>
        <time>2022-06-21T11:19:31Z</time>
      </trkpt>
      <trkpt lat="45.94124" lon="-0.95437">
        <ele>4.6</ele>
        <time>2022-06-21T11:19:32Z</time>
      </trkpt>
      <trkpt lat="45.94124" lon="-0.95437">
        <ele>4.6</ele>
        <time>2022-06-21T11:19:33Z</time>
      </trkpt>
      <trkpt lat="45.94124" lon="-0.95437">
        <ele>4.6</ele>
        <time>2022-06-21T11:19:34Z</time>
      </trkpt>
      <trkpt lat="45.94124" lon="-0.95437">
        <ele>4.6</ele>
        <time>2022-06-21T11:19:35Z</time>
      </trkpt>
      <trkpt lat="45.94124" lon="-0.95437">
        <ele>4.6</ele>
        <time>2022-06-21T11:19:36Z</time>
      </trkpt>
      <trkpt lat="45.94124" lon="-0.95437">
        <ele>4.6</ele>
        <time>2022-06-21T11:19:37Z</time>
      </trkpt>
      <trkpt lat="45.94124" lon="-0.95437">
        <ele>4.6</ele>
        <time>2022-06-21T11:19:38Z</time>
      </trkpt>
      <trkpt lat="45.94124" lon="-0.95437">
        <ele>4.6</ele>
        <time>2022-06-21T11:19:39Z</time>
      </trkpt>
      <trkpt lat="45.94124" lon="-0.95437">
        <ele>4.6</ele>
        <time>2022-06-21T11:19:40Z</time>
      </trkpt>
      <trkpt lat="45.94124" lon="-0.95437">
        <ele>4.6</ele>
        <time>2022-06-21T11:19:41Z</time>
      </trkpt>
      <trkpt lat="45.94124" lon="-0.95437">
        <ele>4.6</ele>
        <time>2022-06-21T11:19:42Z</time>
      </trkpt>
      <trkpt lat="45.94124" lon="-0.95437">
        <ele>4.6</ele>
        <time>2022-06-21T11:19:43Z</time>
      </trkpt>
      <trkpt lat="45.94124" lon="-0.95437">
        <ele>4.6</ele>
        <time>2022-06-21T11:19:44Z</time>
      </trkpt>
      <trkpt lat="45.94124" lon="-0.95437">
        <ele>4.6</ele>
        <time>2022-06-21T11:19:45Z</time>
      </trkpt>
      <trkpt lat="45.94124" lon="-0.95437">
        <ele>4.6</ele>
        <time>2022-06-21T11:19:46Z</time>
      </trkpt>
      <trkpt lat="45.94124" lon="-0.95437">
        <ele>4.6</ele>
        <time>2022-06-21T11:19:47Z</time>
      </trkpt>
      <trkpt lat="45.94124" lon="-0.95437">
        <ele>4.6</ele>
        <time>2022-06-21T11:19:48Z</time>
      </trkpt>
      <trkpt lat="45.94124" lon="-0.95437">
        <ele>4.6</ele>
        <time>2022-06-21T11:19:49Z</time>
      </trkpt>
      <trkpt lat="45.94124" lon="-0.95437">
        <ele>4.6</ele>
        <time>2022-06-21T11:19:50Z</time>
      </trkpt>
      <trkpt lat="45.94124" lon="-0.95437">
        <ele>4.6</ele>
        <time>2022-06-21T11:19:51Z</time>
      </trkpt>
      <trkpt lat="45.94124" lon="-0.95437">
        <ele>4.6</ele>
        <time>2022-06-21T11:19:52Z</time>
      </trkpt>
      <trkpt lat="45.94124" lon="-0.95437">
        <ele>4.6</ele>
        <time>2022-06-21T11:19:53Z</time>
      </trkpt>
      <trkpt lat="45.94124" lon="-0.95437">
        <ele>4.6</ele>
        <time>2022-06-21T11:19:54Z</time>
      </trkpt>
      <trkpt lat="45.94124" lon="-0.95437">
        <ele>4.6</ele>
        <time>2022-06-21T11:19:55Z</time>
      </trkpt>
      <trkpt lat="45.94124" lon="-0.95437">
        <ele>4.6</ele>
        <time>2022-06-21T11:19:56Z</time>
      </trkpt>
      <trkpt lat="45.94124" lon="-0.95437">
        <ele>4.6</ele>
        <time>2022-06-21T11:19:57Z</time>
      </trkpt>
      <trkpt lat="45.94124" lon="-0.95437">
        <ele>4.6</ele>
        <time>2022-06-21T11:19:58Z</time>
      </trkpt>
      <trkpt lat="45.94124" lon="-0.95437">
        <ele>4.6</ele>
        <time>2022-06-21T11:19:59Z</time>
      </trkpt>
      <trkpt lat="45.94124" lon="-0.95437">
        <ele>4.6</ele>
        <time>2022-06-21T11:20:00Z</time>
      </trkpt>
      <trkpt lat="45.94124" lon="-0.95437">
        <ele>4.6</ele>
        <time>2022-06-21T11:20:01Z</time>
      </trkpt>
      <trkpt lat="45.94124" lon="-0.95437">
        <ele>4.6</ele>
        <time>2022-06-21T11:20:02Z</time>
      </trkpt>
      <trkpt lat="45.94124" lon="-0.95437">
        <ele>4.6</ele>
        <time>2022-06-21T11:20:03Z</time>
      </trkpt>
      <trkpt lat="45.94124" lon="-0.95437">
        <ele>4.6</ele>
        <time>2022-06-21T11:20:04Z</time>
      </trkpt>
      <trkpt lat="45.94124" lon="-0.95437">
        <ele>4.6</ele>
        <time>2022-06-21T11:20:05Z</time>
      </trkpt>
      <trkpt lat="45.94124" lon="-0.95437">
        <ele>4.6</ele>
        <time>2022-06-21T11:20:06Z</time>
      </trkpt>
      <trkpt lat="45.94124" lon="-0.95437">
        <ele>4.6</ele>
        <time>2022-06-21T11:20:07Z</time>
      </trkpt>
      <trkpt lat="45.94124" lon="-0.95437">
        <ele>4.6</ele>
        <time>2022-06-21T11:20:08Z</time>
      </trkpt>
      <trkpt lat="45.94124" lon="-0.95437">
        <ele>4.6</ele>
        <time>2022-06-21T11:20:09Z</time>
      </trkpt>
      <trkpt lat="45.94124" lon="-0.95437">
        <ele>4.6</ele>
        <time>2022-06-21T11:20:10Z</time>
      </trkpt>
      <trkpt lat="45.94124" lon="-0.95437">
        <ele>4.6</ele>
        <time>2022-06-21T11:20:11Z</time>
      </trkpt>
      <trkpt lat="45.94124" lon="-0.95437">
        <ele>4.6</ele>
        <time>2022-06-21T11:20:12Z</time>
      </trkpt>
      <trkpt lat="45.94124" lon="-0.95437">
        <ele>4.6</ele>
        <time>2022-06-21T11:20:13Z</time>
      </trkpt>
      <trkpt lat="45.94124" lon="-0.95437">
        <ele>4.6</ele>
        <time>2022-06-21T11:20:14Z</time>
      </trkpt>
      <trkpt lat="45.94124" lon="-0.95437">
        <ele>4.6</ele>
        <time>2022-06-21T11:20:15Z</time>
      </trkpt>
      <trkpt lat="45.94124" lon="-0.95437">
        <ele>4.6</ele>
        <time>2022-06-21T11:20:16Z</time>
      </trkpt>
      <trkpt lat="45.94124" lon="-0.95437">
        <ele>4.6</ele>
        <time>2022-06-21T11:20:17Z</time>
      </trkpt>
      <trkpt lat="45.94124" lon="-0.95437">
        <ele>4.6</ele>
        <time>2022-06-21T11:20:18Z</time>
      </trkpt>
      <trkpt lat="45.94124" lon="-0.95437">
        <ele>4.6</ele>
        <time>2022-06-21T11:20:19Z</time>
      </trkpt>
      <trkpt lat="45.94124" lon="-0.95437">
        <ele>4.6</ele>
        <time>2022-06-21T11:20:20Z</time>
      </trkpt>
      <trkpt lat="45.94124" lon="-0.95437">
        <ele>4.6</ele>
        <time>2022-06-21T11:20:21Z</time>
      </trkpt>
      <trkpt lat="45.94124" lon="-0.95437">
        <ele>4.6</ele>
        <time>2022-06-21T11:20:22Z</time>
      </trkpt>
      <trkpt lat="45.94124" lon="-0.95437">
        <ele>4.6</ele>
        <time>2022-06-21T11:20:23Z</time>
      </trkpt>
      <trkpt lat="45.94124" lon="-0.95437">
        <ele>4.6</ele>
        <time>2022-06-21T11:20:24Z</time>
      </trkpt>
      <trkpt lat="45.94124" lon="-0.95437">
        <ele>4.6</ele>
        <time>2022-06-21T11:20:25Z</time>
      </trkpt>
      <trkpt lat="45.94124" lon="-0.95437">
        <ele>4.6</ele>
        <time>2022-06-21T11:20:26Z</time>
      </trkpt>
      <trkpt lat="45.94124" lon="-0.95437">
        <ele>4.6</ele>
        <time>2022-06-21T11:20:27Z</time>
      </trkpt>
      <trkpt lat="45.94124" lon="-0.95437">
        <ele>4.6</ele>
        <time>2022-06-21T11:20:28Z</time>
      </trkpt>
      <trkpt lat="45.94124" lon="-0.95437">
        <ele>4.6</ele>
        <time>2022-06-21T11:20:29Z</time>
      </trkpt>
      <trkpt lat="45.94124" lon="-0.95437">
        <ele>4.6</ele>
        <time>2022-06-21T11:20:30Z</time>
      </trkpt>
      <trkpt lat="45.94124" lon="-0.95437">
        <ele>4.6</ele>
        <time>2022-06-21T11:20:31Z</time>
      </trkpt>
      <trkpt lat="45.94124" lon="-0.95437">
        <ele>4.6</ele>
        <time>2022-06-21T11:20:32Z</time>
      </trkpt>
      <trkpt lat="45.94124" lon="-0.95437">
        <ele>4.6</ele>
        <time>2022-06-21T11:20:33Z</time>
      </trkpt>
      <trkpt lat="45.94124" lon="-0.95437">
        <ele>4.6</ele>
        <time>2022-06-21T11:20:34Z</time>
      </trkpt>
      <trkpt lat="45.94124" lon="-0.95437">
        <ele>4.6</ele>
        <time>2022-06-21T11:20:35Z</time>
      </trkpt>
      <trkpt lat="45.94124" lon="-0.95437">
        <ele>4.6</ele>
        <time>2022-06-21T11:20:36Z</time>
      </trkpt>
      <trkpt lat="45.94124" lon="-0.95437">
        <ele>4.6</ele>
        <time>2022-06-21T11:20:37Z</time>
      </trkpt>
      <trkpt lat="45.94124" lon="-0.95437">
        <ele>4.6</ele>
        <time>2022-06-21T11:20:38Z</time>
      </trkpt>
      <trkpt lat="45.94124" lon="-0.95437">
        <ele>4.6</ele>
        <time>2022-06-21T11:20:39Z</time>
      </trkpt>
      <trkpt lat="45.94124" lon="-0.95437">
        <ele>4.6</ele>
        <time>2022-06-21T11:20:40Z</time>
      </trkpt>
      <trkpt lat="45.94124" lon="-0.95437">
        <ele>4.6</ele>
        <time>2022-06-21T11:20:41Z</time>
      </trkpt>
      <trkpt lat="45.94124" lon="-0.95437">
        <ele>4.6</ele>
        <time>2022-06-21T11:20:42Z</time>
      </trkpt>
      <trkpt lat="45.94124" lon="-0.95437">
        <ele>4.6</ele>
        <time>2022-06-21T11:20:43Z</time>
      </trkpt>
      <trkpt lat="45.94124" lon="-0.95437">
        <ele>4.6</ele>
        <time>2022-06-21T11:20:44Z</time>
      </trkpt>
      <trkpt lat="45.94124" lon="-0.95437">
        <ele>4.6</ele>
        <time>2022-06-21T11:20:45Z</time>
      </trkpt>
      <trkpt lat="45.94124" lon="-0.95437">
        <ele>4.6</ele>
        <time>2022-06-21T11:20:46Z</time>
      </trkpt>
      <trkpt lat="45.94124" lon="-0.95437">
        <ele>4.6</ele>
        <time>2022-06-21T11:20:47Z</time>
      </trkpt>
      <trkpt lat="45.94124" lon="-0.95437">
        <ele>4.6</ele>
        <time>2022-06-21T11:20:48Z</time>
      </trkpt>
      <trkpt lat="45.94124" lon="-0.95437">
        <ele>4.6</ele>
        <time>2022-06-21T11:20:49Z</time>
      </trkpt>
      <trkpt lat="45.94124" lon="-0.95437">
        <ele>4.6</ele>
        <time>2022-06-21T11:20:50Z</time>
      </trkpt>
      <trkpt lat="45.94124" lon="-0.95437">
        <ele>4.6</ele>
        <time>2022-06-21T11:20:51Z</time>
      </trkpt>
      <trkpt lat="45.94124" lon="-0.95437">
        <ele>4.6</ele>
        <time>2022-06-21T11:20:52Z</time>
      </trkpt>
      <trkpt lat="45.94124" lon="-0.95437">
        <ele>4.6</ele>
        <time>2022-06-21T11:20:53Z</time>
      </trkpt>
      <trkpt lat="45.94124" lon="-0.95437">
        <ele>4.6</ele>
        <time>2022-06-21T11:20:54Z</time>
      </trkpt>
      <trkpt lat="45.94124" lon="-0.95437">
        <ele>4.6</ele>
        <time>2022-06-21T11:20:55Z</time>
      </trkpt>
      <trkpt lat="45.94124" lon="-0.95437">
        <ele>4.6</ele>
        <time>2022-06-21T11:20:56Z</time>
      </trkpt>
      <trkpt lat="45.94124" lon="-0.95437">
        <ele>4.6</ele>
        <time>2022-06-21T11:20:57Z</time>
      </trkpt>
      <trkpt lat="45.94124" lon="-0.95437">
        <ele>4.6</ele>
        <time>2022-06-21T11:20:58Z</time>
      </trkpt>
      <trkpt lat="45.94124" lon="-0.95437">
        <ele>4.6</ele>
        <time>2022-06-21T11:20:59Z</time>
      </trkpt>
      <trkpt lat="45.94124" lon="-0.95437">
        <ele>4.6</ele>
        <time>2022-06-21T11:21:00Z</time>
      </trkpt>
      <trkpt lat="45.94124" lon="-0.95437">
        <ele>4.6</ele>
        <time>2022-06-21T11:21:01Z</time>
      </trkpt>
      <trkpt lat="45.94124" lon="-0.95437">
        <ele>4.6</ele>
        <time>2022-06-21T11:21:02Z</time>
      </trkpt>
      <trkpt lat="45.94124" lon="-0.95437">
        <ele>4.6</ele>
        <time>2022-06-21T11:21:03Z</time>
      </trkpt>
      <trkpt lat="45.94124" lon="-0.95437">
        <ele>4.6</ele>
        <time>2022-06-21T11:21:04Z</time>
      </trkpt>
      <trkpt lat="45.94124" lon="-0.95437">
        <ele>4.6</ele>
        <time>2022-06-21T11:21:05Z</time>
      </trkpt>
      <trkpt lat="45.94124" lon="-0.95437">
        <ele>4.6</ele>
        <time>2022-06-21T11:21:06Z</time>
      </trkpt>
      <trkpt lat="45.94124" lon="-0.95437">
        <ele>4.6</ele>
        <time>2022-06-21T11:21:07Z</time>
      </trkpt>
      <trkpt lat="45.94124" lon="-0.95437">
        <ele>4.6</ele>
        <time>2022-06-21T11:21:08Z</time>
      </trkpt>
      <trkpt lat="45.94124" lon="-0.95437">
        <ele>4.6</ele>
        <time>2022-06-21T11:21:09Z</time>
      </trkpt>
      <trkpt lat="45.94124" lon="-0.95437">
        <ele>4.6</ele>
        <time>2022-06-21T11:21:10Z</time>
      </trkpt>
      <trkpt lat="45.94124" lon="-0.95437">
        <ele>4.6</ele>
        <time>2022-06-21T11:21:11Z</time>
      </trkpt>
      <trkpt lat="45.94124" lon="-0.95437">
        <ele>4.6</ele>
        <time>2022-06-21T11:21:12Z</time>
      </trkpt>
      <trkpt lat="45.94124" lon="-0.95437">
        <ele>4.6</ele>
        <time>2022-06-21T11:21:13Z</time>
      </trkpt>
      <trkpt lat="45.94124" lon="-0.95437">
        <ele>4.6</ele>
        <time>2022-06-21T11:21:14Z</time>
      </trkpt>
      <trkpt lat="45.94124" lon="-0.95437">
        <ele>4.6</ele>
        <time>2022-06-21T11:21:15Z</time>
      </trkpt>
      <trkpt lat="45.94124" lon="-0.95437">
        <ele>4.6</ele>
        <time>2022-06-21T11:21:16Z</time>
      </trkpt>
      <trkpt lat="45.94124" lon="-0.95437">
        <ele>4.6</ele>
        <time>2022-06-21T11:21:17Z</time>
      </trkpt>
      <trkpt lat="45.94124" lon="-0.95437">
        <ele>4.6</ele>
        <time>2022-06-21T11:21:18Z</time>
      </trkpt>
      <trkpt lat="45.94124" lon="-0.95437">
        <ele>4.6</ele>
        <time>2022-06-21T11:21:19Z</time>
      </trkpt>
      <trkpt lat="45.94124" lon="-0.95437">
        <ele>4.6</ele>
        <time>2022-06-21T11:21:20Z</time>
      </trkpt>
      <trkpt lat="45.94124" lon="-0.95437">
        <ele>4.6</ele>
        <time>2022-06-21T11:21:21Z</time>
      </trkpt>
      <trkpt lat="45.94124" lon="-0.95437">
        <ele>4.6</ele>
        <time>2022-06-21T11:21:22Z</time>
      </trkpt>
      <trkpt lat="45.94124" lon="-0.95437">
        <ele>4.6</ele>
        <time>2022-06-21T11:21:23Z</time>
      </trkpt>
      <trkpt lat="45.94124" lon="-0.95437">
        <ele>4.6</ele>
        <time>2022-06-21T11:21:24Z</time>
      </trkpt>
      <trkpt lat="45.94124" lon="-0.95437">
        <ele>4.6</ele>
        <time>2022-06-21T11:21:25Z</time>
      </trkpt>
      <trkpt lat="45.94124" lon="-0.95437">
        <ele>4.6</ele>
        <time>2022-06-21T11:21:26Z</time>
      </trkpt>
      <trkpt lat="45.94124" lon="-0.95437">
        <ele>4.6</ele>
        <time>2022-06-21T11:21:27Z</time>
      </trkpt>
      <trkpt lat="45.94124" lon="-0.95437">
        <ele>4.6</ele>
        <time>2022-06-21T11:21:28Z</time>
      </trkpt>
      <trkpt lat="45.94124" lon="-0.95437">
        <ele>4.6</ele>
        <time>2022-06-21T11:21:29Z</time>
      </trkpt>
      <trkpt lat="45.94124" lon="-0.95437">
        <ele>4.6</ele>
        <time>2022-06-21T11:21:30Z</time>
      </trkpt>
      <trkpt lat="45.94124" lon="-0.95437">
        <ele>4.6</ele>
        <time>2022-06-21T11:21:31Z</time>
      </trkpt>
      <trkpt lat="45.94124" lon="-0.95437">
        <ele>4.6</ele>
        <time>2022-06-21T11:21:32Z</time>
      </trkpt>
      <trkpt lat="45.94124" lon="-0.95437">
        <ele>4.6</ele>
        <time>2022-06-21T11:21:33Z</time>
      </trkpt>
      <trkpt lat="45.94124" lon="-0.95437">
        <ele>4.6</ele>
        <time>2022-06-21T11:21:34Z</time>
      </trkpt>
      <trkpt lat="45.94124" lon="-0.95437">
        <ele>4.6</ele>
        <time>2022-06-21T11:21:35Z</time>
      </trkpt>
      <trkpt lat="45.94124" lon="-0.95437">
        <ele>4.6</ele>
        <time>2022-06-21T11:21:36Z</time>
      </trkpt>
      <trkpt lat="45.94124" lon="-0.95437">
        <ele>4.6</ele>
        <time>2022-06-21T11:21:37Z</time>
      </trkpt>
      <trkpt lat="45.94124" lon="-0.95437">
        <ele>4.6</ele>
        <time>2022-06-21T11:21:38Z</time>
      </trkpt>
      <trkpt lat="45.94124" lon="-0.95437">
        <ele>4.6</ele>
        <time>2022-06-21T11:21:39Z</time>
      </trkpt>
      <trkpt lat="45.94124" lon="-0.95437">
        <ele>4.6</ele>
        <time>2022-06-21T11:21:40Z</time>
      </trkpt>
      <trkpt lat="45.94124" lon="-0.95437">
        <ele>4.6</ele>
        <time>2022-06-21T11:21:41Z</time>
      </trkpt>
      <trkpt lat="45.94124" lon="-0.95437">
        <ele>4.6</ele>
        <time>2022-06-21T11:21:42Z</time>
      </trkpt>
      <trkpt lat="45.94124" lon="-0.95437">
        <ele>4.6</ele>
        <time>2022-06-21T11:21:43Z</time>
      </trkpt>
      <trkpt lat="45.94124" lon="-0.95437">
        <ele>4.6</ele>
        <time>2022-06-21T11:21:44Z</time>
      </trkpt>
      <trkpt lat="45.94124" lon="-0.95437">
        <ele>4.6</ele>
        <time>2022-06-21T11:21:45Z</time>
      </trkpt>
      <trkpt lat="45.94124" lon="-0.95437">
        <ele>4.6</ele>
        <time>2022-06-21T11:21:46Z</time>
      </trkpt>
      <trkpt lat="45.94124" lon="-0.95437">
        <ele>4.6</ele>
        <time>2022-06-21T11:21:47Z</time>
      </trkpt>
      <trkpt lat="45.94124" lon="-0.95437">
        <ele>4.6</ele>
        <time>2022-06-21T11:21:48Z</time>
      </trkpt>
      <trkpt lat="45.94124" lon="-0.95437">
        <ele>4.6</ele>
        <time>2022-06-21T11:21:49Z</time>
      </trkpt>
      <trkpt lat="45.94124" lon="-0.95437">
        <ele>4.6</ele>
        <time>2022-06-21T11:21:50Z</time>
      </trkpt>
      <trkpt lat="45.94124" lon="-0.95437">
        <ele>4.6</ele>
        <time>2022-06-21T11:21:51Z</time>
      </trkpt>
      <trkpt lat="45.94124" lon="-0.95437">
        <ele>4.6</ele>
        <time>2022-06-21T11:21:52Z</time>
      </trkpt>
      <trkpt lat="45.94124" lon="-0.95437">
        <ele>4.6</ele>
        <time>2022-06-21T11:21:53Z</time>
      </trkpt>
      <trkpt lat="45.94124" lon="-0.95437">
        <ele>4.6</ele>
        <time>2022-06-21T11:21:54Z</time>
      </trkpt>
      <trkpt lat="45.94124" lon="-0.95437">
        <ele>4.6</ele>
        <time>2022-06-21T11:21:55Z</time>
      </trkpt>
      <trkpt lat="45.94124" lon="-0.95437">
        <ele>4.6</ele>
        <time>2022-06-21T11:21:56Z</time>
      </trkpt>
      <trkpt lat="45.94124" lon="-0.95437">
        <ele>4.6</ele>
        <time>2022-06-21T11:21:57Z</time>
      </trkpt>
      <trkpt lat="45.94124" lon="-0.95437">
        <ele>4.6</ele>
        <time>2022-06-21T11:21:58Z</time>
      </trkpt>
      <trkpt lat="45.94124" lon="-0.95437">
        <ele>4.6</ele>
        <time>2022-06-21T11:21:59Z</time>
      </trkpt>
      <trkpt lat="45.94124" lon="-0.95437">
        <ele>4.6</ele>
        <time>2022-06-21T11:22:00Z</time>
      </trkpt>
      <trkpt lat="45.94124" lon="-0.95437">
        <ele>4.6</ele>
        <time>2022-06-21T11:22:01Z</time>
      </trkpt>
      <trkpt lat="45.94124" lon="-0.95437">
        <ele>4.6</ele>
        <time>2022-06-21T11:22:02Z</time>
      </trkpt>
      <trkpt lat="45.94124" lon="-0.95437">
        <ele>4.6</ele>
        <time>2022-06-21T11:22:03Z</time>
      </trkpt>
      <trkpt lat="45.94124" lon="-0.95437">
        <ele>4.6</ele>
        <time>2022-06-21T11:22:04Z</time>
      </trkpt>
      <trkpt lat="45.94124" lon="-0.95437">
        <ele>4.6</ele>
        <time>2022-06-21T11:22:05Z</time>
      </trkpt>
      <trkpt lat="45.94124" lon="-0.95437">
        <ele>4.6</ele>
        <time>2022-06-21T11:22:06Z</time>
      </trkpt>
      <trkpt lat="45.94125" lon="-0.95435">
        <ele>4.6</ele>
        <time>2022-06-21T11:22:07Z</time>
      </trkpt>
      <trkpt lat="45.94126" lon="-0.95434">
        <ele>4.7</ele>
        <time>2022-06-21T11:22:08Z</time>
      </trkpt>
      <trkpt lat="45.94126" lon="-0.95433">
        <ele>4.7</ele>
        <time>2022-06-21T11:22:09Z</time>
      </trkpt>
      <trkpt lat="45.94126" lon="-0.95433">
        <ele>4.7</ele>
        <time>2022-06-21T11:22:10Z</time>
      </trkpt>
      <trkpt lat="45.94126" lon="-0.95433">
        <ele>4.7</ele>
        <time>2022-06-21T11:22:11Z</time>
      </trkpt>
      <trkpt lat="45.94126" lon="-0.95432">
        <ele>4.7</ele>
        <time>2022-06-21T11:22:12Z</time>
      </trkpt>
      <trkpt lat="45.94126" lon="-0.95432">
        <ele>4.7</ele>
        <time>2022-06-21T11:22:13Z</time>
      </trkpt>
      <trkpt lat="45.94126" lon="-0.95432">
        <ele>4.7</ele>
        <time>2022-06-21T11:22:14Z</time>
      </trkpt>
      <trkpt lat="45.94126" lon="-0.95432">
        <ele>4.7</ele>
        <time>2022-06-21T11:22:15Z</time>
      </trkpt>
      <trkpt lat="45.94126" lon="-0.95432">
        <ele>4.7</ele>
        <time>2022-06-21T11:22:16Z</time>
      </trkpt>
      <trkpt lat="45.94126" lon="-0.95432">
        <ele>4.7</ele>
        <time>2022-06-21T11:22:17Z</time>
      </trkpt>
      <trkpt lat="45.94126" lon="-0.95432">
        <ele>4.7</ele>
        <time>2022-06-21T11:22:18Z</time>
      </trkpt>
      <trkpt lat="45.94126" lon="-0.95432">
        <ele>4.7</ele>
        <time>2022-06-21T11:22:19Z</time>
      </trkpt>
      <trkpt lat="45.94126" lon="-0.95432">
        <ele>4.7</ele>
        <time>2022-06-21T11:22:20Z</time>
      </trkpt>
      <trkpt lat="45.94126" lon="-0.95432">
        <ele>4.7</ele>
        <time>2022-06-21T11:22:21Z</time>
      </trkpt>
      <trkpt lat="45.94126" lon="-0.95432">
        <ele>4.7</ele>
        <time>2022-06-21T11:22:22Z</time>
      </trkpt>
      <trkpt lat="45.94126" lon="-0.95432">
        <ele>4.7</ele>
        <time>2022-06-21T11:22:23Z</time>
      </trkpt>
      <trkpt lat="45.94126" lon="-0.95432">
        <ele>4.7</ele>
        <time>2022-06-21T11:22:24Z</time>
      </trkpt>
      <trkpt lat="45.94126" lon="-0.95432">
        <ele>4.7</ele>
        <time>2022-06-21T11:22:25Z</time>
      </trkpt>
      <trkpt lat="45.94126" lon="-0.95432">
        <ele>4.7</ele>
        <time>2022-06-21T11:22:26Z</time>
      </trkpt>
      <trkpt lat="45.94126" lon="-0.95432">
        <ele>4.7</ele>
        <time>2022-06-21T11:22:27Z</time>
      </trkpt>
      <trkpt lat="45.94126" lon="-0.95432">
        <ele>4.7</ele>
        <time>2022-06-21T11:22:28Z</time>
      </trkpt>
      <trkpt lat="45.94126" lon="-0.95432">
        <ele>4.7</ele>
        <time>2022-06-21T11:22:29Z</time>
      </trkpt>
      <trkpt lat="45.94126" lon="-0.95432">
        <ele>4.7</ele>
        <time>2022-06-21T11:22:30Z</time>
      </trkpt>
      <trkpt lat="45.94126" lon="-0.95432">
        <ele>4.7</ele>
        <time>2022-06-21T11:22:31Z</time>
      </trkpt>
      <trkpt lat="45.94126" lon="-0.95432">
        <ele>4.7</ele>
        <time>2022-06-21T11:22:32Z</time>
      </trkpt>
      <trkpt lat="45.94126" lon="-0.95432">
        <ele>4.7</ele>
        <time>2022-06-21T11:22:33Z</time>
      </trkpt>
      <trkpt lat="45.94126" lon="-0.95432">
        <ele>4.7</ele>
        <time>2022-06-21T11:22:34Z</time>
      </trkpt>
      <trkpt lat="45.94126" lon="-0.95432">
        <ele>4.7</ele>
        <time>2022-06-21T11:22:35Z</time>
      </trkpt>
      <trkpt lat="45.94126" lon="-0.95432">
        <ele>4.7</ele>
        <time>2022-06-21T11:22:36Z</time>
      </trkpt>
      <trkpt lat="45.94126" lon="-0.95432">
        <ele>4.7</ele>
        <time>2022-06-21T11:22:37Z</time>
      </trkpt>
      <trkpt lat="45.94126" lon="-0.95432">
        <ele>4.7</ele>
        <time>2022-06-21T11:22:38Z</time>
      </trkpt>
      <trkpt lat="45.94126" lon="-0.95432">
        <ele>4.7</ele>
        <time>2022-06-21T11:22:39Z</time>
      </trkpt>
      <trkpt lat="45.94126" lon="-0.95432">
        <ele>4.7</ele>
        <time>2022-06-21T11:22:40Z</time>
      </trkpt>
      <trkpt lat="45.94126" lon="-0.95432">
        <ele>4.7</ele>
        <time>2022-06-21T11:22:41Z</time>
      </trkpt>
      <trkpt lat="45.94126" lon="-0.95432">
        <ele>4.7</ele>
        <time>2022-06-21T11:22:42Z</time>
      </trkpt>
      <trkpt lat="45.94126" lon="-0.95432">
        <ele>4.7</ele>
        <time>2022-06-21T11:22:43Z</time>
      </trkpt>
      <trkpt lat="45.94126" lon="-0.95432">
        <ele>4.7</ele>
        <time>2022-06-21T11:22:44Z</time>
      </trkpt>
      <trkpt lat="45.94126" lon="-0.95432">
        <ele>4.7</ele>
        <time>2022-06-21T11:22:45Z</time>
      </trkpt>
      <trkpt lat="45.94126" lon="-0.95432">
        <ele>4.7</ele>
        <time>2022-06-21T11:22:46Z</time>
      </trkpt>
      <trkpt lat="45.94126" lon="-0.95432">
        <ele>4.7</ele>
        <time>2022-06-21T11:22:47Z</time>
      </trkpt>
      <trkpt lat="45.94126" lon="-0.95432">
        <ele>4.7</ele>
        <time>2022-06-21T11:22:48Z</time>
      </trkpt>
      <trkpt lat="45.94126" lon="-0.95432">
        <ele>4.7</ele>
        <time>2022-06-21T11:22:49Z</time>
      </trkpt>
      <trkpt lat="45.94126" lon="-0.95432">
        <ele>4.7</ele>
        <time>2022-06-21T11:22:50Z</time>
      </trkpt>
      <trkpt lat="45.94126" lon="-0.95432">
        <ele>4.7</ele>
        <time>2022-06-21T11:22:51Z</time>
      </trkpt>
      <trkpt lat="45.94126" lon="-0.95432">
        <ele>4.7</ele>
        <time>2022-06-21T11:22:52Z</time>
      </trkpt>
      <trkpt lat="45.94126" lon="-0.95432">
        <ele>4.7</ele>
        <time>2022-06-21T11:22:53Z</time>
      </trkpt>
      <trkpt lat="45.94126" lon="-0.95432">
        <ele>4.7</ele>
        <time>2022-06-21T11:22:54Z</time>
      </trkpt>
      <trkpt lat="45.94126" lon="-0.95432">
        <ele>4.7</ele>
        <time>2022-06-21T11:22:55Z</time>
      </trkpt>
      <trkpt lat="45.94126" lon="-0.95432">
        <ele>4.7</ele>
        <time>2022-06-21T11:22:56Z</time>
      </trkpt>
      <trkpt lat="45.94126" lon="-0.95432">
        <ele>4.7</ele>
        <time>2022-06-21T11:22:57Z</time>
      </trkpt>
      <trkpt lat="45.94126" lon="-0.95432">
        <ele>4.7</ele>
        <time>2022-06-21T11:22:58Z</time>
      </trkpt>
      <trkpt lat="45.94126" lon="-0.95432">
        <ele>4.7</ele>
        <time>2022-06-21T11:22:59Z</time>
      </trkpt>
      <trkpt lat="45.94126" lon="-0.95432">
        <ele>4.7</ele>
        <time>2022-06-21T11:23:00Z</time>
      </trkpt>
      <trkpt lat="45.94126" lon="-0.95432">
        <ele>4.7</ele>
        <time>2022-06-21T11:23:01Z</time>
      </trkpt>
      <trkpt lat="45.94126" lon="-0.95432">
        <ele>4.7</ele>
        <time>2022-06-21T11:23:02Z</time>
      </trkpt>
      <trkpt lat="45.94126" lon="-0.95432">
        <ele>4.7</ele>
        <time>2022-06-21T11:23:03Z</time>
      </trkpt>
      <trkpt lat="45.94126" lon="-0.95432">
        <ele>4.7</ele>
        <time>2022-06-21T11:23:04Z</time>
      </trkpt>
      <trkpt lat="45.94126" lon="-0.95432">
        <ele>4.7</ele>
        <time>2022-06-21T11:23:05Z</time>
      </trkpt>
      <trkpt lat="45.94126" lon="-0.95432">
        <ele>4.7</ele>
        <time>2022-06-21T11:23:06Z</time>
      </trkpt>
      <trkpt lat="45.94126" lon="-0.95432">
        <ele>4.7</ele>
        <time>2022-06-21T11:23:07Z</time>
      </trkpt>
      <trkpt lat="45.94126" lon="-0.95432">
        <ele>4.7</ele>
        <time>2022-06-21T11:23:08Z</time>
      </trkpt>
      <trkpt lat="45.94126" lon="-0.95432">
        <ele>4.7</ele>
        <time>2022-06-21T11:23:09Z</time>
      </trkpt>
      <trkpt lat="45.94126" lon="-0.95432">
        <ele>4.7</ele>
        <time>2022-06-21T11:23:10Z</time>
      </trkpt>
      <trkpt lat="45.94126" lon="-0.95432">
        <ele>4.7</ele>
        <time>2022-06-21T11:23:11Z</time>
      </trkpt>
      <trkpt lat="45.94126" lon="-0.95432">
        <ele>4.7</ele>
        <time>2022-06-21T11:23:12Z</time>
      </trkpt>
      <trkpt lat="45.94126" lon="-0.95432">
        <ele>4.7</ele>
        <time>2022-06-21T11:23:13Z</time>
      </trkpt>
      <trkpt lat="45.94126" lon="-0.95432">
        <ele>4.7</ele>
        <time>2022-06-21T11:23:14Z</time>
      </trkpt>
      <trkpt lat="45.94126" lon="-0.95432">
        <ele>4.7</ele>
        <time>2022-06-21T11:23:15Z</time>
      </trkpt>
      <trkpt lat="45.94126" lon="-0.95432">
        <ele>4.7</ele>
        <time>2022-06-21T11:23:16Z</time>
      </trkpt>
      <trkpt lat="45.94126" lon="-0.95432">
        <ele>4.7</ele>
        <time>2022-06-21T11:23:17Z</time>
      </trkpt>
      <trkpt lat="45.94126" lon="-0.95432">
        <ele>4.7</ele>
        <time>2022-06-21T11:23:18Z</time>
      </trkpt>
      <trkpt lat="45.94126" lon="-0.95432">
        <ele>4.7</ele>
        <time>2022-06-21T11:23:19Z</time>
      </trkpt>
      <trkpt lat="45.94126" lon="-0.95432">
        <ele>4.7</ele>
        <time>2022-06-21T11:23:20Z</time>
      </trkpt>
      <trkpt lat="45.94126" lon="-0.95432">
        <ele>4.7</ele>
        <time>2022-06-21T11:23:21Z</time>
      </trkpt>
      <trkpt lat="45.94126" lon="-0.95432">
        <ele>4.7</ele>
        <time>2022-06-21T11:23:22Z</time>
      </trkpt>
      <trkpt lat="45.94126" lon="-0.95432">
        <ele>4.7</ele>
        <time>2022-06-21T11:23:23Z</time>
      </trkpt>
      <trkpt lat="45.94126" lon="-0.95432">
        <ele>4.7</ele>
        <time>2022-06-21T11:23:24Z</time>
      </trkpt>
      <trkpt lat="45.94126" lon="-0.95432">
        <ele>4.7</ele>
        <time>2022-06-21T11:23:25Z</time>
      </trkpt>
      <trkpt lat="45.94126" lon="-0.95432">
        <ele>4.7</ele>
        <time>2022-06-21T11:23:26Z</time>
      </trkpt>
      <trkpt lat="45.94126" lon="-0.95432">
        <ele>4.7</ele>
        <time>2022-06-21T11:23:27Z</time>
      </trkpt>
      <trkpt lat="45.94126" lon="-0.95432">
        <ele>4.7</ele>
        <time>2022-06-21T11:23:28Z</time>
      </trkpt>
      <trkpt lat="45.94126" lon="-0.95432">
        <ele>4.7</ele>
        <time>2022-06-21T11:23:29Z</time>
      </trkpt>
      <trkpt lat="45.94126" lon="-0.95432">
        <ele>4.7</ele>
        <time>2022-06-21T11:23:30Z</time>
      </trkpt>
      <trkpt lat="45.94126" lon="-0.95432">
        <ele>4.7</ele>
        <time>2022-06-21T11:23:31Z</time>
      </trkpt>
      <trkpt lat="45.94126" lon="-0.95432">
        <ele>4.7</ele>
        <time>2022-06-21T11:23:32Z</time>
      </trkpt>
      <trkpt lat="45.94126" lon="-0.95432">
        <ele>4.7</ele>
        <time>2022-06-21T11:23:33Z</time>
      </trkpt>
      <trkpt lat="45.94126" lon="-0.95432">
        <ele>4.7</ele>
        <time>2022-06-21T11:23:34Z</time>
      </trkpt>
      <trkpt lat="45.94126" lon="-0.95432">
        <ele>4.7</ele>
        <time>2022-06-21T11:23:35Z</time>
      </trkpt>
      <trkpt lat="45.94126" lon="-0.95432">
        <ele>4.7</ele>
        <time>2022-06-21T11:23:36Z</time>
      </trkpt>
      <trkpt lat="45.94126" lon="-0.95432">
        <ele>4.7</ele>
        <time>2022-06-21T11:23:37Z</time>
      </trkpt>
      <trkpt lat="45.94126" lon="-0.95432">
        <ele>4.7</ele>
        <time>2022-06-21T11:23:38Z</time>
      </trkpt>
      <trkpt lat="45.94126" lon="-0.95432">
        <ele>4.7</ele>
        <time>2022-06-21T11:23:39Z</time>
      </trkpt>
      <trkpt lat="45.94126" lon="-0.95432">
        <ele>4.7</ele>
        <time>2022-06-21T11:23:40Z</time>
      </trkpt>
      <trkpt lat="45.94126" lon="-0.95432">
        <ele>4.7</ele>
        <time>2022-06-21T11:23:41Z</time>
      </trkpt>
      <trkpt lat="45.94126" lon="-0.95432">
        <ele>4.7</ele>
        <time>2022-06-21T11:23:42Z</time>
      </trkpt>
      <trkpt lat="45.94126" lon="-0.95432">
        <ele>4.7</ele>
        <time>2022-06-21T11:23:43Z</time>
      </trkpt>
      <trkpt lat="45.94126" lon="-0.95432">
        <ele>4.7</ele>
        <time>2022-06-21T11:23:44Z</time>
      </trkpt>
      <trkpt lat="45.94126" lon="-0.95432">
        <ele>4.7</ele>
        <time>2022-06-21T11:23:45Z</time>
      </trkpt>
      <trkpt lat="45.94126" lon="-0.95432">
        <ele>4.7</ele>
        <time>2022-06-21T11:23:46Z</time>
      </trkpt>
      <trkpt lat="45.94126" lon="-0.95432">
        <ele>4.7</ele>
        <time>2022-06-21T11:23:47Z</time>
      </trkpt>
      <trkpt lat="45.94126" lon="-0.95432">
        <ele>4.7</ele>
        <time>2022-06-21T11:23:48Z</time>
      </trkpt>
      <trkpt lat="45.94126" lon="-0.95432">
        <ele>4.7</ele>
        <time>2022-06-21T11:23:49Z</time>
      </trkpt>
      <trkpt lat="45.94126" lon="-0.95432">
        <ele>4.7</ele>
        <time>2022-06-21T11:23:50Z</time>
      </trkpt>
      <trkpt lat="45.94126" lon="-0.95432">
        <ele>4.7</ele>
        <time>2022-06-21T11:23:51Z</time>
      </trkpt>
      <trkpt lat="45.94126" lon="-0.95432">
        <ele>4.7</ele>
        <time>2022-06-21T11:23:52Z</time>
      </trkpt>
      <trkpt lat="45.94126" lon="-0.95432">
        <ele>4.7</ele>
        <time>2022-06-21T11:23:53Z</time>
      </trkpt>
      <trkpt lat="45.94126" lon="-0.95432">
        <ele>4.7</ele>
        <time>2022-06-21T11:23:54Z</time>
      </trkpt>
      <trkpt lat="45.94126" lon="-0.95432">
        <ele>4.7</ele>
        <time>2022-06-21T11:23:55Z</time>
      </trkpt>
      <trkpt lat="45.94126" lon="-0.95432">
        <ele>4.7</ele>
        <time>2022-06-21T11:23:56Z</time>
      </trkpt>
      <trkpt lat="45.94126" lon="-0.95432">
        <ele>4.7</ele>
        <time>2022-06-21T11:23:57Z</time>
      </trkpt>
      <trkpt lat="45.94126" lon="-0.95432">
        <ele>4.7</ele>
        <time>2022-06-21T11:23:58Z</time>
      </trkpt>
      <trkpt lat="45.94126" lon="-0.95432">
        <ele>4.7</ele>
        <time>2022-06-21T11:23:59Z</time>
      </trkpt>
      <trkpt lat="45.94126" lon="-0.95432">
        <ele>4.7</ele>
        <time>2022-06-21T11:24:00Z</time>
      </trkpt>
      <trkpt lat="45.94126" lon="-0.95432">
        <ele>4.7</ele>
        <time>2022-06-21T11:24:01Z</time>
      </trkpt>
      <trkpt lat="45.94126" lon="-0.95432">
        <ele>4.7</ele>
        <time>2022-06-21T11:24:02Z</time>
      </trkpt>
      <trkpt lat="45.94126" lon="-0.95432">
        <ele>4.7</ele>
        <time>2022-06-21T11:24:03Z</time>
      </trkpt>
      <trkpt lat="45.94126" lon="-0.95432">
        <ele>4.7</ele>
        <time>2022-06-21T11:24:04Z</time>
      </trkpt>
      <trkpt lat="45.94126" lon="-0.95432">
        <ele>4.7</ele>
        <time>2022-06-21T11:24:05Z</time>
      </trkpt>
      <trkpt lat="45.94126" lon="-0.95432">
        <ele>4.7</ele>
        <time>2022-06-21T11:24:06Z</time>
      </trkpt>
      <trkpt lat="45.94126" lon="-0.95432">
        <ele>4.7</ele>
        <time>2022-06-21T11:24:07Z</time>
      </trkpt>
      <trkpt lat="45.94126" lon="-0.95432">
        <ele>4.7</ele>
        <time>2022-06-21T11:24:08Z</time>
      </trkpt>
      <trkpt lat="45.94126" lon="-0.95432">
        <ele>4.7</ele>
        <time>2022-06-21T11:24:09Z</time>
      </trkpt>
      <trkpt lat="45.94126" lon="-0.95432">
        <ele>4.7</ele>
        <time>2022-06-21T11:24:10Z</time>
      </trkpt>
      <trkpt lat="45.94126" lon="-0.95432">
        <ele>4.7</ele>
        <time>2022-06-21T11:24:11Z</time>
      </trkpt>
      <trkpt lat="45.94126" lon="-0.95432">
        <ele>4.7</ele>
        <time>2022-06-21T11:24:12Z</time>
      </trkpt>
      <trkpt lat="45.94126" lon="-0.95432">
        <ele>4.7</ele>
        <time>2022-06-21T11:24:13Z</time>
      </trkpt>
      <trkpt lat="45.94126" lon="-0.95432">
        <ele>4.7</ele>
        <time>2022-06-21T11:24:14Z</time>
      </trkpt>
      <trkpt lat="45.94126" lon="-0.95432">
        <ele>4.7</ele>
        <time>2022-06-21T11:24:15Z</time>
      </trkpt>
      <trkpt lat="45.94126" lon="-0.95432">
        <ele>4.7</ele>
        <time>2022-06-21T11:24:16Z</time>
      </trkpt>
      <trkpt lat="45.94126" lon="-0.95432">
        <ele>4.7</ele>
        <time>2022-06-21T11:24:17Z</time>
      </trkpt>
      <trkpt lat="45.94126" lon="-0.95432">
        <ele>4.7</ele>
        <time>2022-06-21T11:24:18Z</time>
      </trkpt>
      <trkpt lat="45.94126" lon="-0.95432">
        <ele>4.7</ele>
        <time>2022-06-21T11:24:19Z</time>
      </trkpt>
      <trkpt lat="45.94126" lon="-0.95433">
        <ele>4.7</ele>
        <time>2022-06-21T11:24:20Z</time>
      </trkpt>
      <trkpt lat="45.94126" lon="-0.95433">
        <ele>4.7</ele>
        <time>2022-06-21T11:24:21Z</time>
      </trkpt>
      <trkpt lat="45.94126" lon="-0.95433">
        <ele>4.7</ele>
        <time>2022-06-21T11:24:22Z</time>
      </trkpt>
      <trkpt lat="45.94126" lon="-0.95433">
        <ele>4.7</ele>
        <time>2022-06-21T11:24:23Z</time>
      </trkpt>
      <trkpt lat="45.94126" lon="-0.95433">
        <ele>4.7</ele>
        <time>2022-06-21T11:24:24Z</time>
      </trkpt>
      <trkpt lat="45.94126" lon="-0.95433">
        <ele>4.7</ele>
        <time>2022-06-21T11:24:25Z</time>
      </trkpt>
      <trkpt lat="45.94126" lon="-0.95433">
        <ele>4.7</ele>
        <time>2022-06-21T11:24:27Z</time>
      </trkpt>
      <trkpt lat="45.94126" lon="-0.95433">
        <ele>4.7</ele>
        <time>2022-06-21T11:24:28Z</time>
      </trkpt>
      <trkpt lat="45.94126" lon="-0.95433">
        <ele>4.7</ele>
        <time>2022-06-21T11:24:29Z</time>
      </trkpt>
      <trkpt lat="45.94126" lon="-0.95433">
        <ele>4.7</ele>
        <time>2022-06-21T11:24:30Z</time>
      </trkpt>
      <trkpt lat="45.94126" lon="-0.95433">
        <ele>4.7</ele>
        <time>2022-06-21T11:24:31Z</time>
      </trkpt>
      <trkpt lat="45.94126" lon="-0.95433">
        <ele>4.7</ele>
        <time>2022-06-21T11:24:32Z</time>
      </trkpt>
      <trkpt lat="45.94126" lon="-0.95433">
        <ele>4.7</ele>
        <time>2022-06-21T11:24:33Z</time>
      </trkpt>
      <trkpt lat="45.94127" lon="-0.95433">
        <ele>4.7</ele>
        <time>2022-06-21T11:24:34Z</time>
      </trkpt>
      <trkpt lat="45.94126" lon="-0.95433">
        <ele>4.7</ele>
        <time>2022-06-21T11:24:35Z</time>
      </trkpt>
      <trkpt lat="45.94126" lon="-0.95433">
        <ele>4.7</ele>
        <time>2022-06-21T11:24:36Z</time>
      </trkpt>
      <trkpt lat="45.94126" lon="-0.95433">
        <ele>4.7</ele>
        <time>2022-06-21T11:24:37Z</time>
      </trkpt>
      <trkpt lat="45.94126" lon="-0.95433">
        <ele>4.7</ele>
        <time>2022-06-21T11:24:38Z</time>
      </trkpt>
      <trkpt lat="45.94126" lon="-0.95433">
        <ele>4.7</ele>
        <time>2022-06-21T11:24:39Z</time>
      </trkpt>
      <trkpt lat="45.94126" lon="-0.95433">
        <ele>4.7</ele>
        <time>2022-06-21T11:24:40Z</time>
      </trkpt>
      <trkpt lat="45.94126" lon="-0.95433">
        <ele>4.7</ele>
        <time>2022-06-21T11:24:41Z</time>
      </trkpt>
      <trkpt lat="45.94126" lon="-0.95433">
        <ele>4.7</ele>
        <time>2022-06-21T11:24:42Z</time>
      </trkpt>
      <trkpt lat="45.94126" lon="-0.95433">
        <ele>4.7</ele>
        <time>2022-06-21T11:24:44Z</time>
      </trkpt>
      <trkpt lat="45.94126" lon="-0.95433">
        <ele>4.7</ele>
        <time>2022-06-21T11:24:45Z</time>
      </trkpt>
      <trkpt lat="45.94126" lon="-0.95433">
        <ele>4.7</ele>
        <time>2022-06-21T11:24:46Z</time>
      </trkpt>
      <trkpt lat="45.94126" lon="-0.95433">
        <ele>4.7</ele>
        <time>2022-06-21T11:24:47Z</time>
      </trkpt>
      <trkpt lat="45.94126" lon="-0.95433">
        <ele>4.7</ele>
        <time>2022-06-21T11:24:48Z</time>
      </trkpt>
      <trkpt lat="45.94126" lon="-0.95433">
        <ele>4.7</ele>
        <time>2022-06-21T11:24:49Z</time>
      </trkpt>
      <trkpt lat="45.94126" lon="-0.95433">
        <ele>4.7</ele>
        <time>2022-06-21T11:24:50Z</time>
      </trkpt>
      <trkpt lat="45.94126" lon="-0.95433">
        <ele>4.7</ele>
        <time>2022-06-21T11:24:51Z</time>
      </trkpt>
      <trkpt lat="45.94126" lon="-0.95433">
        <ele>4.7</ele>
        <time>2022-06-21T11:24:52Z</time>
      </trkpt>
      <trkpt lat="45.94126" lon="-0.95433">
        <ele>4.7</ele>
        <time>2022-06-21T11:24:53Z</time>
      </trkpt>
      <trkpt lat="45.94126" lon="-0.95433">
        <ele>4.7</ele>
        <time>2022-06-21T11:24:54Z</time>
      </trkpt>
      <trkpt lat="45.94126" lon="-0.95433">
        <ele>4.7</ele>
        <time>2022-06-21T11:24:55Z</time>
      </trkpt>
      <trkpt lat="45.94126" lon="-0.95433">
        <ele>4.7</ele>
        <time>2022-06-21T11:24:56Z</time>
      </trkpt>
      <trkpt lat="45.94126" lon="-0.95433">
        <ele>4.7</ele>
        <time>2022-06-21T11:24:57Z</time>
      </trkpt>
      <trkpt lat="45.94126" lon="-0.95433">
        <ele>4.7</ele>
        <time>2022-06-21T11:24:58Z</time>
      </trkpt>
      <trkpt lat="45.94126" lon="-0.95433">
        <ele>4.7</ele>
        <time>2022-06-21T11:24:59Z</time>
      </trkpt>
      <trkpt lat="45.94126" lon="-0.95433">
        <ele>4.7</ele>
        <time>2022-06-21T11:25:00Z</time>
      </trkpt>
      <trkpt lat="45.94126" lon="-0.95433">
        <ele>4.7</ele>
        <time>2022-06-21T11:25:01Z</time>
      </trkpt>
      <trkpt lat="45.94126" lon="-0.95433">
        <ele>4.7</ele>
        <time>2022-06-21T11:25:02Z</time>
      </trkpt>
      <trkpt lat="45.94126" lon="-0.95433">
        <ele>4.7</ele>
        <time>2022-06-21T11:25:03Z</time>
      </trkpt>
      <trkpt lat="45.94126" lon="-0.95433">
        <ele>4.7</ele>
        <time>2022-06-21T11:25:04Z</time>
      </trkpt>
      <trkpt lat="45.94126" lon="-0.95433">
        <ele>4.7</ele>
        <time>2022-06-21T11:25:05Z</time>
      </trkpt>
      <trkpt lat="45.94126" lon="-0.95433">
        <ele>4.7</ele>
        <time>2022-06-21T11:25:06Z</time>
      </trkpt>
      <trkpt lat="45.94126" lon="-0.95433">
        <ele>4.7</ele>
        <time>2022-06-21T11:25:07Z</time>
      </trkpt>
      <trkpt lat="45.94126" lon="-0.95433">
        <ele>4.7</ele>
        <time>2022-06-21T11:25:08Z</time>
      </trkpt>
      <trkpt lat="45.94126" lon="-0.95433">
        <ele>4.7</ele>
        <time>2022-06-21T11:25:09Z</time>
      </trkpt>
      <trkpt lat="45.94126" lon="-0.95433">
        <ele>4.7</ele>
        <time>2022-06-21T11:25:10Z</time>
      </trkpt>
      <trkpt lat="45.94126" lon="-0.95432">
        <ele>4.7</ele>
        <time>2022-06-21T11:25:11Z</time>
      </trkpt>
      <trkpt lat="45.94126" lon="-0.95432">
        <ele>4.7</ele>
        <time>2022-06-21T11:25:12Z</time>
      </trkpt>
      <trkpt lat="45.94126" lon="-0.95432">
        <ele>4.7</ele>
        <time>2022-06-21T11:25:13Z</time>
      </trkpt>
      <trkpt lat="45.94126" lon="-0.95432">
        <ele>4.7</ele>
        <time>2022-06-21T11:25:14Z</time>
      </trkpt>
      <trkpt lat="45.94126" lon="-0.95432">
        <ele>4.7</ele>
        <time>2022-06-21T11:25:15Z</time>
      </trkpt>
      <trkpt lat="45.94126" lon="-0.95432">
        <ele>4.7</ele>
        <time>2022-06-21T11:25:16Z</time>
      </trkpt>
      <trkpt lat="45.94126" lon="-0.95432">
        <ele>4.7</ele>
        <time>2022-06-21T11:25:17Z</time>
      </trkpt>
      <trkpt lat="45.94126" lon="-0.95432">
        <ele>4.7</ele>
        <time>2022-06-21T11:25:18Z</time>
      </trkpt>
      <trkpt lat="45.94126" lon="-0.95432">
        <ele>4.7</ele>
        <time>2022-06-21T11:25:19Z</time>
      </trkpt>
      <trkpt lat="45.94126" lon="-0.95432">
        <ele>4.7</ele>
        <time>2022-06-21T11:25:20Z</time>
      </trkpt>
      <trkpt lat="45.94126" lon="-0.95432">
        <ele>4.7</ele>
        <time>2022-06-21T11:25:21Z</time>
      </trkpt>
      <trkpt lat="45.94126" lon="-0.95432">
        <ele>4.7</ele>
        <time>2022-06-21T11:25:22Z</time>
      </trkpt>
      <trkpt lat="45.94126" lon="-0.95432">
        <ele>4.7</ele>
        <time>2022-06-21T11:25:23Z</time>
      </trkpt>
      <trkpt lat="45.94126" lon="-0.95432">
        <ele>4.7</ele>
        <time>2022-06-21T11:25:24Z</time>
      </trkpt>
      <trkpt lat="45.94126" lon="-0.95432">
        <ele>4.7</ele>
        <time>2022-06-21T11:25:25Z</time>
      </trkpt>
      <trkpt lat="45.94126" lon="-0.95433">
        <ele>4.7</ele>
        <time>2022-06-21T11:25:26Z</time>
      </trkpt>
      <trkpt lat="45.94126" lon="-0.95433">
        <ele>4.7</ele>
        <time>2022-06-21T11:25:27Z</time>
      </trkpt>
      <trkpt lat="45.94127" lon="-0.95432">
        <ele>4.7</ele>
        <time>2022-06-21T11:25:28Z</time>
      </trkpt>
      <trkpt lat="45.94127" lon="-0.95432">
        <ele>4.7</ele>
        <time>2022-06-21T11:25:29Z</time>
      </trkpt>
      <trkpt lat="45.94127" lon="-0.95432">
        <ele>4.7</ele>
        <time>2022-06-21T11:25:30Z</time>
      </trkpt>
      <trkpt lat="45.94127" lon="-0.95432">
        <ele>4.7</ele>
        <time>2022-06-21T11:25:31Z</time>
      </trkpt>
      <trkpt lat="45.94127" lon="-0.95432">
        <ele>4.7</ele>
        <time>2022-06-21T11:25:32Z</time>
      </trkpt>
      <trkpt lat="45.94127" lon="-0.95432">
        <ele>4.7</ele>
        <time>2022-06-21T11:25:33Z</time>
      </trkpt>
      <trkpt lat="45.94127" lon="-0.95432">
        <ele>4.7</ele>
        <time>2022-06-21T11:25:34Z</time>
      </trkpt>
      <trkpt lat="45.94127" lon="-0.95433">
        <ele>4.7</ele>
        <time>2022-06-21T11:25:35Z</time>
      </trkpt>
      <trkpt lat="45.94127" lon="-0.95433">
        <ele>4.7</ele>
        <time>2022-06-21T11:25:36Z</time>
      </trkpt>
      <trkpt lat="45.94126" lon="-0.95433">
        <ele>4.7</ele>
        <time>2022-06-21T11:25:37Z</time>
      </trkpt>
      <trkpt lat="45.94126" lon="-0.95433">
        <ele>4.7</ele>
        <time>2022-06-21T11:25:38Z</time>
      </trkpt>
      <trkpt lat="45.94126" lon="-0.95433">
        <ele>4.7</ele>
        <time>2022-06-21T11:25:39Z</time>
      </trkpt>
      <trkpt lat="45.94126" lon="-0.95433">
        <ele>4.7</ele>
        <time>2022-06-21T11:25:40Z</time>
      </trkpt>
      <trkpt lat="45.94127" lon="-0.95433">
        <ele>4.7</ele>
        <time>2022-06-21T11:25:41Z</time>
      </trkpt>
      <trkpt lat="45.94127" lon="-0.95433">
        <ele>4.7</ele>
        <time>2022-06-21T11:25:42Z</time>
      </trkpt>
      <trkpt lat="45.94127" lon="-0.95433">
        <ele>4.7</ele>
        <time>2022-06-21T11:25:43Z</time>
      </trkpt>
      <trkpt lat="45.94127" lon="-0.95433">
        <ele>4.7</ele>
        <time>2022-06-21T11:25:44Z</time>
      </trkpt>
      <trkpt lat="45.94127" lon="-0.95434">
        <ele>4.7</ele>
        <time>2022-06-21T11:25:45Z</time>
      </trkpt>
      <trkpt lat="45.94127" lon="-0.95433">
        <ele>4.7</ele>
        <time>2022-06-21T11:25:46Z</time>
      </trkpt>
      <trkpt lat="45.94127" lon="-0.95433">
        <ele>4.7</ele>
        <time>2022-06-21T11:25:47Z</time>
      </trkpt>
      <trkpt lat="45.94127" lon="-0.95433">
        <ele>4.7</ele>
        <time>2022-06-21T11:25:48Z</time>
      </trkpt>
      <trkpt lat="45.94128" lon="-0.95433">
        <ele>4.7</ele>
        <time>2022-06-21T11:25:49Z</time>
      </trkpt>
      <trkpt lat="45.94128" lon="-0.95433">
        <ele>4.7</ele>
        <time>2022-06-21T11:25:50Z</time>
      </trkpt>
      <trkpt lat="45.94129" lon="-0.95434">
        <ele>4.7</ele>
        <time>2022-06-21T11:25:51Z</time>
      </trkpt>
      <trkpt lat="45.9413" lon="-0.95435">
        <ele>4.7</ele>
        <time>2022-06-21T11:25:52Z</time>
      </trkpt>
      <trkpt lat="45.9413" lon="-0.95436">
        <ele>4.7</ele>
        <time>2022-06-21T11:25:53Z</time>
      </trkpt>
      <trkpt lat="45.9413" lon="-0.95437">
        <ele>4.7</ele>
        <time>2022-06-21T11:25:54Z</time>
      </trkpt>
      <trkpt lat="45.9413" lon="-0.9544">
        <ele>4.7</ele>
        <time>2022-06-21T11:25:55Z</time>
      </trkpt>
      <trkpt lat="45.9413" lon="-0.9544">
        <ele>4.7</ele>
        <time>2022-06-21T11:25:56Z</time>
      </trkpt>
      <trkpt lat="45.9413" lon="-0.95441">
        <ele>4.8</ele>
        <time>2022-06-21T11:25:57Z</time>
      </trkpt>
      <trkpt lat="45.9413" lon="-0.95442">
        <ele>4.8</ele>
        <time>2022-06-21T11:25:58Z</time>
      </trkpt>
      <trkpt lat="45.9413" lon="-0.95443">
        <ele>4.8</ele>
        <time>2022-06-21T11:25:59Z</time>
      </trkpt>
      <trkpt lat="45.9413" lon="-0.95443">
        <ele>4.8</ele>
        <time>2022-06-21T11:26:00Z</time>
      </trkpt>
      <trkpt lat="45.9413" lon="-0.95444">
        <ele>4.8</ele>
        <time>2022-06-21T11:26:01Z</time>
      </trkpt>
      <trkpt lat="45.9413" lon="-0.95445">
        <ele>4.8</ele>
        <time>2022-06-21T11:26:02Z</time>
      </trkpt>
      <trkpt lat="45.9413" lon="-0.95446">
        <ele>4.8</ele>
        <time>2022-06-21T11:26:03Z</time>
      </trkpt>
      <trkpt lat="45.9413" lon="-0.95447">
        <ele>4.8</ele>
        <time>2022-06-21T11:26:04Z</time>
      </trkpt>
      <trkpt lat="45.9413" lon="-0.95448">
        <ele>4.8</ele>
        <time>2022-06-21T11:26:05Z</time>
      </trkpt>
      <trkpt lat="45.9413" lon="-0.95448">
        <ele>4.8</ele>
        <time>2022-06-21T11:26:06Z</time>
      </trkpt>
      <trkpt lat="45.9413" lon="-0.95449">
        <ele>4.8</ele>
        <time>2022-06-21T11:26:07Z</time>
      </trkpt>
      <trkpt lat="45.9413" lon="-0.95449">
        <ele>4.8</ele>
        <time>2022-06-21T11:26:08Z</time>
      </trkpt>
      <trkpt lat="45.94131" lon="-0.95449">
        <ele>4.8</ele>
        <time>2022-06-21T11:26:09Z</time>
      </trkpt>
      <trkpt lat="45.94132" lon="-0.9545">
        <ele>4.8</ele>
        <time>2022-06-21T11:26:10Z</time>
      </trkpt>
      <trkpt lat="45.94132" lon="-0.95451">
        <ele>4.8</ele>
        <time>2022-06-21T11:26:11Z</time>
      </trkpt>
      <trkpt lat="45.94133" lon="-0.95451">
        <ele>4.8</ele>
        <time>2022-06-21T11:26:12Z</time>
      </trkpt>
      <trkpt lat="45.94133" lon="-0.95452">
        <ele>4.8</ele>
        <time>2022-06-21T11:26:13Z</time>
      </trkpt>
      <trkpt lat="45.94133" lon="-0.95452">
        <ele>4.8</ele>
        <time>2022-06-21T11:26:14Z</time>
      </trkpt>
      <trkpt lat="45.94133" lon="-0.95452">
        <ele>4.8</ele>
        <time>2022-06-21T11:26:15Z</time>
      </trkpt>
      <trkpt lat="45.94133" lon="-0.95452">
        <ele>4.8</ele>
        <time>2022-06-21T11:26:16Z</time>
      </trkpt>
      <trkpt lat="45.94133" lon="-0.95452">
        <ele>4.8</ele>
        <time>2022-06-21T11:26:17Z</time>
      </trkpt>
      <trkpt lat="45.94133" lon="-0.95452">
        <ele>4.8</ele>
        <time>2022-06-21T11:26:18Z</time>
      </trkpt>
      <trkpt lat="45.94133" lon="-0.95452">
        <ele>4.8</ele>
        <time>2022-06-21T11:26:19Z</time>
      </trkpt>
      <trkpt lat="45.94133" lon="-0.95452">
        <ele>4.8</ele>
        <time>2022-06-21T11:26:20Z</time>
      </trkpt>
      <trkpt lat="45.94133" lon="-0.95452">
        <ele>4.8</ele>
        <time>2022-06-21T11:26:21Z</time>
      </trkpt>
      <trkpt lat="45.94133" lon="-0.95452">
        <ele>4.8</ele>
        <time>2022-06-21T11:26:22Z</time>
      </trkpt>
      <trkpt lat="45.94134" lon="-0.95453">
        <ele>4.8</ele>
        <time>2022-06-21T11:26:23Z</time>
      </trkpt>
      <trkpt lat="45.94134" lon="-0.95454">
        <ele>4.8</ele>
        <time>2022-06-21T11:26:24Z</time>
      </trkpt>
      <trkpt lat="45.94135" lon="-0.95456">
        <ele>4.8</ele>
        <time>2022-06-21T11:26:25Z</time>
      </trkpt>
      <trkpt lat="45.94136" lon="-0.95457">
        <ele>4.9</ele>
        <time>2022-06-21T11:26:26Z</time>
      </trkpt>
      <trkpt lat="45.94136" lon="-0.95459">
        <ele>4.9</ele>
        <time>2022-06-21T11:26:27Z</time>
      </trkpt>
      <trkpt lat="45.94136" lon="-0.9546">
        <ele>4.9</ele>
        <time>2022-06-21T11:26:28Z</time>
      </trkpt>
      <trkpt lat="45.94136" lon="-0.95461">
        <ele>4.9</ele>
        <time>2022-06-21T11:26:29Z</time>
      </trkpt>
      <trkpt lat="45.94136" lon="-0.95462">
        <ele>4.9</ele>
        <time>2022-06-21T11:26:30Z</time>
      </trkpt>
      <trkpt lat="45.94136" lon="-0.95463">
        <ele>4.9</ele>
        <time>2022-06-21T11:26:31Z</time>
      </trkpt>
      <trkpt lat="45.94137" lon="-0.95464">
        <ele>4.9</ele>
        <time>2022-06-21T11:26:32Z</time>
      </trkpt>
      <trkpt lat="45.94137" lon="-0.95465">
        <ele>4.9</ele>
        <time>2022-06-21T11:26:33Z</time>
      </trkpt>
      <trkpt lat="45.94137" lon="-0.95466">
        <ele>4.9</ele>
        <time>2022-06-21T11:26:34Z</time>
      </trkpt>
      <trkpt lat="45.94137" lon="-0.95467">
        <ele>4.9</ele>
        <time>2022-06-21T11:26:35Z</time>
      </trkpt>
      <trkpt lat="45.94137" lon="-0.95468">
        <ele>4.9</ele>
        <time>2022-06-21T11:26:36Z</time>
      </trkpt>
      <trkpt lat="45.94137" lon="-0.95469">
        <ele>4.9</ele>
        <time>2022-06-21T11:26:37Z</time>
      </trkpt>
      <trkpt lat="45.94136" lon="-0.9547">
        <ele>4.9</ele>
        <time>2022-06-21T11:26:38Z</time>
      </trkpt>
      <trkpt lat="45.94136" lon="-0.95472">
        <ele>4.9</ele>
        <time>2022-06-21T11:26:39Z</time>
      </trkpt>
      <trkpt lat="45.94136" lon="-0.95473">
        <ele>4.9</ele>
        <time>2022-06-21T11:26:40Z</time>
      </trkpt>
      <trkpt lat="45.94136" lon="-0.95474">
        <ele>4.9</ele>
        <time>2022-06-21T11:26:41Z</time>
      </trkpt>
      <trkpt lat="45.94135" lon="-0.95476">
        <ele>5</ele>
        <time>2022-06-21T11:26:42Z</time>
      </trkpt>
      <trkpt lat="45.94135" lon="-0.95477">
        <ele>5</ele>
        <time>2022-06-21T11:26:43Z</time>
      </trkpt>
      <trkpt lat="45.94135" lon="-0.95478">
        <ele>5</ele>
        <time>2022-06-21T11:26:44Z</time>
      </trkpt>
      <trkpt lat="45.94135" lon="-0.95479">
        <ele>5</ele>
        <time>2022-06-21T11:26:45Z</time>
      </trkpt>
      <trkpt lat="45.94135" lon="-0.95481">
        <ele>5</ele>
        <time>2022-06-21T11:26:46Z</time>
      </trkpt>
      <trkpt lat="45.94135" lon="-0.95482">
        <ele>5</ele>
        <time>2022-06-21T11:26:47Z</time>
      </trkpt>
      <trkpt lat="45.94135" lon="-0.95483">
        <ele>5</ele>
        <time>2022-06-21T11:26:48Z</time>
      </trkpt>
      <trkpt lat="45.94135" lon="-0.95486">
        <ele>5.1</ele>
        <time>2022-06-21T11:26:49Z</time>
      </trkpt>
      <trkpt lat="45.94135" lon="-0.95487">
        <ele>5.1</ele>
        <time>2022-06-21T11:26:50Z</time>
      </trkpt>
      <trkpt lat="45.94135" lon="-0.95488">
        <ele>5.1</ele>
        <time>2022-06-21T11:26:51Z</time>
      </trkpt>
      <trkpt lat="45.94136" lon="-0.95489">
        <ele>5.1</ele>
        <time>2022-06-21T11:26:52Z</time>
      </trkpt>
      <trkpt lat="45.94136" lon="-0.95491">
        <ele>5.1</ele>
        <time>2022-06-21T11:26:53Z</time>
      </trkpt>
      <trkpt lat="45.94136" lon="-0.95492">
        <ele>5.1</ele>
        <time>2022-06-21T11:26:54Z</time>
      </trkpt>
      <trkpt lat="45.94136" lon="-0.95494">
        <ele>5.1</ele>
        <time>2022-06-21T11:26:55Z</time>
      </trkpt>
      <trkpt lat="45.94137" lon="-0.95495">
        <ele>5.1</ele>
        <time>2022-06-21T11:26:56Z</time>
      </trkpt>
      <trkpt lat="45.94137" lon="-0.95496">
        <ele>5.2</ele>
        <time>2022-06-21T11:26:57Z</time>
      </trkpt>
      <trkpt lat="45.94138" lon="-0.95497">
        <ele>5.2</ele>
        <time>2022-06-21T11:26:58Z</time>
      </trkpt>
      <trkpt lat="45.94138" lon="-0.95499">
        <ele>5.2</ele>
        <time>2022-06-21T11:26:59Z</time>
      </trkpt>
      <trkpt lat="45.94138" lon="-0.955">
        <ele>5.2</ele>
        <time>2022-06-21T11:27:00Z</time>
      </trkpt>
      <trkpt lat="45.94139" lon="-0.95501">
        <ele>5.2</ele>
        <time>2022-06-21T11:27:01Z</time>
      </trkpt>
      <trkpt lat="45.94139" lon="-0.95502">
        <ele>5.2</ele>
        <time>2022-06-21T11:27:02Z</time>
      </trkpt>
      <trkpt lat="45.94139" lon="-0.95505">
        <ele>5.2</ele>
        <time>2022-06-21T11:27:03Z</time>
      </trkpt>
      <trkpt lat="45.94139" lon="-0.95506">
        <ele>5.2</ele>
        <time>2022-06-21T11:27:04Z</time>
      </trkpt>
      <trkpt lat="45.94139" lon="-0.95507">
        <ele>5.2</ele>
        <time>2022-06-21T11:27:05Z</time>
      </trkpt>
      <trkpt lat="45.94139" lon="-0.95508">
        <ele>5.3</ele>
        <time>2022-06-21T11:27:06Z</time>
      </trkpt>
      <trkpt lat="45.94139" lon="-0.95509">
        <ele>5.3</ele>
        <time>2022-06-21T11:27:07Z</time>
      </trkpt>
      <trkpt lat="45.9414" lon="-0.95511">
        <ele>5.3</ele>
        <time>2022-06-21T11:27:08Z</time>
      </trkpt>
      <trkpt lat="45.9414" lon="-0.95512">
        <ele>5.3</ele>
        <time>2022-06-21T11:27:09Z</time>
      </trkpt>
      <trkpt lat="45.9414" lon="-0.95513">
        <ele>5.3</ele>
        <time>2022-06-21T11:27:10Z</time>
      </trkpt>
      <trkpt lat="45.9414" lon="-0.95514">
        <ele>5.3</ele>
        <time>2022-06-21T11:27:11Z</time>
      </trkpt>
      <trkpt lat="45.9414" lon="-0.95515">
        <ele>5.3</ele>
        <time>2022-06-21T11:27:12Z</time>
      </trkpt>
      <trkpt lat="45.9414" lon="-0.95516">
        <ele>5.3</ele>
        <time>2022-06-21T11:27:13Z</time>
      </trkpt>
      <trkpt lat="45.9414" lon="-0.95517">
        <ele>5.3</ele>
        <time>2022-06-21T11:27:14Z</time>
      </trkpt>
      <trkpt lat="45.9414" lon="-0.95518">
        <ele>5.3</ele>
        <time>2022-06-21T11:27:15Z</time>
      </trkpt>
      <trkpt lat="45.9414" lon="-0.95519">
        <ele>5.3</ele>
        <time>2022-06-21T11:27:16Z</time>
      </trkpt>
      <trkpt lat="45.94141" lon="-0.9552">
        <ele>5.4</ele>
        <time>2022-06-21T11:27:17Z</time>
      </trkpt>
      <trkpt lat="45.94141" lon="-0.95522">
        <ele>5.4</ele>
        <time>2022-06-21T11:27:18Z</time>
      </trkpt>
      <trkpt lat="45.94141" lon="-0.95523">
        <ele>5.4</ele>
        <time>2022-06-21T11:27:19Z</time>
      </trkpt>
      <trkpt lat="45.94141" lon="-0.95524">
        <ele>5.4</ele>
        <time>2022-06-21T11:27:20Z</time>
      </trkpt>
      <trkpt lat="45.94142" lon="-0.95525">
        <ele>5.4</ele>
        <time>2022-06-21T11:27:21Z</time>
      </trkpt>
      <trkpt lat="45.94142" lon="-0.95527">
        <ele>5.4</ele>
        <time>2022-06-21T11:27:22Z</time>
      </trkpt>
      <trkpt lat="45.94142" lon="-0.95527">
        <ele>5.4</ele>
        <time>2022-06-21T11:27:23Z</time>
      </trkpt>
      <trkpt lat="45.94142" lon="-0.95528">
        <ele>5.4</ele>
        <time>2022-06-21T11:27:24Z</time>
      </trkpt>
      <trkpt lat="45.94142" lon="-0.9553">
        <ele>5.5</ele>
        <time>2022-06-21T11:27:25Z</time>
      </trkpt>
      <trkpt lat="45.94141" lon="-0.95531">
        <ele>5.5</ele>
        <time>2022-06-21T11:27:26Z</time>
      </trkpt>
      <trkpt lat="45.94141" lon="-0.95532">
        <ele>5.5</ele>
        <time>2022-06-21T11:27:27Z</time>
      </trkpt>
      <trkpt lat="45.94141" lon="-0.95533">
        <ele>5.5</ele>
        <time>2022-06-21T11:27:28Z</time>
      </trkpt>
      <trkpt lat="45.94142" lon="-0.95534">
        <ele>5.5</ele>
        <time>2022-06-21T11:27:29Z</time>
      </trkpt>
      <trkpt lat="45.94142" lon="-0.95535">
        <ele>5.6</ele>
        <time>2022-06-21T11:27:30Z</time>
      </trkpt>
      <trkpt lat="45.94142" lon="-0.95536">
        <ele>5.6</ele>
        <time>2022-06-21T11:27:31Z</time>
      </trkpt>
      <trkpt lat="45.94142" lon="-0.95538">
        <ele>5.6</ele>
        <time>2022-06-21T11:27:32Z</time>
      </trkpt>
      <trkpt lat="45.94142" lon="-0.95539">
        <ele>5.6</ele>
        <time>2022-06-21T11:27:33Z</time>
      </trkpt>
      <trkpt lat="45.94142" lon="-0.9554">
        <ele>5.6</ele>
        <time>2022-06-21T11:27:34Z</time>
      </trkpt>
      <trkpt lat="45.94142" lon="-0.95541">
        <ele>5.7</ele>
        <time>2022-06-21T11:27:35Z</time>
      </trkpt>
      <trkpt lat="45.94142" lon="-0.95542">
        <ele>5.6</ele>
        <time>2022-06-21T11:27:36Z</time>
      </trkpt>
      <trkpt lat="45.94142" lon="-0.95543">
        <ele>5.6</ele>
        <time>2022-06-21T11:27:37Z</time>
      </trkpt>
      <trkpt lat="45.94142" lon="-0.95544">
        <ele>5.6</ele>
        <time>2022-06-21T11:27:38Z</time>
      </trkpt>
      <trkpt lat="45.94143" lon="-0.95545">
        <ele>5.6</ele>
        <time>2022-06-21T11:27:39Z</time>
      </trkpt>
      <trkpt lat="45.94143" lon="-0.95546">
        <ele>5.6</ele>
        <time>2022-06-21T11:27:40Z</time>
      </trkpt>
      <trkpt lat="45.94143" lon="-0.95547">
        <ele>5.6</ele>
        <time>2022-06-21T11:27:41Z</time>
      </trkpt>
      <trkpt lat="45.94144" lon="-0.95547">
        <ele>5.6</ele>
        <time>2022-06-21T11:27:42Z</time>
      </trkpt>
      <trkpt lat="45.94144" lon="-0.95548">
        <ele>5.6</ele>
        <time>2022-06-21T11:27:43Z</time>
      </trkpt>
      <trkpt lat="45.94145" lon="-0.95549">
        <ele>5.6</ele>
        <time>2022-06-21T11:27:44Z</time>
      </trkpt>
      <trkpt lat="45.94145" lon="-0.9555">
        <ele>5.6</ele>
        <time>2022-06-21T11:27:45Z</time>
      </trkpt>
      <trkpt lat="45.94146" lon="-0.9555">
        <ele>5.6</ele>
        <time>2022-06-21T11:27:46Z</time>
      </trkpt>
      <trkpt lat="45.94146" lon="-0.95551">
        <ele>5.6</ele>
        <time>2022-06-21T11:27:47Z</time>
      </trkpt>
      <trkpt lat="45.94147" lon="-0.95552">
        <ele>5.6</ele>
        <time>2022-06-21T11:27:48Z</time>
      </trkpt>
      <trkpt lat="45.94147" lon="-0.95552">
        <ele>5.6</ele>
        <time>2022-06-21T11:27:49Z</time>
      </trkpt>
      <trkpt lat="45.94148" lon="-0.95553">
        <ele>5.6</ele>
        <time>2022-06-21T11:27:50Z</time>
      </trkpt>
      <trkpt lat="45.94149" lon="-0.95552">
        <ele>5.6</ele>
        <time>2022-06-21T11:27:51Z</time>
      </trkpt>
      <trkpt lat="45.94149" lon="-0.95552">
        <ele>5.6</ele>
        <time>2022-06-21T11:27:52Z</time>
      </trkpt>
      <trkpt lat="45.94149" lon="-0.95552">
        <ele>5.6</ele>
        <time>2022-06-21T11:27:53Z</time>
      </trkpt>
      <trkpt lat="45.94149" lon="-0.95551">
        <ele>5.6</ele>
        <time>2022-06-21T11:27:54Z</time>
      </trkpt>
      <trkpt lat="45.94149" lon="-0.9555">
        <ele>5.6</ele>
        <time>2022-06-21T11:27:55Z</time>
      </trkpt>
      <trkpt lat="45.94149" lon="-0.9555">
        <ele>5.6</ele>
        <time>2022-06-21T11:27:56Z</time>
      </trkpt>
      <trkpt lat="45.94148" lon="-0.95549">
        <ele>5.6</ele>
        <time>2022-06-21T11:27:57Z</time>
      </trkpt>
      <trkpt lat="45.94148" lon="-0.95548">
        <ele>5.6</ele>
        <time>2022-06-21T11:27:58Z</time>
      </trkpt>
      <trkpt lat="45.94147" lon="-0.95547">
        <ele>5.6</ele>
        <time>2022-06-21T11:27:59Z</time>
      </trkpt>
      <trkpt lat="45.94147" lon="-0.95546">
        <ele>5.6</ele>
        <time>2022-06-21T11:28:00Z</time>
      </trkpt>
      <trkpt lat="45.94146" lon="-0.95545">
        <ele>5.6</ele>
        <time>2022-06-21T11:28:01Z</time>
      </trkpt>
      <trkpt lat="45.94146" lon="-0.95543">
        <ele>5.6</ele>
        <time>2022-06-21T11:28:02Z</time>
      </trkpt>
      <trkpt lat="45.94146" lon="-0.95542">
        <ele>5.6</ele>
        <time>2022-06-21T11:28:03Z</time>
      </trkpt>
      <trkpt lat="45.94146" lon="-0.9554">
        <ele>5.6</ele>
        <time>2022-06-21T11:28:04Z</time>
      </trkpt>
      <trkpt lat="45.94147" lon="-0.95539">
        <ele>5.6</ele>
        <time>2022-06-21T11:28:05Z</time>
      </trkpt>
      <trkpt lat="45.94147" lon="-0.95538">
        <ele>5.6</ele>
        <time>2022-06-21T11:28:06Z</time>
      </trkpt>
      <trkpt lat="45.94147" lon="-0.95537">
        <ele>5.6</ele>
        <time>2022-06-21T11:28:07Z</time>
      </trkpt>
      <trkpt lat="45.94147" lon="-0.95535">
        <ele>5.6</ele>
        <time>2022-06-21T11:28:08Z</time>
      </trkpt>
      <trkpt lat="45.94147" lon="-0.95534">
        <ele>5.6</ele>
        <time>2022-06-21T11:28:09Z</time>
      </trkpt>
      <trkpt lat="45.94147" lon="-0.95533">
        <ele>5.6</ele>
        <time>2022-06-21T11:28:10Z</time>
      </trkpt>
      <trkpt lat="45.94147" lon="-0.95533">
        <ele>5.6</ele>
        <time>2022-06-21T11:28:11Z</time>
      </trkpt>
      <trkpt lat="45.94147" lon="-0.95533">
        <ele>5.6</ele>
        <time>2022-06-21T11:28:12Z</time>
      </trkpt>
      <trkpt lat="45.94148" lon="-0.95534">
        <ele>5.6</ele>
        <time>2022-06-21T11:28:13Z</time>
      </trkpt>
      <trkpt lat="45.94148" lon="-0.95534">
        <ele>5.6</ele>
        <time>2022-06-21T11:28:14Z</time>
      </trkpt>
      <trkpt lat="45.94149" lon="-0.95535">
        <ele>5.6</ele>
        <time>2022-06-21T11:28:15Z</time>
      </trkpt>
      <trkpt lat="45.94149" lon="-0.95535">
        <ele>5.6</ele>
        <time>2022-06-21T11:28:16Z</time>
      </trkpt>
      <trkpt lat="45.94149" lon="-0.95534">
        <ele>5.6</ele>
        <time>2022-06-21T11:28:17Z</time>
      </trkpt>
      <trkpt lat="45.94149" lon="-0.95534">
        <ele>5.6</ele>
        <time>2022-06-21T11:28:18Z</time>
      </trkpt>
      <trkpt lat="45.94148" lon="-0.95534">
        <ele>5.6</ele>
        <time>2022-06-21T11:28:19Z</time>
      </trkpt>
      <trkpt lat="45.94148" lon="-0.95534">
        <ele>5.6</ele>
        <time>2022-06-21T11:28:20Z</time>
      </trkpt>
      <trkpt lat="45.94148" lon="-0.95534">
        <ele>5.6</ele>
        <time>2022-06-21T11:28:21Z</time>
      </trkpt>
      <trkpt lat="45.94148" lon="-0.95533">
        <ele>5.6</ele>
        <time>2022-06-21T11:28:22Z</time>
      </trkpt>
      <trkpt lat="45.94148" lon="-0.95533">
        <ele>5.6</ele>
        <time>2022-06-21T11:28:23Z</time>
      </trkpt>
      <trkpt lat="45.94148" lon="-0.95534">
        <ele>5.6</ele>
        <time>2022-06-21T11:28:24Z</time>
      </trkpt>
      <trkpt lat="45.94148" lon="-0.95534">
        <ele>5.6</ele>
        <time>2022-06-21T11:28:25Z</time>
      </trkpt>
      <trkpt lat="45.94148" lon="-0.95534">
        <ele>5.6</ele>
        <time>2022-06-21T11:28:26Z</time>
      </trkpt>
      <trkpt lat="45.94148" lon="-0.95534">
        <ele>5.6</ele>
        <time>2022-06-21T11:28:27Z</time>
      </trkpt>
      <trkpt lat="45.94148" lon="-0.95534">
        <ele>5.6</ele>
        <time>2022-06-21T11:28:28Z</time>
      </trkpt>
      <trkpt lat="45.94148" lon="-0.95534">
        <ele>5.6</ele>
        <time>2022-06-21T11:28:29Z</time>
      </trkpt>
      <trkpt lat="45.94148" lon="-0.95534">
        <ele>5.6</ele>
        <time>2022-06-21T11:28:30Z</time>
      </trkpt>
      <trkpt lat="45.94148" lon="-0.95534">
        <ele>5.6</ele>
        <time>2022-06-21T11:28:31Z</time>
      </trkpt>
      <trkpt lat="45.94148" lon="-0.95534">
        <ele>5.6</ele>
        <time>2022-06-21T11:28:32Z</time>
      </trkpt>
      <trkpt lat="45.94148" lon="-0.95534">
        <ele>5.6</ele>
        <time>2022-06-21T11:28:33Z</time>
      </trkpt>
      <trkpt lat="45.94148" lon="-0.95534">
        <ele>5.6</ele>
        <time>2022-06-21T11:28:34Z</time>
      </trkpt>
      <trkpt lat="45.94148" lon="-0.95534">
        <ele>5.6</ele>
        <time>2022-06-21T11:28:35Z</time>
      </trkpt>
      <trkpt lat="45.94147" lon="-0.95534">
        <ele>5.6</ele>
        <time>2022-06-21T11:28:36Z</time>
      </trkpt>
      <trkpt lat="45.94147" lon="-0.95534">
        <ele>5.6</ele>
        <time>2022-06-21T11:28:37Z</time>
      </trkpt>
      <trkpt lat="45.94146" lon="-0.95534">
        <ele>5.6</ele>
        <time>2022-06-21T11:28:38Z</time>
      </trkpt>
      <trkpt lat="45.94146" lon="-0.95534">
        <ele>5.6</ele>
        <time>2022-06-21T11:28:39Z</time>
      </trkpt>
      <trkpt lat="45.94146" lon="-0.95534">
        <ele>5.6</ele>
        <time>2022-06-21T11:28:40Z</time>
      </trkpt>
      <trkpt lat="45.94146" lon="-0.95535">
        <ele>5.6</ele>
        <time>2022-06-21T11:28:41Z</time>
      </trkpt>
      <trkpt lat="45.94146" lon="-0.95535">
        <ele>5.6</ele>
        <time>2022-06-21T11:28:42Z</time>
      </trkpt>
      <trkpt lat="45.94146" lon="-0.95535">
        <ele>5.6</ele>
        <time>2022-06-21T11:28:43Z</time>
      </trkpt>
      <trkpt lat="45.94145" lon="-0.95535">
        <ele>5.6</ele>
        <time>2022-06-21T11:28:44Z</time>
      </trkpt>
      <trkpt lat="45.94145" lon="-0.95535">
        <ele>5.6</ele>
        <time>2022-06-21T11:28:45Z</time>
      </trkpt>
      <trkpt lat="45.94144" lon="-0.95535">
        <ele>5.6</ele>
        <time>2022-06-21T11:28:46Z</time>
      </trkpt>
      <trkpt lat="45.94143" lon="-0.95536">
        <ele>5.6</ele>
        <time>2022-06-21T11:28:47Z</time>
      </trkpt>
      <trkpt lat="45.94142" lon="-0.95536">
        <ele>5.6</ele>
        <time>2022-06-21T11:28:48Z</time>
      </trkpt>
      <trkpt lat="45.94142" lon="-0.95536">
        <ele>5.6</ele>
        <time>2022-06-21T11:28:49Z</time>
      </trkpt>
      <trkpt lat="45.94142" lon="-0.95537">
        <ele>5.6</ele>
        <time>2022-06-21T11:28:50Z</time>
      </trkpt>
      <trkpt lat="45.94142" lon="-0.95539">
        <ele>5.6</ele>
        <time>2022-06-21T11:28:51Z</time>
      </trkpt>
      <trkpt lat="45.94141" lon="-0.95542">
        <ele>5.6</ele>
        <time>2022-06-21T11:28:52Z</time>
      </trkpt>
      <trkpt lat="45.94141" lon="-0.95543">
        <ele>5.6</ele>
        <time>2022-06-21T11:28:53Z</time>
      </trkpt>
      <trkpt lat="45.94141" lon="-0.95544">
        <ele>5.6</ele>
        <time>2022-06-21T11:28:54Z</time>
      </trkpt>
      <trkpt lat="45.94142" lon="-0.95545">
        <ele>5.6</ele>
        <time>2022-06-21T11:28:55Z</time>
      </trkpt>
      <trkpt lat="45.94142" lon="-0.95546">
        <ele>5.6</ele>
        <time>2022-06-21T11:28:56Z</time>
      </trkpt>
      <trkpt lat="45.94143" lon="-0.95547">
        <ele>5.6</ele>
        <time>2022-06-21T11:28:57Z</time>
      </trkpt>
      <trkpt lat="45.94144" lon="-0.95547">
        <ele>5.6</ele>
        <time>2022-06-21T11:28:58Z</time>
      </trkpt>
      <trkpt lat="45.94145" lon="-0.95547">
        <ele>5.6</ele>
        <time>2022-06-21T11:28:59Z</time>
      </trkpt>
      <trkpt lat="45.94146" lon="-0.95548">
        <ele>5.6</ele>
        <time>2022-06-21T11:29:00Z</time>
      </trkpt>
      <trkpt lat="45.94146" lon="-0.95548">
        <ele>5.6</ele>
        <time>2022-06-21T11:29:01Z</time>
      </trkpt>
      <trkpt lat="45.94147" lon="-0.95548">
        <ele>5.6</ele>
        <time>2022-06-21T11:29:02Z</time>
      </trkpt>
      <trkpt lat="45.94148" lon="-0.95548">
        <ele>5.6</ele>
        <time>2022-06-21T11:29:03Z</time>
      </trkpt>
      <trkpt lat="45.94149" lon="-0.95548">
        <ele>5.6</ele>
        <time>2022-06-21T11:29:04Z</time>
      </trkpt>
      <trkpt lat="45.9415" lon="-0.95548">
        <ele>5.6</ele>
        <time>2022-06-21T11:29:05Z</time>
      </trkpt>
      <trkpt lat="45.94151" lon="-0.95548">
        <ele>5.6</ele>
        <time>2022-06-21T11:29:06Z</time>
      </trkpt>
      <trkpt lat="45.94152" lon="-0.95548">
        <ele>5.6</ele>
        <time>2022-06-21T11:29:07Z</time>
      </trkpt>
      <trkpt lat="45.94153" lon="-0.95548">
        <ele>5.6</ele>
        <time>2022-06-21T11:29:08Z</time>
      </trkpt>
      <trkpt lat="45.94153" lon="-0.95548">
        <ele>5.6</ele>
        <time>2022-06-21T11:29:09Z</time>
      </trkpt>
      <trkpt lat="45.94154" lon="-0.95548">
        <ele>5.6</ele>
        <time>2022-06-21T11:29:10Z</time>
      </trkpt>
      <trkpt lat="45.94155" lon="-0.95547">
        <ele>5.6</ele>
        <time>2022-06-21T11:29:11Z</time>
      </trkpt>
      <trkpt lat="45.94156" lon="-0.95547">
        <ele>5.6</ele>
        <time>2022-06-21T11:29:12Z</time>
      </trkpt>
      <trkpt lat="45.94157" lon="-0.95547">
        <ele>5.6</ele>
        <time>2022-06-21T11:29:13Z</time>
      </trkpt>
      <trkpt lat="45.94158" lon="-0.95547">
        <ele>5.6</ele>
        <time>2022-06-21T11:29:14Z</time>
      </trkpt>
      <trkpt lat="45.94159" lon="-0.95547">
        <ele>5.6</ele>
        <time>2022-06-21T11:29:15Z</time>
      </trkpt>
      <trkpt lat="45.94161" lon="-0.95547">
        <ele>5.5</ele>
        <time>2022-06-21T11:29:16Z</time>
      </trkpt>
      <trkpt lat="45.94162" lon="-0.95547">
        <ele>5.5</ele>
        <time>2022-06-21T11:29:17Z</time>
      </trkpt>
      <trkpt lat="45.94163" lon="-0.95547">
        <ele>5.5</ele>
        <time>2022-06-21T11:29:19Z</time>
      </trkpt>
      <trkpt lat="45.94165" lon="-0.95546">
        <ele>5.5</ele>
        <time>2022-06-21T11:29:21Z</time>
      </trkpt>
      <trkpt lat="45.94166" lon="-0.95546">
        <ele>5.5</ele>
        <time>2022-06-21T11:29:22Z</time>
      </trkpt>
      <trkpt lat="45.94167" lon="-0.95545">
        <ele>5.5</ele>
        <time>2022-06-21T11:29:23Z</time>
      </trkpt>
      <trkpt lat="45.94168" lon="-0.95545">
        <ele>5.5</ele>
        <time>2022-06-21T11:29:24Z</time>
      </trkpt>
      <trkpt lat="45.94169" lon="-0.95545">
        <ele>5.5</ele>
        <time>2022-06-21T11:29:25Z</time>
      </trkpt>
      <trkpt lat="45.9417" lon="-0.95545">
        <ele>5.5</ele>
        <time>2022-06-21T11:29:26Z</time>
      </trkpt>
      <trkpt lat="45.94171" lon="-0.95545">
        <ele>5.5</ele>
        <time>2022-06-21T11:29:27Z</time>
      </trkpt>
      <trkpt lat="45.94172" lon="-0.95545">
        <ele>5.5</ele>
        <time>2022-06-21T11:29:28Z</time>
      </trkpt>
      <trkpt lat="45.94173" lon="-0.95544">
        <ele>5.5</ele>
        <time>2022-06-21T11:29:29Z</time>
      </trkpt>
      <trkpt lat="45.94174" lon="-0.95543">
        <ele>5.5</ele>
        <time>2022-06-21T11:29:30Z</time>
      </trkpt>
      <trkpt lat="45.94175" lon="-0.95542">
        <ele>5.5</ele>
        <time>2022-06-21T11:29:31Z</time>
      </trkpt>
      <trkpt lat="45.94176" lon="-0.95541">
        <ele>5.5</ele>
        <time>2022-06-21T11:29:32Z</time>
      </trkpt>
      <trkpt lat="45.94176" lon="-0.95541">
        <ele>5.5</ele>
        <time>2022-06-21T11:29:33Z</time>
      </trkpt>
      <trkpt lat="45.94177" lon="-0.9554">
        <ele>5.5</ele>
        <time>2022-06-21T11:29:34Z</time>
      </trkpt>
      <trkpt lat="45.94178" lon="-0.9554">
        <ele>5.5</ele>
        <time>2022-06-21T11:29:35Z</time>
      </trkpt>
      <trkpt lat="45.94179" lon="-0.9554">
        <ele>5.5</ele>
        <time>2022-06-21T11:29:36Z</time>
      </trkpt>
      <trkpt lat="45.9418" lon="-0.95541">
        <ele>5.5</ele>
        <time>2022-06-21T11:29:37Z</time>
      </trkpt>
      <trkpt lat="45.94181" lon="-0.95541">
        <ele>5.5</ele>
        <time>2022-06-21T11:29:38Z</time>
      </trkpt>
      <trkpt lat="45.94182" lon="-0.95541">
        <ele>5.5</ele>
        <time>2022-06-21T11:29:39Z</time>
      </trkpt>
      <trkpt lat="45.94183" lon="-0.95542">
        <ele>5.4</ele>
        <time>2022-06-21T11:29:40Z</time>
      </trkpt>
      <trkpt lat="45.94184" lon="-0.95542">
        <ele>5.4</ele>
        <time>2022-06-21T11:29:41Z</time>
      </trkpt>
      <trkpt lat="45.94185" lon="-0.95542">
        <ele>5.4</ele>
        <time>2022-06-21T11:29:42Z</time>
      </trkpt>
      <trkpt lat="45.94186" lon="-0.95542">
        <ele>5.4</ele>
        <time>2022-06-21T11:29:43Z</time>
      </trkpt>
      <trkpt lat="45.94187" lon="-0.95542">
        <ele>5.4</ele>
        <time>2022-06-21T11:29:44Z</time>
      </trkpt>
      <trkpt lat="45.94189" lon="-0.95543">
        <ele>5.4</ele>
        <time>2022-06-21T11:29:45Z</time>
      </trkpt>
      <trkpt lat="45.9419" lon="-0.95543">
        <ele>5.4</ele>
        <time>2022-06-21T11:29:46Z</time>
      </trkpt>
      <trkpt lat="45.94191" lon="-0.95544">
        <ele>5.4</ele>
        <time>2022-06-21T11:29:47Z</time>
      </trkpt>
      <trkpt lat="45.94192" lon="-0.95545">
        <ele>5.4</ele>
        <time>2022-06-21T11:29:48Z</time>
      </trkpt>
      <trkpt lat="45.94193" lon="-0.95546">
        <ele>5.4</ele>
        <time>2022-06-21T11:29:49Z</time>
      </trkpt>
      <trkpt lat="45.94193" lon="-0.95547">
        <ele>5.4</ele>
        <time>2022-06-21T11:29:50Z</time>
      </trkpt>
      <trkpt lat="45.94194" lon="-0.95547">
        <ele>5.4</ele>
        <time>2022-06-21T11:29:51Z</time>
      </trkpt>
      <trkpt lat="45.94195" lon="-0.95547">
        <ele>5.4</ele>
        <time>2022-06-21T11:29:52Z</time>
      </trkpt>
      <trkpt lat="45.94196" lon="-0.95545">
        <ele>5.4</ele>
        <time>2022-06-21T11:29:53Z</time>
      </trkpt>
      <trkpt lat="45.94197" lon="-0.95544">
        <ele>5.3</ele>
        <time>2022-06-21T11:29:54Z</time>
      </trkpt>
      <trkpt lat="45.94197" lon="-0.95544">
        <ele>5.3</ele>
        <time>2022-06-21T11:29:55Z</time>
      </trkpt>
      <trkpt lat="45.94199" lon="-0.95542">
        <ele>5.3</ele>
        <time>2022-06-21T11:29:57Z</time>
      </trkpt>
      <trkpt lat="45.942" lon="-0.95542">
        <ele>5.3</ele>
        <time>2022-06-21T11:29:58Z</time>
      </trkpt>
      <trkpt lat="45.942" lon="-0.95541">
        <ele>5.3</ele>
        <time>2022-06-21T11:29:59Z</time>
      </trkpt>
      <trkpt lat="45.942" lon="-0.9554">
        <ele>5.3</ele>
        <time>2022-06-21T11:30:00Z</time>
      </trkpt>
      <trkpt lat="45.94201" lon="-0.95539">
        <ele>5.3</ele>
        <time>2022-06-21T11:30:01Z</time>
      </trkpt>
      <trkpt lat="45.94201" lon="-0.95537">
        <ele>5.3</ele>
        <time>2022-06-21T11:30:02Z</time>
      </trkpt>
      <trkpt lat="45.94201" lon="-0.95536">
        <ele>5.3</ele>
        <time>2022-06-21T11:30:03Z</time>
      </trkpt>
      <trkpt lat="45.94202" lon="-0.95535">
        <ele>5.3</ele>
        <time>2022-06-21T11:30:04Z</time>
      </trkpt>
      <trkpt lat="45.94202" lon="-0.95534">
        <ele>5.3</ele>
        <time>2022-06-21T11:30:05Z</time>
      </trkpt>
      <trkpt lat="45.94203" lon="-0.95533">
        <ele>5.3</ele>
        <time>2022-06-21T11:30:06Z</time>
      </trkpt>
      <trkpt lat="45.94203" lon="-0.95533">
        <ele>5.3</ele>
        <time>2022-06-21T11:30:07Z</time>
      </trkpt>
      <trkpt lat="45.94204" lon="-0.95532">
        <ele>5.3</ele>
        <time>2022-06-21T11:30:08Z</time>
      </trkpt>
      <trkpt lat="45.94205" lon="-0.95532">
        <ele>5.3</ele>
        <time>2022-06-21T11:30:09Z</time>
      </trkpt>
      <trkpt lat="45.94206" lon="-0.95532">
        <ele>5.3</ele>
        <time>2022-06-21T11:30:10Z</time>
      </trkpt>
      <trkpt lat="45.94207" lon="-0.95533">
        <ele>5.3</ele>
        <time>2022-06-21T11:30:11Z</time>
      </trkpt>
      <trkpt lat="45.94208" lon="-0.95534">
        <ele>5.3</ele>
        <time>2022-06-21T11:30:12Z</time>
      </trkpt>
      <trkpt lat="45.94209" lon="-0.95534">
        <ele>5.3</ele>
        <time>2022-06-21T11:30:13Z</time>
      </trkpt>
      <trkpt lat="45.94209" lon="-0.95535">
        <ele>5.3</ele>
        <time>2022-06-21T11:30:14Z</time>
      </trkpt>
      <trkpt lat="45.94209" lon="-0.95536">
        <ele>5.3</ele>
        <time>2022-06-21T11:30:15Z</time>
      </trkpt>
      <trkpt lat="45.94209" lon="-0.95537">
        <ele>5.3</ele>
        <time>2022-06-21T11:30:16Z</time>
      </trkpt>
      <trkpt lat="45.94207" lon="-0.95538">
        <ele>5.3</ele>
        <time>2022-06-21T11:30:17Z</time>
      </trkpt>
      <trkpt lat="45.94207" lon="-0.95539">
        <ele>5.3</ele>
        <time>2022-06-21T11:30:18Z</time>
      </trkpt>
      <trkpt lat="45.94207" lon="-0.9554">
        <ele>5.3</ele>
        <time>2022-06-21T11:30:19Z</time>
      </trkpt>
      <trkpt lat="45.94207" lon="-0.95541">
        <ele>5.3</ele>
        <time>2022-06-21T11:30:20Z</time>
      </trkpt>
      <trkpt lat="45.94207" lon="-0.95542">
        <ele>5.3</ele>
        <time>2022-06-21T11:30:21Z</time>
      </trkpt>
      <trkpt lat="45.94208" lon="-0.95542">
        <ele>5.3</ele>
        <time>2022-06-21T11:30:22Z</time>
      </trkpt>
      <trkpt lat="45.94208" lon="-0.95541">
        <ele>5.3</ele>
        <time>2022-06-21T11:30:23Z</time>
      </trkpt>
      <trkpt lat="45.94209" lon="-0.95541">
        <ele>5.2</ele>
        <time>2022-06-21T11:30:24Z</time>
      </trkpt>
      <trkpt lat="45.94209" lon="-0.95541">
        <ele>5.2</ele>
        <time>2022-06-21T11:30:25Z</time>
      </trkpt>
      <trkpt lat="45.9421" lon="-0.95541">
        <ele>5.2</ele>
        <time>2022-06-21T11:30:26Z</time>
      </trkpt>
      <trkpt lat="45.9421" lon="-0.95541">
        <ele>5.2</ele>
        <time>2022-06-21T11:30:27Z</time>
      </trkpt>
      <trkpt lat="45.9421" lon="-0.95541">
        <ele>5.2</ele>
        <time>2022-06-21T11:30:28Z</time>
      </trkpt>
      <trkpt lat="45.94209" lon="-0.95541">
        <ele>5.2</ele>
        <time>2022-06-21T11:30:29Z</time>
      </trkpt>
      <trkpt lat="45.94209" lon="-0.95542">
        <ele>5.2</ele>
        <time>2022-06-21T11:30:30Z</time>
      </trkpt>
      <trkpt lat="45.94209" lon="-0.95542">
        <ele>5.2</ele>
        <time>2022-06-21T11:30:31Z</time>
      </trkpt>
      <trkpt lat="45.94208" lon="-0.95543">
        <ele>5.2</ele>
        <time>2022-06-21T11:30:32Z</time>
      </trkpt>
      <trkpt lat="45.94208" lon="-0.95543">
        <ele>5.2</ele>
        <time>2022-06-21T11:30:33Z</time>
      </trkpt>
      <trkpt lat="45.94208" lon="-0.95542">
        <ele>5.2</ele>
        <time>2022-06-21T11:30:34Z</time>
      </trkpt>
      <trkpt lat="45.94208" lon="-0.95542">
        <ele>5.2</ele>
        <time>2022-06-21T11:30:35Z</time>
      </trkpt>
      <trkpt lat="45.94208" lon="-0.95542">
        <ele>5.2</ele>
        <time>2022-06-21T11:30:36Z</time>
      </trkpt>
      <trkpt lat="45.94208" lon="-0.95541">
        <ele>5.2</ele>
        <time>2022-06-21T11:30:37Z</time>
      </trkpt>
      <trkpt lat="45.94208" lon="-0.95541">
        <ele>5.2</ele>
        <time>2022-06-21T11:30:38Z</time>
      </trkpt>
      <trkpt lat="45.94207" lon="-0.95541">
        <ele>5.2</ele>
        <time>2022-06-21T11:30:39Z</time>
      </trkpt>
      <trkpt lat="45.94207" lon="-0.95541">
        <ele>5.2</ele>
        <time>2022-06-21T11:30:40Z</time>
      </trkpt>
      <trkpt lat="45.94207" lon="-0.95541">
        <ele>5.2</ele>
        <time>2022-06-21T11:30:41Z</time>
      </trkpt>
      <trkpt lat="45.94207" lon="-0.95541">
        <ele>5.2</ele>
        <time>2022-06-21T11:30:42Z</time>
      </trkpt>
      <trkpt lat="45.94207" lon="-0.95541">
        <ele>5.2</ele>
        <time>2022-06-21T11:30:43Z</time>
      </trkpt>
      <trkpt lat="45.94207" lon="-0.95541">
        <ele>5.2</ele>
        <time>2022-06-21T11:30:44Z</time>
      </trkpt>
      <trkpt lat="45.94207" lon="-0.95541">
        <ele>5.2</ele>
        <time>2022-06-21T11:30:45Z</time>
      </trkpt>
      <trkpt lat="45.94207" lon="-0.95541">
        <ele>5.2</ele>
        <time>2022-06-21T11:30:46Z</time>
      </trkpt>
      <trkpt lat="45.94207" lon="-0.95541">
        <ele>5.2</ele>
        <time>2022-06-21T11:30:47Z</time>
      </trkpt>
      <trkpt lat="45.94207" lon="-0.95541">
        <ele>5.2</ele>
        <time>2022-06-21T11:30:48Z</time>
      </trkpt>
      <trkpt lat="45.94207" lon="-0.95541">
        <ele>5.2</ele>
        <time>2022-06-21T11:30:49Z</time>
      </trkpt>
      <trkpt lat="45.94207" lon="-0.95541">
        <ele>5.2</ele>
        <time>2022-06-21T11:30:50Z</time>
      </trkpt>
      <trkpt lat="45.94207" lon="-0.95541">
        <ele>5.2</ele>
        <time>2022-06-21T11:30:51Z</time>
      </trkpt>
      <trkpt lat="45.94207" lon="-0.95541">
        <ele>5.2</ele>
        <time>2022-06-21T11:30:52Z</time>
      </trkpt>
      <trkpt lat="45.94207" lon="-0.95541">
        <ele>5.2</ele>
        <time>2022-06-21T11:30:53Z</time>
      </trkpt>
      <trkpt lat="45.94207" lon="-0.95541">
        <ele>5.2</ele>
        <time>2022-06-21T11:30:54Z</time>
      </trkpt>
      <trkpt lat="45.94207" lon="-0.95541">
        <ele>5.2</ele>
        <time>2022-06-21T11:30:55Z</time>
      </trkpt>
      <trkpt lat="45.94207" lon="-0.95541">
        <ele>5.2</ele>
        <time>2022-06-21T11:30:56Z</time>
      </trkpt>
      <trkpt lat="45.94207" lon="-0.95541">
        <ele>5.2</ele>
        <time>2022-06-21T11:30:57Z</time>
      </trkpt>
      <trkpt lat="45.94207" lon="-0.95541">
        <ele>5.2</ele>
        <time>2022-06-21T11:30:58Z</time>
      </trkpt>
      <trkpt lat="45.94207" lon="-0.95541">
        <ele>5.2</ele>
        <time>2022-06-21T11:30:59Z</time>
      </trkpt>
      <trkpt lat="45.94207" lon="-0.95541">
        <ele>5.2</ele>
        <time>2022-06-21T11:31:00Z</time>
      </trkpt>
      <trkpt lat="45.94207" lon="-0.95541">
        <ele>5.2</ele>
        <time>2022-06-21T11:31:01Z</time>
      </trkpt>
      <trkpt lat="45.94207" lon="-0.95541">
        <ele>5.2</ele>
        <time>2022-06-21T11:31:02Z</time>
      </trkpt>
      <trkpt lat="45.94207" lon="-0.95541">
        <ele>5.2</ele>
        <time>2022-06-21T11:31:03Z</time>
      </trkpt>
      <trkpt lat="45.94207" lon="-0.95541">
        <ele>5.2</ele>
        <time>2022-06-21T11:31:04Z</time>
      </trkpt>
      <trkpt lat="45.94207" lon="-0.95541">
        <ele>5.2</ele>
        <time>2022-06-21T11:31:05Z</time>
      </trkpt>
      <trkpt lat="45.94207" lon="-0.95541">
        <ele>5.2</ele>
        <time>2022-06-21T11:31:06Z</time>
      </trkpt>
      <trkpt lat="45.94207" lon="-0.95541">
        <ele>5.2</ele>
        <time>2022-06-21T11:31:07Z</time>
      </trkpt>
      <trkpt lat="45.94207" lon="-0.95541">
        <ele>5.2</ele>
        <time>2022-06-21T11:31:08Z</time>
      </trkpt>
      <trkpt lat="45.94207" lon="-0.95541">
        <ele>5.2</ele>
        <time>2022-06-21T11:31:09Z</time>
      </trkpt>
      <trkpt lat="45.94207" lon="-0.95541">
        <ele>5.2</ele>
        <time>2022-06-21T11:31:10Z</time>
      </trkpt>
      <trkpt lat="45.94207" lon="-0.95541">
        <ele>5.2</ele>
        <time>2022-06-21T11:31:11Z</time>
      </trkpt>
      <trkpt lat="45.94207" lon="-0.95541">
        <ele>5.2</ele>
        <time>2022-06-21T11:31:12Z</time>
      </trkpt>
      <trkpt lat="45.94207" lon="-0.95541">
        <ele>5.2</ele>
        <time>2022-06-21T11:31:13Z</time>
      </trkpt>
      <trkpt lat="45.94207" lon="-0.95541">
        <ele>5.2</ele>
        <time>2022-06-21T11:31:14Z</time>
      </trkpt>
      <trkpt lat="45.94207" lon="-0.95541">
        <ele>5.2</ele>
        <time>2022-06-21T11:31:15Z</time>
      </trkpt>
      <trkpt lat="45.94207" lon="-0.95541">
        <ele>5.2</ele>
        <time>2022-06-21T11:31:16Z</time>
      </trkpt>
      <trkpt lat="45.94207" lon="-0.95541">
        <ele>5.2</ele>
        <time>2022-06-21T11:31:17Z</time>
      </trkpt>
      <trkpt lat="45.94207" lon="-0.95541">
        <ele>5.2</ele>
        <time>2022-06-21T11:31:18Z</time>
      </trkpt>
      <trkpt lat="45.94207" lon="-0.95541">
        <ele>5.2</ele>
        <time>2022-06-21T11:31:19Z</time>
      </trkpt>
      <trkpt lat="45.94207" lon="-0.95541">
        <ele>5.2</ele>
        <time>2022-06-21T11:31:20Z</time>
      </trkpt>
      <trkpt lat="45.94207" lon="-0.95541">
        <ele>5.2</ele>
        <time>2022-06-21T11:31:21Z</time>
      </trkpt>
      <trkpt lat="45.94207" lon="-0.95541">
        <ele>5.2</ele>
        <time>2022-06-21T11:31:22Z</time>
      </trkpt>
      <trkpt lat="45.94207" lon="-0.95541">
        <ele>5.2</ele>
        <time>2022-06-21T11:31:23Z</time>
      </trkpt>
      <trkpt lat="45.94207" lon="-0.95541">
        <ele>5.2</ele>
        <time>2022-06-21T11:31:24Z</time>
      </trkpt>
      <trkpt lat="45.94207" lon="-0.95541">
        <ele>5.2</ele>
        <time>2022-06-21T11:31:25Z</time>
      </trkpt>
      <trkpt lat="45.94207" lon="-0.95541">
        <ele>5.2</ele>
        <time>2022-06-21T11:31:26Z</time>
      </trkpt>
      <trkpt lat="45.94207" lon="-0.95541">
        <ele>5.2</ele>
        <time>2022-06-21T11:31:27Z</time>
      </trkpt>
      <trkpt lat="45.94207" lon="-0.95541">
        <ele>5.2</ele>
        <time>2022-06-21T11:31:28Z</time>
      </trkpt>
      <trkpt lat="45.94207" lon="-0.95541">
        <ele>5.2</ele>
        <time>2022-06-21T11:31:29Z</time>
      </trkpt>
      <trkpt lat="45.94207" lon="-0.95541">
        <ele>5.2</ele>
        <time>2022-06-21T11:31:30Z</time>
      </trkpt>
      <trkpt lat="45.94207" lon="-0.95541">
        <ele>5.2</ele>
        <time>2022-06-21T11:31:31Z</time>
      </trkpt>
      <trkpt lat="45.94207" lon="-0.95541">
        <ele>5.2</ele>
        <time>2022-06-21T11:31:32Z</time>
      </trkpt>
      <trkpt lat="45.94207" lon="-0.95541">
        <ele>5.2</ele>
        <time>2022-06-21T11:31:33Z</time>
      </trkpt>
      <trkpt lat="45.94207" lon="-0.95541">
        <ele>5.2</ele>
        <time>2022-06-21T11:31:34Z</time>
      </trkpt>
      <trkpt lat="45.94207" lon="-0.95541">
        <ele>5.2</ele>
        <time>2022-06-21T11:31:35Z</time>
      </trkpt>
      <trkpt lat="45.94207" lon="-0.95541">
        <ele>5.2</ele>
        <time>2022-06-21T11:31:36Z</time>
      </trkpt>
      <trkpt lat="45.94207" lon="-0.95541">
        <ele>5.2</ele>
        <time>2022-06-21T11:31:37Z</time>
      </trkpt>
      <trkpt lat="45.94207" lon="-0.95541">
        <ele>5.2</ele>
        <time>2022-06-21T11:31:38Z</time>
      </trkpt>
      <trkpt lat="45.94207" lon="-0.95541">
        <ele>5.2</ele>
        <time>2022-06-21T11:31:39Z</time>
      </trkpt>
      <trkpt lat="45.94207" lon="-0.95541">
        <ele>5.2</ele>
        <time>2022-06-21T11:31:40Z</time>
      </trkpt>
      <trkpt lat="45.94207" lon="-0.95541">
        <ele>5.2</ele>
        <time>2022-06-21T11:31:41Z</time>
      </trkpt>
      <trkpt lat="45.94207" lon="-0.95541">
        <ele>5.2</ele>
        <time>2022-06-21T11:31:42Z</time>
      </trkpt>
      <trkpt lat="45.94207" lon="-0.95541">
        <ele>5.2</ele>
        <time>2022-06-21T11:31:43Z</time>
      </trkpt>
      <trkpt lat="45.94207" lon="-0.95541">
        <ele>5.2</ele>
        <time>2022-06-21T11:31:44Z</time>
      </trkpt>
      <trkpt lat="45.94207" lon="-0.95541">
        <ele>5.2</ele>
        <time>2022-06-21T11:31:45Z</time>
      </trkpt>
      <trkpt lat="45.94207" lon="-0.95541">
        <ele>5.2</ele>
        <time>2022-06-21T11:31:46Z</time>
      </trkpt>
      <trkpt lat="45.94207" lon="-0.95541">
        <ele>5.2</ele>
        <time>2022-06-21T11:31:47Z</time>
      </trkpt>
      <trkpt lat="45.94207" lon="-0.95541">
        <ele>5.2</ele>
        <time>2022-06-21T11:31:48Z</time>
      </trkpt>
      <trkpt lat="45.94207" lon="-0.95541">
        <ele>5.2</ele>
        <time>2022-06-21T11:31:49Z</time>
      </trkpt>
      <trkpt lat="45.94207" lon="-0.95541">
        <ele>5.2</ele>
        <time>2022-06-21T11:31:50Z</time>
      </trkpt>
      <trkpt lat="45.94207" lon="-0.95541">
        <ele>5.2</ele>
        <time>2022-06-21T11:31:51Z</time>
      </trkpt>
      <trkpt lat="45.94207" lon="-0.95541">
        <ele>5.2</ele>
        <time>2022-06-21T11:31:52Z</time>
      </trkpt>
      <trkpt lat="45.94207" lon="-0.95541">
        <ele>5.2</ele>
        <time>2022-06-21T11:31:53Z</time>
      </trkpt>
      <trkpt lat="45.94207" lon="-0.95541">
        <ele>5.2</ele>
        <time>2022-06-21T11:31:54Z</time>
      </trkpt>
      <trkpt lat="45.94207" lon="-0.95541">
        <ele>5.2</ele>
        <time>2022-06-21T11:31:55Z</time>
      </trkpt>
      <trkpt lat="45.94207" lon="-0.95541">
        <ele>5.2</ele>
        <time>2022-06-21T11:31:56Z</time>
      </trkpt>
      <trkpt lat="45.94207" lon="-0.95541">
        <ele>5.2</ele>
        <time>2022-06-21T11:31:57Z</time>
      </trkpt>
      <trkpt lat="45.94207" lon="-0.95541">
        <ele>5.2</ele>
        <time>2022-06-21T11:31:58Z</time>
      </trkpt>
      <trkpt lat="45.94207" lon="-0.95541">
        <ele>5.2</ele>
        <time>2022-06-21T11:31:59Z</time>
      </trkpt>
      <trkpt lat="45.94207" lon="-0.95541">
        <ele>5.2</ele>
        <time>2022-06-21T11:32:00Z</time>
      </trkpt>
      <trkpt lat="45.94207" lon="-0.95541">
        <ele>5.2</ele>
        <time>2022-06-21T11:32:01Z</time>
      </trkpt>
      <trkpt lat="45.94207" lon="-0.95541">
        <ele>5.2</ele>
        <time>2022-06-21T11:32:02Z</time>
      </trkpt>
      <trkpt lat="45.94207" lon="-0.95541">
        <ele>5.2</ele>
        <time>2022-06-21T11:32:03Z</time>
      </trkpt>
      <trkpt lat="45.94207" lon="-0.95541">
        <ele>5.2</ele>
        <time>2022-06-21T11:32:04Z</time>
      </trkpt>
      <trkpt lat="45.94207" lon="-0.95541">
        <ele>5.2</ele>
        <time>2022-06-21T11:32:05Z</time>
      </trkpt>
      <trkpt lat="45.94207" lon="-0.95541">
        <ele>5.2</ele>
        <time>2022-06-21T11:32:06Z</time>
      </trkpt>
      <trkpt lat="45.94207" lon="-0.95541">
        <ele>5.2</ele>
        <time>2022-06-21T11:32:07Z</time>
      </trkpt>
      <trkpt lat="45.94207" lon="-0.95541">
        <ele>5.2</ele>
        <time>2022-06-21T11:32:08Z</time>
      </trkpt>
      <trkpt lat="45.94207" lon="-0.95541">
        <ele>5.2</ele>
        <time>2022-06-21T11:32:09Z</time>
      </trkpt>
      <trkpt lat="45.94207" lon="-0.95541">
        <ele>5.2</ele>
        <time>2022-06-21T11:32:10Z</time>
      </trkpt>
      <trkpt lat="45.94207" lon="-0.95541">
        <ele>5.2</ele>
        <time>2022-06-21T11:32:11Z</time>
      </trkpt>
      <trkpt lat="45.94207" lon="-0.95541">
        <ele>5.2</ele>
        <time>2022-06-21T11:32:12Z</time>
      </trkpt>
      <trkpt lat="45.94207" lon="-0.95541">
        <ele>5.2</ele>
        <time>2022-06-21T11:32:13Z</time>
      </trkpt>
      <trkpt lat="45.94207" lon="-0.95541">
        <ele>5.2</ele>
        <time>2022-06-21T11:32:14Z</time>
      </trkpt>
      <trkpt lat="45.94207" lon="-0.95541">
        <ele>5.2</ele>
        <time>2022-06-21T11:32:15Z</time>
      </trkpt>
      <trkpt lat="45.94207" lon="-0.95541">
        <ele>5.2</ele>
        <time>2022-06-21T11:32:16Z</time>
      </trkpt>
      <trkpt lat="45.94207" lon="-0.95541">
        <ele>5.2</ele>
        <time>2022-06-21T11:32:17Z</time>
      </trkpt>
      <trkpt lat="45.94207" lon="-0.95541">
        <ele>5.2</ele>
        <time>2022-06-21T11:32:18Z</time>
      </trkpt>
      <trkpt lat="45.94207" lon="-0.95541">
        <ele>5.2</ele>
        <time>2022-06-21T11:32:19Z</time>
      </trkpt>
      <trkpt lat="45.94207" lon="-0.95541">
        <ele>5.2</ele>
        <time>2022-06-21T11:32:20Z</time>
      </trkpt>
      <trkpt lat="45.94207" lon="-0.95541">
        <ele>5.2</ele>
        <time>2022-06-21T11:32:21Z</time>
      </trkpt>
      <trkpt lat="45.94207" lon="-0.95541">
        <ele>5.2</ele>
        <time>2022-06-21T11:32:22Z</time>
      </trkpt>
      <trkpt lat="45.94207" lon="-0.95541">
        <ele>5.2</ele>
        <time>2022-06-21T11:32:23Z</time>
      </trkpt>
      <trkpt lat="45.94207" lon="-0.95541">
        <ele>5.2</ele>
        <time>2022-06-21T11:32:24Z</time>
      </trkpt>
      <trkpt lat="45.94207" lon="-0.95541">
        <ele>5.2</ele>
        <time>2022-06-21T11:32:25Z</time>
      </trkpt>
      <trkpt lat="45.94207" lon="-0.95541">
        <ele>5.2</ele>
        <time>2022-06-21T11:32:26Z</time>
      </trkpt>
      <trkpt lat="45.94207" lon="-0.95541">
        <ele>5.2</ele>
        <time>2022-06-21T11:32:27Z</time>
      </trkpt>
      <trkpt lat="45.94207" lon="-0.95541">
        <ele>5.2</ele>
        <time>2022-06-21T11:32:28Z</time>
      </trkpt>
      <trkpt lat="45.94207" lon="-0.95541">
        <ele>5.2</ele>
        <time>2022-06-21T11:32:29Z</time>
      </trkpt>
      <trkpt lat="45.94207" lon="-0.95541">
        <ele>5.2</ele>
        <time>2022-06-21T11:32:30Z</time>
      </trkpt>
      <trkpt lat="45.94207" lon="-0.95541">
        <ele>5.2</ele>
        <time>2022-06-21T11:32:31Z</time>
      </trkpt>
      <trkpt lat="45.94207" lon="-0.95541">
        <ele>5.2</ele>
        <time>2022-06-21T11:32:32Z</time>
      </trkpt>
      <trkpt lat="45.94207" lon="-0.95541">
        <ele>5.2</ele>
        <time>2022-06-21T11:32:33Z</time>
      </trkpt>
      <trkpt lat="45.94207" lon="-0.95541">
        <ele>5.2</ele>
        <time>2022-06-21T11:32:34Z</time>
      </trkpt>
      <trkpt lat="45.94207" lon="-0.95541">
        <ele>5.2</ele>
        <time>2022-06-21T11:32:35Z</time>
      </trkpt>
      <trkpt lat="45.94207" lon="-0.95541">
        <ele>5.2</ele>
        <time>2022-06-21T11:32:36Z</time>
      </trkpt>
      <trkpt lat="45.94207" lon="-0.95541">
        <ele>5.2</ele>
        <time>2022-06-21T11:32:37Z</time>
      </trkpt>
      <trkpt lat="45.94207" lon="-0.95541">
        <ele>5.2</ele>
        <time>2022-06-21T11:32:38Z</time>
      </trkpt>
      <trkpt lat="45.94207" lon="-0.95541">
        <ele>5.2</ele>
        <time>2022-06-21T11:32:39Z</time>
      </trkpt>
      <trkpt lat="45.94207" lon="-0.95541">
        <ele>5.2</ele>
        <time>2022-06-21T11:32:40Z</time>
      </trkpt>
      <trkpt lat="45.94207" lon="-0.95541">
        <ele>5.2</ele>
        <time>2022-06-21T11:32:41Z</time>
      </trkpt>
      <trkpt lat="45.94207" lon="-0.95541">
        <ele>5.2</ele>
        <time>2022-06-21T11:32:42Z</time>
      </trkpt>
      <trkpt lat="45.94207" lon="-0.95541">
        <ele>5.2</ele>
        <time>2022-06-21T11:32:43Z</time>
      </trkpt>
      <trkpt lat="45.94207" lon="-0.95541">
        <ele>5.2</ele>
        <time>2022-06-21T11:32:44Z</time>
      </trkpt>
      <trkpt lat="45.94207" lon="-0.95541">
        <ele>5.2</ele>
        <time>2022-06-21T11:32:45Z</time>
      </trkpt>
      <trkpt lat="45.94207" lon="-0.95541">
        <ele>5.2</ele>
        <time>2022-06-21T11:32:46Z</time>
      </trkpt>
      <trkpt lat="45.94207" lon="-0.95541">
        <ele>5.2</ele>
        <time>2022-06-21T11:32:47Z</time>
      </trkpt>
      <trkpt lat="45.94207" lon="-0.95541">
        <ele>5.2</ele>
        <time>2022-06-21T11:32:48Z</time>
      </trkpt>
      <trkpt lat="45.94207" lon="-0.95541">
        <ele>5.2</ele>
        <time>2022-06-21T11:32:49Z</time>
      </trkpt>
      <trkpt lat="45.94207" lon="-0.95541">
        <ele>5.2</ele>
        <time>2022-06-21T11:32:50Z</time>
      </trkpt>
      <trkpt lat="45.94207" lon="-0.95541">
        <ele>5.2</ele>
        <time>2022-06-21T11:32:51Z</time>
      </trkpt>
      <trkpt lat="45.94207" lon="-0.95541">
        <ele>5.2</ele>
        <time>2022-06-21T11:32:52Z</time>
      </trkpt>
      <trkpt lat="45.94207" lon="-0.95541">
        <ele>5.2</ele>
        <time>2022-06-21T11:32:53Z</time>
      </trkpt>
      <trkpt lat="45.94207" lon="-0.95541">
        <ele>5.2</ele>
        <time>2022-06-21T11:32:54Z</time>
      </trkpt>
      <trkpt lat="45.94207" lon="-0.95541">
        <ele>5.2</ele>
        <time>2022-06-21T11:32:55Z</time>
      </trkpt>
      <trkpt lat="45.94207" lon="-0.95541">
        <ele>5.2</ele>
        <time>2022-06-21T11:32:56Z</time>
      </trkpt>
      <trkpt lat="45.94207" lon="-0.95541">
        <ele>5.2</ele>
        <time>2022-06-21T11:32:57Z</time>
      </trkpt>
      <trkpt lat="45.94207" lon="-0.95541">
        <ele>5.2</ele>
        <time>2022-06-21T11:32:58Z</time>
      </trkpt>
      <trkpt lat="45.94207" lon="-0.95541">
        <ele>5.2</ele>
        <time>2022-06-21T11:32:59Z</time>
      </trkpt>
      <trkpt lat="45.94207" lon="-0.95541">
        <ele>5.2</ele>
        <time>2022-06-21T11:33:00Z</time>
      </trkpt>
      <trkpt lat="45.94207" lon="-0.95541">
        <ele>5.2</ele>
        <time>2022-06-21T11:33:01Z</time>
      </trkpt>
      <trkpt lat="45.94207" lon="-0.95541">
        <ele>5.2</ele>
        <time>2022-06-21T11:33:02Z</time>
      </trkpt>
      <trkpt lat="45.94207" lon="-0.95541">
        <ele>5.2</ele>
        <time>2022-06-21T11:33:03Z</time>
      </trkpt>
      <trkpt lat="45.94207" lon="-0.95541">
        <ele>5.2</ele>
        <time>2022-06-21T11:33:04Z</time>
      </trkpt>
      <trkpt lat="45.94207" lon="-0.95541">
        <ele>5.2</ele>
        <time>2022-06-21T11:33:05Z</time>
      </trkpt>
      <trkpt lat="45.94207" lon="-0.95541">
        <ele>5.2</ele>
        <time>2022-06-21T11:33:06Z</time>
      </trkpt>
      <trkpt lat="45.94207" lon="-0.95541">
        <ele>5.2</ele>
        <time>2022-06-21T11:33:07Z</time>
      </trkpt>
      <trkpt lat="45.94207" lon="-0.95541">
        <ele>5.2</ele>
        <time>2022-06-21T11:33:08Z</time>
      </trkpt>
      <trkpt lat="45.94207" lon="-0.95541">
        <ele>5.2</ele>
        <time>2022-06-21T11:33:09Z</time>
      </trkpt>
      <trkpt lat="45.94207" lon="-0.95541">
        <ele>5.2</ele>
        <time>2022-06-21T11:33:10Z</time>
      </trkpt>
      <trkpt lat="45.94207" lon="-0.95541">
        <ele>5.2</ele>
        <time>2022-06-21T11:33:11Z</time>
      </trkpt>
      <trkpt lat="45.94207" lon="-0.95541">
        <ele>5.2</ele>
        <time>2022-06-21T11:33:12Z</time>
      </trkpt>
      <trkpt lat="45.94207" lon="-0.95541">
        <ele>5.2</ele>
        <time>2022-06-21T11:33:13Z</time>
      </trkpt>
      <trkpt lat="45.94207" lon="-0.95541">
        <ele>5.2</ele>
        <time>2022-06-21T11:33:14Z</time>
      </trkpt>
      <trkpt lat="45.94207" lon="-0.95541">
        <ele>5.2</ele>
        <time>2022-06-21T11:33:15Z</time>
      </trkpt>
      <trkpt lat="45.94207" lon="-0.95541">
        <ele>5.2</ele>
        <time>2022-06-21T11:33:16Z</time>
      </trkpt>
      <trkpt lat="45.94207" lon="-0.95541">
        <ele>5.2</ele>
        <time>2022-06-21T11:33:17Z</time>
      </trkpt>
      <trkpt lat="45.94207" lon="-0.95541">
        <ele>5.2</ele>
        <time>2022-06-21T11:33:18Z</time>
      </trkpt>
      <trkpt lat="45.94207" lon="-0.95541">
        <ele>5.2</ele>
        <time>2022-06-21T11:33:19Z</time>
      </trkpt>
      <trkpt lat="45.94207" lon="-0.95541">
        <ele>5.2</ele>
        <time>2022-06-21T11:33:20Z</time>
      </trkpt>
      <trkpt lat="45.94207" lon="-0.95541">
        <ele>5.2</ele>
        <time>2022-06-21T11:33:21Z</time>
      </trkpt>
      <trkpt lat="45.94207" lon="-0.95541">
        <ele>5.2</ele>
        <time>2022-06-21T11:33:22Z</time>
      </trkpt>
      <trkpt lat="45.94207" lon="-0.95541">
        <ele>5.2</ele>
        <time>2022-06-21T11:33:23Z</time>
      </trkpt>
      <trkpt lat="45.94207" lon="-0.95541">
        <ele>5.2</ele>
        <time>2022-06-21T11:33:24Z</time>
      </trkpt>
      <trkpt lat="45.94207" lon="-0.95541">
        <ele>5.2</ele>
        <time>2022-06-21T11:33:25Z</time>
      </trkpt>
      <trkpt lat="45.94207" lon="-0.95541">
        <ele>5.2</ele>
        <time>2022-06-21T11:33:26Z</time>
      </trkpt>
      <trkpt lat="45.94207" lon="-0.95541">
        <ele>5.2</ele>
        <time>2022-06-21T11:33:27Z</time>
      </trkpt>
      <trkpt lat="45.94207" lon="-0.95541">
        <ele>5.2</ele>
        <time>2022-06-21T11:33:28Z</time>
      </trkpt>
      <trkpt lat="45.94207" lon="-0.95541">
        <ele>5.2</ele>
        <time>2022-06-21T11:33:29Z</time>
      </trkpt>
      <trkpt lat="45.94207" lon="-0.95541">
        <ele>5.2</ele>
        <time>2022-06-21T11:33:30Z</time>
      </trkpt>
      <trkpt lat="45.94207" lon="-0.95541">
        <ele>5.2</ele>
        <time>2022-06-21T11:33:31Z</time>
      </trkpt>
      <trkpt lat="45.94207" lon="-0.95541">
        <ele>5.2</ele>
        <time>2022-06-21T11:33:32Z</time>
      </trkpt>
      <trkpt lat="45.94207" lon="-0.95541">
        <ele>5.2</ele>
        <time>2022-06-21T11:33:33Z</time>
      </trkpt>
      <trkpt lat="45.94207" lon="-0.95541">
        <ele>5.2</ele>
        <time>2022-06-21T11:33:34Z</time>
      </trkpt>
      <trkpt lat="45.94207" lon="-0.95541">
        <ele>5.2</ele>
        <time>2022-06-21T11:33:35Z</time>
      </trkpt>
      <trkpt lat="45.94207" lon="-0.95541">
        <ele>5.2</ele>
        <time>2022-06-21T11:33:36Z</time>
      </trkpt>
      <trkpt lat="45.94207" lon="-0.95541">
        <ele>5.2</ele>
        <time>2022-06-21T11:33:37Z</time>
      </trkpt>
      <trkpt lat="45.94207" lon="-0.95541">
        <ele>5.2</ele>
        <time>2022-06-21T11:33:38Z</time>
      </trkpt>
      <trkpt lat="45.94207" lon="-0.95541">
        <ele>5.2</ele>
        <time>2022-06-21T11:33:39Z</time>
      </trkpt>
      <trkpt lat="45.94207" lon="-0.95541">
        <ele>5.2</ele>
        <time>2022-06-21T11:33:40Z</time>
      </trkpt>
      <trkpt lat="45.94207" lon="-0.95541">
        <ele>5.2</ele>
        <time>2022-06-21T11:33:41Z</time>
      </trkpt>
      <trkpt lat="45.94207" lon="-0.95541">
        <ele>5.2</ele>
        <time>2022-06-21T11:33:42Z</time>
      </trkpt>
      <trkpt lat="45.94207" lon="-0.95541">
        <ele>5.2</ele>
        <time>2022-06-21T11:33:43Z</time>
      </trkpt>
      <trkpt lat="45.94207" lon="-0.95541">
        <ele>5.2</ele>
        <time>2022-06-21T11:33:44Z</time>
      </trkpt>
      <trkpt lat="45.94207" lon="-0.95541">
        <ele>5.2</ele>
        <time>2022-06-21T11:33:45Z</time>
      </trkpt>
      <trkpt lat="45.94207" lon="-0.95541">
        <ele>5.2</ele>
        <time>2022-06-21T11:33:46Z</time>
      </trkpt>
      <trkpt lat="45.94207" lon="-0.95541">
        <ele>5.2</ele>
        <time>2022-06-21T11:33:47Z</time>
      </trkpt>
      <trkpt lat="45.94207" lon="-0.95541">
        <ele>5.2</ele>
        <time>2022-06-21T11:33:48Z</time>
      </trkpt>
      <trkpt lat="45.94207" lon="-0.95541">
        <ele>5.2</ele>
        <time>2022-06-21T11:33:49Z</time>
      </trkpt>
      <trkpt lat="45.94207" lon="-0.95541">
        <ele>5.2</ele>
        <time>2022-06-21T11:33:50Z</time>
      </trkpt>
      <trkpt lat="45.94207" lon="-0.95541">
        <ele>5.2</ele>
        <time>2022-06-21T11:33:51Z</time>
      </trkpt>
      <trkpt lat="45.94207" lon="-0.95541">
        <ele>5.2</ele>
        <time>2022-06-21T11:33:52Z</time>
      </trkpt>
      <trkpt lat="45.94207" lon="-0.95541">
        <ele>5.2</ele>
        <time>2022-06-21T11:33:53Z</time>
      </trkpt>
      <trkpt lat="45.94207" lon="-0.9554">
        <ele>5.2</ele>
        <time>2022-06-21T11:33:54Z</time>
      </trkpt>
      <trkpt lat="45.94206" lon="-0.95538">
        <ele>5.2</ele>
        <time>2022-06-21T11:33:55Z</time>
      </trkpt>
      <trkpt lat="45.94206" lon="-0.95537">
        <ele>5.2</ele>
        <time>2022-06-21T11:33:56Z</time>
      </trkpt>
      <trkpt lat="45.94206" lon="-0.95536">
        <ele>5.2</ele>
        <time>2022-06-21T11:33:57Z</time>
      </trkpt>
      <trkpt lat="45.94205" lon="-0.95536">
        <ele>5.2</ele>
        <time>2022-06-21T11:33:58Z</time>
      </trkpt>
      <trkpt lat="45.94205" lon="-0.95535">
        <ele>5.2</ele>
        <time>2022-06-21T11:33:59Z</time>
      </trkpt>
      <trkpt lat="45.94205" lon="-0.95535">
        <ele>5.2</ele>
        <time>2022-06-21T11:34:00Z</time>
      </trkpt>
      <trkpt lat="45.94205" lon="-0.95534">
        <ele>5.2</ele>
        <time>2022-06-21T11:34:01Z</time>
      </trkpt>
      <trkpt lat="45.94205" lon="-0.95533">
        <ele>5.2</ele>
        <time>2022-06-21T11:34:02Z</time>
      </trkpt>
      <trkpt lat="45.94205" lon="-0.95532">
        <ele>5.2</ele>
        <time>2022-06-21T11:34:03Z</time>
      </trkpt>
      <trkpt lat="45.94205" lon="-0.95532">
        <ele>5.2</ele>
        <time>2022-06-21T11:34:04Z</time>
      </trkpt>
      <trkpt lat="45.94205" lon="-0.95531">
        <ele>5.2</ele>
        <time>2022-06-21T11:34:05Z</time>
      </trkpt>
      <trkpt lat="45.94205" lon="-0.95531">
        <ele>5.2</ele>
        <time>2022-06-21T11:34:06Z</time>
      </trkpt>
      <trkpt lat="45.94204" lon="-0.95532">
        <ele>5.2</ele>
        <time>2022-06-21T11:34:07Z</time>
      </trkpt>
      <trkpt lat="45.94204" lon="-0.95532">
        <ele>5.2</ele>
        <time>2022-06-21T11:34:08Z</time>
      </trkpt>
      <trkpt lat="45.94204" lon="-0.95532">
        <ele>5.2</ele>
        <time>2022-06-21T11:34:09Z</time>
      </trkpt>
      <trkpt lat="45.94204" lon="-0.95532">
        <ele>5.2</ele>
        <time>2022-06-21T11:34:10Z</time>
      </trkpt>
      <trkpt lat="45.94204" lon="-0.95532">
        <ele>5.2</ele>
        <time>2022-06-21T11:34:11Z</time>
      </trkpt>
      <trkpt lat="45.94204" lon="-0.95532">
        <ele>5.2</ele>
        <time>2022-06-21T11:34:12Z</time>
      </trkpt>
      <trkpt lat="45.94204" lon="-0.95532">
        <ele>5.2</ele>
        <time>2022-06-21T11:34:13Z</time>
      </trkpt>
      <trkpt lat="45.94204" lon="-0.95532">
        <ele>5.2</ele>
        <time>2022-06-21T11:34:14Z</time>
      </trkpt>
      <trkpt lat="45.94204" lon="-0.95532">
        <ele>5.2</ele>
        <time>2022-06-21T11:34:15Z</time>
      </trkpt>
      <trkpt lat="45.94204" lon="-0.95532">
        <ele>5.2</ele>
        <time>2022-06-21T11:34:16Z</time>
      </trkpt>
      <trkpt lat="45.94204" lon="-0.95532">
        <ele>5.2</ele>
        <time>2022-06-21T11:34:17Z</time>
      </trkpt>
      <trkpt lat="45.94204" lon="-0.95532">
        <ele>5.2</ele>
        <time>2022-06-21T11:34:18Z</time>
      </trkpt>
      <trkpt lat="45.94204" lon="-0.95532">
        <ele>5.2</ele>
        <time>2022-06-21T11:34:19Z</time>
      </trkpt>
      <trkpt lat="45.94204" lon="-0.95532">
        <ele>5.2</ele>
        <time>2022-06-21T11:34:20Z</time>
      </trkpt>
      <trkpt lat="45.94204" lon="-0.95532">
        <ele>5.2</ele>
        <time>2022-06-21T11:34:21Z</time>
      </trkpt>
      <trkpt lat="45.94204" lon="-0.95532">
        <ele>5.2</ele>
        <time>2022-06-21T11:34:22Z</time>
      </trkpt>
      <trkpt lat="45.94204" lon="-0.95532">
        <ele>5.2</ele>
        <time>2022-06-21T11:34:23Z</time>
      </trkpt>
      <trkpt lat="45.94204" lon="-0.95532">
        <ele>5.2</ele>
        <time>2022-06-21T11:34:24Z</time>
      </trkpt>
      <trkpt lat="45.94204" lon="-0.95532">
        <ele>5.2</ele>
        <time>2022-06-21T11:34:25Z</time>
      </trkpt>
      <trkpt lat="45.94204" lon="-0.95532">
        <ele>5.2</ele>
        <time>2022-06-21T11:34:26Z</time>
      </trkpt>
      <trkpt lat="45.94204" lon="-0.95532">
        <ele>5.2</ele>
        <time>2022-06-21T11:34:27Z</time>
      </trkpt>
      <trkpt lat="45.94204" lon="-0.95532">
        <ele>5.2</ele>
        <time>2022-06-21T11:34:28Z</time>
      </trkpt>
      <trkpt lat="45.94204" lon="-0.95532">
        <ele>5.2</ele>
        <time>2022-06-21T11:34:29Z</time>
      </trkpt>
      <trkpt lat="45.94204" lon="-0.95532">
        <ele>5.2</ele>
        <time>2022-06-21T11:34:30Z</time>
      </trkpt>
      <trkpt lat="45.94204" lon="-0.95532">
        <ele>5.2</ele>
        <time>2022-06-21T11:34:31Z</time>
      </trkpt>
      <trkpt lat="45.94204" lon="-0.95532">
        <ele>5.2</ele>
        <time>2022-06-21T11:34:32Z</time>
      </trkpt>
      <trkpt lat="45.94204" lon="-0.95532">
        <ele>5.2</ele>
        <time>2022-06-21T11:34:33Z</time>
      </trkpt>
      <trkpt lat="45.94204" lon="-0.95532">
        <ele>5.2</ele>
        <time>2022-06-21T11:34:34Z</time>
      </trkpt>
      <trkpt lat="45.94204" lon="-0.95532">
        <ele>5.2</ele>
        <time>2022-06-21T11:34:35Z</time>
      </trkpt>
      <trkpt lat="45.94204" lon="-0.95532">
        <ele>5.2</ele>
        <time>2022-06-21T11:34:36Z</time>
      </trkpt>
      <trkpt lat="45.94204" lon="-0.95532">
        <ele>5.2</ele>
        <time>2022-06-21T11:34:37Z</time>
      </trkpt>
      <trkpt lat="45.94204" lon="-0.95532">
        <ele>5.2</ele>
        <time>2022-06-21T11:34:38Z</time>
      </trkpt>
      <trkpt lat="45.94204" lon="-0.95532">
        <ele>5.2</ele>
        <time>2022-06-21T11:34:39Z</time>
      </trkpt>
      <trkpt lat="45.94204" lon="-0.95532">
        <ele>5.2</ele>
        <time>2022-06-21T11:34:40Z</time>
      </trkpt>
      <trkpt lat="45.94204" lon="-0.95532">
        <ele>5.2</ele>
        <time>2022-06-21T11:34:41Z</time>
      </trkpt>
      <trkpt lat="45.94204" lon="-0.95532">
        <ele>5.2</ele>
        <time>2022-06-21T11:34:42Z</time>
      </trkpt>
      <trkpt lat="45.94204" lon="-0.95532">
        <ele>5.2</ele>
        <time>2022-06-21T11:34:43Z</time>
      </trkpt>
      <trkpt lat="45.94204" lon="-0.95532">
        <ele>5.2</ele>
        <time>2022-06-21T11:34:44Z</time>
      </trkpt>
      <trkpt lat="45.94204" lon="-0.95532">
        <ele>5.2</ele>
        <time>2022-06-21T11:34:45Z</time>
      </trkpt>
      <trkpt lat="45.94204" lon="-0.95532">
        <ele>5.2</ele>
        <time>2022-06-21T11:34:46Z</time>
      </trkpt>
      <trkpt lat="45.94204" lon="-0.95532">
        <ele>5.2</ele>
        <time>2022-06-21T11:34:47Z</time>
      </trkpt>
      <trkpt lat="45.94204" lon="-0.95532">
        <ele>5.2</ele>
        <time>2022-06-21T11:34:48Z</time>
      </trkpt>
      <trkpt lat="45.94204" lon="-0.95532">
        <ele>5.2</ele>
        <time>2022-06-21T11:34:49Z</time>
      </trkpt>
      <trkpt lat="45.94204" lon="-0.95532">
        <ele>5.2</ele>
        <time>2022-06-21T11:34:50Z</time>
      </trkpt>
      <trkpt lat="45.94204" lon="-0.95532">
        <ele>5.2</ele>
        <time>2022-06-21T11:34:51Z</time>
      </trkpt>
      <trkpt lat="45.94204" lon="-0.95532">
        <ele>5.2</ele>
        <time>2022-06-21T11:34:52Z</time>
      </trkpt>
      <trkpt lat="45.94204" lon="-0.95532">
        <ele>5.2</ele>
        <time>2022-06-21T11:34:53Z</time>
      </trkpt>
      <trkpt lat="45.94204" lon="-0.95532">
        <ele>5.2</ele>
        <time>2022-06-21T11:34:54Z</time>
      </trkpt>
      <trkpt lat="45.94204" lon="-0.95532">
        <ele>5.2</ele>
        <time>2022-06-21T11:34:55Z</time>
      </trkpt>
      <trkpt lat="45.94204" lon="-0.95532">
        <ele>5.2</ele>
        <time>2022-06-21T11:34:56Z</time>
      </trkpt>
      <trkpt lat="45.94204" lon="-0.95532">
        <ele>5.2</ele>
        <time>2022-06-21T11:34:57Z</time>
      </trkpt>
      <trkpt lat="45.94204" lon="-0.95532">
        <ele>5.2</ele>
        <time>2022-06-21T11:34:58Z</time>
      </trkpt>
      <trkpt lat="45.94204" lon="-0.95532">
        <ele>5.2</ele>
        <time>2022-06-21T11:34:59Z</time>
      </trkpt>
      <trkpt lat="45.94204" lon="-0.95532">
        <ele>5.2</ele>
        <time>2022-06-21T11:35:00Z</time>
      </trkpt>
      <trkpt lat="45.94204" lon="-0.95532">
        <ele>5.2</ele>
        <time>2022-06-21T11:35:01Z</time>
      </trkpt>
      <trkpt lat="45.94204" lon="-0.95532">
        <ele>5.2</ele>
        <time>2022-06-21T11:35:02Z</time>
      </trkpt>
      <trkpt lat="45.94204" lon="-0.95532">
        <ele>5.2</ele>
        <time>2022-06-21T11:35:03Z</time>
      </trkpt>
      <trkpt lat="45.94204" lon="-0.95532">
        <ele>5.2</ele>
        <time>2022-06-21T11:35:04Z</time>
      </trkpt>
      <trkpt lat="45.94204" lon="-0.95532">
        <ele>5.2</ele>
        <time>2022-06-21T11:35:05Z</time>
      </trkpt>
      <trkpt lat="45.94204" lon="-0.95532">
        <ele>5.2</ele>
        <time>2022-06-21T11:35:06Z</time>
      </trkpt>
      <trkpt lat="45.94204" lon="-0.95532">
        <ele>5.2</ele>
        <time>2022-06-21T11:35:07Z</time>
      </trkpt>
      <trkpt lat="45.94204" lon="-0.95532">
        <ele>5.2</ele>
        <time>2022-06-21T11:35:08Z</time>
      </trkpt>
      <trkpt lat="45.94204" lon="-0.95532">
        <ele>5.2</ele>
        <time>2022-06-21T11:35:09Z</time>
      </trkpt>
      <trkpt lat="45.94204" lon="-0.95532">
        <ele>5.2</ele>
        <time>2022-06-21T11:35:10Z</time>
      </trkpt>
      <trkpt lat="45.94204" lon="-0.95532">
        <ele>5.2</ele>
        <time>2022-06-21T11:35:11Z</time>
      </trkpt>
      <trkpt lat="45.94204" lon="-0.95532">
        <ele>5.2</ele>
        <time>2022-06-21T11:35:12Z</time>
      </trkpt>
      <trkpt lat="45.94204" lon="-0.95532">
        <ele>5.2</ele>
        <time>2022-06-21T11:35:13Z</time>
      </trkpt>
      <trkpt lat="45.94204" lon="-0.95532">
        <ele>5.2</ele>
        <time>2022-06-21T11:35:14Z</time>
      </trkpt>
      <trkpt lat="45.94204" lon="-0.95532">
        <ele>5.2</ele>
        <time>2022-06-21T11:35:15Z</time>
      </trkpt>
      <trkpt lat="45.94204" lon="-0.95532">
        <ele>5.2</ele>
        <time>2022-06-21T11:35:16Z</time>
      </trkpt>
      <trkpt lat="45.94204" lon="-0.95532">
        <ele>5.2</ele>
        <time>2022-06-21T11:35:17Z</time>
      </trkpt>
      <trkpt lat="45.94204" lon="-0.95532">
        <ele>5.2</ele>
        <time>2022-06-21T11:35:18Z</time>
      </trkpt>
      <trkpt lat="45.94204" lon="-0.95532">
        <ele>5.2</ele>
        <time>2022-06-21T11:35:19Z</time>
      </trkpt>
      <trkpt lat="45.94204" lon="-0.95532">
        <ele>5.2</ele>
        <time>2022-06-21T11:35:20Z</time>
      </trkpt>
      <trkpt lat="45.94204" lon="-0.95532">
        <ele>5.2</ele>
        <time>2022-06-21T11:35:21Z</time>
      </trkpt>
      <trkpt lat="45.94204" lon="-0.95532">
        <ele>5.2</ele>
        <time>2022-06-21T11:35:22Z</time>
      </trkpt>
      <trkpt lat="45.94204" lon="-0.95532">
        <ele>5.2</ele>
        <time>2022-06-21T11:35:23Z</time>
      </trkpt>
      <trkpt lat="45.94204" lon="-0.95532">
        <ele>5.2</ele>
        <time>2022-06-21T11:35:24Z</time>
      </trkpt>
      <trkpt lat="45.94204" lon="-0.95532">
        <ele>5.2</ele>
        <time>2022-06-21T11:35:25Z</time>
      </trkpt>
      <trkpt lat="45.94204" lon="-0.95532">
        <ele>5.2</ele>
        <time>2022-06-21T11:35:26Z</time>
      </trkpt>
      <trkpt lat="45.94204" lon="-0.95532">
        <ele>5.2</ele>
        <time>2022-06-21T11:35:27Z</time>
      </trkpt>
      <trkpt lat="45.94204" lon="-0.95532">
        <ele>5.2</ele>
        <time>2022-06-21T11:35:28Z</time>
      </trkpt>
      <trkpt lat="45.94204" lon="-0.95532">
        <ele>5.2</ele>
        <time>2022-06-21T11:35:29Z</time>
      </trkpt>
      <trkpt lat="45.94204" lon="-0.95532">
        <ele>5.2</ele>
        <time>2022-06-21T11:35:30Z</time>
      </trkpt>
      <trkpt lat="45.94204" lon="-0.95532">
        <ele>5.2</ele>
        <time>2022-06-21T11:35:31Z</time>
      </trkpt>
      <trkpt lat="45.94204" lon="-0.95532">
        <ele>5.2</ele>
        <time>2022-06-21T11:35:32Z</time>
      </trkpt>
      <trkpt lat="45.94204" lon="-0.95532">
        <ele>5.2</ele>
        <time>2022-06-21T11:35:33Z</time>
      </trkpt>
      <trkpt lat="45.94204" lon="-0.95532">
        <ele>5.2</ele>
        <time>2022-06-21T11:35:34Z</time>
      </trkpt>
      <trkpt lat="45.94204" lon="-0.95532">
        <ele>5.2</ele>
        <time>2022-06-21T11:35:35Z</time>
      </trkpt>
      <trkpt lat="45.94204" lon="-0.95532">
        <ele>5.2</ele>
        <time>2022-06-21T11:35:36Z</time>
      </trkpt>
      <trkpt lat="45.94204" lon="-0.95532">
        <ele>5.2</ele>
        <time>2022-06-21T11:35:37Z</time>
      </trkpt>
      <trkpt lat="45.94204" lon="-0.95532">
        <ele>5.2</ele>
        <time>2022-06-21T11:35:38Z</time>
      </trkpt>
      <trkpt lat="45.94204" lon="-0.95532">
        <ele>5.2</ele>
        <time>2022-06-21T11:35:39Z</time>
      </trkpt>
      <trkpt lat="45.94204" lon="-0.95532">
        <ele>5.2</ele>
        <time>2022-06-21T11:35:40Z</time>
      </trkpt>
      <trkpt lat="45.94204" lon="-0.95532">
        <ele>5.2</ele>
        <time>2022-06-21T11:35:41Z</time>
      </trkpt>
      <trkpt lat="45.94204" lon="-0.95532">
        <ele>5.2</ele>
        <time>2022-06-21T11:35:42Z</time>
      </trkpt>
      <trkpt lat="45.94204" lon="-0.95532">
        <ele>5.2</ele>
        <time>2022-06-21T11:35:43Z</time>
      </trkpt>
      <trkpt lat="45.94204" lon="-0.95532">
        <ele>5.2</ele>
        <time>2022-06-21T11:35:44Z</time>
      </trkpt>
      <trkpt lat="45.94204" lon="-0.95532">
        <ele>5.2</ele>
        <time>2022-06-21T11:35:45Z</time>
      </trkpt>
      <trkpt lat="45.94204" lon="-0.95532">
        <ele>5.2</ele>
        <time>2022-06-21T11:35:46Z</time>
      </trkpt>
      <trkpt lat="45.94204" lon="-0.95532">
        <ele>5.2</ele>
        <time>2022-06-21T11:35:47Z</time>
      </trkpt>
      <trkpt lat="45.94204" lon="-0.95532">
        <ele>5.2</ele>
        <time>2022-06-21T11:35:48Z</time>
      </trkpt>
      <trkpt lat="45.94204" lon="-0.95532">
        <ele>5.2</ele>
        <time>2022-06-21T11:35:49Z</time>
      </trkpt>
      <trkpt lat="45.94204" lon="-0.95532">
        <ele>5.2</ele>
        <time>2022-06-21T11:35:50Z</time>
      </trkpt>
      <trkpt lat="45.94204" lon="-0.95532">
        <ele>5.2</ele>
        <time>2022-06-21T11:35:51Z</time>
      </trkpt>
      <trkpt lat="45.94204" lon="-0.95532">
        <ele>5.2</ele>
        <time>2022-06-21T11:35:52Z</time>
      </trkpt>
      <trkpt lat="45.94204" lon="-0.95532">
        <ele>5.2</ele>
        <time>2022-06-21T11:35:53Z</time>
      </trkpt>
      <trkpt lat="45.94204" lon="-0.95532">
        <ele>5.1</ele>
        <time>2022-06-21T11:35:54Z</time>
      </trkpt>
      <trkpt lat="45.94204" lon="-0.95532">
        <ele>5.1</ele>
        <time>2022-06-21T11:35:55Z</time>
      </trkpt>
      <trkpt lat="45.94204" lon="-0.95532">
        <ele>5.1</ele>
        <time>2022-06-21T11:35:56Z</time>
      </trkpt>
      <trkpt lat="45.94204" lon="-0.95532">
        <ele>5.1</ele>
        <time>2022-06-21T11:35:57Z</time>
      </trkpt>
      <trkpt lat="45.94204" lon="-0.95532">
        <ele>5.1</ele>
        <time>2022-06-21T11:35:58Z</time>
      </trkpt>
      <trkpt lat="45.94204" lon="-0.95532">
        <ele>5.1</ele>
        <time>2022-06-21T11:35:59Z</time>
      </trkpt>
      <trkpt lat="45.94204" lon="-0.95532">
        <ele>5.1</ele>
        <time>2022-06-21T11:36:00Z</time>
      </trkpt>
      <trkpt lat="45.94204" lon="-0.95532">
        <ele>5.1</ele>
        <time>2022-06-21T11:36:01Z</time>
      </trkpt>
      <trkpt lat="45.94204" lon="-0.95532">
        <ele>5.1</ele>
        <time>2022-06-21T11:36:02Z</time>
      </trkpt>
      <trkpt lat="45.94204" lon="-0.95532">
        <ele>5.1</ele>
        <time>2022-06-21T11:36:03Z</time>
      </trkpt>
      <trkpt lat="45.94204" lon="-0.95532">
        <ele>5.1</ele>
        <time>2022-06-21T11:36:04Z</time>
      </trkpt>
      <trkpt lat="45.94204" lon="-0.95532">
        <ele>5.1</ele>
        <time>2022-06-21T11:36:05Z</time>
      </trkpt>
      <trkpt lat="45.94204" lon="-0.95532">
        <ele>5.1</ele>
        <time>2022-06-21T11:36:06Z</time>
      </trkpt>
      <trkpt lat="45.94204" lon="-0.95532">
        <ele>5.1</ele>
        <time>2022-06-21T11:36:07Z</time>
      </trkpt>
      <trkpt lat="45.94204" lon="-0.95532">
        <ele>5.1</ele>
        <time>2022-06-21T11:36:08Z</time>
      </trkpt>
      <trkpt lat="45.94204" lon="-0.95532">
        <ele>5.1</ele>
        <time>2022-06-21T11:36:09Z</time>
      </trkpt>
      <trkpt lat="45.94204" lon="-0.95532">
        <ele>5.1</ele>
        <time>2022-06-21T11:36:10Z</time>
      </trkpt>
      <trkpt lat="45.94204" lon="-0.95532">
        <ele>5.1</ele>
        <time>2022-06-21T11:36:11Z</time>
      </trkpt>
      <trkpt lat="45.94204" lon="-0.95532">
        <ele>5.1</ele>
        <time>2022-06-21T11:36:12Z</time>
      </trkpt>
      <trkpt lat="45.94204" lon="-0.95532">
        <ele>5.1</ele>
        <time>2022-06-21T11:36:13Z</time>
      </trkpt>
      <trkpt lat="45.94204" lon="-0.95532">
        <ele>5.1</ele>
        <time>2022-06-21T11:36:14Z</time>
      </trkpt>
      <trkpt lat="45.94204" lon="-0.95532">
        <ele>5.1</ele>
        <time>2022-06-21T11:36:15Z</time>
      </trkpt>
      <trkpt lat="45.94204" lon="-0.95532">
        <ele>5.1</ele>
        <time>2022-06-21T11:36:16Z</time>
      </trkpt>
      <trkpt lat="45.94204" lon="-0.95532">
        <ele>5.1</ele>
        <time>2022-06-21T11:36:17Z</time>
      </trkpt>
      <trkpt lat="45.94204" lon="-0.95532">
        <ele>5.1</ele>
        <time>2022-06-21T11:36:18Z</time>
      </trkpt>
      <trkpt lat="45.94204" lon="-0.95532">
        <ele>5.1</ele>
        <time>2022-06-21T11:36:19Z</time>
      </trkpt>
      <trkpt lat="45.94204" lon="-0.95532">
        <ele>5.1</ele>
        <time>2022-06-21T11:36:20Z</time>
      </trkpt>
      <trkpt lat="45.94204" lon="-0.95532">
        <ele>5.1</ele>
        <time>2022-06-21T11:36:21Z</time>
      </trkpt>
      <trkpt lat="45.94204" lon="-0.95532">
        <ele>5.1</ele>
        <time>2022-06-21T11:36:22Z</time>
      </trkpt>
      <trkpt lat="45.94204" lon="-0.95532">
        <ele>5.1</ele>
        <time>2022-06-21T11:36:23Z</time>
      </trkpt>
      <trkpt lat="45.94204" lon="-0.95532">
        <ele>5.1</ele>
        <time>2022-06-21T11:36:24Z</time>
      </trkpt>
      <trkpt lat="45.94204" lon="-0.95532">
        <ele>5.1</ele>
        <time>2022-06-21T11:36:25Z</time>
      </trkpt>
      <trkpt lat="45.94204" lon="-0.95532">
        <ele>5.1</ele>
        <time>2022-06-21T11:36:26Z</time>
      </trkpt>
      <trkpt lat="45.94204" lon="-0.95532">
        <ele>5.1</ele>
        <time>2022-06-21T11:36:27Z</time>
      </trkpt>
      <trkpt lat="45.94204" lon="-0.95532">
        <ele>5.1</ele>
        <time>2022-06-21T11:36:30Z</time>
      </trkpt>
      <trkpt lat="45.94204" lon="-0.95532">
        <ele>5.1</ele>
        <time>2022-06-21T11:36:32Z</time>
      </trkpt>
      <trkpt lat="45.94204" lon="-0.95532">
        <ele>5.1</ele>
        <time>2022-06-21T11:36:33Z</time>
      </trkpt>
      <trkpt lat="45.94204" lon="-0.95532">
        <ele>5.1</ele>
        <time>2022-06-21T11:36:34Z</time>
      </trkpt>
      <trkpt lat="45.94204" lon="-0.95532">
        <ele>5.1</ele>
        <time>2022-06-21T11:36:35Z</time>
      </trkpt>
      <trkpt lat="45.94204" lon="-0.95532">
        <ele>5.1</ele>
        <time>2022-06-21T11:36:36Z</time>
      </trkpt>
      <trkpt lat="45.94204" lon="-0.95532">
        <ele>5.1</ele>
        <time>2022-06-21T11:36:37Z</time>
      </trkpt>
      <trkpt lat="45.94204" lon="-0.95532">
        <ele>5.1</ele>
        <time>2022-06-21T11:36:38Z</time>
      </trkpt>
      <trkpt lat="45.94204" lon="-0.95532">
        <ele>5.1</ele>
        <time>2022-06-21T11:36:39Z</time>
      </trkpt>
      <trkpt lat="45.94204" lon="-0.95532">
        <ele>5.1</ele>
        <time>2022-06-21T11:36:40Z</time>
      </trkpt>
      <trkpt lat="45.94204" lon="-0.95532">
        <ele>5.1</ele>
        <time>2022-06-21T11:36:41Z</time>
      </trkpt>
      <trkpt lat="45.94205" lon="-0.95531">
        <ele>5.1</ele>
        <time>2022-06-21T11:36:42Z</time>
      </trkpt>
      <trkpt lat="45.94207" lon="-0.95529">
        <ele>5.1</ele>
        <time>2022-06-21T11:36:43Z</time>
      </trkpt>
      <trkpt lat="45.94208" lon="-0.95528">
        <ele>5.1</ele>
        <time>2022-06-21T11:36:44Z</time>
      </trkpt>
      <trkpt lat="45.94208" lon="-0.95527">
        <ele>5.1</ele>
        <time>2022-06-21T11:36:45Z</time>
      </trkpt>
      <trkpt lat="45.94209" lon="-0.95526">
        <ele>5.1</ele>
        <time>2022-06-21T11:36:46Z</time>
      </trkpt>
      <trkpt lat="45.94209" lon="-0.95526">
        <ele>5.1</ele>
        <time>2022-06-21T11:36:47Z</time>
      </trkpt>
      <trkpt lat="45.94209" lon="-0.95526">
        <ele>5.1</ele>
        <time>2022-06-21T11:36:48Z</time>
      </trkpt>
      <trkpt lat="45.94208" lon="-0.95527">
        <ele>5.1</ele>
        <time>2022-06-21T11:36:49Z</time>
      </trkpt>
      <trkpt lat="45.94207" lon="-0.95528">
        <ele>5.1</ele>
        <time>2022-06-21T11:36:50Z</time>
      </trkpt>
      <trkpt lat="45.94207" lon="-0.95528">
        <ele>5.1</ele>
        <time>2022-06-21T11:36:51Z</time>
      </trkpt>
      <trkpt lat="45.94206" lon="-0.95529">
        <ele>5.1</ele>
        <time>2022-06-21T11:36:52Z</time>
      </trkpt>
      <trkpt lat="45.94206" lon="-0.95529">
        <ele>5.1</ele>
        <time>2022-06-21T11:36:53Z</time>
      </trkpt>
      <trkpt lat="45.94206" lon="-0.95529">
        <ele>5.1</ele>
        <time>2022-06-21T11:36:54Z</time>
      </trkpt>
      <trkpt lat="45.94206" lon="-0.95529">
        <ele>5.1</ele>
        <time>2022-06-21T11:36:55Z</time>
      </trkpt>
      <trkpt lat="45.94206" lon="-0.95529">
        <ele>5.1</ele>
        <time>2022-06-21T11:36:56Z</time>
      </trkpt>
      <trkpt lat="45.94206" lon="-0.95529">
        <ele>5.1</ele>
        <time>2022-06-21T11:36:57Z</time>
      </trkpt>
      <trkpt lat="45.94206" lon="-0.95529">
        <ele>5.1</ele>
        <time>2022-06-21T11:36:58Z</time>
      </trkpt>
      <trkpt lat="45.94206" lon="-0.95529">
        <ele>5.1</ele>
        <time>2022-06-21T11:36:59Z</time>
      </trkpt>
      <trkpt lat="45.94206" lon="-0.95529">
        <ele>5.1</ele>
        <time>2022-06-21T11:37:00Z</time>
      </trkpt>
      <trkpt lat="45.94206" lon="-0.95529">
        <ele>5.1</ele>
        <time>2022-06-21T11:37:01Z</time>
      </trkpt>
      <trkpt lat="45.94206" lon="-0.95529">
        <ele>5.1</ele>
        <time>2022-06-21T11:37:02Z</time>
      </trkpt>
      <trkpt lat="45.94204" lon="-0.95531">
        <ele>5.1</ele>
        <time>2022-06-21T11:37:03Z</time>
      </trkpt>
      <trkpt lat="45.94203" lon="-0.95531">
        <ele>5.1</ele>
        <time>2022-06-21T11:37:04Z</time>
      </trkpt>
      <trkpt lat="45.94202" lon="-0.95531">
        <ele>5.1</ele>
        <time>2022-06-21T11:37:05Z</time>
      </trkpt>
      <trkpt lat="45.94202" lon="-0.95531">
        <ele>5.1</ele>
        <time>2022-06-21T11:37:06Z</time>
      </trkpt>
      <trkpt lat="45.94201" lon="-0.95531">
        <ele>5.1</ele>
        <time>2022-06-21T11:37:07Z</time>
      </trkpt>
      <trkpt lat="45.94201" lon="-0.95532">
        <ele>5.1</ele>
        <time>2022-06-21T11:37:08Z</time>
      </trkpt>
      <trkpt lat="45.942" lon="-0.95532">
        <ele>5.1</ele>
        <time>2022-06-21T11:37:09Z</time>
      </trkpt>
      <trkpt lat="45.942" lon="-0.95532">
        <ele>5.1</ele>
        <time>2022-06-21T11:37:10Z</time>
      </trkpt>
      <trkpt lat="45.94199" lon="-0.95532">
        <ele>5.1</ele>
        <time>2022-06-21T11:37:11Z</time>
      </trkpt>
      <trkpt lat="45.94199" lon="-0.95532">
        <ele>5.1</ele>
        <time>2022-06-21T11:37:12Z</time>
      </trkpt>
      <trkpt lat="45.94199" lon="-0.95532">
        <ele>5.1</ele>
        <time>2022-06-21T11:37:13Z</time>
      </trkpt>
      <trkpt lat="45.94199" lon="-0.95535">
        <ele>5.1</ele>
        <time>2022-06-21T11:37:14Z</time>
      </trkpt>
      <trkpt lat="45.94199" lon="-0.95535">
        <ele>5.1</ele>
        <time>2022-06-21T11:37:15Z</time>
      </trkpt>
      <trkpt lat="45.94199" lon="-0.95535">
        <ele>5.1</ele>
        <time>2022-06-21T11:37:16Z</time>
      </trkpt>
      <trkpt lat="45.94199" lon="-0.95535">
        <ele>5.1</ele>
        <time>2022-06-21T11:37:17Z</time>
      </trkpt>
      <trkpt lat="45.94199" lon="-0.95535">
        <ele>5.1</ele>
        <time>2022-06-21T11:37:18Z</time>
      </trkpt>
      <trkpt lat="45.94199" lon="-0.95535">
        <ele>5.1</ele>
        <time>2022-06-21T11:37:19Z</time>
      </trkpt>
      <trkpt lat="45.94199" lon="-0.95535">
        <ele>5.1</ele>
        <time>2022-06-21T11:37:20Z</time>
      </trkpt>
      <trkpt lat="45.94199" lon="-0.95535">
        <ele>5.1</ele>
        <time>2022-06-21T11:37:21Z</time>
      </trkpt>
      <trkpt lat="45.94199" lon="-0.95535">
        <ele>5.1</ele>
        <time>2022-06-21T11:37:22Z</time>
      </trkpt>
      <trkpt lat="45.94199" lon="-0.95535">
        <ele>5.1</ele>
        <time>2022-06-21T11:37:23Z</time>
      </trkpt>
      <trkpt lat="45.94199" lon="-0.95535">
        <ele>5.1</ele>
        <time>2022-06-21T11:37:24Z</time>
      </trkpt>
      <trkpt lat="45.94199" lon="-0.95535">
        <ele>5.1</ele>
        <time>2022-06-21T11:37:25Z</time>
      </trkpt>
      <trkpt lat="45.94199" lon="-0.95535">
        <ele>5.1</ele>
        <time>2022-06-21T11:37:26Z</time>
      </trkpt>
      <trkpt lat="45.94199" lon="-0.95535">
        <ele>5.1</ele>
        <time>2022-06-21T11:37:27Z</time>
      </trkpt>
      <trkpt lat="45.94199" lon="-0.95535">
        <ele>5.1</ele>
        <time>2022-06-21T11:37:28Z</time>
      </trkpt>
      <trkpt lat="45.94199" lon="-0.95534">
        <ele>5.1</ele>
        <time>2022-06-21T11:37:29Z</time>
      </trkpt>
      <trkpt lat="45.942" lon="-0.95533">
        <ele>5.1</ele>
        <time>2022-06-21T11:37:30Z</time>
      </trkpt>
      <trkpt lat="45.942" lon="-0.95533">
        <ele>5.1</ele>
        <time>2022-06-21T11:37:31Z</time>
      </trkpt>
      <trkpt lat="45.942" lon="-0.95533">
        <ele>5.1</ele>
        <time>2022-06-21T11:37:32Z</time>
      </trkpt>
      <trkpt lat="45.942" lon="-0.95533">
        <ele>5.1</ele>
        <time>2022-06-21T11:37:33Z</time>
      </trkpt>
      <trkpt lat="45.94201" lon="-0.95534">
        <ele>5.1</ele>
        <time>2022-06-21T11:37:34Z</time>
      </trkpt>
      <trkpt lat="45.94201" lon="-0.95535">
        <ele>5.1</ele>
        <time>2022-06-21T11:37:35Z</time>
      </trkpt>
      <trkpt lat="45.94202" lon="-0.95535">
        <ele>5.1</ele>
        <time>2022-06-21T11:37:36Z</time>
      </trkpt>
      <trkpt lat="45.94203" lon="-0.95535">
        <ele>5.1</ele>
        <time>2022-06-21T11:37:37Z</time>
      </trkpt>
      <trkpt lat="45.94204" lon="-0.95535">
        <ele>5.1</ele>
        <time>2022-06-21T11:37:38Z</time>
      </trkpt>
      <trkpt lat="45.94204" lon="-0.95535">
        <ele>5.1</ele>
        <time>2022-06-21T11:37:39Z</time>
      </trkpt>
      <trkpt lat="45.94205" lon="-0.95537">
        <ele>5.1</ele>
        <time>2022-06-21T11:37:40Z</time>
      </trkpt>
      <trkpt lat="45.94205" lon="-0.95537">
        <ele>5.1</ele>
        <time>2022-06-21T11:37:41Z</time>
      </trkpt>
      <trkpt lat="45.94205" lon="-0.95537">
        <ele>5.1</ele>
        <time>2022-06-21T11:37:42Z</time>
      </trkpt>
      <trkpt lat="45.94205" lon="-0.95538">
        <ele>5.1</ele>
        <time>2022-06-21T11:37:43Z</time>
      </trkpt>
      <trkpt lat="45.94207" lon="-0.95537">
        <ele>5.1</ele>
        <time>2022-06-21T11:37:44Z</time>
      </trkpt>
      <trkpt lat="45.94207" lon="-0.95536">
        <ele>5.4</ele>
        <time>2022-06-21T11:37:45Z</time>
      </trkpt>
      <trkpt lat="45.94208" lon="-0.95536">
        <ele>5.4</ele>
        <time>2022-06-21T11:37:46Z</time>
      </trkpt>
      <trkpt lat="45.94208" lon="-0.95536">
        <ele>5.4</ele>
        <time>2022-06-21T11:37:47Z</time>
      </trkpt>
      <trkpt lat="45.94208" lon="-0.95536">
        <ele>5.4</ele>
        <time>2022-06-21T11:37:48Z</time>
      </trkpt>
      <trkpt lat="45.94208" lon="-0.95536">
        <ele>5.4</ele>
        <time>2022-06-21T11:37:49Z</time>
      </trkpt>
      <trkpt lat="45.94208" lon="-0.95536">
        <ele>5.4</ele>
        <time>2022-06-21T11:37:50Z</time>
      </trkpt>
      <trkpt lat="45.94208" lon="-0.95536">
        <ele>5.4</ele>
        <time>2022-06-21T11:37:51Z</time>
      </trkpt>
      <trkpt lat="45.94208" lon="-0.95536">
        <ele>5.4</ele>
        <time>2022-06-21T11:37:52Z</time>
      </trkpt>
      <trkpt lat="45.94208" lon="-0.95536">
        <ele>5.4</ele>
        <time>2022-06-21T11:37:53Z</time>
      </trkpt>
      <trkpt lat="45.94209" lon="-0.95536">
        <ele>5.4</ele>
        <time>2022-06-21T11:37:54Z</time>
      </trkpt>
      <trkpt lat="45.94209" lon="-0.95536">
        <ele>5.4</ele>
        <time>2022-06-21T11:37:55Z</time>
      </trkpt>
      <trkpt lat="45.94209" lon="-0.95536">
        <ele>5.4</ele>
        <time>2022-06-21T11:37:56Z</time>
      </trkpt>
      <trkpt lat="45.94209" lon="-0.95536">
        <ele>5.4</ele>
        <time>2022-06-21T11:37:57Z</time>
      </trkpt>
      <trkpt lat="45.94209" lon="-0.95536">
        <ele>5.4</ele>
        <time>2022-06-21T11:37:58Z</time>
      </trkpt>
      <trkpt lat="45.94209" lon="-0.95536">
        <ele>5.4</ele>
        <time>2022-06-21T11:37:59Z</time>
      </trkpt>
      <trkpt lat="45.94209" lon="-0.95536">
        <ele>5.4</ele>
        <time>2022-06-21T11:38:00Z</time>
      </trkpt>
      <trkpt lat="45.94209" lon="-0.95536">
        <ele>5.4</ele>
        <time>2022-06-21T11:38:01Z</time>
      </trkpt>
      <trkpt lat="45.94209" lon="-0.95536">
        <ele>5.4</ele>
        <time>2022-06-21T11:38:02Z</time>
      </trkpt>
      <trkpt lat="45.94209" lon="-0.95536">
        <ele>5.4</ele>
        <time>2022-06-21T11:38:03Z</time>
      </trkpt>
      <trkpt lat="45.94209" lon="-0.95536">
        <ele>5.4</ele>
        <time>2022-06-21T11:38:04Z</time>
      </trkpt>
      <trkpt lat="45.94209" lon="-0.95536">
        <ele>5.4</ele>
        <time>2022-06-21T11:38:05Z</time>
      </trkpt>
      <trkpt lat="45.94209" lon="-0.95536">
        <ele>5.4</ele>
        <time>2022-06-21T11:38:06Z</time>
      </trkpt>
      <trkpt lat="45.94209" lon="-0.95536">
        <ele>5.4</ele>
        <time>2022-06-21T11:38:07Z</time>
      </trkpt>
      <trkpt lat="45.94209" lon="-0.95536">
        <ele>5.4</ele>
        <time>2022-06-21T11:38:08Z</time>
      </trkpt>
      <trkpt lat="45.94209" lon="-0.95535">
        <ele>5.4</ele>
        <time>2022-06-21T11:38:09Z</time>
      </trkpt>
      <trkpt lat="45.94208" lon="-0.95534">
        <ele>5.4</ele>
        <time>2022-06-21T11:38:10Z</time>
      </trkpt>
      <trkpt lat="45.94208" lon="-0.95534">
        <ele>5.4</ele>
        <time>2022-06-21T11:38:11Z</time>
      </trkpt>
      <trkpt lat="45.94208" lon="-0.95534">
        <ele>5.4</ele>
        <time>2022-06-21T11:38:12Z</time>
      </trkpt>
      <trkpt lat="45.94208" lon="-0.95534">
        <ele>5.4</ele>
        <time>2022-06-21T11:38:13Z</time>
      </trkpt>
      <trkpt lat="45.94208" lon="-0.95534">
        <ele>5.4</ele>
        <time>2022-06-21T11:38:14Z</time>
      </trkpt>
      <trkpt lat="45.94208" lon="-0.95534">
        <ele>5.4</ele>
        <time>2022-06-21T11:38:15Z</time>
      </trkpt>
      <trkpt lat="45.94208" lon="-0.95534">
        <ele>5.4</ele>
        <time>2022-06-21T11:38:16Z</time>
      </trkpt>
      <trkpt lat="45.94209" lon="-0.95534">
        <ele>5.4</ele>
        <time>2022-06-21T11:38:17Z</time>
      </trkpt>
      <trkpt lat="45.94208" lon="-0.95533">
        <ele>5.4</ele>
        <time>2022-06-21T11:38:18Z</time>
      </trkpt>
      <trkpt lat="45.94208" lon="-0.95534">
        <ele>5.4</ele>
        <time>2022-06-21T11:38:19Z</time>
      </trkpt>
      <trkpt lat="45.94209" lon="-0.95534">
        <ele>5.4</ele>
        <time>2022-06-21T11:38:20Z</time>
      </trkpt>
      <trkpt lat="45.94209" lon="-0.95534">
        <ele>5.4</ele>
        <time>2022-06-21T11:38:21Z</time>
      </trkpt>
      <trkpt lat="45.94209" lon="-0.95534">
        <ele>5.4</ele>
        <time>2022-06-21T11:38:22Z</time>
      </trkpt>
      <trkpt lat="45.94209" lon="-0.95534">
        <ele>5.4</ele>
        <time>2022-06-21T11:38:23Z</time>
      </trkpt>
      <trkpt lat="45.94209" lon="-0.95535">
        <ele>5.4</ele>
        <time>2022-06-21T11:38:24Z</time>
      </trkpt>
      <trkpt lat="45.94209" lon="-0.95536">
        <ele>5.4</ele>
        <time>2022-06-21T11:38:25Z</time>
      </trkpt>
      <trkpt lat="45.94208" lon="-0.95538">
        <ele>5.4</ele>
        <time>2022-06-21T11:38:26Z</time>
      </trkpt>
      <trkpt lat="45.94208" lon="-0.95539">
        <ele>5.4</ele>
        <time>2022-06-21T11:38:27Z</time>
      </trkpt>
      <trkpt lat="45.94207" lon="-0.95541">
        <ele>5.4</ele>
        <time>2022-06-21T11:38:28Z</time>
      </trkpt>
      <trkpt lat="45.94207" lon="-0.95542">
        <ele>5.4</ele>
        <time>2022-06-21T11:38:30Z</time>
      </trkpt>
      <trkpt lat="45.94207" lon="-0.95542">
        <ele>5.4</ele>
        <time>2022-06-21T11:38:31Z</time>
      </trkpt>
      <trkpt lat="45.94207" lon="-0.95543">
        <ele>5.4</ele>
        <time>2022-06-21T11:38:32Z</time>
      </trkpt>
      <trkpt lat="45.94206" lon="-0.95544">
        <ele>5.4</ele>
        <time>2022-06-21T11:38:34Z</time>
      </trkpt>
      <trkpt lat="45.94206" lon="-0.95544">
        <ele>5.4</ele>
        <time>2022-06-21T11:38:35Z</time>
      </trkpt>
      <trkpt lat="45.94205" lon="-0.95545">
        <ele>5.4</ele>
        <time>2022-06-21T11:38:36Z</time>
      </trkpt>
      <trkpt lat="45.94205" lon="-0.95545">
        <ele>5.4</ele>
        <time>2022-06-21T11:38:37Z</time>
      </trkpt>
      <trkpt lat="45.94205" lon="-0.95545">
        <ele>5.4</ele>
        <time>2022-06-21T11:38:39Z</time>
      </trkpt>
      <trkpt lat="45.94205" lon="-0.95545">
        <ele>5.4</ele>
        <time>2022-06-21T11:38:40Z</time>
      </trkpt>
      <trkpt lat="45.94205" lon="-0.95545">
        <ele>5.4</ele>
        <time>2022-06-21T11:38:41Z</time>
      </trkpt>
      <trkpt lat="45.94205" lon="-0.95545">
        <ele>5.4</ele>
        <time>2022-06-21T11:38:42Z</time>
      </trkpt>
      <trkpt lat="45.94205" lon="-0.95545">
        <ele>5.4</ele>
        <time>2022-06-21T11:38:43Z</time>
      </trkpt>
      <trkpt lat="45.94205" lon="-0.95545">
        <ele>5.4</ele>
        <time>2022-06-21T11:38:44Z</time>
      </trkpt>
      <trkpt lat="45.94205" lon="-0.95545">
        <ele>5.4</ele>
        <time>2022-06-21T11:38:45Z</time>
      </trkpt>
      <trkpt lat="45.94205" lon="-0.95545">
        <ele>5.4</ele>
        <time>2022-06-21T11:38:46Z</time>
      </trkpt>
      <trkpt lat="45.94205" lon="-0.95545">
        <ele>5.4</ele>
        <time>2022-06-21T11:38:47Z</time>
      </trkpt>
      <trkpt lat="45.94205" lon="-0.95545">
        <ele>5.4</ele>
        <time>2022-06-21T11:38:48Z</time>
      </trkpt>
      <trkpt lat="45.94205" lon="-0.95545">
        <ele>5.4</ele>
        <time>2022-06-21T11:38:49Z</time>
      </trkpt>
      <trkpt lat="45.94205" lon="-0.95545">
        <ele>5.4</ele>
        <time>2022-06-21T11:38:50Z</time>
      </trkpt>
      <trkpt lat="45.94205" lon="-0.95545">
        <ele>5.4</ele>
        <time>2022-06-21T11:38:51Z</time>
      </trkpt>
      <trkpt lat="45.94205" lon="-0.95545">
        <ele>5.4</ele>
        <time>2022-06-21T11:38:52Z</time>
      </trkpt>
      <trkpt lat="45.94204" lon="-0.95545">
        <ele>5.5</ele>
        <time>2022-06-21T11:38:53Z</time>
      </trkpt>
      <trkpt lat="45.94204" lon="-0.95546">
        <ele>5.5</ele>
        <time>2022-06-21T11:38:54Z</time>
      </trkpt>
      <trkpt lat="45.94204" lon="-0.95546">
        <ele>5.5</ele>
        <time>2022-06-21T11:38:55Z</time>
      </trkpt>
      <trkpt lat="45.94204" lon="-0.95547">
        <ele>5.5</ele>
        <time>2022-06-21T11:38:56Z</time>
      </trkpt>
      <trkpt lat="45.94203" lon="-0.95548">
        <ele>5.5</ele>
        <time>2022-06-21T11:38:58Z</time>
      </trkpt>
      <trkpt lat="45.94202" lon="-0.95548">
        <ele>5.5</ele>
        <time>2022-06-21T11:38:59Z</time>
      </trkpt>
      <trkpt lat="45.94202" lon="-0.95549">
        <ele>5.5</ele>
        <time>2022-06-21T11:39:00Z</time>
      </trkpt>
      <trkpt lat="45.94202" lon="-0.9555">
        <ele>5.5</ele>
        <time>2022-06-21T11:39:01Z</time>
      </trkpt>
      <trkpt lat="45.94201" lon="-0.95551">
        <ele>5.5</ele>
        <time>2022-06-21T11:39:02Z</time>
      </trkpt>
      <trkpt lat="45.94201" lon="-0.95553">
        <ele>5.5</ele>
        <time>2022-06-21T11:39:03Z</time>
      </trkpt>
      <trkpt lat="45.94201" lon="-0.95553">
        <ele>5.5</ele>
        <time>2022-06-21T11:39:04Z</time>
      </trkpt>
      <trkpt lat="45.94201" lon="-0.95554">
        <ele>5.5</ele>
        <time>2022-06-21T11:39:05Z</time>
      </trkpt>
      <trkpt lat="45.942" lon="-0.95557">
        <ele>5.5</ele>
        <time>2022-06-21T11:39:07Z</time>
      </trkpt>
      <trkpt lat="45.942" lon="-0.95559">
        <ele>5.5</ele>
        <time>2022-06-21T11:39:08Z</time>
      </trkpt>
      <trkpt lat="45.942" lon="-0.9556">
        <ele>5.6</ele>
        <time>2022-06-21T11:39:09Z</time>
      </trkpt>
      <trkpt lat="45.94201" lon="-0.95563">
        <ele>5.6</ele>
        <time>2022-06-21T11:39:10Z</time>
      </trkpt>
      <trkpt lat="45.94201" lon="-0.95566">
        <ele>5.6</ele>
        <time>2022-06-21T11:39:11Z</time>
      </trkpt>
      <trkpt lat="45.94201" lon="-0.95569">
        <ele>5.6</ele>
        <time>2022-06-21T11:39:13Z</time>
      </trkpt>
      <trkpt lat="45.94201" lon="-0.95571">
        <ele>5.6</ele>
        <time>2022-06-21T11:39:14Z</time>
      </trkpt>
      <trkpt lat="45.94201" lon="-0.95572">
        <ele>5.6</ele>
        <time>2022-06-21T11:39:15Z</time>
      </trkpt>
      <trkpt lat="45.94201" lon="-0.95574">
        <ele>5.6</ele>
        <time>2022-06-21T11:39:16Z</time>
      </trkpt>
      <trkpt lat="45.94202" lon="-0.95575">
        <ele>5.7</ele>
        <time>2022-06-21T11:39:17Z</time>
      </trkpt>
      <trkpt lat="45.94202" lon="-0.95576">
        <ele>5.7</ele>
        <time>2022-06-21T11:39:18Z</time>
      </trkpt>
      <trkpt lat="45.94202" lon="-0.95577">
        <ele>5.7</ele>
        <time>2022-06-21T11:39:19Z</time>
      </trkpt>
      <trkpt lat="45.94202" lon="-0.95578">
        <ele>5.7</ele>
        <time>2022-06-21T11:39:20Z</time>
      </trkpt>
      <trkpt lat="45.94203" lon="-0.95579">
        <ele>5.7</ele>
        <time>2022-06-21T11:39:21Z</time>
      </trkpt>
      <trkpt lat="45.94203" lon="-0.9558">
        <ele>5.7</ele>
        <time>2022-06-21T11:39:22Z</time>
      </trkpt>
      <trkpt lat="45.94204" lon="-0.95582">
        <ele>5.7</ele>
        <time>2022-06-21T11:39:23Z</time>
      </trkpt>
      <trkpt lat="45.94203" lon="-0.95584">
        <ele>5.7</ele>
        <time>2022-06-21T11:39:25Z</time>
      </trkpt>
      <trkpt lat="45.94203" lon="-0.95585">
        <ele>5.7</ele>
        <time>2022-06-21T11:39:26Z</time>
      </trkpt>
      <trkpt lat="45.94203" lon="-0.95586">
        <ele>5.7</ele>
        <time>2022-06-21T11:39:27Z</time>
      </trkpt>
      <trkpt lat="45.94202" lon="-0.95587">
        <ele>5.8</ele>
        <time>2022-06-21T11:39:28Z</time>
      </trkpt>
      <trkpt lat="45.94202" lon="-0.95587">
        <ele>5.8</ele>
        <time>2022-06-21T11:39:29Z</time>
      </trkpt>
      <trkpt lat="45.94202" lon="-0.95587">
        <ele>5.8</ele>
        <time>2022-06-21T11:39:30Z</time>
      </trkpt>
      <trkpt lat="45.94202" lon="-0.95588">
        <ele>5.8</ele>
        <time>2022-06-21T11:39:31Z</time>
      </trkpt>
      <trkpt lat="45.94201" lon="-0.95589">
        <ele>5.8</ele>
        <time>2022-06-21T11:39:33Z</time>
      </trkpt>
      <trkpt lat="45.94201" lon="-0.9559">
        <ele>5.8</ele>
        <time>2022-06-21T11:39:34Z</time>
      </trkpt>
      <trkpt lat="45.94202" lon="-0.9559">
        <ele>5.8</ele>
        <time>2022-06-21T11:39:35Z</time>
      </trkpt>
      <trkpt lat="45.94202" lon="-0.95591">
        <ele>5.8</ele>
        <time>2022-06-21T11:39:36Z</time>
      </trkpt>
      <trkpt lat="45.94202" lon="-0.95592">
        <ele>5.8</ele>
        <time>2022-06-21T11:39:37Z</time>
      </trkpt>
      <trkpt lat="45.94203" lon="-0.95594">
        <ele>5.8</ele>
        <time>2022-06-21T11:39:39Z</time>
      </trkpt>
      <trkpt lat="45.94203" lon="-0.95596">
        <ele>5.8</ele>
        <time>2022-06-21T11:39:40Z</time>
      </trkpt>
      <trkpt lat="45.94204" lon="-0.95597">
        <ele>5.9</ele>
        <time>2022-06-21T11:39:41Z</time>
      </trkpt>
      <trkpt lat="45.94204" lon="-0.95598">
        <ele>5.9</ele>
        <time>2022-06-21T11:39:42Z</time>
      </trkpt>
      <trkpt lat="45.94204" lon="-0.956">
        <ele>5.9</ele>
        <time>2022-06-21T11:39:44Z</time>
      </trkpt>
      <trkpt lat="45.94204" lon="-0.95601">
        <ele>5.9</ele>
        <time>2022-06-21T11:39:45Z</time>
      </trkpt>
      <trkpt lat="45.94204" lon="-0.95602">
        <ele>5.9</ele>
        <time>2022-06-21T11:39:46Z</time>
      </trkpt>
      <trkpt lat="45.94203" lon="-0.95603">
        <ele>5.9</ele>
        <time>2022-06-21T11:39:47Z</time>
      </trkpt>
      <trkpt lat="45.94203" lon="-0.95604">
        <ele>5.9</ele>
        <time>2022-06-21T11:39:48Z</time>
      </trkpt>
      <trkpt lat="45.94202" lon="-0.95605">
        <ele>5.9</ele>
        <time>2022-06-21T11:39:49Z</time>
      </trkpt>
      <trkpt lat="45.94201" lon="-0.95606">
        <ele>6</ele>
        <time>2022-06-21T11:39:51Z</time>
      </trkpt>
      <trkpt lat="45.942" lon="-0.95608">
        <ele>6</ele>
        <time>2022-06-21T11:39:52Z</time>
      </trkpt>
      <trkpt lat="45.942" lon="-0.95609">
        <ele>6</ele>
        <time>2022-06-21T11:39:53Z</time>
      </trkpt>
      <trkpt lat="45.94199" lon="-0.95611">
        <ele>6</ele>
        <time>2022-06-21T11:39:54Z</time>
      </trkpt>
      <trkpt lat="45.94198" lon="-0.95613">
        <ele>6.1</ele>
        <time>2022-06-21T11:39:56Z</time>
      </trkpt>
      <trkpt lat="45.94197" lon="-0.95614">
        <ele>6.1</ele>
        <time>2022-06-21T11:39:57Z</time>
      </trkpt>
      <trkpt lat="45.94197" lon="-0.95614">
        <ele>6.1</ele>
        <time>2022-06-21T11:39:58Z</time>
      </trkpt>
      <trkpt lat="45.94196" lon="-0.95615">
        <ele>6.1</ele>
        <time>2022-06-21T11:39:59Z</time>
      </trkpt>
      <trkpt lat="45.94196" lon="-0.95616">
        <ele>6.1</ele>
        <time>2022-06-21T11:40:00Z</time>
      </trkpt>
      <trkpt lat="45.94196" lon="-0.95617">
        <ele>6.1</ele>
        <time>2022-06-21T11:40:01Z</time>
      </trkpt>
      <trkpt lat="45.94196" lon="-0.95618">
        <ele>6.1</ele>
        <time>2022-06-21T11:40:02Z</time>
      </trkpt>
      <trkpt lat="45.94196" lon="-0.95619">
        <ele>6.1</ele>
        <time>2022-06-21T11:40:03Z</time>
      </trkpt>
      <trkpt lat="45.94195" lon="-0.9562">
        <ele>6.1</ele>
        <time>2022-06-21T11:40:05Z</time>
      </trkpt>
      <trkpt lat="45.94195" lon="-0.95621">
        <ele>6.2</ele>
        <time>2022-06-21T11:40:06Z</time>
      </trkpt>
      <trkpt lat="45.94195" lon="-0.95623">
        <ele>6.2</ele>
        <time>2022-06-21T11:40:07Z</time>
      </trkpt>
      <trkpt lat="45.94194" lon="-0.95624">
        <ele>6.2</ele>
        <time>2022-06-21T11:40:08Z</time>
      </trkpt>
      <trkpt lat="45.94194" lon="-0.95626">
        <ele>6.2</ele>
        <time>2022-06-21T11:40:09Z</time>
      </trkpt>
      <trkpt lat="45.94194" lon="-0.95627">
        <ele>6.2</ele>
        <time>2022-06-21T11:40:10Z</time>
      </trkpt>
      <trkpt lat="45.94194" lon="-0.95628">
        <ele>6.2</ele>
        <time>2022-06-21T11:40:11Z</time>
      </trkpt>
      <trkpt lat="45.94193" lon="-0.95629">
        <ele>6.3</ele>
        <time>2022-06-21T11:40:12Z</time>
      </trkpt>
      <trkpt lat="45.94194" lon="-0.95631">
        <ele>6.3</ele>
        <time>2022-06-21T11:40:13Z</time>
      </trkpt>
      <trkpt lat="45.94195" lon="-0.95632">
        <ele>6.3</ele>
        <time>2022-06-21T11:40:14Z</time>
      </trkpt>
      <trkpt lat="45.94195" lon="-0.95632">
        <ele>6.3</ele>
        <time>2022-06-21T11:40:15Z</time>
      </trkpt>
      <trkpt lat="45.94196" lon="-0.95632">
        <ele>6.3</ele>
        <time>2022-06-21T11:40:16Z</time>
      </trkpt>
      <trkpt lat="45.94196" lon="-0.95632">
        <ele>6.3</ele>
        <time>2022-06-21T11:40:17Z</time>
      </trkpt>
      <trkpt lat="45.94197" lon="-0.95633">
        <ele>6.3</ele>
        <time>2022-06-21T11:40:18Z</time>
      </trkpt>
      <trkpt lat="45.94199" lon="-0.95633">
        <ele>6.4</ele>
        <time>2022-06-21T11:40:19Z</time>
      </trkpt>
      <trkpt lat="45.942" lon="-0.95633">
        <ele>6.4</ele>
        <time>2022-06-21T11:40:20Z</time>
      </trkpt>
      <trkpt lat="45.94201" lon="-0.95632">
        <ele>6.4</ele>
        <time>2022-06-21T11:40:21Z</time>
      </trkpt>
      <trkpt lat="45.94201" lon="-0.95632">
        <ele>6.4</ele>
        <time>2022-06-21T11:40:22Z</time>
      </trkpt>
      <trkpt lat="45.94201" lon="-0.95631">
        <ele>6.4</ele>
        <time>2022-06-21T11:40:23Z</time>
      </trkpt>
      <trkpt lat="45.94201" lon="-0.9563">
        <ele>6.4</ele>
        <time>2022-06-21T11:40:24Z</time>
      </trkpt>
      <trkpt lat="45.94201" lon="-0.9563">
        <ele>6.4</ele>
        <time>2022-06-21T11:40:25Z</time>
      </trkpt>
      <trkpt lat="45.94201" lon="-0.95629">
        <ele>6.4</ele>
        <time>2022-06-21T11:40:26Z</time>
      </trkpt>
      <trkpt lat="45.94201" lon="-0.95629">
        <ele>6.4</ele>
        <time>2022-06-21T11:40:28Z</time>
      </trkpt>
      <trkpt lat="45.94201" lon="-0.95628">
        <ele>6.4</ele>
        <time>2022-06-21T11:40:29Z</time>
      </trkpt>
      <trkpt lat="45.94201" lon="-0.95628">
        <ele>6.4</ele>
        <time>2022-06-21T11:40:30Z</time>
      </trkpt>
      <trkpt lat="45.94202" lon="-0.95627">
        <ele>6.5</ele>
        <time>2022-06-21T11:40:31Z</time>
      </trkpt>
      <trkpt lat="45.94202" lon="-0.95627">
        <ele>6.5</ele>
        <time>2022-06-21T11:40:32Z</time>
      </trkpt>
      <trkpt lat="45.94202" lon="-0.95626">
        <ele>6.5</ele>
        <time>2022-06-21T11:40:33Z</time>
      </trkpt>
      <trkpt lat="45.94202" lon="-0.95625">
        <ele>6.5</ele>
        <time>2022-06-21T11:40:34Z</time>
      </trkpt>
      <trkpt lat="45.94202" lon="-0.95625">
        <ele>6.5</ele>
        <time>2022-06-21T11:40:36Z</time>
      </trkpt>
      <trkpt lat="45.94202" lon="-0.95624">
        <ele>6.5</ele>
        <time>2022-06-21T11:40:37Z</time>
      </trkpt>
      <trkpt lat="45.94202" lon="-0.95624">
        <ele>6.5</ele>
        <time>2022-06-21T11:40:38Z</time>
      </trkpt>
      <trkpt lat="45.94202" lon="-0.95622">
        <ele>6.5</ele>
        <time>2022-06-21T11:40:39Z</time>
      </trkpt>
      <trkpt lat="45.94202" lon="-0.9562">
        <ele>6.5</ele>
        <time>2022-06-21T11:40:40Z</time>
      </trkpt>
      <trkpt lat="45.94201" lon="-0.95618">
        <ele>6.6</ele>
        <time>2022-06-21T11:40:42Z</time>
      </trkpt>
      <trkpt lat="45.94199" lon="-0.95615">
        <ele>6.6</ele>
        <time>2022-06-21T11:40:43Z</time>
      </trkpt>
      <trkpt lat="45.94199" lon="-0.95612">
        <ele>6.6</ele>
        <time>2022-06-21T11:40:45Z</time>
      </trkpt>
      <trkpt lat="45.94199" lon="-0.9561">
        <ele>6.5</ele>
        <time>2022-06-21T11:40:46Z</time>
      </trkpt>
      <trkpt lat="45.942" lon="-0.95609">
        <ele>6.5</ele>
        <time>2022-06-21T11:40:47Z</time>
      </trkpt>
      <trkpt lat="45.942" lon="-0.95608">
        <ele>6.5</ele>
        <time>2022-06-21T11:40:48Z</time>
      </trkpt>
      <trkpt lat="45.94201" lon="-0.95607">
        <ele>6.4</ele>
        <time>2022-06-21T11:40:49Z</time>
      </trkpt>
      <trkpt lat="45.94201" lon="-0.95606">
        <ele>6.4</ele>
        <time>2022-06-21T11:40:51Z</time>
      </trkpt>
      <trkpt lat="45.94201" lon="-0.95605">
        <ele>6.4</ele>
        <time>2022-06-21T11:40:52Z</time>
      </trkpt>
      <trkpt lat="45.94201" lon="-0.95603">
        <ele>6.3</ele>
        <time>2022-06-21T11:40:53Z</time>
      </trkpt>
      <trkpt lat="45.94201" lon="-0.95602">
        <ele>6.3</ele>
        <time>2022-06-21T11:40:54Z</time>
      </trkpt>
      <trkpt lat="45.94201" lon="-0.956">
        <ele>6.3</ele>
        <time>2022-06-21T11:40:55Z</time>
      </trkpt>
      <trkpt lat="45.94202" lon="-0.956">
        <ele>6.3</ele>
        <time>2022-06-21T11:40:56Z</time>
      </trkpt>
      <trkpt lat="45.94201" lon="-0.95598">
        <ele>6.2</ele>
        <time>2022-06-21T11:40:58Z</time>
      </trkpt>
      <trkpt lat="45.94201" lon="-0.95597">
        <ele>6.2</ele>
        <time>2022-06-21T11:40:59Z</time>
      </trkpt>
      <trkpt lat="45.94202" lon="-0.95595">
        <ele>6.1</ele>
        <time>2022-06-21T11:41:00Z</time>
      </trkpt>
      <trkpt lat="45.94202" lon="-0.95593">
        <ele>6.1</ele>
        <time>2022-06-21T11:41:01Z</time>
      </trkpt>
      <trkpt lat="45.94202" lon="-0.95591">
        <ele>6.1</ele>
        <time>2022-06-21T11:41:02Z</time>
      </trkpt>
      <trkpt lat="45.94203" lon="-0.95589">
        <ele>6</ele>
        <time>2022-06-21T11:41:03Z</time>
      </trkpt>
      <trkpt lat="45.94203" lon="-0.95587">
        <ele>6</ele>
        <time>2022-06-21T11:41:04Z</time>
      </trkpt>
      <trkpt lat="45.94203" lon="-0.95584">
        <ele>5.9</ele>
        <time>2022-06-21T11:41:05Z</time>
      </trkpt>
      <trkpt lat="45.94203" lon="-0.95582">
        <ele>5.9</ele>
        <time>2022-06-21T11:41:06Z</time>
      </trkpt>
      <trkpt lat="45.94203" lon="-0.9558">
        <ele>5.9</ele>
        <time>2022-06-21T11:41:07Z</time>
      </trkpt>
      <trkpt lat="45.94204" lon="-0.95578">
        <ele>5.8</ele>
        <time>2022-06-21T11:41:09Z</time>
      </trkpt>
      <trkpt lat="45.94204" lon="-0.95576">
        <ele>5.8</ele>
        <time>2022-06-21T11:41:10Z</time>
      </trkpt>
      <trkpt lat="45.94205" lon="-0.95575">
        <ele>5.8</ele>
        <time>2022-06-21T11:41:11Z</time>
      </trkpt>
      <trkpt lat="45.94205" lon="-0.95574">
        <ele>5.7</ele>
        <time>2022-06-21T11:41:13Z</time>
      </trkpt>
      <trkpt lat="45.94205" lon="-0.95573">
        <ele>5.7</ele>
        <time>2022-06-21T11:41:14Z</time>
      </trkpt>
      <trkpt lat="45.94206" lon="-0.95572">
        <ele>5.2</ele>
        <time>2022-06-21T11:41:15Z</time>
      </trkpt>
      <trkpt lat="45.94207" lon="-0.95569">
        <ele>5.2</ele>
        <time>2022-06-21T11:41:16Z</time>
      </trkpt>
      <trkpt lat="45.94207" lon="-0.95568">
        <ele>5.1</ele>
        <time>2022-06-21T11:41:18Z</time>
      </trkpt>
      <trkpt lat="45.94207" lon="-0.95567">
        <ele>5.1</ele>
        <time>2022-06-21T11:41:19Z</time>
      </trkpt>
      <trkpt lat="45.94207" lon="-0.95566">
        <ele>5.1</ele>
        <time>2022-06-21T11:41:20Z</time>
      </trkpt>
      <trkpt lat="45.94208" lon="-0.95565">
        <ele>5.1</ele>
        <time>2022-06-21T11:41:21Z</time>
      </trkpt>
      <trkpt lat="45.94209" lon="-0.95565">
        <ele>5.1</ele>
        <time>2022-06-21T11:41:22Z</time>
      </trkpt>
      <trkpt lat="45.94209" lon="-0.95566">
        <ele>5.1</ele>
        <time>2022-06-21T11:41:23Z</time>
      </trkpt>
      <trkpt lat="45.9421" lon="-0.95567">
        <ele>5.1</ele>
        <time>2022-06-21T11:41:24Z</time>
      </trkpt>
      <trkpt lat="45.94211" lon="-0.95568">
        <ele>5</ele>
        <time>2022-06-21T11:41:26Z</time>
      </trkpt>
      <trkpt lat="45.94212" lon="-0.95568">
        <ele>5</ele>
        <time>2022-06-21T11:41:27Z</time>
      </trkpt>
      <trkpt lat="45.94213" lon="-0.95568">
        <ele>5</ele>
        <time>2022-06-21T11:41:28Z</time>
      </trkpt>
      <trkpt lat="45.94213" lon="-0.95568">
        <ele>5</ele>
        <time>2022-06-21T11:41:29Z</time>
      </trkpt>
      <trkpt lat="45.94214" lon="-0.95567">
        <ele>5</ele>
        <time>2022-06-21T11:41:30Z</time>
      </trkpt>
      <trkpt lat="45.94215" lon="-0.95567">
        <ele>5</ele>
        <time>2022-06-21T11:41:31Z</time>
      </trkpt>
      <trkpt lat="45.94215" lon="-0.95566">
        <ele>5</ele>
        <time>2022-06-21T11:41:32Z</time>
      </trkpt>
      <trkpt lat="45.94216" lon="-0.95566">
        <ele>5</ele>
        <time>2022-06-21T11:41:34Z</time>
      </trkpt>
      <trkpt lat="45.94218" lon="-0.95565">
        <ele>4.9</ele>
        <time>2022-06-21T11:41:35Z</time>
      </trkpt>
      <trkpt lat="45.94219" lon="-0.95564">
        <ele>4.9</ele>
        <time>2022-06-21T11:41:36Z</time>
      </trkpt>
      <trkpt lat="45.9422" lon="-0.95563">
        <ele>4.9</ele>
        <time>2022-06-21T11:41:37Z</time>
      </trkpt>
      <trkpt lat="45.94223" lon="-0.95561">
        <ele>4.9</ele>
        <time>2022-06-21T11:41:39Z</time>
      </trkpt>
      <trkpt lat="45.94225" lon="-0.9556">
        <ele>4.9</ele>
        <time>2022-06-21T11:41:40Z</time>
      </trkpt>
      <trkpt lat="45.94227" lon="-0.95559">
        <ele>4.8</ele>
        <time>2022-06-21T11:41:42Z</time>
      </trkpt>
      <trkpt lat="45.9423" lon="-0.95555">
        <ele>4.8</ele>
        <time>2022-06-21T11:41:44Z</time>
      </trkpt>
      <trkpt lat="45.9423" lon="-0.95554">
        <ele>4.8</ele>
        <time>2022-06-21T11:41:45Z</time>
      </trkpt>
      <trkpt lat="45.94231" lon="-0.95553">
        <ele>4.8</ele>
        <time>2022-06-21T11:41:46Z</time>
      </trkpt>
      <trkpt lat="45.94232" lon="-0.95552">
        <ele>4.8</ele>
        <time>2022-06-21T11:41:47Z</time>
      </trkpt>
      <trkpt lat="45.94232" lon="-0.9555">
        <ele>4.7</ele>
        <time>2022-06-21T11:41:49Z</time>
      </trkpt>
      <trkpt lat="45.94232" lon="-0.95548">
        <ele>4.7</ele>
        <time>2022-06-21T11:41:50Z</time>
      </trkpt>
      <trkpt lat="45.94232" lon="-0.95546">
        <ele>4.7</ele>
        <time>2022-06-21T11:41:51Z</time>
      </trkpt>
      <trkpt lat="45.94232" lon="-0.95545">
        <ele>4.7</ele>
        <time>2022-06-21T11:41:52Z</time>
      </trkpt>
      <trkpt lat="45.94232" lon="-0.95543">
        <ele>4.7</ele>
        <time>2022-06-21T11:41:53Z</time>
      </trkpt>
      <trkpt lat="45.94232" lon="-0.95541">
        <ele>4.7</ele>
        <time>2022-06-21T11:41:54Z</time>
      </trkpt>
      <trkpt lat="45.94233" lon="-0.9554">
        <ele>4.7</ele>
        <time>2022-06-21T11:41:56Z</time>
      </trkpt>
      <trkpt lat="45.94233" lon="-0.95537">
        <ele>4.6</ele>
        <time>2022-06-21T11:41:57Z</time>
      </trkpt>
      <trkpt lat="45.94233" lon="-0.95536">
        <ele>4.6</ele>
        <time>2022-06-21T11:41:58Z</time>
      </trkpt>
      <trkpt lat="45.94234" lon="-0.95534">
        <ele>4.6</ele>
        <time>2022-06-21T11:41:59Z</time>
      </trkpt>
      <trkpt lat="45.94234" lon="-0.95533">
        <ele>4.6</ele>
        <time>2022-06-21T11:42:00Z</time>
      </trkpt>
      <trkpt lat="45.94234" lon="-0.95531">
        <ele>4.6</ele>
        <time>2022-06-21T11:42:01Z</time>
      </trkpt>
      <trkpt lat="45.94234" lon="-0.9553">
        <ele>4.6</ele>
        <time>2022-06-21T11:42:02Z</time>
      </trkpt>
      <trkpt lat="45.94234" lon="-0.95529">
        <ele>4.6</ele>
        <time>2022-06-21T11:42:03Z</time>
      </trkpt>
      <trkpt lat="45.94234" lon="-0.95527">
        <ele>4.6</ele>
        <time>2022-06-21T11:42:04Z</time>
      </trkpt>
      <trkpt lat="45.94235" lon="-0.95526">
        <ele>4.6</ele>
        <time>2022-06-21T11:42:05Z</time>
      </trkpt>
      <trkpt lat="45.94235" lon="-0.95524">
        <ele>4.6</ele>
        <time>2022-06-21T11:42:06Z</time>
      </trkpt>
      <trkpt lat="45.94235" lon="-0.95522">
        <ele>4.5</ele>
        <time>2022-06-21T11:42:07Z</time>
      </trkpt>
      <trkpt lat="45.94235" lon="-0.95521">
        <ele>4.5</ele>
        <time>2022-06-21T11:42:08Z</time>
      </trkpt>
      <trkpt lat="45.94235" lon="-0.95519">
        <ele>4.5</ele>
        <time>2022-06-21T11:42:09Z</time>
      </trkpt>
      <trkpt lat="45.94235" lon="-0.95518">
        <ele>4.5</ele>
        <time>2022-06-21T11:42:10Z</time>
      </trkpt>
      <trkpt lat="45.94235" lon="-0.95516">
        <ele>4.5</ele>
        <time>2022-06-21T11:42:11Z</time>
      </trkpt>
      <trkpt lat="45.94235" lon="-0.95513">
        <ele>4.5</ele>
        <time>2022-06-21T11:42:12Z</time>
      </trkpt>
      <trkpt lat="45.94235" lon="-0.95512">
        <ele>4.5</ele>
        <time>2022-06-21T11:42:13Z</time>
      </trkpt>
      <trkpt lat="45.94235" lon="-0.95511">
        <ele>4.5</ele>
        <time>2022-06-21T11:42:14Z</time>
      </trkpt>
      <trkpt lat="45.94235" lon="-0.95509">
        <ele>4.5</ele>
        <time>2022-06-21T11:42:15Z</time>
      </trkpt>
      <trkpt lat="45.94235" lon="-0.95507">
        <ele>4.5</ele>
        <time>2022-06-21T11:42:16Z</time>
      </trkpt>
      <trkpt lat="45.94235" lon="-0.95505">
        <ele>4.5</ele>
        <time>2022-06-21T11:42:18Z</time>
      </trkpt>
      <trkpt lat="45.94235" lon="-0.95503">
        <ele>4.5</ele>
        <time>2022-06-21T11:42:19Z</time>
      </trkpt>
      <trkpt lat="45.94235" lon="-0.955">
        <ele>4.5</ele>
        <time>2022-06-21T11:42:20Z</time>
      </trkpt>
      <trkpt lat="45.94235" lon="-0.95498">
        <ele>4.5</ele>
        <time>2022-06-21T11:42:21Z</time>
      </trkpt>
      <trkpt lat="45.94235" lon="-0.95496">
        <ele>4.5</ele>
        <time>2022-06-21T11:42:22Z</time>
      </trkpt>
      <trkpt lat="45.94235" lon="-0.95494">
        <ele>4.5</ele>
        <time>2022-06-21T11:42:23Z</time>
      </trkpt>
      <trkpt lat="45.94235" lon="-0.95495">
        <ele>4.5</ele>
        <time>2022-06-21T11:42:25Z</time>
      </trkpt>
      <trkpt lat="45.94235" lon="-0.95494">
        <ele>4.4</ele>
        <time>2022-06-21T11:42:26Z</time>
      </trkpt>
      <trkpt lat="45.94235" lon="-0.95493">
        <ele>4.4</ele>
        <time>2022-06-21T11:42:27Z</time>
      </trkpt>
      <trkpt lat="45.94235" lon="-0.95492">
        <ele>4.4</ele>
        <time>2022-06-21T11:42:29Z</time>
      </trkpt>
      <trkpt lat="45.94234" lon="-0.9549">
        <ele>4.4</ele>
        <time>2022-06-21T11:42:30Z</time>
      </trkpt>
      <trkpt lat="45.94234" lon="-0.95489">
        <ele>4.4</ele>
        <time>2022-06-21T11:42:31Z</time>
      </trkpt>
      <trkpt lat="45.94234" lon="-0.95485">
        <ele>4.4</ele>
        <time>2022-06-21T11:42:33Z</time>
      </trkpt>
      <trkpt lat="45.94234" lon="-0.95483">
        <ele>4.4</ele>
        <time>2022-06-21T11:42:34Z</time>
      </trkpt>
      <trkpt lat="45.94234" lon="-0.95481">
        <ele>4.4</ele>
        <time>2022-06-21T11:42:35Z</time>
      </trkpt>
      <trkpt lat="45.94234" lon="-0.95478">
        <ele>4.4</ele>
        <time>2022-06-21T11:42:36Z</time>
      </trkpt>
      <trkpt lat="45.94234" lon="-0.95477">
        <ele>4.4</ele>
        <time>2022-06-21T11:42:37Z</time>
      </trkpt>
      <trkpt lat="45.94234" lon="-0.95476">
        <ele>4.4</ele>
        <time>2022-06-21T11:42:38Z</time>
      </trkpt>
      <trkpt lat="45.94234" lon="-0.95474">
        <ele>4.4</ele>
        <time>2022-06-21T11:42:40Z</time>
      </trkpt>
      <trkpt lat="45.94234" lon="-0.95472">
        <ele>4.4</ele>
        <time>2022-06-21T11:42:41Z</time>
      </trkpt>
      <trkpt lat="45.94234" lon="-0.95471">
        <ele>4.4</ele>
        <time>2022-06-21T11:42:42Z</time>
      </trkpt>
      <trkpt lat="45.94234" lon="-0.95469">
        <ele>4.4</ele>
        <time>2022-06-21T11:42:43Z</time>
      </trkpt>
      <trkpt lat="45.94234" lon="-0.95468">
        <ele>4.4</ele>
        <time>2022-06-21T11:42:44Z</time>
      </trkpt>
      <trkpt lat="45.94234" lon="-0.95467">
        <ele>4.4</ele>
        <time>2022-06-21T11:42:45Z</time>
      </trkpt>
      <trkpt lat="45.94235" lon="-0.95467">
        <ele>4.4</ele>
        <time>2022-06-21T11:42:46Z</time>
      </trkpt>
      <trkpt lat="45.94235" lon="-0.95466">
        <ele>4.4</ele>
        <time>2022-06-21T11:42:47Z</time>
      </trkpt>
      <trkpt lat="45.94236" lon="-0.95465">
        <ele>4.4</ele>
        <time>2022-06-21T11:42:48Z</time>
      </trkpt>
      <trkpt lat="45.94238" lon="-0.95465">
        <ele>4.4</ele>
        <time>2022-06-21T11:42:50Z</time>
      </trkpt>
      <trkpt lat="45.9424" lon="-0.95466">
        <ele>4.4</ele>
        <time>2022-06-21T11:42:51Z</time>
      </trkpt>
      <trkpt lat="45.94242" lon="-0.95468">
        <ele>4.4</ele>
        <time>2022-06-21T11:42:53Z</time>
      </trkpt>
      <trkpt lat="45.94245" lon="-0.9547">
        <ele>4.3</ele>
        <time>2022-06-21T11:42:54Z</time>
      </trkpt>
      <trkpt lat="45.94246" lon="-0.95471">
        <ele>4.3</ele>
        <time>2022-06-21T11:42:55Z</time>
      </trkpt>
      <trkpt lat="45.94247" lon="-0.95473">
        <ele>4.3</ele>
        <time>2022-06-21T11:42:56Z</time>
      </trkpt>
      <trkpt lat="45.94249" lon="-0.95474">
        <ele>4.3</ele>
        <time>2022-06-21T11:42:58Z</time>
      </trkpt>
      <trkpt lat="45.94251" lon="-0.95474">
        <ele>4.3</ele>
        <time>2022-06-21T11:42:59Z</time>
      </trkpt>
      <trkpt lat="45.94252" lon="-0.95474">
        <ele>4.3</ele>
        <time>2022-06-21T11:43:00Z</time>
      </trkpt>
      <trkpt lat="45.94254" lon="-0.95474">
        <ele>4.2</ele>
        <time>2022-06-21T11:43:01Z</time>
      </trkpt>
      <trkpt lat="45.94255" lon="-0.95473">
        <ele>4.2</ele>
        <time>2022-06-21T11:43:02Z</time>
      </trkpt>
      <trkpt lat="45.94255" lon="-0.95472">
        <ele>4.2</ele>
        <time>2022-06-21T11:43:04Z</time>
      </trkpt>
      <trkpt lat="45.94256" lon="-0.95472">
        <ele>4.2</ele>
        <time>2022-06-21T11:43:05Z</time>
      </trkpt>
      <trkpt lat="45.94257" lon="-0.95471">
        <ele>4.2</ele>
        <time>2022-06-21T11:43:06Z</time>
      </trkpt>
      <trkpt lat="45.94257" lon="-0.9547">
        <ele>4.2</ele>
        <time>2022-06-21T11:43:07Z</time>
      </trkpt>
      <trkpt lat="45.94257" lon="-0.95469">
        <ele>4.2</ele>
        <time>2022-06-21T11:43:08Z</time>
      </trkpt>
      <trkpt lat="45.94258" lon="-0.95468">
        <ele>4.2</ele>
        <time>2022-06-21T11:43:10Z</time>
      </trkpt>
      <trkpt lat="45.94259" lon="-0.95467">
        <ele>4.2</ele>
        <time>2022-06-21T11:43:11Z</time>
      </trkpt>
      <trkpt lat="45.9426" lon="-0.95467">
        <ele>4.2</ele>
        <time>2022-06-21T11:43:12Z</time>
      </trkpt>
      <trkpt lat="45.9426" lon="-0.95466">
        <ele>4.2</ele>
        <time>2022-06-21T11:43:13Z</time>
      </trkpt>
      <trkpt lat="45.94261" lon="-0.95466">
        <ele>4.2</ele>
        <time>2022-06-21T11:43:14Z</time>
      </trkpt>
      <trkpt lat="45.94262" lon="-0.95465">
        <ele>4.1</ele>
        <time>2022-06-21T11:43:16Z</time>
      </trkpt>
      <trkpt lat="45.94262" lon="-0.95465">
        <ele>4.1</ele>
        <time>2022-06-21T11:43:17Z</time>
      </trkpt>
      <trkpt lat="45.94262" lon="-0.95464">
        <ele>4.1</ele>
        <time>2022-06-21T11:43:18Z</time>
      </trkpt>
      <trkpt lat="45.94262" lon="-0.95464">
        <ele>4.1</ele>
        <time>2022-06-21T11:43:19Z</time>
      </trkpt>
      <trkpt lat="45.94262" lon="-0.95464">
        <ele>4.1</ele>
        <time>2022-06-21T11:43:21Z</time>
      </trkpt>
      <trkpt lat="45.94261" lon="-0.95463">
        <ele>4.1</ele>
        <time>2022-06-21T11:43:22Z</time>
      </trkpt>
      <trkpt lat="45.94261" lon="-0.95463">
        <ele>4.1</ele>
        <time>2022-06-21T11:43:23Z</time>
      </trkpt>
      <trkpt lat="45.94261" lon="-0.95462">
        <ele>4.1</ele>
        <time>2022-06-21T11:43:24Z</time>
      </trkpt>
      <trkpt lat="45.94262" lon="-0.95462">
        <ele>4.1</ele>
        <time>2022-06-21T11:43:25Z</time>
      </trkpt>
      <trkpt lat="45.94261" lon="-0.95461">
        <ele>4.1</ele>
        <time>2022-06-21T11:43:26Z</time>
      </trkpt>
      <trkpt lat="45.94261" lon="-0.95462">
        <ele>4.1</ele>
        <time>2022-06-21T11:43:27Z</time>
      </trkpt>
      <trkpt lat="45.9426" lon="-0.95462">
        <ele>4.1</ele>
        <time>2022-06-21T11:43:29Z</time>
      </trkpt>
      <trkpt lat="45.9426" lon="-0.95463">
        <ele>4.1</ele>
        <time>2022-06-21T11:43:30Z</time>
      </trkpt>
      <trkpt lat="45.94259" lon="-0.95463">
        <ele>4.1</ele>
        <time>2022-06-21T11:43:31Z</time>
      </trkpt>
      <trkpt lat="45.94259" lon="-0.95463">
        <ele>4.1</ele>
        <time>2022-06-21T11:43:33Z</time>
      </trkpt>
      <trkpt lat="45.94259" lon="-0.95463">
        <ele>4.1</ele>
        <time>2022-06-21T11:43:34Z</time>
      </trkpt>
      <trkpt lat="45.94259" lon="-0.95463">
        <ele>4.1</ele>
        <time>2022-06-21T11:43:35Z</time>
      </trkpt>
      <trkpt lat="45.94259" lon="-0.95463">
        <ele>4.1</ele>
        <time>2022-06-21T11:43:36Z</time>
      </trkpt>
      <trkpt lat="45.94259" lon="-0.95464">
        <ele>4.1</ele>
        <time>2022-06-21T11:43:37Z</time>
      </trkpt>
      <trkpt lat="45.94259" lon="-0.95464">
        <ele>4.1</ele>
        <time>2022-06-21T11:43:38Z</time>
      </trkpt>
      <trkpt lat="45.94259" lon="-0.95464">
        <ele>4.1</ele>
        <time>2022-06-21T11:43:40Z</time>
      </trkpt>
      <trkpt lat="45.94259" lon="-0.95465">
        <ele>4.1</ele>
        <time>2022-06-21T11:43:41Z</time>
      </trkpt>
      <trkpt lat="45.9426" lon="-0.95465">
        <ele>4.1</ele>
        <time>2022-06-21T11:43:42Z</time>
      </trkpt>
      <trkpt lat="45.94261" lon="-0.95466">
        <ele>4.1</ele>
        <time>2022-06-21T11:43:44Z</time>
      </trkpt>
      <trkpt lat="45.94261" lon="-0.95468">
        <ele>4.2</ele>
        <time>2022-06-21T11:43:45Z</time>
      </trkpt>
      <trkpt lat="45.94262" lon="-0.95469">
        <ele>4.2</ele>
        <time>2022-06-21T11:43:46Z</time>
      </trkpt>
      <trkpt lat="45.94263" lon="-0.9547">
        <ele>4.2</ele>
        <time>2022-06-21T11:43:47Z</time>
      </trkpt>
      <trkpt lat="45.94263" lon="-0.95472">
        <ele>4.2</ele>
        <time>2022-06-21T11:43:49Z</time>
      </trkpt>
      <trkpt lat="45.94264" lon="-0.95473">
        <ele>4.2</ele>
        <time>2022-06-21T11:43:50Z</time>
      </trkpt>
      <trkpt lat="45.94264" lon="-0.95475">
        <ele>4.2</ele>
        <time>2022-06-21T11:43:51Z</time>
      </trkpt>
      <trkpt lat="45.94264" lon="-0.95477">
        <ele>4.2</ele>
        <time>2022-06-21T11:43:52Z</time>
      </trkpt>
      <trkpt lat="45.94264" lon="-0.95479">
        <ele>4.2</ele>
        <time>2022-06-21T11:43:54Z</time>
      </trkpt>
      <trkpt lat="45.94264" lon="-0.95481">
        <ele>4.2</ele>
        <time>2022-06-21T11:43:55Z</time>
      </trkpt>
      <trkpt lat="45.94265" lon="-0.95484">
        <ele>4.2</ele>
        <time>2022-06-21T11:43:57Z</time>
      </trkpt>
      <trkpt lat="45.94264" lon="-0.95485">
        <ele>4.2</ele>
        <time>2022-06-21T11:43:58Z</time>
      </trkpt>
      <trkpt lat="45.94264" lon="-0.95487">
        <ele>4.2</ele>
        <time>2022-06-21T11:43:59Z</time>
      </trkpt>
      <trkpt lat="45.94265" lon="-0.95488">
        <ele>4.2</ele>
        <time>2022-06-21T11:44:00Z</time>
      </trkpt>
      <trkpt lat="45.94265" lon="-0.95489">
        <ele>4.2</ele>
        <time>2022-06-21T11:44:02Z</time>
      </trkpt>
      <trkpt lat="45.94266" lon="-0.95491">
        <ele>4.2</ele>
        <time>2022-06-21T11:44:03Z</time>
      </trkpt>
      <trkpt lat="45.94266" lon="-0.95492">
        <ele>4.3</ele>
        <time>2022-06-21T11:44:04Z</time>
      </trkpt>
      <trkpt lat="45.94267" lon="-0.95494">
        <ele>4.3</ele>
        <time>2022-06-21T11:44:05Z</time>
      </trkpt>
      <trkpt lat="45.94267" lon="-0.95495">
        <ele>4.3</ele>
        <time>2022-06-21T11:44:06Z</time>
      </trkpt>
      <trkpt lat="45.94268" lon="-0.95497">
        <ele>4.3</ele>
        <time>2022-06-21T11:44:07Z</time>
      </trkpt>
      <trkpt lat="45.94268" lon="-0.95499">
        <ele>4.3</ele>
        <time>2022-06-21T11:44:08Z</time>
      </trkpt>
      <trkpt lat="45.94268" lon="-0.95502">
        <ele>4.3</ele>
        <time>2022-06-21T11:44:10Z</time>
      </trkpt>
      <trkpt lat="45.94269" lon="-0.95505">
        <ele>4.4</ele>
        <time>2022-06-21T11:44:11Z</time>
      </trkpt>
      <trkpt lat="45.94269" lon="-0.95507">
        <ele>4.4</ele>
        <time>2022-06-21T11:44:12Z</time>
      </trkpt>
      <trkpt lat="45.9427" lon="-0.95509">
        <ele>4.4</ele>
        <time>2022-06-21T11:44:13Z</time>
      </trkpt>
      <trkpt lat="45.9427" lon="-0.9551">
        <ele>4.4</ele>
        <time>2022-06-21T11:44:14Z</time>
      </trkpt>
      <trkpt lat="45.9427" lon="-0.95511">
        <ele>4.4</ele>
        <time>2022-06-21T11:44:15Z</time>
      </trkpt>
      <trkpt lat="45.9427" lon="-0.95513">
        <ele>4.4</ele>
        <time>2022-06-21T11:44:16Z</time>
      </trkpt>
      <trkpt lat="45.9427" lon="-0.95514">
        <ele>4.4</ele>
        <time>2022-06-21T11:44:17Z</time>
      </trkpt>
      <trkpt lat="45.9427" lon="-0.95516">
        <ele>4.5</ele>
        <time>2022-06-21T11:44:18Z</time>
      </trkpt>
      <trkpt lat="45.94271" lon="-0.95517">
        <ele>4.5</ele>
        <time>2022-06-21T11:44:19Z</time>
      </trkpt>
      <trkpt lat="45.94271" lon="-0.95518">
        <ele>4.5</ele>
        <time>2022-06-21T11:44:20Z</time>
      </trkpt>
      <trkpt lat="45.94272" lon="-0.9552">
        <ele>4.5</ele>
        <time>2022-06-21T11:44:21Z</time>
      </trkpt>
      <trkpt lat="45.94272" lon="-0.95523">
        <ele>4.5</ele>
        <time>2022-06-21T11:44:23Z</time>
      </trkpt>
      <trkpt lat="45.94273" lon="-0.95525">
        <ele>4.5</ele>
        <time>2022-06-21T11:44:24Z</time>
      </trkpt>
      <trkpt lat="45.94273" lon="-0.95526">
        <ele>4.5</ele>
        <time>2022-06-21T11:44:25Z</time>
      </trkpt>
      <trkpt lat="45.94273" lon="-0.95525">
        <ele>4.5</ele>
        <time>2022-06-21T11:44:26Z</time>
      </trkpt>
      <trkpt lat="45.94272" lon="-0.95525">
        <ele>4.6</ele>
        <time>2022-06-21T11:44:27Z</time>
      </trkpt>
      <trkpt lat="45.94272" lon="-0.95525">
        <ele>4.6</ele>
        <time>2022-06-21T11:44:28Z</time>
      </trkpt>
      <trkpt lat="45.94272" lon="-0.95525">
        <ele>4.6</ele>
        <time>2022-06-21T11:44:29Z</time>
      </trkpt>
      <trkpt lat="45.94272" lon="-0.95525">
        <ele>4.6</ele>
        <time>2022-06-21T11:44:30Z</time>
      </trkpt>
      <trkpt lat="45.94272" lon="-0.95525">
        <ele>4.6</ele>
        <time>2022-06-21T11:44:31Z</time>
      </trkpt>
      <trkpt lat="45.94272" lon="-0.95525">
        <ele>4.6</ele>
        <time>2022-06-21T11:44:32Z</time>
      </trkpt>
      <trkpt lat="45.94272" lon="-0.95525">
        <ele>4.6</ele>
        <time>2022-06-21T11:44:33Z</time>
      </trkpt>
      <trkpt lat="45.94272" lon="-0.95524">
        <ele>4.6</ele>
        <time>2022-06-21T11:44:34Z</time>
      </trkpt>
      <trkpt lat="45.94272" lon="-0.95524">
        <ele>4.6</ele>
        <time>2022-06-21T11:44:35Z</time>
      </trkpt>
      <trkpt lat="45.94272" lon="-0.95524">
        <ele>4.6</ele>
        <time>2022-06-21T11:44:36Z</time>
      </trkpt>
      <trkpt lat="45.94272" lon="-0.95524">
        <ele>4.6</ele>
        <time>2022-06-21T11:44:37Z</time>
      </trkpt>
      <trkpt lat="45.94272" lon="-0.95524">
        <ele>4.6</ele>
        <time>2022-06-21T11:44:38Z</time>
      </trkpt>
      <trkpt lat="45.94272" lon="-0.95524">
        <ele>4.6</ele>
        <time>2022-06-21T11:44:39Z</time>
      </trkpt>
      <trkpt lat="45.94272" lon="-0.95524">
        <ele>4.6</ele>
        <time>2022-06-21T11:44:40Z</time>
      </trkpt>
      <trkpt lat="45.94272" lon="-0.95524">
        <ele>4.6</ele>
        <time>2022-06-21T11:44:41Z</time>
      </trkpt>
      <trkpt lat="45.94272" lon="-0.95524">
        <ele>4.6</ele>
        <time>2022-06-21T11:44:42Z</time>
      </trkpt>
      <trkpt lat="45.94272" lon="-0.95523">
        <ele>4.6</ele>
        <time>2022-06-21T11:44:43Z</time>
      </trkpt>
      <trkpt lat="45.94272" lon="-0.95523">
        <ele>4.6</ele>
        <time>2022-06-21T11:44:44Z</time>
      </trkpt>
      <trkpt lat="45.94272" lon="-0.95523">
        <ele>4.6</ele>
        <time>2022-06-21T11:44:45Z</time>
      </trkpt>
      <trkpt lat="45.94271" lon="-0.95522">
        <ele>4.6</ele>
        <time>2022-06-21T11:44:46Z</time>
      </trkpt>
      <trkpt lat="45.94271" lon="-0.95522">
        <ele>4.6</ele>
        <time>2022-06-21T11:44:47Z</time>
      </trkpt>
      <trkpt lat="45.94271" lon="-0.95522">
        <ele>4.6</ele>
        <time>2022-06-21T11:44:48Z</time>
      </trkpt>
      <trkpt lat="45.94271" lon="-0.95522">
        <ele>4.6</ele>
        <time>2022-06-21T11:44:49Z</time>
      </trkpt>
      <trkpt lat="45.94271" lon="-0.95522">
        <ele>4.6</ele>
        <time>2022-06-21T11:44:50Z</time>
      </trkpt>
      <trkpt lat="45.94271" lon="-0.95522">
        <ele>4.6</ele>
        <time>2022-06-21T11:44:51Z</time>
      </trkpt>
      <trkpt lat="45.94271" lon="-0.95522">
        <ele>4.6</ele>
        <time>2022-06-21T11:44:52Z</time>
      </trkpt>
      <trkpt lat="45.94271" lon="-0.95522">
        <ele>4.6</ele>
        <time>2022-06-21T11:44:53Z</time>
      </trkpt>
      <trkpt lat="45.94271" lon="-0.95522">
        <ele>4.6</ele>
        <time>2022-06-21T11:44:54Z</time>
      </trkpt>
      <trkpt lat="45.94271" lon="-0.95522">
        <ele>4.6</ele>
        <time>2022-06-21T11:44:55Z</time>
      </trkpt>
      <trkpt lat="45.94271" lon="-0.95522">
        <ele>4.6</ele>
        <time>2022-06-21T11:44:56Z</time>
      </trkpt>
      <trkpt lat="45.94271" lon="-0.95522">
        <ele>4.6</ele>
        <time>2022-06-21T11:44:57Z</time>
      </trkpt>
      <trkpt lat="45.94271" lon="-0.95522">
        <ele>4.6</ele>
        <time>2022-06-21T11:44:58Z</time>
      </trkpt>
      <trkpt lat="45.94271" lon="-0.95522">
        <ele>4.6</ele>
        <time>2022-06-21T11:44:59Z</time>
      </trkpt>
      <trkpt lat="45.94271" lon="-0.95522">
        <ele>4.6</ele>
        <time>2022-06-21T11:45:00Z</time>
      </trkpt>
      <trkpt lat="45.94271" lon="-0.95522">
        <ele>4.6</ele>
        <time>2022-06-21T11:45:01Z</time>
      </trkpt>
      <trkpt lat="45.94271" lon="-0.95522">
        <ele>4.6</ele>
        <time>2022-06-21T11:45:02Z</time>
      </trkpt>
      <trkpt lat="45.94271" lon="-0.95522">
        <ele>4.6</ele>
        <time>2022-06-21T11:45:03Z</time>
      </trkpt>
      <trkpt lat="45.94271" lon="-0.95522">
        <ele>4.6</ele>
        <time>2022-06-21T11:45:04Z</time>
      </trkpt>
      <trkpt lat="45.94271" lon="-0.95522">
        <ele>4.6</ele>
        <time>2022-06-21T11:45:05Z</time>
      </trkpt>
      <trkpt lat="45.94271" lon="-0.95522">
        <ele>4.6</ele>
        <time>2022-06-21T11:45:06Z</time>
      </trkpt>
      <trkpt lat="45.94271" lon="-0.95522">
        <ele>4.6</ele>
        <time>2022-06-21T11:45:07Z</time>
      </trkpt>
      <trkpt lat="45.94271" lon="-0.95522">
        <ele>4.6</ele>
        <time>2022-06-21T11:45:08Z</time>
      </trkpt>
      <trkpt lat="45.94271" lon="-0.95522">
        <ele>4.6</ele>
        <time>2022-06-21T11:45:09Z</time>
      </trkpt>
      <trkpt lat="45.94271" lon="-0.95522">
        <ele>4.6</ele>
        <time>2022-06-21T11:45:10Z</time>
      </trkpt>
      <trkpt lat="45.94271" lon="-0.95522">
        <ele>4.6</ele>
        <time>2022-06-21T11:45:11Z</time>
      </trkpt>
      <trkpt lat="45.94271" lon="-0.95522">
        <ele>4.6</ele>
        <time>2022-06-21T11:45:12Z</time>
      </trkpt>
      <trkpt lat="45.94271" lon="-0.95522">
        <ele>4.6</ele>
        <time>2022-06-21T11:45:13Z</time>
      </trkpt>
      <trkpt lat="45.94271" lon="-0.95522">
        <ele>4.6</ele>
        <time>2022-06-21T11:45:14Z</time>
      </trkpt>
      <trkpt lat="45.94271" lon="-0.95522">
        <ele>4.6</ele>
        <time>2022-06-21T11:45:15Z</time>
      </trkpt>
      <trkpt lat="45.94271" lon="-0.95522">
        <ele>4.6</ele>
        <time>2022-06-21T11:45:16Z</time>
      </trkpt>
      <trkpt lat="45.94271" lon="-0.95522">
        <ele>4.6</ele>
        <time>2022-06-21T11:45:17Z</time>
      </trkpt>
      <trkpt lat="45.94271" lon="-0.95522">
        <ele>4.6</ele>
        <time>2022-06-21T11:45:18Z</time>
      </trkpt>
      <trkpt lat="45.94271" lon="-0.95522">
        <ele>4.6</ele>
        <time>2022-06-21T11:45:19Z</time>
      </trkpt>
      <trkpt lat="45.94271" lon="-0.95522">
        <ele>4.6</ele>
        <time>2022-06-21T11:45:20Z</time>
      </trkpt>
      <trkpt lat="45.94271" lon="-0.95522">
        <ele>4.6</ele>
        <time>2022-06-21T11:45:21Z</time>
      </trkpt>
      <trkpt lat="45.94271" lon="-0.95522">
        <ele>4.6</ele>
        <time>2022-06-21T11:45:22Z</time>
      </trkpt>
      <trkpt lat="45.94271" lon="-0.95522">
        <ele>4.6</ele>
        <time>2022-06-21T11:45:23Z</time>
      </trkpt>
      <trkpt lat="45.94271" lon="-0.95522">
        <ele>4.6</ele>
        <time>2022-06-21T11:45:24Z</time>
      </trkpt>
      <trkpt lat="45.94271" lon="-0.95522">
        <ele>4.6</ele>
        <time>2022-06-21T11:45:25Z</time>
      </trkpt>
      <trkpt lat="45.94271" lon="-0.95522">
        <ele>4.6</ele>
        <time>2022-06-21T11:45:26Z</time>
      </trkpt>
      <trkpt lat="45.94272" lon="-0.95524">
        <ele>4.6</ele>
        <time>2022-06-21T11:45:27Z</time>
      </trkpt>
      <trkpt lat="45.94272" lon="-0.95524">
        <ele>4.6</ele>
        <time>2022-06-21T11:45:28Z</time>
      </trkpt>
      <trkpt lat="45.94272" lon="-0.95524">
        <ele>4.6</ele>
        <time>2022-06-21T11:45:29Z</time>
      </trkpt>
      <trkpt lat="45.94272" lon="-0.95525">
        <ele>4.6</ele>
        <time>2022-06-21T11:45:30Z</time>
      </trkpt>
      <trkpt lat="45.94272" lon="-0.95525">
        <ele>4.6</ele>
        <time>2022-06-21T11:45:31Z</time>
      </trkpt>
      <trkpt lat="45.94272" lon="-0.95525">
        <ele>4.6</ele>
        <time>2022-06-21T11:45:32Z</time>
      </trkpt>
      <trkpt lat="45.94272" lon="-0.95525">
        <ele>4.6</ele>
        <time>2022-06-21T11:45:33Z</time>
      </trkpt>
      <trkpt lat="45.94272" lon="-0.95525">
        <ele>4.6</ele>
        <time>2022-06-21T11:45:34Z</time>
      </trkpt>
      <trkpt lat="45.94272" lon="-0.95525">
        <ele>4.6</ele>
        <time>2022-06-21T11:45:35Z</time>
      </trkpt>
      <trkpt lat="45.94272" lon="-0.95525">
        <ele>4.6</ele>
        <time>2022-06-21T11:45:36Z</time>
      </trkpt>
      <trkpt lat="45.94272" lon="-0.95525">
        <ele>4.6</ele>
        <time>2022-06-21T11:45:37Z</time>
      </trkpt>
      <trkpt lat="45.94272" lon="-0.95525">
        <ele>4.6</ele>
        <time>2022-06-21T11:45:38Z</time>
      </trkpt>
      <trkpt lat="45.94272" lon="-0.95525">
        <ele>4.6</ele>
        <time>2022-06-21T11:45:39Z</time>
      </trkpt>
      <trkpt lat="45.94272" lon="-0.95525">
        <ele>4.6</ele>
        <time>2022-06-21T11:45:40Z</time>
      </trkpt>
      <trkpt lat="45.94272" lon="-0.95525">
        <ele>4.6</ele>
        <time>2022-06-21T11:45:41Z</time>
      </trkpt>
      <trkpt lat="45.94272" lon="-0.95525">
        <ele>4.6</ele>
        <time>2022-06-21T11:45:42Z</time>
      </trkpt>
      <trkpt lat="45.94272" lon="-0.95525">
        <ele>4.6</ele>
        <time>2022-06-21T11:45:43Z</time>
      </trkpt>
      <trkpt lat="45.94272" lon="-0.95525">
        <ele>4.6</ele>
        <time>2022-06-21T11:45:44Z</time>
      </trkpt>
      <trkpt lat="45.94272" lon="-0.95525">
        <ele>4.6</ele>
        <time>2022-06-21T11:45:45Z</time>
      </trkpt>
      <trkpt lat="45.94272" lon="-0.95525">
        <ele>4.6</ele>
        <time>2022-06-21T11:45:46Z</time>
      </trkpt>
      <trkpt lat="45.94272" lon="-0.95525">
        <ele>4.6</ele>
        <time>2022-06-21T11:45:47Z</time>
      </trkpt>
      <trkpt lat="45.94272" lon="-0.95525">
        <ele>4.6</ele>
        <time>2022-06-21T11:45:48Z</time>
      </trkpt>
      <trkpt lat="45.94272" lon="-0.95525">
        <ele>4.6</ele>
        <time>2022-06-21T11:45:49Z</time>
      </trkpt>
      <trkpt lat="45.94272" lon="-0.95525">
        <ele>4.6</ele>
        <time>2022-06-21T11:45:50Z</time>
      </trkpt>
      <trkpt lat="45.94272" lon="-0.95525">
        <ele>4.6</ele>
        <time>2022-06-21T11:45:51Z</time>
      </trkpt>
      <trkpt lat="45.94272" lon="-0.95525">
        <ele>4.6</ele>
        <time>2022-06-21T11:45:52Z</time>
      </trkpt>
      <trkpt lat="45.94272" lon="-0.95525">
        <ele>4.6</ele>
        <time>2022-06-21T11:45:53Z</time>
      </trkpt>
      <trkpt lat="45.94272" lon="-0.95525">
        <ele>4.6</ele>
        <time>2022-06-21T11:45:54Z</time>
      </trkpt>
      <trkpt lat="45.94272" lon="-0.95525">
        <ele>4.6</ele>
        <time>2022-06-21T11:45:55Z</time>
      </trkpt>
      <trkpt lat="45.94272" lon="-0.95525">
        <ele>4.6</ele>
        <time>2022-06-21T11:45:56Z</time>
      </trkpt>
      <trkpt lat="45.94272" lon="-0.95525">
        <ele>4.6</ele>
        <time>2022-06-21T11:45:57Z</time>
      </trkpt>
      <trkpt lat="45.94272" lon="-0.95525">
        <ele>4.6</ele>
        <time>2022-06-21T11:45:58Z</time>
      </trkpt>
      <trkpt lat="45.94272" lon="-0.95526">
        <ele>4.6</ele>
        <time>2022-06-21T11:45:59Z</time>
      </trkpt>
      <trkpt lat="45.94272" lon="-0.95527">
        <ele>4.6</ele>
        <time>2022-06-21T11:46:00Z</time>
      </trkpt>
      <trkpt lat="45.94272" lon="-0.95527">
        <ele>4.6</ele>
        <time>2022-06-21T11:46:01Z</time>
      </trkpt>
      <trkpt lat="45.94272" lon="-0.95527">
        <ele>4.6</ele>
        <time>2022-06-21T11:46:02Z</time>
      </trkpt>
      <trkpt lat="45.94272" lon="-0.95527">
        <ele>4.6</ele>
        <time>2022-06-21T11:46:03Z</time>
      </trkpt>
      <trkpt lat="45.94273" lon="-0.95528">
        <ele>4.6</ele>
        <time>2022-06-21T11:46:04Z</time>
      </trkpt>
      <trkpt lat="45.94273" lon="-0.95529">
        <ele>4.6</ele>
        <time>2022-06-21T11:46:05Z</time>
      </trkpt>
      <trkpt lat="45.94273" lon="-0.95529">
        <ele>4.7</ele>
        <time>2022-06-21T11:46:06Z</time>
      </trkpt>
      <trkpt lat="45.94274" lon="-0.9553">
        <ele>4.7</ele>
        <time>2022-06-21T11:46:07Z</time>
      </trkpt>
      <trkpt lat="45.94274" lon="-0.9553">
        <ele>4.7</ele>
        <time>2022-06-21T11:46:09Z</time>
      </trkpt>
      <trkpt lat="45.94274" lon="-0.95532">
        <ele>4.7</ele>
        <time>2022-06-21T11:46:10Z</time>
      </trkpt>
      <trkpt lat="45.94274" lon="-0.95533">
        <ele>4.7</ele>
        <time>2022-06-21T11:46:11Z</time>
      </trkpt>
      <trkpt lat="45.94274" lon="-0.95534">
        <ele>4.7</ele>
        <time>2022-06-21T11:46:12Z</time>
      </trkpt>
      <trkpt lat="45.94274" lon="-0.95535">
        <ele>4.7</ele>
        <time>2022-06-21T11:46:13Z</time>
      </trkpt>
      <trkpt lat="45.94274" lon="-0.95535">
        <ele>4.7</ele>
        <time>2022-06-21T11:46:14Z</time>
      </trkpt>
      <trkpt lat="45.94274" lon="-0.95536">
        <ele>4.8</ele>
        <time>2022-06-21T11:46:15Z</time>
      </trkpt>
      <trkpt lat="45.94274" lon="-0.95536">
        <ele>4.8</ele>
        <time>2022-06-21T11:46:16Z</time>
      </trkpt>
      <trkpt lat="45.94274" lon="-0.95536">
        <ele>4.8</ele>
        <time>2022-06-21T11:46:18Z</time>
      </trkpt>
      <trkpt lat="45.94275" lon="-0.95537">
        <ele>4.8</ele>
        <time>2022-06-21T11:46:19Z</time>
      </trkpt>
      <trkpt lat="45.94275" lon="-0.95537">
        <ele>4.8</ele>
        <time>2022-06-21T11:46:20Z</time>
      </trkpt>
      <trkpt lat="45.94275" lon="-0.95539">
        <ele>4.8</ele>
        <time>2022-06-21T11:46:21Z</time>
      </trkpt>
      <trkpt lat="45.94275" lon="-0.9554">
        <ele>4.8</ele>
        <time>2022-06-21T11:46:23Z</time>
      </trkpt>
      <trkpt lat="45.94275" lon="-0.95541">
        <ele>4.8</ele>
        <time>2022-06-21T11:46:24Z</time>
      </trkpt>
      <trkpt lat="45.94275" lon="-0.95542">
        <ele>4.8</ele>
        <time>2022-06-21T11:46:25Z</time>
      </trkpt>
      <trkpt lat="45.94275" lon="-0.95542">
        <ele>4.8</ele>
        <time>2022-06-21T11:46:26Z</time>
      </trkpt>
      <trkpt lat="45.94275" lon="-0.95543">
        <ele>4.8</ele>
        <time>2022-06-21T11:46:27Z</time>
      </trkpt>
      <trkpt lat="45.94276" lon="-0.95543">
        <ele>4.8</ele>
        <time>2022-06-21T11:46:28Z</time>
      </trkpt>
      <trkpt lat="45.94276" lon="-0.95543">
        <ele>4.8</ele>
        <time>2022-06-21T11:46:29Z</time>
      </trkpt>
      <trkpt lat="45.94276" lon="-0.95543">
        <ele>4.8</ele>
        <time>2022-06-21T11:46:31Z</time>
      </trkpt>
      <trkpt lat="45.94276" lon="-0.95543">
        <ele>4.8</ele>
        <time>2022-06-21T11:46:32Z</time>
      </trkpt>
      <trkpt lat="45.94276" lon="-0.95543">
        <ele>4.8</ele>
        <time>2022-06-21T11:46:33Z</time>
      </trkpt>
      <trkpt lat="45.94276" lon="-0.95543">
        <ele>4.8</ele>
        <time>2022-06-21T11:46:34Z</time>
      </trkpt>
      <trkpt lat="45.94276" lon="-0.95543">
        <ele>4.8</ele>
        <time>2022-06-21T11:46:35Z</time>
      </trkpt>
      <trkpt lat="45.94276" lon="-0.95543">
        <ele>4.8</ele>
        <time>2022-06-21T11:46:36Z</time>
      </trkpt>
      <trkpt lat="45.94276" lon="-0.95544">
        <ele>4.8</ele>
        <time>2022-06-21T11:46:37Z</time>
      </trkpt>
      <trkpt lat="45.94276" lon="-0.95544">
        <ele>4.8</ele>
        <time>2022-06-21T11:46:38Z</time>
      </trkpt>
      <trkpt lat="45.94276" lon="-0.95544">
        <ele>4.8</ele>
        <time>2022-06-21T11:46:39Z</time>
      </trkpt>
      <trkpt lat="45.94276" lon="-0.95544">
        <ele>4.8</ele>
        <time>2022-06-21T11:46:40Z</time>
      </trkpt>
      <trkpt lat="45.94276" lon="-0.95544">
        <ele>4.8</ele>
        <time>2022-06-21T11:46:41Z</time>
      </trkpt>
      <trkpt lat="45.94276" lon="-0.95544">
        <ele>4.8</ele>
        <time>2022-06-21T11:46:42Z</time>
      </trkpt>
      <trkpt lat="45.94276" lon="-0.95544">
        <ele>4.8</ele>
        <time>2022-06-21T11:46:43Z</time>
      </trkpt>
      <trkpt lat="45.94276" lon="-0.95544">
        <ele>4.8</ele>
        <time>2022-06-21T11:46:44Z</time>
      </trkpt>
      <trkpt lat="45.94276" lon="-0.95544">
        <ele>4.8</ele>
        <time>2022-06-21T11:46:45Z</time>
      </trkpt>
      <trkpt lat="45.94276" lon="-0.95544">
        <ele>4.8</ele>
        <time>2022-06-21T11:46:46Z</time>
      </trkpt>
      <trkpt lat="45.94276" lon="-0.95544">
        <ele>4.8</ele>
        <time>2022-06-21T11:46:47Z</time>
      </trkpt>
      <trkpt lat="45.94276" lon="-0.95544">
        <ele>4.8</ele>
        <time>2022-06-21T11:46:48Z</time>
      </trkpt>
      <trkpt lat="45.94276" lon="-0.95544">
        <ele>4.8</ele>
        <time>2022-06-21T11:46:49Z</time>
      </trkpt>
      <trkpt lat="45.94276" lon="-0.95544">
        <ele>4.8</ele>
        <time>2022-06-21T11:46:50Z</time>
      </trkpt>
      <trkpt lat="45.94276" lon="-0.95544">
        <ele>4.8</ele>
        <time>2022-06-21T11:46:51Z</time>
      </trkpt>
      <trkpt lat="45.94276" lon="-0.95544">
        <ele>4.8</ele>
        <time>2022-06-21T11:46:52Z</time>
      </trkpt>
      <trkpt lat="45.94276" lon="-0.95544">
        <ele>4.8</ele>
        <time>2022-06-21T11:46:53Z</time>
      </trkpt>
      <trkpt lat="45.94276" lon="-0.95544">
        <ele>4.8</ele>
        <time>2022-06-21T11:46:54Z</time>
      </trkpt>
      <trkpt lat="45.94276" lon="-0.95544">
        <ele>4.8</ele>
        <time>2022-06-21T11:46:55Z</time>
      </trkpt>
      <trkpt lat="45.94276" lon="-0.95544">
        <ele>4.8</ele>
        <time>2022-06-21T11:46:56Z</time>
      </trkpt>
      <trkpt lat="45.94276" lon="-0.95544">
        <ele>4.8</ele>
        <time>2022-06-21T11:46:57Z</time>
      </trkpt>
      <trkpt lat="45.94275" lon="-0.95545">
        <ele>4.8</ele>
        <time>2022-06-21T11:46:58Z</time>
      </trkpt>
      <trkpt lat="45.94275" lon="-0.95548">
        <ele>4.8</ele>
        <time>2022-06-21T11:46:59Z</time>
      </trkpt>
      <trkpt lat="45.94275" lon="-0.9555">
        <ele>4.8</ele>
        <time>2022-06-21T11:47:00Z</time>
      </trkpt>
      <trkpt lat="45.94275" lon="-0.95551">
        <ele>4.8</ele>
        <time>2022-06-21T11:47:01Z</time>
      </trkpt>
      <trkpt lat="45.94275" lon="-0.95553">
        <ele>4.8</ele>
        <time>2022-06-21T11:47:02Z</time>
      </trkpt>
      <trkpt lat="45.94275" lon="-0.95554">
        <ele>4.8</ele>
        <time>2022-06-21T11:47:03Z</time>
      </trkpt>
      <trkpt lat="45.94275" lon="-0.95555">
        <ele>4.8</ele>
        <time>2022-06-21T11:47:04Z</time>
      </trkpt>
      <trkpt lat="45.94274" lon="-0.95557">
        <ele>4.7</ele>
        <time>2022-06-21T11:47:06Z</time>
      </trkpt>
      <trkpt lat="45.94275" lon="-0.95558">
        <ele>4.7</ele>
        <time>2022-06-21T11:47:07Z</time>
      </trkpt>
      <trkpt lat="45.94275" lon="-0.95559">
        <ele>4.7</ele>
        <time>2022-06-21T11:47:08Z</time>
      </trkpt>
      <trkpt lat="45.94275" lon="-0.9556">
        <ele>4.7</ele>
        <time>2022-06-21T11:47:09Z</time>
      </trkpt>
      <trkpt lat="45.94275" lon="-0.95561">
        <ele>4.7</ele>
        <time>2022-06-21T11:47:10Z</time>
      </trkpt>
      <trkpt lat="45.94275" lon="-0.95563">
        <ele>4.7</ele>
        <time>2022-06-21T11:47:12Z</time>
      </trkpt>
      <trkpt lat="45.94276" lon="-0.95565">
        <ele>4.7</ele>
        <time>2022-06-21T11:47:13Z</time>
      </trkpt>
      <trkpt lat="45.94276" lon="-0.95568">
        <ele>4.7</ele>
        <time>2022-06-21T11:47:14Z</time>
      </trkpt>
      <trkpt lat="45.94277" lon="-0.95569">
        <ele>4.6</ele>
        <time>2022-06-21T11:47:15Z</time>
      </trkpt>
      <trkpt lat="45.94278" lon="-0.95571">
        <ele>4.6</ele>
        <time>2022-06-21T11:47:17Z</time>
      </trkpt>
      <trkpt lat="45.94278" lon="-0.95572">
        <ele>4.6</ele>
        <time>2022-06-21T11:47:19Z</time>
      </trkpt>
      <trkpt lat="45.94279" lon="-0.95573">
        <ele>4.6</ele>
        <time>2022-06-21T11:47:20Z</time>
      </trkpt>
      <trkpt lat="45.94279" lon="-0.95575">
        <ele>4.6</ele>
        <time>2022-06-21T11:47:21Z</time>
      </trkpt>
      <trkpt lat="45.94281" lon="-0.95577">
        <ele>4.6</ele>
        <time>2022-06-21T11:47:22Z</time>
      </trkpt>
      <trkpt lat="45.94282" lon="-0.95577">
        <ele>4.6</ele>
        <time>2022-06-21T11:47:23Z</time>
      </trkpt>
      <trkpt lat="45.94282" lon="-0.95578">
        <ele>4.6</ele>
        <time>2022-06-21T11:47:24Z</time>
      </trkpt>
      <trkpt lat="45.94283" lon="-0.9558">
        <ele>4.6</ele>
        <time>2022-06-21T11:47:26Z</time>
      </trkpt>
      <trkpt lat="45.94284" lon="-0.95582">
        <ele>4.6</ele>
        <time>2022-06-21T11:47:27Z</time>
      </trkpt>
      <trkpt lat="45.94285" lon="-0.95583">
        <ele>4.6</ele>
        <time>2022-06-21T11:47:29Z</time>
      </trkpt>
      <trkpt lat="45.94285" lon="-0.95584">
        <ele>4.5</ele>
        <time>2022-06-21T11:47:30Z</time>
      </trkpt>
      <trkpt lat="45.94286" lon="-0.95585">
        <ele>4.5</ele>
        <time>2022-06-21T11:47:31Z</time>
      </trkpt>
      <trkpt lat="45.94287" lon="-0.95586">
        <ele>4.5</ele>
        <time>2022-06-21T11:47:32Z</time>
      </trkpt>
      <trkpt lat="45.94288" lon="-0.95588">
        <ele>4.5</ele>
        <time>2022-06-21T11:47:33Z</time>
      </trkpt>
      <trkpt lat="45.94288" lon="-0.95588">
        <ele>4.5</ele>
        <time>2022-06-21T11:47:34Z</time>
      </trkpt>
      <trkpt lat="45.94289" lon="-0.95588">
        <ele>4.5</ele>
        <time>2022-06-21T11:47:35Z</time>
      </trkpt>
      <trkpt lat="45.94291" lon="-0.95589">
        <ele>4.5</ele>
        <time>2022-06-21T11:47:37Z</time>
      </trkpt>
      <trkpt lat="45.94291" lon="-0.95589">
        <ele>4.5</ele>
        <time>2022-06-21T11:47:38Z</time>
      </trkpt>
      <trkpt lat="45.94293" lon="-0.95591">
        <ele>4.5</ele>
        <time>2022-06-21T11:47:39Z</time>
      </trkpt>
      <trkpt lat="45.94293" lon="-0.95592">
        <ele>4.5</ele>
        <time>2022-06-21T11:47:40Z</time>
      </trkpt>
      <trkpt lat="45.94294" lon="-0.95593">
        <ele>4.5</ele>
        <time>2022-06-21T11:47:41Z</time>
      </trkpt>
      <trkpt lat="45.94295" lon="-0.95595">
        <ele>4.5</ele>
        <time>2022-06-21T11:47:42Z</time>
      </trkpt>
      <trkpt lat="45.94296" lon="-0.95596">
        <ele>4.5</ele>
        <time>2022-06-21T11:47:43Z</time>
      </trkpt>
      <trkpt lat="45.94297" lon="-0.95599">
        <ele>4.5</ele>
        <time>2022-06-21T11:47:44Z</time>
      </trkpt>
      <trkpt lat="45.94298" lon="-0.95599">
        <ele>4.5</ele>
        <time>2022-06-21T11:47:46Z</time>
      </trkpt>
      <trkpt lat="45.94298" lon="-0.956">
        <ele>4.5</ele>
        <time>2022-06-21T11:47:47Z</time>
      </trkpt>
      <trkpt lat="45.943" lon="-0.95601">
        <ele>4.5</ele>
        <time>2022-06-21T11:47:48Z</time>
      </trkpt>
      <trkpt lat="45.94302" lon="-0.95604">
        <ele>4.5</ele>
        <time>2022-06-21T11:47:50Z</time>
      </trkpt>
      <trkpt lat="45.94303" lon="-0.95605">
        <ele>4.5</ele>
        <time>2022-06-21T11:47:51Z</time>
      </trkpt>
      <trkpt lat="45.94304" lon="-0.95606">
        <ele>4.5</ele>
        <time>2022-06-21T11:47:52Z</time>
      </trkpt>
      <trkpt lat="45.94305" lon="-0.95608">
        <ele>4.5</ele>
        <time>2022-06-21T11:47:53Z</time>
      </trkpt>
      <trkpt lat="45.94306" lon="-0.95609">
        <ele>4.5</ele>
        <time>2022-06-21T11:47:54Z</time>
      </trkpt>
      <trkpt lat="45.94308" lon="-0.95613">
        <ele>4.5</ele>
        <time>2022-06-21T11:47:57Z</time>
      </trkpt>
      <trkpt lat="45.94309" lon="-0.95614">
        <ele>4.5</ele>
        <time>2022-06-21T11:47:58Z</time>
      </trkpt>
      <trkpt lat="45.9431" lon="-0.95615">
        <ele>4.5</ele>
        <time>2022-06-21T11:47:59Z</time>
      </trkpt>
      <trkpt lat="45.94311" lon="-0.95616">
        <ele>4.5</ele>
        <time>2022-06-21T11:48:00Z</time>
      </trkpt>
      <trkpt lat="45.94311" lon="-0.95617">
        <ele>4.5</ele>
        <time>2022-06-21T11:48:01Z</time>
      </trkpt>
      <trkpt lat="45.94313" lon="-0.95619">
        <ele>4.5</ele>
        <time>2022-06-21T11:48:03Z</time>
      </trkpt>
      <trkpt lat="45.94313" lon="-0.9562">
        <ele>4.5</ele>
        <time>2022-06-21T11:48:04Z</time>
      </trkpt>
      <trkpt lat="45.94314" lon="-0.95621">
        <ele>4.5</ele>
        <time>2022-06-21T11:48:05Z</time>
      </trkpt>
      <trkpt lat="45.94315" lon="-0.95622">
        <ele>4.5</ele>
        <time>2022-06-21T11:48:06Z</time>
      </trkpt>
      <trkpt lat="45.94316" lon="-0.95623">
        <ele>4.5</ele>
        <time>2022-06-21T11:48:07Z</time>
      </trkpt>
      <trkpt lat="45.94317" lon="-0.95624">
        <ele>4.5</ele>
        <time>2022-06-21T11:48:09Z</time>
      </trkpt>
      <trkpt lat="45.94317" lon="-0.95625">
        <ele>4.5</ele>
        <time>2022-06-21T11:48:10Z</time>
      </trkpt>
      <trkpt lat="45.94318" lon="-0.95626">
        <ele>4.5</ele>
        <time>2022-06-21T11:48:11Z</time>
      </trkpt>
      <trkpt lat="45.94319" lon="-0.95628">
        <ele>4.5</ele>
        <time>2022-06-21T11:48:12Z</time>
      </trkpt>
      <trkpt lat="45.9432" lon="-0.95629">
        <ele>4.5</ele>
        <time>2022-06-21T11:48:13Z</time>
      </trkpt>
      <trkpt lat="45.94321" lon="-0.95631">
        <ele>4.5</ele>
        <time>2022-06-21T11:48:15Z</time>
      </trkpt>
      <trkpt lat="45.94322" lon="-0.95632">
        <ele>4.5</ele>
        <time>2022-06-21T11:48:16Z</time>
      </trkpt>
      <trkpt lat="45.94323" lon="-0.95633">
        <ele>4.5</ele>
        <time>2022-06-21T11:48:17Z</time>
      </trkpt>
      <trkpt lat="45.94323" lon="-0.95634">
        <ele>4.5</ele>
        <time>2022-06-21T11:48:18Z</time>
      </trkpt>
      <trkpt lat="45.94324" lon="-0.95635">
        <ele>4.5</ele>
        <time>2022-06-21T11:48:19Z</time>
      </trkpt>
      <trkpt lat="45.94325" lon="-0.95636">
        <ele>4.5</ele>
        <time>2022-06-21T11:48:20Z</time>
      </trkpt>
      <trkpt lat="45.94326" lon="-0.95637">
        <ele>4.5</ele>
        <time>2022-06-21T11:48:22Z</time>
      </trkpt>
      <trkpt lat="45.94328" lon="-0.95638">
        <ele>4.5</ele>
        <time>2022-06-21T11:48:23Z</time>
      </trkpt>
      <trkpt lat="45.94329" lon="-0.95638">
        <ele>4.5</ele>
        <time>2022-06-21T11:48:24Z</time>
      </trkpt>
      <trkpt lat="45.94329" lon="-0.95638">
        <ele>4.5</ele>
        <time>2022-06-21T11:48:25Z</time>
      </trkpt>
      <trkpt lat="45.9433" lon="-0.95638">
        <ele>4.5</ele>
        <time>2022-06-21T11:48:26Z</time>
      </trkpt>
      <trkpt lat="45.94331" lon="-0.95638">
        <ele>4.5</ele>
        <time>2022-06-21T11:48:27Z</time>
      </trkpt>
      <trkpt lat="45.94331" lon="-0.95638">
        <ele>4.5</ele>
        <time>2022-06-21T11:48:28Z</time>
      </trkpt>
      <trkpt lat="45.94331" lon="-0.95638">
        <ele>4.5</ele>
        <time>2022-06-21T11:48:29Z</time>
      </trkpt>
      <trkpt lat="45.94332" lon="-0.95639">
        <ele>4.5</ele>
        <time>2022-06-21T11:48:30Z</time>
      </trkpt>
      <trkpt lat="45.94333" lon="-0.95641">
        <ele>4.5</ele>
        <time>2022-06-21T11:48:31Z</time>
      </trkpt>
      <trkpt lat="45.94333" lon="-0.95642">
        <ele>4.5</ele>
        <time>2022-06-21T11:48:32Z</time>
      </trkpt>
      <trkpt lat="45.94333" lon="-0.95644">
        <ele>4.5</ele>
        <time>2022-06-21T11:48:34Z</time>
      </trkpt>
      <trkpt lat="45.94334" lon="-0.95645">
        <ele>4.5</ele>
        <time>2022-06-21T11:48:35Z</time>
      </trkpt>
      <trkpt lat="45.94334" lon="-0.95647">
        <ele>4.5</ele>
        <time>2022-06-21T11:48:36Z</time>
      </trkpt>
      <trkpt lat="45.94334" lon="-0.95649">
        <ele>4.5</ele>
        <time>2022-06-21T11:48:38Z</time>
      </trkpt>
      <trkpt lat="45.94335" lon="-0.9565">
        <ele>4.5</ele>
        <time>2022-06-21T11:48:39Z</time>
      </trkpt>
      <trkpt lat="45.94335" lon="-0.95652">
        <ele>4.5</ele>
        <time>2022-06-21T11:48:40Z</time>
      </trkpt>
      <trkpt lat="45.94336" lon="-0.95653">
        <ele>4.5</ele>
        <time>2022-06-21T11:48:41Z</time>
      </trkpt>
      <trkpt lat="45.94337" lon="-0.95655">
        <ele>4.5</ele>
        <time>2022-06-21T11:48:42Z</time>
      </trkpt>
      <trkpt lat="45.94337" lon="-0.95656">
        <ele>4.5</ele>
        <time>2022-06-21T11:48:43Z</time>
      </trkpt>
      <trkpt lat="45.94339" lon="-0.95659">
        <ele>4.5</ele>
        <time>2022-06-21T11:48:44Z</time>
      </trkpt>
      <trkpt lat="45.94339" lon="-0.9566">
        <ele>4.5</ele>
        <time>2022-06-21T11:48:46Z</time>
      </trkpt>
      <trkpt lat="45.9434" lon="-0.95661">
        <ele>4.5</ele>
        <time>2022-06-21T11:48:47Z</time>
      </trkpt>
      <trkpt lat="45.94341" lon="-0.95662">
        <ele>4.5</ele>
        <time>2022-06-21T11:48:48Z</time>
      </trkpt>
      <trkpt lat="45.94342" lon="-0.95662">
        <ele>4.5</ele>
        <time>2022-06-21T11:48:50Z</time>
      </trkpt>
      <trkpt lat="45.94344" lon="-0.95664">
        <ele>4.5</ele>
        <time>2022-06-21T11:48:52Z</time>
      </trkpt>
      <trkpt lat="45.94346" lon="-0.95664">
        <ele>4.5</ele>
        <time>2022-06-21T11:48:53Z</time>
      </trkpt>
      <trkpt lat="45.94347" lon="-0.95664">
        <ele>4.5</ele>
        <time>2022-06-21T11:48:54Z</time>
      </trkpt>
      <trkpt lat="45.94348" lon="-0.95663">
        <ele>4.5</ele>
        <time>2022-06-21T11:48:55Z</time>
      </trkpt>
      <trkpt lat="45.94349" lon="-0.95663">
        <ele>4.5</ele>
        <time>2022-06-21T11:48:56Z</time>
      </trkpt>
      <trkpt lat="45.9435" lon="-0.95662">
        <ele>4.5</ele>
        <time>2022-06-21T11:48:57Z</time>
      </trkpt>
      <trkpt lat="45.94351" lon="-0.95661">
        <ele>4.5</ele>
        <time>2022-06-21T11:48:58Z</time>
      </trkpt>
      <trkpt lat="45.94351" lon="-0.95662">
        <ele>4.5</ele>
        <time>2022-06-21T11:49:00Z</time>
      </trkpt>
      <trkpt lat="45.94351" lon="-0.95662">
        <ele>4.5</ele>
        <time>2022-06-21T11:49:01Z</time>
      </trkpt>
      <trkpt lat="45.94351" lon="-0.95663">
        <ele>4.5</ele>
        <time>2022-06-21T11:49:02Z</time>
      </trkpt>
      <trkpt lat="45.94351" lon="-0.95663">
        <ele>4.5</ele>
        <time>2022-06-21T11:49:03Z</time>
      </trkpt>
      <trkpt lat="45.9435" lon="-0.95664">
        <ele>4.5</ele>
        <time>2022-06-21T11:49:04Z</time>
      </trkpt>
      <trkpt lat="45.9435" lon="-0.95664">
        <ele>4.5</ele>
        <time>2022-06-21T11:49:05Z</time>
      </trkpt>
      <trkpt lat="45.9435" lon="-0.95664">
        <ele>4.5</ele>
        <time>2022-06-21T11:49:06Z</time>
      </trkpt>
      <trkpt lat="45.9435" lon="-0.95664">
        <ele>4.5</ele>
        <time>2022-06-21T11:49:07Z</time>
      </trkpt>
      <trkpt lat="45.9435" lon="-0.95664">
        <ele>4.5</ele>
        <time>2022-06-21T11:49:08Z</time>
      </trkpt>
      <trkpt lat="45.9435" lon="-0.95664">
        <ele>4.5</ele>
        <time>2022-06-21T11:49:09Z</time>
      </trkpt>
      <trkpt lat="45.9435" lon="-0.95664">
        <ele>4.5</ele>
        <time>2022-06-21T11:49:10Z</time>
      </trkpt>
      <trkpt lat="45.9435" lon="-0.95664">
        <ele>4.5</ele>
        <time>2022-06-21T11:49:11Z</time>
      </trkpt>
      <trkpt lat="45.9435" lon="-0.95664">
        <ele>4.5</ele>
        <time>2022-06-21T11:49:12Z</time>
      </trkpt>
      <trkpt lat="45.9435" lon="-0.95664">
        <ele>4.5</ele>
        <time>2022-06-21T11:49:13Z</time>
      </trkpt>
      <trkpt lat="45.9435" lon="-0.95663">
        <ele>4.5</ele>
        <time>2022-06-21T11:49:14Z</time>
      </trkpt>
      <trkpt lat="45.9435" lon="-0.95663">
        <ele>4.5</ele>
        <time>2022-06-21T11:49:15Z</time>
      </trkpt>
      <trkpt lat="45.9435" lon="-0.95663">
        <ele>4.5</ele>
        <time>2022-06-21T11:49:16Z</time>
      </trkpt>
      <trkpt lat="45.9435" lon="-0.95663">
        <ele>4.5</ele>
        <time>2022-06-21T11:49:17Z</time>
      </trkpt>
      <trkpt lat="45.9435" lon="-0.95663">
        <ele>4.5</ele>
        <time>2022-06-21T11:49:18Z</time>
      </trkpt>
      <trkpt lat="45.9435" lon="-0.95663">
        <ele>4.5</ele>
        <time>2022-06-21T11:49:19Z</time>
      </trkpt>
      <trkpt lat="45.9435" lon="-0.95663">
        <ele>4.5</ele>
        <time>2022-06-21T11:49:20Z</time>
      </trkpt>
      <trkpt lat="45.9435" lon="-0.95663">
        <ele>4.5</ele>
        <time>2022-06-21T11:49:21Z</time>
      </trkpt>
      <trkpt lat="45.94349" lon="-0.95663">
        <ele>4.5</ele>
        <time>2022-06-21T11:49:22Z</time>
      </trkpt>
      <trkpt lat="45.94349" lon="-0.95663">
        <ele>4.5</ele>
        <time>2022-06-21T11:49:23Z</time>
      </trkpt>
      <trkpt lat="45.94349" lon="-0.95663">
        <ele>4.5</ele>
        <time>2022-06-21T11:49:24Z</time>
      </trkpt>
      <trkpt lat="45.94349" lon="-0.95663">
        <ele>4.5</ele>
        <time>2022-06-21T11:49:25Z</time>
      </trkpt>
      <trkpt lat="45.94349" lon="-0.95663">
        <ele>4.5</ele>
        <time>2022-06-21T11:49:26Z</time>
      </trkpt>
      <trkpt lat="45.94349" lon="-0.95663">
        <ele>4.5</ele>
        <time>2022-06-21T11:49:27Z</time>
      </trkpt>
      <trkpt lat="45.94349" lon="-0.95663">
        <ele>4.5</ele>
        <time>2022-06-21T11:49:28Z</time>
      </trkpt>
      <trkpt lat="45.94349" lon="-0.95663">
        <ele>4.5</ele>
        <time>2022-06-21T11:49:29Z</time>
      </trkpt>
      <trkpt lat="45.94349" lon="-0.95663">
        <ele>4.5</ele>
        <time>2022-06-21T11:49:30Z</time>
      </trkpt>
      <trkpt lat="45.94349" lon="-0.95663">
        <ele>4.5</ele>
        <time>2022-06-21T11:49:31Z</time>
      </trkpt>
      <trkpt lat="45.94349" lon="-0.95663">
        <ele>4.5</ele>
        <time>2022-06-21T11:49:32Z</time>
      </trkpt>
      <trkpt lat="45.94349" lon="-0.95662">
        <ele>4.5</ele>
        <time>2022-06-21T11:49:33Z</time>
      </trkpt>
      <trkpt lat="45.94349" lon="-0.95662">
        <ele>4.5</ele>
        <time>2022-06-21T11:49:34Z</time>
      </trkpt>
      <trkpt lat="45.94349" lon="-0.95662">
        <ele>4.5</ele>
        <time>2022-06-21T11:49:35Z</time>
      </trkpt>
      <trkpt lat="45.94349" lon="-0.95662">
        <ele>4.5</ele>
        <time>2022-06-21T11:49:36Z</time>
      </trkpt>
      <trkpt lat="45.94349" lon="-0.95662">
        <ele>4.5</ele>
        <time>2022-06-21T11:49:37Z</time>
      </trkpt>
      <trkpt lat="45.94349" lon="-0.95662">
        <ele>4.5</ele>
        <time>2022-06-21T11:49:38Z</time>
      </trkpt>
      <trkpt lat="45.94349" lon="-0.95662">
        <ele>4.5</ele>
        <time>2022-06-21T11:49:39Z</time>
      </trkpt>
      <trkpt lat="45.94349" lon="-0.95662">
        <ele>4.5</ele>
        <time>2022-06-21T11:49:40Z</time>
      </trkpt>
      <trkpt lat="45.94349" lon="-0.95662">
        <ele>4.5</ele>
        <time>2022-06-21T11:49:41Z</time>
      </trkpt>
      <trkpt lat="45.94349" lon="-0.95662">
        <ele>4.5</ele>
        <time>2022-06-21T11:49:42Z</time>
      </trkpt>
      <trkpt lat="45.94349" lon="-0.95662">
        <ele>4.5</ele>
        <time>2022-06-21T11:49:43Z</time>
      </trkpt>
      <trkpt lat="45.94349" lon="-0.95662">
        <ele>4.5</ele>
        <time>2022-06-21T11:49:44Z</time>
      </trkpt>
      <trkpt lat="45.94349" lon="-0.95662">
        <ele>4.5</ele>
        <time>2022-06-21T11:49:45Z</time>
      </trkpt>
      <trkpt lat="45.94349" lon="-0.95662">
        <ele>4.5</ele>
        <time>2022-06-21T11:49:46Z</time>
      </trkpt>
      <trkpt lat="45.94349" lon="-0.95662">
        <ele>4.5</ele>
        <time>2022-06-21T11:49:47Z</time>
      </trkpt>
      <trkpt lat="45.94349" lon="-0.95662">
        <ele>4.5</ele>
        <time>2022-06-21T11:49:48Z</time>
      </trkpt>
      <trkpt lat="45.94349" lon="-0.95662">
        <ele>4.5</ele>
        <time>2022-06-21T11:49:49Z</time>
      </trkpt>
      <trkpt lat="45.94348" lon="-0.95662">
        <ele>4.5</ele>
        <time>2022-06-21T11:49:50Z</time>
      </trkpt>
      <trkpt lat="45.94348" lon="-0.95661">
        <ele>4.5</ele>
        <time>2022-06-21T11:49:51Z</time>
      </trkpt>
      <trkpt lat="45.94348" lon="-0.95661">
        <ele>4.5</ele>
        <time>2022-06-21T11:49:52Z</time>
      </trkpt>
      <trkpt lat="45.94348" lon="-0.95661">
        <ele>4.5</ele>
        <time>2022-06-21T11:49:53Z</time>
      </trkpt>
      <trkpt lat="45.94348" lon="-0.95661">
        <ele>4.5</ele>
        <time>2022-06-21T11:49:54Z</time>
      </trkpt>
      <trkpt lat="45.94348" lon="-0.95661">
        <ele>4.5</ele>
        <time>2022-06-21T11:49:55Z</time>
      </trkpt>
      <trkpt lat="45.94348" lon="-0.95661">
        <ele>4.5</ele>
        <time>2022-06-21T11:49:56Z</time>
      </trkpt>
      <trkpt lat="45.94348" lon="-0.95661">
        <ele>4.5</ele>
        <time>2022-06-21T11:49:57Z</time>
      </trkpt>
      <trkpt lat="45.94348" lon="-0.95661">
        <ele>4.5</ele>
        <time>2022-06-21T11:49:58Z</time>
      </trkpt>
      <trkpt lat="45.94348" lon="-0.95661">
        <ele>4.5</ele>
        <time>2022-06-21T11:49:59Z</time>
      </trkpt>
      <trkpt lat="45.94348" lon="-0.95661">
        <ele>4.5</ele>
        <time>2022-06-21T11:50:00Z</time>
      </trkpt>
      <trkpt lat="45.94348" lon="-0.95661">
        <ele>4.5</ele>
        <time>2022-06-21T11:50:01Z</time>
      </trkpt>
      <trkpt lat="45.94348" lon="-0.95661">
        <ele>4.5</ele>
        <time>2022-06-21T11:50:02Z</time>
      </trkpt>
      <trkpt lat="45.94348" lon="-0.95661">
        <ele>4.5</ele>
        <time>2022-06-21T11:50:03Z</time>
      </trkpt>
      <trkpt lat="45.94348" lon="-0.95661">
        <ele>4.5</ele>
        <time>2022-06-21T11:50:04Z</time>
      </trkpt>
      <trkpt lat="45.94348" lon="-0.95661">
        <ele>4.5</ele>
        <time>2022-06-21T11:50:05Z</time>
      </trkpt>
      <trkpt lat="45.94348" lon="-0.95661">
        <ele>4.5</ele>
        <time>2022-06-21T11:50:06Z</time>
      </trkpt>
      <trkpt lat="45.94348" lon="-0.95661">
        <ele>4.5</ele>
        <time>2022-06-21T11:50:07Z</time>
      </trkpt>
      <trkpt lat="45.94348" lon="-0.95661">
        <ele>4.5</ele>
        <time>2022-06-21T11:50:08Z</time>
      </trkpt>
      <trkpt lat="45.94348" lon="-0.95661">
        <ele>4.5</ele>
        <time>2022-06-21T11:50:09Z</time>
      </trkpt>
      <trkpt lat="45.94348" lon="-0.9566">
        <ele>4.5</ele>
        <time>2022-06-21T11:50:10Z</time>
      </trkpt>
      <trkpt lat="45.94348" lon="-0.9566">
        <ele>4.5</ele>
        <time>2022-06-21T11:50:11Z</time>
      </trkpt>
      <trkpt lat="45.94348" lon="-0.9566">
        <ele>4.5</ele>
        <time>2022-06-21T11:50:12Z</time>
      </trkpt>
      <trkpt lat="45.94348" lon="-0.9566">
        <ele>4.5</ele>
        <time>2022-06-21T11:50:13Z</time>
      </trkpt>
      <trkpt lat="45.94348" lon="-0.9566">
        <ele>4.5</ele>
        <time>2022-06-21T11:50:14Z</time>
      </trkpt>
      <trkpt lat="45.94348" lon="-0.9566">
        <ele>4.5</ele>
        <time>2022-06-21T11:50:15Z</time>
      </trkpt>
      <trkpt lat="45.94348" lon="-0.9566">
        <ele>4.5</ele>
        <time>2022-06-21T11:50:16Z</time>
      </trkpt>
      <trkpt lat="45.94348" lon="-0.9566">
        <ele>4.5</ele>
        <time>2022-06-21T11:50:17Z</time>
      </trkpt>
      <trkpt lat="45.94347" lon="-0.9566">
        <ele>4.5</ele>
        <time>2022-06-21T11:50:18Z</time>
      </trkpt>
      <trkpt lat="45.94347" lon="-0.9566">
        <ele>4.5</ele>
        <time>2022-06-21T11:50:19Z</time>
      </trkpt>
      <trkpt lat="45.94347" lon="-0.9566">
        <ele>4.5</ele>
        <time>2022-06-21T11:50:20Z</time>
      </trkpt>
      <trkpt lat="45.94347" lon="-0.9566">
        <ele>4.5</ele>
        <time>2022-06-21T11:50:21Z</time>
      </trkpt>
      <trkpt lat="45.94347" lon="-0.9566">
        <ele>4.5</ele>
        <time>2022-06-21T11:50:22Z</time>
      </trkpt>
      <trkpt lat="45.94347" lon="-0.9566">
        <ele>4.5</ele>
        <time>2022-06-21T11:50:23Z</time>
      </trkpt>
      <trkpt lat="45.94347" lon="-0.9566">
        <ele>4.5</ele>
        <time>2022-06-21T11:50:24Z</time>
      </trkpt>
      <trkpt lat="45.94347" lon="-0.9566">
        <ele>4.5</ele>
        <time>2022-06-21T11:50:25Z</time>
      </trkpt>
      <trkpt lat="45.94347" lon="-0.9566">
        <ele>4.5</ele>
        <time>2022-06-21T11:50:26Z</time>
      </trkpt>
      <trkpt lat="45.94347" lon="-0.9566">
        <ele>4.5</ele>
        <time>2022-06-21T11:50:27Z</time>
      </trkpt>
      <trkpt lat="45.94347" lon="-0.95659">
        <ele>4.5</ele>
        <time>2022-06-21T11:50:28Z</time>
      </trkpt>
      <trkpt lat="45.94347" lon="-0.95659">
        <ele>4.5</ele>
        <time>2022-06-21T11:50:29Z</time>
      </trkpt>
      <trkpt lat="45.94347" lon="-0.95659">
        <ele>4.5</ele>
        <time>2022-06-21T11:50:30Z</time>
      </trkpt>
      <trkpt lat="45.94347" lon="-0.95659">
        <ele>4.5</ele>
        <time>2022-06-21T11:50:31Z</time>
      </trkpt>
      <trkpt lat="45.94347" lon="-0.95659">
        <ele>4.5</ele>
        <time>2022-06-21T11:50:32Z</time>
      </trkpt>
      <trkpt lat="45.94347" lon="-0.95659">
        <ele>4.5</ele>
        <time>2022-06-21T11:50:33Z</time>
      </trkpt>
      <trkpt lat="45.94346" lon="-0.95657">
        <ele>4.5</ele>
        <time>2022-06-21T11:50:34Z</time>
      </trkpt>
      <trkpt lat="45.94345" lon="-0.95656">
        <ele>4.5</ele>
        <time>2022-06-21T11:50:35Z</time>
      </trkpt>
      <trkpt lat="45.94345" lon="-0.95655">
        <ele>4.5</ele>
        <time>2022-06-21T11:50:36Z</time>
      </trkpt>
      <trkpt lat="45.94345" lon="-0.95655">
        <ele>4.5</ele>
        <time>2022-06-21T11:50:37Z</time>
      </trkpt>
      <trkpt lat="45.94345" lon="-0.95655">
        <ele>4.5</ele>
        <time>2022-06-21T11:50:38Z</time>
      </trkpt>
      <trkpt lat="45.94345" lon="-0.95655">
        <ele>4.5</ele>
        <time>2022-06-21T11:50:39Z</time>
      </trkpt>
      <trkpt lat="45.94345" lon="-0.95655">
        <ele>4.5</ele>
        <time>2022-06-21T11:50:40Z</time>
      </trkpt>
      <trkpt lat="45.94345" lon="-0.95655">
        <ele>4.5</ele>
        <time>2022-06-21T11:50:41Z</time>
      </trkpt>
      <trkpt lat="45.94345" lon="-0.95655">
        <ele>4.5</ele>
        <time>2022-06-21T11:50:42Z</time>
      </trkpt>
      <trkpt lat="45.94345" lon="-0.95655">
        <ele>4.5</ele>
        <time>2022-06-21T11:50:43Z</time>
      </trkpt>
      <trkpt lat="45.94345" lon="-0.95655">
        <ele>4.5</ele>
        <time>2022-06-21T11:50:44Z</time>
      </trkpt>
      <trkpt lat="45.94345" lon="-0.95655">
        <ele>4.5</ele>
        <time>2022-06-21T11:50:45Z</time>
      </trkpt>
      <trkpt lat="45.94345" lon="-0.95655">
        <ele>4.5</ele>
        <time>2022-06-21T11:50:46Z</time>
      </trkpt>
      <trkpt lat="45.94345" lon="-0.95655">
        <ele>4.5</ele>
        <time>2022-06-21T11:50:47Z</time>
      </trkpt>
      <trkpt lat="45.94345" lon="-0.95655">
        <ele>4.5</ele>
        <time>2022-06-21T11:50:48Z</time>
      </trkpt>
      <trkpt lat="45.94345" lon="-0.95655">
        <ele>4.5</ele>
        <time>2022-06-21T11:50:49Z</time>
      </trkpt>
      <trkpt lat="45.94345" lon="-0.95655">
        <ele>4.5</ele>
        <time>2022-06-21T11:50:50Z</time>
      </trkpt>
      <trkpt lat="45.94345" lon="-0.95655">
        <ele>4.5</ele>
        <time>2022-06-21T11:50:51Z</time>
      </trkpt>
      <trkpt lat="45.94345" lon="-0.95655">
        <ele>4.5</ele>
        <time>2022-06-21T11:50:52Z</time>
      </trkpt>
      <trkpt lat="45.94345" lon="-0.95655">
        <ele>4.5</ele>
        <time>2022-06-21T11:50:53Z</time>
      </trkpt>
      <trkpt lat="45.94345" lon="-0.95655">
        <ele>4.5</ele>
        <time>2022-06-21T11:50:54Z</time>
      </trkpt>
      <trkpt lat="45.94345" lon="-0.95655">
        <ele>4.5</ele>
        <time>2022-06-21T11:50:55Z</time>
      </trkpt>
      <trkpt lat="45.94345" lon="-0.95655">
        <ele>4.5</ele>
        <time>2022-06-21T11:50:56Z</time>
      </trkpt>
      <trkpt lat="45.94345" lon="-0.95655">
        <ele>4.5</ele>
        <time>2022-06-21T11:50:57Z</time>
      </trkpt>
      <trkpt lat="45.94345" lon="-0.95655">
        <ele>4.5</ele>
        <time>2022-06-21T11:50:58Z</time>
      </trkpt>
      <trkpt lat="45.94345" lon="-0.95655">
        <ele>4.5</ele>
        <time>2022-06-21T11:50:59Z</time>
      </trkpt>
      <trkpt lat="45.94345" lon="-0.95655">
        <ele>4.5</ele>
        <time>2022-06-21T11:51:00Z</time>
      </trkpt>
      <trkpt lat="45.94345" lon="-0.95655">
        <ele>4.5</ele>
        <time>2022-06-21T11:51:01Z</time>
      </trkpt>
      <trkpt lat="45.94345" lon="-0.95655">
        <ele>4.5</ele>
        <time>2022-06-21T11:51:02Z</time>
      </trkpt>
      <trkpt lat="45.94345" lon="-0.95655">
        <ele>4.5</ele>
        <time>2022-06-21T11:51:03Z</time>
      </trkpt>
      <trkpt lat="45.94345" lon="-0.95655">
        <ele>4.5</ele>
        <time>2022-06-21T11:51:04Z</time>
      </trkpt>
      <trkpt lat="45.94345" lon="-0.95655">
        <ele>4.5</ele>
        <time>2022-06-21T11:51:05Z</time>
      </trkpt>
      <trkpt lat="45.94345" lon="-0.95655">
        <ele>4.5</ele>
        <time>2022-06-21T11:51:06Z</time>
      </trkpt>
      <trkpt lat="45.94345" lon="-0.95655">
        <ele>4.5</ele>
        <time>2022-06-21T11:51:07Z</time>
      </trkpt>
      <trkpt lat="45.94345" lon="-0.95655">
        <ele>4.5</ele>
        <time>2022-06-21T11:51:08Z</time>
      </trkpt>
      <trkpt lat="45.94345" lon="-0.95655">
        <ele>4.5</ele>
        <time>2022-06-21T11:51:09Z</time>
      </trkpt>
      <trkpt lat="45.94345" lon="-0.95655">
        <ele>4.5</ele>
        <time>2022-06-21T11:51:10Z</time>
      </trkpt>
      <trkpt lat="45.94345" lon="-0.95655">
        <ele>4.5</ele>
        <time>2022-06-21T11:51:11Z</time>
      </trkpt>
      <trkpt lat="45.94345" lon="-0.95655">
        <ele>4.5</ele>
        <time>2022-06-21T11:51:12Z</time>
      </trkpt>
      <trkpt lat="45.94345" lon="-0.95655">
        <ele>4.5</ele>
        <time>2022-06-21T11:51:13Z</time>
      </trkpt>
      <trkpt lat="45.94345" lon="-0.95655">
        <ele>4.5</ele>
        <time>2022-06-21T11:51:14Z</time>
      </trkpt>
      <trkpt lat="45.94345" lon="-0.95655">
        <ele>4.5</ele>
        <time>2022-06-21T11:51:15Z</time>
      </trkpt>
      <trkpt lat="45.94345" lon="-0.95655">
        <ele>4.5</ele>
        <time>2022-06-21T11:51:16Z</time>
      </trkpt>
      <trkpt lat="45.94345" lon="-0.95655">
        <ele>4.5</ele>
        <time>2022-06-21T11:51:17Z</time>
      </trkpt>
      <trkpt lat="45.94345" lon="-0.95655">
        <ele>4.5</ele>
        <time>2022-06-21T11:51:18Z</time>
      </trkpt>
      <trkpt lat="45.94345" lon="-0.95655">
        <ele>4.5</ele>
        <time>2022-06-21T11:51:19Z</time>
      </trkpt>
      <trkpt lat="45.94345" lon="-0.95655">
        <ele>4.5</ele>
        <time>2022-06-21T11:51:20Z</time>
      </trkpt>
      <trkpt lat="45.94345" lon="-0.95655">
        <ele>4.5</ele>
        <time>2022-06-21T11:51:21Z</time>
      </trkpt>
      <trkpt lat="45.94345" lon="-0.95655">
        <ele>4.5</ele>
        <time>2022-06-21T11:51:22Z</time>
      </trkpt>
      <trkpt lat="45.94345" lon="-0.95655">
        <ele>4.5</ele>
        <time>2022-06-21T11:51:23Z</time>
      </trkpt>
      <trkpt lat="45.94345" lon="-0.95655">
        <ele>4.5</ele>
        <time>2022-06-21T11:51:24Z</time>
      </trkpt>
      <trkpt lat="45.94345" lon="-0.95655">
        <ele>4.5</ele>
        <time>2022-06-21T11:51:25Z</time>
      </trkpt>
      <trkpt lat="45.94345" lon="-0.95655">
        <ele>4.5</ele>
        <time>2022-06-21T11:51:26Z</time>
      </trkpt>
      <trkpt lat="45.94345" lon="-0.95655">
        <ele>4.5</ele>
        <time>2022-06-21T11:51:27Z</time>
      </trkpt>
      <trkpt lat="45.94345" lon="-0.95655">
        <ele>4.5</ele>
        <time>2022-06-21T11:51:28Z</time>
      </trkpt>
      <trkpt lat="45.94345" lon="-0.95655">
        <ele>4.5</ele>
        <time>2022-06-21T11:51:29Z</time>
      </trkpt>
      <trkpt lat="45.94345" lon="-0.95655">
        <ele>4.5</ele>
        <time>2022-06-21T11:51:30Z</time>
      </trkpt>
      <trkpt lat="45.94345" lon="-0.95655">
        <ele>4.5</ele>
        <time>2022-06-21T11:51:31Z</time>
      </trkpt>
      <trkpt lat="45.94345" lon="-0.95655">
        <ele>4.5</ele>
        <time>2022-06-21T11:51:32Z</time>
      </trkpt>
      <trkpt lat="45.94345" lon="-0.95655">
        <ele>4.5</ele>
        <time>2022-06-21T11:51:33Z</time>
      </trkpt>
      <trkpt lat="45.94345" lon="-0.95655">
        <ele>4.5</ele>
        <time>2022-06-21T11:51:34Z</time>
      </trkpt>
      <trkpt lat="45.94345" lon="-0.95655">
        <ele>4.5</ele>
        <time>2022-06-21T11:51:35Z</time>
      </trkpt>
      <trkpt lat="45.94345" lon="-0.95655">
        <ele>4.5</ele>
        <time>2022-06-21T11:51:36Z</time>
      </trkpt>
      <trkpt lat="45.94345" lon="-0.95655">
        <ele>4.5</ele>
        <time>2022-06-21T11:51:37Z</time>
      </trkpt>
      <trkpt lat="45.94345" lon="-0.95655">
        <ele>4.5</ele>
        <time>2022-06-21T11:51:38Z</time>
      </trkpt>
      <trkpt lat="45.94345" lon="-0.95655">
        <ele>4.5</ele>
        <time>2022-06-21T11:51:39Z</time>
      </trkpt>
      <trkpt lat="45.94345" lon="-0.95655">
        <ele>4.5</ele>
        <time>2022-06-21T11:51:40Z</time>
      </trkpt>
      <trkpt lat="45.94345" lon="-0.95655">
        <ele>4.5</ele>
        <time>2022-06-21T11:51:41Z</time>
      </trkpt>
      <trkpt lat="45.94345" lon="-0.95655">
        <ele>4.5</ele>
        <time>2022-06-21T11:51:42Z</time>
      </trkpt>
      <trkpt lat="45.94345" lon="-0.95655">
        <ele>4.5</ele>
        <time>2022-06-21T11:51:43Z</time>
      </trkpt>
      <trkpt lat="45.94345" lon="-0.95655">
        <ele>4.5</ele>
        <time>2022-06-21T11:51:44Z</time>
      </trkpt>
      <trkpt lat="45.94345" lon="-0.95655">
        <ele>4.5</ele>
        <time>2022-06-21T11:51:45Z</time>
      </trkpt>
      <trkpt lat="45.94345" lon="-0.95655">
        <ele>4.5</ele>
        <time>2022-06-21T11:51:46Z</time>
      </trkpt>
      <trkpt lat="45.94345" lon="-0.95655">
        <ele>4.5</ele>
        <time>2022-06-21T11:51:47Z</time>
      </trkpt>
      <trkpt lat="45.94345" lon="-0.95655">
        <ele>4.5</ele>
        <time>2022-06-21T11:51:48Z</time>
      </trkpt>
      <trkpt lat="45.94345" lon="-0.95655">
        <ele>4.5</ele>
        <time>2022-06-21T11:51:49Z</time>
      </trkpt>
      <trkpt lat="45.94345" lon="-0.95655">
        <ele>4.5</ele>
        <time>2022-06-21T11:51:50Z</time>
      </trkpt>
      <trkpt lat="45.94345" lon="-0.95655">
        <ele>4.5</ele>
        <time>2022-06-21T11:51:51Z</time>
      </trkpt>
      <trkpt lat="45.94345" lon="-0.95655">
        <ele>4.5</ele>
        <time>2022-06-21T11:51:52Z</time>
      </trkpt>
      <trkpt lat="45.94345" lon="-0.95655">
        <ele>4.5</ele>
        <time>2022-06-21T11:51:53Z</time>
      </trkpt>
      <trkpt lat="45.94345" lon="-0.95655">
        <ele>4.5</ele>
        <time>2022-06-21T11:51:54Z</time>
      </trkpt>
      <trkpt lat="45.94345" lon="-0.95655">
        <ele>4.5</ele>
        <time>2022-06-21T11:51:55Z</time>
      </trkpt>
      <trkpt lat="45.94345" lon="-0.95655">
        <ele>4.5</ele>
        <time>2022-06-21T11:51:56Z</time>
      </trkpt>
      <trkpt lat="45.94345" lon="-0.95655">
        <ele>4.5</ele>
        <time>2022-06-21T11:51:57Z</time>
      </trkpt>
      <trkpt lat="45.94345" lon="-0.95655">
        <ele>4.5</ele>
        <time>2022-06-21T11:51:58Z</time>
      </trkpt>
      <trkpt lat="45.94345" lon="-0.95655">
        <ele>4.5</ele>
        <time>2022-06-21T11:51:59Z</time>
      </trkpt>
      <trkpt lat="45.94345" lon="-0.95655">
        <ele>4.5</ele>
        <time>2022-06-21T11:52:00Z</time>
      </trkpt>
      <trkpt lat="45.94345" lon="-0.95655">
        <ele>4.5</ele>
        <time>2022-06-21T11:52:01Z</time>
      </trkpt>
      <trkpt lat="45.94345" lon="-0.95655">
        <ele>4.5</ele>
        <time>2022-06-21T11:52:02Z</time>
      </trkpt>
      <trkpt lat="45.94345" lon="-0.95655">
        <ele>4.5</ele>
        <time>2022-06-21T11:52:03Z</time>
      </trkpt>
      <trkpt lat="45.94345" lon="-0.95655">
        <ele>4.5</ele>
        <time>2022-06-21T11:52:04Z</time>
      </trkpt>
      <trkpt lat="45.94345" lon="-0.95655">
        <ele>4.5</ele>
        <time>2022-06-21T11:52:05Z</time>
      </trkpt>
      <trkpt lat="45.94345" lon="-0.95655">
        <ele>4.5</ele>
        <time>2022-06-21T11:52:06Z</time>
      </trkpt>
      <trkpt lat="45.94345" lon="-0.95655">
        <ele>4.5</ele>
        <time>2022-06-21T11:52:07Z</time>
      </trkpt>
      <trkpt lat="45.94345" lon="-0.95655">
        <ele>4.5</ele>
        <time>2022-06-21T11:52:08Z</time>
      </trkpt>
      <trkpt lat="45.94345" lon="-0.95655">
        <ele>4.5</ele>
        <time>2022-06-21T11:52:09Z</time>
      </trkpt>
      <trkpt lat="45.94345" lon="-0.95655">
        <ele>4.5</ele>
        <time>2022-06-21T11:52:10Z</time>
      </trkpt>
      <trkpt lat="45.94345" lon="-0.95655">
        <ele>4.5</ele>
        <time>2022-06-21T11:52:11Z</time>
      </trkpt>
      <trkpt lat="45.94345" lon="-0.95655">
        <ele>4.5</ele>
        <time>2022-06-21T11:52:12Z</time>
      </trkpt>
      <trkpt lat="45.94345" lon="-0.95655">
        <ele>4.5</ele>
        <time>2022-06-21T11:52:13Z</time>
      </trkpt>
      <trkpt lat="45.94345" lon="-0.95655">
        <ele>4.5</ele>
        <time>2022-06-21T11:52:14Z</time>
      </trkpt>
      <trkpt lat="45.94345" lon="-0.95655">
        <ele>4.5</ele>
        <time>2022-06-21T11:52:15Z</time>
      </trkpt>
      <trkpt lat="45.94345" lon="-0.95655">
        <ele>4.5</ele>
        <time>2022-06-21T11:52:16Z</time>
      </trkpt>
      <trkpt lat="45.94345" lon="-0.95655">
        <ele>4.5</ele>
        <time>2022-06-21T11:52:17Z</time>
      </trkpt>
      <trkpt lat="45.94345" lon="-0.95655">
        <ele>4.5</ele>
        <time>2022-06-21T11:52:18Z</time>
      </trkpt>
      <trkpt lat="45.94345" lon="-0.95655">
        <ele>4.5</ele>
        <time>2022-06-21T11:52:19Z</time>
      </trkpt>
      <trkpt lat="45.94345" lon="-0.95655">
        <ele>4.5</ele>
        <time>2022-06-21T11:52:20Z</time>
      </trkpt>
      <trkpt lat="45.94345" lon="-0.95655">
        <ele>4.5</ele>
        <time>2022-06-21T11:52:21Z</time>
      </trkpt>
      <trkpt lat="45.94345" lon="-0.95655">
        <ele>4.5</ele>
        <time>2022-06-21T11:52:22Z</time>
      </trkpt>
      <trkpt lat="45.94345" lon="-0.95655">
        <ele>4.5</ele>
        <time>2022-06-21T11:52:23Z</time>
      </trkpt>
      <trkpt lat="45.94345" lon="-0.95655">
        <ele>4.5</ele>
        <time>2022-06-21T11:52:24Z</time>
      </trkpt>
      <trkpt lat="45.94345" lon="-0.95655">
        <ele>4.5</ele>
        <time>2022-06-21T11:52:25Z</time>
      </trkpt>
      <trkpt lat="45.94345" lon="-0.95655">
        <ele>4.5</ele>
        <time>2022-06-21T11:52:26Z</time>
      </trkpt>
      <trkpt lat="45.94345" lon="-0.95655">
        <ele>4.5</ele>
        <time>2022-06-21T11:52:27Z</time>
      </trkpt>
      <trkpt lat="45.94345" lon="-0.95655">
        <ele>4.5</ele>
        <time>2022-06-21T11:52:28Z</time>
      </trkpt>
      <trkpt lat="45.94345" lon="-0.95655">
        <ele>4.5</ele>
        <time>2022-06-21T11:52:29Z</time>
      </trkpt>
      <trkpt lat="45.94344" lon="-0.95655">
        <ele>4.5</ele>
        <time>2022-06-21T11:52:30Z</time>
      </trkpt>
      <trkpt lat="45.94344" lon="-0.95655">
        <ele>4.5</ele>
        <time>2022-06-21T11:52:31Z</time>
      </trkpt>
      <trkpt lat="45.94344" lon="-0.95655">
        <ele>4.5</ele>
        <time>2022-06-21T11:52:32Z</time>
      </trkpt>
      <trkpt lat="45.94344" lon="-0.95655">
        <ele>4.5</ele>
        <time>2022-06-21T11:52:33Z</time>
      </trkpt>
      <trkpt lat="45.94344" lon="-0.95655">
        <ele>4.5</ele>
        <time>2022-06-21T11:52:34Z</time>
      </trkpt>
      <trkpt lat="45.94344" lon="-0.95655">
        <ele>4.5</ele>
        <time>2022-06-21T11:52:35Z</time>
      </trkpt>
      <trkpt lat="45.94344" lon="-0.95655">
        <ele>4.5</ele>
        <time>2022-06-21T11:52:36Z</time>
      </trkpt>
      <trkpt lat="45.94344" lon="-0.95655">
        <ele>4.5</ele>
        <time>2022-06-21T11:52:37Z</time>
      </trkpt>
      <trkpt lat="45.94344" lon="-0.95655">
        <ele>4.5</ele>
        <time>2022-06-21T11:52:38Z</time>
      </trkpt>
      <trkpt lat="45.94344" lon="-0.95655">
        <ele>4.5</ele>
        <time>2022-06-21T11:52:39Z</time>
      </trkpt>
      <trkpt lat="45.94344" lon="-0.95655">
        <ele>4.5</ele>
        <time>2022-06-21T11:52:40Z</time>
      </trkpt>
      <trkpt lat="45.94344" lon="-0.95655">
        <ele>4.5</ele>
        <time>2022-06-21T11:52:41Z</time>
      </trkpt>
      <trkpt lat="45.94344" lon="-0.95655">
        <ele>4.5</ele>
        <time>2022-06-21T11:52:42Z</time>
      </trkpt>
      <trkpt lat="45.94344" lon="-0.95655">
        <ele>4.5</ele>
        <time>2022-06-21T11:52:43Z</time>
      </trkpt>
      <trkpt lat="45.94344" lon="-0.95655">
        <ele>4.5</ele>
        <time>2022-06-21T11:52:44Z</time>
      </trkpt>
      <trkpt lat="45.94344" lon="-0.95655">
        <ele>4.5</ele>
        <time>2022-06-21T11:52:45Z</time>
      </trkpt>
      <trkpt lat="45.94344" lon="-0.95655">
        <ele>4.5</ele>
        <time>2022-06-21T11:52:46Z</time>
      </trkpt>
      <trkpt lat="45.94344" lon="-0.95655">
        <ele>4.5</ele>
        <time>2022-06-21T11:52:47Z</time>
      </trkpt>
      <trkpt lat="45.94344" lon="-0.95655">
        <ele>4.5</ele>
        <time>2022-06-21T11:52:48Z</time>
      </trkpt>
      <trkpt lat="45.94344" lon="-0.95655">
        <ele>4.5</ele>
        <time>2022-06-21T11:52:49Z</time>
      </trkpt>
      <trkpt lat="45.94344" lon="-0.95655">
        <ele>4.5</ele>
        <time>2022-06-21T11:52:50Z</time>
      </trkpt>
      <trkpt lat="45.94344" lon="-0.95655">
        <ele>4.5</ele>
        <time>2022-06-21T11:52:51Z</time>
      </trkpt>
      <trkpt lat="45.94344" lon="-0.95655">
        <ele>4.5</ele>
        <time>2022-06-21T11:52:52Z</time>
      </trkpt>
      <trkpt lat="45.94344" lon="-0.95654">
        <ele>4.5</ele>
        <time>2022-06-21T11:52:53Z</time>
      </trkpt>
      <trkpt lat="45.94344" lon="-0.95654">
        <ele>4.5</ele>
        <time>2022-06-21T11:52:54Z</time>
      </trkpt>
      <trkpt lat="45.94344" lon="-0.95654">
        <ele>4.5</ele>
        <time>2022-06-21T11:52:55Z</time>
      </trkpt>
      <trkpt lat="45.94345" lon="-0.95654">
        <ele>4.5</ele>
        <time>2022-06-21T11:52:56Z</time>
      </trkpt>
      <trkpt lat="45.94345" lon="-0.95654">
        <ele>4.5</ele>
        <time>2022-06-21T11:52:57Z</time>
      </trkpt>
      <trkpt lat="45.94345" lon="-0.95654">
        <ele>4.5</ele>
        <time>2022-06-21T11:52:58Z</time>
      </trkpt>
      <trkpt lat="45.94345" lon="-0.95654">
        <ele>4.5</ele>
        <time>2022-06-21T11:52:59Z</time>
      </trkpt>
      <trkpt lat="45.94345" lon="-0.95654">
        <ele>4.5</ele>
        <time>2022-06-21T11:53:00Z</time>
      </trkpt>
      <trkpt lat="45.94345" lon="-0.95654">
        <ele>4.5</ele>
        <time>2022-06-21T11:53:01Z</time>
      </trkpt>
      <trkpt lat="45.94345" lon="-0.95654">
        <ele>4.5</ele>
        <time>2022-06-21T11:53:02Z</time>
      </trkpt>
      <trkpt lat="45.94345" lon="-0.95654">
        <ele>4.5</ele>
        <time>2022-06-21T11:53:03Z</time>
      </trkpt>
      <trkpt lat="45.94345" lon="-0.95654">
        <ele>4.5</ele>
        <time>2022-06-21T11:53:04Z</time>
      </trkpt>
      <trkpt lat="45.94345" lon="-0.95654">
        <ele>4.5</ele>
        <time>2022-06-21T11:53:05Z</time>
      </trkpt>
      <trkpt lat="45.94345" lon="-0.95654">
        <ele>4.5</ele>
        <time>2022-06-21T11:53:06Z</time>
      </trkpt>
      <trkpt lat="45.94345" lon="-0.95654">
        <ele>4.5</ele>
        <time>2022-06-21T11:53:07Z</time>
      </trkpt>
      <trkpt lat="45.94345" lon="-0.95654">
        <ele>4.5</ele>
        <time>2022-06-21T11:53:08Z</time>
      </trkpt>
      <trkpt lat="45.94345" lon="-0.95654">
        <ele>4.5</ele>
        <time>2022-06-21T11:53:09Z</time>
      </trkpt>
      <trkpt lat="45.94345" lon="-0.95654">
        <ele>4.5</ele>
        <time>2022-06-21T11:53:10Z</time>
      </trkpt>
      <trkpt lat="45.94345" lon="-0.95654">
        <ele>4.5</ele>
        <time>2022-06-21T11:53:11Z</time>
      </trkpt>
      <trkpt lat="45.94345" lon="-0.95654">
        <ele>4.5</ele>
        <time>2022-06-21T11:53:12Z</time>
      </trkpt>
      <trkpt lat="45.94345" lon="-0.95654">
        <ele>4.5</ele>
        <time>2022-06-21T11:53:13Z</time>
      </trkpt>
      <trkpt lat="45.94345" lon="-0.95654">
        <ele>4.5</ele>
        <time>2022-06-21T11:53:14Z</time>
      </trkpt>
      <trkpt lat="45.94345" lon="-0.95654">
        <ele>4.5</ele>
        <time>2022-06-21T11:53:15Z</time>
      </trkpt>
      <trkpt lat="45.94345" lon="-0.95654">
        <ele>4.5</ele>
        <time>2022-06-21T11:53:16Z</time>
      </trkpt>
      <trkpt lat="45.94345" lon="-0.95654">
        <ele>4.5</ele>
        <time>2022-06-21T11:53:17Z</time>
      </trkpt>
      <trkpt lat="45.94345" lon="-0.95654">
        <ele>4.5</ele>
        <time>2022-06-21T11:53:18Z</time>
      </trkpt>
      <trkpt lat="45.94345" lon="-0.95654">
        <ele>4.5</ele>
        <time>2022-06-21T11:53:19Z</time>
      </trkpt>
      <trkpt lat="45.94345" lon="-0.95654">
        <ele>4.5</ele>
        <time>2022-06-21T11:53:20Z</time>
      </trkpt>
      <trkpt lat="45.94345" lon="-0.95654">
        <ele>4.5</ele>
        <time>2022-06-21T11:53:21Z</time>
      </trkpt>
      <trkpt lat="45.94345" lon="-0.95654">
        <ele>4.5</ele>
        <time>2022-06-21T11:53:22Z</time>
      </trkpt>
      <trkpt lat="45.94345" lon="-0.95654">
        <ele>4.5</ele>
        <time>2022-06-21T11:53:23Z</time>
      </trkpt>
      <trkpt lat="45.94345" lon="-0.95654">
        <ele>4.5</ele>
        <time>2022-06-21T11:53:24Z</time>
      </trkpt>
      <trkpt lat="45.94345" lon="-0.95654">
        <ele>4.5</ele>
        <time>2022-06-21T11:53:25Z</time>
      </trkpt>
      <trkpt lat="45.94345" lon="-0.95654">
        <ele>4.5</ele>
        <time>2022-06-21T11:53:26Z</time>
      </trkpt>
      <trkpt lat="45.94345" lon="-0.95654">
        <ele>4.5</ele>
        <time>2022-06-21T11:53:27Z</time>
      </trkpt>
      <trkpt lat="45.94345" lon="-0.95654">
        <ele>4.5</ele>
        <time>2022-06-21T11:53:28Z</time>
      </trkpt>
      <trkpt lat="45.94345" lon="-0.95654">
        <ele>4.5</ele>
        <time>2022-06-21T11:53:29Z</time>
      </trkpt>
      <trkpt lat="45.94345" lon="-0.95654">
        <ele>4.5</ele>
        <time>2022-06-21T11:53:30Z</time>
      </trkpt>
      <trkpt lat="45.94345" lon="-0.95654">
        <ele>4.5</ele>
        <time>2022-06-21T11:53:31Z</time>
      </trkpt>
      <trkpt lat="45.94345" lon="-0.95654">
        <ele>4.5</ele>
        <time>2022-06-21T11:53:32Z</time>
      </trkpt>
      <trkpt lat="45.94345" lon="-0.95654">
        <ele>4.5</ele>
        <time>2022-06-21T11:53:33Z</time>
      </trkpt>
      <trkpt lat="45.94345" lon="-0.95654">
        <ele>4.5</ele>
        <time>2022-06-21T11:53:34Z</time>
      </trkpt>
      <trkpt lat="45.94345" lon="-0.95654">
        <ele>4.5</ele>
        <time>2022-06-21T11:53:35Z</time>
      </trkpt>
      <trkpt lat="45.94345" lon="-0.95654">
        <ele>4.5</ele>
        <time>2022-06-21T11:53:36Z</time>
      </trkpt>
      <trkpt lat="45.94345" lon="-0.95654">
        <ele>4.5</ele>
        <time>2022-06-21T11:53:37Z</time>
      </trkpt>
      <trkpt lat="45.94345" lon="-0.95654">
        <ele>4.5</ele>
        <time>2022-06-21T11:53:38Z</time>
      </trkpt>
      <trkpt lat="45.94345" lon="-0.95654">
        <ele>4.5</ele>
        <time>2022-06-21T11:53:39Z</time>
      </trkpt>
      <trkpt lat="45.94345" lon="-0.95654">
        <ele>4.5</ele>
        <time>2022-06-21T11:53:40Z</time>
      </trkpt>
      <trkpt lat="45.94345" lon="-0.95654">
        <ele>4.5</ele>
        <time>2022-06-21T11:53:41Z</time>
      </trkpt>
      <trkpt lat="45.94345" lon="-0.95654">
        <ele>4.5</ele>
        <time>2022-06-21T11:53:42Z</time>
      </trkpt>
      <trkpt lat="45.94345" lon="-0.95654">
        <ele>4.5</ele>
        <time>2022-06-21T11:53:43Z</time>
      </trkpt>
      <trkpt lat="45.94345" lon="-0.95654">
        <ele>4.5</ele>
        <time>2022-06-21T11:53:44Z</time>
      </trkpt>
      <trkpt lat="45.94345" lon="-0.95654">
        <ele>4.5</ele>
        <time>2022-06-21T11:53:45Z</time>
      </trkpt>
      <trkpt lat="45.94345" lon="-0.95654">
        <ele>4.5</ele>
        <time>2022-06-21T11:53:46Z</time>
      </trkpt>
      <trkpt lat="45.94345" lon="-0.95654">
        <ele>4.5</ele>
        <time>2022-06-21T11:53:47Z</time>
      </trkpt>
      <trkpt lat="45.94345" lon="-0.95654">
        <ele>4.5</ele>
        <time>2022-06-21T11:53:48Z</time>
      </trkpt>
      <trkpt lat="45.94345" lon="-0.95654">
        <ele>4.5</ele>
        <time>2022-06-21T11:53:49Z</time>
      </trkpt>
      <trkpt lat="45.94345" lon="-0.95654">
        <ele>4.5</ele>
        <time>2022-06-21T11:53:50Z</time>
      </trkpt>
      <trkpt lat="45.94345" lon="-0.95654">
        <ele>4.5</ele>
        <time>2022-06-21T11:53:51Z</time>
      </trkpt>
      <trkpt lat="45.94345" lon="-0.95654">
        <ele>4.5</ele>
        <time>2022-06-21T11:53:52Z</time>
      </trkpt>
      <trkpt lat="45.94345" lon="-0.95654">
        <ele>4.5</ele>
        <time>2022-06-21T11:53:53Z</time>
      </trkpt>
      <trkpt lat="45.94345" lon="-0.95654">
        <ele>4.5</ele>
        <time>2022-06-21T11:53:54Z</time>
      </trkpt>
      <trkpt lat="45.94345" lon="-0.95654">
        <ele>4.5</ele>
        <time>2022-06-21T11:53:55Z</time>
      </trkpt>
      <trkpt lat="45.94345" lon="-0.95654">
        <ele>4.5</ele>
        <time>2022-06-21T11:53:56Z</time>
      </trkpt>
      <trkpt lat="45.94345" lon="-0.95654">
        <ele>4.5</ele>
        <time>2022-06-21T11:53:57Z</time>
      </trkpt>
      <trkpt lat="45.94345" lon="-0.95654">
        <ele>4.5</ele>
        <time>2022-06-21T11:53:58Z</time>
      </trkpt>
      <trkpt lat="45.94345" lon="-0.95654">
        <ele>4.5</ele>
        <time>2022-06-21T11:53:59Z</time>
      </trkpt>
      <trkpt lat="45.94345" lon="-0.95654">
        <ele>4.5</ele>
        <time>2022-06-21T11:54:00Z</time>
      </trkpt>
      <trkpt lat="45.94345" lon="-0.95654">
        <ele>4.5</ele>
        <time>2022-06-21T11:54:01Z</time>
      </trkpt>
      <trkpt lat="45.94345" lon="-0.95653">
        <ele>4.5</ele>
        <time>2022-06-21T11:54:02Z</time>
      </trkpt>
      <trkpt lat="45.94345" lon="-0.95653">
        <ele>4.5</ele>
        <time>2022-06-21T11:54:03Z</time>
      </trkpt>
      <trkpt lat="45.94345" lon="-0.95654">
        <ele>4.5</ele>
        <time>2022-06-21T11:54:04Z</time>
      </trkpt>
      <trkpt lat="45.94345" lon="-0.95654">
        <ele>4.5</ele>
        <time>2022-06-21T11:54:05Z</time>
      </trkpt>
      <trkpt lat="45.94345" lon="-0.95654">
        <ele>4.5</ele>
        <time>2022-06-21T11:54:06Z</time>
      </trkpt>
      <trkpt lat="45.94345" lon="-0.95654">
        <ele>4.5</ele>
        <time>2022-06-21T11:54:07Z</time>
      </trkpt>
      <trkpt lat="45.94345" lon="-0.95654">
        <ele>4.5</ele>
        <time>2022-06-21T11:54:08Z</time>
      </trkpt>
      <trkpt lat="45.94345" lon="-0.95654">
        <ele>4.5</ele>
        <time>2022-06-21T11:54:09Z</time>
      </trkpt>
      <trkpt lat="45.94345" lon="-0.95654">
        <ele>4.5</ele>
        <time>2022-06-21T11:54:10Z</time>
      </trkpt>
      <trkpt lat="45.94345" lon="-0.95654">
        <ele>4.5</ele>
        <time>2022-06-21T11:54:11Z</time>
      </trkpt>
      <trkpt lat="45.94345" lon="-0.95654">
        <ele>4.5</ele>
        <time>2022-06-21T11:54:12Z</time>
      </trkpt>
      <trkpt lat="45.94345" lon="-0.95654">
        <ele>4.5</ele>
        <time>2022-06-21T11:54:13Z</time>
      </trkpt>
      <trkpt lat="45.94345" lon="-0.95654">
        <ele>4.5</ele>
        <time>2022-06-21T11:54:14Z</time>
      </trkpt>
      <trkpt lat="45.94345" lon="-0.95654">
        <ele>4.5</ele>
        <time>2022-06-21T11:54:15Z</time>
      </trkpt>
      <trkpt lat="45.94345" lon="-0.95654">
        <ele>4.5</ele>
        <time>2022-06-21T11:54:16Z</time>
      </trkpt>
      <trkpt lat="45.94345" lon="-0.95654">
        <ele>4.5</ele>
        <time>2022-06-21T11:54:17Z</time>
      </trkpt>
      <trkpt lat="45.94345" lon="-0.95654">
        <ele>4.5</ele>
        <time>2022-06-21T11:54:18Z</time>
      </trkpt>
      <trkpt lat="45.94345" lon="-0.95654">
        <ele>4.5</ele>
        <time>2022-06-21T11:54:19Z</time>
      </trkpt>
      <trkpt lat="45.94345" lon="-0.95654">
        <ele>4.5</ele>
        <time>2022-06-21T11:54:20Z</time>
      </trkpt>
      <trkpt lat="45.94345" lon="-0.95654">
        <ele>4.5</ele>
        <time>2022-06-21T11:54:21Z</time>
      </trkpt>
      <trkpt lat="45.94345" lon="-0.95654">
        <ele>4.5</ele>
        <time>2022-06-21T11:54:22Z</time>
      </trkpt>
      <trkpt lat="45.94345" lon="-0.95654">
        <ele>4.5</ele>
        <time>2022-06-21T11:54:23Z</time>
      </trkpt>
      <trkpt lat="45.94345" lon="-0.95654">
        <ele>4.5</ele>
        <time>2022-06-21T11:54:24Z</time>
      </trkpt>
      <trkpt lat="45.94345" lon="-0.95654">
        <ele>4.5</ele>
        <time>2022-06-21T11:54:25Z</time>
      </trkpt>
      <trkpt lat="45.94345" lon="-0.95654">
        <ele>4.5</ele>
        <time>2022-06-21T11:54:26Z</time>
      </trkpt>
      <trkpt lat="45.94345" lon="-0.95654">
        <ele>4.5</ele>
        <time>2022-06-21T11:54:27Z</time>
      </trkpt>
      <trkpt lat="45.94345" lon="-0.95654">
        <ele>4.5</ele>
        <time>2022-06-21T11:54:28Z</time>
      </trkpt>
      <trkpt lat="45.94345" lon="-0.95654">
        <ele>4.5</ele>
        <time>2022-06-21T11:54:29Z</time>
      </trkpt>
      <trkpt lat="45.94345" lon="-0.95654">
        <ele>4.5</ele>
        <time>2022-06-21T11:54:30Z</time>
      </trkpt>
      <trkpt lat="45.94345" lon="-0.95654">
        <ele>4.5</ele>
        <time>2022-06-21T11:54:31Z</time>
      </trkpt>
      <trkpt lat="45.94345" lon="-0.95654">
        <ele>4.5</ele>
        <time>2022-06-21T11:54:32Z</time>
      </trkpt>
      <trkpt lat="45.94345" lon="-0.95654">
        <ele>4.5</ele>
        <time>2022-06-21T11:54:33Z</time>
      </trkpt>
      <trkpt lat="45.94345" lon="-0.95654">
        <ele>4.5</ele>
        <time>2022-06-21T11:54:34Z</time>
      </trkpt>
      <trkpt lat="45.94345" lon="-0.95654">
        <ele>4.5</ele>
        <time>2022-06-21T11:54:35Z</time>
      </trkpt>
      <trkpt lat="45.94346" lon="-0.95657">
        <ele>4.5</ele>
        <time>2022-06-21T11:54:36Z</time>
      </trkpt>
      <trkpt lat="45.94346" lon="-0.95657">
        <ele>4.5</ele>
        <time>2022-06-21T11:54:37Z</time>
      </trkpt>
      <trkpt lat="45.94347" lon="-0.95659">
        <ele>4.5</ele>
        <time>2022-06-21T11:54:38Z</time>
      </trkpt>
      <trkpt lat="45.94347" lon="-0.9566">
        <ele>4.5</ele>
        <time>2022-06-21T11:54:39Z</time>
      </trkpt>
      <trkpt lat="45.94348" lon="-0.95663">
        <ele>4.5</ele>
        <time>2022-06-21T11:54:40Z</time>
      </trkpt>
      <trkpt lat="45.94348" lon="-0.95664">
        <ele>4.5</ele>
        <time>2022-06-21T11:54:41Z</time>
      </trkpt>
      <trkpt lat="45.94348" lon="-0.95665">
        <ele>4.5</ele>
        <time>2022-06-21T11:54:42Z</time>
      </trkpt>
      <trkpt lat="45.94348" lon="-0.95666">
        <ele>4.5</ele>
        <time>2022-06-21T11:54:43Z</time>
      </trkpt>
      <trkpt lat="45.94348" lon="-0.95667">
        <ele>4.5</ele>
        <time>2022-06-21T11:54:44Z</time>
      </trkpt>
      <trkpt lat="45.94348" lon="-0.95667">
        <ele>4.5</ele>
        <time>2022-06-21T11:54:45Z</time>
      </trkpt>
      <trkpt lat="45.94349" lon="-0.95668">
        <ele>4.5</ele>
        <time>2022-06-21T11:54:46Z</time>
      </trkpt>
      <trkpt lat="45.9435" lon="-0.95668">
        <ele>4.5</ele>
        <time>2022-06-21T11:54:47Z</time>
      </trkpt>
      <trkpt lat="45.94351" lon="-0.95669">
        <ele>4.5</ele>
        <time>2022-06-21T11:54:48Z</time>
      </trkpt>
      <trkpt lat="45.94352" lon="-0.9567">
        <ele>4.5</ele>
        <time>2022-06-21T11:54:49Z</time>
      </trkpt>
      <trkpt lat="45.94353" lon="-0.9567">
        <ele>4.5</ele>
        <time>2022-06-21T11:54:50Z</time>
      </trkpt>
      <trkpt lat="45.94354" lon="-0.95671">
        <ele>4.5</ele>
        <time>2022-06-21T11:54:51Z</time>
      </trkpt>
      <trkpt lat="45.94354" lon="-0.95671">
        <ele>4.5</ele>
        <time>2022-06-21T11:54:52Z</time>
      </trkpt>
      <trkpt lat="45.94355" lon="-0.95672">
        <ele>4.5</ele>
        <time>2022-06-21T11:54:53Z</time>
      </trkpt>
      <trkpt lat="45.94357" lon="-0.95673">
        <ele>4.5</ele>
        <time>2022-06-21T11:54:54Z</time>
      </trkpt>
      <trkpt lat="45.94357" lon="-0.95674">
        <ele>4.5</ele>
        <time>2022-06-21T11:54:55Z</time>
      </trkpt>
      <trkpt lat="45.94357" lon="-0.95675">
        <ele>4.5</ele>
        <time>2022-06-21T11:54:56Z</time>
      </trkpt>
      <trkpt lat="45.94358" lon="-0.95676">
        <ele>4.5</ele>
        <time>2022-06-21T11:54:57Z</time>
      </trkpt>
      <trkpt lat="45.9436" lon="-0.95678">
        <ele>4.5</ele>
        <time>2022-06-21T11:54:58Z</time>
      </trkpt>
      <trkpt lat="45.9436" lon="-0.95678">
        <ele>4.5</ele>
        <time>2022-06-21T11:54:59Z</time>
      </trkpt>
      <trkpt lat="45.94361" lon="-0.95679">
        <ele>4.5</ele>
        <time>2022-06-21T11:55:01Z</time>
      </trkpt>
      <trkpt lat="45.94362" lon="-0.9568">
        <ele>4.5</ele>
        <time>2022-06-21T11:55:02Z</time>
      </trkpt>
      <trkpt lat="45.94364" lon="-0.95681">
        <ele>4.5</ele>
        <time>2022-06-21T11:55:03Z</time>
      </trkpt>
      <trkpt lat="45.94364" lon="-0.95681">
        <ele>4.5</ele>
        <time>2022-06-21T11:55:05Z</time>
      </trkpt>
      <trkpt lat="45.94365" lon="-0.95682">
        <ele>4.5</ele>
        <time>2022-06-21T11:55:06Z</time>
      </trkpt>
      <trkpt lat="45.94365" lon="-0.95682">
        <ele>4.5</ele>
        <time>2022-06-21T11:55:07Z</time>
      </trkpt>
      <trkpt lat="45.94366" lon="-0.95683">
        <ele>4.5</ele>
        <time>2022-06-21T11:55:09Z</time>
      </trkpt>
      <trkpt lat="45.94367" lon="-0.95684">
        <ele>4.5</ele>
        <time>2022-06-21T11:55:10Z</time>
      </trkpt>
      <trkpt lat="45.94367" lon="-0.95684">
        <ele>4.5</ele>
        <time>2022-06-21T11:55:11Z</time>
      </trkpt>
      <trkpt lat="45.94368" lon="-0.95685">
        <ele>4.5</ele>
        <time>2022-06-21T11:55:13Z</time>
      </trkpt>
      <trkpt lat="45.94368" lon="-0.95686">
        <ele>4.5</ele>
        <time>2022-06-21T11:55:14Z</time>
      </trkpt>
      <trkpt lat="45.94369" lon="-0.95686">
        <ele>4.5</ele>
        <time>2022-06-21T11:55:15Z</time>
      </trkpt>
      <trkpt lat="45.94369" lon="-0.95687">
        <ele>4.5</ele>
        <time>2022-06-21T11:55:16Z</time>
      </trkpt>
      <trkpt lat="45.94369" lon="-0.95687">
        <ele>4.5</ele>
        <time>2022-06-21T11:55:17Z</time>
      </trkpt>
      <trkpt lat="45.9437" lon="-0.95688">
        <ele>4.5</ele>
        <time>2022-06-21T11:55:18Z</time>
      </trkpt>
      <trkpt lat="45.9437" lon="-0.95689">
        <ele>4.5</ele>
        <time>2022-06-21T11:55:19Z</time>
      </trkpt>
      <trkpt lat="45.94371" lon="-0.9569">
        <ele>4.5</ele>
        <time>2022-06-21T11:55:21Z</time>
      </trkpt>
      <trkpt lat="45.94371" lon="-0.95691">
        <ele>4.5</ele>
        <time>2022-06-21T11:55:22Z</time>
      </trkpt>
      <trkpt lat="45.94371" lon="-0.95692">
        <ele>4.5</ele>
        <time>2022-06-21T11:55:23Z</time>
      </trkpt>
      <trkpt lat="45.94371" lon="-0.95693">
        <ele>4.5</ele>
        <time>2022-06-21T11:55:24Z</time>
      </trkpt>
      <trkpt lat="45.94372" lon="-0.95694">
        <ele>4.5</ele>
        <time>2022-06-21T11:55:25Z</time>
      </trkpt>
      <trkpt lat="45.94372" lon="-0.95694">
        <ele>4.5</ele>
        <time>2022-06-21T11:55:26Z</time>
      </trkpt>
      <trkpt lat="45.94373" lon="-0.95695">
        <ele>4.5</ele>
        <time>2022-06-21T11:55:28Z</time>
      </trkpt>
      <trkpt lat="45.94372" lon="-0.95696">
        <ele>4.5</ele>
        <time>2022-06-21T11:55:29Z</time>
      </trkpt>
      <trkpt lat="45.9437" lon="-0.95698">
        <ele>4.5</ele>
        <time>2022-06-21T11:55:30Z</time>
      </trkpt>
      <trkpt lat="45.94369" lon="-0.95699">
        <ele>4.5</ele>
        <time>2022-06-21T11:55:31Z</time>
      </trkpt>
      <trkpt lat="45.94368" lon="-0.957">
        <ele>4.5</ele>
        <time>2022-06-21T11:55:33Z</time>
      </trkpt>
      <trkpt lat="45.94366" lon="-0.95701">
        <ele>4.5</ele>
        <time>2022-06-21T11:55:34Z</time>
      </trkpt>
      <trkpt lat="45.94365" lon="-0.95702">
        <ele>4.5</ele>
        <time>2022-06-21T11:55:35Z</time>
      </trkpt>
      <trkpt lat="45.94364" lon="-0.95704">
        <ele>4.5</ele>
        <time>2022-06-21T11:55:37Z</time>
      </trkpt>
      <trkpt lat="45.94364" lon="-0.95706">
        <ele>4.5</ele>
        <time>2022-06-21T11:55:39Z</time>
      </trkpt>
      <trkpt lat="45.94364" lon="-0.95706">
        <ele>4.5</ele>
        <time>2022-06-21T11:55:40Z</time>
      </trkpt>
      <trkpt lat="45.94364" lon="-0.95707">
        <ele>4.5</ele>
        <time>2022-06-21T11:55:41Z</time>
      </trkpt>
      <trkpt lat="45.94364" lon="-0.95706">
        <ele>4.5</ele>
        <time>2022-06-21T11:55:42Z</time>
      </trkpt>
      <trkpt lat="45.94364" lon="-0.95706">
        <ele>4.5</ele>
        <time>2022-06-21T11:55:43Z</time>
      </trkpt>
      <trkpt lat="45.94365" lon="-0.95705">
        <ele>4.5</ele>
        <time>2022-06-21T11:55:44Z</time>
      </trkpt>
      <trkpt lat="45.94366" lon="-0.95705">
        <ele>4.5</ele>
        <time>2022-06-21T11:55:45Z</time>
      </trkpt>
      <trkpt lat="45.94366" lon="-0.95705">
        <ele>4.5</ele>
        <time>2022-06-21T11:55:46Z</time>
      </trkpt>
      <trkpt lat="45.94366" lon="-0.95705">
        <ele>4.5</ele>
        <time>2022-06-21T11:55:47Z</time>
      </trkpt>
      <trkpt lat="45.94367" lon="-0.95705">
        <ele>4.5</ele>
        <time>2022-06-21T11:55:48Z</time>
      </trkpt>
      <trkpt lat="45.94367" lon="-0.95706">
        <ele>4.5</ele>
        <time>2022-06-21T11:55:49Z</time>
      </trkpt>
      <trkpt lat="45.94367" lon="-0.95706">
        <ele>4.5</ele>
        <time>2022-06-21T11:55:50Z</time>
      </trkpt>
      <trkpt lat="45.94367" lon="-0.95707">
        <ele>4.5</ele>
        <time>2022-06-21T11:55:51Z</time>
      </trkpt>
      <trkpt lat="45.94367" lon="-0.95707">
        <ele>4.5</ele>
        <time>2022-06-21T11:55:52Z</time>
      </trkpt>
      <trkpt lat="45.94367" lon="-0.95707">
        <ele>4.5</ele>
        <time>2022-06-21T11:55:53Z</time>
      </trkpt>
      <trkpt lat="45.94368" lon="-0.95707">
        <ele>4.5</ele>
        <time>2022-06-21T11:55:54Z</time>
      </trkpt>
      <trkpt lat="45.94368" lon="-0.95707">
        <ele>4.5</ele>
        <time>2022-06-21T11:55:55Z</time>
      </trkpt>
      <trkpt lat="45.94368" lon="-0.95707">
        <ele>4.5</ele>
        <time>2022-06-21T11:55:56Z</time>
      </trkpt>
      <trkpt lat="45.94368" lon="-0.95707">
        <ele>4.5</ele>
        <time>2022-06-21T11:55:57Z</time>
      </trkpt>
      <trkpt lat="45.94367" lon="-0.95708">
        <ele>4.5</ele>
        <time>2022-06-21T11:55:59Z</time>
      </trkpt>
      <trkpt lat="45.94367" lon="-0.95709">
        <ele>4.5</ele>
        <time>2022-06-21T11:56:00Z</time>
      </trkpt>
      <trkpt lat="45.94366" lon="-0.95709">
        <ele>4.5</ele>
        <time>2022-06-21T11:56:01Z</time>
      </trkpt>
      <trkpt lat="45.94365" lon="-0.9571">
        <ele>4.5</ele>
        <time>2022-06-21T11:56:02Z</time>
      </trkpt>
      <trkpt lat="45.94363" lon="-0.95712">
        <ele>4.5</ele>
        <time>2022-06-21T11:56:04Z</time>
      </trkpt>
      <trkpt lat="45.94361" lon="-0.95713">
        <ele>4.5</ele>
        <time>2022-06-21T11:56:05Z</time>
      </trkpt>
      <trkpt lat="45.9436" lon="-0.95715">
        <ele>4.5</ele>
        <time>2022-06-21T11:56:06Z</time>
      </trkpt>
      <trkpt lat="45.9436" lon="-0.95716">
        <ele>4.5</ele>
        <time>2022-06-21T11:56:07Z</time>
      </trkpt>
      <trkpt lat="45.94359" lon="-0.95717">
        <ele>4.5</ele>
        <time>2022-06-21T11:56:08Z</time>
      </trkpt>
      <trkpt lat="45.94356" lon="-0.95723">
        <ele>4.5</ele>
        <time>2022-06-21T11:56:09Z</time>
      </trkpt>
      <trkpt lat="45.94355" lon="-0.95725">
        <ele>4.5</ele>
        <time>2022-06-21T11:56:11Z</time>
      </trkpt>
      <trkpt lat="45.94355" lon="-0.95727">
        <ele>4.5</ele>
        <time>2022-06-21T11:56:12Z</time>
      </trkpt>
      <trkpt lat="45.94353" lon="-0.9573">
        <ele>4.5</ele>
        <time>2022-06-21T11:56:14Z</time>
      </trkpt>
      <trkpt lat="45.94353" lon="-0.95732">
        <ele>4.5</ele>
        <time>2022-06-21T11:56:15Z</time>
      </trkpt>
      <trkpt lat="45.94352" lon="-0.95733">
        <ele>4.5</ele>
        <time>2022-06-21T11:56:17Z</time>
      </trkpt>
      <trkpt lat="45.94352" lon="-0.95734">
        <ele>4.5</ele>
        <time>2022-06-21T11:56:18Z</time>
      </trkpt>
      <trkpt lat="45.94352" lon="-0.95735">
        <ele>4.5</ele>
        <time>2022-06-21T11:56:19Z</time>
      </trkpt>
      <trkpt lat="45.94354" lon="-0.95736">
        <ele>4.5</ele>
        <time>2022-06-21T11:56:20Z</time>
      </trkpt>
      <trkpt lat="45.94357" lon="-0.95737">
        <ele>4.5</ele>
        <time>2022-06-21T11:56:22Z</time>
      </trkpt>
      <trkpt lat="45.94358" lon="-0.95738">
        <ele>4.5</ele>
        <time>2022-06-21T11:56:23Z</time>
      </trkpt>
      <trkpt lat="45.9436" lon="-0.95739">
        <ele>4.6</ele>
        <time>2022-06-21T11:56:24Z</time>
      </trkpt>
      <trkpt lat="45.94361" lon="-0.9574">
        <ele>4.6</ele>
        <time>2022-06-21T11:56:25Z</time>
      </trkpt>
      <trkpt lat="45.94363" lon="-0.95742">
        <ele>4.6</ele>
        <time>2022-06-21T11:56:27Z</time>
      </trkpt>
      <trkpt lat="45.94363" lon="-0.95742">
        <ele>4.6</ele>
        <time>2022-06-21T11:56:28Z</time>
      </trkpt>
      <trkpt lat="45.94364" lon="-0.95743">
        <ele>4.6</ele>
        <time>2022-06-21T11:56:29Z</time>
      </trkpt>
      <trkpt lat="45.94364" lon="-0.95744">
        <ele>4.6</ele>
        <time>2022-06-21T11:56:30Z</time>
      </trkpt>
      <trkpt lat="45.94365" lon="-0.95746">
        <ele>4.6</ele>
        <time>2022-06-21T11:56:31Z</time>
      </trkpt>
      <trkpt lat="45.94365" lon="-0.95748">
        <ele>4.6</ele>
        <time>2022-06-21T11:56:33Z</time>
      </trkpt>
      <trkpt lat="45.94363" lon="-0.9575">
        <ele>4.7</ele>
        <time>2022-06-21T11:56:34Z</time>
      </trkpt>
      <trkpt lat="45.94363" lon="-0.9575">
        <ele>4.7</ele>
        <time>2022-06-21T11:56:35Z</time>
      </trkpt>
      <trkpt lat="45.94362" lon="-0.95751">
        <ele>4.7</ele>
        <time>2022-06-21T11:56:36Z</time>
      </trkpt>
      <trkpt lat="45.94362" lon="-0.95751">
        <ele>4.7</ele>
        <time>2022-06-21T11:56:37Z</time>
      </trkpt>
      <trkpt lat="45.94362" lon="-0.9575">
        <ele>4.7</ele>
        <time>2022-06-21T11:56:38Z</time>
      </trkpt>
      <trkpt lat="45.94362" lon="-0.95749">
        <ele>4.7</ele>
        <time>2022-06-21T11:56:39Z</time>
      </trkpt>
      <trkpt lat="45.94363" lon="-0.95749">
        <ele>4.7</ele>
        <time>2022-06-21T11:56:40Z</time>
      </trkpt>
      <trkpt lat="45.94363" lon="-0.95748">
        <ele>4.7</ele>
        <time>2022-06-21T11:56:41Z</time>
      </trkpt>
      <trkpt lat="45.94364" lon="-0.95747">
        <ele>4.7</ele>
        <time>2022-06-21T11:56:42Z</time>
      </trkpt>
      <trkpt lat="45.94364" lon="-0.95746">
        <ele>4.7</ele>
        <time>2022-06-21T11:56:43Z</time>
      </trkpt>
      <trkpt lat="45.94365" lon="-0.95745">
        <ele>4.8</ele>
        <time>2022-06-21T11:56:44Z</time>
      </trkpt>
      <trkpt lat="45.94365" lon="-0.95745">
        <ele>4.8</ele>
        <time>2022-06-21T11:56:45Z</time>
      </trkpt>
      <trkpt lat="45.94365" lon="-0.95745">
        <ele>4.8</ele>
        <time>2022-06-21T11:56:46Z</time>
      </trkpt>
      <trkpt lat="45.94365" lon="-0.95745">
        <ele>4.8</ele>
        <time>2022-06-21T11:56:47Z</time>
      </trkpt>
      <trkpt lat="45.94365" lon="-0.95746">
        <ele>4.8</ele>
        <time>2022-06-21T11:56:48Z</time>
      </trkpt>
      <trkpt lat="45.94365" lon="-0.95747">
        <ele>4.8</ele>
        <time>2022-06-21T11:56:50Z</time>
      </trkpt>
      <trkpt lat="45.94366" lon="-0.95747">
        <ele>4.8</ele>
        <time>2022-06-21T11:56:51Z</time>
      </trkpt>
      <trkpt lat="45.94366" lon="-0.95748">
        <ele>4.8</ele>
        <time>2022-06-21T11:56:52Z</time>
      </trkpt>
      <trkpt lat="45.94365" lon="-0.95749">
        <ele>4.8</ele>
        <time>2022-06-21T11:56:53Z</time>
      </trkpt>
      <trkpt lat="45.94365" lon="-0.95749">
        <ele>4.8</ele>
        <time>2022-06-21T11:56:54Z</time>
      </trkpt>
      <trkpt lat="45.94364" lon="-0.95749">
        <ele>4.8</ele>
        <time>2022-06-21T11:56:55Z</time>
      </trkpt>
      <trkpt lat="45.94364" lon="-0.95749">
        <ele>4.8</ele>
        <time>2022-06-21T11:56:56Z</time>
      </trkpt>
      <trkpt lat="45.94364" lon="-0.95749">
        <ele>4.8</ele>
        <time>2022-06-21T11:56:57Z</time>
      </trkpt>
      <trkpt lat="45.94364" lon="-0.95749">
        <ele>4.8</ele>
        <time>2022-06-21T11:56:58Z</time>
      </trkpt>
      <trkpt lat="45.94364" lon="-0.95748">
        <ele>4.8</ele>
        <time>2022-06-21T11:56:59Z</time>
      </trkpt>
      <trkpt lat="45.94364" lon="-0.95748">
        <ele>4.8</ele>
        <time>2022-06-21T11:57:00Z</time>
      </trkpt>
      <trkpt lat="45.94364" lon="-0.95748">
        <ele>4.8</ele>
        <time>2022-06-21T11:57:01Z</time>
      </trkpt>
      <trkpt lat="45.94364" lon="-0.95749">
        <ele>4.8</ele>
        <time>2022-06-21T11:57:02Z</time>
      </trkpt>
      <trkpt lat="45.94364" lon="-0.95749">
        <ele>4.8</ele>
        <time>2022-06-21T11:57:03Z</time>
      </trkpt>
      <trkpt lat="45.94364" lon="-0.95748">
        <ele>4.8</ele>
        <time>2022-06-21T11:57:04Z</time>
      </trkpt>
      <trkpt lat="45.94364" lon="-0.95748">
        <ele>4.8</ele>
        <time>2022-06-21T11:57:05Z</time>
      </trkpt>
      <trkpt lat="45.94364" lon="-0.95748">
        <ele>4.8</ele>
        <time>2022-06-21T11:57:06Z</time>
      </trkpt>
      <trkpt lat="45.94364" lon="-0.95748">
        <ele>4.8</ele>
        <time>2022-06-21T11:57:07Z</time>
      </trkpt>
      <trkpt lat="45.94364" lon="-0.95748">
        <ele>4.8</ele>
        <time>2022-06-21T11:57:08Z</time>
      </trkpt>
      <trkpt lat="45.94365" lon="-0.95746">
        <ele>4.9</ele>
        <time>2022-06-21T11:57:09Z</time>
      </trkpt>
      <trkpt lat="45.94365" lon="-0.95746">
        <ele>4.9</ele>
        <time>2022-06-21T11:57:10Z</time>
      </trkpt>
      <trkpt lat="45.94365" lon="-0.95746">
        <ele>4.9</ele>
        <time>2022-06-21T11:57:11Z</time>
      </trkpt>
      <trkpt lat="45.94366" lon="-0.95746">
        <ele>4.9</ele>
        <time>2022-06-21T11:57:12Z</time>
      </trkpt>
      <trkpt lat="45.94366" lon="-0.95746">
        <ele>4.9</ele>
        <time>2022-06-21T11:57:13Z</time>
      </trkpt>
      <trkpt lat="45.94366" lon="-0.95746">
        <ele>4.9</ele>
        <time>2022-06-21T11:57:14Z</time>
      </trkpt>
      <trkpt lat="45.94366" lon="-0.95746">
        <ele>4.9</ele>
        <time>2022-06-21T11:57:15Z</time>
      </trkpt>
      <trkpt lat="45.94366" lon="-0.95746">
        <ele>4.9</ele>
        <time>2022-06-21T11:57:16Z</time>
      </trkpt>
      <trkpt lat="45.94366" lon="-0.95746">
        <ele>4.9</ele>
        <time>2022-06-21T11:57:17Z</time>
      </trkpt>
      <trkpt lat="45.94366" lon="-0.95746">
        <ele>4.9</ele>
        <time>2022-06-21T11:57:18Z</time>
      </trkpt>
      <trkpt lat="45.94366" lon="-0.95746">
        <ele>4.9</ele>
        <time>2022-06-21T11:57:19Z</time>
      </trkpt>
      <trkpt lat="45.94366" lon="-0.95746">
        <ele>4.9</ele>
        <time>2022-06-21T11:57:20Z</time>
      </trkpt>
      <trkpt lat="45.94366" lon="-0.95746">
        <ele>4.9</ele>
        <time>2022-06-21T11:57:21Z</time>
      </trkpt>
      <trkpt lat="45.94366" lon="-0.95746">
        <ele>4.9</ele>
        <time>2022-06-21T11:57:22Z</time>
      </trkpt>
      <trkpt lat="45.94366" lon="-0.95746">
        <ele>4.9</ele>
        <time>2022-06-21T11:57:23Z</time>
      </trkpt>
      <trkpt lat="45.94366" lon="-0.95746">
        <ele>4.9</ele>
        <time>2022-06-21T11:57:24Z</time>
      </trkpt>
      <trkpt lat="45.94366" lon="-0.95746">
        <ele>4.9</ele>
        <time>2022-06-21T11:57:25Z</time>
      </trkpt>
      <trkpt lat="45.94366" lon="-0.95746">
        <ele>4.9</ele>
        <time>2022-06-21T11:57:26Z</time>
      </trkpt>
      <trkpt lat="45.94366" lon="-0.95746">
        <ele>4.9</ele>
        <time>2022-06-21T11:57:27Z</time>
      </trkpt>
      <trkpt lat="45.94366" lon="-0.95746">
        <ele>4.9</ele>
        <time>2022-06-21T11:57:28Z</time>
      </trkpt>
      <trkpt lat="45.94366" lon="-0.95746">
        <ele>4.9</ele>
        <time>2022-06-21T11:57:29Z</time>
      </trkpt>
      <trkpt lat="45.94365" lon="-0.95747">
        <ele>4.9</ele>
        <time>2022-06-21T11:57:30Z</time>
      </trkpt>
      <trkpt lat="45.94365" lon="-0.95747">
        <ele>4.9</ele>
        <time>2022-06-21T11:57:31Z</time>
      </trkpt>
      <trkpt lat="45.94365" lon="-0.95747">
        <ele>4.9</ele>
        <time>2022-06-21T11:57:32Z</time>
      </trkpt>
      <trkpt lat="45.94365" lon="-0.95747">
        <ele>4.9</ele>
        <time>2022-06-21T11:57:33Z</time>
      </trkpt>
      <trkpt lat="45.94365" lon="-0.95747">
        <ele>4.9</ele>
        <time>2022-06-21T11:57:34Z</time>
      </trkpt>
      <trkpt lat="45.94365" lon="-0.95747">
        <ele>4.9</ele>
        <time>2022-06-21T11:57:35Z</time>
      </trkpt>
      <trkpt lat="45.94365" lon="-0.95747">
        <ele>4.9</ele>
        <time>2022-06-21T11:57:36Z</time>
      </trkpt>
      <trkpt lat="45.94365" lon="-0.95747">
        <ele>4.9</ele>
        <time>2022-06-21T11:57:37Z</time>
      </trkpt>
      <trkpt lat="45.94365" lon="-0.95747">
        <ele>4.9</ele>
        <time>2022-06-21T11:57:38Z</time>
      </trkpt>
      <trkpt lat="45.94365" lon="-0.95747">
        <ele>4.9</ele>
        <time>2022-06-21T11:57:39Z</time>
      </trkpt>
      <trkpt lat="45.94365" lon="-0.95747">
        <ele>4.9</ele>
        <time>2022-06-21T11:57:40Z</time>
      </trkpt>
      <trkpt lat="45.94365" lon="-0.95747">
        <ele>4.9</ele>
        <time>2022-06-21T11:57:41Z</time>
      </trkpt>
      <trkpt lat="45.94365" lon="-0.95747">
        <ele>4.9</ele>
        <time>2022-06-21T11:57:42Z</time>
      </trkpt>
      <trkpt lat="45.94365" lon="-0.95747">
        <ele>4.9</ele>
        <time>2022-06-21T11:57:43Z</time>
      </trkpt>
      <trkpt lat="45.94365" lon="-0.95747">
        <ele>4.9</ele>
        <time>2022-06-21T11:57:44Z</time>
      </trkpt>
      <trkpt lat="45.94365" lon="-0.95747">
        <ele>4.9</ele>
        <time>2022-06-21T11:57:45Z</time>
      </trkpt>
      <trkpt lat="45.94365" lon="-0.95747">
        <ele>4.9</ele>
        <time>2022-06-21T11:57:46Z</time>
      </trkpt>
      <trkpt lat="45.94365" lon="-0.95747">
        <ele>4.9</ele>
        <time>2022-06-21T11:57:47Z</time>
      </trkpt>
      <trkpt lat="45.94365" lon="-0.95747">
        <ele>4.9</ele>
        <time>2022-06-21T11:57:48Z</time>
      </trkpt>
      <trkpt lat="45.94365" lon="-0.95747">
        <ele>4.9</ele>
        <time>2022-06-21T11:57:49Z</time>
      </trkpt>
      <trkpt lat="45.94365" lon="-0.95747">
        <ele>4.9</ele>
        <time>2022-06-21T11:57:50Z</time>
      </trkpt>
      <trkpt lat="45.94365" lon="-0.95747">
        <ele>4.9</ele>
        <time>2022-06-21T11:57:51Z</time>
      </trkpt>
      <trkpt lat="45.94365" lon="-0.95747">
        <ele>4.9</ele>
        <time>2022-06-21T11:57:52Z</time>
      </trkpt>
      <trkpt lat="45.94365" lon="-0.95747">
        <ele>4.9</ele>
        <time>2022-06-21T11:57:53Z</time>
      </trkpt>
      <trkpt lat="45.94365" lon="-0.95747">
        <ele>4.9</ele>
        <time>2022-06-21T11:57:54Z</time>
      </trkpt>
      <trkpt lat="45.94365" lon="-0.95747">
        <ele>4.9</ele>
        <time>2022-06-21T11:57:55Z</time>
      </trkpt>
      <trkpt lat="45.94365" lon="-0.95747">
        <ele>4.9</ele>
        <time>2022-06-21T11:57:56Z</time>
      </trkpt>
      <trkpt lat="45.94365" lon="-0.95747">
        <ele>4.9</ele>
        <time>2022-06-21T11:57:57Z</time>
      </trkpt>
      <trkpt lat="45.94365" lon="-0.95747">
        <ele>4.9</ele>
        <time>2022-06-21T11:57:58Z</time>
      </trkpt>
      <trkpt lat="45.94365" lon="-0.95747">
        <ele>4.9</ele>
        <time>2022-06-21T11:57:59Z</time>
      </trkpt>
      <trkpt lat="45.94365" lon="-0.95747">
        <ele>4.9</ele>
        <time>2022-06-21T11:58:00Z</time>
      </trkpt>
      <trkpt lat="45.94365" lon="-0.95747">
        <ele>4.9</ele>
        <time>2022-06-21T11:58:01Z</time>
      </trkpt>
      <trkpt lat="45.94365" lon="-0.95747">
        <ele>4.9</ele>
        <time>2022-06-21T11:58:02Z</time>
      </trkpt>
      <trkpt lat="45.94365" lon="-0.95747">
        <ele>4.9</ele>
        <time>2022-06-21T11:58:03Z</time>
      </trkpt>
      <trkpt lat="45.94365" lon="-0.95747">
        <ele>4.9</ele>
        <time>2022-06-21T11:58:04Z</time>
      </trkpt>
      <trkpt lat="45.94365" lon="-0.95747">
        <ele>4.9</ele>
        <time>2022-06-21T11:58:05Z</time>
      </trkpt>
      <trkpt lat="45.94365" lon="-0.95747">
        <ele>4.9</ele>
        <time>2022-06-21T11:58:06Z</time>
      </trkpt>
      <trkpt lat="45.94365" lon="-0.95747">
        <ele>4.9</ele>
        <time>2022-06-21T11:58:07Z</time>
      </trkpt>
      <trkpt lat="45.94365" lon="-0.95747">
        <ele>4.9</ele>
        <time>2022-06-21T11:58:08Z</time>
      </trkpt>
      <trkpt lat="45.94365" lon="-0.95747">
        <ele>4.9</ele>
        <time>2022-06-21T11:58:09Z</time>
      </trkpt>
      <trkpt lat="45.94365" lon="-0.95747">
        <ele>4.9</ele>
        <time>2022-06-21T11:58:10Z</time>
      </trkpt>
      <trkpt lat="45.94365" lon="-0.95747">
        <ele>4.9</ele>
        <time>2022-06-21T11:58:11Z</time>
      </trkpt>
      <trkpt lat="45.94365" lon="-0.95747">
        <ele>4.9</ele>
        <time>2022-06-21T11:58:12Z</time>
      </trkpt>
      <trkpt lat="45.94365" lon="-0.95747">
        <ele>4.9</ele>
        <time>2022-06-21T11:58:13Z</time>
      </trkpt>
      <trkpt lat="45.94365" lon="-0.95747">
        <ele>4.9</ele>
        <time>2022-06-21T11:58:14Z</time>
      </trkpt>
      <trkpt lat="45.94365" lon="-0.95747">
        <ele>4.9</ele>
        <time>2022-06-21T11:58:15Z</time>
      </trkpt>
      <trkpt lat="45.94365" lon="-0.95747">
        <ele>4.9</ele>
        <time>2022-06-21T11:58:16Z</time>
      </trkpt>
      <trkpt lat="45.94365" lon="-0.95747">
        <ele>4.9</ele>
        <time>2022-06-21T11:58:17Z</time>
      </trkpt>
      <trkpt lat="45.94365" lon="-0.95747">
        <ele>4.9</ele>
        <time>2022-06-21T11:58:18Z</time>
      </trkpt>
      <trkpt lat="45.94365" lon="-0.95747">
        <ele>4.9</ele>
        <time>2022-06-21T11:58:19Z</time>
      </trkpt>
      <trkpt lat="45.94365" lon="-0.95747">
        <ele>4.9</ele>
        <time>2022-06-21T11:58:20Z</time>
      </trkpt>
      <trkpt lat="45.94365" lon="-0.95747">
        <ele>4.9</ele>
        <time>2022-06-21T11:58:21Z</time>
      </trkpt>
      <trkpt lat="45.94365" lon="-0.95747">
        <ele>4.9</ele>
        <time>2022-06-21T11:58:22Z</time>
      </trkpt>
      <trkpt lat="45.94365" lon="-0.95747">
        <ele>4.9</ele>
        <time>2022-06-21T11:58:23Z</time>
      </trkpt>
      <trkpt lat="45.94365" lon="-0.95747">
        <ele>4.9</ele>
        <time>2022-06-21T11:58:24Z</time>
      </trkpt>
      <trkpt lat="45.94365" lon="-0.95747">
        <ele>4.9</ele>
        <time>2022-06-21T11:58:25Z</time>
      </trkpt>
      <trkpt lat="45.94365" lon="-0.95747">
        <ele>4.9</ele>
        <time>2022-06-21T11:58:26Z</time>
      </trkpt>
      <trkpt lat="45.94365" lon="-0.95747">
        <ele>4.9</ele>
        <time>2022-06-21T11:58:27Z</time>
      </trkpt>
      <trkpt lat="45.94365" lon="-0.95747">
        <ele>4.9</ele>
        <time>2022-06-21T11:58:28Z</time>
      </trkpt>
      <trkpt lat="45.94365" lon="-0.95747">
        <ele>4.9</ele>
        <time>2022-06-21T11:58:29Z</time>
      </trkpt>
      <trkpt lat="45.94365" lon="-0.95747">
        <ele>4.9</ele>
        <time>2022-06-21T11:58:30Z</time>
      </trkpt>
      <trkpt lat="45.94365" lon="-0.95747">
        <ele>4.9</ele>
        <time>2022-06-21T11:58:31Z</time>
      </trkpt>
      <trkpt lat="45.94365" lon="-0.95747">
        <ele>4.9</ele>
        <time>2022-06-21T11:58:32Z</time>
      </trkpt>
      <trkpt lat="45.94365" lon="-0.95747">
        <ele>4.9</ele>
        <time>2022-06-21T11:58:33Z</time>
      </trkpt>
      <trkpt lat="45.94365" lon="-0.95747">
        <ele>4.9</ele>
        <time>2022-06-21T11:58:34Z</time>
      </trkpt>
      <trkpt lat="45.94365" lon="-0.95747">
        <ele>4.9</ele>
        <time>2022-06-21T11:58:35Z</time>
      </trkpt>
      <trkpt lat="45.94365" lon="-0.95747">
        <ele>4.9</ele>
        <time>2022-06-21T11:58:36Z</time>
      </trkpt>
      <trkpt lat="45.94365" lon="-0.95747">
        <ele>4.9</ele>
        <time>2022-06-21T11:58:37Z</time>
      </trkpt>
      <trkpt lat="45.94365" lon="-0.95747">
        <ele>4.9</ele>
        <time>2022-06-21T11:58:38Z</time>
      </trkpt>
      <trkpt lat="45.94365" lon="-0.95747">
        <ele>4.9</ele>
        <time>2022-06-21T11:58:39Z</time>
      </trkpt>
      <trkpt lat="45.94365" lon="-0.95747">
        <ele>4.9</ele>
        <time>2022-06-21T11:58:40Z</time>
      </trkpt>
      <trkpt lat="45.94365" lon="-0.95747">
        <ele>4.9</ele>
        <time>2022-06-21T11:58:41Z</time>
      </trkpt>
      <trkpt lat="45.94365" lon="-0.95747">
        <ele>4.9</ele>
        <time>2022-06-21T11:58:42Z</time>
      </trkpt>
      <trkpt lat="45.94365" lon="-0.95747">
        <ele>4.9</ele>
        <time>2022-06-21T11:58:43Z</time>
      </trkpt>
      <trkpt lat="45.94365" lon="-0.95747">
        <ele>4.9</ele>
        <time>2022-06-21T11:58:44Z</time>
      </trkpt>
      <trkpt lat="45.94365" lon="-0.95747">
        <ele>4.9</ele>
        <time>2022-06-21T11:58:45Z</time>
      </trkpt>
      <trkpt lat="45.94365" lon="-0.95747">
        <ele>4.9</ele>
        <time>2022-06-21T11:58:46Z</time>
      </trkpt>
      <trkpt lat="45.94365" lon="-0.95747">
        <ele>4.9</ele>
        <time>2022-06-21T11:58:47Z</time>
      </trkpt>
      <trkpt lat="45.94365" lon="-0.95747">
        <ele>4.9</ele>
        <time>2022-06-21T11:58:48Z</time>
      </trkpt>
      <trkpt lat="45.94365" lon="-0.95747">
        <ele>4.9</ele>
        <time>2022-06-21T11:58:49Z</time>
      </trkpt>
      <trkpt lat="45.94365" lon="-0.95747">
        <ele>4.9</ele>
        <time>2022-06-21T11:58:50Z</time>
      </trkpt>
      <trkpt lat="45.94365" lon="-0.95747">
        <ele>4.9</ele>
        <time>2022-06-21T11:58:51Z</time>
      </trkpt>
      <trkpt lat="45.94365" lon="-0.95747">
        <ele>4.9</ele>
        <time>2022-06-21T11:58:52Z</time>
      </trkpt>
      <trkpt lat="45.94365" lon="-0.95747">
        <ele>4.9</ele>
        <time>2022-06-21T11:58:53Z</time>
      </trkpt>
      <trkpt lat="45.94365" lon="-0.95747">
        <ele>4.9</ele>
        <time>2022-06-21T11:58:54Z</time>
      </trkpt>
      <trkpt lat="45.94365" lon="-0.95747">
        <ele>4.9</ele>
        <time>2022-06-21T11:58:55Z</time>
      </trkpt>
      <trkpt lat="45.94365" lon="-0.95747">
        <ele>4.9</ele>
        <time>2022-06-21T11:58:56Z</time>
      </trkpt>
      <trkpt lat="45.94365" lon="-0.95747">
        <ele>4.9</ele>
        <time>2022-06-21T11:58:57Z</time>
      </trkpt>
      <trkpt lat="45.94365" lon="-0.95747">
        <ele>4.9</ele>
        <time>2022-06-21T11:58:58Z</time>
      </trkpt>
      <trkpt lat="45.94365" lon="-0.95747">
        <ele>4.9</ele>
        <time>2022-06-21T11:58:59Z</time>
      </trkpt>
      <trkpt lat="45.94365" lon="-0.95747">
        <ele>4.9</ele>
        <time>2022-06-21T11:59:00Z</time>
      </trkpt>
      <trkpt lat="45.94365" lon="-0.95747">
        <ele>4.9</ele>
        <time>2022-06-21T11:59:01Z</time>
      </trkpt>
      <trkpt lat="45.94365" lon="-0.95747">
        <ele>4.9</ele>
        <time>2022-06-21T11:59:02Z</time>
      </trkpt>
      <trkpt lat="45.94365" lon="-0.95747">
        <ele>4.9</ele>
        <time>2022-06-21T11:59:03Z</time>
      </trkpt>
      <trkpt lat="45.94365" lon="-0.95747">
        <ele>4.9</ele>
        <time>2022-06-21T11:59:04Z</time>
      </trkpt>
      <trkpt lat="45.94365" lon="-0.95747">
        <ele>4.9</ele>
        <time>2022-06-21T11:59:05Z</time>
      </trkpt>
      <trkpt lat="45.94365" lon="-0.95747">
        <ele>4.9</ele>
        <time>2022-06-21T11:59:06Z</time>
      </trkpt>
      <trkpt lat="45.94365" lon="-0.95747">
        <ele>4.9</ele>
        <time>2022-06-21T11:59:07Z</time>
      </trkpt>
      <trkpt lat="45.94365" lon="-0.95747">
        <ele>4.9</ele>
        <time>2022-06-21T11:59:08Z</time>
      </trkpt>
      <trkpt lat="45.94365" lon="-0.95747">
        <ele>4.9</ele>
        <time>2022-06-21T11:59:09Z</time>
      </trkpt>
      <trkpt lat="45.94365" lon="-0.95747">
        <ele>4.9</ele>
        <time>2022-06-21T11:59:10Z</time>
      </trkpt>
      <trkpt lat="45.94365" lon="-0.95747">
        <ele>4.9</ele>
        <time>2022-06-21T11:59:11Z</time>
      </trkpt>
      <trkpt lat="45.94365" lon="-0.95747">
        <ele>4.9</ele>
        <time>2022-06-21T11:59:12Z</time>
      </trkpt>
      <trkpt lat="45.94365" lon="-0.95747">
        <ele>4.9</ele>
        <time>2022-06-21T11:59:13Z</time>
      </trkpt>
      <trkpt lat="45.94365" lon="-0.95747">
        <ele>4.9</ele>
        <time>2022-06-21T11:59:14Z</time>
      </trkpt>
      <trkpt lat="45.94365" lon="-0.95747">
        <ele>4.9</ele>
        <time>2022-06-21T11:59:15Z</time>
      </trkpt>
      <trkpt lat="45.94365" lon="-0.95747">
        <ele>4.9</ele>
        <time>2022-06-21T11:59:16Z</time>
      </trkpt>
      <trkpt lat="45.94365" lon="-0.95747">
        <ele>4.9</ele>
        <time>2022-06-21T11:59:17Z</time>
      </trkpt>
      <trkpt lat="45.94365" lon="-0.95747">
        <ele>4.9</ele>
        <time>2022-06-21T11:59:18Z</time>
      </trkpt>
      <trkpt lat="45.94365" lon="-0.95747">
        <ele>4.9</ele>
        <time>2022-06-21T11:59:19Z</time>
      </trkpt>
      <trkpt lat="45.94365" lon="-0.95747">
        <ele>4.9</ele>
        <time>2022-06-21T11:59:20Z</time>
      </trkpt>
      <trkpt lat="45.94365" lon="-0.95747">
        <ele>4.9</ele>
        <time>2022-06-21T11:59:21Z</time>
      </trkpt>
      <trkpt lat="45.94365" lon="-0.95747">
        <ele>4.9</ele>
        <time>2022-06-21T11:59:22Z</time>
      </trkpt>
      <trkpt lat="45.94365" lon="-0.95747">
        <ele>4.9</ele>
        <time>2022-06-21T11:59:23Z</time>
      </trkpt>
      <trkpt lat="45.94365" lon="-0.95747">
        <ele>4.9</ele>
        <time>2022-06-21T11:59:24Z</time>
      </trkpt>
      <trkpt lat="45.94365" lon="-0.95747">
        <ele>4.9</ele>
        <time>2022-06-21T11:59:25Z</time>
      </trkpt>
      <trkpt lat="45.94365" lon="-0.95747">
        <ele>4.9</ele>
        <time>2022-06-21T11:59:26Z</time>
      </trkpt>
      <trkpt lat="45.94365" lon="-0.95747">
        <ele>4.9</ele>
        <time>2022-06-21T11:59:27Z</time>
      </trkpt>
      <trkpt lat="45.94365" lon="-0.95747">
        <ele>4.9</ele>
        <time>2022-06-21T11:59:28Z</time>
      </trkpt>
      <trkpt lat="45.94365" lon="-0.95747">
        <ele>4.9</ele>
        <time>2022-06-21T11:59:29Z</time>
      </trkpt>
      <trkpt lat="45.94365" lon="-0.95747">
        <ele>4.9</ele>
        <time>2022-06-21T11:59:30Z</time>
      </trkpt>
      <trkpt lat="45.94365" lon="-0.95747">
        <ele>4.9</ele>
        <time>2022-06-21T11:59:31Z</time>
      </trkpt>
      <trkpt lat="45.94365" lon="-0.95747">
        <ele>4.9</ele>
        <time>2022-06-21T11:59:32Z</time>
      </trkpt>
      <trkpt lat="45.94365" lon="-0.95747">
        <ele>4.9</ele>
        <time>2022-06-21T11:59:33Z</time>
      </trkpt>
      <trkpt lat="45.94365" lon="-0.95747">
        <ele>4.9</ele>
        <time>2022-06-21T11:59:34Z</time>
      </trkpt>
      <trkpt lat="45.94365" lon="-0.95747">
        <ele>4.9</ele>
        <time>2022-06-21T11:59:35Z</time>
      </trkpt>
      <trkpt lat="45.94365" lon="-0.95747">
        <ele>4.9</ele>
        <time>2022-06-21T11:59:36Z</time>
      </trkpt>
      <trkpt lat="45.94365" lon="-0.95747">
        <ele>4.9</ele>
        <time>2022-06-21T11:59:37Z</time>
      </trkpt>
      <trkpt lat="45.94365" lon="-0.95747">
        <ele>4.9</ele>
        <time>2022-06-21T11:59:38Z</time>
      </trkpt>
      <trkpt lat="45.94365" lon="-0.95747">
        <ele>4.9</ele>
        <time>2022-06-21T11:59:39Z</time>
      </trkpt>
      <trkpt lat="45.94365" lon="-0.95747">
        <ele>4.9</ele>
        <time>2022-06-21T11:59:40Z</time>
      </trkpt>
      <trkpt lat="45.94365" lon="-0.95747">
        <ele>4.9</ele>
        <time>2022-06-21T11:59:41Z</time>
      </trkpt>
      <trkpt lat="45.94365" lon="-0.95747">
        <ele>4.9</ele>
        <time>2022-06-21T11:59:42Z</time>
      </trkpt>
      <trkpt lat="45.94365" lon="-0.95747">
        <ele>4.9</ele>
        <time>2022-06-21T11:59:43Z</time>
      </trkpt>
      <trkpt lat="45.94365" lon="-0.95747">
        <ele>4.9</ele>
        <time>2022-06-21T11:59:44Z</time>
      </trkpt>
      <trkpt lat="45.94365" lon="-0.95747">
        <ele>4.9</ele>
        <time>2022-06-21T11:59:45Z</time>
      </trkpt>
      <trkpt lat="45.94365" lon="-0.95747">
        <ele>4.9</ele>
        <time>2022-06-21T11:59:46Z</time>
      </trkpt>
      <trkpt lat="45.94365" lon="-0.95747">
        <ele>4.9</ele>
        <time>2022-06-21T11:59:47Z</time>
      </trkpt>
      <trkpt lat="45.94365" lon="-0.95747">
        <ele>4.9</ele>
        <time>2022-06-21T11:59:48Z</time>
      </trkpt>
      <trkpt lat="45.94365" lon="-0.95747">
        <ele>4.9</ele>
        <time>2022-06-21T11:59:49Z</time>
      </trkpt>
      <trkpt lat="45.94365" lon="-0.95747">
        <ele>4.9</ele>
        <time>2022-06-21T11:59:50Z</time>
      </trkpt>
      <trkpt lat="45.94365" lon="-0.95747">
        <ele>4.9</ele>
        <time>2022-06-21T11:59:51Z</time>
      </trkpt>
      <trkpt lat="45.94365" lon="-0.95747">
        <ele>4.9</ele>
        <time>2022-06-21T11:59:52Z</time>
      </trkpt>
      <trkpt lat="45.94365" lon="-0.95747">
        <ele>4.9</ele>
        <time>2022-06-21T11:59:53Z</time>
      </trkpt>
      <trkpt lat="45.94365" lon="-0.95747">
        <ele>4.9</ele>
        <time>2022-06-21T11:59:54Z</time>
      </trkpt>
      <trkpt lat="45.94365" lon="-0.95747">
        <ele>4.9</ele>
        <time>2022-06-21T11:59:55Z</time>
      </trkpt>
      <trkpt lat="45.94365" lon="-0.95747">
        <ele>4.9</ele>
        <time>2022-06-21T11:59:56Z</time>
      </trkpt>
      <trkpt lat="45.94365" lon="-0.95747">
        <ele>4.9</ele>
        <time>2022-06-21T11:59:57Z</time>
      </trkpt>
      <trkpt lat="45.94365" lon="-0.95747">
        <ele>4.9</ele>
        <time>2022-06-21T11:59:58Z</time>
      </trkpt>
      <trkpt lat="45.94365" lon="-0.95747">
        <ele>4.9</ele>
        <time>2022-06-21T11:59:59Z</time>
      </trkpt>
      <trkpt lat="45.94365" lon="-0.95747">
        <ele>4.9</ele>
        <time>2022-06-21T12:00:00Z</time>
      </trkpt>
      <trkpt lat="45.94365" lon="-0.95747">
        <ele>4.9</ele>
        <time>2022-06-21T12:00:01Z</time>
      </trkpt>
      <trkpt lat="45.94365" lon="-0.95747">
        <ele>4.9</ele>
        <time>2022-06-21T12:00:02Z</time>
      </trkpt>
      <trkpt lat="45.94365" lon="-0.95747">
        <ele>4.9</ele>
        <time>2022-06-21T12:00:03Z</time>
      </trkpt>
      <trkpt lat="45.94365" lon="-0.95747">
        <ele>4.9</ele>
        <time>2022-06-21T12:00:04Z</time>
      </trkpt>
      <trkpt lat="45.94365" lon="-0.95747">
        <ele>4.9</ele>
        <time>2022-06-21T12:00:05Z</time>
      </trkpt>
      <trkpt lat="45.94365" lon="-0.95747">
        <ele>4.9</ele>
        <time>2022-06-21T12:00:06Z</time>
      </trkpt>
      <trkpt lat="45.94365" lon="-0.95747">
        <ele>4.9</ele>
        <time>2022-06-21T12:00:07Z</time>
      </trkpt>
      <trkpt lat="45.94365" lon="-0.95747">
        <ele>4.9</ele>
        <time>2022-06-21T12:00:08Z</time>
      </trkpt>
      <trkpt lat="45.94365" lon="-0.95747">
        <ele>4.9</ele>
        <time>2022-06-21T12:00:09Z</time>
      </trkpt>
      <trkpt lat="45.94365" lon="-0.95747">
        <ele>4.9</ele>
        <time>2022-06-21T12:00:10Z</time>
      </trkpt>
      <trkpt lat="45.94365" lon="-0.95747">
        <ele>4.9</ele>
        <time>2022-06-21T12:00:11Z</time>
      </trkpt>
      <trkpt lat="45.94365" lon="-0.95747">
        <ele>4.9</ele>
        <time>2022-06-21T12:00:12Z</time>
      </trkpt>
      <trkpt lat="45.94365" lon="-0.95747">
        <ele>4.9</ele>
        <time>2022-06-21T12:00:13Z</time>
      </trkpt>
      <trkpt lat="45.94365" lon="-0.95747">
        <ele>4.9</ele>
        <time>2022-06-21T12:00:14Z</time>
      </trkpt>
      <trkpt lat="45.94365" lon="-0.95747">
        <ele>4.9</ele>
        <time>2022-06-21T12:00:15Z</time>
      </trkpt>
      <trkpt lat="45.94365" lon="-0.95747">
        <ele>4.9</ele>
        <time>2022-06-21T12:00:16Z</time>
      </trkpt>
      <trkpt lat="45.94365" lon="-0.95747">
        <ele>4.9</ele>
        <time>2022-06-21T12:00:17Z</time>
      </trkpt>
      <trkpt lat="45.94365" lon="-0.95747">
        <ele>4.9</ele>
        <time>2022-06-21T12:00:18Z</time>
      </trkpt>
      <trkpt lat="45.94365" lon="-0.95747">
        <ele>4.9</ele>
        <time>2022-06-21T12:00:19Z</time>
      </trkpt>
      <trkpt lat="45.94365" lon="-0.95747">
        <ele>4.9</ele>
        <time>2022-06-21T12:00:20Z</time>
      </trkpt>
      <trkpt lat="45.94365" lon="-0.95747">
        <ele>4.9</ele>
        <time>2022-06-21T12:00:21Z</time>
      </trkpt>
      <trkpt lat="45.94365" lon="-0.95747">
        <ele>4.9</ele>
        <time>2022-06-21T12:00:22Z</time>
      </trkpt>
      <trkpt lat="45.94365" lon="-0.95747">
        <ele>4.9</ele>
        <time>2022-06-21T12:00:23Z</time>
      </trkpt>
      <trkpt lat="45.94365" lon="-0.95747">
        <ele>4.9</ele>
        <time>2022-06-21T12:00:24Z</time>
      </trkpt>
      <trkpt lat="45.94365" lon="-0.95747">
        <ele>4.9</ele>
        <time>2022-06-21T12:00:25Z</time>
      </trkpt>
      <trkpt lat="45.94365" lon="-0.95747">
        <ele>4.9</ele>
        <time>2022-06-21T12:00:26Z</time>
      </trkpt>
      <trkpt lat="45.94365" lon="-0.95747">
        <ele>4.9</ele>
        <time>2022-06-21T12:00:27Z</time>
      </trkpt>
      <trkpt lat="45.94365" lon="-0.95747">
        <ele>4.9</ele>
        <time>2022-06-21T12:00:28Z</time>
      </trkpt>
      <trkpt lat="45.94365" lon="-0.95747">
        <ele>4.9</ele>
        <time>2022-06-21T12:00:29Z</time>
      </trkpt>
      <trkpt lat="45.94365" lon="-0.95747">
        <ele>4.9</ele>
        <time>2022-06-21T12:00:30Z</time>
      </trkpt>
      <trkpt lat="45.94365" lon="-0.95747">
        <ele>4.9</ele>
        <time>2022-06-21T12:00:31Z</time>
      </trkpt>
      <trkpt lat="45.94365" lon="-0.95747">
        <ele>4.9</ele>
        <time>2022-06-21T12:00:32Z</time>
      </trkpt>
      <trkpt lat="45.94365" lon="-0.95747">
        <ele>4.9</ele>
        <time>2022-06-21T12:00:33Z</time>
      </trkpt>
      <trkpt lat="45.94365" lon="-0.95747">
        <ele>4.9</ele>
        <time>2022-06-21T12:00:34Z</time>
      </trkpt>
      <trkpt lat="45.94365" lon="-0.95747">
        <ele>4.9</ele>
        <time>2022-06-21T12:00:35Z</time>
      </trkpt>
      <trkpt lat="45.94365" lon="-0.95747">
        <ele>4.9</ele>
        <time>2022-06-21T12:00:36Z</time>
      </trkpt>
      <trkpt lat="45.94365" lon="-0.95747">
        <ele>4.9</ele>
        <time>2022-06-21T12:00:37Z</time>
      </trkpt>
      <trkpt lat="45.94365" lon="-0.95747">
        <ele>4.9</ele>
        <time>2022-06-21T12:00:38Z</time>
      </trkpt>
      <trkpt lat="45.94365" lon="-0.95747">
        <ele>4.9</ele>
        <time>2022-06-21T12:00:39Z</time>
      </trkpt>
      <trkpt lat="45.94365" lon="-0.95747">
        <ele>4.9</ele>
        <time>2022-06-21T12:00:40Z</time>
      </trkpt>
      <trkpt lat="45.94365" lon="-0.95747">
        <ele>4.9</ele>
        <time>2022-06-21T12:00:41Z</time>
      </trkpt>
      <trkpt lat="45.94365" lon="-0.95747">
        <ele>4.9</ele>
        <time>2022-06-21T12:00:42Z</time>
      </trkpt>
      <trkpt lat="45.94365" lon="-0.95747">
        <ele>4.9</ele>
        <time>2022-06-21T12:00:43Z</time>
      </trkpt>
      <trkpt lat="45.94365" lon="-0.95747">
        <ele>4.9</ele>
        <time>2022-06-21T12:00:44Z</time>
      </trkpt>
      <trkpt lat="45.94365" lon="-0.95747">
        <ele>4.9</ele>
        <time>2022-06-21T12:00:45Z</time>
      </trkpt>
      <trkpt lat="45.94365" lon="-0.95747">
        <ele>4.9</ele>
        <time>2022-06-21T12:00:46Z</time>
      </trkpt>
      <trkpt lat="45.94365" lon="-0.95747">
        <ele>4.9</ele>
        <time>2022-06-21T12:00:47Z</time>
      </trkpt>
      <trkpt lat="45.94365" lon="-0.95747">
        <ele>4.9</ele>
        <time>2022-06-21T12:00:48Z</time>
      </trkpt>
      <trkpt lat="45.94365" lon="-0.95747">
        <ele>4.9</ele>
        <time>2022-06-21T12:00:49Z</time>
      </trkpt>
      <trkpt lat="45.94365" lon="-0.95747">
        <ele>4.9</ele>
        <time>2022-06-21T12:00:50Z</time>
      </trkpt>
      <trkpt lat="45.94365" lon="-0.95747">
        <ele>4.9</ele>
        <time>2022-06-21T12:00:51Z</time>
      </trkpt>
      <trkpt lat="45.94365" lon="-0.95747">
        <ele>4.9</ele>
        <time>2022-06-21T12:00:52Z</time>
      </trkpt>
      <trkpt lat="45.94365" lon="-0.95747">
        <ele>4.9</ele>
        <time>2022-06-21T12:00:53Z</time>
      </trkpt>
      <trkpt lat="45.94365" lon="-0.95747">
        <ele>4.9</ele>
        <time>2022-06-21T12:00:54Z</time>
      </trkpt>
      <trkpt lat="45.94365" lon="-0.95747">
        <ele>4.9</ele>
        <time>2022-06-21T12:00:55Z</time>
      </trkpt>
      <trkpt lat="45.94365" lon="-0.95747">
        <ele>4.9</ele>
        <time>2022-06-21T12:00:56Z</time>
      </trkpt>
      <trkpt lat="45.94365" lon="-0.95747">
        <ele>4.9</ele>
        <time>2022-06-21T12:00:57Z</time>
      </trkpt>
      <trkpt lat="45.94365" lon="-0.95747">
        <ele>4.9</ele>
        <time>2022-06-21T12:00:58Z</time>
      </trkpt>
      <trkpt lat="45.94365" lon="-0.95747">
        <ele>4.9</ele>
        <time>2022-06-21T12:00:59Z</time>
      </trkpt>
      <trkpt lat="45.94365" lon="-0.95747">
        <ele>4.9</ele>
        <time>2022-06-21T12:01:00Z</time>
      </trkpt>
      <trkpt lat="45.94365" lon="-0.95747">
        <ele>4.9</ele>
        <time>2022-06-21T12:01:01Z</time>
      </trkpt>
      <trkpt lat="45.94365" lon="-0.95747">
        <ele>4.9</ele>
        <time>2022-06-21T12:01:02Z</time>
      </trkpt>
      <trkpt lat="45.94365" lon="-0.95747">
        <ele>4.9</ele>
        <time>2022-06-21T12:01:03Z</time>
      </trkpt>
      <trkpt lat="45.94365" lon="-0.95747">
        <ele>4.9</ele>
        <time>2022-06-21T12:01:04Z</time>
      </trkpt>
      <trkpt lat="45.94365" lon="-0.95747">
        <ele>4.9</ele>
        <time>2022-06-21T12:01:05Z</time>
      </trkpt>
      <trkpt lat="45.94365" lon="-0.95747">
        <ele>4.9</ele>
        <time>2022-06-21T12:01:06Z</time>
      </trkpt>
      <trkpt lat="45.94365" lon="-0.95747">
        <ele>4.9</ele>
        <time>2022-06-21T12:01:07Z</time>
      </trkpt>
      <trkpt lat="45.94365" lon="-0.95747">
        <ele>4.9</ele>
        <time>2022-06-21T12:01:08Z</time>
      </trkpt>
      <trkpt lat="45.94365" lon="-0.95747">
        <ele>4.9</ele>
        <time>2022-06-21T12:01:09Z</time>
      </trkpt>
      <trkpt lat="45.94365" lon="-0.95747">
        <ele>4.9</ele>
        <time>2022-06-21T12:01:10Z</time>
      </trkpt>
      <trkpt lat="45.94365" lon="-0.95747">
        <ele>4.9</ele>
        <time>2022-06-21T12:01:11Z</time>
      </trkpt>
      <trkpt lat="45.94365" lon="-0.95747">
        <ele>4.9</ele>
        <time>2022-06-21T12:01:12Z</time>
      </trkpt>
      <trkpt lat="45.94365" lon="-0.95747">
        <ele>4.9</ele>
        <time>2022-06-21T12:01:13Z</time>
      </trkpt>
      <trkpt lat="45.94365" lon="-0.95747">
        <ele>4.9</ele>
        <time>2022-06-21T12:01:14Z</time>
      </trkpt>
      <trkpt lat="45.94365" lon="-0.95747">
        <ele>4.9</ele>
        <time>2022-06-21T12:01:15Z</time>
      </trkpt>
      <trkpt lat="45.94365" lon="-0.95747">
        <ele>4.9</ele>
        <time>2022-06-21T12:01:16Z</time>
      </trkpt>
      <trkpt lat="45.94365" lon="-0.95747">
        <ele>4.9</ele>
        <time>2022-06-21T12:01:17Z</time>
      </trkpt>
      <trkpt lat="45.94365" lon="-0.95747">
        <ele>4.9</ele>
        <time>2022-06-21T12:01:18Z</time>
      </trkpt>
      <trkpt lat="45.94365" lon="-0.95747">
        <ele>4.9</ele>
        <time>2022-06-21T12:01:19Z</time>
      </trkpt>
      <trkpt lat="45.94365" lon="-0.95747">
        <ele>4.9</ele>
        <time>2022-06-21T12:01:20Z</time>
      </trkpt>
      <trkpt lat="45.94365" lon="-0.95747">
        <ele>4.9</ele>
        <time>2022-06-21T12:01:21Z</time>
      </trkpt>
      <trkpt lat="45.94365" lon="-0.95747">
        <ele>4.9</ele>
        <time>2022-06-21T12:01:22Z</time>
      </trkpt>
      <trkpt lat="45.94365" lon="-0.95747">
        <ele>4.9</ele>
        <time>2022-06-21T12:01:23Z</time>
      </trkpt>
      <trkpt lat="45.94365" lon="-0.95747">
        <ele>4.9</ele>
        <time>2022-06-21T12:01:24Z</time>
      </trkpt>
      <trkpt lat="45.94365" lon="-0.95747">
        <ele>4.9</ele>
        <time>2022-06-21T12:01:25Z</time>
      </trkpt>
      <trkpt lat="45.94365" lon="-0.95747">
        <ele>4.9</ele>
        <time>2022-06-21T12:01:26Z</time>
      </trkpt>
      <trkpt lat="45.94365" lon="-0.95747">
        <ele>4.9</ele>
        <time>2022-06-21T12:01:27Z</time>
      </trkpt>
      <trkpt lat="45.94365" lon="-0.95747">
        <ele>4.9</ele>
        <time>2022-06-21T12:01:28Z</time>
      </trkpt>
      <trkpt lat="45.94365" lon="-0.95747">
        <ele>4.9</ele>
        <time>2022-06-21T12:01:29Z</time>
      </trkpt>
      <trkpt lat="45.94365" lon="-0.95747">
        <ele>4.9</ele>
        <time>2022-06-21T12:01:30Z</time>
      </trkpt>
      <trkpt lat="45.94365" lon="-0.95747">
        <ele>4.9</ele>
        <time>2022-06-21T12:01:31Z</time>
      </trkpt>
      <trkpt lat="45.94365" lon="-0.95747">
        <ele>4.9</ele>
        <time>2022-06-21T12:01:32Z</time>
      </trkpt>
      <trkpt lat="45.94365" lon="-0.95747">
        <ele>4.9</ele>
        <time>2022-06-21T12:01:33Z</time>
      </trkpt>
      <trkpt lat="45.94365" lon="-0.95747">
        <ele>4.9</ele>
        <time>2022-06-21T12:01:34Z</time>
      </trkpt>
      <trkpt lat="45.94365" lon="-0.95747">
        <ele>4.9</ele>
        <time>2022-06-21T12:01:35Z</time>
      </trkpt>
      <trkpt lat="45.94365" lon="-0.95747">
        <ele>4.9</ele>
        <time>2022-06-21T12:01:36Z</time>
      </trkpt>
      <trkpt lat="45.94365" lon="-0.95747">
        <ele>4.9</ele>
        <time>2022-06-21T12:01:37Z</time>
      </trkpt>
      <trkpt lat="45.94365" lon="-0.95747">
        <ele>4.9</ele>
        <time>2022-06-21T12:01:38Z</time>
      </trkpt>
      <trkpt lat="45.94365" lon="-0.95747">
        <ele>4.9</ele>
        <time>2022-06-21T12:01:39Z</time>
      </trkpt>
      <trkpt lat="45.94365" lon="-0.95747">
        <ele>4.9</ele>
        <time>2022-06-21T12:01:40Z</time>
      </trkpt>
      <trkpt lat="45.94365" lon="-0.95747">
        <ele>4.9</ele>
        <time>2022-06-21T12:01:41Z</time>
      </trkpt>
      <trkpt lat="45.94365" lon="-0.95747">
        <ele>4.9</ele>
        <time>2022-06-21T12:01:42Z</time>
      </trkpt>
      <trkpt lat="45.94365" lon="-0.95747">
        <ele>4.9</ele>
        <time>2022-06-21T12:01:43Z</time>
      </trkpt>
      <trkpt lat="45.94365" lon="-0.95747">
        <ele>4.9</ele>
        <time>2022-06-21T12:01:44Z</time>
      </trkpt>
      <trkpt lat="45.94365" lon="-0.95747">
        <ele>4.9</ele>
        <time>2022-06-21T12:01:45Z</time>
      </trkpt>
      <trkpt lat="45.94365" lon="-0.95747">
        <ele>4.9</ele>
        <time>2022-06-21T12:01:46Z</time>
      </trkpt>
      <trkpt lat="45.94365" lon="-0.95747">
        <ele>4.9</ele>
        <time>2022-06-21T12:01:47Z</time>
      </trkpt>
      <trkpt lat="45.94365" lon="-0.95747">
        <ele>4.9</ele>
        <time>2022-06-21T12:01:48Z</time>
      </trkpt>
      <trkpt lat="45.94365" lon="-0.95747">
        <ele>4.9</ele>
        <time>2022-06-21T12:01:49Z</time>
      </trkpt>
      <trkpt lat="45.94365" lon="-0.95747">
        <ele>4.9</ele>
        <time>2022-06-21T12:01:50Z</time>
      </trkpt>
      <trkpt lat="45.94365" lon="-0.95747">
        <ele>4.9</ele>
        <time>2022-06-21T12:01:51Z</time>
      </trkpt>
      <trkpt lat="45.94365" lon="-0.95747">
        <ele>4.9</ele>
        <time>2022-06-21T12:01:52Z</time>
      </trkpt>
      <trkpt lat="45.94365" lon="-0.95747">
        <ele>4.9</ele>
        <time>2022-06-21T12:01:53Z</time>
      </trkpt>
      <trkpt lat="45.94365" lon="-0.95747">
        <ele>4.9</ele>
        <time>2022-06-21T12:01:54Z</time>
      </trkpt>
      <trkpt lat="45.94365" lon="-0.95747">
        <ele>4.9</ele>
        <time>2022-06-21T12:01:55Z</time>
      </trkpt>
      <trkpt lat="45.94365" lon="-0.95747">
        <ele>4.9</ele>
        <time>2022-06-21T12:01:56Z</time>
      </trkpt>
      <trkpt lat="45.94365" lon="-0.95747">
        <ele>4.9</ele>
        <time>2022-06-21T12:01:57Z</time>
      </trkpt>
      <trkpt lat="45.94365" lon="-0.95747">
        <ele>4.9</ele>
        <time>2022-06-21T12:01:58Z</time>
      </trkpt>
      <trkpt lat="45.94365" lon="-0.95747">
        <ele>4.9</ele>
        <time>2022-06-21T12:01:59Z</time>
      </trkpt>
      <trkpt lat="45.94365" lon="-0.95747">
        <ele>4.9</ele>
        <time>2022-06-21T12:02:00Z</time>
      </trkpt>
      <trkpt lat="45.94365" lon="-0.95747">
        <ele>4.9</ele>
        <time>2022-06-21T12:02:01Z</time>
      </trkpt>
      <trkpt lat="45.94365" lon="-0.95747">
        <ele>4.9</ele>
        <time>2022-06-21T12:02:02Z</time>
      </trkpt>
      <trkpt lat="45.94365" lon="-0.95747">
        <ele>4.9</ele>
        <time>2022-06-21T12:02:03Z</time>
      </trkpt>
      <trkpt lat="45.94365" lon="-0.95747">
        <ele>4.9</ele>
        <time>2022-06-21T12:02:04Z</time>
      </trkpt>
      <trkpt lat="45.94365" lon="-0.95747">
        <ele>4.9</ele>
        <time>2022-06-21T12:02:05Z</time>
      </trkpt>
      <trkpt lat="45.94365" lon="-0.95747">
        <ele>4.9</ele>
        <time>2022-06-21T12:02:06Z</time>
      </trkpt>
      <trkpt lat="45.94365" lon="-0.95747">
        <ele>4.9</ele>
        <time>2022-06-21T12:02:07Z</time>
      </trkpt>
      <trkpt lat="45.94365" lon="-0.95747">
        <ele>4.9</ele>
        <time>2022-06-21T12:02:08Z</time>
      </trkpt>
      <trkpt lat="45.94365" lon="-0.95747">
        <ele>4.9</ele>
        <time>2022-06-21T12:02:09Z</time>
      </trkpt>
      <trkpt lat="45.94365" lon="-0.95747">
        <ele>4.9</ele>
        <time>2022-06-21T12:02:10Z</time>
      </trkpt>
      <trkpt lat="45.94365" lon="-0.95747">
        <ele>4.9</ele>
        <time>2022-06-21T12:02:11Z</time>
      </trkpt>
      <trkpt lat="45.94365" lon="-0.95747">
        <ele>4.9</ele>
        <time>2022-06-21T12:02:12Z</time>
      </trkpt>
      <trkpt lat="45.94365" lon="-0.95747">
        <ele>4.9</ele>
        <time>2022-06-21T12:02:13Z</time>
      </trkpt>
      <trkpt lat="45.94365" lon="-0.95747">
        <ele>4.9</ele>
        <time>2022-06-21T12:02:14Z</time>
      </trkpt>
      <trkpt lat="45.94365" lon="-0.95747">
        <ele>4.9</ele>
        <time>2022-06-21T12:02:15Z</time>
      </trkpt>
      <trkpt lat="45.94365" lon="-0.95747">
        <ele>4.9</ele>
        <time>2022-06-21T12:02:16Z</time>
      </trkpt>
      <trkpt lat="45.94365" lon="-0.95747">
        <ele>4.9</ele>
        <time>2022-06-21T12:02:17Z</time>
      </trkpt>
      <trkpt lat="45.94365" lon="-0.95747">
        <ele>4.9</ele>
        <time>2022-06-21T12:02:18Z</time>
      </trkpt>
      <trkpt lat="45.94365" lon="-0.95747">
        <ele>4.9</ele>
        <time>2022-06-21T12:02:19Z</time>
      </trkpt>
      <trkpt lat="45.94365" lon="-0.95747">
        <ele>4.9</ele>
        <time>2022-06-21T12:02:20Z</time>
      </trkpt>
      <trkpt lat="45.94365" lon="-0.95747">
        <ele>4.9</ele>
        <time>2022-06-21T12:02:21Z</time>
      </trkpt>
      <trkpt lat="45.94365" lon="-0.95747">
        <ele>4.9</ele>
        <time>2022-06-21T12:02:22Z</time>
      </trkpt>
      <trkpt lat="45.94365" lon="-0.95747">
        <ele>4.9</ele>
        <time>2022-06-21T12:02:23Z</time>
      </trkpt>
      <trkpt lat="45.94365" lon="-0.95747">
        <ele>4.9</ele>
        <time>2022-06-21T12:02:24Z</time>
      </trkpt>
      <trkpt lat="45.94365" lon="-0.95747">
        <ele>4.9</ele>
        <time>2022-06-21T12:02:25Z</time>
      </trkpt>
      <trkpt lat="45.94365" lon="-0.95747">
        <ele>4.9</ele>
        <time>2022-06-21T12:02:26Z</time>
      </trkpt>
      <trkpt lat="45.94365" lon="-0.95747">
        <ele>4.9</ele>
        <time>2022-06-21T12:02:27Z</time>
      </trkpt>
      <trkpt lat="45.94365" lon="-0.95747">
        <ele>4.9</ele>
        <time>2022-06-21T12:02:28Z</time>
      </trkpt>
      <trkpt lat="45.94365" lon="-0.95747">
        <ele>4.9</ele>
        <time>2022-06-21T12:02:29Z</time>
      </trkpt>
      <trkpt lat="45.94365" lon="-0.95747">
        <ele>4.9</ele>
        <time>2022-06-21T12:02:30Z</time>
      </trkpt>
      <trkpt lat="45.94365" lon="-0.95747">
        <ele>4.9</ele>
        <time>2022-06-21T12:02:31Z</time>
      </trkpt>
      <trkpt lat="45.94365" lon="-0.95747">
        <ele>4.9</ele>
        <time>2022-06-21T12:02:32Z</time>
      </trkpt>
      <trkpt lat="45.94365" lon="-0.95747">
        <ele>4.9</ele>
        <time>2022-06-21T12:02:33Z</time>
      </trkpt>
      <trkpt lat="45.94365" lon="-0.95747">
        <ele>4.9</ele>
        <time>2022-06-21T12:02:34Z</time>
      </trkpt>
      <trkpt lat="45.94364" lon="-0.95747">
        <ele>4.9</ele>
        <time>2022-06-21T12:02:35Z</time>
      </trkpt>
      <trkpt lat="45.94364" lon="-0.95747">
        <ele>4.9</ele>
        <time>2022-06-21T12:02:36Z</time>
      </trkpt>
      <trkpt lat="45.94364" lon="-0.95747">
        <ele>4.9</ele>
        <time>2022-06-21T12:02:37Z</time>
      </trkpt>
      <trkpt lat="45.94364" lon="-0.95747">
        <ele>4.9</ele>
        <time>2022-06-21T12:02:38Z</time>
      </trkpt>
      <trkpt lat="45.94364" lon="-0.95748">
        <ele>5</ele>
        <time>2022-06-21T12:02:39Z</time>
      </trkpt>
      <trkpt lat="45.94364" lon="-0.95748">
        <ele>5</ele>
        <time>2022-06-21T12:02:40Z</time>
      </trkpt>
      <trkpt lat="45.94364" lon="-0.95747">
        <ele>5</ele>
        <time>2022-06-21T12:02:41Z</time>
      </trkpt>
      <trkpt lat="45.94364" lon="-0.95748">
        <ele>5</ele>
        <time>2022-06-21T12:02:42Z</time>
      </trkpt>
      <trkpt lat="45.94364" lon="-0.95748">
        <ele>5</ele>
        <time>2022-06-21T12:02:43Z</time>
      </trkpt>
      <trkpt lat="45.94364" lon="-0.95747">
        <ele>5</ele>
        <time>2022-06-21T12:02:44Z</time>
      </trkpt>
      <trkpt lat="45.94363" lon="-0.95747">
        <ele>5</ele>
        <time>2022-06-21T12:02:45Z</time>
      </trkpt>
      <trkpt lat="45.94363" lon="-0.95747">
        <ele>5</ele>
        <time>2022-06-21T12:02:46Z</time>
      </trkpt>
      <trkpt lat="45.94363" lon="-0.95747">
        <ele>5</ele>
        <time>2022-06-21T12:02:47Z</time>
      </trkpt>
      <trkpt lat="45.94363" lon="-0.95747">
        <ele>5</ele>
        <time>2022-06-21T12:02:48Z</time>
      </trkpt>
      <trkpt lat="45.94363" lon="-0.95747">
        <ele>5</ele>
        <time>2022-06-21T12:02:49Z</time>
      </trkpt>
      <trkpt lat="45.94363" lon="-0.95747">
        <ele>5</ele>
        <time>2022-06-21T12:02:50Z</time>
      </trkpt>
      <trkpt lat="45.94364" lon="-0.95747">
        <ele>5</ele>
        <time>2022-06-21T12:02:51Z</time>
      </trkpt>
      <trkpt lat="45.94364" lon="-0.95747">
        <ele>5</ele>
        <time>2022-06-21T12:02:52Z</time>
      </trkpt>
      <trkpt lat="45.94364" lon="-0.95747">
        <ele>5</ele>
        <time>2022-06-21T12:02:53Z</time>
      </trkpt>
      <trkpt lat="45.94363" lon="-0.95747">
        <ele>5</ele>
        <time>2022-06-21T12:02:54Z</time>
      </trkpt>
      <trkpt lat="45.94363" lon="-0.95747">
        <ele>5</ele>
        <time>2022-06-21T12:02:55Z</time>
      </trkpt>
      <trkpt lat="45.94364" lon="-0.95747">
        <ele>5</ele>
        <time>2022-06-21T12:02:56Z</time>
      </trkpt>
      <trkpt lat="45.94364" lon="-0.95747">
        <ele>5</ele>
        <time>2022-06-21T12:02:57Z</time>
      </trkpt>
      <trkpt lat="45.94364" lon="-0.95747">
        <ele>5</ele>
        <time>2022-06-21T12:02:58Z</time>
      </trkpt>
      <trkpt lat="45.94364" lon="-0.95747">
        <ele>5</ele>
        <time>2022-06-21T12:02:59Z</time>
      </trkpt>
      <trkpt lat="45.94364" lon="-0.95747">
        <ele>5</ele>
        <time>2022-06-21T12:03:00Z</time>
      </trkpt>
      <trkpt lat="45.94364" lon="-0.95747">
        <ele>5</ele>
        <time>2022-06-21T12:03:01Z</time>
      </trkpt>
      <trkpt lat="45.94364" lon="-0.95747">
        <ele>5</ele>
        <time>2022-06-21T12:03:02Z</time>
      </trkpt>
      <trkpt lat="45.94364" lon="-0.95747">
        <ele>5</ele>
        <time>2022-06-21T12:03:03Z</time>
      </trkpt>
      <trkpt lat="45.94364" lon="-0.95747">
        <ele>5</ele>
        <time>2022-06-21T12:03:04Z</time>
      </trkpt>
      <trkpt lat="45.94364" lon="-0.95747">
        <ele>5</ele>
        <time>2022-06-21T12:03:05Z</time>
      </trkpt>
      <trkpt lat="45.94365" lon="-0.95747">
        <ele>5</ele>
        <time>2022-06-21T12:03:06Z</time>
      </trkpt>
      <trkpt lat="45.94365" lon="-0.95747">
        <ele>5</ele>
        <time>2022-06-21T12:03:07Z</time>
      </trkpt>
      <trkpt lat="45.94365" lon="-0.95747">
        <ele>5</ele>
        <time>2022-06-21T12:03:09Z</time>
      </trkpt>
      <trkpt lat="45.94365" lon="-0.95747">
        <ele>5</ele>
        <time>2022-06-21T12:03:10Z</time>
      </trkpt>
      <trkpt lat="45.94365" lon="-0.95747">
        <ele>5</ele>
        <time>2022-06-21T12:03:11Z</time>
      </trkpt>
      <trkpt lat="45.94365" lon="-0.95747">
        <ele>5</ele>
        <time>2022-06-21T12:03:12Z</time>
      </trkpt>
      <trkpt lat="45.94365" lon="-0.95746">
        <ele>5</ele>
        <time>2022-06-21T12:03:13Z</time>
      </trkpt>
      <trkpt lat="45.94365" lon="-0.95746">
        <ele>5</ele>
        <time>2022-06-21T12:03:14Z</time>
      </trkpt>
      <trkpt lat="45.94365" lon="-0.95746">
        <ele>5</ele>
        <time>2022-06-21T12:03:15Z</time>
      </trkpt>
      <trkpt lat="45.94365" lon="-0.95746">
        <ele>5</ele>
        <time>2022-06-21T12:03:16Z</time>
      </trkpt>
      <trkpt lat="45.94365" lon="-0.95746">
        <ele>5</ele>
        <time>2022-06-21T12:03:17Z</time>
      </trkpt>
      <trkpt lat="45.94365" lon="-0.95746">
        <ele>5</ele>
        <time>2022-06-21T12:03:18Z</time>
      </trkpt>
      <trkpt lat="45.94365" lon="-0.95746">
        <ele>5</ele>
        <time>2022-06-21T12:03:19Z</time>
      </trkpt>
      <trkpt lat="45.94365" lon="-0.95746">
        <ele>5</ele>
        <time>2022-06-21T12:03:20Z</time>
      </trkpt>
      <trkpt lat="45.94365" lon="-0.95746">
        <ele>5</ele>
        <time>2022-06-21T12:03:22Z</time>
      </trkpt>
      <trkpt lat="45.94365" lon="-0.95746">
        <ele>5</ele>
        <time>2022-06-21T12:03:24Z</time>
      </trkpt>
      <trkpt lat="45.94365" lon="-0.95746">
        <ele>5</ele>
        <time>2022-06-21T12:03:25Z</time>
      </trkpt>
      <trkpt lat="45.94365" lon="-0.95746">
        <ele>5</ele>
        <time>2022-06-21T12:03:26Z</time>
      </trkpt>
      <trkpt lat="45.94365" lon="-0.95746">
        <ele>5</ele>
        <time>2022-06-21T12:03:27Z</time>
      </trkpt>
      <trkpt lat="45.94364" lon="-0.95746">
        <ele>5</ele>
        <time>2022-06-21T12:03:28Z</time>
      </trkpt>
      <trkpt lat="45.94364" lon="-0.95748">
        <ele>5.1</ele>
        <time>2022-06-21T12:03:29Z</time>
      </trkpt>
      <trkpt lat="45.94364" lon="-0.95749">
        <ele>5.1</ele>
        <time>2022-06-21T12:03:30Z</time>
      </trkpt>
      <trkpt lat="45.94365" lon="-0.9575">
        <ele>5.1</ele>
        <time>2022-06-21T12:03:32Z</time>
      </trkpt>
      <trkpt lat="45.94365" lon="-0.95752">
        <ele>5.1</ele>
        <time>2022-06-21T12:03:33Z</time>
      </trkpt>
      <trkpt lat="45.94367" lon="-0.95754">
        <ele>5.2</ele>
        <time>2022-06-21T12:03:34Z</time>
      </trkpt>
      <trkpt lat="45.94368" lon="-0.95754">
        <ele>5.2</ele>
        <time>2022-06-21T12:03:35Z</time>
      </trkpt>
      <trkpt lat="45.94369" lon="-0.95755">
        <ele>5.2</ele>
        <time>2022-06-21T12:03:36Z</time>
      </trkpt>
      <trkpt lat="45.94372" lon="-0.95756">
        <ele>5.2</ele>
        <time>2022-06-21T12:03:37Z</time>
      </trkpt>
      <trkpt lat="45.94373" lon="-0.95756">
        <ele>5.2</ele>
        <time>2022-06-21T12:03:39Z</time>
      </trkpt>
      <trkpt lat="45.94375" lon="-0.95756">
        <ele>5.3</ele>
        <time>2022-06-21T12:03:40Z</time>
      </trkpt>
      <trkpt lat="45.94376" lon="-0.95756">
        <ele>5.3</ele>
        <time>2022-06-21T12:03:41Z</time>
      </trkpt>
      <trkpt lat="45.94377" lon="-0.95756">
        <ele>5.3</ele>
        <time>2022-06-21T12:03:42Z</time>
      </trkpt>
      <trkpt lat="45.94378" lon="-0.95757">
        <ele>5.3</ele>
        <time>2022-06-21T12:03:44Z</time>
      </trkpt>
      <trkpt lat="45.94379" lon="-0.95758">
        <ele>5.3</ele>
        <time>2022-06-21T12:03:45Z</time>
      </trkpt>
      <trkpt lat="45.94379" lon="-0.95759">
        <ele>5.3</ele>
        <time>2022-06-21T12:03:46Z</time>
      </trkpt>
      <trkpt lat="45.9438" lon="-0.95759">
        <ele>5.4</ele>
        <time>2022-06-21T12:03:47Z</time>
      </trkpt>
      <trkpt lat="45.9438" lon="-0.9576">
        <ele>5.4</ele>
        <time>2022-06-21T12:03:48Z</time>
      </trkpt>
      <trkpt lat="45.9438" lon="-0.9576">
        <ele>5.4</ele>
        <time>2022-06-21T12:03:49Z</time>
      </trkpt>
      <trkpt lat="45.94381" lon="-0.95761">
        <ele>5.4</ele>
        <time>2022-06-21T12:03:50Z</time>
      </trkpt>
      <trkpt lat="45.94382" lon="-0.95763">
        <ele>5.4</ele>
        <time>2022-06-21T12:03:51Z</time>
      </trkpt>
      <trkpt lat="45.94382" lon="-0.95764">
        <ele>5.4</ele>
        <time>2022-06-21T12:03:52Z</time>
      </trkpt>
      <trkpt lat="45.94382" lon="-0.95766">
        <ele>5.4</ele>
        <time>2022-06-21T12:03:54Z</time>
      </trkpt>
      <trkpt lat="45.94383" lon="-0.95767">
        <ele>5.4</ele>
        <time>2022-06-21T12:03:55Z</time>
      </trkpt>
      <trkpt lat="45.94383" lon="-0.95768">
        <ele>5.4</ele>
        <time>2022-06-21T12:03:56Z</time>
      </trkpt>
      <trkpt lat="45.94384" lon="-0.9577">
        <ele>5.4</ele>
        <time>2022-06-21T12:03:57Z</time>
      </trkpt>
      <trkpt lat="45.94384" lon="-0.95772">
        <ele>5.4</ele>
        <time>2022-06-21T12:03:58Z</time>
      </trkpt>
      <trkpt lat="45.94384" lon="-0.95773">
        <ele>5.4</ele>
        <time>2022-06-21T12:03:59Z</time>
      </trkpt>
      <trkpt lat="45.94385" lon="-0.95774">
        <ele>5.4</ele>
        <time>2022-06-21T12:04:00Z</time>
      </trkpt>
      <trkpt lat="45.94385" lon="-0.95775">
        <ele>5.4</ele>
        <time>2022-06-21T12:04:01Z</time>
      </trkpt>
      <trkpt lat="45.94385" lon="-0.95775">
        <ele>5.4</ele>
        <time>2022-06-21T12:04:02Z</time>
      </trkpt>
      <trkpt lat="45.94384" lon="-0.95775">
        <ele>5.4</ele>
        <time>2022-06-21T12:04:03Z</time>
      </trkpt>
      <trkpt lat="45.94383" lon="-0.95776">
        <ele>5.4</ele>
        <time>2022-06-21T12:04:04Z</time>
      </trkpt>
      <trkpt lat="45.94383" lon="-0.95776">
        <ele>5.4</ele>
        <time>2022-06-21T12:04:05Z</time>
      </trkpt>
      <trkpt lat="45.94384" lon="-0.95776">
        <ele>5.4</ele>
        <time>2022-06-21T12:04:06Z</time>
      </trkpt>
      <trkpt lat="45.94385" lon="-0.95776">
        <ele>5.4</ele>
        <time>2022-06-21T12:04:08Z</time>
      </trkpt>
      <trkpt lat="45.94386" lon="-0.95777">
        <ele>5.4</ele>
        <time>2022-06-21T12:04:09Z</time>
      </trkpt>
      <trkpt lat="45.94387" lon="-0.95778">
        <ele>5.4</ele>
        <time>2022-06-21T12:04:10Z</time>
      </trkpt>
      <trkpt lat="45.94388" lon="-0.95779">
        <ele>5.4</ele>
        <time>2022-06-21T12:04:11Z</time>
      </trkpt>
      <trkpt lat="45.9439" lon="-0.9578">
        <ele>5.4</ele>
        <time>2022-06-21T12:04:12Z</time>
      </trkpt>
      <trkpt lat="45.94392" lon="-0.95782">
        <ele>5.5</ele>
        <time>2022-06-21T12:04:13Z</time>
      </trkpt>
      <trkpt lat="45.94393" lon="-0.95783">
        <ele>5.5</ele>
        <time>2022-06-21T12:04:14Z</time>
      </trkpt>
      <trkpt lat="45.94395" lon="-0.95784">
        <ele>5.5</ele>
        <time>2022-06-21T12:04:16Z</time>
      </trkpt>
      <trkpt lat="45.94396" lon="-0.95785">
        <ele>5.5</ele>
        <time>2022-06-21T12:04:17Z</time>
      </trkpt>
      <trkpt lat="45.94398" lon="-0.95786">
        <ele>5.5</ele>
        <time>2022-06-21T12:04:18Z</time>
      </trkpt>
      <trkpt lat="45.94399" lon="-0.95786">
        <ele>5.5</ele>
        <time>2022-06-21T12:04:19Z</time>
      </trkpt>
      <trkpt lat="45.94401" lon="-0.95787">
        <ele>5.5</ele>
        <time>2022-06-21T12:04:20Z</time>
      </trkpt>
      <trkpt lat="45.94402" lon="-0.95788">
        <ele>5.5</ele>
        <time>2022-06-21T12:04:22Z</time>
      </trkpt>
      <trkpt lat="45.94404" lon="-0.95789">
        <ele>5.5</ele>
        <time>2022-06-21T12:04:23Z</time>
      </trkpt>
      <trkpt lat="45.94405" lon="-0.9579">
        <ele>5.5</ele>
        <time>2022-06-21T12:04:24Z</time>
      </trkpt>
      <trkpt lat="45.94407" lon="-0.95791">
        <ele>5.5</ele>
        <time>2022-06-21T12:04:25Z</time>
      </trkpt>
      <trkpt lat="45.94407" lon="-0.95792">
        <ele>5.5</ele>
        <time>2022-06-21T12:04:26Z</time>
      </trkpt>
      <trkpt lat="45.94408" lon="-0.95793">
        <ele>5.5</ele>
        <time>2022-06-21T12:04:27Z</time>
      </trkpt>
      <trkpt lat="45.94409" lon="-0.95794">
        <ele>5.5</ele>
        <time>2022-06-21T12:04:28Z</time>
      </trkpt>
      <trkpt lat="45.9441" lon="-0.95795">
        <ele>5.5</ele>
        <time>2022-06-21T12:04:29Z</time>
      </trkpt>
      <trkpt lat="45.94411" lon="-0.95796">
        <ele>5.5</ele>
        <time>2022-06-21T12:04:30Z</time>
      </trkpt>
      <trkpt lat="45.94412" lon="-0.95799">
        <ele>5.5</ele>
        <time>2022-06-21T12:04:31Z</time>
      </trkpt>
      <trkpt lat="45.94413" lon="-0.958">
        <ele>5.5</ele>
        <time>2022-06-21T12:04:33Z</time>
      </trkpt>
      <trkpt lat="45.94413" lon="-0.95801">
        <ele>5.5</ele>
        <time>2022-06-21T12:04:34Z</time>
      </trkpt>
      <trkpt lat="45.94414" lon="-0.95804">
        <ele>5.5</ele>
        <time>2022-06-21T12:04:35Z</time>
      </trkpt>
      <trkpt lat="45.94414" lon="-0.95805">
        <ele>5.5</ele>
        <time>2022-06-21T12:04:36Z</time>
      </trkpt>
      <trkpt lat="45.94414" lon="-0.95806">
        <ele>5.5</ele>
        <time>2022-06-21T12:04:37Z</time>
      </trkpt>
      <trkpt lat="45.94415" lon="-0.95808">
        <ele>5.5</ele>
        <time>2022-06-21T12:04:38Z</time>
      </trkpt>
      <trkpt lat="45.94415" lon="-0.9581">
        <ele>5.5</ele>
        <time>2022-06-21T12:04:39Z</time>
      </trkpt>
      <trkpt lat="45.94416" lon="-0.95813">
        <ele>5.5</ele>
        <time>2022-06-21T12:04:41Z</time>
      </trkpt>
      <trkpt lat="45.94416" lon="-0.95814">
        <ele>5.4</ele>
        <time>2022-06-21T12:04:42Z</time>
      </trkpt>
      <trkpt lat="45.94418" lon="-0.95816">
        <ele>5.4</ele>
        <time>2022-06-21T12:04:43Z</time>
      </trkpt>
      <trkpt lat="45.94418" lon="-0.95817">
        <ele>5.4</ele>
        <time>2022-06-21T12:04:44Z</time>
      </trkpt>
      <trkpt lat="45.94419" lon="-0.95818">
        <ele>5.4</ele>
        <time>2022-06-21T12:04:45Z</time>
      </trkpt>
      <trkpt lat="45.9442" lon="-0.95819">
        <ele>5.4</ele>
        <time>2022-06-21T12:04:46Z</time>
      </trkpt>
      <trkpt lat="45.94421" lon="-0.9582">
        <ele>5.4</ele>
        <time>2022-06-21T12:04:48Z</time>
      </trkpt>
      <trkpt lat="45.94423" lon="-0.95822">
        <ele>5.4</ele>
        <time>2022-06-21T12:04:49Z</time>
      </trkpt>
      <trkpt lat="45.94424" lon="-0.95823">
        <ele>5.4</ele>
        <time>2022-06-21T12:04:50Z</time>
      </trkpt>
      <trkpt lat="45.94424" lon="-0.95824">
        <ele>5.4</ele>
        <time>2022-06-21T12:04:51Z</time>
      </trkpt>
      <trkpt lat="45.94426" lon="-0.95826">
        <ele>5.4</ele>
        <time>2022-06-21T12:04:52Z</time>
      </trkpt>
      <trkpt lat="45.94426" lon="-0.95828">
        <ele>5.3</ele>
        <time>2022-06-21T12:04:53Z</time>
      </trkpt>
      <trkpt lat="45.94428" lon="-0.9583">
        <ele>5.3</ele>
        <time>2022-06-21T12:04:55Z</time>
      </trkpt>
      <trkpt lat="45.94429" lon="-0.95832">
        <ele>5.3</ele>
        <time>2022-06-21T12:04:56Z</time>
      </trkpt>
      <trkpt lat="45.94429" lon="-0.95833">
        <ele>5.3</ele>
        <time>2022-06-21T12:04:57Z</time>
      </trkpt>
      <trkpt lat="45.94431" lon="-0.95835">
        <ele>5.4</ele>
        <time>2022-06-21T12:04:58Z</time>
      </trkpt>
      <trkpt lat="45.94432" lon="-0.95836">
        <ele>5.4</ele>
        <time>2022-06-21T12:04:59Z</time>
      </trkpt>
      <trkpt lat="45.94432" lon="-0.95837">
        <ele>5.4</ele>
        <time>2022-06-21T12:05:00Z</time>
      </trkpt>
      <trkpt lat="45.94433" lon="-0.95838">
        <ele>5.4</ele>
        <time>2022-06-21T12:05:01Z</time>
      </trkpt>
      <trkpt lat="45.94434" lon="-0.95839">
        <ele>5.4</ele>
        <time>2022-06-21T12:05:02Z</time>
      </trkpt>
      <trkpt lat="45.94435" lon="-0.9584">
        <ele>5.4</ele>
        <time>2022-06-21T12:05:03Z</time>
      </trkpt>
      <trkpt lat="45.94436" lon="-0.95841">
        <ele>5.4</ele>
        <time>2022-06-21T12:05:04Z</time>
      </trkpt>
      <trkpt lat="45.94437" lon="-0.95842">
        <ele>5.4</ele>
        <time>2022-06-21T12:05:05Z</time>
      </trkpt>
      <trkpt lat="45.94438" lon="-0.95843">
        <ele>5.4</ele>
        <time>2022-06-21T12:05:06Z</time>
      </trkpt>
      <trkpt lat="45.94438" lon="-0.95844">
        <ele>5.4</ele>
        <time>2022-06-21T12:05:07Z</time>
      </trkpt>
      <trkpt lat="45.94439" lon="-0.95844">
        <ele>5.4</ele>
        <time>2022-06-21T12:05:08Z</time>
      </trkpt>
      <trkpt lat="45.9444" lon="-0.95845">
        <ele>5.4</ele>
        <time>2022-06-21T12:05:09Z</time>
      </trkpt>
      <trkpt lat="45.94442" lon="-0.95846">
        <ele>5.5</ele>
        <time>2022-06-21T12:05:10Z</time>
      </trkpt>
      <trkpt lat="45.94443" lon="-0.95847">
        <ele>5.5</ele>
        <time>2022-06-21T12:05:12Z</time>
      </trkpt>
      <trkpt lat="45.94444" lon="-0.95848">
        <ele>5.5</ele>
        <time>2022-06-21T12:05:13Z</time>
      </trkpt>
      <trkpt lat="45.94445" lon="-0.95849">
        <ele>5.5</ele>
        <time>2022-06-21T12:05:14Z</time>
      </trkpt>
      <trkpt lat="45.94446" lon="-0.9585">
        <ele>5.5</ele>
        <time>2022-06-21T12:05:15Z</time>
      </trkpt>
      <trkpt lat="45.94447" lon="-0.95851">
        <ele>5.6</ele>
        <time>2022-06-21T12:05:16Z</time>
      </trkpt>
      <trkpt lat="45.94449" lon="-0.95851">
        <ele>5.6</ele>
        <time>2022-06-21T12:05:17Z</time>
      </trkpt>
      <trkpt lat="45.9445" lon="-0.95852">
        <ele>5.6</ele>
        <time>2022-06-21T12:05:18Z</time>
      </trkpt>
      <trkpt lat="45.94451" lon="-0.95852">
        <ele>5.6</ele>
        <time>2022-06-21T12:05:19Z</time>
      </trkpt>
      <trkpt lat="45.94451" lon="-0.95851">
        <ele>5.6</ele>
        <time>2022-06-21T12:05:20Z</time>
      </trkpt>
      <trkpt lat="45.94451" lon="-0.95849">
        <ele>5.6</ele>
        <time>2022-06-21T12:05:22Z</time>
      </trkpt>
      <trkpt lat="45.9445" lon="-0.95848">
        <ele>5.6</ele>
        <time>2022-06-21T12:05:23Z</time>
      </trkpt>
      <trkpt lat="45.9445" lon="-0.95848">
        <ele>5.6</ele>
        <time>2022-06-21T12:05:24Z</time>
      </trkpt>
      <trkpt lat="45.9445" lon="-0.95848">
        <ele>5.6</ele>
        <time>2022-06-21T12:05:25Z</time>
      </trkpt>
      <trkpt lat="45.94451" lon="-0.95848">
        <ele>5.6</ele>
        <time>2022-06-21T12:05:26Z</time>
      </trkpt>
      <trkpt lat="45.94451" lon="-0.95849">
        <ele>5.6</ele>
        <time>2022-06-21T12:05:27Z</time>
      </trkpt>
      <trkpt lat="45.94453" lon="-0.95849">
        <ele>5.6</ele>
        <time>2022-06-21T12:05:28Z</time>
      </trkpt>
      <trkpt lat="45.94454" lon="-0.9585">
        <ele>5.6</ele>
        <time>2022-06-21T12:05:30Z</time>
      </trkpt>
      <trkpt lat="45.94455" lon="-0.95851">
        <ele>5.6</ele>
        <time>2022-06-21T12:05:31Z</time>
      </trkpt>
      <trkpt lat="45.94455" lon="-0.95852">
        <ele>5.6</ele>
        <time>2022-06-21T12:05:32Z</time>
      </trkpt>
      <trkpt lat="45.94456" lon="-0.95853">
        <ele>5.6</ele>
        <time>2022-06-21T12:05:33Z</time>
      </trkpt>
      <trkpt lat="45.94456" lon="-0.95854">
        <ele>5.6</ele>
        <time>2022-06-21T12:05:34Z</time>
      </trkpt>
      <trkpt lat="45.94456" lon="-0.95855">
        <ele>5.6</ele>
        <time>2022-06-21T12:05:35Z</time>
      </trkpt>
      <trkpt lat="45.94455" lon="-0.95855">
        <ele>5.6</ele>
        <time>2022-06-21T12:05:36Z</time>
      </trkpt>
      <trkpt lat="45.94455" lon="-0.95857">
        <ele>5.6</ele>
        <time>2022-06-21T12:05:38Z</time>
      </trkpt>
      <trkpt lat="45.94455" lon="-0.95857">
        <ele>5.6</ele>
        <time>2022-06-21T12:05:39Z</time>
      </trkpt>
      <trkpt lat="45.94454" lon="-0.95858">
        <ele>5.6</ele>
        <time>2022-06-21T12:05:40Z</time>
      </trkpt>
      <trkpt lat="45.94453" lon="-0.95859">
        <ele>5.6</ele>
        <time>2022-06-21T12:05:41Z</time>
      </trkpt>
      <trkpt lat="45.94452" lon="-0.9586">
        <ele>5.6</ele>
        <time>2022-06-21T12:05:43Z</time>
      </trkpt>
      <trkpt lat="45.94451" lon="-0.95861">
        <ele>5.6</ele>
        <time>2022-06-21T12:05:44Z</time>
      </trkpt>
      <trkpt lat="45.9445" lon="-0.95862">
        <ele>5.6</ele>
        <time>2022-06-21T12:05:45Z</time>
      </trkpt>
      <trkpt lat="45.94449" lon="-0.95864">
        <ele>5.7</ele>
        <time>2022-06-21T12:05:46Z</time>
      </trkpt>
      <trkpt lat="45.94449" lon="-0.95865">
        <ele>5.7</ele>
        <time>2022-06-21T12:05:47Z</time>
      </trkpt>
      <trkpt lat="45.94448" lon="-0.95867">
        <ele>5.7</ele>
        <time>2022-06-21T12:05:48Z</time>
      </trkpt>
      <trkpt lat="45.94447" lon="-0.95868">
        <ele>5.7</ele>
        <time>2022-06-21T12:05:49Z</time>
      </trkpt>
      <trkpt lat="45.94446" lon="-0.9587">
        <ele>5.7</ele>
        <time>2022-06-21T12:05:50Z</time>
      </trkpt>
      <trkpt lat="45.94445" lon="-0.95872">
        <ele>5.7</ele>
        <time>2022-06-21T12:05:52Z</time>
      </trkpt>
      <trkpt lat="45.94443" lon="-0.95874">
        <ele>5.7</ele>
        <time>2022-06-21T12:05:53Z</time>
      </trkpt>
      <trkpt lat="45.94442" lon="-0.95875">
        <ele>5.7</ele>
        <time>2022-06-21T12:05:54Z</time>
      </trkpt>
      <trkpt lat="45.94441" lon="-0.95877">
        <ele>5.7</ele>
        <time>2022-06-21T12:05:55Z</time>
      </trkpt>
      <trkpt lat="45.9444" lon="-0.95879">
        <ele>5.7</ele>
        <time>2022-06-21T12:05:56Z</time>
      </trkpt>
      <trkpt lat="45.94439" lon="-0.95881">
        <ele>5.7</ele>
        <time>2022-06-21T12:05:58Z</time>
      </trkpt>
      <trkpt lat="45.94438" lon="-0.95883">
        <ele>5.8</ele>
        <time>2022-06-21T12:05:59Z</time>
      </trkpt>
      <trkpt lat="45.94436" lon="-0.95884">
        <ele>5.8</ele>
        <time>2022-06-21T12:06:00Z</time>
      </trkpt>
      <trkpt lat="45.94435" lon="-0.95886">
        <ele>5.8</ele>
        <time>2022-06-21T12:06:01Z</time>
      </trkpt>
      <trkpt lat="45.94434" lon="-0.95888">
        <ele>5.8</ele>
        <time>2022-06-21T12:06:02Z</time>
      </trkpt>
      <trkpt lat="45.94432" lon="-0.95889">
        <ele>5.8</ele>
        <time>2022-06-21T12:06:04Z</time>
      </trkpt>
      <trkpt lat="45.94432" lon="-0.95891">
        <ele>5.8</ele>
        <time>2022-06-21T12:06:05Z</time>
      </trkpt>
      <trkpt lat="45.94431" lon="-0.95892">
        <ele>5.8</ele>
        <time>2022-06-21T12:06:06Z</time>
      </trkpt>
      <trkpt lat="45.9443" lon="-0.95893">
        <ele>5.8</ele>
        <time>2022-06-21T12:06:07Z</time>
      </trkpt>
      <trkpt lat="45.94429" lon="-0.95894">
        <ele>5.8</ele>
        <time>2022-06-21T12:06:08Z</time>
      </trkpt>
      <trkpt lat="45.94428" lon="-0.95895">
        <ele>5.8</ele>
        <time>2022-06-21T12:06:09Z</time>
      </trkpt>
      <trkpt lat="45.94427" lon="-0.95895">
        <ele>5.8</ele>
        <time>2022-06-21T12:06:10Z</time>
      </trkpt>
      <trkpt lat="45.94427" lon="-0.95894">
        <ele>5.8</ele>
        <time>2022-06-21T12:06:11Z</time>
      </trkpt>
      <trkpt lat="45.94426" lon="-0.95893">
        <ele>5.8</ele>
        <time>2022-06-21T12:06:12Z</time>
      </trkpt>
      <trkpt lat="45.94426" lon="-0.95891">
        <ele>5.8</ele>
        <time>2022-06-21T12:06:13Z</time>
      </trkpt>
      <trkpt lat="45.94425" lon="-0.95889">
        <ele>5.8</ele>
        <time>2022-06-21T12:06:14Z</time>
      </trkpt>
      <trkpt lat="45.94425" lon="-0.95888">
        <ele>5.8</ele>
        <time>2022-06-21T12:06:15Z</time>
      </trkpt>
      <trkpt lat="45.94424" lon="-0.95885">
        <ele>5.8</ele>
        <time>2022-06-21T12:06:17Z</time>
      </trkpt>
      <trkpt lat="45.94423" lon="-0.95883">
        <ele>5.8</ele>
        <time>2022-06-21T12:06:18Z</time>
      </trkpt>
      <trkpt lat="45.94423" lon="-0.9588">
        <ele>5.8</ele>
        <time>2022-06-21T12:06:19Z</time>
      </trkpt>
      <trkpt lat="45.94421" lon="-0.95878">
        <ele>5.8</ele>
        <time>2022-06-21T12:06:20Z</time>
      </trkpt>
      <trkpt lat="45.94421" lon="-0.95877">
        <ele>5.8</ele>
        <time>2022-06-21T12:06:22Z</time>
      </trkpt>
      <trkpt lat="45.9442" lon="-0.95876">
        <ele>5.8</ele>
        <time>2022-06-21T12:06:23Z</time>
      </trkpt>
      <trkpt lat="45.94419" lon="-0.95875">
        <ele>5.8</ele>
        <time>2022-06-21T12:06:24Z</time>
      </trkpt>
      <trkpt lat="45.94418" lon="-0.95874">
        <ele>5.8</ele>
        <time>2022-06-21T12:06:25Z</time>
      </trkpt>
      <trkpt lat="45.94417" lon="-0.95873">
        <ele>5.8</ele>
        <time>2022-06-21T12:06:26Z</time>
      </trkpt>
      <trkpt lat="45.94416" lon="-0.95871">
        <ele>5.8</ele>
        <time>2022-06-21T12:06:28Z</time>
      </trkpt>
      <trkpt lat="45.94414" lon="-0.95869">
        <ele>5.7</ele>
        <time>2022-06-21T12:06:29Z</time>
      </trkpt>
      <trkpt lat="45.94413" lon="-0.95869">
        <ele>5.7</ele>
        <time>2022-06-21T12:06:30Z</time>
      </trkpt>
      <trkpt lat="45.94411" lon="-0.95868">
        <ele>5.7</ele>
        <time>2022-06-21T12:06:31Z</time>
      </trkpt>
      <trkpt lat="45.94411" lon="-0.95867">
        <ele>5.7</ele>
        <time>2022-06-21T12:06:32Z</time>
      </trkpt>
      <trkpt lat="45.9441" lon="-0.95866">
        <ele>5.7</ele>
        <time>2022-06-21T12:06:33Z</time>
      </trkpt>
      <trkpt lat="45.94409" lon="-0.95866">
        <ele>5.7</ele>
        <time>2022-06-21T12:06:34Z</time>
      </trkpt>
      <trkpt lat="45.94408" lon="-0.95865">
        <ele>5.7</ele>
        <time>2022-06-21T12:06:35Z</time>
      </trkpt>
      <trkpt lat="45.94408" lon="-0.95865">
        <ele>5.7</ele>
        <time>2022-06-21T12:06:36Z</time>
      </trkpt>
      <trkpt lat="45.94408" lon="-0.95864">
        <ele>5.7</ele>
        <time>2022-06-21T12:06:37Z</time>
      </trkpt>
      <trkpt lat="45.94408" lon="-0.95863">
        <ele>5.7</ele>
        <time>2022-06-21T12:06:38Z</time>
      </trkpt>
      <trkpt lat="45.94408" lon="-0.95863">
        <ele>5.7</ele>
        <time>2022-06-21T12:06:39Z</time>
      </trkpt>
      <trkpt lat="45.94409" lon="-0.95863">
        <ele>5.7</ele>
        <time>2022-06-21T12:06:40Z</time>
      </trkpt>
      <trkpt lat="45.94409" lon="-0.95863">
        <ele>5.7</ele>
        <time>2022-06-21T12:06:41Z</time>
      </trkpt>
      <trkpt lat="45.94409" lon="-0.95863">
        <ele>5.7</ele>
        <time>2022-06-21T12:06:42Z</time>
      </trkpt>
      <trkpt lat="45.94409" lon="-0.95863">
        <ele>5.7</ele>
        <time>2022-06-21T12:06:43Z</time>
      </trkpt>
      <trkpt lat="45.94409" lon="-0.95863">
        <ele>5.7</ele>
        <time>2022-06-21T12:06:44Z</time>
      </trkpt>
      <trkpt lat="45.94409" lon="-0.95863">
        <ele>5.7</ele>
        <time>2022-06-21T12:06:45Z</time>
      </trkpt>
      <trkpt lat="45.94409" lon="-0.95863">
        <ele>5.7</ele>
        <time>2022-06-21T12:06:46Z</time>
      </trkpt>
      <trkpt lat="45.94409" lon="-0.95863">
        <ele>5.7</ele>
        <time>2022-06-21T12:06:47Z</time>
      </trkpt>
      <trkpt lat="45.94409" lon="-0.95863">
        <ele>5.7</ele>
        <time>2022-06-21T12:06:48Z</time>
      </trkpt>
      <trkpt lat="45.94409" lon="-0.95863">
        <ele>5.7</ele>
        <time>2022-06-21T12:06:49Z</time>
      </trkpt>
      <trkpt lat="45.94409" lon="-0.95863">
        <ele>5.7</ele>
        <time>2022-06-21T12:06:50Z</time>
      </trkpt>
      <trkpt lat="45.94409" lon="-0.95863">
        <ele>5.7</ele>
        <time>2022-06-21T12:06:51Z</time>
      </trkpt>
      <trkpt lat="45.94409" lon="-0.95863">
        <ele>5.7</ele>
        <time>2022-06-21T12:06:52Z</time>
      </trkpt>
      <trkpt lat="45.94409" lon="-0.95863">
        <ele>5.7</ele>
        <time>2022-06-21T12:06:54Z</time>
      </trkpt>
      <trkpt lat="45.94409" lon="-0.95863">
        <ele>5.7</ele>
        <time>2022-06-21T12:06:55Z</time>
      </trkpt>
      <trkpt lat="45.94409" lon="-0.95863">
        <ele>5.7</ele>
        <time>2022-06-21T12:06:56Z</time>
      </trkpt>
      <trkpt lat="45.94409" lon="-0.95863">
        <ele>5.7</ele>
        <time>2022-06-21T12:06:57Z</time>
      </trkpt>
      <trkpt lat="45.94409" lon="-0.95863">
        <ele>5.7</ele>
        <time>2022-06-21T12:06:58Z</time>
      </trkpt>
      <trkpt lat="45.94409" lon="-0.95863">
        <ele>5.7</ele>
        <time>2022-06-21T12:06:59Z</time>
      </trkpt>
      <trkpt lat="45.94409" lon="-0.95863">
        <ele>5.7</ele>
        <time>2022-06-21T12:07:00Z</time>
      </trkpt>
      <trkpt lat="45.9441" lon="-0.95863">
        <ele>5.7</ele>
        <time>2022-06-21T12:07:01Z</time>
      </trkpt>
      <trkpt lat="45.9441" lon="-0.95863">
        <ele>5.7</ele>
        <time>2022-06-21T12:07:02Z</time>
      </trkpt>
      <trkpt lat="45.9441" lon="-0.95863">
        <ele>5.7</ele>
        <time>2022-06-21T12:07:03Z</time>
      </trkpt>
      <trkpt lat="45.9441" lon="-0.95863">
        <ele>5.7</ele>
        <time>2022-06-21T12:07:04Z</time>
      </trkpt>
      <trkpt lat="45.9441" lon="-0.95863">
        <ele>5.7</ele>
        <time>2022-06-21T12:07:05Z</time>
      </trkpt>
      <trkpt lat="45.9441" lon="-0.95863">
        <ele>5.7</ele>
        <time>2022-06-21T12:07:06Z</time>
      </trkpt>
      <trkpt lat="45.9441" lon="-0.95863">
        <ele>5.7</ele>
        <time>2022-06-21T12:07:07Z</time>
      </trkpt>
      <trkpt lat="45.9441" lon="-0.95863">
        <ele>5.7</ele>
        <time>2022-06-21T12:07:08Z</time>
      </trkpt>
      <trkpt lat="45.9441" lon="-0.95863">
        <ele>5.7</ele>
        <time>2022-06-21T12:07:09Z</time>
      </trkpt>
      <trkpt lat="45.9441" lon="-0.95863">
        <ele>5.7</ele>
        <time>2022-06-21T12:07:10Z</time>
      </trkpt>
      <trkpt lat="45.9441" lon="-0.95863">
        <ele>5.7</ele>
        <time>2022-06-21T12:07:11Z</time>
      </trkpt>
      <trkpt lat="45.9441" lon="-0.95863">
        <ele>5.7</ele>
        <time>2022-06-21T12:07:12Z</time>
      </trkpt>
      <trkpt lat="45.9441" lon="-0.95863">
        <ele>5.7</ele>
        <time>2022-06-21T12:07:13Z</time>
      </trkpt>
      <trkpt lat="45.9441" lon="-0.95863">
        <ele>5.7</ele>
        <time>2022-06-21T12:07:14Z</time>
      </trkpt>
      <trkpt lat="45.9441" lon="-0.95863">
        <ele>5.7</ele>
        <time>2022-06-21T12:07:15Z</time>
      </trkpt>
      <trkpt lat="45.9441" lon="-0.95863">
        <ele>5.7</ele>
        <time>2022-06-21T12:07:16Z</time>
      </trkpt>
      <trkpt lat="45.9441" lon="-0.95863">
        <ele>5.7</ele>
        <time>2022-06-21T12:07:17Z</time>
      </trkpt>
      <trkpt lat="45.9441" lon="-0.95863">
        <ele>5.7</ele>
        <time>2022-06-21T12:07:18Z</time>
      </trkpt>
      <trkpt lat="45.9441" lon="-0.95863">
        <ele>5.7</ele>
        <time>2022-06-21T12:07:19Z</time>
      </trkpt>
      <trkpt lat="45.9441" lon="-0.95863">
        <ele>5.7</ele>
        <time>2022-06-21T12:07:20Z</time>
      </trkpt>
      <trkpt lat="45.9441" lon="-0.95863">
        <ele>5.7</ele>
        <time>2022-06-21T12:07:21Z</time>
      </trkpt>
      <trkpt lat="45.9441" lon="-0.95863">
        <ele>5.7</ele>
        <time>2022-06-21T12:07:22Z</time>
      </trkpt>
      <trkpt lat="45.9441" lon="-0.95863">
        <ele>5.7</ele>
        <time>2022-06-21T12:07:23Z</time>
      </trkpt>
      <trkpt lat="45.9441" lon="-0.95863">
        <ele>5.7</ele>
        <time>2022-06-21T12:07:24Z</time>
      </trkpt>
      <trkpt lat="45.9441" lon="-0.95863">
        <ele>5.7</ele>
        <time>2022-06-21T12:07:25Z</time>
      </trkpt>
      <trkpt lat="45.9441" lon="-0.95863">
        <ele>5.7</ele>
        <time>2022-06-21T12:07:26Z</time>
      </trkpt>
      <trkpt lat="45.9441" lon="-0.95863">
        <ele>5.7</ele>
        <time>2022-06-21T12:07:27Z</time>
      </trkpt>
      <trkpt lat="45.9441" lon="-0.95863">
        <ele>5.7</ele>
        <time>2022-06-21T12:07:28Z</time>
      </trkpt>
      <trkpt lat="45.9441" lon="-0.95863">
        <ele>5.7</ele>
        <time>2022-06-21T12:07:29Z</time>
      </trkpt>
      <trkpt lat="45.9441" lon="-0.95863">
        <ele>5.7</ele>
        <time>2022-06-21T12:07:30Z</time>
      </trkpt>
      <trkpt lat="45.9441" lon="-0.95863">
        <ele>5.7</ele>
        <time>2022-06-21T12:07:31Z</time>
      </trkpt>
      <trkpt lat="45.9441" lon="-0.95863">
        <ele>5.7</ele>
        <time>2022-06-21T12:07:32Z</time>
      </trkpt>
      <trkpt lat="45.9441" lon="-0.95863">
        <ele>5.7</ele>
        <time>2022-06-21T12:07:33Z</time>
      </trkpt>
      <trkpt lat="45.9441" lon="-0.95863">
        <ele>5.7</ele>
        <time>2022-06-21T12:07:34Z</time>
      </trkpt>
      <trkpt lat="45.9441" lon="-0.95863">
        <ele>5.7</ele>
        <time>2022-06-21T12:07:35Z</time>
      </trkpt>
      <trkpt lat="45.9441" lon="-0.95863">
        <ele>5.7</ele>
        <time>2022-06-21T12:07:36Z</time>
      </trkpt>
      <trkpt lat="45.9441" lon="-0.95863">
        <ele>5.7</ele>
        <time>2022-06-21T12:07:37Z</time>
      </trkpt>
      <trkpt lat="45.9441" lon="-0.95863">
        <ele>5.7</ele>
        <time>2022-06-21T12:07:38Z</time>
      </trkpt>
      <trkpt lat="45.9441" lon="-0.95863">
        <ele>5.7</ele>
        <time>2022-06-21T12:07:39Z</time>
      </trkpt>
      <trkpt lat="45.9441" lon="-0.95863">
        <ele>5.7</ele>
        <time>2022-06-21T12:07:40Z</time>
      </trkpt>
      <trkpt lat="45.9441" lon="-0.95863">
        <ele>5.7</ele>
        <time>2022-06-21T12:07:41Z</time>
      </trkpt>
      <trkpt lat="45.9441" lon="-0.95863">
        <ele>5.7</ele>
        <time>2022-06-21T12:07:42Z</time>
      </trkpt>
      <trkpt lat="45.9441" lon="-0.95863">
        <ele>5.7</ele>
        <time>2022-06-21T12:07:43Z</time>
      </trkpt>
      <trkpt lat="45.9441" lon="-0.95863">
        <ele>5.7</ele>
        <time>2022-06-21T12:07:44Z</time>
      </trkpt>
      <trkpt lat="45.9441" lon="-0.95863">
        <ele>5.7</ele>
        <time>2022-06-21T12:07:45Z</time>
      </trkpt>
      <trkpt lat="45.9441" lon="-0.95863">
        <ele>5.7</ele>
        <time>2022-06-21T12:07:46Z</time>
      </trkpt>
      <trkpt lat="45.9441" lon="-0.95863">
        <ele>5.7</ele>
        <time>2022-06-21T12:07:47Z</time>
      </trkpt>
      <trkpt lat="45.9441" lon="-0.95863">
        <ele>5.7</ele>
        <time>2022-06-21T12:07:48Z</time>
      </trkpt>
      <trkpt lat="45.9441" lon="-0.95863">
        <ele>5.7</ele>
        <time>2022-06-21T12:07:49Z</time>
      </trkpt>
      <trkpt lat="45.9441" lon="-0.95863">
        <ele>5.7</ele>
        <time>2022-06-21T12:07:50Z</time>
      </trkpt>
      <trkpt lat="45.9441" lon="-0.95863">
        <ele>5.7</ele>
        <time>2022-06-21T12:07:51Z</time>
      </trkpt>
      <trkpt lat="45.9441" lon="-0.95863">
        <ele>5.7</ele>
        <time>2022-06-21T12:07:52Z</time>
      </trkpt>
      <trkpt lat="45.9441" lon="-0.95863">
        <ele>5.7</ele>
        <time>2022-06-21T12:07:53Z</time>
      </trkpt>
      <trkpt lat="45.9441" lon="-0.95863">
        <ele>5.7</ele>
        <time>2022-06-21T12:07:54Z</time>
      </trkpt>
      <trkpt lat="45.9441" lon="-0.95863">
        <ele>5.7</ele>
        <time>2022-06-21T12:07:55Z</time>
      </trkpt>
      <trkpt lat="45.9441" lon="-0.95863">
        <ele>5.7</ele>
        <time>2022-06-21T12:07:56Z</time>
      </trkpt>
      <trkpt lat="45.9441" lon="-0.95863">
        <ele>5.7</ele>
        <time>2022-06-21T12:07:57Z</time>
      </trkpt>
      <trkpt lat="45.9441" lon="-0.95863">
        <ele>5.7</ele>
        <time>2022-06-21T12:07:58Z</time>
      </trkpt>
      <trkpt lat="45.9441" lon="-0.95863">
        <ele>5.7</ele>
        <time>2022-06-21T12:07:59Z</time>
      </trkpt>
      <trkpt lat="45.9441" lon="-0.95863">
        <ele>5.7</ele>
        <time>2022-06-21T12:08:00Z</time>
      </trkpt>
      <trkpt lat="45.9441" lon="-0.95863">
        <ele>5.7</ele>
        <time>2022-06-21T12:08:01Z</time>
      </trkpt>
      <trkpt lat="45.9441" lon="-0.95863">
        <ele>5.7</ele>
        <time>2022-06-21T12:08:02Z</time>
      </trkpt>
      <trkpt lat="45.9441" lon="-0.95863">
        <ele>5.7</ele>
        <time>2022-06-21T12:08:03Z</time>
      </trkpt>
      <trkpt lat="45.9441" lon="-0.95863">
        <ele>5.7</ele>
        <time>2022-06-21T12:08:04Z</time>
      </trkpt>
      <trkpt lat="45.9441" lon="-0.95863">
        <ele>5.7</ele>
        <time>2022-06-21T12:08:05Z</time>
      </trkpt>
      <trkpt lat="45.9441" lon="-0.95863">
        <ele>5.7</ele>
        <time>2022-06-21T12:08:06Z</time>
      </trkpt>
      <trkpt lat="45.9441" lon="-0.95863">
        <ele>5.7</ele>
        <time>2022-06-21T12:08:07Z</time>
      </trkpt>
      <trkpt lat="45.9441" lon="-0.95863">
        <ele>5.7</ele>
        <time>2022-06-21T12:08:08Z</time>
      </trkpt>
      <trkpt lat="45.9441" lon="-0.95863">
        <ele>5.7</ele>
        <time>2022-06-21T12:08:09Z</time>
      </trkpt>
      <trkpt lat="45.9441" lon="-0.95863">
        <ele>5.7</ele>
        <time>2022-06-21T12:08:10Z</time>
      </trkpt>
      <trkpt lat="45.9441" lon="-0.95863">
        <ele>5.7</ele>
        <time>2022-06-21T12:08:11Z</time>
      </trkpt>
      <trkpt lat="45.9441" lon="-0.95863">
        <ele>5.7</ele>
        <time>2022-06-21T12:08:12Z</time>
      </trkpt>
      <trkpt lat="45.9441" lon="-0.95863">
        <ele>5.7</ele>
        <time>2022-06-21T12:08:13Z</time>
      </trkpt>
      <trkpt lat="45.9441" lon="-0.95863">
        <ele>5.7</ele>
        <time>2022-06-21T12:08:15Z</time>
      </trkpt>
      <trkpt lat="45.9441" lon="-0.95863">
        <ele>5.7</ele>
        <time>2022-06-21T12:08:16Z</time>
      </trkpt>
      <trkpt lat="45.9441" lon="-0.95863">
        <ele>5.7</ele>
        <time>2022-06-21T12:08:17Z</time>
      </trkpt>
      <trkpt lat="45.9441" lon="-0.95863">
        <ele>5.7</ele>
        <time>2022-06-21T12:08:18Z</time>
      </trkpt>
      <trkpt lat="45.9441" lon="-0.95863">
        <ele>5.7</ele>
        <time>2022-06-21T12:08:19Z</time>
      </trkpt>
      <trkpt lat="45.9441" lon="-0.95863">
        <ele>5.7</ele>
        <time>2022-06-21T12:08:20Z</time>
      </trkpt>
      <trkpt lat="45.9441" lon="-0.95863">
        <ele>5.7</ele>
        <time>2022-06-21T12:08:21Z</time>
      </trkpt>
      <trkpt lat="45.9441" lon="-0.95863">
        <ele>5.7</ele>
        <time>2022-06-21T12:08:22Z</time>
      </trkpt>
      <trkpt lat="45.9441" lon="-0.95863">
        <ele>5.7</ele>
        <time>2022-06-21T12:08:23Z</time>
      </trkpt>
      <trkpt lat="45.9441" lon="-0.95863">
        <ele>5.7</ele>
        <time>2022-06-21T12:08:24Z</time>
      </trkpt>
      <trkpt lat="45.9441" lon="-0.95863">
        <ele>5.7</ele>
        <time>2022-06-21T12:08:25Z</time>
      </trkpt>
      <trkpt lat="45.9441" lon="-0.95863">
        <ele>5.7</ele>
        <time>2022-06-21T12:08:26Z</time>
      </trkpt>
      <trkpt lat="45.9441" lon="-0.95863">
        <ele>5.7</ele>
        <time>2022-06-21T12:08:27Z</time>
      </trkpt>
      <trkpt lat="45.9441" lon="-0.95863">
        <ele>5.7</ele>
        <time>2022-06-21T12:08:28Z</time>
      </trkpt>
      <trkpt lat="45.9441" lon="-0.95863">
        <ele>5.7</ele>
        <time>2022-06-21T12:08:29Z</time>
      </trkpt>
      <trkpt lat="45.9441" lon="-0.95863">
        <ele>5.7</ele>
        <time>2022-06-21T12:08:30Z</time>
      </trkpt>
      <trkpt lat="45.9441" lon="-0.95863">
        <ele>5.7</ele>
        <time>2022-06-21T12:08:31Z</time>
      </trkpt>
      <trkpt lat="45.9441" lon="-0.95863">
        <ele>5.7</ele>
        <time>2022-06-21T12:08:32Z</time>
      </trkpt>
      <trkpt lat="45.9441" lon="-0.95863">
        <ele>5.7</ele>
        <time>2022-06-21T12:08:33Z</time>
      </trkpt>
      <trkpt lat="45.9441" lon="-0.95863">
        <ele>5.7</ele>
        <time>2022-06-21T12:08:34Z</time>
      </trkpt>
      <trkpt lat="45.9441" lon="-0.95863">
        <ele>5.7</ele>
        <time>2022-06-21T12:08:35Z</time>
      </trkpt>
      <trkpt lat="45.9441" lon="-0.95863">
        <ele>5.7</ele>
        <time>2022-06-21T12:08:36Z</time>
      </trkpt>
      <trkpt lat="45.9441" lon="-0.95863">
        <ele>5.7</ele>
        <time>2022-06-21T12:08:37Z</time>
      </trkpt>
      <trkpt lat="45.9441" lon="-0.95863">
        <ele>5.7</ele>
        <time>2022-06-21T12:08:38Z</time>
      </trkpt>
      <trkpt lat="45.9441" lon="-0.95863">
        <ele>5.7</ele>
        <time>2022-06-21T12:08:39Z</time>
      </trkpt>
      <trkpt lat="45.9441" lon="-0.95863">
        <ele>5.7</ele>
        <time>2022-06-21T12:08:40Z</time>
      </trkpt>
      <trkpt lat="45.9441" lon="-0.95863">
        <ele>5.7</ele>
        <time>2022-06-21T12:08:41Z</time>
      </trkpt>
      <trkpt lat="45.9441" lon="-0.95863">
        <ele>5.7</ele>
        <time>2022-06-21T12:08:42Z</time>
      </trkpt>
      <trkpt lat="45.9441" lon="-0.95863">
        <ele>5.7</ele>
        <time>2022-06-21T12:08:43Z</time>
      </trkpt>
      <trkpt lat="45.9441" lon="-0.95863">
        <ele>5.7</ele>
        <time>2022-06-21T12:08:44Z</time>
      </trkpt>
      <trkpt lat="45.9441" lon="-0.95863">
        <ele>5.7</ele>
        <time>2022-06-21T12:08:45Z</time>
      </trkpt>
      <trkpt lat="45.9441" lon="-0.95863">
        <ele>5.7</ele>
        <time>2022-06-21T12:08:46Z</time>
      </trkpt>
      <trkpt lat="45.9441" lon="-0.95863">
        <ele>5.7</ele>
        <time>2022-06-21T12:08:47Z</time>
      </trkpt>
      <trkpt lat="45.9441" lon="-0.95863">
        <ele>5.7</ele>
        <time>2022-06-21T12:08:48Z</time>
      </trkpt>
      <trkpt lat="45.9441" lon="-0.95863">
        <ele>5.7</ele>
        <time>2022-06-21T12:08:49Z</time>
      </trkpt>
      <trkpt lat="45.9441" lon="-0.95863">
        <ele>5.7</ele>
        <time>2022-06-21T12:08:50Z</time>
      </trkpt>
      <trkpt lat="45.9441" lon="-0.95863">
        <ele>5.7</ele>
        <time>2022-06-21T12:08:51Z</time>
      </trkpt>
      <trkpt lat="45.9441" lon="-0.95863">
        <ele>5.7</ele>
        <time>2022-06-21T12:08:52Z</time>
      </trkpt>
      <trkpt lat="45.9441" lon="-0.95863">
        <ele>5.7</ele>
        <time>2022-06-21T12:08:53Z</time>
      </trkpt>
      <trkpt lat="45.9441" lon="-0.95863">
        <ele>5.7</ele>
        <time>2022-06-21T12:08:54Z</time>
      </trkpt>
      <trkpt lat="45.9441" lon="-0.95863">
        <ele>5.7</ele>
        <time>2022-06-21T12:08:55Z</time>
      </trkpt>
      <trkpt lat="45.9441" lon="-0.95863">
        <ele>5.7</ele>
        <time>2022-06-21T12:08:56Z</time>
      </trkpt>
      <trkpt lat="45.9441" lon="-0.95863">
        <ele>5.7</ele>
        <time>2022-06-21T12:08:57Z</time>
      </trkpt>
      <trkpt lat="45.9441" lon="-0.95863">
        <ele>5.7</ele>
        <time>2022-06-21T12:08:58Z</time>
      </trkpt>
      <trkpt lat="45.9441" lon="-0.95863">
        <ele>5.7</ele>
        <time>2022-06-21T12:08:59Z</time>
      </trkpt>
      <trkpt lat="45.9441" lon="-0.95863">
        <ele>5.7</ele>
        <time>2022-06-21T12:09:00Z</time>
      </trkpt>
      <trkpt lat="45.9441" lon="-0.95863">
        <ele>5.7</ele>
        <time>2022-06-21T12:09:01Z</time>
      </trkpt>
      <trkpt lat="45.9441" lon="-0.95863">
        <ele>5.7</ele>
        <time>2022-06-21T12:09:02Z</time>
      </trkpt>
      <trkpt lat="45.9441" lon="-0.95863">
        <ele>5.7</ele>
        <time>2022-06-21T12:09:03Z</time>
      </trkpt>
      <trkpt lat="45.9441" lon="-0.95863">
        <ele>5.7</ele>
        <time>2022-06-21T12:09:04Z</time>
      </trkpt>
      <trkpt lat="45.9441" lon="-0.95863">
        <ele>5.7</ele>
        <time>2022-06-21T12:09:05Z</time>
      </trkpt>
      <trkpt lat="45.9441" lon="-0.95863">
        <ele>5.7</ele>
        <time>2022-06-21T12:09:06Z</time>
      </trkpt>
      <trkpt lat="45.9441" lon="-0.95863">
        <ele>5.7</ele>
        <time>2022-06-21T12:09:07Z</time>
      </trkpt>
      <trkpt lat="45.9441" lon="-0.95863">
        <ele>5.7</ele>
        <time>2022-06-21T12:09:08Z</time>
      </trkpt>
      <trkpt lat="45.9441" lon="-0.95863">
        <ele>5.7</ele>
        <time>2022-06-21T12:09:09Z</time>
      </trkpt>
      <trkpt lat="45.9441" lon="-0.95863">
        <ele>5.7</ele>
        <time>2022-06-21T12:09:10Z</time>
      </trkpt>
      <trkpt lat="45.9441" lon="-0.95863">
        <ele>5.7</ele>
        <time>2022-06-21T12:09:11Z</time>
      </trkpt>
      <trkpt lat="45.9441" lon="-0.95863">
        <ele>5.7</ele>
        <time>2022-06-21T12:09:12Z</time>
      </trkpt>
      <trkpt lat="45.9441" lon="-0.95863">
        <ele>5.7</ele>
        <time>2022-06-21T12:09:13Z</time>
      </trkpt>
      <trkpt lat="45.9441" lon="-0.95863">
        <ele>5.7</ele>
        <time>2022-06-21T12:09:14Z</time>
      </trkpt>
      <trkpt lat="45.9441" lon="-0.95863">
        <ele>5.7</ele>
        <time>2022-06-21T12:09:15Z</time>
      </trkpt>
      <trkpt lat="45.9441" lon="-0.95863">
        <ele>5.7</ele>
        <time>2022-06-21T12:09:16Z</time>
      </trkpt>
      <trkpt lat="45.9441" lon="-0.95863">
        <ele>5.7</ele>
        <time>2022-06-21T12:09:17Z</time>
      </trkpt>
      <trkpt lat="45.9441" lon="-0.95863">
        <ele>5.7</ele>
        <time>2022-06-21T12:09:18Z</time>
      </trkpt>
      <trkpt lat="45.9441" lon="-0.95863">
        <ele>5.7</ele>
        <time>2022-06-21T12:09:19Z</time>
      </trkpt>
      <trkpt lat="45.9441" lon="-0.95863">
        <ele>5.7</ele>
        <time>2022-06-21T12:09:20Z</time>
      </trkpt>
      <trkpt lat="45.9441" lon="-0.95863">
        <ele>5.7</ele>
        <time>2022-06-21T12:09:21Z</time>
      </trkpt>
      <trkpt lat="45.9441" lon="-0.95863">
        <ele>5.7</ele>
        <time>2022-06-21T12:09:22Z</time>
      </trkpt>
      <trkpt lat="45.9441" lon="-0.95863">
        <ele>5.7</ele>
        <time>2022-06-21T12:09:23Z</time>
      </trkpt>
      <trkpt lat="45.9441" lon="-0.95863">
        <ele>5.7</ele>
        <time>2022-06-21T12:09:24Z</time>
      </trkpt>
      <trkpt lat="45.9441" lon="-0.95863">
        <ele>5.7</ele>
        <time>2022-06-21T12:09:25Z</time>
      </trkpt>
      <trkpt lat="45.9441" lon="-0.95863">
        <ele>5.7</ele>
        <time>2022-06-21T12:09:26Z</time>
      </trkpt>
      <trkpt lat="45.9441" lon="-0.95863">
        <ele>5.7</ele>
        <time>2022-06-21T12:09:27Z</time>
      </trkpt>
      <trkpt lat="45.9441" lon="-0.95863">
        <ele>5.7</ele>
        <time>2022-06-21T12:09:28Z</time>
      </trkpt>
      <trkpt lat="45.9441" lon="-0.95863">
        <ele>5.7</ele>
        <time>2022-06-21T12:09:29Z</time>
      </trkpt>
      <trkpt lat="45.9441" lon="-0.95863">
        <ele>5.7</ele>
        <time>2022-06-21T12:09:30Z</time>
      </trkpt>
      <trkpt lat="45.9441" lon="-0.95863">
        <ele>5.7</ele>
        <time>2022-06-21T12:09:31Z</time>
      </trkpt>
      <trkpt lat="45.9441" lon="-0.95863">
        <ele>5.7</ele>
        <time>2022-06-21T12:09:32Z</time>
      </trkpt>
      <trkpt lat="45.9441" lon="-0.95863">
        <ele>5.7</ele>
        <time>2022-06-21T12:09:33Z</time>
      </trkpt>
      <trkpt lat="45.9441" lon="-0.95863">
        <ele>5.7</ele>
        <time>2022-06-21T12:09:34Z</time>
      </trkpt>
      <trkpt lat="45.9441" lon="-0.95863">
        <ele>5.7</ele>
        <time>2022-06-21T12:09:35Z</time>
      </trkpt>
      <trkpt lat="45.9441" lon="-0.95863">
        <ele>5.7</ele>
        <time>2022-06-21T12:09:36Z</time>
      </trkpt>
      <trkpt lat="45.9441" lon="-0.95863">
        <ele>5.7</ele>
        <time>2022-06-21T12:09:37Z</time>
      </trkpt>
      <trkpt lat="45.9441" lon="-0.95863">
        <ele>5.7</ele>
        <time>2022-06-21T12:09:38Z</time>
      </trkpt>
      <trkpt lat="45.9441" lon="-0.95863">
        <ele>5.7</ele>
        <time>2022-06-21T12:09:39Z</time>
      </trkpt>
      <trkpt lat="45.9441" lon="-0.95863">
        <ele>5.7</ele>
        <time>2022-06-21T12:09:40Z</time>
      </trkpt>
      <trkpt lat="45.9441" lon="-0.95863">
        <ele>5.7</ele>
        <time>2022-06-21T12:09:41Z</time>
      </trkpt>
      <trkpt lat="45.9441" lon="-0.95863">
        <ele>5.7</ele>
        <time>2022-06-21T12:09:42Z</time>
      </trkpt>
      <trkpt lat="45.9441" lon="-0.95863">
        <ele>5.7</ele>
        <time>2022-06-21T12:09:43Z</time>
      </trkpt>
      <trkpt lat="45.9441" lon="-0.95863">
        <ele>5.7</ele>
        <time>2022-06-21T12:09:44Z</time>
      </trkpt>
      <trkpt lat="45.9441" lon="-0.95863">
        <ele>5.7</ele>
        <time>2022-06-21T12:09:45Z</time>
      </trkpt>
      <trkpt lat="45.9441" lon="-0.95863">
        <ele>5.7</ele>
        <time>2022-06-21T12:09:46Z</time>
      </trkpt>
      <trkpt lat="45.9441" lon="-0.95863">
        <ele>5.7</ele>
        <time>2022-06-21T12:09:47Z</time>
      </trkpt>
      <trkpt lat="45.9441" lon="-0.95863">
        <ele>5.7</ele>
        <time>2022-06-21T12:09:48Z</time>
      </trkpt>
      <trkpt lat="45.9441" lon="-0.95863">
        <ele>5.7</ele>
        <time>2022-06-21T12:09:49Z</time>
      </trkpt>
      <trkpt lat="45.9441" lon="-0.95863">
        <ele>5.7</ele>
        <time>2022-06-21T12:09:50Z</time>
      </trkpt>
      <trkpt lat="45.9441" lon="-0.95863">
        <ele>5.7</ele>
        <time>2022-06-21T12:09:51Z</time>
      </trkpt>
      <trkpt lat="45.9441" lon="-0.95863">
        <ele>5.7</ele>
        <time>2022-06-21T12:09:52Z</time>
      </trkpt>
      <trkpt lat="45.9441" lon="-0.95863">
        <ele>5.7</ele>
        <time>2022-06-21T12:09:53Z</time>
      </trkpt>
      <trkpt lat="45.9441" lon="-0.95863">
        <ele>5.7</ele>
        <time>2022-06-21T12:09:54Z</time>
      </trkpt>
      <trkpt lat="45.9441" lon="-0.95863">
        <ele>5.7</ele>
        <time>2022-06-21T12:09:55Z</time>
      </trkpt>
      <trkpt lat="45.9441" lon="-0.95863">
        <ele>5.7</ele>
        <time>2022-06-21T12:09:56Z</time>
      </trkpt>
      <trkpt lat="45.9441" lon="-0.95863">
        <ele>5.7</ele>
        <time>2022-06-21T12:09:57Z</time>
      </trkpt>
      <trkpt lat="45.9441" lon="-0.95863">
        <ele>5.7</ele>
        <time>2022-06-21T12:09:58Z</time>
      </trkpt>
      <trkpt lat="45.9441" lon="-0.95863">
        <ele>5.7</ele>
        <time>2022-06-21T12:09:59Z</time>
      </trkpt>
      <trkpt lat="45.9441" lon="-0.95863">
        <ele>5.7</ele>
        <time>2022-06-21T12:10:00Z</time>
      </trkpt>
      <trkpt lat="45.9441" lon="-0.95863">
        <ele>5.7</ele>
        <time>2022-06-21T12:10:01Z</time>
      </trkpt>
      <trkpt lat="45.9441" lon="-0.95863">
        <ele>5.7</ele>
        <time>2022-06-21T12:10:02Z</time>
      </trkpt>
      <trkpt lat="45.9441" lon="-0.95863">
        <ele>5.7</ele>
        <time>2022-06-21T12:10:03Z</time>
      </trkpt>
      <trkpt lat="45.9441" lon="-0.95863">
        <ele>5.7</ele>
        <time>2022-06-21T12:10:04Z</time>
      </trkpt>
      <trkpt lat="45.9441" lon="-0.95863">
        <ele>5.7</ele>
        <time>2022-06-21T12:10:05Z</time>
      </trkpt>
      <trkpt lat="45.9441" lon="-0.95863">
        <ele>5.7</ele>
        <time>2022-06-21T12:10:06Z</time>
      </trkpt>
      <trkpt lat="45.9441" lon="-0.95863">
        <ele>5.7</ele>
        <time>2022-06-21T12:10:07Z</time>
      </trkpt>
      <trkpt lat="45.9441" lon="-0.95863">
        <ele>5.7</ele>
        <time>2022-06-21T12:10:08Z</time>
      </trkpt>
      <trkpt lat="45.9441" lon="-0.95863">
        <ele>5.7</ele>
        <time>2022-06-21T12:10:09Z</time>
      </trkpt>
      <trkpt lat="45.9441" lon="-0.95863">
        <ele>5.7</ele>
        <time>2022-06-21T12:10:10Z</time>
      </trkpt>
      <trkpt lat="45.9441" lon="-0.95863">
        <ele>5.7</ele>
        <time>2022-06-21T12:10:11Z</time>
      </trkpt>
      <trkpt lat="45.9441" lon="-0.95863">
        <ele>5.7</ele>
        <time>2022-06-21T12:10:12Z</time>
      </trkpt>
      <trkpt lat="45.9441" lon="-0.95863">
        <ele>5.7</ele>
        <time>2022-06-21T12:10:13Z</time>
      </trkpt>
      <trkpt lat="45.9441" lon="-0.95863">
        <ele>5.7</ele>
        <time>2022-06-21T12:10:14Z</time>
      </trkpt>
      <trkpt lat="45.9441" lon="-0.95863">
        <ele>5.7</ele>
        <time>2022-06-21T12:10:15Z</time>
      </trkpt>
      <trkpt lat="45.9441" lon="-0.95863">
        <ele>5.7</ele>
        <time>2022-06-21T12:10:16Z</time>
      </trkpt>
      <trkpt lat="45.9441" lon="-0.95863">
        <ele>5.7</ele>
        <time>2022-06-21T12:10:17Z</time>
      </trkpt>
      <trkpt lat="45.9441" lon="-0.95863">
        <ele>5.7</ele>
        <time>2022-06-21T12:10:18Z</time>
      </trkpt>
      <trkpt lat="45.9441" lon="-0.95863">
        <ele>5.7</ele>
        <time>2022-06-21T12:10:19Z</time>
      </trkpt>
      <trkpt lat="45.9441" lon="-0.95863">
        <ele>5.7</ele>
        <time>2022-06-21T12:10:20Z</time>
      </trkpt>
      <trkpt lat="45.94411" lon="-0.95863">
        <ele>5.7</ele>
        <time>2022-06-21T12:10:21Z</time>
      </trkpt>
      <trkpt lat="45.94411" lon="-0.95863">
        <ele>5.7</ele>
        <time>2022-06-21T12:10:22Z</time>
      </trkpt>
      <trkpt lat="45.94411" lon="-0.95863">
        <ele>5.7</ele>
        <time>2022-06-21T12:10:23Z</time>
      </trkpt>
      <trkpt lat="45.94411" lon="-0.95863">
        <ele>5.7</ele>
        <time>2022-06-21T12:10:24Z</time>
      </trkpt>
      <trkpt lat="45.94411" lon="-0.95863">
        <ele>5.7</ele>
        <time>2022-06-21T12:10:25Z</time>
      </trkpt>
      <trkpt lat="45.94411" lon="-0.95863">
        <ele>5.7</ele>
        <time>2022-06-21T12:10:26Z</time>
      </trkpt>
      <trkpt lat="45.94411" lon="-0.95863">
        <ele>5.7</ele>
        <time>2022-06-21T12:10:27Z</time>
      </trkpt>
      <trkpt lat="45.94411" lon="-0.95863">
        <ele>5.7</ele>
        <time>2022-06-21T12:10:28Z</time>
      </trkpt>
      <trkpt lat="45.94411" lon="-0.95863">
        <ele>5.7</ele>
        <time>2022-06-21T12:10:29Z</time>
      </trkpt>
      <trkpt lat="45.94411" lon="-0.95863">
        <ele>5.7</ele>
        <time>2022-06-21T12:10:30Z</time>
      </trkpt>
      <trkpt lat="45.94411" lon="-0.95863">
        <ele>5.7</ele>
        <time>2022-06-21T12:10:31Z</time>
      </trkpt>
      <trkpt lat="45.94411" lon="-0.95863">
        <ele>5.7</ele>
        <time>2022-06-21T12:10:32Z</time>
      </trkpt>
      <trkpt lat="45.94411" lon="-0.95863">
        <ele>5.7</ele>
        <time>2022-06-21T12:10:33Z</time>
      </trkpt>
      <trkpt lat="45.94411" lon="-0.95863">
        <ele>5.7</ele>
        <time>2022-06-21T12:10:34Z</time>
      </trkpt>
      <trkpt lat="45.94411" lon="-0.95863">
        <ele>5.7</ele>
        <time>2022-06-21T12:10:35Z</time>
      </trkpt>
      <trkpt lat="45.94411" lon="-0.95863">
        <ele>5.7</ele>
        <time>2022-06-21T12:10:36Z</time>
      </trkpt>
      <trkpt lat="45.94411" lon="-0.95863">
        <ele>5.7</ele>
        <time>2022-06-21T12:10:37Z</time>
      </trkpt>
      <trkpt lat="45.94411" lon="-0.95863">
        <ele>5.7</ele>
        <time>2022-06-21T12:10:38Z</time>
      </trkpt>
      <trkpt lat="45.94411" lon="-0.95863">
        <ele>5.7</ele>
        <time>2022-06-21T12:10:39Z</time>
      </trkpt>
      <trkpt lat="45.94411" lon="-0.95863">
        <ele>5.7</ele>
        <time>2022-06-21T12:10:40Z</time>
      </trkpt>
      <trkpt lat="45.94411" lon="-0.95863">
        <ele>5.7</ele>
        <time>2022-06-21T12:10:41Z</time>
      </trkpt>
      <trkpt lat="45.94411" lon="-0.95863">
        <ele>5.7</ele>
        <time>2022-06-21T12:10:42Z</time>
      </trkpt>
      <trkpt lat="45.94411" lon="-0.95863">
        <ele>5.7</ele>
        <time>2022-06-21T12:10:43Z</time>
      </trkpt>
      <trkpt lat="45.94411" lon="-0.95863">
        <ele>5.7</ele>
        <time>2022-06-21T12:10:44Z</time>
      </trkpt>
      <trkpt lat="45.94411" lon="-0.95863">
        <ele>5.7</ele>
        <time>2022-06-21T12:10:45Z</time>
      </trkpt>
      <trkpt lat="45.94411" lon="-0.95864">
        <ele>5.7</ele>
        <time>2022-06-21T12:10:46Z</time>
      </trkpt>
      <trkpt lat="45.94411" lon="-0.95864">
        <ele>5.7</ele>
        <time>2022-06-21T12:10:47Z</time>
      </trkpt>
      <trkpt lat="45.94411" lon="-0.95864">
        <ele>5.7</ele>
        <time>2022-06-21T12:10:48Z</time>
      </trkpt>
      <trkpt lat="45.94411" lon="-0.95864">
        <ele>5.7</ele>
        <time>2022-06-21T12:10:49Z</time>
      </trkpt>
      <trkpt lat="45.94411" lon="-0.95864">
        <ele>5.7</ele>
        <time>2022-06-21T12:10:50Z</time>
      </trkpt>
      <trkpt lat="45.94411" lon="-0.95864">
        <ele>5.7</ele>
        <time>2022-06-21T12:10:51Z</time>
      </trkpt>
      <trkpt lat="45.94411" lon="-0.95864">
        <ele>5.7</ele>
        <time>2022-06-21T12:10:52Z</time>
      </trkpt>
      <trkpt lat="45.94411" lon="-0.95864">
        <ele>5.7</ele>
        <time>2022-06-21T12:10:53Z</time>
      </trkpt>
      <trkpt lat="45.94411" lon="-0.95864">
        <ele>5.7</ele>
        <time>2022-06-21T12:10:54Z</time>
      </trkpt>
      <trkpt lat="45.94411" lon="-0.95864">
        <ele>5.7</ele>
        <time>2022-06-21T12:10:55Z</time>
      </trkpt>
      <trkpt lat="45.94411" lon="-0.95864">
        <ele>5.7</ele>
        <time>2022-06-21T12:10:56Z</time>
      </trkpt>
      <trkpt lat="45.94411" lon="-0.95864">
        <ele>5.7</ele>
        <time>2022-06-21T12:10:57Z</time>
      </trkpt>
      <trkpt lat="45.94411" lon="-0.95864">
        <ele>5.7</ele>
        <time>2022-06-21T12:10:58Z</time>
      </trkpt>
      <trkpt lat="45.94411" lon="-0.95864">
        <ele>5.7</ele>
        <time>2022-06-21T12:10:59Z</time>
      </trkpt>
      <trkpt lat="45.94411" lon="-0.95864">
        <ele>5.7</ele>
        <time>2022-06-21T12:11:00Z</time>
      </trkpt>
      <trkpt lat="45.94411" lon="-0.95864">
        <ele>5.7</ele>
        <time>2022-06-21T12:11:01Z</time>
      </trkpt>
      <trkpt lat="45.94411" lon="-0.95864">
        <ele>5.7</ele>
        <time>2022-06-21T12:11:02Z</time>
      </trkpt>
      <trkpt lat="45.94411" lon="-0.95864">
        <ele>5.7</ele>
        <time>2022-06-21T12:11:03Z</time>
      </trkpt>
      <trkpt lat="45.94411" lon="-0.95864">
        <ele>5.7</ele>
        <time>2022-06-21T12:11:04Z</time>
      </trkpt>
      <trkpt lat="45.94411" lon="-0.95864">
        <ele>5.7</ele>
        <time>2022-06-21T12:11:05Z</time>
      </trkpt>
      <trkpt lat="45.94411" lon="-0.95864">
        <ele>5.7</ele>
        <time>2022-06-21T12:11:06Z</time>
      </trkpt>
      <trkpt lat="45.94411" lon="-0.95864">
        <ele>5.7</ele>
        <time>2022-06-21T12:11:07Z</time>
      </trkpt>
      <trkpt lat="45.94411" lon="-0.95864">
        <ele>5.7</ele>
        <time>2022-06-21T12:11:08Z</time>
      </trkpt>
      <trkpt lat="45.94411" lon="-0.95864">
        <ele>5.7</ele>
        <time>2022-06-21T12:11:09Z</time>
      </trkpt>
      <trkpt lat="45.94411" lon="-0.95864">
        <ele>5.7</ele>
        <time>2022-06-21T12:11:10Z</time>
      </trkpt>
      <trkpt lat="45.94411" lon="-0.95864">
        <ele>5.7</ele>
        <time>2022-06-21T12:11:11Z</time>
      </trkpt>
      <trkpt lat="45.94411" lon="-0.95864">
        <ele>5.7</ele>
        <time>2022-06-21T12:11:12Z</time>
      </trkpt>
      <trkpt lat="45.94411" lon="-0.95864">
        <ele>5.7</ele>
        <time>2022-06-21T12:11:13Z</time>
      </trkpt>
      <trkpt lat="45.94411" lon="-0.95864">
        <ele>5.7</ele>
        <time>2022-06-21T12:11:14Z</time>
      </trkpt>
      <trkpt lat="45.94411" lon="-0.95864">
        <ele>5.7</ele>
        <time>2022-06-21T12:11:15Z</time>
      </trkpt>
      <trkpt lat="45.94411" lon="-0.95864">
        <ele>5.7</ele>
        <time>2022-06-21T12:11:16Z</time>
      </trkpt>
      <trkpt lat="45.94411" lon="-0.95864">
        <ele>5.7</ele>
        <time>2022-06-21T12:11:17Z</time>
      </trkpt>
      <trkpt lat="45.94411" lon="-0.95864">
        <ele>5.7</ele>
        <time>2022-06-21T12:11:18Z</time>
      </trkpt>
      <trkpt lat="45.94411" lon="-0.95864">
        <ele>5.7</ele>
        <time>2022-06-21T12:11:19Z</time>
      </trkpt>
      <trkpt lat="45.94411" lon="-0.95864">
        <ele>5.7</ele>
        <time>2022-06-21T12:11:20Z</time>
      </trkpt>
      <trkpt lat="45.94411" lon="-0.95864">
        <ele>5.7</ele>
        <time>2022-06-21T12:11:21Z</time>
      </trkpt>
      <trkpt lat="45.94411" lon="-0.95864">
        <ele>5.7</ele>
        <time>2022-06-21T12:11:22Z</time>
      </trkpt>
      <trkpt lat="45.94411" lon="-0.95864">
        <ele>5.7</ele>
        <time>2022-06-21T12:11:23Z</time>
      </trkpt>
      <trkpt lat="45.94411" lon="-0.95864">
        <ele>5.7</ele>
        <time>2022-06-21T12:11:24Z</time>
      </trkpt>
      <trkpt lat="45.94411" lon="-0.95864">
        <ele>5.7</ele>
        <time>2022-06-21T12:11:25Z</time>
      </trkpt>
      <trkpt lat="45.94411" lon="-0.95864">
        <ele>5.7</ele>
        <time>2022-06-21T12:11:26Z</time>
      </trkpt>
      <trkpt lat="45.94411" lon="-0.95864">
        <ele>5.7</ele>
        <time>2022-06-21T12:11:27Z</time>
      </trkpt>
      <trkpt lat="45.94411" lon="-0.95864">
        <ele>5.7</ele>
        <time>2022-06-21T12:11:28Z</time>
      </trkpt>
      <trkpt lat="45.94411" lon="-0.95864">
        <ele>5.7</ele>
        <time>2022-06-21T12:11:29Z</time>
      </trkpt>
      <trkpt lat="45.94411" lon="-0.95864">
        <ele>5.7</ele>
        <time>2022-06-21T12:11:30Z</time>
      </trkpt>
      <trkpt lat="45.94411" lon="-0.95864">
        <ele>5.7</ele>
        <time>2022-06-21T12:11:31Z</time>
      </trkpt>
      <trkpt lat="45.94411" lon="-0.95864">
        <ele>5.7</ele>
        <time>2022-06-21T12:11:32Z</time>
      </trkpt>
      <trkpt lat="45.94411" lon="-0.95864">
        <ele>5.7</ele>
        <time>2022-06-21T12:11:33Z</time>
      </trkpt>
      <trkpt lat="45.94411" lon="-0.95864">
        <ele>5.7</ele>
        <time>2022-06-21T12:11:34Z</time>
      </trkpt>
      <trkpt lat="45.94411" lon="-0.95864">
        <ele>5.7</ele>
        <time>2022-06-21T12:11:35Z</time>
      </trkpt>
      <trkpt lat="45.94411" lon="-0.95864">
        <ele>5.7</ele>
        <time>2022-06-21T12:11:36Z</time>
      </trkpt>
      <trkpt lat="45.94411" lon="-0.95864">
        <ele>5.7</ele>
        <time>2022-06-21T12:11:37Z</time>
      </trkpt>
      <trkpt lat="45.94411" lon="-0.95864">
        <ele>5.7</ele>
        <time>2022-06-21T12:11:38Z</time>
      </trkpt>
      <trkpt lat="45.94411" lon="-0.95864">
        <ele>5.7</ele>
        <time>2022-06-21T12:11:39Z</time>
      </trkpt>
      <trkpt lat="45.94411" lon="-0.95864">
        <ele>5.7</ele>
        <time>2022-06-21T12:11:40Z</time>
      </trkpt>
      <trkpt lat="45.94411" lon="-0.95864">
        <ele>5.7</ele>
        <time>2022-06-21T12:11:41Z</time>
      </trkpt>
      <trkpt lat="45.94411" lon="-0.95864">
        <ele>5.7</ele>
        <time>2022-06-21T12:11:42Z</time>
      </trkpt>
      <trkpt lat="45.94411" lon="-0.95864">
        <ele>5.7</ele>
        <time>2022-06-21T12:11:43Z</time>
      </trkpt>
      <trkpt lat="45.94411" lon="-0.95864">
        <ele>5.7</ele>
        <time>2022-06-21T12:11:44Z</time>
      </trkpt>
      <trkpt lat="45.94411" lon="-0.95864">
        <ele>5.7</ele>
        <time>2022-06-21T12:11:45Z</time>
      </trkpt>
      <trkpt lat="45.94411" lon="-0.95864">
        <ele>5.7</ele>
        <time>2022-06-21T12:11:46Z</time>
      </trkpt>
      <trkpt lat="45.94411" lon="-0.95864">
        <ele>5.7</ele>
        <time>2022-06-21T12:11:47Z</time>
      </trkpt>
      <trkpt lat="45.94411" lon="-0.95864">
        <ele>5.7</ele>
        <time>2022-06-21T12:11:48Z</time>
      </trkpt>
      <trkpt lat="45.94411" lon="-0.95864">
        <ele>5.7</ele>
        <time>2022-06-21T12:11:49Z</time>
      </trkpt>
      <trkpt lat="45.94411" lon="-0.95864">
        <ele>5.7</ele>
        <time>2022-06-21T12:11:50Z</time>
      </trkpt>
      <trkpt lat="45.94411" lon="-0.95864">
        <ele>5.7</ele>
        <time>2022-06-21T12:11:51Z</time>
      </trkpt>
      <trkpt lat="45.94411" lon="-0.95864">
        <ele>5.7</ele>
        <time>2022-06-21T12:11:52Z</time>
      </trkpt>
      <trkpt lat="45.94411" lon="-0.95864">
        <ele>5.7</ele>
        <time>2022-06-21T12:11:53Z</time>
      </trkpt>
      <trkpt lat="45.94411" lon="-0.95864">
        <ele>5.7</ele>
        <time>2022-06-21T12:11:54Z</time>
      </trkpt>
      <trkpt lat="45.94411" lon="-0.95864">
        <ele>5.7</ele>
        <time>2022-06-21T12:11:55Z</time>
      </trkpt>
      <trkpt lat="45.94411" lon="-0.95864">
        <ele>5.7</ele>
        <time>2022-06-21T12:11:56Z</time>
      </trkpt>
      <trkpt lat="45.94411" lon="-0.95864">
        <ele>5.7</ele>
        <time>2022-06-21T12:11:57Z</time>
      </trkpt>
      <trkpt lat="45.94411" lon="-0.95864">
        <ele>5.7</ele>
        <time>2022-06-21T12:11:58Z</time>
      </trkpt>
      <trkpt lat="45.94411" lon="-0.95864">
        <ele>5.7</ele>
        <time>2022-06-21T12:11:59Z</time>
      </trkpt>
      <trkpt lat="45.94411" lon="-0.95864">
        <ele>5.7</ele>
        <time>2022-06-21T12:12:00Z</time>
      </trkpt>
      <trkpt lat="45.94411" lon="-0.95864">
        <ele>5.7</ele>
        <time>2022-06-21T12:12:01Z</time>
      </trkpt>
      <trkpt lat="45.94411" lon="-0.95864">
        <ele>5.7</ele>
        <time>2022-06-21T12:12:02Z</time>
      </trkpt>
      <trkpt lat="45.94411" lon="-0.95864">
        <ele>5.7</ele>
        <time>2022-06-21T12:12:03Z</time>
      </trkpt>
      <trkpt lat="45.94411" lon="-0.95864">
        <ele>5.7</ele>
        <time>2022-06-21T12:12:04Z</time>
      </trkpt>
      <trkpt lat="45.94411" lon="-0.95864">
        <ele>5.7</ele>
        <time>2022-06-21T12:12:05Z</time>
      </trkpt>
      <trkpt lat="45.94411" lon="-0.95864">
        <ele>5.7</ele>
        <time>2022-06-21T12:12:06Z</time>
      </trkpt>
      <trkpt lat="45.94411" lon="-0.95864">
        <ele>5.7</ele>
        <time>2022-06-21T12:12:07Z</time>
      </trkpt>
      <trkpt lat="45.94411" lon="-0.95864">
        <ele>5.7</ele>
        <time>2022-06-21T12:12:08Z</time>
      </trkpt>
      <trkpt lat="45.94411" lon="-0.95864">
        <ele>5.7</ele>
        <time>2022-06-21T12:12:09Z</time>
      </trkpt>
      <trkpt lat="45.94411" lon="-0.95864">
        <ele>5.7</ele>
        <time>2022-06-21T12:12:10Z</time>
      </trkpt>
      <trkpt lat="45.94411" lon="-0.95864">
        <ele>5.7</ele>
        <time>2022-06-21T12:12:11Z</time>
      </trkpt>
      <trkpt lat="45.94411" lon="-0.95864">
        <ele>5.7</ele>
        <time>2022-06-21T12:12:12Z</time>
      </trkpt>
      <trkpt lat="45.94411" lon="-0.95864">
        <ele>5.7</ele>
        <time>2022-06-21T12:12:13Z</time>
      </trkpt>
      <trkpt lat="45.94411" lon="-0.95864">
        <ele>5.7</ele>
        <time>2022-06-21T12:12:14Z</time>
      </trkpt>
      <trkpt lat="45.94411" lon="-0.95864">
        <ele>5.7</ele>
        <time>2022-06-21T12:12:15Z</time>
      </trkpt>
      <trkpt lat="45.94411" lon="-0.95864">
        <ele>5.7</ele>
        <time>2022-06-21T12:12:16Z</time>
      </trkpt>
      <trkpt lat="45.94411" lon="-0.95864">
        <ele>5.7</ele>
        <time>2022-06-21T12:12:17Z</time>
      </trkpt>
      <trkpt lat="45.94411" lon="-0.95864">
        <ele>5.7</ele>
        <time>2022-06-21T12:12:18Z</time>
      </trkpt>
      <trkpt lat="45.94411" lon="-0.95864">
        <ele>5.7</ele>
        <time>2022-06-21T12:12:19Z</time>
      </trkpt>
      <trkpt lat="45.94411" lon="-0.95864">
        <ele>5.7</ele>
        <time>2022-06-21T12:12:20Z</time>
      </trkpt>
      <trkpt lat="45.94411" lon="-0.95864">
        <ele>5.7</ele>
        <time>2022-06-21T12:12:21Z</time>
      </trkpt>
      <trkpt lat="45.94411" lon="-0.95864">
        <ele>5.7</ele>
        <time>2022-06-21T12:12:22Z</time>
      </trkpt>
      <trkpt lat="45.94411" lon="-0.95864">
        <ele>5.7</ele>
        <time>2022-06-21T12:12:23Z</time>
      </trkpt>
      <trkpt lat="45.94411" lon="-0.95864">
        <ele>5.7</ele>
        <time>2022-06-21T12:12:24Z</time>
      </trkpt>
      <trkpt lat="45.94411" lon="-0.95864">
        <ele>5.7</ele>
        <time>2022-06-21T12:12:25Z</time>
      </trkpt>
      <trkpt lat="45.94411" lon="-0.95864">
        <ele>5.7</ele>
        <time>2022-06-21T12:12:26Z</time>
      </trkpt>
      <trkpt lat="45.94411" lon="-0.95864">
        <ele>5.7</ele>
        <time>2022-06-21T12:12:27Z</time>
      </trkpt>
      <trkpt lat="45.94411" lon="-0.95864">
        <ele>5.7</ele>
        <time>2022-06-21T12:12:28Z</time>
      </trkpt>
      <trkpt lat="45.94411" lon="-0.95864">
        <ele>5.7</ele>
        <time>2022-06-21T12:12:29Z</time>
      </trkpt>
      <trkpt lat="45.94411" lon="-0.95864">
        <ele>5.7</ele>
        <time>2022-06-21T12:12:30Z</time>
      </trkpt>
      <trkpt lat="45.94411" lon="-0.95864">
        <ele>5.7</ele>
        <time>2022-06-21T12:12:31Z</time>
      </trkpt>
      <trkpt lat="45.94411" lon="-0.95864">
        <ele>5.7</ele>
        <time>2022-06-21T12:12:32Z</time>
      </trkpt>
      <trkpt lat="45.94411" lon="-0.95864">
        <ele>5.7</ele>
        <time>2022-06-21T12:12:33Z</time>
      </trkpt>
      <trkpt lat="45.94411" lon="-0.95864">
        <ele>5.7</ele>
        <time>2022-06-21T12:12:34Z</time>
      </trkpt>
      <trkpt lat="45.94411" lon="-0.95864">
        <ele>5.7</ele>
        <time>2022-06-21T12:12:35Z</time>
      </trkpt>
      <trkpt lat="45.94411" lon="-0.95864">
        <ele>5.7</ele>
        <time>2022-06-21T12:12:36Z</time>
      </trkpt>
      <trkpt lat="45.94411" lon="-0.95864">
        <ele>5.7</ele>
        <time>2022-06-21T12:12:37Z</time>
      </trkpt>
      <trkpt lat="45.94411" lon="-0.95864">
        <ele>5.7</ele>
        <time>2022-06-21T12:12:38Z</time>
      </trkpt>
      <trkpt lat="45.94411" lon="-0.95864">
        <ele>5.7</ele>
        <time>2022-06-21T12:12:39Z</time>
      </trkpt>
      <trkpt lat="45.94411" lon="-0.95864">
        <ele>5.7</ele>
        <time>2022-06-21T12:12:40Z</time>
      </trkpt>
      <trkpt lat="45.94411" lon="-0.95864">
        <ele>5.7</ele>
        <time>2022-06-21T12:12:41Z</time>
      </trkpt>
      <trkpt lat="45.94411" lon="-0.95864">
        <ele>5.7</ele>
        <time>2022-06-21T12:12:42Z</time>
      </trkpt>
      <trkpt lat="45.94411" lon="-0.95864">
        <ele>5.7</ele>
        <time>2022-06-21T12:12:43Z</time>
      </trkpt>
      <trkpt lat="45.94411" lon="-0.95864">
        <ele>5.7</ele>
        <time>2022-06-21T12:12:44Z</time>
      </trkpt>
      <trkpt lat="45.94411" lon="-0.95864">
        <ele>5.7</ele>
        <time>2022-06-21T12:12:45Z</time>
      </trkpt>
      <trkpt lat="45.94411" lon="-0.95864">
        <ele>5.7</ele>
        <time>2022-06-21T12:12:46Z</time>
      </trkpt>
      <trkpt lat="45.94411" lon="-0.95864">
        <ele>5.7</ele>
        <time>2022-06-21T12:12:47Z</time>
      </trkpt>
      <trkpt lat="45.94411" lon="-0.95864">
        <ele>5.7</ele>
        <time>2022-06-21T12:12:48Z</time>
      </trkpt>
      <trkpt lat="45.94411" lon="-0.95864">
        <ele>5.7</ele>
        <time>2022-06-21T12:12:49Z</time>
      </trkpt>
      <trkpt lat="45.94411" lon="-0.95864">
        <ele>5.7</ele>
        <time>2022-06-21T12:12:50Z</time>
      </trkpt>
      <trkpt lat="45.94411" lon="-0.95864">
        <ele>5.7</ele>
        <time>2022-06-21T12:12:51Z</time>
      </trkpt>
      <trkpt lat="45.94411" lon="-0.95864">
        <ele>5.7</ele>
        <time>2022-06-21T12:12:52Z</time>
      </trkpt>
      <trkpt lat="45.94411" lon="-0.95864">
        <ele>5.7</ele>
        <time>2022-06-21T12:12:53Z</time>
      </trkpt>
      <trkpt lat="45.94411" lon="-0.95864">
        <ele>5.7</ele>
        <time>2022-06-21T12:12:54Z</time>
      </trkpt>
      <trkpt lat="45.94411" lon="-0.95864">
        <ele>5.7</ele>
        <time>2022-06-21T12:12:55Z</time>
      </trkpt>
      <trkpt lat="45.94411" lon="-0.95864">
        <ele>5.7</ele>
        <time>2022-06-21T12:12:56Z</time>
      </trkpt>
      <trkpt lat="45.94411" lon="-0.95864">
        <ele>5.7</ele>
        <time>2022-06-21T12:12:57Z</time>
      </trkpt>
      <trkpt lat="45.94411" lon="-0.95864">
        <ele>5.7</ele>
        <time>2022-06-21T12:12:58Z</time>
      </trkpt>
      <trkpt lat="45.94411" lon="-0.95864">
        <ele>5.7</ele>
        <time>2022-06-21T12:12:59Z</time>
      </trkpt>
      <trkpt lat="45.94411" lon="-0.95864">
        <ele>5.7</ele>
        <time>2022-06-21T12:13:00Z</time>
      </trkpt>
      <trkpt lat="45.94411" lon="-0.95864">
        <ele>5.7</ele>
        <time>2022-06-21T12:13:01Z</time>
      </trkpt>
      <trkpt lat="45.94411" lon="-0.95864">
        <ele>5.7</ele>
        <time>2022-06-21T12:13:02Z</time>
      </trkpt>
      <trkpt lat="45.94411" lon="-0.95864">
        <ele>5.7</ele>
        <time>2022-06-21T12:13:03Z</time>
      </trkpt>
      <trkpt lat="45.94411" lon="-0.95864">
        <ele>5.7</ele>
        <time>2022-06-21T12:13:04Z</time>
      </trkpt>
      <trkpt lat="45.94411" lon="-0.95864">
        <ele>5.7</ele>
        <time>2022-06-21T12:13:05Z</time>
      </trkpt>
      <trkpt lat="45.94411" lon="-0.95864">
        <ele>5.7</ele>
        <time>2022-06-21T12:13:06Z</time>
      </trkpt>
      <trkpt lat="45.94411" lon="-0.95864">
        <ele>5.7</ele>
        <time>2022-06-21T12:13:07Z</time>
      </trkpt>
      <trkpt lat="45.94411" lon="-0.95864">
        <ele>5.7</ele>
        <time>2022-06-21T12:13:08Z</time>
      </trkpt>
      <trkpt lat="45.94411" lon="-0.95864">
        <ele>5.7</ele>
        <time>2022-06-21T12:13:09Z</time>
      </trkpt>
      <trkpt lat="45.94411" lon="-0.95864">
        <ele>5.7</ele>
        <time>2022-06-21T12:13:10Z</time>
      </trkpt>
      <trkpt lat="45.94411" lon="-0.95864">
        <ele>5.7</ele>
        <time>2022-06-21T12:13:11Z</time>
      </trkpt>
      <trkpt lat="45.94411" lon="-0.95864">
        <ele>5.7</ele>
        <time>2022-06-21T12:13:12Z</time>
      </trkpt>
      <trkpt lat="45.94411" lon="-0.95864">
        <ele>5.7</ele>
        <time>2022-06-21T12:13:13Z</time>
      </trkpt>
      <trkpt lat="45.94411" lon="-0.95864">
        <ele>5.7</ele>
        <time>2022-06-21T12:13:14Z</time>
      </trkpt>
      <trkpt lat="45.94411" lon="-0.95864">
        <ele>5.7</ele>
        <time>2022-06-21T12:13:15Z</time>
      </trkpt>
      <trkpt lat="45.94411" lon="-0.95864">
        <ele>5.7</ele>
        <time>2022-06-21T12:13:16Z</time>
      </trkpt>
      <trkpt lat="45.94411" lon="-0.95864">
        <ele>5.7</ele>
        <time>2022-06-21T12:13:17Z</time>
      </trkpt>
      <trkpt lat="45.94411" lon="-0.95864">
        <ele>5.7</ele>
        <time>2022-06-21T12:13:18Z</time>
      </trkpt>
      <trkpt lat="45.94411" lon="-0.95864">
        <ele>5.7</ele>
        <time>2022-06-21T12:13:19Z</time>
      </trkpt>
      <trkpt lat="45.94411" lon="-0.95864">
        <ele>5.7</ele>
        <time>2022-06-21T12:13:20Z</time>
      </trkpt>
      <trkpt lat="45.94411" lon="-0.95864">
        <ele>5.7</ele>
        <time>2022-06-21T12:13:21Z</time>
      </trkpt>
      <trkpt lat="45.94411" lon="-0.95864">
        <ele>5.7</ele>
        <time>2022-06-21T12:13:22Z</time>
      </trkpt>
      <trkpt lat="45.94411" lon="-0.95864">
        <ele>5.7</ele>
        <time>2022-06-21T12:13:23Z</time>
      </trkpt>
      <trkpt lat="45.94411" lon="-0.95864">
        <ele>5.7</ele>
        <time>2022-06-21T12:13:24Z</time>
      </trkpt>
      <trkpt lat="45.94411" lon="-0.95864">
        <ele>5.7</ele>
        <time>2022-06-21T12:13:25Z</time>
      </trkpt>
      <trkpt lat="45.94411" lon="-0.95864">
        <ele>5.7</ele>
        <time>2022-06-21T12:13:26Z</time>
      </trkpt>
      <trkpt lat="45.94411" lon="-0.95864">
        <ele>5.7</ele>
        <time>2022-06-21T12:13:27Z</time>
      </trkpt>
      <trkpt lat="45.94411" lon="-0.95864">
        <ele>5.7</ele>
        <time>2022-06-21T12:13:28Z</time>
      </trkpt>
      <trkpt lat="45.94411" lon="-0.95864">
        <ele>5.7</ele>
        <time>2022-06-21T12:13:29Z</time>
      </trkpt>
      <trkpt lat="45.94411" lon="-0.95864">
        <ele>5.7</ele>
        <time>2022-06-21T12:13:30Z</time>
      </trkpt>
      <trkpt lat="45.94411" lon="-0.95864">
        <ele>5.7</ele>
        <time>2022-06-21T12:13:31Z</time>
      </trkpt>
      <trkpt lat="45.94411" lon="-0.95864">
        <ele>5.7</ele>
        <time>2022-06-21T12:13:32Z</time>
      </trkpt>
      <trkpt lat="45.94411" lon="-0.95864">
        <ele>5.7</ele>
        <time>2022-06-21T12:13:33Z</time>
      </trkpt>
      <trkpt lat="45.94411" lon="-0.95864">
        <ele>5.7</ele>
        <time>2022-06-21T12:13:34Z</time>
      </trkpt>
      <trkpt lat="45.94411" lon="-0.95864">
        <ele>5.7</ele>
        <time>2022-06-21T12:13:35Z</time>
      </trkpt>
      <trkpt lat="45.94411" lon="-0.95864">
        <ele>5.7</ele>
        <time>2022-06-21T12:13:36Z</time>
      </trkpt>
      <trkpt lat="45.94411" lon="-0.95864">
        <ele>5.7</ele>
        <time>2022-06-21T12:13:37Z</time>
      </trkpt>
      <trkpt lat="45.94411" lon="-0.95864">
        <ele>5.7</ele>
        <time>2022-06-21T12:13:38Z</time>
      </trkpt>
      <trkpt lat="45.94411" lon="-0.95864">
        <ele>5.7</ele>
        <time>2022-06-21T12:13:39Z</time>
      </trkpt>
      <trkpt lat="45.94411" lon="-0.95864">
        <ele>5.7</ele>
        <time>2022-06-21T12:13:40Z</time>
      </trkpt>
      <trkpt lat="45.94412" lon="-0.95864">
        <ele>5.7</ele>
        <time>2022-06-21T12:13:41Z</time>
      </trkpt>
      <trkpt lat="45.94412" lon="-0.95864">
        <ele>5.7</ele>
        <time>2022-06-21T12:13:42Z</time>
      </trkpt>
      <trkpt lat="45.94412" lon="-0.95864">
        <ele>5.7</ele>
        <time>2022-06-21T12:13:43Z</time>
      </trkpt>
      <trkpt lat="45.94412" lon="-0.95864">
        <ele>5.7</ele>
        <time>2022-06-21T12:13:44Z</time>
      </trkpt>
      <trkpt lat="45.94412" lon="-0.95864">
        <ele>5.7</ele>
        <time>2022-06-21T12:13:45Z</time>
      </trkpt>
      <trkpt lat="45.94412" lon="-0.95864">
        <ele>5.7</ele>
        <time>2022-06-21T12:13:46Z</time>
      </trkpt>
      <trkpt lat="45.94412" lon="-0.95864">
        <ele>5.7</ele>
        <time>2022-06-21T12:13:47Z</time>
      </trkpt>
      <trkpt lat="45.94412" lon="-0.95864">
        <ele>5.7</ele>
        <time>2022-06-21T12:13:48Z</time>
      </trkpt>
      <trkpt lat="45.94412" lon="-0.95864">
        <ele>5.7</ele>
        <time>2022-06-21T12:13:49Z</time>
      </trkpt>
      <trkpt lat="45.94412" lon="-0.95864">
        <ele>5.7</ele>
        <time>2022-06-21T12:13:50Z</time>
      </trkpt>
      <trkpt lat="45.94412" lon="-0.95864">
        <ele>5.7</ele>
        <time>2022-06-21T12:13:51Z</time>
      </trkpt>
      <trkpt lat="45.94412" lon="-0.95864">
        <ele>5.7</ele>
        <time>2022-06-21T12:13:52Z</time>
      </trkpt>
      <trkpt lat="45.94412" lon="-0.95864">
        <ele>5.7</ele>
        <time>2022-06-21T12:13:53Z</time>
      </trkpt>
      <trkpt lat="45.94412" lon="-0.95864">
        <ele>5.7</ele>
        <time>2022-06-21T12:13:54Z</time>
      </trkpt>
      <trkpt lat="45.94412" lon="-0.95864">
        <ele>5.7</ele>
        <time>2022-06-21T12:13:55Z</time>
      </trkpt>
      <trkpt lat="45.94412" lon="-0.95864">
        <ele>5.7</ele>
        <time>2022-06-21T12:13:56Z</time>
      </trkpt>
      <trkpt lat="45.94412" lon="-0.95864">
        <ele>5.7</ele>
        <time>2022-06-21T12:13:57Z</time>
      </trkpt>
      <trkpt lat="45.94412" lon="-0.95864">
        <ele>5.7</ele>
        <time>2022-06-21T12:13:58Z</time>
      </trkpt>
      <trkpt lat="45.94412" lon="-0.95864">
        <ele>5.7</ele>
        <time>2022-06-21T12:13:59Z</time>
      </trkpt>
      <trkpt lat="45.94412" lon="-0.95864">
        <ele>5.7</ele>
        <time>2022-06-21T12:14:00Z</time>
      </trkpt>
      <trkpt lat="45.94412" lon="-0.95864">
        <ele>5.7</ele>
        <time>2022-06-21T12:14:01Z</time>
      </trkpt>
      <trkpt lat="45.94412" lon="-0.95864">
        <ele>5.7</ele>
        <time>2022-06-21T12:14:02Z</time>
      </trkpt>
      <trkpt lat="45.94412" lon="-0.95864">
        <ele>5.7</ele>
        <time>2022-06-21T12:14:03Z</time>
      </trkpt>
      <trkpt lat="45.94412" lon="-0.95864">
        <ele>5.7</ele>
        <time>2022-06-21T12:14:04Z</time>
      </trkpt>
      <trkpt lat="45.94412" lon="-0.95864">
        <ele>5.7</ele>
        <time>2022-06-21T12:14:05Z</time>
      </trkpt>
      <trkpt lat="45.94412" lon="-0.95864">
        <ele>5.7</ele>
        <time>2022-06-21T12:14:06Z</time>
      </trkpt>
      <trkpt lat="45.94412" lon="-0.95864">
        <ele>5.7</ele>
        <time>2022-06-21T12:14:07Z</time>
      </trkpt>
      <trkpt lat="45.94412" lon="-0.95864">
        <ele>5.7</ele>
        <time>2022-06-21T12:14:08Z</time>
      </trkpt>
      <trkpt lat="45.94412" lon="-0.95864">
        <ele>5.7</ele>
        <time>2022-06-21T12:14:09Z</time>
      </trkpt>
      <trkpt lat="45.94412" lon="-0.95864">
        <ele>5.7</ele>
        <time>2022-06-21T12:14:10Z</time>
      </trkpt>
      <trkpt lat="45.94412" lon="-0.95864">
        <ele>5.7</ele>
        <time>2022-06-21T12:14:11Z</time>
      </trkpt>
      <trkpt lat="45.94412" lon="-0.95864">
        <ele>5.7</ele>
        <time>2022-06-21T12:14:12Z</time>
      </trkpt>
      <trkpt lat="45.94412" lon="-0.95864">
        <ele>5.7</ele>
        <time>2022-06-21T12:14:13Z</time>
      </trkpt>
      <trkpt lat="45.94412" lon="-0.95864">
        <ele>5.7</ele>
        <time>2022-06-21T12:14:14Z</time>
      </trkpt>
      <trkpt lat="45.94412" lon="-0.95864">
        <ele>5.7</ele>
        <time>2022-06-21T12:14:15Z</time>
      </trkpt>
      <trkpt lat="45.94412" lon="-0.95864">
        <ele>5.7</ele>
        <time>2022-06-21T12:14:16Z</time>
      </trkpt>
      <trkpt lat="45.94412" lon="-0.95864">
        <ele>5.7</ele>
        <time>2022-06-21T12:14:17Z</time>
      </trkpt>
      <trkpt lat="45.94412" lon="-0.95864">
        <ele>5.7</ele>
        <time>2022-06-21T12:14:18Z</time>
      </trkpt>
      <trkpt lat="45.94412" lon="-0.95864">
        <ele>5.7</ele>
        <time>2022-06-21T12:14:19Z</time>
      </trkpt>
      <trkpt lat="45.94412" lon="-0.95864">
        <ele>5.7</ele>
        <time>2022-06-21T12:14:20Z</time>
      </trkpt>
      <trkpt lat="45.94412" lon="-0.95864">
        <ele>5.7</ele>
        <time>2022-06-21T12:14:21Z</time>
      </trkpt>
      <trkpt lat="45.94412" lon="-0.95864">
        <ele>5.7</ele>
        <time>2022-06-21T12:14:22Z</time>
      </trkpt>
      <trkpt lat="45.94412" lon="-0.95864">
        <ele>5.7</ele>
        <time>2022-06-21T12:14:23Z</time>
      </trkpt>
      <trkpt lat="45.94412" lon="-0.95864">
        <ele>5.7</ele>
        <time>2022-06-21T12:14:24Z</time>
      </trkpt>
      <trkpt lat="45.94412" lon="-0.95864">
        <ele>5.7</ele>
        <time>2022-06-21T12:14:25Z</time>
      </trkpt>
      <trkpt lat="45.94412" lon="-0.95864">
        <ele>5.7</ele>
        <time>2022-06-21T12:14:26Z</time>
      </trkpt>
      <trkpt lat="45.94412" lon="-0.95864">
        <ele>5.7</ele>
        <time>2022-06-21T12:14:27Z</time>
      </trkpt>
      <trkpt lat="45.94412" lon="-0.95864">
        <ele>5.7</ele>
        <time>2022-06-21T12:14:28Z</time>
      </trkpt>
      <trkpt lat="45.94412" lon="-0.95864">
        <ele>5.7</ele>
        <time>2022-06-21T12:14:29Z</time>
      </trkpt>
      <trkpt lat="45.94412" lon="-0.95864">
        <ele>5.7</ele>
        <time>2022-06-21T12:14:30Z</time>
      </trkpt>
      <trkpt lat="45.94412" lon="-0.95864">
        <ele>5.7</ele>
        <time>2022-06-21T12:14:31Z</time>
      </trkpt>
      <trkpt lat="45.94412" lon="-0.95864">
        <ele>5.7</ele>
        <time>2022-06-21T12:14:32Z</time>
      </trkpt>
      <trkpt lat="45.94412" lon="-0.95864">
        <ele>5.7</ele>
        <time>2022-06-21T12:14:33Z</time>
      </trkpt>
      <trkpt lat="45.94412" lon="-0.95864">
        <ele>5.7</ele>
        <time>2022-06-21T12:14:34Z</time>
      </trkpt>
      <trkpt lat="45.94412" lon="-0.95864">
        <ele>5.7</ele>
        <time>2022-06-21T12:14:35Z</time>
      </trkpt>
      <trkpt lat="45.94412" lon="-0.95864">
        <ele>5.7</ele>
        <time>2022-06-21T12:14:36Z</time>
      </trkpt>
      <trkpt lat="45.94412" lon="-0.95864">
        <ele>5.7</ele>
        <time>2022-06-21T12:14:37Z</time>
      </trkpt>
      <trkpt lat="45.94412" lon="-0.95864">
        <ele>5.7</ele>
        <time>2022-06-21T12:14:38Z</time>
      </trkpt>
      <trkpt lat="45.94412" lon="-0.95864">
        <ele>5.7</ele>
        <time>2022-06-21T12:14:39Z</time>
      </trkpt>
      <trkpt lat="45.94412" lon="-0.95864">
        <ele>5.7</ele>
        <time>2022-06-21T12:14:40Z</time>
      </trkpt>
      <trkpt lat="45.94412" lon="-0.95864">
        <ele>5.7</ele>
        <time>2022-06-21T12:14:41Z</time>
      </trkpt>
      <trkpt lat="45.94412" lon="-0.95864">
        <ele>5.7</ele>
        <time>2022-06-21T12:14:42Z</time>
      </trkpt>
      <trkpt lat="45.94412" lon="-0.95864">
        <ele>5.7</ele>
        <time>2022-06-21T12:14:43Z</time>
      </trkpt>
      <trkpt lat="45.94412" lon="-0.95864">
        <ele>5.7</ele>
        <time>2022-06-21T12:14:44Z</time>
      </trkpt>
      <trkpt lat="45.94412" lon="-0.95864">
        <ele>5.7</ele>
        <time>2022-06-21T12:14:45Z</time>
      </trkpt>
      <trkpt lat="45.94412" lon="-0.95864">
        <ele>5.7</ele>
        <time>2022-06-21T12:14:46Z</time>
      </trkpt>
      <trkpt lat="45.94412" lon="-0.95864">
        <ele>5.7</ele>
        <time>2022-06-21T12:14:47Z</time>
      </trkpt>
      <trkpt lat="45.94412" lon="-0.95864">
        <ele>5.7</ele>
        <time>2022-06-21T12:14:48Z</time>
      </trkpt>
      <trkpt lat="45.94412" lon="-0.95864">
        <ele>5.7</ele>
        <time>2022-06-21T12:14:49Z</time>
      </trkpt>
      <trkpt lat="45.94412" lon="-0.95864">
        <ele>5.7</ele>
        <time>2022-06-21T12:14:50Z</time>
      </trkpt>
      <trkpt lat="45.94412" lon="-0.95864">
        <ele>5.7</ele>
        <time>2022-06-21T12:14:51Z</time>
      </trkpt>
      <trkpt lat="45.94412" lon="-0.95864">
        <ele>5.7</ele>
        <time>2022-06-21T12:14:52Z</time>
      </trkpt>
      <trkpt lat="45.94412" lon="-0.95864">
        <ele>5.7</ele>
        <time>2022-06-21T12:14:53Z</time>
      </trkpt>
      <trkpt lat="45.94412" lon="-0.95864">
        <ele>5.7</ele>
        <time>2022-06-21T12:14:54Z</time>
      </trkpt>
      <trkpt lat="45.94412" lon="-0.95864">
        <ele>5.7</ele>
        <time>2022-06-21T12:14:55Z</time>
      </trkpt>
      <trkpt lat="45.94412" lon="-0.95864">
        <ele>5.7</ele>
        <time>2022-06-21T12:14:56Z</time>
      </trkpt>
      <trkpt lat="45.94412" lon="-0.95864">
        <ele>5.7</ele>
        <time>2022-06-21T12:14:57Z</time>
      </trkpt>
      <trkpt lat="45.94412" lon="-0.95864">
        <ele>5.7</ele>
        <time>2022-06-21T12:14:58Z</time>
      </trkpt>
      <trkpt lat="45.94412" lon="-0.95864">
        <ele>5.7</ele>
        <time>2022-06-21T12:14:59Z</time>
      </trkpt>
      <trkpt lat="45.94412" lon="-0.95864">
        <ele>5.7</ele>
        <time>2022-06-21T12:15:00Z</time>
      </trkpt>
      <trkpt lat="45.94412" lon="-0.95864">
        <ele>5.7</ele>
        <time>2022-06-21T12:15:01Z</time>
      </trkpt>
      <trkpt lat="45.94412" lon="-0.95864">
        <ele>5.7</ele>
        <time>2022-06-21T12:15:02Z</time>
      </trkpt>
      <trkpt lat="45.94412" lon="-0.95864">
        <ele>5.7</ele>
        <time>2022-06-21T12:15:03Z</time>
      </trkpt>
      <trkpt lat="45.94412" lon="-0.95864">
        <ele>5.7</ele>
        <time>2022-06-21T12:15:04Z</time>
      </trkpt>
      <trkpt lat="45.94412" lon="-0.95864">
        <ele>5.7</ele>
        <time>2022-06-21T12:15:05Z</time>
      </trkpt>
      <trkpt lat="45.94412" lon="-0.95864">
        <ele>5.7</ele>
        <time>2022-06-21T12:15:06Z</time>
      </trkpt>
      <trkpt lat="45.94412" lon="-0.95864">
        <ele>5.7</ele>
        <time>2022-06-21T12:15:07Z</time>
      </trkpt>
      <trkpt lat="45.94412" lon="-0.95864">
        <ele>5.7</ele>
        <time>2022-06-21T12:15:08Z</time>
      </trkpt>
      <trkpt lat="45.94412" lon="-0.95864">
        <ele>5.7</ele>
        <time>2022-06-21T12:15:09Z</time>
      </trkpt>
      <trkpt lat="45.94412" lon="-0.95864">
        <ele>5.7</ele>
        <time>2022-06-21T12:15:10Z</time>
      </trkpt>
      <trkpt lat="45.94412" lon="-0.95864">
        <ele>5.7</ele>
        <time>2022-06-21T12:15:11Z</time>
      </trkpt>
      <trkpt lat="45.94412" lon="-0.95864">
        <ele>5.7</ele>
        <time>2022-06-21T12:15:12Z</time>
      </trkpt>
      <trkpt lat="45.94412" lon="-0.95864">
        <ele>5.7</ele>
        <time>2022-06-21T12:15:13Z</time>
      </trkpt>
      <trkpt lat="45.94412" lon="-0.95864">
        <ele>5.7</ele>
        <time>2022-06-21T12:15:14Z</time>
      </trkpt>
      <trkpt lat="45.94412" lon="-0.95864">
        <ele>5.7</ele>
        <time>2022-06-21T12:15:15Z</time>
      </trkpt>
      <trkpt lat="45.94412" lon="-0.95864">
        <ele>5.7</ele>
        <time>2022-06-21T12:15:16Z</time>
      </trkpt>
      <trkpt lat="45.94412" lon="-0.95864">
        <ele>5.7</ele>
        <time>2022-06-21T12:15:17Z</time>
      </trkpt>
      <trkpt lat="45.94412" lon="-0.95864">
        <ele>5.7</ele>
        <time>2022-06-21T12:15:18Z</time>
      </trkpt>
      <trkpt lat="45.94412" lon="-0.95864">
        <ele>5.7</ele>
        <time>2022-06-21T12:15:19Z</time>
      </trkpt>
      <trkpt lat="45.94412" lon="-0.95864">
        <ele>5.7</ele>
        <time>2022-06-21T12:15:20Z</time>
      </trkpt>
      <trkpt lat="45.94412" lon="-0.95864">
        <ele>5.7</ele>
        <time>2022-06-21T12:15:21Z</time>
      </trkpt>
      <trkpt lat="45.94412" lon="-0.95864">
        <ele>5.7</ele>
        <time>2022-06-21T12:15:22Z</time>
      </trkpt>
      <trkpt lat="45.94412" lon="-0.95864">
        <ele>5.7</ele>
        <time>2022-06-21T12:15:23Z</time>
      </trkpt>
      <trkpt lat="45.94412" lon="-0.95864">
        <ele>5.7</ele>
        <time>2022-06-21T12:15:24Z</time>
      </trkpt>
      <trkpt lat="45.94412" lon="-0.95864">
        <ele>5.7</ele>
        <time>2022-06-21T12:15:25Z</time>
      </trkpt>
      <trkpt lat="45.94412" lon="-0.95864">
        <ele>5.7</ele>
        <time>2022-06-21T12:15:26Z</time>
      </trkpt>
      <trkpt lat="45.94412" lon="-0.95864">
        <ele>5.7</ele>
        <time>2022-06-21T12:15:27Z</time>
      </trkpt>
      <trkpt lat="45.94412" lon="-0.95864">
        <ele>5.7</ele>
        <time>2022-06-21T12:15:28Z</time>
      </trkpt>
      <trkpt lat="45.94414" lon="-0.95865">
        <ele>5.7</ele>
        <time>2022-06-21T12:15:29Z</time>
      </trkpt>
      <trkpt lat="45.94415" lon="-0.95865">
        <ele>5.7</ele>
        <time>2022-06-21T12:15:30Z</time>
      </trkpt>
      <trkpt lat="45.94415" lon="-0.95865">
        <ele>5.7</ele>
        <time>2022-06-21T12:15:31Z</time>
      </trkpt>
      <trkpt lat="45.94415" lon="-0.95865">
        <ele>5.7</ele>
        <time>2022-06-21T12:15:32Z</time>
      </trkpt>
      <trkpt lat="45.94416" lon="-0.95864">
        <ele>5.7</ele>
        <time>2022-06-21T12:15:33Z</time>
      </trkpt>
      <trkpt lat="45.94416" lon="-0.95864">
        <ele>5.7</ele>
        <time>2022-06-21T12:15:34Z</time>
      </trkpt>
      <trkpt lat="45.94416" lon="-0.95863">
        <ele>5.7</ele>
        <time>2022-06-21T12:15:35Z</time>
      </trkpt>
      <trkpt lat="45.94416" lon="-0.95863">
        <ele>5.7</ele>
        <time>2022-06-21T12:15:36Z</time>
      </trkpt>
      <trkpt lat="45.94416" lon="-0.95863">
        <ele>5.7</ele>
        <time>2022-06-21T12:15:37Z</time>
      </trkpt>
      <trkpt lat="45.94416" lon="-0.95863">
        <ele>5.7</ele>
        <time>2022-06-21T12:15:38Z</time>
      </trkpt>
      <trkpt lat="45.94416" lon="-0.95862">
        <ele>5.7</ele>
        <time>2022-06-21T12:15:39Z</time>
      </trkpt>
      <trkpt lat="45.94416" lon="-0.95862">
        <ele>5.7</ele>
        <time>2022-06-21T12:15:40Z</time>
      </trkpt>
      <trkpt lat="45.94416" lon="-0.95862">
        <ele>5.7</ele>
        <time>2022-06-21T12:15:41Z</time>
      </trkpt>
      <trkpt lat="45.94416" lon="-0.95862">
        <ele>5.7</ele>
        <time>2022-06-21T12:15:42Z</time>
      </trkpt>
      <trkpt lat="45.94416" lon="-0.95862">
        <ele>5.7</ele>
        <time>2022-06-21T12:15:43Z</time>
      </trkpt>
      <trkpt lat="45.94416" lon="-0.95862">
        <ele>5.7</ele>
        <time>2022-06-21T12:15:44Z</time>
      </trkpt>
      <trkpt lat="45.94416" lon="-0.95862">
        <ele>5.7</ele>
        <time>2022-06-21T12:15:45Z</time>
      </trkpt>
      <trkpt lat="45.94416" lon="-0.95862">
        <ele>5.7</ele>
        <time>2022-06-21T12:15:46Z</time>
      </trkpt>
      <trkpt lat="45.94416" lon="-0.95862">
        <ele>5.7</ele>
        <time>2022-06-21T12:15:47Z</time>
      </trkpt>
      <trkpt lat="45.94416" lon="-0.95862">
        <ele>5.7</ele>
        <time>2022-06-21T12:15:48Z</time>
      </trkpt>
      <trkpt lat="45.94416" lon="-0.95862">
        <ele>5.7</ele>
        <time>2022-06-21T12:15:49Z</time>
      </trkpt>
      <trkpt lat="45.94416" lon="-0.95862">
        <ele>5.7</ele>
        <time>2022-06-21T12:15:50Z</time>
      </trkpt>
      <trkpt lat="45.94416" lon="-0.95862">
        <ele>5.7</ele>
        <time>2022-06-21T12:15:51Z</time>
      </trkpt>
      <trkpt lat="45.94416" lon="-0.95862">
        <ele>5.7</ele>
        <time>2022-06-21T12:15:52Z</time>
      </trkpt>
      <trkpt lat="45.94416" lon="-0.95862">
        <ele>5.7</ele>
        <time>2022-06-21T12:15:53Z</time>
      </trkpt>
      <trkpt lat="45.94416" lon="-0.95862">
        <ele>5.7</ele>
        <time>2022-06-21T12:15:54Z</time>
      </trkpt>
      <trkpt lat="45.94416" lon="-0.95862">
        <ele>5.7</ele>
        <time>2022-06-21T12:15:55Z</time>
      </trkpt>
      <trkpt lat="45.94416" lon="-0.95862">
        <ele>5.7</ele>
        <time>2022-06-21T12:15:56Z</time>
      </trkpt>
      <trkpt lat="45.94416" lon="-0.95862">
        <ele>5.7</ele>
        <time>2022-06-21T12:15:57Z</time>
      </trkpt>
      <trkpt lat="45.94416" lon="-0.95862">
        <ele>5.7</ele>
        <time>2022-06-21T12:15:58Z</time>
      </trkpt>
      <trkpt lat="45.94416" lon="-0.95862">
        <ele>5.7</ele>
        <time>2022-06-21T12:15:59Z</time>
      </trkpt>
      <trkpt lat="45.94416" lon="-0.95862">
        <ele>5.7</ele>
        <time>2022-06-21T12:16:00Z</time>
      </trkpt>
      <trkpt lat="45.94416" lon="-0.95862">
        <ele>5.7</ele>
        <time>2022-06-21T12:16:01Z</time>
      </trkpt>
      <trkpt lat="45.94416" lon="-0.95862">
        <ele>5.7</ele>
        <time>2022-06-21T12:16:02Z</time>
      </trkpt>
      <trkpt lat="45.94416" lon="-0.95862">
        <ele>5.7</ele>
        <time>2022-06-21T12:16:03Z</time>
      </trkpt>
      <trkpt lat="45.94416" lon="-0.95862">
        <ele>5.7</ele>
        <time>2022-06-21T12:16:04Z</time>
      </trkpt>
      <trkpt lat="45.94416" lon="-0.95862">
        <ele>5.7</ele>
        <time>2022-06-21T12:16:05Z</time>
      </trkpt>
      <trkpt lat="45.94416" lon="-0.95862">
        <ele>5.7</ele>
        <time>2022-06-21T12:16:06Z</time>
      </trkpt>
      <trkpt lat="45.94416" lon="-0.95862">
        <ele>5.7</ele>
        <time>2022-06-21T12:16:07Z</time>
      </trkpt>
      <trkpt lat="45.94416" lon="-0.95862">
        <ele>5.7</ele>
        <time>2022-06-21T12:16:08Z</time>
      </trkpt>
      <trkpt lat="45.94416" lon="-0.95862">
        <ele>5.7</ele>
        <time>2022-06-21T12:16:09Z</time>
      </trkpt>
      <trkpt lat="45.94416" lon="-0.95862">
        <ele>5.7</ele>
        <time>2022-06-21T12:16:10Z</time>
      </trkpt>
      <trkpt lat="45.94416" lon="-0.95862">
        <ele>5.7</ele>
        <time>2022-06-21T12:16:11Z</time>
      </trkpt>
      <trkpt lat="45.94416" lon="-0.95862">
        <ele>5.7</ele>
        <time>2022-06-21T12:16:12Z</time>
      </trkpt>
      <trkpt lat="45.94416" lon="-0.95862">
        <ele>5.7</ele>
        <time>2022-06-21T12:16:13Z</time>
      </trkpt>
      <trkpt lat="45.94416" lon="-0.95862">
        <ele>5.7</ele>
        <time>2022-06-21T12:16:14Z</time>
      </trkpt>
      <trkpt lat="45.94416" lon="-0.95862">
        <ele>5.7</ele>
        <time>2022-06-21T12:16:15Z</time>
      </trkpt>
      <trkpt lat="45.94416" lon="-0.95862">
        <ele>5.7</ele>
        <time>2022-06-21T12:16:16Z</time>
      </trkpt>
      <trkpt lat="45.94416" lon="-0.95862">
        <ele>5.7</ele>
        <time>2022-06-21T12:16:17Z</time>
      </trkpt>
      <trkpt lat="45.94416" lon="-0.95862">
        <ele>5.7</ele>
        <time>2022-06-21T12:16:18Z</time>
      </trkpt>
      <trkpt lat="45.94416" lon="-0.95862">
        <ele>5.7</ele>
        <time>2022-06-21T12:16:19Z</time>
      </trkpt>
      <trkpt lat="45.94416" lon="-0.95862">
        <ele>5.7</ele>
        <time>2022-06-21T12:16:20Z</time>
      </trkpt>
      <trkpt lat="45.94416" lon="-0.95862">
        <ele>5.7</ele>
        <time>2022-06-21T12:16:21Z</time>
      </trkpt>
      <trkpt lat="45.94416" lon="-0.95862">
        <ele>5.7</ele>
        <time>2022-06-21T12:16:22Z</time>
      </trkpt>
      <trkpt lat="45.94416" lon="-0.95862">
        <ele>5.7</ele>
        <time>2022-06-21T12:16:23Z</time>
      </trkpt>
      <trkpt lat="45.94416" lon="-0.95862">
        <ele>5.7</ele>
        <time>2022-06-21T12:16:24Z</time>
      </trkpt>
      <trkpt lat="45.94416" lon="-0.95862">
        <ele>5.7</ele>
        <time>2022-06-21T12:16:25Z</time>
      </trkpt>
      <trkpt lat="45.94416" lon="-0.95862">
        <ele>5.7</ele>
        <time>2022-06-21T12:16:26Z</time>
      </trkpt>
      <trkpt lat="45.94416" lon="-0.95862">
        <ele>5.7</ele>
        <time>2022-06-21T12:16:27Z</time>
      </trkpt>
      <trkpt lat="45.94416" lon="-0.95862">
        <ele>5.7</ele>
        <time>2022-06-21T12:16:28Z</time>
      </trkpt>
      <trkpt lat="45.94416" lon="-0.95862">
        <ele>5.7</ele>
        <time>2022-06-21T12:16:29Z</time>
      </trkpt>
      <trkpt lat="45.94416" lon="-0.95862">
        <ele>5.7</ele>
        <time>2022-06-21T12:16:30Z</time>
      </trkpt>
      <trkpt lat="45.94416" lon="-0.95862">
        <ele>5.7</ele>
        <time>2022-06-21T12:16:31Z</time>
      </trkpt>
      <trkpt lat="45.94416" lon="-0.95862">
        <ele>5.7</ele>
        <time>2022-06-21T12:16:32Z</time>
      </trkpt>
      <trkpt lat="45.94416" lon="-0.95862">
        <ele>5.7</ele>
        <time>2022-06-21T12:16:33Z</time>
      </trkpt>
      <trkpt lat="45.94416" lon="-0.95862">
        <ele>5.7</ele>
        <time>2022-06-21T12:16:34Z</time>
      </trkpt>
      <trkpt lat="45.94416" lon="-0.95862">
        <ele>5.7</ele>
        <time>2022-06-21T12:16:35Z</time>
      </trkpt>
      <trkpt lat="45.94416" lon="-0.95862">
        <ele>5.7</ele>
        <time>2022-06-21T12:16:36Z</time>
      </trkpt>
      <trkpt lat="45.94416" lon="-0.95862">
        <ele>5.7</ele>
        <time>2022-06-21T12:16:37Z</time>
      </trkpt>
      <trkpt lat="45.94416" lon="-0.95862">
        <ele>5.7</ele>
        <time>2022-06-21T12:16:38Z</time>
      </trkpt>
      <trkpt lat="45.94416" lon="-0.95862">
        <ele>5.7</ele>
        <time>2022-06-21T12:16:39Z</time>
      </trkpt>
      <trkpt lat="45.94416" lon="-0.95862">
        <ele>5.7</ele>
        <time>2022-06-21T12:16:40Z</time>
      </trkpt>
      <trkpt lat="45.94416" lon="-0.95862">
        <ele>5.7</ele>
        <time>2022-06-21T12:16:41Z</time>
      </trkpt>
      <trkpt lat="45.94416" lon="-0.95862">
        <ele>5.7</ele>
        <time>2022-06-21T12:16:42Z</time>
      </trkpt>
      <trkpt lat="45.94416" lon="-0.95862">
        <ele>5.7</ele>
        <time>2022-06-21T12:16:43Z</time>
      </trkpt>
      <trkpt lat="45.94416" lon="-0.95862">
        <ele>5.7</ele>
        <time>2022-06-21T12:16:44Z</time>
      </trkpt>
      <trkpt lat="45.94416" lon="-0.95862">
        <ele>5.7</ele>
        <time>2022-06-21T12:16:45Z</time>
      </trkpt>
      <trkpt lat="45.94416" lon="-0.95862">
        <ele>5.7</ele>
        <time>2022-06-21T12:16:46Z</time>
      </trkpt>
      <trkpt lat="45.94416" lon="-0.95862">
        <ele>5.7</ele>
        <time>2022-06-21T12:16:47Z</time>
      </trkpt>
      <trkpt lat="45.94416" lon="-0.95862">
        <ele>5.7</ele>
        <time>2022-06-21T12:16:48Z</time>
      </trkpt>
      <trkpt lat="45.94416" lon="-0.95862">
        <ele>5.7</ele>
        <time>2022-06-21T12:16:49Z</time>
      </trkpt>
      <trkpt lat="45.94416" lon="-0.95862">
        <ele>5.7</ele>
        <time>2022-06-21T12:16:50Z</time>
      </trkpt>
      <trkpt lat="45.94416" lon="-0.95862">
        <ele>5.7</ele>
        <time>2022-06-21T12:16:51Z</time>
      </trkpt>
      <trkpt lat="45.94416" lon="-0.95862">
        <ele>5.7</ele>
        <time>2022-06-21T12:16:52Z</time>
      </trkpt>
      <trkpt lat="45.94416" lon="-0.95862">
        <ele>5.7</ele>
        <time>2022-06-21T12:16:53Z</time>
      </trkpt>
      <trkpt lat="45.94416" lon="-0.95862">
        <ele>5.7</ele>
        <time>2022-06-21T12:16:54Z</time>
      </trkpt>
      <trkpt lat="45.94416" lon="-0.95862">
        <ele>5.7</ele>
        <time>2022-06-21T12:16:55Z</time>
      </trkpt>
      <trkpt lat="45.94416" lon="-0.95862">
        <ele>5.7</ele>
        <time>2022-06-21T12:16:56Z</time>
      </trkpt>
      <trkpt lat="45.94416" lon="-0.95862">
        <ele>5.7</ele>
        <time>2022-06-21T12:16:57Z</time>
      </trkpt>
      <trkpt lat="45.94416" lon="-0.95862">
        <ele>5.7</ele>
        <time>2022-06-21T12:16:58Z</time>
      </trkpt>
      <trkpt lat="45.94416" lon="-0.95862">
        <ele>5.7</ele>
        <time>2022-06-21T12:16:59Z</time>
      </trkpt>
      <trkpt lat="45.94416" lon="-0.95862">
        <ele>5.7</ele>
        <time>2022-06-21T12:17:00Z</time>
      </trkpt>
      <trkpt lat="45.94416" lon="-0.95862">
        <ele>5.7</ele>
        <time>2022-06-21T12:17:01Z</time>
      </trkpt>
      <trkpt lat="45.94416" lon="-0.95862">
        <ele>5.7</ele>
        <time>2022-06-21T12:17:02Z</time>
      </trkpt>
      <trkpt lat="45.94416" lon="-0.95862">
        <ele>5.7</ele>
        <time>2022-06-21T12:17:03Z</time>
      </trkpt>
      <trkpt lat="45.94416" lon="-0.95862">
        <ele>5.7</ele>
        <time>2022-06-21T12:17:04Z</time>
      </trkpt>
      <trkpt lat="45.94416" lon="-0.95862">
        <ele>5.7</ele>
        <time>2022-06-21T12:17:05Z</time>
      </trkpt>
      <trkpt lat="45.94416" lon="-0.95862">
        <ele>5.8</ele>
        <time>2022-06-21T12:17:06Z</time>
      </trkpt>
      <trkpt lat="45.94416" lon="-0.95862">
        <ele>5.8</ele>
        <time>2022-06-21T12:17:07Z</time>
      </trkpt>
      <trkpt lat="45.94416" lon="-0.95862">
        <ele>5.8</ele>
        <time>2022-06-21T12:17:08Z</time>
      </trkpt>
      <trkpt lat="45.94416" lon="-0.95862">
        <ele>5.8</ele>
        <time>2022-06-21T12:17:09Z</time>
      </trkpt>
      <trkpt lat="45.94416" lon="-0.95862">
        <ele>5.8</ele>
        <time>2022-06-21T12:17:10Z</time>
      </trkpt>
      <trkpt lat="45.94416" lon="-0.95862">
        <ele>5.8</ele>
        <time>2022-06-21T12:17:11Z</time>
      </trkpt>
      <trkpt lat="45.94416" lon="-0.95862">
        <ele>5.8</ele>
        <time>2022-06-21T12:17:12Z</time>
      </trkpt>
      <trkpt lat="45.94416" lon="-0.95862">
        <ele>5.8</ele>
        <time>2022-06-21T12:17:13Z</time>
      </trkpt>
      <trkpt lat="45.94416" lon="-0.95862">
        <ele>5.8</ele>
        <time>2022-06-21T12:17:14Z</time>
      </trkpt>
      <trkpt lat="45.94416" lon="-0.95862">
        <ele>5.8</ele>
        <time>2022-06-21T12:17:15Z</time>
      </trkpt>
      <trkpt lat="45.94416" lon="-0.95862">
        <ele>5.8</ele>
        <time>2022-06-21T12:17:16Z</time>
      </trkpt>
      <trkpt lat="45.94416" lon="-0.95862">
        <ele>5.8</ele>
        <time>2022-06-21T12:17:17Z</time>
      </trkpt>
      <trkpt lat="45.94416" lon="-0.95862">
        <ele>5.8</ele>
        <time>2022-06-21T12:17:18Z</time>
      </trkpt>
      <trkpt lat="45.94416" lon="-0.95862">
        <ele>5.8</ele>
        <time>2022-06-21T12:17:19Z</time>
      </trkpt>
      <trkpt lat="45.94416" lon="-0.95862">
        <ele>5.8</ele>
        <time>2022-06-21T12:17:20Z</time>
      </trkpt>
      <trkpt lat="45.94416" lon="-0.95862">
        <ele>5.8</ele>
        <time>2022-06-21T12:17:21Z</time>
      </trkpt>
      <trkpt lat="45.94416" lon="-0.95862">
        <ele>5.9</ele>
        <time>2022-06-21T12:17:22Z</time>
      </trkpt>
      <trkpt lat="45.94416" lon="-0.95862">
        <ele>5.9</ele>
        <time>2022-06-21T12:17:23Z</time>
      </trkpt>
      <trkpt lat="45.94416" lon="-0.95862">
        <ele>5.9</ele>
        <time>2022-06-21T12:17:24Z</time>
      </trkpt>
      <trkpt lat="45.94416" lon="-0.95862">
        <ele>5.9</ele>
        <time>2022-06-21T12:17:25Z</time>
      </trkpt>
      <trkpt lat="45.94416" lon="-0.95862">
        <ele>5.9</ele>
        <time>2022-06-21T12:17:26Z</time>
      </trkpt>
      <trkpt lat="45.94416" lon="-0.95862">
        <ele>5.9</ele>
        <time>2022-06-21T12:17:27Z</time>
      </trkpt>
      <trkpt lat="45.94416" lon="-0.95862">
        <ele>5.9</ele>
        <time>2022-06-21T12:17:28Z</time>
      </trkpt>
      <trkpt lat="45.94416" lon="-0.95862">
        <ele>5.9</ele>
        <time>2022-06-21T12:17:29Z</time>
      </trkpt>
      <trkpt lat="45.94416" lon="-0.95862">
        <ele>5.9</ele>
        <time>2022-06-21T12:17:30Z</time>
      </trkpt>
      <trkpt lat="45.94416" lon="-0.95862">
        <ele>5.9</ele>
        <time>2022-06-21T12:17:31Z</time>
      </trkpt>
      <trkpt lat="45.94416" lon="-0.95862">
        <ele>5.9</ele>
        <time>2022-06-21T12:17:32Z</time>
      </trkpt>
      <trkpt lat="45.94416" lon="-0.95862">
        <ele>5.9</ele>
        <time>2022-06-21T12:17:33Z</time>
      </trkpt>
      <trkpt lat="45.94416" lon="-0.95862">
        <ele>5.9</ele>
        <time>2022-06-21T12:17:34Z</time>
      </trkpt>
      <trkpt lat="45.94416" lon="-0.95862">
        <ele>5.9</ele>
        <time>2022-06-21T12:17:35Z</time>
      </trkpt>
      <trkpt lat="45.94416" lon="-0.95862">
        <ele>5.9</ele>
        <time>2022-06-21T12:17:36Z</time>
      </trkpt>
      <trkpt lat="45.94416" lon="-0.95862">
        <ele>5.9</ele>
        <time>2022-06-21T12:17:37Z</time>
      </trkpt>
      <trkpt lat="45.94416" lon="-0.95862">
        <ele>5.9</ele>
        <time>2022-06-21T12:17:38Z</time>
      </trkpt>
      <trkpt lat="45.94416" lon="-0.95862">
        <ele>6</ele>
        <time>2022-06-21T12:17:39Z</time>
      </trkpt>
      <trkpt lat="45.94416" lon="-0.95862">
        <ele>6</ele>
        <time>2022-06-21T12:17:40Z</time>
      </trkpt>
      <trkpt lat="45.94416" lon="-0.95862">
        <ele>6</ele>
        <time>2022-06-21T12:17:41Z</time>
      </trkpt>
      <trkpt lat="45.94416" lon="-0.95862">
        <ele>6</ele>
        <time>2022-06-21T12:17:42Z</time>
      </trkpt>
      <trkpt lat="45.94416" lon="-0.95862">
        <ele>6</ele>
        <time>2022-06-21T12:17:43Z</time>
      </trkpt>
      <trkpt lat="45.94416" lon="-0.95862">
        <ele>6</ele>
        <time>2022-06-21T12:17:44Z</time>
      </trkpt>
      <trkpt lat="45.94416" lon="-0.95862">
        <ele>6</ele>
        <time>2022-06-21T12:17:45Z</time>
      </trkpt>
      <trkpt lat="45.94416" lon="-0.95862">
        <ele>6</ele>
        <time>2022-06-21T12:17:46Z</time>
      </trkpt>
      <trkpt lat="45.94416" lon="-0.95862">
        <ele>6</ele>
        <time>2022-06-21T12:17:47Z</time>
      </trkpt>
      <trkpt lat="45.94416" lon="-0.95862">
        <ele>6</ele>
        <time>2022-06-21T12:17:48Z</time>
      </trkpt>
      <trkpt lat="45.94416" lon="-0.95862">
        <ele>6</ele>
        <time>2022-06-21T12:17:49Z</time>
      </trkpt>
      <trkpt lat="45.94416" lon="-0.95862">
        <ele>6</ele>
        <time>2022-06-21T12:17:50Z</time>
      </trkpt>
      <trkpt lat="45.94416" lon="-0.95862">
        <ele>6</ele>
        <time>2022-06-21T12:17:51Z</time>
      </trkpt>
      <trkpt lat="45.94416" lon="-0.95862">
        <ele>6</ele>
        <time>2022-06-21T12:17:52Z</time>
      </trkpt>
      <trkpt lat="45.94416" lon="-0.95862">
        <ele>6</ele>
        <time>2022-06-21T12:17:53Z</time>
      </trkpt>
      <trkpt lat="45.94416" lon="-0.95862">
        <ele>6</ele>
        <time>2022-06-21T12:17:54Z</time>
      </trkpt>
      <trkpt lat="45.94416" lon="-0.95862">
        <ele>6</ele>
        <time>2022-06-21T12:17:55Z</time>
      </trkpt>
      <trkpt lat="45.94416" lon="-0.95862">
        <ele>6.1</ele>
        <time>2022-06-21T12:17:56Z</time>
      </trkpt>
      <trkpt lat="45.94416" lon="-0.95862">
        <ele>6.1</ele>
        <time>2022-06-21T12:17:57Z</time>
      </trkpt>
      <trkpt lat="45.94416" lon="-0.95862">
        <ele>6.1</ele>
        <time>2022-06-21T12:17:58Z</time>
      </trkpt>
      <trkpt lat="45.94416" lon="-0.95862">
        <ele>6.1</ele>
        <time>2022-06-21T12:17:59Z</time>
      </trkpt>
      <trkpt lat="45.94416" lon="-0.95862">
        <ele>6.1</ele>
        <time>2022-06-21T12:18:00Z</time>
      </trkpt>
      <trkpt lat="45.94416" lon="-0.95862">
        <ele>6.1</ele>
        <time>2022-06-21T12:18:01Z</time>
      </trkpt>
      <trkpt lat="45.94416" lon="-0.95862">
        <ele>6.1</ele>
        <time>2022-06-21T12:18:02Z</time>
      </trkpt>
      <trkpt lat="45.94416" lon="-0.95862">
        <ele>6.1</ele>
        <time>2022-06-21T12:18:03Z</time>
      </trkpt>
      <trkpt lat="45.94416" lon="-0.95862">
        <ele>6.1</ele>
        <time>2022-06-21T12:18:04Z</time>
      </trkpt>
      <trkpt lat="45.94416" lon="-0.95862">
        <ele>6.1</ele>
        <time>2022-06-21T12:18:05Z</time>
      </trkpt>
      <trkpt lat="45.94416" lon="-0.95862">
        <ele>6.1</ele>
        <time>2022-06-21T12:18:06Z</time>
      </trkpt>
      <trkpt lat="45.94416" lon="-0.95862">
        <ele>6.1</ele>
        <time>2022-06-21T12:18:07Z</time>
      </trkpt>
      <trkpt lat="45.94416" lon="-0.95862">
        <ele>6.1</ele>
        <time>2022-06-21T12:18:08Z</time>
      </trkpt>
      <trkpt lat="45.94416" lon="-0.95862">
        <ele>6.1</ele>
        <time>2022-06-21T12:18:09Z</time>
      </trkpt>
      <trkpt lat="45.94416" lon="-0.95862">
        <ele>6.1</ele>
        <time>2022-06-21T12:18:10Z</time>
      </trkpt>
      <trkpt lat="45.94416" lon="-0.95862">
        <ele>6.1</ele>
        <time>2022-06-21T12:18:11Z</time>
      </trkpt>
      <trkpt lat="45.94416" lon="-0.95862">
        <ele>6.1</ele>
        <time>2022-06-21T12:18:12Z</time>
      </trkpt>
      <trkpt lat="45.94416" lon="-0.95862">
        <ele>6.2</ele>
        <time>2022-06-21T12:18:13Z</time>
      </trkpt>
      <trkpt lat="45.94416" lon="-0.95862">
        <ele>6.2</ele>
        <time>2022-06-21T12:18:14Z</time>
      </trkpt>
      <trkpt lat="45.94416" lon="-0.95862">
        <ele>6.2</ele>
        <time>2022-06-21T12:18:15Z</time>
      </trkpt>
      <trkpt lat="45.94416" lon="-0.95862">
        <ele>6.2</ele>
        <time>2022-06-21T12:18:16Z</time>
      </trkpt>
      <trkpt lat="45.94416" lon="-0.95862">
        <ele>6.2</ele>
        <time>2022-06-21T12:18:17Z</time>
      </trkpt>
      <trkpt lat="45.94416" lon="-0.95862">
        <ele>6.2</ele>
        <time>2022-06-21T12:18:18Z</time>
      </trkpt>
      <trkpt lat="45.94416" lon="-0.95862">
        <ele>6.2</ele>
        <time>2022-06-21T12:18:19Z</time>
      </trkpt>
      <trkpt lat="45.94416" lon="-0.95862">
        <ele>6.2</ele>
        <time>2022-06-21T12:18:20Z</time>
      </trkpt>
      <trkpt lat="45.94416" lon="-0.95862">
        <ele>6.2</ele>
        <time>2022-06-21T12:18:21Z</time>
      </trkpt>
      <trkpt lat="45.94416" lon="-0.95862">
        <ele>6.2</ele>
        <time>2022-06-21T12:18:22Z</time>
      </trkpt>
      <trkpt lat="45.94416" lon="-0.95862">
        <ele>6.2</ele>
        <time>2022-06-21T12:18:23Z</time>
      </trkpt>
      <trkpt lat="45.94416" lon="-0.95862">
        <ele>6.2</ele>
        <time>2022-06-21T12:18:24Z</time>
      </trkpt>
      <trkpt lat="45.94416" lon="-0.95862">
        <ele>6.2</ele>
        <time>2022-06-21T12:18:25Z</time>
      </trkpt>
      <trkpt lat="45.94416" lon="-0.95862">
        <ele>6.2</ele>
        <time>2022-06-21T12:18:26Z</time>
      </trkpt>
      <trkpt lat="45.94416" lon="-0.95862">
        <ele>6.2</ele>
        <time>2022-06-21T12:18:27Z</time>
      </trkpt>
      <trkpt lat="45.94416" lon="-0.95862">
        <ele>6.2</ele>
        <time>2022-06-21T12:18:28Z</time>
      </trkpt>
      <trkpt lat="45.94416" lon="-0.95862">
        <ele>6.3</ele>
        <time>2022-06-21T12:18:29Z</time>
      </trkpt>
      <trkpt lat="45.94416" lon="-0.95862">
        <ele>6.3</ele>
        <time>2022-06-21T12:18:30Z</time>
      </trkpt>
      <trkpt lat="45.94416" lon="-0.95862">
        <ele>6.3</ele>
        <time>2022-06-21T12:18:31Z</time>
      </trkpt>
      <trkpt lat="45.94416" lon="-0.95862">
        <ele>6.3</ele>
        <time>2022-06-21T12:18:32Z</time>
      </trkpt>
      <trkpt lat="45.94416" lon="-0.95862">
        <ele>6.3</ele>
        <time>2022-06-21T12:18:33Z</time>
      </trkpt>
      <trkpt lat="45.94416" lon="-0.95862">
        <ele>6.3</ele>
        <time>2022-06-21T12:18:34Z</time>
      </trkpt>
      <trkpt lat="45.94416" lon="-0.95862">
        <ele>6.3</ele>
        <time>2022-06-21T12:18:35Z</time>
      </trkpt>
      <trkpt lat="45.94416" lon="-0.95862">
        <ele>6.3</ele>
        <time>2022-06-21T12:18:36Z</time>
      </trkpt>
      <trkpt lat="45.94416" lon="-0.95862">
        <ele>6.3</ele>
        <time>2022-06-21T12:18:37Z</time>
      </trkpt>
      <trkpt lat="45.94416" lon="-0.95862">
        <ele>6.3</ele>
        <time>2022-06-21T12:18:38Z</time>
      </trkpt>
      <trkpt lat="45.94416" lon="-0.95862">
        <ele>6.3</ele>
        <time>2022-06-21T12:18:39Z</time>
      </trkpt>
      <trkpt lat="45.94416" lon="-0.95862">
        <ele>6.3</ele>
        <time>2022-06-21T12:18:40Z</time>
      </trkpt>
      <trkpt lat="45.94416" lon="-0.95862">
        <ele>6.3</ele>
        <time>2022-06-21T12:18:41Z</time>
      </trkpt>
      <trkpt lat="45.94416" lon="-0.95862">
        <ele>6.3</ele>
        <time>2022-06-21T12:18:42Z</time>
      </trkpt>
      <trkpt lat="45.94416" lon="-0.95862">
        <ele>6.3</ele>
        <time>2022-06-21T12:18:43Z</time>
      </trkpt>
      <trkpt lat="45.94416" lon="-0.95862">
        <ele>6.3</ele>
        <time>2022-06-21T12:18:44Z</time>
      </trkpt>
      <trkpt lat="45.94416" lon="-0.95862">
        <ele>6.3</ele>
        <time>2022-06-21T12:18:45Z</time>
      </trkpt>
      <trkpt lat="45.94416" lon="-0.95862">
        <ele>6.3</ele>
        <time>2022-06-21T12:18:46Z</time>
      </trkpt>
      <trkpt lat="45.94416" lon="-0.95862">
        <ele>6.3</ele>
        <time>2022-06-21T12:18:47Z</time>
      </trkpt>
      <trkpt lat="45.94416" lon="-0.95862">
        <ele>6.3</ele>
        <time>2022-06-21T12:18:48Z</time>
      </trkpt>
      <trkpt lat="45.94416" lon="-0.95862">
        <ele>6.3</ele>
        <time>2022-06-21T12:18:49Z</time>
      </trkpt>
      <trkpt lat="45.94416" lon="-0.95862">
        <ele>6.3</ele>
        <time>2022-06-21T12:18:50Z</time>
      </trkpt>
      <trkpt lat="45.94416" lon="-0.95862">
        <ele>6.3</ele>
        <time>2022-06-21T12:18:51Z</time>
      </trkpt>
      <trkpt lat="45.94416" lon="-0.95862">
        <ele>6.3</ele>
        <time>2022-06-21T12:18:52Z</time>
      </trkpt>
      <trkpt lat="45.94416" lon="-0.95862">
        <ele>6.3</ele>
        <time>2022-06-21T12:18:53Z</time>
      </trkpt>
      <trkpt lat="45.94416" lon="-0.95862">
        <ele>6.3</ele>
        <time>2022-06-21T12:18:54Z</time>
      </trkpt>
      <trkpt lat="45.94416" lon="-0.95862">
        <ele>6.3</ele>
        <time>2022-06-21T12:18:55Z</time>
      </trkpt>
      <trkpt lat="45.94416" lon="-0.95862">
        <ele>6.3</ele>
        <time>2022-06-21T12:18:56Z</time>
      </trkpt>
      <trkpt lat="45.94416" lon="-0.95862">
        <ele>6.3</ele>
        <time>2022-06-21T12:18:57Z</time>
      </trkpt>
      <trkpt lat="45.94416" lon="-0.95862">
        <ele>6.3</ele>
        <time>2022-06-21T12:18:58Z</time>
      </trkpt>
      <trkpt lat="45.94416" lon="-0.95862">
        <ele>6.3</ele>
        <time>2022-06-21T12:18:59Z</time>
      </trkpt>
      <trkpt lat="45.94416" lon="-0.95862">
        <ele>6.3</ele>
        <time>2022-06-21T12:19:00Z</time>
      </trkpt>
      <trkpt lat="45.94416" lon="-0.95862">
        <ele>6.3</ele>
        <time>2022-06-21T12:19:01Z</time>
      </trkpt>
      <trkpt lat="45.94416" lon="-0.95862">
        <ele>6.3</ele>
        <time>2022-06-21T12:19:02Z</time>
      </trkpt>
      <trkpt lat="45.94416" lon="-0.95862">
        <ele>6.3</ele>
        <time>2022-06-21T12:19:03Z</time>
      </trkpt>
      <trkpt lat="45.94416" lon="-0.95862">
        <ele>6.3</ele>
        <time>2022-06-21T12:19:04Z</time>
      </trkpt>
      <trkpt lat="45.94416" lon="-0.95862">
        <ele>6.3</ele>
        <time>2022-06-21T12:19:05Z</time>
      </trkpt>
      <trkpt lat="45.94416" lon="-0.95862">
        <ele>6.3</ele>
        <time>2022-06-21T12:19:06Z</time>
      </trkpt>
      <trkpt lat="45.94416" lon="-0.95862">
        <ele>6.3</ele>
        <time>2022-06-21T12:19:07Z</time>
      </trkpt>
      <trkpt lat="45.94416" lon="-0.95862">
        <ele>6.3</ele>
        <time>2022-06-21T12:19:08Z</time>
      </trkpt>
      <trkpt lat="45.94416" lon="-0.95862">
        <ele>6.3</ele>
        <time>2022-06-21T12:19:09Z</time>
      </trkpt>
      <trkpt lat="45.94416" lon="-0.95862">
        <ele>6.3</ele>
        <time>2022-06-21T12:19:10Z</time>
      </trkpt>
      <trkpt lat="45.94416" lon="-0.95862">
        <ele>6.3</ele>
        <time>2022-06-21T12:19:11Z</time>
      </trkpt>
      <trkpt lat="45.94416" lon="-0.95862">
        <ele>6.3</ele>
        <time>2022-06-21T12:19:12Z</time>
      </trkpt>
      <trkpt lat="45.94416" lon="-0.95862">
        <ele>6.3</ele>
        <time>2022-06-21T12:19:13Z</time>
      </trkpt>
      <trkpt lat="45.94416" lon="-0.95862">
        <ele>6.3</ele>
        <time>2022-06-21T12:19:14Z</time>
      </trkpt>
      <trkpt lat="45.94416" lon="-0.95862">
        <ele>6.3</ele>
        <time>2022-06-21T12:19:15Z</time>
      </trkpt>
      <trkpt lat="45.94416" lon="-0.95862">
        <ele>6.3</ele>
        <time>2022-06-21T12:19:16Z</time>
      </trkpt>
      <trkpt lat="45.94416" lon="-0.95862">
        <ele>6.3</ele>
        <time>2022-06-21T12:19:17Z</time>
      </trkpt>
      <trkpt lat="45.94416" lon="-0.95862">
        <ele>6.3</ele>
        <time>2022-06-21T12:19:18Z</time>
      </trkpt>
      <trkpt lat="45.94416" lon="-0.95862">
        <ele>6.3</ele>
        <time>2022-06-21T12:19:19Z</time>
      </trkpt>
      <trkpt lat="45.94416" lon="-0.95862">
        <ele>6.3</ele>
        <time>2022-06-21T12:19:20Z</time>
      </trkpt>
      <trkpt lat="45.94416" lon="-0.95862">
        <ele>6.3</ele>
        <time>2022-06-21T12:19:21Z</time>
      </trkpt>
      <trkpt lat="45.94416" lon="-0.95862">
        <ele>6.3</ele>
        <time>2022-06-21T12:19:22Z</time>
      </trkpt>
      <trkpt lat="45.94416" lon="-0.95862">
        <ele>6.3</ele>
        <time>2022-06-21T12:19:23Z</time>
      </trkpt>
      <trkpt lat="45.94416" lon="-0.95862">
        <ele>6.3</ele>
        <time>2022-06-21T12:19:24Z</time>
      </trkpt>
      <trkpt lat="45.94416" lon="-0.95862">
        <ele>6.3</ele>
        <time>2022-06-21T12:19:25Z</time>
      </trkpt>
      <trkpt lat="45.94416" lon="-0.95862">
        <ele>6.3</ele>
        <time>2022-06-21T12:19:26Z</time>
      </trkpt>
      <trkpt lat="45.94416" lon="-0.95862">
        <ele>6.3</ele>
        <time>2022-06-21T12:19:27Z</time>
      </trkpt>
      <trkpt lat="45.94416" lon="-0.95862">
        <ele>6.3</ele>
        <time>2022-06-21T12:19:28Z</time>
      </trkpt>
      <trkpt lat="45.94416" lon="-0.95862">
        <ele>6.3</ele>
        <time>2022-06-21T12:19:29Z</time>
      </trkpt>
      <trkpt lat="45.94416" lon="-0.95862">
        <ele>6.3</ele>
        <time>2022-06-21T12:19:30Z</time>
      </trkpt>
      <trkpt lat="45.94416" lon="-0.95862">
        <ele>6.3</ele>
        <time>2022-06-21T12:19:31Z</time>
      </trkpt>
      <trkpt lat="45.94416" lon="-0.95862">
        <ele>6.3</ele>
        <time>2022-06-21T12:19:32Z</time>
      </trkpt>
      <trkpt lat="45.94416" lon="-0.95862">
        <ele>6.3</ele>
        <time>2022-06-21T12:19:33Z</time>
      </trkpt>
      <trkpt lat="45.94416" lon="-0.95862">
        <ele>6.3</ele>
        <time>2022-06-21T12:19:34Z</time>
      </trkpt>
      <trkpt lat="45.94416" lon="-0.95862">
        <ele>6.3</ele>
        <time>2022-06-21T12:19:35Z</time>
      </trkpt>
      <trkpt lat="45.94416" lon="-0.95862">
        <ele>6.3</ele>
        <time>2022-06-21T12:19:36Z</time>
      </trkpt>
      <trkpt lat="45.94416" lon="-0.95862">
        <ele>6.3</ele>
        <time>2022-06-21T12:19:37Z</time>
      </trkpt>
      <trkpt lat="45.94416" lon="-0.95862">
        <ele>6.3</ele>
        <time>2022-06-21T12:19:38Z</time>
      </trkpt>
      <trkpt lat="45.94416" lon="-0.95862">
        <ele>6.3</ele>
        <time>2022-06-21T12:19:39Z</time>
      </trkpt>
      <trkpt lat="45.94416" lon="-0.95862">
        <ele>6.3</ele>
        <time>2022-06-21T12:19:40Z</time>
      </trkpt>
      <trkpt lat="45.94416" lon="-0.95862">
        <ele>6.3</ele>
        <time>2022-06-21T12:19:41Z</time>
      </trkpt>
      <trkpt lat="45.94416" lon="-0.95862">
        <ele>6.3</ele>
        <time>2022-06-21T12:19:42Z</time>
      </trkpt>
      <trkpt lat="45.94416" lon="-0.95862">
        <ele>6.3</ele>
        <time>2022-06-21T12:19:43Z</time>
      </trkpt>
      <trkpt lat="45.94416" lon="-0.95862">
        <ele>6.3</ele>
        <time>2022-06-21T12:19:44Z</time>
      </trkpt>
      <trkpt lat="45.94416" lon="-0.95862">
        <ele>6.3</ele>
        <time>2022-06-21T12:19:45Z</time>
      </trkpt>
      <trkpt lat="45.94416" lon="-0.95862">
        <ele>6.3</ele>
        <time>2022-06-21T12:19:46Z</time>
      </trkpt>
      <trkpt lat="45.94416" lon="-0.95862">
        <ele>6.3</ele>
        <time>2022-06-21T12:19:47Z</time>
      </trkpt>
      <trkpt lat="45.94416" lon="-0.95862">
        <ele>6.3</ele>
        <time>2022-06-21T12:19:48Z</time>
      </trkpt>
      <trkpt lat="45.94416" lon="-0.95862">
        <ele>6.3</ele>
        <time>2022-06-21T12:19:49Z</time>
      </trkpt>
      <trkpt lat="45.94416" lon="-0.95862">
        <ele>6.3</ele>
        <time>2022-06-21T12:19:50Z</time>
      </trkpt>
      <trkpt lat="45.94416" lon="-0.95862">
        <ele>6.3</ele>
        <time>2022-06-21T12:19:51Z</time>
      </trkpt>
      <trkpt lat="45.94416" lon="-0.95862">
        <ele>6.3</ele>
        <time>2022-06-21T12:19:52Z</time>
      </trkpt>
      <trkpt lat="45.94416" lon="-0.95862">
        <ele>6.3</ele>
        <time>2022-06-21T12:19:53Z</time>
      </trkpt>
      <trkpt lat="45.94416" lon="-0.95862">
        <ele>6.3</ele>
        <time>2022-06-21T12:19:54Z</time>
      </trkpt>
      <trkpt lat="45.94416" lon="-0.95862">
        <ele>6.3</ele>
        <time>2022-06-21T12:19:55Z</time>
      </trkpt>
      <trkpt lat="45.94416" lon="-0.95862">
        <ele>6.3</ele>
        <time>2022-06-21T12:19:56Z</time>
      </trkpt>
      <trkpt lat="45.94416" lon="-0.95862">
        <ele>6.3</ele>
        <time>2022-06-21T12:19:57Z</time>
      </trkpt>
      <trkpt lat="45.94416" lon="-0.95862">
        <ele>6.3</ele>
        <time>2022-06-21T12:19:58Z</time>
      </trkpt>
      <trkpt lat="45.94416" lon="-0.95862">
        <ele>6.3</ele>
        <time>2022-06-21T12:19:59Z</time>
      </trkpt>
      <trkpt lat="45.94416" lon="-0.95862">
        <ele>6.3</ele>
        <time>2022-06-21T12:20:00Z</time>
      </trkpt>
      <trkpt lat="45.94416" lon="-0.95862">
        <ele>6.3</ele>
        <time>2022-06-21T12:20:01Z</time>
      </trkpt>
      <trkpt lat="45.94416" lon="-0.95862">
        <ele>6.3</ele>
        <time>2022-06-21T12:20:02Z</time>
      </trkpt>
      <trkpt lat="45.94416" lon="-0.95862">
        <ele>6.3</ele>
        <time>2022-06-21T12:20:03Z</time>
      </trkpt>
      <trkpt lat="45.94416" lon="-0.95862">
        <ele>6.3</ele>
        <time>2022-06-21T12:20:04Z</time>
      </trkpt>
      <trkpt lat="45.94416" lon="-0.95862">
        <ele>6.3</ele>
        <time>2022-06-21T12:20:05Z</time>
      </trkpt>
      <trkpt lat="45.94416" lon="-0.95862">
        <ele>6.3</ele>
        <time>2022-06-21T12:20:06Z</time>
      </trkpt>
      <trkpt lat="45.94416" lon="-0.95862">
        <ele>6.3</ele>
        <time>2022-06-21T12:20:07Z</time>
      </trkpt>
      <trkpt lat="45.94416" lon="-0.95862">
        <ele>6.3</ele>
        <time>2022-06-21T12:20:08Z</time>
      </trkpt>
      <trkpt lat="45.94416" lon="-0.95862">
        <ele>6.3</ele>
        <time>2022-06-21T12:20:09Z</time>
      </trkpt>
      <trkpt lat="45.94416" lon="-0.95862">
        <ele>6.3</ele>
        <time>2022-06-21T12:20:10Z</time>
      </trkpt>
      <trkpt lat="45.94416" lon="-0.95862">
        <ele>6.3</ele>
        <time>2022-06-21T12:20:11Z</time>
      </trkpt>
      <trkpt lat="45.94416" lon="-0.95862">
        <ele>6.3</ele>
        <time>2022-06-21T12:20:12Z</time>
      </trkpt>
      <trkpt lat="45.94416" lon="-0.95862">
        <ele>6.3</ele>
        <time>2022-06-21T12:20:13Z</time>
      </trkpt>
      <trkpt lat="45.94416" lon="-0.95862">
        <ele>6.3</ele>
        <time>2022-06-21T12:20:14Z</time>
      </trkpt>
      <trkpt lat="45.94416" lon="-0.95862">
        <ele>6.3</ele>
        <time>2022-06-21T12:20:15Z</time>
      </trkpt>
      <trkpt lat="45.94416" lon="-0.95862">
        <ele>6.3</ele>
        <time>2022-06-21T12:20:16Z</time>
      </trkpt>
      <trkpt lat="45.94416" lon="-0.95862">
        <ele>6.3</ele>
        <time>2022-06-21T12:20:17Z</time>
      </trkpt>
      <trkpt lat="45.94416" lon="-0.95862">
        <ele>6.3</ele>
        <time>2022-06-21T12:20:18Z</time>
      </trkpt>
      <trkpt lat="45.94416" lon="-0.95862">
        <ele>6.3</ele>
        <time>2022-06-21T12:20:19Z</time>
      </trkpt>
      <trkpt lat="45.94416" lon="-0.95862">
        <ele>6.3</ele>
        <time>2022-06-21T12:20:20Z</time>
      </trkpt>
      <trkpt lat="45.94416" lon="-0.95862">
        <ele>6.3</ele>
        <time>2022-06-21T12:20:21Z</time>
      </trkpt>
      <trkpt lat="45.94416" lon="-0.95862">
        <ele>6.3</ele>
        <time>2022-06-21T12:20:22Z</time>
      </trkpt>
      <trkpt lat="45.94416" lon="-0.95862">
        <ele>6.3</ele>
        <time>2022-06-21T12:20:23Z</time>
      </trkpt>
      <trkpt lat="45.94416" lon="-0.95862">
        <ele>6.3</ele>
        <time>2022-06-21T12:20:24Z</time>
      </trkpt>
      <trkpt lat="45.94416" lon="-0.95862">
        <ele>6.3</ele>
        <time>2022-06-21T12:20:25Z</time>
      </trkpt>
      <trkpt lat="45.94416" lon="-0.95862">
        <ele>6.3</ele>
        <time>2022-06-21T12:20:26Z</time>
      </trkpt>
      <trkpt lat="45.94416" lon="-0.95862">
        <ele>6.3</ele>
        <time>2022-06-21T12:20:27Z</time>
      </trkpt>
      <trkpt lat="45.94416" lon="-0.95862">
        <ele>6.3</ele>
        <time>2022-06-21T12:20:28Z</time>
      </trkpt>
      <trkpt lat="45.94416" lon="-0.95862">
        <ele>6.3</ele>
        <time>2022-06-21T12:20:29Z</time>
      </trkpt>
      <trkpt lat="45.94416" lon="-0.95862">
        <ele>6.3</ele>
        <time>2022-06-21T12:20:30Z</time>
      </trkpt>
      <trkpt lat="45.94416" lon="-0.95862">
        <ele>6.3</ele>
        <time>2022-06-21T12:20:31Z</time>
      </trkpt>
      <trkpt lat="45.94416" lon="-0.95862">
        <ele>6.3</ele>
        <time>2022-06-21T12:20:32Z</time>
      </trkpt>
      <trkpt lat="45.94416" lon="-0.95862">
        <ele>6.3</ele>
        <time>2022-06-21T12:20:33Z</time>
      </trkpt>
      <trkpt lat="45.94416" lon="-0.95862">
        <ele>6.3</ele>
        <time>2022-06-21T12:20:34Z</time>
      </trkpt>
      <trkpt lat="45.94416" lon="-0.95862">
        <ele>6.3</ele>
        <time>2022-06-21T12:20:35Z</time>
      </trkpt>
      <trkpt lat="45.94416" lon="-0.95862">
        <ele>6.3</ele>
        <time>2022-06-21T12:20:36Z</time>
      </trkpt>
      <trkpt lat="45.94416" lon="-0.95861">
        <ele>6.3</ele>
        <time>2022-06-21T12:20:37Z</time>
      </trkpt>
      <trkpt lat="45.94415" lon="-0.95861">
        <ele>6.3</ele>
        <time>2022-06-21T12:20:38Z</time>
      </trkpt>
      <trkpt lat="45.94415" lon="-0.95861">
        <ele>6.3</ele>
        <time>2022-06-21T12:20:39Z</time>
      </trkpt>
      <trkpt lat="45.94415" lon="-0.95861">
        <ele>6.3</ele>
        <time>2022-06-21T12:20:40Z</time>
      </trkpt>
      <trkpt lat="45.94416" lon="-0.95861">
        <ele>6.3</ele>
        <time>2022-06-21T12:20:41Z</time>
      </trkpt>
      <trkpt lat="45.94416" lon="-0.95861">
        <ele>6.3</ele>
        <time>2022-06-21T12:20:42Z</time>
      </trkpt>
      <trkpt lat="45.94416" lon="-0.95861">
        <ele>6.3</ele>
        <time>2022-06-21T12:20:43Z</time>
      </trkpt>
      <trkpt lat="45.94416" lon="-0.95861">
        <ele>6.3</ele>
        <time>2022-06-21T12:20:44Z</time>
      </trkpt>
      <trkpt lat="45.94416" lon="-0.95861">
        <ele>6.3</ele>
        <time>2022-06-21T12:20:45Z</time>
      </trkpt>
      <trkpt lat="45.94416" lon="-0.95861">
        <ele>6.3</ele>
        <time>2022-06-21T12:20:46Z</time>
      </trkpt>
      <trkpt lat="45.94416" lon="-0.95861">
        <ele>6.3</ele>
        <time>2022-06-21T12:20:47Z</time>
      </trkpt>
      <trkpt lat="45.94416" lon="-0.95861">
        <ele>6.3</ele>
        <time>2022-06-21T12:20:48Z</time>
      </trkpt>
      <trkpt lat="45.94416" lon="-0.95861">
        <ele>6.3</ele>
        <time>2022-06-21T12:20:49Z</time>
      </trkpt>
      <trkpt lat="45.94416" lon="-0.95861">
        <ele>6.3</ele>
        <time>2022-06-21T12:20:50Z</time>
      </trkpt>
      <trkpt lat="45.94416" lon="-0.95861">
        <ele>6.3</ele>
        <time>2022-06-21T12:20:51Z</time>
      </trkpt>
      <trkpt lat="45.94416" lon="-0.95861">
        <ele>6.3</ele>
        <time>2022-06-21T12:20:52Z</time>
      </trkpt>
      <trkpt lat="45.94416" lon="-0.95861">
        <ele>6.3</ele>
        <time>2022-06-21T12:20:53Z</time>
      </trkpt>
      <trkpt lat="45.94416" lon="-0.95861">
        <ele>6.3</ele>
        <time>2022-06-21T12:20:54Z</time>
      </trkpt>
      <trkpt lat="45.94416" lon="-0.95861">
        <ele>6.3</ele>
        <time>2022-06-21T12:20:55Z</time>
      </trkpt>
      <trkpt lat="45.94416" lon="-0.95861">
        <ele>6.3</ele>
        <time>2022-06-21T12:20:56Z</time>
      </trkpt>
      <trkpt lat="45.94416" lon="-0.95861">
        <ele>6.3</ele>
        <time>2022-06-21T12:20:57Z</time>
      </trkpt>
      <trkpt lat="45.94416" lon="-0.95861">
        <ele>6.3</ele>
        <time>2022-06-21T12:20:58Z</time>
      </trkpt>
      <trkpt lat="45.94416" lon="-0.95861">
        <ele>6.3</ele>
        <time>2022-06-21T12:20:59Z</time>
      </trkpt>
      <trkpt lat="45.94416" lon="-0.95861">
        <ele>6.3</ele>
        <time>2022-06-21T12:21:00Z</time>
      </trkpt>
      <trkpt lat="45.94416" lon="-0.95861">
        <ele>6.3</ele>
        <time>2022-06-21T12:21:01Z</time>
      </trkpt>
      <trkpt lat="45.94416" lon="-0.95861">
        <ele>6.3</ele>
        <time>2022-06-21T12:21:02Z</time>
      </trkpt>
      <trkpt lat="45.94416" lon="-0.95861">
        <ele>6.3</ele>
        <time>2022-06-21T12:21:03Z</time>
      </trkpt>
      <trkpt lat="45.94416" lon="-0.95861">
        <ele>6.3</ele>
        <time>2022-06-21T12:21:04Z</time>
      </trkpt>
      <trkpt lat="45.94416" lon="-0.95861">
        <ele>6.3</ele>
        <time>2022-06-21T12:21:05Z</time>
      </trkpt>
      <trkpt lat="45.94416" lon="-0.95861">
        <ele>6.3</ele>
        <time>2022-06-21T12:21:06Z</time>
      </trkpt>
      <trkpt lat="45.94416" lon="-0.95861">
        <ele>6.3</ele>
        <time>2022-06-21T12:21:07Z</time>
      </trkpt>
      <trkpt lat="45.94416" lon="-0.95861">
        <ele>6.3</ele>
        <time>2022-06-21T12:21:08Z</time>
      </trkpt>
      <trkpt lat="45.94416" lon="-0.95861">
        <ele>6.3</ele>
        <time>2022-06-21T12:21:09Z</time>
      </trkpt>
      <trkpt lat="45.94416" lon="-0.95861">
        <ele>6.3</ele>
        <time>2022-06-21T12:21:10Z</time>
      </trkpt>
      <trkpt lat="45.94416" lon="-0.95861">
        <ele>6.3</ele>
        <time>2022-06-21T12:21:11Z</time>
      </trkpt>
      <trkpt lat="45.94416" lon="-0.95861">
        <ele>6.3</ele>
        <time>2022-06-21T12:21:12Z</time>
      </trkpt>
      <trkpt lat="45.94416" lon="-0.95861">
        <ele>6.3</ele>
        <time>2022-06-21T12:21:13Z</time>
      </trkpt>
      <trkpt lat="45.94416" lon="-0.95861">
        <ele>6.3</ele>
        <time>2022-06-21T12:21:14Z</time>
      </trkpt>
      <trkpt lat="45.94416" lon="-0.95861">
        <ele>6.3</ele>
        <time>2022-06-21T12:21:15Z</time>
      </trkpt>
      <trkpt lat="45.94416" lon="-0.95861">
        <ele>6.3</ele>
        <time>2022-06-21T12:21:16Z</time>
      </trkpt>
      <trkpt lat="45.94416" lon="-0.95861">
        <ele>6.3</ele>
        <time>2022-06-21T12:21:17Z</time>
      </trkpt>
      <trkpt lat="45.94416" lon="-0.95861">
        <ele>6.3</ele>
        <time>2022-06-21T12:21:18Z</time>
      </trkpt>
      <trkpt lat="45.94416" lon="-0.95861">
        <ele>6.3</ele>
        <time>2022-06-21T12:21:19Z</time>
      </trkpt>
      <trkpt lat="45.94416" lon="-0.95861">
        <ele>6.3</ele>
        <time>2022-06-21T12:21:20Z</time>
      </trkpt>
      <trkpt lat="45.94416" lon="-0.95861">
        <ele>6.3</ele>
        <time>2022-06-21T12:21:21Z</time>
      </trkpt>
      <trkpt lat="45.94416" lon="-0.95861">
        <ele>6.3</ele>
        <time>2022-06-21T12:21:22Z</time>
      </trkpt>
      <trkpt lat="45.94416" lon="-0.95861">
        <ele>6.3</ele>
        <time>2022-06-21T12:21:23Z</time>
      </trkpt>
      <trkpt lat="45.94416" lon="-0.95861">
        <ele>6.3</ele>
        <time>2022-06-21T12:21:24Z</time>
      </trkpt>
      <trkpt lat="45.94416" lon="-0.95861">
        <ele>6.3</ele>
        <time>2022-06-21T12:21:25Z</time>
      </trkpt>
      <trkpt lat="45.94416" lon="-0.95861">
        <ele>6.3</ele>
        <time>2022-06-21T12:21:26Z</time>
      </trkpt>
      <trkpt lat="45.94416" lon="-0.95861">
        <ele>6.3</ele>
        <time>2022-06-21T12:21:27Z</time>
      </trkpt>
      <trkpt lat="45.94416" lon="-0.95861">
        <ele>6.3</ele>
        <time>2022-06-21T12:21:28Z</time>
      </trkpt>
      <trkpt lat="45.94416" lon="-0.95861">
        <ele>6.3</ele>
        <time>2022-06-21T12:21:29Z</time>
      </trkpt>
      <trkpt lat="45.94416" lon="-0.95861">
        <ele>6.3</ele>
        <time>2022-06-21T12:21:30Z</time>
      </trkpt>
      <trkpt lat="45.94416" lon="-0.95861">
        <ele>6.3</ele>
        <time>2022-06-21T12:21:31Z</time>
      </trkpt>
      <trkpt lat="45.94416" lon="-0.95861">
        <ele>6.3</ele>
        <time>2022-06-21T12:21:32Z</time>
      </trkpt>
      <trkpt lat="45.94416" lon="-0.95861">
        <ele>6.3</ele>
        <time>2022-06-21T12:21:33Z</time>
      </trkpt>
      <trkpt lat="45.94416" lon="-0.95861">
        <ele>6.3</ele>
        <time>2022-06-21T12:21:34Z</time>
      </trkpt>
      <trkpt lat="45.94416" lon="-0.95861">
        <ele>6.3</ele>
        <time>2022-06-21T12:21:35Z</time>
      </trkpt>
      <trkpt lat="45.94416" lon="-0.95861">
        <ele>6.3</ele>
        <time>2022-06-21T12:21:36Z</time>
      </trkpt>
      <trkpt lat="45.94416" lon="-0.95861">
        <ele>6.3</ele>
        <time>2022-06-21T12:21:37Z</time>
      </trkpt>
      <trkpt lat="45.94416" lon="-0.95861">
        <ele>6.3</ele>
        <time>2022-06-21T12:21:38Z</time>
      </trkpt>
      <trkpt lat="45.94416" lon="-0.95861">
        <ele>6.3</ele>
        <time>2022-06-21T12:21:39Z</time>
      </trkpt>
      <trkpt lat="45.94416" lon="-0.95861">
        <ele>6.3</ele>
        <time>2022-06-21T12:21:40Z</time>
      </trkpt>
      <trkpt lat="45.94416" lon="-0.95861">
        <ele>6.3</ele>
        <time>2022-06-21T12:21:41Z</time>
      </trkpt>
      <trkpt lat="45.94416" lon="-0.95861">
        <ele>6.3</ele>
        <time>2022-06-21T12:21:42Z</time>
      </trkpt>
      <trkpt lat="45.94416" lon="-0.95861">
        <ele>6.3</ele>
        <time>2022-06-21T12:21:43Z</time>
      </trkpt>
      <trkpt lat="45.94416" lon="-0.95861">
        <ele>6.3</ele>
        <time>2022-06-21T12:21:44Z</time>
      </trkpt>
      <trkpt lat="45.94416" lon="-0.95861">
        <ele>6.3</ele>
        <time>2022-06-21T12:21:45Z</time>
      </trkpt>
      <trkpt lat="45.94416" lon="-0.95861">
        <ele>6.3</ele>
        <time>2022-06-21T12:21:46Z</time>
      </trkpt>
      <trkpt lat="45.94416" lon="-0.95861">
        <ele>6.3</ele>
        <time>2022-06-21T12:21:47Z</time>
      </trkpt>
      <trkpt lat="45.94416" lon="-0.95861">
        <ele>6.3</ele>
        <time>2022-06-21T12:21:48Z</time>
      </trkpt>
      <trkpt lat="45.94416" lon="-0.95861">
        <ele>6.3</ele>
        <time>2022-06-21T12:21:49Z</time>
      </trkpt>
      <trkpt lat="45.94416" lon="-0.95861">
        <ele>6.3</ele>
        <time>2022-06-21T12:21:50Z</time>
      </trkpt>
      <trkpt lat="45.94416" lon="-0.95861">
        <ele>6.3</ele>
        <time>2022-06-21T12:21:51Z</time>
      </trkpt>
      <trkpt lat="45.94416" lon="-0.95861">
        <ele>6.3</ele>
        <time>2022-06-21T12:21:52Z</time>
      </trkpt>
      <trkpt lat="45.94416" lon="-0.95861">
        <ele>6.3</ele>
        <time>2022-06-21T12:21:53Z</time>
      </trkpt>
      <trkpt lat="45.94416" lon="-0.95861">
        <ele>6.3</ele>
        <time>2022-06-21T12:21:54Z</time>
      </trkpt>
      <trkpt lat="45.94416" lon="-0.95861">
        <ele>6.3</ele>
        <time>2022-06-21T12:21:55Z</time>
      </trkpt>
      <trkpt lat="45.94416" lon="-0.95861">
        <ele>6.3</ele>
        <time>2022-06-21T12:21:56Z</time>
      </trkpt>
      <trkpt lat="45.94416" lon="-0.95861">
        <ele>6.3</ele>
        <time>2022-06-21T12:21:57Z</time>
      </trkpt>
      <trkpt lat="45.94416" lon="-0.95861">
        <ele>6.3</ele>
        <time>2022-06-21T12:21:58Z</time>
      </trkpt>
      <trkpt lat="45.94416" lon="-0.95861">
        <ele>6.3</ele>
        <time>2022-06-21T12:21:59Z</time>
      </trkpt>
      <trkpt lat="45.94416" lon="-0.95861">
        <ele>6.3</ele>
        <time>2022-06-21T12:22:00Z</time>
      </trkpt>
      <trkpt lat="45.94416" lon="-0.95861">
        <ele>6.3</ele>
        <time>2022-06-21T12:22:01Z</time>
      </trkpt>
      <trkpt lat="45.94416" lon="-0.95861">
        <ele>6.3</ele>
        <time>2022-06-21T12:22:02Z</time>
      </trkpt>
      <trkpt lat="45.94416" lon="-0.95861">
        <ele>6.3</ele>
        <time>2022-06-21T12:22:03Z</time>
      </trkpt>
      <trkpt lat="45.94416" lon="-0.95861">
        <ele>6.3</ele>
        <time>2022-06-21T12:22:04Z</time>
      </trkpt>
      <trkpt lat="45.94416" lon="-0.95861">
        <ele>6.3</ele>
        <time>2022-06-21T12:22:05Z</time>
      </trkpt>
      <trkpt lat="45.94416" lon="-0.95861">
        <ele>6.3</ele>
        <time>2022-06-21T12:22:06Z</time>
      </trkpt>
      <trkpt lat="45.94416" lon="-0.95861">
        <ele>6.3</ele>
        <time>2022-06-21T12:22:07Z</time>
      </trkpt>
      <trkpt lat="45.94416" lon="-0.95861">
        <ele>6.3</ele>
        <time>2022-06-21T12:22:08Z</time>
      </trkpt>
      <trkpt lat="45.94416" lon="-0.95861">
        <ele>6.3</ele>
        <time>2022-06-21T12:22:09Z</time>
      </trkpt>
      <trkpt lat="45.94416" lon="-0.95861">
        <ele>6.3</ele>
        <time>2022-06-21T12:22:10Z</time>
      </trkpt>
      <trkpt lat="45.94416" lon="-0.95861">
        <ele>6.3</ele>
        <time>2022-06-21T12:22:11Z</time>
      </trkpt>
      <trkpt lat="45.94416" lon="-0.95861">
        <ele>6.3</ele>
        <time>2022-06-21T12:22:12Z</time>
      </trkpt>
      <trkpt lat="45.94416" lon="-0.95861">
        <ele>6.3</ele>
        <time>2022-06-21T12:22:13Z</time>
      </trkpt>
      <trkpt lat="45.94416" lon="-0.95861">
        <ele>6.3</ele>
        <time>2022-06-21T12:22:14Z</time>
      </trkpt>
      <trkpt lat="45.94416" lon="-0.95861">
        <ele>6.3</ele>
        <time>2022-06-21T12:22:15Z</time>
      </trkpt>
      <trkpt lat="45.94416" lon="-0.95861">
        <ele>6.3</ele>
        <time>2022-06-21T12:22:16Z</time>
      </trkpt>
      <trkpt lat="45.94416" lon="-0.95861">
        <ele>6.3</ele>
        <time>2022-06-21T12:22:17Z</time>
      </trkpt>
      <trkpt lat="45.94416" lon="-0.95861">
        <ele>6.3</ele>
        <time>2022-06-21T12:22:18Z</time>
      </trkpt>
      <trkpt lat="45.94416" lon="-0.95861">
        <ele>6.3</ele>
        <time>2022-06-21T12:22:19Z</time>
      </trkpt>
      <trkpt lat="45.94416" lon="-0.95861">
        <ele>6.3</ele>
        <time>2022-06-21T12:22:20Z</time>
      </trkpt>
      <trkpt lat="45.94416" lon="-0.95861">
        <ele>6.3</ele>
        <time>2022-06-21T12:22:21Z</time>
      </trkpt>
      <trkpt lat="45.94416" lon="-0.95861">
        <ele>6.3</ele>
        <time>2022-06-21T12:22:22Z</time>
      </trkpt>
      <trkpt lat="45.94416" lon="-0.95861">
        <ele>6.3</ele>
        <time>2022-06-21T12:22:23Z</time>
      </trkpt>
      <trkpt lat="45.94416" lon="-0.95861">
        <ele>6.3</ele>
        <time>2022-06-21T12:22:24Z</time>
      </trkpt>
      <trkpt lat="45.94416" lon="-0.95861">
        <ele>6.3</ele>
        <time>2022-06-21T12:22:25Z</time>
      </trkpt>
      <trkpt lat="45.94416" lon="-0.95861">
        <ele>6.3</ele>
        <time>2022-06-21T12:22:26Z</time>
      </trkpt>
      <trkpt lat="45.94416" lon="-0.95861">
        <ele>6.3</ele>
        <time>2022-06-21T12:22:27Z</time>
      </trkpt>
      <trkpt lat="45.94416" lon="-0.95861">
        <ele>6.3</ele>
        <time>2022-06-21T12:22:28Z</time>
      </trkpt>
      <trkpt lat="45.94416" lon="-0.95861">
        <ele>6.3</ele>
        <time>2022-06-21T12:22:29Z</time>
      </trkpt>
      <trkpt lat="45.94416" lon="-0.95861">
        <ele>6.3</ele>
        <time>2022-06-21T12:22:30Z</time>
      </trkpt>
      <trkpt lat="45.94416" lon="-0.95861">
        <ele>6.3</ele>
        <time>2022-06-21T12:22:31Z</time>
      </trkpt>
      <trkpt lat="45.94416" lon="-0.95861">
        <ele>6.3</ele>
        <time>2022-06-21T12:22:32Z</time>
      </trkpt>
      <trkpt lat="45.94416" lon="-0.95861">
        <ele>6.3</ele>
        <time>2022-06-21T12:22:33Z</time>
      </trkpt>
      <trkpt lat="45.94416" lon="-0.95861">
        <ele>6.3</ele>
        <time>2022-06-21T12:22:34Z</time>
      </trkpt>
      <trkpt lat="45.94416" lon="-0.95861">
        <ele>6.3</ele>
        <time>2022-06-21T12:22:35Z</time>
      </trkpt>
      <trkpt lat="45.94416" lon="-0.95861">
        <ele>6.3</ele>
        <time>2022-06-21T12:22:36Z</time>
      </trkpt>
      <trkpt lat="45.94416" lon="-0.95861">
        <ele>6.3</ele>
        <time>2022-06-21T12:22:37Z</time>
      </trkpt>
      <trkpt lat="45.94416" lon="-0.95861">
        <ele>6.3</ele>
        <time>2022-06-21T12:22:38Z</time>
      </trkpt>
      <trkpt lat="45.94416" lon="-0.95861">
        <ele>6.3</ele>
        <time>2022-06-21T12:22:39Z</time>
      </trkpt>
      <trkpt lat="45.94416" lon="-0.95861">
        <ele>6.3</ele>
        <time>2022-06-21T12:22:40Z</time>
      </trkpt>
      <trkpt lat="45.94416" lon="-0.95861">
        <ele>6.3</ele>
        <time>2022-06-21T12:22:41Z</time>
      </trkpt>
      <trkpt lat="45.94416" lon="-0.95861">
        <ele>6.3</ele>
        <time>2022-06-21T12:22:42Z</time>
      </trkpt>
      <trkpt lat="45.94416" lon="-0.95861">
        <ele>6.3</ele>
        <time>2022-06-21T12:22:43Z</time>
      </trkpt>
      <trkpt lat="45.94416" lon="-0.95861">
        <ele>6.3</ele>
        <time>2022-06-21T12:22:44Z</time>
      </trkpt>
      <trkpt lat="45.94416" lon="-0.95861">
        <ele>6.3</ele>
        <time>2022-06-21T12:22:45Z</time>
      </trkpt>
      <trkpt lat="45.94416" lon="-0.95861">
        <ele>6.3</ele>
        <time>2022-06-21T12:22:46Z</time>
      </trkpt>
      <trkpt lat="45.94416" lon="-0.95861">
        <ele>6.3</ele>
        <time>2022-06-21T12:22:47Z</time>
      </trkpt>
      <trkpt lat="45.94416" lon="-0.95861">
        <ele>6.3</ele>
        <time>2022-06-21T12:22:48Z</time>
      </trkpt>
      <trkpt lat="45.94416" lon="-0.95861">
        <ele>6.3</ele>
        <time>2022-06-21T12:22:49Z</time>
      </trkpt>
      <trkpt lat="45.94416" lon="-0.95861">
        <ele>6.3</ele>
        <time>2022-06-21T12:22:50Z</time>
      </trkpt>
      <trkpt lat="45.94416" lon="-0.95861">
        <ele>6.3</ele>
        <time>2022-06-21T12:22:51Z</time>
      </trkpt>
      <trkpt lat="45.94416" lon="-0.95861">
        <ele>6.3</ele>
        <time>2022-06-21T12:22:52Z</time>
      </trkpt>
      <trkpt lat="45.94416" lon="-0.95861">
        <ele>6.3</ele>
        <time>2022-06-21T12:22:53Z</time>
      </trkpt>
      <trkpt lat="45.94416" lon="-0.95861">
        <ele>6.3</ele>
        <time>2022-06-21T12:22:54Z</time>
      </trkpt>
      <trkpt lat="45.94416" lon="-0.95861">
        <ele>6.3</ele>
        <time>2022-06-21T12:22:55Z</time>
      </trkpt>
      <trkpt lat="45.94416" lon="-0.95861">
        <ele>6.3</ele>
        <time>2022-06-21T12:22:56Z</time>
      </trkpt>
      <trkpt lat="45.94416" lon="-0.95861">
        <ele>6.3</ele>
        <time>2022-06-21T12:22:57Z</time>
      </trkpt>
      <trkpt lat="45.94416" lon="-0.95861">
        <ele>6.3</ele>
        <time>2022-06-21T12:22:58Z</time>
      </trkpt>
      <trkpt lat="45.94416" lon="-0.95861">
        <ele>6.3</ele>
        <time>2022-06-21T12:22:59Z</time>
      </trkpt>
      <trkpt lat="45.94416" lon="-0.95861">
        <ele>6.3</ele>
        <time>2022-06-21T12:23:00Z</time>
      </trkpt>
      <trkpt lat="45.94416" lon="-0.95861">
        <ele>6.3</ele>
        <time>2022-06-21T12:23:01Z</time>
      </trkpt>
      <trkpt lat="45.94416" lon="-0.95861">
        <ele>6.3</ele>
        <time>2022-06-21T12:23:02Z</time>
      </trkpt>
      <trkpt lat="45.94416" lon="-0.95861">
        <ele>6.3</ele>
        <time>2022-06-21T12:23:03Z</time>
      </trkpt>
      <trkpt lat="45.94416" lon="-0.95861">
        <ele>6.3</ele>
        <time>2022-06-21T12:23:04Z</time>
      </trkpt>
      <trkpt lat="45.94416" lon="-0.95861">
        <ele>6.3</ele>
        <time>2022-06-21T12:23:05Z</time>
      </trkpt>
      <trkpt lat="45.94416" lon="-0.95861">
        <ele>6.3</ele>
        <time>2022-06-21T12:23:06Z</time>
      </trkpt>
      <trkpt lat="45.94416" lon="-0.95861">
        <ele>6.3</ele>
        <time>2022-06-21T12:23:07Z</time>
      </trkpt>
      <trkpt lat="45.94416" lon="-0.95861">
        <ele>6.3</ele>
        <time>2022-06-21T12:23:08Z</time>
      </trkpt>
      <trkpt lat="45.94416" lon="-0.95861">
        <ele>6.3</ele>
        <time>2022-06-21T12:23:09Z</time>
      </trkpt>
      <trkpt lat="45.94416" lon="-0.95861">
        <ele>6.3</ele>
        <time>2022-06-21T12:23:10Z</time>
      </trkpt>
      <trkpt lat="45.94416" lon="-0.95861">
        <ele>6.3</ele>
        <time>2022-06-21T12:23:11Z</time>
      </trkpt>
      <trkpt lat="45.94416" lon="-0.95861">
        <ele>6.3</ele>
        <time>2022-06-21T12:23:12Z</time>
      </trkpt>
      <trkpt lat="45.94416" lon="-0.95861">
        <ele>6.3</ele>
        <time>2022-06-21T12:23:13Z</time>
      </trkpt>
      <trkpt lat="45.94416" lon="-0.95861">
        <ele>6.3</ele>
        <time>2022-06-21T12:23:14Z</time>
      </trkpt>
      <trkpt lat="45.94416" lon="-0.95861">
        <ele>6.3</ele>
        <time>2022-06-21T12:23:15Z</time>
      </trkpt>
      <trkpt lat="45.94416" lon="-0.95861">
        <ele>6.3</ele>
        <time>2022-06-21T12:23:16Z</time>
      </trkpt>
      <trkpt lat="45.94416" lon="-0.95861">
        <ele>6.3</ele>
        <time>2022-06-21T12:23:17Z</time>
      </trkpt>
      <trkpt lat="45.94416" lon="-0.95861">
        <ele>6.3</ele>
        <time>2022-06-21T12:23:18Z</time>
      </trkpt>
      <trkpt lat="45.94416" lon="-0.95861">
        <ele>6.3</ele>
        <time>2022-06-21T12:23:19Z</time>
      </trkpt>
      <trkpt lat="45.94416" lon="-0.95861">
        <ele>6.3</ele>
        <time>2022-06-21T12:23:20Z</time>
      </trkpt>
      <trkpt lat="45.94416" lon="-0.95861">
        <ele>6.3</ele>
        <time>2022-06-21T12:23:21Z</time>
      </trkpt>
      <trkpt lat="45.94416" lon="-0.95861">
        <ele>6.3</ele>
        <time>2022-06-21T12:23:22Z</time>
      </trkpt>
      <trkpt lat="45.94416" lon="-0.95861">
        <ele>6.3</ele>
        <time>2022-06-21T12:23:23Z</time>
      </trkpt>
      <trkpt lat="45.94416" lon="-0.95861">
        <ele>6.3</ele>
        <time>2022-06-21T12:23:24Z</time>
      </trkpt>
      <trkpt lat="45.94416" lon="-0.95861">
        <ele>6.3</ele>
        <time>2022-06-21T12:23:25Z</time>
      </trkpt>
      <trkpt lat="45.94416" lon="-0.95861">
        <ele>6.3</ele>
        <time>2022-06-21T12:23:26Z</time>
      </trkpt>
      <trkpt lat="45.94416" lon="-0.95861">
        <ele>6.3</ele>
        <time>2022-06-21T12:23:27Z</time>
      </trkpt>
      <trkpt lat="45.94416" lon="-0.95861">
        <ele>6.3</ele>
        <time>2022-06-21T12:23:28Z</time>
      </trkpt>
      <trkpt lat="45.94416" lon="-0.95861">
        <ele>6.3</ele>
        <time>2022-06-21T12:23:29Z</time>
      </trkpt>
      <trkpt lat="45.94416" lon="-0.95861">
        <ele>6.3</ele>
        <time>2022-06-21T12:23:30Z</time>
      </trkpt>
      <trkpt lat="45.94416" lon="-0.95861">
        <ele>6.3</ele>
        <time>2022-06-21T12:23:31Z</time>
      </trkpt>
      <trkpt lat="45.94416" lon="-0.95861">
        <ele>6.3</ele>
        <time>2022-06-21T12:23:32Z</time>
      </trkpt>
      <trkpt lat="45.94416" lon="-0.95861">
        <ele>6.3</ele>
        <time>2022-06-21T12:23:33Z</time>
      </trkpt>
      <trkpt lat="45.94416" lon="-0.95861">
        <ele>6.3</ele>
        <time>2022-06-21T12:23:34Z</time>
      </trkpt>
      <trkpt lat="45.94416" lon="-0.95861">
        <ele>6.3</ele>
        <time>2022-06-21T12:23:35Z</time>
      </trkpt>
      <trkpt lat="45.94416" lon="-0.95861">
        <ele>6.3</ele>
        <time>2022-06-21T12:23:36Z</time>
      </trkpt>
      <trkpt lat="45.94416" lon="-0.95861">
        <ele>6.3</ele>
        <time>2022-06-21T12:23:37Z</time>
      </trkpt>
      <trkpt lat="45.94416" lon="-0.95861">
        <ele>6.3</ele>
        <time>2022-06-21T12:23:38Z</time>
      </trkpt>
      <trkpt lat="45.94416" lon="-0.95861">
        <ele>6.3</ele>
        <time>2022-06-21T12:23:39Z</time>
      </trkpt>
      <trkpt lat="45.94416" lon="-0.95861">
        <ele>6.3</ele>
        <time>2022-06-21T12:23:40Z</time>
      </trkpt>
      <trkpt lat="45.94416" lon="-0.95861">
        <ele>6.3</ele>
        <time>2022-06-21T12:23:41Z</time>
      </trkpt>
      <trkpt lat="45.94416" lon="-0.95861">
        <ele>6.3</ele>
        <time>2022-06-21T12:23:42Z</time>
      </trkpt>
      <trkpt lat="45.94416" lon="-0.95861">
        <ele>6.3</ele>
        <time>2022-06-21T12:23:43Z</time>
      </trkpt>
      <trkpt lat="45.94416" lon="-0.95861">
        <ele>6.3</ele>
        <time>2022-06-21T12:23:44Z</time>
      </trkpt>
      <trkpt lat="45.94416" lon="-0.95861">
        <ele>6.3</ele>
        <time>2022-06-21T12:23:45Z</time>
      </trkpt>
      <trkpt lat="45.94416" lon="-0.95861">
        <ele>6.3</ele>
        <time>2022-06-21T12:23:46Z</time>
      </trkpt>
      <trkpt lat="45.94416" lon="-0.95861">
        <ele>6.3</ele>
        <time>2022-06-21T12:23:47Z</time>
      </trkpt>
      <trkpt lat="45.94416" lon="-0.95861">
        <ele>6.3</ele>
        <time>2022-06-21T12:23:48Z</time>
      </trkpt>
      <trkpt lat="45.94416" lon="-0.95861">
        <ele>6.3</ele>
        <time>2022-06-21T12:23:49Z</time>
      </trkpt>
      <trkpt lat="45.94416" lon="-0.95861">
        <ele>6.3</ele>
        <time>2022-06-21T12:23:50Z</time>
      </trkpt>
      <trkpt lat="45.94416" lon="-0.95861">
        <ele>6.3</ele>
        <time>2022-06-21T12:23:51Z</time>
      </trkpt>
      <trkpt lat="45.94416" lon="-0.95861">
        <ele>6.3</ele>
        <time>2022-06-21T12:23:52Z</time>
      </trkpt>
      <trkpt lat="45.94416" lon="-0.95861">
        <ele>6.3</ele>
        <time>2022-06-21T12:23:53Z</time>
      </trkpt>
      <trkpt lat="45.94416" lon="-0.95861">
        <ele>6.3</ele>
        <time>2022-06-21T12:23:54Z</time>
      </trkpt>
      <trkpt lat="45.94416" lon="-0.95861">
        <ele>6.3</ele>
        <time>2022-06-21T12:23:55Z</time>
      </trkpt>
      <trkpt lat="45.94416" lon="-0.95861">
        <ele>6.3</ele>
        <time>2022-06-21T12:23:56Z</time>
      </trkpt>
      <trkpt lat="45.94416" lon="-0.95861">
        <ele>6.3</ele>
        <time>2022-06-21T12:23:57Z</time>
      </trkpt>
      <trkpt lat="45.94416" lon="-0.95861">
        <ele>6.3</ele>
        <time>2022-06-21T12:23:58Z</time>
      </trkpt>
      <trkpt lat="45.94416" lon="-0.95861">
        <ele>6.3</ele>
        <time>2022-06-21T12:23:59Z</time>
      </trkpt>
      <trkpt lat="45.94416" lon="-0.95861">
        <ele>6.3</ele>
        <time>2022-06-21T12:24:00Z</time>
      </trkpt>
      <trkpt lat="45.94416" lon="-0.95861">
        <ele>6.3</ele>
        <time>2022-06-21T12:24:01Z</time>
      </trkpt>
      <trkpt lat="45.94416" lon="-0.95861">
        <ele>6.3</ele>
        <time>2022-06-21T12:24:02Z</time>
      </trkpt>
      <trkpt lat="45.94416" lon="-0.95861">
        <ele>6.3</ele>
        <time>2022-06-21T12:24:03Z</time>
      </trkpt>
      <trkpt lat="45.94416" lon="-0.95861">
        <ele>6.3</ele>
        <time>2022-06-21T12:24:04Z</time>
      </trkpt>
      <trkpt lat="45.94416" lon="-0.95861">
        <ele>6.3</ele>
        <time>2022-06-21T12:24:05Z</time>
      </trkpt>
      <trkpt lat="45.94416" lon="-0.95861">
        <ele>6.3</ele>
        <time>2022-06-21T12:24:06Z</time>
      </trkpt>
      <trkpt lat="45.94416" lon="-0.95861">
        <ele>6.3</ele>
        <time>2022-06-21T12:24:07Z</time>
      </trkpt>
      <trkpt lat="45.94416" lon="-0.95861">
        <ele>6.3</ele>
        <time>2022-06-21T12:24:08Z</time>
      </trkpt>
      <trkpt lat="45.94416" lon="-0.95861">
        <ele>6.3</ele>
        <time>2022-06-21T12:24:09Z</time>
      </trkpt>
      <trkpt lat="45.94416" lon="-0.95861">
        <ele>6.3</ele>
        <time>2022-06-21T12:24:10Z</time>
      </trkpt>
      <trkpt lat="45.94416" lon="-0.95861">
        <ele>6.3</ele>
        <time>2022-06-21T12:24:11Z</time>
      </trkpt>
      <trkpt lat="45.94416" lon="-0.95861">
        <ele>6.3</ele>
        <time>2022-06-21T12:24:12Z</time>
      </trkpt>
      <trkpt lat="45.94416" lon="-0.95861">
        <ele>6.3</ele>
        <time>2022-06-21T12:24:13Z</time>
      </trkpt>
      <trkpt lat="45.94416" lon="-0.95861">
        <ele>6.3</ele>
        <time>2022-06-21T12:24:14Z</time>
      </trkpt>
      <trkpt lat="45.94416" lon="-0.95861">
        <ele>6.3</ele>
        <time>2022-06-21T12:24:15Z</time>
      </trkpt>
      <trkpt lat="45.94416" lon="-0.95861">
        <ele>6.3</ele>
        <time>2022-06-21T12:24:16Z</time>
      </trkpt>
      <trkpt lat="45.94416" lon="-0.95861">
        <ele>6.3</ele>
        <time>2022-06-21T12:24:17Z</time>
      </trkpt>
      <trkpt lat="45.94416" lon="-0.95861">
        <ele>6.3</ele>
        <time>2022-06-21T12:24:18Z</time>
      </trkpt>
      <trkpt lat="45.94416" lon="-0.95861">
        <ele>6.3</ele>
        <time>2022-06-21T12:24:19Z</time>
      </trkpt>
      <trkpt lat="45.94416" lon="-0.95861">
        <ele>6.3</ele>
        <time>2022-06-21T12:24:20Z</time>
      </trkpt>
      <trkpt lat="45.94416" lon="-0.95861">
        <ele>6.3</ele>
        <time>2022-06-21T12:24:21Z</time>
      </trkpt>
      <trkpt lat="45.94416" lon="-0.95861">
        <ele>6.3</ele>
        <time>2022-06-21T12:24:22Z</time>
      </trkpt>
      <trkpt lat="45.94416" lon="-0.95861">
        <ele>6.3</ele>
        <time>2022-06-21T12:24:23Z</time>
      </trkpt>
      <trkpt lat="45.94416" lon="-0.95861">
        <ele>6.3</ele>
        <time>2022-06-21T12:24:24Z</time>
      </trkpt>
      <trkpt lat="45.94416" lon="-0.95861">
        <ele>6.3</ele>
        <time>2022-06-21T12:24:25Z</time>
      </trkpt>
      <trkpt lat="45.94416" lon="-0.95861">
        <ele>6.3</ele>
        <time>2022-06-21T12:24:26Z</time>
      </trkpt>
      <trkpt lat="45.94416" lon="-0.95861">
        <ele>6.3</ele>
        <time>2022-06-21T12:24:27Z</time>
      </trkpt>
      <trkpt lat="45.94416" lon="-0.95861">
        <ele>6.3</ele>
        <time>2022-06-21T12:24:28Z</time>
      </trkpt>
      <trkpt lat="45.94416" lon="-0.95861">
        <ele>6.3</ele>
        <time>2022-06-21T12:24:29Z</time>
      </trkpt>
      <trkpt lat="45.94416" lon="-0.95861">
        <ele>6.3</ele>
        <time>2022-06-21T12:24:30Z</time>
      </trkpt>
      <trkpt lat="45.94416" lon="-0.95861">
        <ele>6.3</ele>
        <time>2022-06-21T12:24:31Z</time>
      </trkpt>
      <trkpt lat="45.94416" lon="-0.95861">
        <ele>6.3</ele>
        <time>2022-06-21T12:24:32Z</time>
      </trkpt>
      <trkpt lat="45.94416" lon="-0.95861">
        <ele>6.3</ele>
        <time>2022-06-21T12:24:33Z</time>
      </trkpt>
      <trkpt lat="45.94416" lon="-0.95861">
        <ele>6.3</ele>
        <time>2022-06-21T12:24:34Z</time>
      </trkpt>
      <trkpt lat="45.94416" lon="-0.95861">
        <ele>6.3</ele>
        <time>2022-06-21T12:24:35Z</time>
      </trkpt>
      <trkpt lat="45.94416" lon="-0.95861">
        <ele>6.3</ele>
        <time>2022-06-21T12:24:36Z</time>
      </trkpt>
      <trkpt lat="45.94416" lon="-0.95861">
        <ele>6.3</ele>
        <time>2022-06-21T12:24:37Z</time>
      </trkpt>
      <trkpt lat="45.94416" lon="-0.95861">
        <ele>6.3</ele>
        <time>2022-06-21T12:24:38Z</time>
      </trkpt>
      <trkpt lat="45.94416" lon="-0.95861">
        <ele>6.3</ele>
        <time>2022-06-21T12:24:39Z</time>
      </trkpt>
      <trkpt lat="45.94416" lon="-0.95861">
        <ele>6.3</ele>
        <time>2022-06-21T12:24:40Z</time>
      </trkpt>
      <trkpt lat="45.94416" lon="-0.95861">
        <ele>6.3</ele>
        <time>2022-06-21T12:24:41Z</time>
      </trkpt>
      <trkpt lat="45.94416" lon="-0.95861">
        <ele>6.3</ele>
        <time>2022-06-21T12:24:42Z</time>
      </trkpt>
      <trkpt lat="45.94416" lon="-0.95861">
        <ele>6.3</ele>
        <time>2022-06-21T12:24:43Z</time>
      </trkpt>
      <trkpt lat="45.94416" lon="-0.95861">
        <ele>6.3</ele>
        <time>2022-06-21T12:24:44Z</time>
      </trkpt>
      <trkpt lat="45.94416" lon="-0.95861">
        <ele>6.3</ele>
        <time>2022-06-21T12:24:45Z</time>
      </trkpt>
      <trkpt lat="45.94416" lon="-0.95861">
        <ele>6.3</ele>
        <time>2022-06-21T12:24:46Z</time>
      </trkpt>
      <trkpt lat="45.94416" lon="-0.95861">
        <ele>6.3</ele>
        <time>2022-06-21T12:24:47Z</time>
      </trkpt>
      <trkpt lat="45.94416" lon="-0.95861">
        <ele>6.3</ele>
        <time>2022-06-21T12:24:48Z</time>
      </trkpt>
      <trkpt lat="45.94416" lon="-0.95861">
        <ele>6.3</ele>
        <time>2022-06-21T12:24:49Z</time>
      </trkpt>
      <trkpt lat="45.94416" lon="-0.95861">
        <ele>6.3</ele>
        <time>2022-06-21T12:24:50Z</time>
      </trkpt>
      <trkpt lat="45.94416" lon="-0.95861">
        <ele>6.3</ele>
        <time>2022-06-21T12:24:51Z</time>
      </trkpt>
      <trkpt lat="45.94416" lon="-0.95861">
        <ele>6.3</ele>
        <time>2022-06-21T12:24:52Z</time>
      </trkpt>
      <trkpt lat="45.94416" lon="-0.95861">
        <ele>6.3</ele>
        <time>2022-06-21T12:24:53Z</time>
      </trkpt>
      <trkpt lat="45.94416" lon="-0.95861">
        <ele>6.3</ele>
        <time>2022-06-21T12:24:54Z</time>
      </trkpt>
      <trkpt lat="45.94416" lon="-0.95861">
        <ele>6.3</ele>
        <time>2022-06-21T12:24:55Z</time>
      </trkpt>
      <trkpt lat="45.94416" lon="-0.95861">
        <ele>6.3</ele>
        <time>2022-06-21T12:24:56Z</time>
      </trkpt>
      <trkpt lat="45.94416" lon="-0.95861">
        <ele>6.3</ele>
        <time>2022-06-21T12:24:57Z</time>
      </trkpt>
      <trkpt lat="45.94416" lon="-0.95861">
        <ele>6.3</ele>
        <time>2022-06-21T12:24:58Z</time>
      </trkpt>
      <trkpt lat="45.94416" lon="-0.95861">
        <ele>6.3</ele>
        <time>2022-06-21T12:24:59Z</time>
      </trkpt>
      <trkpt lat="45.94416" lon="-0.95861">
        <ele>6.3</ele>
        <time>2022-06-21T12:25:00Z</time>
      </trkpt>
      <trkpt lat="45.94416" lon="-0.95861">
        <ele>6.3</ele>
        <time>2022-06-21T12:25:01Z</time>
      </trkpt>
      <trkpt lat="45.94416" lon="-0.95861">
        <ele>6.3</ele>
        <time>2022-06-21T12:25:02Z</time>
      </trkpt>
      <trkpt lat="45.94416" lon="-0.95861">
        <ele>6.3</ele>
        <time>2022-06-21T12:25:03Z</time>
      </trkpt>
      <trkpt lat="45.94416" lon="-0.95861">
        <ele>6.3</ele>
        <time>2022-06-21T12:25:04Z</time>
      </trkpt>
      <trkpt lat="45.94416" lon="-0.95861">
        <ele>6.3</ele>
        <time>2022-06-21T12:25:05Z</time>
      </trkpt>
      <trkpt lat="45.94416" lon="-0.95861">
        <ele>6.3</ele>
        <time>2022-06-21T12:25:06Z</time>
      </trkpt>
      <trkpt lat="45.94416" lon="-0.95861">
        <ele>6.3</ele>
        <time>2022-06-21T12:25:07Z</time>
      </trkpt>
      <trkpt lat="45.94416" lon="-0.95861">
        <ele>6.3</ele>
        <time>2022-06-21T12:25:08Z</time>
      </trkpt>
      <trkpt lat="45.94416" lon="-0.95861">
        <ele>6.3</ele>
        <time>2022-06-21T12:25:09Z</time>
      </trkpt>
      <trkpt lat="45.94416" lon="-0.95861">
        <ele>6.3</ele>
        <time>2022-06-21T12:25:10Z</time>
      </trkpt>
      <trkpt lat="45.94416" lon="-0.95861">
        <ele>6.3</ele>
        <time>2022-06-21T12:25:11Z</time>
      </trkpt>
      <trkpt lat="45.94416" lon="-0.95861">
        <ele>6.3</ele>
        <time>2022-06-21T12:25:12Z</time>
      </trkpt>
      <trkpt lat="45.94416" lon="-0.95861">
        <ele>6.3</ele>
        <time>2022-06-21T12:25:13Z</time>
      </trkpt>
      <trkpt lat="45.94416" lon="-0.95861">
        <ele>6.3</ele>
        <time>2022-06-21T12:25:14Z</time>
      </trkpt>
      <trkpt lat="45.94416" lon="-0.95861">
        <ele>6.3</ele>
        <time>2022-06-21T12:25:15Z</time>
      </trkpt>
      <trkpt lat="45.94416" lon="-0.95861">
        <ele>6.3</ele>
        <time>2022-06-21T12:25:16Z</time>
      </trkpt>
      <trkpt lat="45.94416" lon="-0.95861">
        <ele>6.3</ele>
        <time>2022-06-21T12:25:17Z</time>
      </trkpt>
      <trkpt lat="45.94416" lon="-0.95861">
        <ele>6.3</ele>
        <time>2022-06-21T12:25:18Z</time>
      </trkpt>
      <trkpt lat="45.94416" lon="-0.95861">
        <ele>6.3</ele>
        <time>2022-06-21T12:25:19Z</time>
      </trkpt>
      <trkpt lat="45.94416" lon="-0.95861">
        <ele>6.3</ele>
        <time>2022-06-21T12:25:20Z</time>
      </trkpt>
      <trkpt lat="45.94416" lon="-0.95861">
        <ele>6.3</ele>
        <time>2022-06-21T12:25:21Z</time>
      </trkpt>
      <trkpt lat="45.94416" lon="-0.95861">
        <ele>6.3</ele>
        <time>2022-06-21T12:25:22Z</time>
      </trkpt>
      <trkpt lat="45.94416" lon="-0.95861">
        <ele>6.3</ele>
        <time>2022-06-21T12:25:23Z</time>
      </trkpt>
      <trkpt lat="45.94416" lon="-0.95861">
        <ele>6.3</ele>
        <time>2022-06-21T12:25:24Z</time>
      </trkpt>
      <trkpt lat="45.94416" lon="-0.95861">
        <ele>6.3</ele>
        <time>2022-06-21T12:25:25Z</time>
      </trkpt>
      <trkpt lat="45.94416" lon="-0.95861">
        <ele>6.3</ele>
        <time>2022-06-21T12:25:26Z</time>
      </trkpt>
      <trkpt lat="45.94416" lon="-0.95861">
        <ele>6.3</ele>
        <time>2022-06-21T12:25:27Z</time>
      </trkpt>
      <trkpt lat="45.94416" lon="-0.95861">
        <ele>6.3</ele>
        <time>2022-06-21T12:25:28Z</time>
      </trkpt>
      <trkpt lat="45.94416" lon="-0.95861">
        <ele>6.3</ele>
        <time>2022-06-21T12:25:29Z</time>
      </trkpt>
      <trkpt lat="45.94416" lon="-0.95861">
        <ele>6.3</ele>
        <time>2022-06-21T12:25:30Z</time>
      </trkpt>
      <trkpt lat="45.94416" lon="-0.95861">
        <ele>6.3</ele>
        <time>2022-06-21T12:25:31Z</time>
      </trkpt>
      <trkpt lat="45.94416" lon="-0.95861">
        <ele>6.3</ele>
        <time>2022-06-21T12:25:32Z</time>
      </trkpt>
      <trkpt lat="45.94416" lon="-0.95861">
        <ele>6.3</ele>
        <time>2022-06-21T12:25:33Z</time>
      </trkpt>
      <trkpt lat="45.94416" lon="-0.95861">
        <ele>6.3</ele>
        <time>2022-06-21T12:25:34Z</time>
      </trkpt>
      <trkpt lat="45.94416" lon="-0.95861">
        <ele>6.3</ele>
        <time>2022-06-21T12:25:35Z</time>
      </trkpt>
      <trkpt lat="45.94416" lon="-0.95861">
        <ele>6.3</ele>
        <time>2022-06-21T12:25:36Z</time>
      </trkpt>
      <trkpt lat="45.94416" lon="-0.95861">
        <ele>6.3</ele>
        <time>2022-06-21T12:25:37Z</time>
      </trkpt>
      <trkpt lat="45.94416" lon="-0.95861">
        <ele>6.3</ele>
        <time>2022-06-21T12:25:38Z</time>
      </trkpt>
      <trkpt lat="45.94416" lon="-0.95861">
        <ele>6.3</ele>
        <time>2022-06-21T12:25:39Z</time>
      </trkpt>
      <trkpt lat="45.94416" lon="-0.95861">
        <ele>6.3</ele>
        <time>2022-06-21T12:25:40Z</time>
      </trkpt>
      <trkpt lat="45.94416" lon="-0.95861">
        <ele>6.3</ele>
        <time>2022-06-21T12:25:41Z</time>
      </trkpt>
      <trkpt lat="45.94416" lon="-0.95861">
        <ele>6.3</ele>
        <time>2022-06-21T12:25:42Z</time>
      </trkpt>
      <trkpt lat="45.94416" lon="-0.95861">
        <ele>6.3</ele>
        <time>2022-06-21T12:25:43Z</time>
      </trkpt>
      <trkpt lat="45.94416" lon="-0.95861">
        <ele>6.3</ele>
        <time>2022-06-21T12:25:44Z</time>
      </trkpt>
      <trkpt lat="45.94416" lon="-0.95861">
        <ele>6.3</ele>
        <time>2022-06-21T12:25:45Z</time>
      </trkpt>
      <trkpt lat="45.94416" lon="-0.95861">
        <ele>6.3</ele>
        <time>2022-06-21T12:25:46Z</time>
      </trkpt>
      <trkpt lat="45.94416" lon="-0.95861">
        <ele>6.3</ele>
        <time>2022-06-21T12:25:47Z</time>
      </trkpt>
      <trkpt lat="45.94416" lon="-0.95861">
        <ele>6.3</ele>
        <time>2022-06-21T12:25:48Z</time>
      </trkpt>
      <trkpt lat="45.94416" lon="-0.95861">
        <ele>6.3</ele>
        <time>2022-06-21T12:25:49Z</time>
      </trkpt>
      <trkpt lat="45.94416" lon="-0.95861">
        <ele>6.3</ele>
        <time>2022-06-21T12:25:50Z</time>
      </trkpt>
      <trkpt lat="45.94416" lon="-0.95861">
        <ele>6.3</ele>
        <time>2022-06-21T12:25:51Z</time>
      </trkpt>
      <trkpt lat="45.94416" lon="-0.95861">
        <ele>6.3</ele>
        <time>2022-06-21T12:25:52Z</time>
      </trkpt>
      <trkpt lat="45.94416" lon="-0.95861">
        <ele>6.3</ele>
        <time>2022-06-21T12:25:53Z</time>
      </trkpt>
      <trkpt lat="45.94416" lon="-0.95861">
        <ele>6.3</ele>
        <time>2022-06-21T12:25:54Z</time>
      </trkpt>
      <trkpt lat="45.94416" lon="-0.95861">
        <ele>6.3</ele>
        <time>2022-06-21T12:25:55Z</time>
      </trkpt>
      <trkpt lat="45.94416" lon="-0.95861">
        <ele>6.3</ele>
        <time>2022-06-21T12:25:56Z</time>
      </trkpt>
      <trkpt lat="45.94416" lon="-0.95861">
        <ele>6.3</ele>
        <time>2022-06-21T12:25:57Z</time>
      </trkpt>
      <trkpt lat="45.94416" lon="-0.95861">
        <ele>6.3</ele>
        <time>2022-06-21T12:25:58Z</time>
      </trkpt>
      <trkpt lat="45.94416" lon="-0.95861">
        <ele>6.3</ele>
        <time>2022-06-21T12:25:59Z</time>
      </trkpt>
      <trkpt lat="45.94416" lon="-0.95861">
        <ele>6.3</ele>
        <time>2022-06-21T12:26:00Z</time>
      </trkpt>
      <trkpt lat="45.94416" lon="-0.95861">
        <ele>6.3</ele>
        <time>2022-06-21T12:26:01Z</time>
      </trkpt>
      <trkpt lat="45.94416" lon="-0.95861">
        <ele>6.3</ele>
        <time>2022-06-21T12:26:02Z</time>
      </trkpt>
      <trkpt lat="45.94416" lon="-0.95861">
        <ele>6.3</ele>
        <time>2022-06-21T12:26:03Z</time>
      </trkpt>
      <trkpt lat="45.94416" lon="-0.95861">
        <ele>6.3</ele>
        <time>2022-06-21T12:26:04Z</time>
      </trkpt>
      <trkpt lat="45.94416" lon="-0.95861">
        <ele>6.3</ele>
        <time>2022-06-21T12:26:05Z</time>
      </trkpt>
      <trkpt lat="45.94416" lon="-0.95861">
        <ele>6.3</ele>
        <time>2022-06-21T12:26:06Z</time>
      </trkpt>
      <trkpt lat="45.94416" lon="-0.95861">
        <ele>6.3</ele>
        <time>2022-06-21T12:26:07Z</time>
      </trkpt>
      <trkpt lat="45.94416" lon="-0.95861">
        <ele>6.3</ele>
        <time>2022-06-21T12:26:08Z</time>
      </trkpt>
      <trkpt lat="45.94416" lon="-0.95861">
        <ele>6.3</ele>
        <time>2022-06-21T12:26:09Z</time>
      </trkpt>
      <trkpt lat="45.94416" lon="-0.95861">
        <ele>6.3</ele>
        <time>2022-06-21T12:26:10Z</time>
      </trkpt>
      <trkpt lat="45.94416" lon="-0.95861">
        <ele>6.3</ele>
        <time>2022-06-21T12:26:11Z</time>
      </trkpt>
      <trkpt lat="45.94416" lon="-0.95861">
        <ele>6.3</ele>
        <time>2022-06-21T12:26:12Z</time>
      </trkpt>
      <trkpt lat="45.94416" lon="-0.95861">
        <ele>6.3</ele>
        <time>2022-06-21T12:26:13Z</time>
      </trkpt>
      <trkpt lat="45.94416" lon="-0.95861">
        <ele>6.3</ele>
        <time>2022-06-21T12:26:14Z</time>
      </trkpt>
      <trkpt lat="45.94416" lon="-0.95861">
        <ele>6.3</ele>
        <time>2022-06-21T12:26:15Z</time>
      </trkpt>
      <trkpt lat="45.94416" lon="-0.95861">
        <ele>6.3</ele>
        <time>2022-06-21T12:26:16Z</time>
      </trkpt>
      <trkpt lat="45.94416" lon="-0.95861">
        <ele>6.3</ele>
        <time>2022-06-21T12:26:17Z</time>
      </trkpt>
      <trkpt lat="45.94416" lon="-0.95861">
        <ele>6.3</ele>
        <time>2022-06-21T12:26:18Z</time>
      </trkpt>
      <trkpt lat="45.94416" lon="-0.95861">
        <ele>6.3</ele>
        <time>2022-06-21T12:26:19Z</time>
      </trkpt>
      <trkpt lat="45.94416" lon="-0.95861">
        <ele>6.3</ele>
        <time>2022-06-21T12:26:20Z</time>
      </trkpt>
      <trkpt lat="45.94416" lon="-0.95861">
        <ele>6.3</ele>
        <time>2022-06-21T12:26:21Z</time>
      </trkpt>
      <trkpt lat="45.94416" lon="-0.95861">
        <ele>6.3</ele>
        <time>2022-06-21T12:26:22Z</time>
      </trkpt>
      <trkpt lat="45.94416" lon="-0.95861">
        <ele>6.3</ele>
        <time>2022-06-21T12:26:23Z</time>
      </trkpt>
      <trkpt lat="45.94416" lon="-0.95861">
        <ele>6.3</ele>
        <time>2022-06-21T12:26:24Z</time>
      </trkpt>
      <trkpt lat="45.94416" lon="-0.95861">
        <ele>6.3</ele>
        <time>2022-06-21T12:26:25Z</time>
      </trkpt>
      <trkpt lat="45.94416" lon="-0.95861">
        <ele>6.3</ele>
        <time>2022-06-21T12:26:26Z</time>
      </trkpt>
      <trkpt lat="45.94416" lon="-0.95861">
        <ele>6.3</ele>
        <time>2022-06-21T12:26:27Z</time>
      </trkpt>
      <trkpt lat="45.94416" lon="-0.95861">
        <ele>6.3</ele>
        <time>2022-06-21T12:26:28Z</time>
      </trkpt>
      <trkpt lat="45.94416" lon="-0.95861">
        <ele>6.3</ele>
        <time>2022-06-21T12:26:29Z</time>
      </trkpt>
      <trkpt lat="45.94416" lon="-0.95861">
        <ele>6.3</ele>
        <time>2022-06-21T12:26:30Z</time>
      </trkpt>
      <trkpt lat="45.94416" lon="-0.95861">
        <ele>6.3</ele>
        <time>2022-06-21T12:26:31Z</time>
      </trkpt>
      <trkpt lat="45.94416" lon="-0.95861">
        <ele>6.3</ele>
        <time>2022-06-21T12:26:32Z</time>
      </trkpt>
      <trkpt lat="45.94416" lon="-0.95861">
        <ele>6.3</ele>
        <time>2022-06-21T12:26:33Z</time>
      </trkpt>
      <trkpt lat="45.94416" lon="-0.95861">
        <ele>6.3</ele>
        <time>2022-06-21T12:26:34Z</time>
      </trkpt>
      <trkpt lat="45.94416" lon="-0.95861">
        <ele>6.3</ele>
        <time>2022-06-21T12:26:35Z</time>
      </trkpt>
      <trkpt lat="45.94416" lon="-0.95861">
        <ele>6.3</ele>
        <time>2022-06-21T12:26:36Z</time>
      </trkpt>
      <trkpt lat="45.94416" lon="-0.95861">
        <ele>6.3</ele>
        <time>2022-06-21T12:26:37Z</time>
      </trkpt>
      <trkpt lat="45.94416" lon="-0.95861">
        <ele>6.3</ele>
        <time>2022-06-21T12:26:38Z</time>
      </trkpt>
      <trkpt lat="45.94416" lon="-0.95861">
        <ele>6.3</ele>
        <time>2022-06-21T12:26:39Z</time>
      </trkpt>
      <trkpt lat="45.94416" lon="-0.95861">
        <ele>6.3</ele>
        <time>2022-06-21T12:26:40Z</time>
      </trkpt>
      <trkpt lat="45.94416" lon="-0.95861">
        <ele>6.3</ele>
        <time>2022-06-21T12:26:41Z</time>
      </trkpt>
      <trkpt lat="45.94416" lon="-0.95861">
        <ele>6.3</ele>
        <time>2022-06-21T12:26:42Z</time>
      </trkpt>
      <trkpt lat="45.94416" lon="-0.95861">
        <ele>6.3</ele>
        <time>2022-06-21T12:26:43Z</time>
      </trkpt>
      <trkpt lat="45.94416" lon="-0.95861">
        <ele>6.3</ele>
        <time>2022-06-21T12:26:44Z</time>
      </trkpt>
      <trkpt lat="45.94416" lon="-0.95861">
        <ele>6.3</ele>
        <time>2022-06-21T12:26:45Z</time>
      </trkpt>
      <trkpt lat="45.94416" lon="-0.95861">
        <ele>6.3</ele>
        <time>2022-06-21T12:26:46Z</time>
      </trkpt>
      <trkpt lat="45.94416" lon="-0.95861">
        <ele>6.3</ele>
        <time>2022-06-21T12:26:47Z</time>
      </trkpt>
      <trkpt lat="45.94416" lon="-0.95861">
        <ele>6.3</ele>
        <time>2022-06-21T12:26:48Z</time>
      </trkpt>
      <trkpt lat="45.94416" lon="-0.95861">
        <ele>6.3</ele>
        <time>2022-06-21T12:26:49Z</time>
      </trkpt>
      <trkpt lat="45.94416" lon="-0.95861">
        <ele>6.3</ele>
        <time>2022-06-21T12:26:50Z</time>
      </trkpt>
      <trkpt lat="45.94416" lon="-0.95861">
        <ele>6.3</ele>
        <time>2022-06-21T12:26:51Z</time>
      </trkpt>
      <trkpt lat="45.94416" lon="-0.95861">
        <ele>6.3</ele>
        <time>2022-06-21T12:26:52Z</time>
      </trkpt>
      <trkpt lat="45.94416" lon="-0.95861">
        <ele>6.3</ele>
        <time>2022-06-21T12:26:53Z</time>
      </trkpt>
      <trkpt lat="45.94416" lon="-0.95861">
        <ele>6.3</ele>
        <time>2022-06-21T12:26:54Z</time>
      </trkpt>
      <trkpt lat="45.94416" lon="-0.95861">
        <ele>6.3</ele>
        <time>2022-06-21T12:26:55Z</time>
      </trkpt>
      <trkpt lat="45.94416" lon="-0.95861">
        <ele>6.3</ele>
        <time>2022-06-21T12:26:56Z</time>
      </trkpt>
      <trkpt lat="45.94416" lon="-0.95861">
        <ele>6.3</ele>
        <time>2022-06-21T12:26:57Z</time>
      </trkpt>
      <trkpt lat="45.94416" lon="-0.95861">
        <ele>6.3</ele>
        <time>2022-06-21T12:26:58Z</time>
      </trkpt>
      <trkpt lat="45.94416" lon="-0.95861">
        <ele>6.3</ele>
        <time>2022-06-21T12:26:59Z</time>
      </trkpt>
      <trkpt lat="45.94416" lon="-0.95861">
        <ele>6.3</ele>
        <time>2022-06-21T12:27:00Z</time>
      </trkpt>
      <trkpt lat="45.94416" lon="-0.95861">
        <ele>6.3</ele>
        <time>2022-06-21T12:27:01Z</time>
      </trkpt>
      <trkpt lat="45.94416" lon="-0.95861">
        <ele>6.3</ele>
        <time>2022-06-21T12:27:02Z</time>
      </trkpt>
      <trkpt lat="45.94416" lon="-0.95861">
        <ele>6.3</ele>
        <time>2022-06-21T12:27:03Z</time>
      </trkpt>
      <trkpt lat="45.94416" lon="-0.95861">
        <ele>6.3</ele>
        <time>2022-06-21T12:27:04Z</time>
      </trkpt>
      <trkpt lat="45.94416" lon="-0.95861">
        <ele>6.3</ele>
        <time>2022-06-21T12:27:05Z</time>
      </trkpt>
      <trkpt lat="45.94416" lon="-0.95861">
        <ele>6.3</ele>
        <time>2022-06-21T12:27:06Z</time>
      </trkpt>
      <trkpt lat="45.94416" lon="-0.95861">
        <ele>6.3</ele>
        <time>2022-06-21T12:27:07Z</time>
      </trkpt>
      <trkpt lat="45.94416" lon="-0.95861">
        <ele>6.3</ele>
        <time>2022-06-21T12:27:08Z</time>
      </trkpt>
      <trkpt lat="45.94416" lon="-0.95861">
        <ele>6.3</ele>
        <time>2022-06-21T12:27:09Z</time>
      </trkpt>
      <trkpt lat="45.94416" lon="-0.95861">
        <ele>6.3</ele>
        <time>2022-06-21T12:27:10Z</time>
      </trkpt>
      <trkpt lat="45.94416" lon="-0.95861">
        <ele>6.3</ele>
        <time>2022-06-21T12:27:11Z</time>
      </trkpt>
      <trkpt lat="45.94416" lon="-0.95861">
        <ele>6.3</ele>
        <time>2022-06-21T12:27:12Z</time>
      </trkpt>
      <trkpt lat="45.94416" lon="-0.95861">
        <ele>6.3</ele>
        <time>2022-06-21T12:27:13Z</time>
      </trkpt>
      <trkpt lat="45.94416" lon="-0.95861">
        <ele>6.3</ele>
        <time>2022-06-21T12:27:14Z</time>
      </trkpt>
      <trkpt lat="45.94416" lon="-0.95861">
        <ele>6.3</ele>
        <time>2022-06-21T12:27:15Z</time>
      </trkpt>
      <trkpt lat="45.94416" lon="-0.95861">
        <ele>6.3</ele>
        <time>2022-06-21T12:27:16Z</time>
      </trkpt>
      <trkpt lat="45.94416" lon="-0.95861">
        <ele>6.3</ele>
        <time>2022-06-21T12:27:17Z</time>
      </trkpt>
      <trkpt lat="45.94416" lon="-0.95861">
        <ele>6.3</ele>
        <time>2022-06-21T12:27:18Z</time>
      </trkpt>
      <trkpt lat="45.94416" lon="-0.95861">
        <ele>6.3</ele>
        <time>2022-06-21T12:27:19Z</time>
      </trkpt>
      <trkpt lat="45.94416" lon="-0.95861">
        <ele>6.3</ele>
        <time>2022-06-21T12:27:20Z</time>
      </trkpt>
      <trkpt lat="45.94416" lon="-0.95861">
        <ele>6.3</ele>
        <time>2022-06-21T12:27:21Z</time>
      </trkpt>
      <trkpt lat="45.94416" lon="-0.95861">
        <ele>6.3</ele>
        <time>2022-06-21T12:27:22Z</time>
      </trkpt>
      <trkpt lat="45.94416" lon="-0.95861">
        <ele>6.3</ele>
        <time>2022-06-21T12:27:23Z</time>
      </trkpt>
      <trkpt lat="45.94416" lon="-0.95861">
        <ele>6.3</ele>
        <time>2022-06-21T12:27:24Z</time>
      </trkpt>
      <trkpt lat="45.94416" lon="-0.95861">
        <ele>6.3</ele>
        <time>2022-06-21T12:27:25Z</time>
      </trkpt>
      <trkpt lat="45.94416" lon="-0.95861">
        <ele>6.3</ele>
        <time>2022-06-21T12:27:26Z</time>
      </trkpt>
      <trkpt lat="45.94416" lon="-0.95861">
        <ele>6.3</ele>
        <time>2022-06-21T12:27:27Z</time>
      </trkpt>
      <trkpt lat="45.94416" lon="-0.95861">
        <ele>6.3</ele>
        <time>2022-06-21T12:27:28Z</time>
      </trkpt>
      <trkpt lat="45.94416" lon="-0.95861">
        <ele>6.3</ele>
        <time>2022-06-21T12:27:29Z</time>
      </trkpt>
      <trkpt lat="45.94416" lon="-0.95861">
        <ele>6.3</ele>
        <time>2022-06-21T12:27:30Z</time>
      </trkpt>
      <trkpt lat="45.94416" lon="-0.95861">
        <ele>6.3</ele>
        <time>2022-06-21T12:27:31Z</time>
      </trkpt>
      <trkpt lat="45.94416" lon="-0.95861">
        <ele>6.3</ele>
        <time>2022-06-21T12:27:32Z</time>
      </trkpt>
      <trkpt lat="45.94416" lon="-0.95861">
        <ele>6.3</ele>
        <time>2022-06-21T12:27:33Z</time>
      </trkpt>
      <trkpt lat="45.94416" lon="-0.95861">
        <ele>6.3</ele>
        <time>2022-06-21T12:27:34Z</time>
      </trkpt>
      <trkpt lat="45.94416" lon="-0.95861">
        <ele>6.3</ele>
        <time>2022-06-21T12:27:35Z</time>
      </trkpt>
      <trkpt lat="45.94416" lon="-0.95861">
        <ele>6.3</ele>
        <time>2022-06-21T12:27:36Z</time>
      </trkpt>
      <trkpt lat="45.94416" lon="-0.95861">
        <ele>6.3</ele>
        <time>2022-06-21T12:27:37Z</time>
      </trkpt>
      <trkpt lat="45.94416" lon="-0.95861">
        <ele>6.3</ele>
        <time>2022-06-21T12:27:38Z</time>
      </trkpt>
      <trkpt lat="45.94416" lon="-0.95861">
        <ele>6.3</ele>
        <time>2022-06-21T12:27:39Z</time>
      </trkpt>
      <trkpt lat="45.94416" lon="-0.95861">
        <ele>6.3</ele>
        <time>2022-06-21T12:27:40Z</time>
      </trkpt>
      <trkpt lat="45.94416" lon="-0.95861">
        <ele>6.3</ele>
        <time>2022-06-21T12:27:41Z</time>
      </trkpt>
      <trkpt lat="45.94416" lon="-0.95861">
        <ele>6.3</ele>
        <time>2022-06-21T12:27:42Z</time>
      </trkpt>
      <trkpt lat="45.94416" lon="-0.95861">
        <ele>6.3</ele>
        <time>2022-06-21T12:27:43Z</time>
      </trkpt>
      <trkpt lat="45.94416" lon="-0.95861">
        <ele>6.3</ele>
        <time>2022-06-21T12:27:44Z</time>
      </trkpt>
      <trkpt lat="45.94416" lon="-0.95861">
        <ele>6.3</ele>
        <time>2022-06-21T12:27:45Z</time>
      </trkpt>
      <trkpt lat="45.94416" lon="-0.95861">
        <ele>6.3</ele>
        <time>2022-06-21T12:27:46Z</time>
      </trkpt>
      <trkpt lat="45.94416" lon="-0.95861">
        <ele>6.3</ele>
        <time>2022-06-21T12:27:47Z</time>
      </trkpt>
      <trkpt lat="45.94416" lon="-0.95861">
        <ele>6.3</ele>
        <time>2022-06-21T12:27:48Z</time>
      </trkpt>
      <trkpt lat="45.94416" lon="-0.95861">
        <ele>6.3</ele>
        <time>2022-06-21T12:27:49Z</time>
      </trkpt>
      <trkpt lat="45.94416" lon="-0.95861">
        <ele>6.3</ele>
        <time>2022-06-21T12:27:50Z</time>
      </trkpt>
      <trkpt lat="45.94416" lon="-0.95861">
        <ele>6.3</ele>
        <time>2022-06-21T12:27:51Z</time>
      </trkpt>
      <trkpt lat="45.94416" lon="-0.95861">
        <ele>6.3</ele>
        <time>2022-06-21T12:27:52Z</time>
      </trkpt>
      <trkpt lat="45.94416" lon="-0.95861">
        <ele>6.3</ele>
        <time>2022-06-21T12:27:53Z</time>
      </trkpt>
      <trkpt lat="45.94416" lon="-0.95861">
        <ele>6.3</ele>
        <time>2022-06-21T12:27:54Z</time>
      </trkpt>
      <trkpt lat="45.94416" lon="-0.95861">
        <ele>6.3</ele>
        <time>2022-06-21T12:27:55Z</time>
      </trkpt>
      <trkpt lat="45.94416" lon="-0.95861">
        <ele>6.3</ele>
        <time>2022-06-21T12:27:56Z</time>
      </trkpt>
      <trkpt lat="45.94416" lon="-0.95861">
        <ele>6.3</ele>
        <time>2022-06-21T12:27:57Z</time>
      </trkpt>
      <trkpt lat="45.94416" lon="-0.95861">
        <ele>6.3</ele>
        <time>2022-06-21T12:27:58Z</time>
      </trkpt>
      <trkpt lat="45.94416" lon="-0.95861">
        <ele>6.3</ele>
        <time>2022-06-21T12:27:59Z</time>
      </trkpt>
      <trkpt lat="45.94416" lon="-0.95861">
        <ele>6.3</ele>
        <time>2022-06-21T12:28:00Z</time>
      </trkpt>
      <trkpt lat="45.94416" lon="-0.95861">
        <ele>6.3</ele>
        <time>2022-06-21T12:28:01Z</time>
      </trkpt>
      <trkpt lat="45.94416" lon="-0.95861">
        <ele>6.3</ele>
        <time>2022-06-21T12:28:02Z</time>
      </trkpt>
      <trkpt lat="45.94416" lon="-0.95861">
        <ele>6.3</ele>
        <time>2022-06-21T12:28:03Z</time>
      </trkpt>
      <trkpt lat="45.94416" lon="-0.95861">
        <ele>6.3</ele>
        <time>2022-06-21T12:28:04Z</time>
      </trkpt>
      <trkpt lat="45.94416" lon="-0.95861">
        <ele>6.3</ele>
        <time>2022-06-21T12:28:05Z</time>
      </trkpt>
      <trkpt lat="45.94416" lon="-0.95861">
        <ele>6.3</ele>
        <time>2022-06-21T12:28:06Z</time>
      </trkpt>
      <trkpt lat="45.94416" lon="-0.95861">
        <ele>6.3</ele>
        <time>2022-06-21T12:28:07Z</time>
      </trkpt>
      <trkpt lat="45.94416" lon="-0.95861">
        <ele>6.3</ele>
        <time>2022-06-21T12:28:08Z</time>
      </trkpt>
      <trkpt lat="45.94416" lon="-0.95861">
        <ele>6.3</ele>
        <time>2022-06-21T12:28:09Z</time>
      </trkpt>
      <trkpt lat="45.94416" lon="-0.95861">
        <ele>6.3</ele>
        <time>2022-06-21T12:28:10Z</time>
      </trkpt>
      <trkpt lat="45.94416" lon="-0.95861">
        <ele>6.3</ele>
        <time>2022-06-21T12:28:11Z</time>
      </trkpt>
      <trkpt lat="45.94416" lon="-0.95861">
        <ele>6.3</ele>
        <time>2022-06-21T12:28:12Z</time>
      </trkpt>
      <trkpt lat="45.94416" lon="-0.95861">
        <ele>6.3</ele>
        <time>2022-06-21T12:28:13Z</time>
      </trkpt>
      <trkpt lat="45.94416" lon="-0.95861">
        <ele>6.3</ele>
        <time>2022-06-21T12:28:14Z</time>
      </trkpt>
      <trkpt lat="45.94416" lon="-0.95861">
        <ele>6.3</ele>
        <time>2022-06-21T12:28:15Z</time>
      </trkpt>
      <trkpt lat="45.94416" lon="-0.95861">
        <ele>6.3</ele>
        <time>2022-06-21T12:28:16Z</time>
      </trkpt>
      <trkpt lat="45.94416" lon="-0.95861">
        <ele>6.3</ele>
        <time>2022-06-21T12:28:17Z</time>
      </trkpt>
      <trkpt lat="45.94416" lon="-0.95861">
        <ele>6.3</ele>
        <time>2022-06-21T12:28:18Z</time>
      </trkpt>
      <trkpt lat="45.94416" lon="-0.95861">
        <ele>6.3</ele>
        <time>2022-06-21T12:28:19Z</time>
      </trkpt>
      <trkpt lat="45.94416" lon="-0.95861">
        <ele>6.3</ele>
        <time>2022-06-21T12:28:20Z</time>
      </trkpt>
      <trkpt lat="45.94416" lon="-0.95861">
        <ele>6.3</ele>
        <time>2022-06-21T12:28:21Z</time>
      </trkpt>
      <trkpt lat="45.94416" lon="-0.95861">
        <ele>6.3</ele>
        <time>2022-06-21T12:28:22Z</time>
      </trkpt>
      <trkpt lat="45.94416" lon="-0.95861">
        <ele>6.3</ele>
        <time>2022-06-21T12:28:23Z</time>
      </trkpt>
      <trkpt lat="45.94416" lon="-0.95861">
        <ele>6.3</ele>
        <time>2022-06-21T12:28:24Z</time>
      </trkpt>
      <trkpt lat="45.94416" lon="-0.95861">
        <ele>6.3</ele>
        <time>2022-06-21T12:28:25Z</time>
      </trkpt>
      <trkpt lat="45.94416" lon="-0.95861">
        <ele>6.3</ele>
        <time>2022-06-21T12:28:26Z</time>
      </trkpt>
      <trkpt lat="45.94416" lon="-0.95861">
        <ele>6.3</ele>
        <time>2022-06-21T12:28:27Z</time>
      </trkpt>
      <trkpt lat="45.94416" lon="-0.95861">
        <ele>6.3</ele>
        <time>2022-06-21T12:28:28Z</time>
      </trkpt>
      <trkpt lat="45.94416" lon="-0.95861">
        <ele>6.3</ele>
        <time>2022-06-21T12:28:29Z</time>
      </trkpt>
      <trkpt lat="45.94416" lon="-0.95861">
        <ele>6.3</ele>
        <time>2022-06-21T12:28:30Z</time>
      </trkpt>
      <trkpt lat="45.94416" lon="-0.95861">
        <ele>6.3</ele>
        <time>2022-06-21T12:28:31Z</time>
      </trkpt>
      <trkpt lat="45.94416" lon="-0.95861">
        <ele>6.3</ele>
        <time>2022-06-21T12:28:32Z</time>
      </trkpt>
      <trkpt lat="45.94416" lon="-0.95861">
        <ele>6.3</ele>
        <time>2022-06-21T12:28:33Z</time>
      </trkpt>
      <trkpt lat="45.94416" lon="-0.95861">
        <ele>6.3</ele>
        <time>2022-06-21T12:28:34Z</time>
      </trkpt>
      <trkpt lat="45.94416" lon="-0.95861">
        <ele>6.3</ele>
        <time>2022-06-21T12:28:35Z</time>
      </trkpt>
      <trkpt lat="45.94416" lon="-0.95861">
        <ele>6.3</ele>
        <time>2022-06-21T12:28:36Z</time>
      </trkpt>
      <trkpt lat="45.94416" lon="-0.95861">
        <ele>6.3</ele>
        <time>2022-06-21T12:28:37Z</time>
      </trkpt>
      <trkpt lat="45.94416" lon="-0.95861">
        <ele>6.3</ele>
        <time>2022-06-21T12:28:38Z</time>
      </trkpt>
      <trkpt lat="45.94416" lon="-0.95861">
        <ele>6.3</ele>
        <time>2022-06-21T12:28:39Z</time>
      </trkpt>
      <trkpt lat="45.94416" lon="-0.95861">
        <ele>6.3</ele>
        <time>2022-06-21T12:28:40Z</time>
      </trkpt>
      <trkpt lat="45.94416" lon="-0.95861">
        <ele>6.3</ele>
        <time>2022-06-21T12:28:41Z</time>
      </trkpt>
      <trkpt lat="45.94416" lon="-0.95861">
        <ele>6.3</ele>
        <time>2022-06-21T12:28:42Z</time>
      </trkpt>
      <trkpt lat="45.94416" lon="-0.95861">
        <ele>6.3</ele>
        <time>2022-06-21T12:28:43Z</time>
      </trkpt>
      <trkpt lat="45.94416" lon="-0.95861">
        <ele>6.3</ele>
        <time>2022-06-21T12:28:44Z</time>
      </trkpt>
      <trkpt lat="45.94416" lon="-0.95861">
        <ele>6.3</ele>
        <time>2022-06-21T12:28:45Z</time>
      </trkpt>
      <trkpt lat="45.94416" lon="-0.95861">
        <ele>6.3</ele>
        <time>2022-06-21T12:28:46Z</time>
      </trkpt>
      <trkpt lat="45.94416" lon="-0.95861">
        <ele>6.3</ele>
        <time>2022-06-21T12:28:47Z</time>
      </trkpt>
      <trkpt lat="45.94416" lon="-0.95861">
        <ele>6.3</ele>
        <time>2022-06-21T12:28:48Z</time>
      </trkpt>
      <trkpt lat="45.94416" lon="-0.95861">
        <ele>6.3</ele>
        <time>2022-06-21T12:28:49Z</time>
      </trkpt>
      <trkpt lat="45.94416" lon="-0.95861">
        <ele>6.3</ele>
        <time>2022-06-21T12:28:50Z</time>
      </trkpt>
      <trkpt lat="45.94416" lon="-0.95861">
        <ele>6.3</ele>
        <time>2022-06-21T12:28:51Z</time>
      </trkpt>
      <trkpt lat="45.94416" lon="-0.95861">
        <ele>6.3</ele>
        <time>2022-06-21T12:28:52Z</time>
      </trkpt>
      <trkpt lat="45.94416" lon="-0.95861">
        <ele>6.3</ele>
        <time>2022-06-21T12:28:53Z</time>
      </trkpt>
      <trkpt lat="45.94416" lon="-0.95861">
        <ele>6.3</ele>
        <time>2022-06-21T12:28:54Z</time>
      </trkpt>
      <trkpt lat="45.94416" lon="-0.95861">
        <ele>6.3</ele>
        <time>2022-06-21T12:28:55Z</time>
      </trkpt>
      <trkpt lat="45.94416" lon="-0.95861">
        <ele>6.3</ele>
        <time>2022-06-21T12:28:56Z</time>
      </trkpt>
      <trkpt lat="45.94416" lon="-0.95861">
        <ele>6.3</ele>
        <time>2022-06-21T12:28:57Z</time>
      </trkpt>
      <trkpt lat="45.94416" lon="-0.95861">
        <ele>6.3</ele>
        <time>2022-06-21T12:28:58Z</time>
      </trkpt>
      <trkpt lat="45.94416" lon="-0.95861">
        <ele>6.3</ele>
        <time>2022-06-21T12:28:59Z</time>
      </trkpt>
      <trkpt lat="45.94416" lon="-0.95861">
        <ele>6.3</ele>
        <time>2022-06-21T12:29:00Z</time>
      </trkpt>
      <trkpt lat="45.94416" lon="-0.95861">
        <ele>6.3</ele>
        <time>2022-06-21T12:29:01Z</time>
      </trkpt>
      <trkpt lat="45.94416" lon="-0.95861">
        <ele>6.3</ele>
        <time>2022-06-21T12:29:02Z</time>
      </trkpt>
      <trkpt lat="45.94416" lon="-0.95861">
        <ele>6.3</ele>
        <time>2022-06-21T12:29:03Z</time>
      </trkpt>
      <trkpt lat="45.94416" lon="-0.95861">
        <ele>6.3</ele>
        <time>2022-06-21T12:29:04Z</time>
      </trkpt>
      <trkpt lat="45.94416" lon="-0.95861">
        <ele>6.3</ele>
        <time>2022-06-21T12:29:05Z</time>
      </trkpt>
      <trkpt lat="45.94416" lon="-0.95861">
        <ele>6.3</ele>
        <time>2022-06-21T12:29:06Z</time>
      </trkpt>
      <trkpt lat="45.94416" lon="-0.95861">
        <ele>6.3</ele>
        <time>2022-06-21T12:29:07Z</time>
      </trkpt>
      <trkpt lat="45.94416" lon="-0.95861">
        <ele>6.3</ele>
        <time>2022-06-21T12:29:08Z</time>
      </trkpt>
      <trkpt lat="45.94416" lon="-0.95861">
        <ele>6.3</ele>
        <time>2022-06-21T12:29:09Z</time>
      </trkpt>
      <trkpt lat="45.94416" lon="-0.95861">
        <ele>6.3</ele>
        <time>2022-06-21T12:29:10Z</time>
      </trkpt>
      <trkpt lat="45.94416" lon="-0.95861">
        <ele>6.3</ele>
        <time>2022-06-21T12:29:11Z</time>
      </trkpt>
      <trkpt lat="45.94416" lon="-0.95861">
        <ele>6.3</ele>
        <time>2022-06-21T12:29:12Z</time>
      </trkpt>
      <trkpt lat="45.94416" lon="-0.95861">
        <ele>6.3</ele>
        <time>2022-06-21T12:29:13Z</time>
      </trkpt>
      <trkpt lat="45.94416" lon="-0.95861">
        <ele>6.3</ele>
        <time>2022-06-21T12:29:14Z</time>
      </trkpt>
      <trkpt lat="45.94416" lon="-0.95861">
        <ele>6.3</ele>
        <time>2022-06-21T12:29:15Z</time>
      </trkpt>
      <trkpt lat="45.94416" lon="-0.95861">
        <ele>6.3</ele>
        <time>2022-06-21T12:29:16Z</time>
      </trkpt>
      <trkpt lat="45.94416" lon="-0.95861">
        <ele>6.3</ele>
        <time>2022-06-21T12:29:17Z</time>
      </trkpt>
      <trkpt lat="45.94416" lon="-0.95861">
        <ele>6.3</ele>
        <time>2022-06-21T12:29:18Z</time>
      </trkpt>
      <trkpt lat="45.94416" lon="-0.95861">
        <ele>6.3</ele>
        <time>2022-06-21T12:29:19Z</time>
      </trkpt>
      <trkpt lat="45.94416" lon="-0.95861">
        <ele>6.3</ele>
        <time>2022-06-21T12:29:20Z</time>
      </trkpt>
      <trkpt lat="45.94416" lon="-0.95861">
        <ele>6.3</ele>
        <time>2022-06-21T12:29:21Z</time>
      </trkpt>
      <trkpt lat="45.94416" lon="-0.95861">
        <ele>6.3</ele>
        <time>2022-06-21T12:29:22Z</time>
      </trkpt>
      <trkpt lat="45.94416" lon="-0.95861">
        <ele>6.3</ele>
        <time>2022-06-21T12:29:23Z</time>
      </trkpt>
      <trkpt lat="45.94416" lon="-0.95861">
        <ele>6.3</ele>
        <time>2022-06-21T12:29:24Z</time>
      </trkpt>
      <trkpt lat="45.94416" lon="-0.95861">
        <ele>6.3</ele>
        <time>2022-06-21T12:29:25Z</time>
      </trkpt>
      <trkpt lat="45.94416" lon="-0.95861">
        <ele>6.3</ele>
        <time>2022-06-21T12:29:26Z</time>
      </trkpt>
      <trkpt lat="45.94416" lon="-0.95861">
        <ele>6.3</ele>
        <time>2022-06-21T12:29:27Z</time>
      </trkpt>
      <trkpt lat="45.94416" lon="-0.95861">
        <ele>6.3</ele>
        <time>2022-06-21T12:29:28Z</time>
      </trkpt>
      <trkpt lat="45.94416" lon="-0.95861">
        <ele>6.3</ele>
        <time>2022-06-21T12:29:29Z</time>
      </trkpt>
      <trkpt lat="45.94416" lon="-0.95861">
        <ele>6.3</ele>
        <time>2022-06-21T12:29:30Z</time>
      </trkpt>
      <trkpt lat="45.94416" lon="-0.95861">
        <ele>6.3</ele>
        <time>2022-06-21T12:29:31Z</time>
      </trkpt>
      <trkpt lat="45.94416" lon="-0.95861">
        <ele>6.3</ele>
        <time>2022-06-21T12:29:32Z</time>
      </trkpt>
      <trkpt lat="45.94416" lon="-0.95861">
        <ele>6.3</ele>
        <time>2022-06-21T12:29:33Z</time>
      </trkpt>
      <trkpt lat="45.94416" lon="-0.95861">
        <ele>6.3</ele>
        <time>2022-06-21T12:29:34Z</time>
      </trkpt>
      <trkpt lat="45.94416" lon="-0.95861">
        <ele>6.3</ele>
        <time>2022-06-21T12:29:35Z</time>
      </trkpt>
      <trkpt lat="45.94416" lon="-0.95861">
        <ele>6.3</ele>
        <time>2022-06-21T12:29:36Z</time>
      </trkpt>
      <trkpt lat="45.94416" lon="-0.95861">
        <ele>6.3</ele>
        <time>2022-06-21T12:29:37Z</time>
      </trkpt>
      <trkpt lat="45.94416" lon="-0.95861">
        <ele>6.3</ele>
        <time>2022-06-21T12:29:38Z</time>
      </trkpt>
      <trkpt lat="45.94416" lon="-0.95861">
        <ele>6.3</ele>
        <time>2022-06-21T12:29:39Z</time>
      </trkpt>
      <trkpt lat="45.94416" lon="-0.95861">
        <ele>6.3</ele>
        <time>2022-06-21T12:29:40Z</time>
      </trkpt>
      <trkpt lat="45.94416" lon="-0.95861">
        <ele>6.3</ele>
        <time>2022-06-21T12:29:41Z</time>
      </trkpt>
      <trkpt lat="45.94416" lon="-0.95861">
        <ele>6.3</ele>
        <time>2022-06-21T12:29:42Z</time>
      </trkpt>
      <trkpt lat="45.94416" lon="-0.95861">
        <ele>6.3</ele>
        <time>2022-06-21T12:29:43Z</time>
      </trkpt>
      <trkpt lat="45.94416" lon="-0.95861">
        <ele>6.3</ele>
        <time>2022-06-21T12:29:44Z</time>
      </trkpt>
      <trkpt lat="45.94416" lon="-0.95861">
        <ele>6.3</ele>
        <time>2022-06-21T12:29:45Z</time>
      </trkpt>
      <trkpt lat="45.94416" lon="-0.95861">
        <ele>6.3</ele>
        <time>2022-06-21T12:29:46Z</time>
      </trkpt>
      <trkpt lat="45.94416" lon="-0.95861">
        <ele>6.3</ele>
        <time>2022-06-21T12:29:47Z</time>
      </trkpt>
      <trkpt lat="45.94416" lon="-0.95861">
        <ele>6.3</ele>
        <time>2022-06-21T12:29:48Z</time>
      </trkpt>
      <trkpt lat="45.94416" lon="-0.95861">
        <ele>6.3</ele>
        <time>2022-06-21T12:29:49Z</time>
      </trkpt>
      <trkpt lat="45.94416" lon="-0.95861">
        <ele>6.3</ele>
        <time>2022-06-21T12:29:50Z</time>
      </trkpt>
      <trkpt lat="45.94416" lon="-0.95861">
        <ele>6.3</ele>
        <time>2022-06-21T12:29:51Z</time>
      </trkpt>
      <trkpt lat="45.94416" lon="-0.95861">
        <ele>6.3</ele>
        <time>2022-06-21T12:29:52Z</time>
      </trkpt>
      <trkpt lat="45.94416" lon="-0.95861">
        <ele>6.3</ele>
        <time>2022-06-21T12:29:53Z</time>
      </trkpt>
      <trkpt lat="45.94416" lon="-0.95861">
        <ele>6.3</ele>
        <time>2022-06-21T12:29:54Z</time>
      </trkpt>
      <trkpt lat="45.94416" lon="-0.95861">
        <ele>6.3</ele>
        <time>2022-06-21T12:29:55Z</time>
      </trkpt>
      <trkpt lat="45.94416" lon="-0.95861">
        <ele>6.3</ele>
        <time>2022-06-21T12:29:56Z</time>
      </trkpt>
      <trkpt lat="45.94416" lon="-0.95861">
        <ele>6.3</ele>
        <time>2022-06-21T12:29:57Z</time>
      </trkpt>
      <trkpt lat="45.94416" lon="-0.95861">
        <ele>6.3</ele>
        <time>2022-06-21T12:29:58Z</time>
      </trkpt>
      <trkpt lat="45.94416" lon="-0.95861">
        <ele>6.3</ele>
        <time>2022-06-21T12:29:59Z</time>
      </trkpt>
      <trkpt lat="45.94416" lon="-0.95861">
        <ele>6.3</ele>
        <time>2022-06-21T12:30:00Z</time>
      </trkpt>
      <trkpt lat="45.94416" lon="-0.95861">
        <ele>6.3</ele>
        <time>2022-06-21T12:30:01Z</time>
      </trkpt>
      <trkpt lat="45.94416" lon="-0.95861">
        <ele>6.3</ele>
        <time>2022-06-21T12:30:02Z</time>
      </trkpt>
      <trkpt lat="45.94416" lon="-0.95861">
        <ele>6.3</ele>
        <time>2022-06-21T12:30:03Z</time>
      </trkpt>
      <trkpt lat="45.94416" lon="-0.95861">
        <ele>6.3</ele>
        <time>2022-06-21T12:30:04Z</time>
      </trkpt>
      <trkpt lat="45.94416" lon="-0.95861">
        <ele>6.3</ele>
        <time>2022-06-21T12:30:05Z</time>
      </trkpt>
      <trkpt lat="45.94416" lon="-0.95861">
        <ele>6.3</ele>
        <time>2022-06-21T12:30:06Z</time>
      </trkpt>
      <trkpt lat="45.94416" lon="-0.95861">
        <ele>6.3</ele>
        <time>2022-06-21T12:30:07Z</time>
      </trkpt>
      <trkpt lat="45.94416" lon="-0.95861">
        <ele>6.3</ele>
        <time>2022-06-21T12:30:08Z</time>
      </trkpt>
      <trkpt lat="45.94416" lon="-0.95861">
        <ele>6.3</ele>
        <time>2022-06-21T12:30:09Z</time>
      </trkpt>
      <trkpt lat="45.94416" lon="-0.95861">
        <ele>6.3</ele>
        <time>2022-06-21T12:30:10Z</time>
      </trkpt>
      <trkpt lat="45.94416" lon="-0.95861">
        <ele>6.3</ele>
        <time>2022-06-21T12:30:11Z</time>
      </trkpt>
      <trkpt lat="45.94416" lon="-0.95861">
        <ele>6.3</ele>
        <time>2022-06-21T12:30:12Z</time>
      </trkpt>
      <trkpt lat="45.94416" lon="-0.95861">
        <ele>6.3</ele>
        <time>2022-06-21T12:30:13Z</time>
      </trkpt>
      <trkpt lat="45.94416" lon="-0.95861">
        <ele>6.3</ele>
        <time>2022-06-21T12:30:14Z</time>
      </trkpt>
      <trkpt lat="45.94416" lon="-0.95861">
        <ele>6.3</ele>
        <time>2022-06-21T12:30:15Z</time>
      </trkpt>
      <trkpt lat="45.94416" lon="-0.95861">
        <ele>6.3</ele>
        <time>2022-06-21T12:30:16Z</time>
      </trkpt>
      <trkpt lat="45.94416" lon="-0.95861">
        <ele>6.3</ele>
        <time>2022-06-21T12:30:17Z</time>
      </trkpt>
      <trkpt lat="45.94416" lon="-0.95861">
        <ele>6.3</ele>
        <time>2022-06-21T12:30:18Z</time>
      </trkpt>
      <trkpt lat="45.94416" lon="-0.95861">
        <ele>6.3</ele>
        <time>2022-06-21T12:30:19Z</time>
      </trkpt>
      <trkpt lat="45.94416" lon="-0.95861">
        <ele>6.3</ele>
        <time>2022-06-21T12:30:20Z</time>
      </trkpt>
      <trkpt lat="45.94416" lon="-0.95861">
        <ele>6.3</ele>
        <time>2022-06-21T12:30:21Z</time>
      </trkpt>
      <trkpt lat="45.94416" lon="-0.95861">
        <ele>6.3</ele>
        <time>2022-06-21T12:30:22Z</time>
      </trkpt>
      <trkpt lat="45.94416" lon="-0.95861">
        <ele>6.3</ele>
        <time>2022-06-21T12:30:23Z</time>
      </trkpt>
      <trkpt lat="45.94416" lon="-0.95861">
        <ele>6.3</ele>
        <time>2022-06-21T12:30:24Z</time>
      </trkpt>
      <trkpt lat="45.94416" lon="-0.95861">
        <ele>6.3</ele>
        <time>2022-06-21T12:30:25Z</time>
      </trkpt>
      <trkpt lat="45.94416" lon="-0.95861">
        <ele>6.3</ele>
        <time>2022-06-21T12:30:26Z</time>
      </trkpt>
      <trkpt lat="45.94416" lon="-0.95861">
        <ele>6.3</ele>
        <time>2022-06-21T12:30:27Z</time>
      </trkpt>
      <trkpt lat="45.94416" lon="-0.95861">
        <ele>6.3</ele>
        <time>2022-06-21T12:30:28Z</time>
      </trkpt>
      <trkpt lat="45.94416" lon="-0.95861">
        <ele>6.3</ele>
        <time>2022-06-21T12:30:29Z</time>
      </trkpt>
      <trkpt lat="45.94416" lon="-0.95861">
        <ele>6.3</ele>
        <time>2022-06-21T12:30:30Z</time>
      </trkpt>
      <trkpt lat="45.94416" lon="-0.95861">
        <ele>6.3</ele>
        <time>2022-06-21T12:30:31Z</time>
      </trkpt>
      <trkpt lat="45.94416" lon="-0.95861">
        <ele>6.3</ele>
        <time>2022-06-21T12:30:32Z</time>
      </trkpt>
      <trkpt lat="45.94416" lon="-0.95861">
        <ele>6.3</ele>
        <time>2022-06-21T12:30:33Z</time>
      </trkpt>
      <trkpt lat="45.94416" lon="-0.95861">
        <ele>6.3</ele>
        <time>2022-06-21T12:30:34Z</time>
      </trkpt>
      <trkpt lat="45.94416" lon="-0.95861">
        <ele>6.3</ele>
        <time>2022-06-21T12:30:35Z</time>
      </trkpt>
      <trkpt lat="45.94416" lon="-0.95861">
        <ele>6.3</ele>
        <time>2022-06-21T12:30:36Z</time>
      </trkpt>
      <trkpt lat="45.94416" lon="-0.95861">
        <ele>6.3</ele>
        <time>2022-06-21T12:30:37Z</time>
      </trkpt>
      <trkpt lat="45.94416" lon="-0.95861">
        <ele>6.3</ele>
        <time>2022-06-21T12:30:38Z</time>
      </trkpt>
      <trkpt lat="45.94416" lon="-0.95861">
        <ele>6.3</ele>
        <time>2022-06-21T12:30:39Z</time>
      </trkpt>
      <trkpt lat="45.94416" lon="-0.95861">
        <ele>6.3</ele>
        <time>2022-06-21T12:30:40Z</time>
      </trkpt>
      <trkpt lat="45.94416" lon="-0.95861">
        <ele>6.3</ele>
        <time>2022-06-21T12:30:41Z</time>
      </trkpt>
      <trkpt lat="45.94416" lon="-0.95861">
        <ele>6.3</ele>
        <time>2022-06-21T12:30:42Z</time>
      </trkpt>
      <trkpt lat="45.94416" lon="-0.95861">
        <ele>6.3</ele>
        <time>2022-06-21T12:30:43Z</time>
      </trkpt>
      <trkpt lat="45.94416" lon="-0.95861">
        <ele>6.3</ele>
        <time>2022-06-21T12:30:44Z</time>
      </trkpt>
      <trkpt lat="45.94416" lon="-0.95861">
        <ele>6.3</ele>
        <time>2022-06-21T12:30:45Z</time>
      </trkpt>
      <trkpt lat="45.94416" lon="-0.95861">
        <ele>6.3</ele>
        <time>2022-06-21T12:30:46Z</time>
      </trkpt>
      <trkpt lat="45.94416" lon="-0.95861">
        <ele>6.3</ele>
        <time>2022-06-21T12:30:47Z</time>
      </trkpt>
      <trkpt lat="45.94416" lon="-0.95861">
        <ele>6.3</ele>
        <time>2022-06-21T12:30:48Z</time>
      </trkpt>
      <trkpt lat="45.94416" lon="-0.95861">
        <ele>6.3</ele>
        <time>2022-06-21T12:30:49Z</time>
      </trkpt>
      <trkpt lat="45.94416" lon="-0.95861">
        <ele>6.3</ele>
        <time>2022-06-21T12:30:50Z</time>
      </trkpt>
      <trkpt lat="45.94416" lon="-0.95861">
        <ele>6.3</ele>
        <time>2022-06-21T12:30:51Z</time>
      </trkpt>
      <trkpt lat="45.94416" lon="-0.95861">
        <ele>6.3</ele>
        <time>2022-06-21T12:30:52Z</time>
      </trkpt>
      <trkpt lat="45.94416" lon="-0.95861">
        <ele>6.3</ele>
        <time>2022-06-21T12:30:53Z</time>
      </trkpt>
      <trkpt lat="45.94416" lon="-0.95861">
        <ele>6.3</ele>
        <time>2022-06-21T12:30:54Z</time>
      </trkpt>
      <trkpt lat="45.94416" lon="-0.95861">
        <ele>6.3</ele>
        <time>2022-06-21T12:30:55Z</time>
      </trkpt>
      <trkpt lat="45.94416" lon="-0.95861">
        <ele>6.3</ele>
        <time>2022-06-21T12:30:56Z</time>
      </trkpt>
      <trkpt lat="45.94416" lon="-0.95861">
        <ele>6.3</ele>
        <time>2022-06-21T12:30:57Z</time>
      </trkpt>
      <trkpt lat="45.94416" lon="-0.95861">
        <ele>6.3</ele>
        <time>2022-06-21T12:30:58Z</time>
      </trkpt>
      <trkpt lat="45.94416" lon="-0.95861">
        <ele>6.3</ele>
        <time>2022-06-21T12:30:59Z</time>
      </trkpt>
      <trkpt lat="45.94416" lon="-0.95861">
        <ele>6.3</ele>
        <time>2022-06-21T12:31:00Z</time>
      </trkpt>
      <trkpt lat="45.94416" lon="-0.95861">
        <ele>6.3</ele>
        <time>2022-06-21T12:31:01Z</time>
      </trkpt>
      <trkpt lat="45.94416" lon="-0.95861">
        <ele>6.3</ele>
        <time>2022-06-21T12:31:02Z</time>
      </trkpt>
      <trkpt lat="45.94416" lon="-0.95861">
        <ele>6.3</ele>
        <time>2022-06-21T12:31:03Z</time>
      </trkpt>
      <trkpt lat="45.94416" lon="-0.95861">
        <ele>6.3</ele>
        <time>2022-06-21T12:31:04Z</time>
      </trkpt>
      <trkpt lat="45.94416" lon="-0.95861">
        <ele>6.3</ele>
        <time>2022-06-21T12:31:05Z</time>
      </trkpt>
      <trkpt lat="45.94416" lon="-0.95861">
        <ele>6.3</ele>
        <time>2022-06-21T12:31:06Z</time>
      </trkpt>
      <trkpt lat="45.94416" lon="-0.95861">
        <ele>6.3</ele>
        <time>2022-06-21T12:31:07Z</time>
      </trkpt>
      <trkpt lat="45.94416" lon="-0.95861">
        <ele>6.3</ele>
        <time>2022-06-21T12:31:08Z</time>
      </trkpt>
      <trkpt lat="45.94416" lon="-0.95861">
        <ele>6.3</ele>
        <time>2022-06-21T12:31:09Z</time>
      </trkpt>
      <trkpt lat="45.94416" lon="-0.95861">
        <ele>6.3</ele>
        <time>2022-06-21T12:31:10Z</time>
      </trkpt>
      <trkpt lat="45.94415" lon="-0.9586">
        <ele>6.3</ele>
        <time>2022-06-21T12:31:11Z</time>
      </trkpt>
      <trkpt lat="45.94415" lon="-0.95859">
        <ele>6.3</ele>
        <time>2022-06-21T12:31:12Z</time>
      </trkpt>
      <trkpt lat="45.94415" lon="-0.95858">
        <ele>6.3</ele>
        <time>2022-06-21T12:31:13Z</time>
      </trkpt>
      <trkpt lat="45.94415" lon="-0.95858">
        <ele>6.3</ele>
        <time>2022-06-21T12:31:14Z</time>
      </trkpt>
      <trkpt lat="45.94415" lon="-0.95858">
        <ele>6.3</ele>
        <time>2022-06-21T12:31:15Z</time>
      </trkpt>
      <trkpt lat="45.94415" lon="-0.95858">
        <ele>6.3</ele>
        <time>2022-06-21T12:31:16Z</time>
      </trkpt>
      <trkpt lat="45.94415" lon="-0.95858">
        <ele>6.3</ele>
        <time>2022-06-21T12:31:17Z</time>
      </trkpt>
      <trkpt lat="45.94415" lon="-0.95858">
        <ele>6.3</ele>
        <time>2022-06-21T12:31:18Z</time>
      </trkpt>
      <trkpt lat="45.94415" lon="-0.95858">
        <ele>6.3</ele>
        <time>2022-06-21T12:31:19Z</time>
      </trkpt>
      <trkpt lat="45.94415" lon="-0.95858">
        <ele>6.3</ele>
        <time>2022-06-21T12:31:20Z</time>
      </trkpt>
      <trkpt lat="45.94415" lon="-0.95858">
        <ele>6.3</ele>
        <time>2022-06-21T12:31:21Z</time>
      </trkpt>
      <trkpt lat="45.94415" lon="-0.95858">
        <ele>6.3</ele>
        <time>2022-06-21T12:31:22Z</time>
      </trkpt>
      <trkpt lat="45.94415" lon="-0.95858">
        <ele>6.3</ele>
        <time>2022-06-21T12:31:23Z</time>
      </trkpt>
      <trkpt lat="45.94415" lon="-0.95858">
        <ele>6.3</ele>
        <time>2022-06-21T12:31:24Z</time>
      </trkpt>
      <trkpt lat="45.94415" lon="-0.95858">
        <ele>6.3</ele>
        <time>2022-06-21T12:31:25Z</time>
      </trkpt>
      <trkpt lat="45.94415" lon="-0.95858">
        <ele>6.3</ele>
        <time>2022-06-21T12:31:26Z</time>
      </trkpt>
      <trkpt lat="45.94415" lon="-0.95858">
        <ele>6.3</ele>
        <time>2022-06-21T12:31:27Z</time>
      </trkpt>
      <trkpt lat="45.94415" lon="-0.95858">
        <ele>6.3</ele>
        <time>2022-06-21T12:31:28Z</time>
      </trkpt>
      <trkpt lat="45.94415" lon="-0.95858">
        <ele>6.3</ele>
        <time>2022-06-21T12:31:29Z</time>
      </trkpt>
      <trkpt lat="45.94415" lon="-0.95858">
        <ele>6.3</ele>
        <time>2022-06-21T12:31:30Z</time>
      </trkpt>
      <trkpt lat="45.94415" lon="-0.95858">
        <ele>6.3</ele>
        <time>2022-06-21T12:31:31Z</time>
      </trkpt>
      <trkpt lat="45.94415" lon="-0.95858">
        <ele>6.3</ele>
        <time>2022-06-21T12:31:32Z</time>
      </trkpt>
      <trkpt lat="45.94415" lon="-0.95858">
        <ele>6.3</ele>
        <time>2022-06-21T12:31:33Z</time>
      </trkpt>
      <trkpt lat="45.94415" lon="-0.95858">
        <ele>6.3</ele>
        <time>2022-06-21T12:31:34Z</time>
      </trkpt>
      <trkpt lat="45.94415" lon="-0.95858">
        <ele>6.3</ele>
        <time>2022-06-21T12:31:35Z</time>
      </trkpt>
      <trkpt lat="45.94415" lon="-0.95858">
        <ele>6.3</ele>
        <time>2022-06-21T12:31:36Z</time>
      </trkpt>
      <trkpt lat="45.94415" lon="-0.95858">
        <ele>6.3</ele>
        <time>2022-06-21T12:31:37Z</time>
      </trkpt>
      <trkpt lat="45.94415" lon="-0.95858">
        <ele>6.3</ele>
        <time>2022-06-21T12:31:38Z</time>
      </trkpt>
      <trkpt lat="45.94415" lon="-0.95858">
        <ele>6.3</ele>
        <time>2022-06-21T12:31:39Z</time>
      </trkpt>
      <trkpt lat="45.94415" lon="-0.95858">
        <ele>6.3</ele>
        <time>2022-06-21T12:31:40Z</time>
      </trkpt>
      <trkpt lat="45.94415" lon="-0.95858">
        <ele>6.3</ele>
        <time>2022-06-21T12:31:41Z</time>
      </trkpt>
      <trkpt lat="45.94415" lon="-0.95858">
        <ele>6.3</ele>
        <time>2022-06-21T12:31:42Z</time>
      </trkpt>
      <trkpt lat="45.94415" lon="-0.95858">
        <ele>6.3</ele>
        <time>2022-06-21T12:31:43Z</time>
      </trkpt>
      <trkpt lat="45.94415" lon="-0.95858">
        <ele>6.3</ele>
        <time>2022-06-21T12:31:44Z</time>
      </trkpt>
      <trkpt lat="45.94415" lon="-0.95858">
        <ele>6.3</ele>
        <time>2022-06-21T12:31:45Z</time>
      </trkpt>
      <trkpt lat="45.94415" lon="-0.95858">
        <ele>6.3</ele>
        <time>2022-06-21T12:31:46Z</time>
      </trkpt>
      <trkpt lat="45.94415" lon="-0.95858">
        <ele>6.3</ele>
        <time>2022-06-21T12:31:47Z</time>
      </trkpt>
      <trkpt lat="45.94415" lon="-0.95858">
        <ele>6.3</ele>
        <time>2022-06-21T12:31:48Z</time>
      </trkpt>
      <trkpt lat="45.94415" lon="-0.95858">
        <ele>6.3</ele>
        <time>2022-06-21T12:31:49Z</time>
      </trkpt>
      <trkpt lat="45.94415" lon="-0.95858">
        <ele>6.3</ele>
        <time>2022-06-21T12:31:50Z</time>
      </trkpt>
      <trkpt lat="45.94415" lon="-0.95858">
        <ele>6.3</ele>
        <time>2022-06-21T12:31:51Z</time>
      </trkpt>
      <trkpt lat="45.94415" lon="-0.95858">
        <ele>6.3</ele>
        <time>2022-06-21T12:31:52Z</time>
      </trkpt>
      <trkpt lat="45.94415" lon="-0.95858">
        <ele>6.3</ele>
        <time>2022-06-21T12:31:53Z</time>
      </trkpt>
      <trkpt lat="45.94415" lon="-0.95858">
        <ele>6.3</ele>
        <time>2022-06-21T12:31:54Z</time>
      </trkpt>
      <trkpt lat="45.94415" lon="-0.95858">
        <ele>6.3</ele>
        <time>2022-06-21T12:31:55Z</time>
      </trkpt>
      <trkpt lat="45.94415" lon="-0.95858">
        <ele>6.3</ele>
        <time>2022-06-21T12:31:56Z</time>
      </trkpt>
      <trkpt lat="45.94415" lon="-0.95858">
        <ele>6.3</ele>
        <time>2022-06-21T12:31:57Z</time>
      </trkpt>
      <trkpt lat="45.94415" lon="-0.95858">
        <ele>6.3</ele>
        <time>2022-06-21T12:31:58Z</time>
      </trkpt>
      <trkpt lat="45.94415" lon="-0.95858">
        <ele>6.3</ele>
        <time>2022-06-21T12:31:59Z</time>
      </trkpt>
      <trkpt lat="45.94415" lon="-0.95858">
        <ele>6.3</ele>
        <time>2022-06-21T12:32:00Z</time>
      </trkpt>
      <trkpt lat="45.94415" lon="-0.95858">
        <ele>6.3</ele>
        <time>2022-06-21T12:32:01Z</time>
      </trkpt>
      <trkpt lat="45.94415" lon="-0.95858">
        <ele>6.3</ele>
        <time>2022-06-21T12:32:02Z</time>
      </trkpt>
      <trkpt lat="45.94415" lon="-0.95858">
        <ele>6.3</ele>
        <time>2022-06-21T12:32:03Z</time>
      </trkpt>
      <trkpt lat="45.94415" lon="-0.95858">
        <ele>6.3</ele>
        <time>2022-06-21T12:32:04Z</time>
      </trkpt>
      <trkpt lat="45.94415" lon="-0.95858">
        <ele>6.3</ele>
        <time>2022-06-21T12:32:05Z</time>
      </trkpt>
      <trkpt lat="45.94415" lon="-0.95858">
        <ele>6.3</ele>
        <time>2022-06-21T12:32:06Z</time>
      </trkpt>
      <trkpt lat="45.94415" lon="-0.95858">
        <ele>6.3</ele>
        <time>2022-06-21T12:32:07Z</time>
      </trkpt>
      <trkpt lat="45.94415" lon="-0.95858">
        <ele>6.3</ele>
        <time>2022-06-21T12:32:08Z</time>
      </trkpt>
      <trkpt lat="45.94415" lon="-0.95858">
        <ele>6.3</ele>
        <time>2022-06-21T12:32:09Z</time>
      </trkpt>
      <trkpt lat="45.94415" lon="-0.95858">
        <ele>6.3</ele>
        <time>2022-06-21T12:32:10Z</time>
      </trkpt>
      <trkpt lat="45.94415" lon="-0.95858">
        <ele>6.3</ele>
        <time>2022-06-21T12:32:11Z</time>
      </trkpt>
      <trkpt lat="45.94415" lon="-0.95857">
        <ele>6.3</ele>
        <time>2022-06-21T12:32:12Z</time>
      </trkpt>
      <trkpt lat="45.94415" lon="-0.95856">
        <ele>6.3</ele>
        <time>2022-06-21T12:32:13Z</time>
      </trkpt>
      <trkpt lat="45.94414" lon="-0.95856">
        <ele>6.3</ele>
        <time>2022-06-21T12:32:14Z</time>
      </trkpt>
      <trkpt lat="45.94413" lon="-0.95855">
        <ele>6.3</ele>
        <time>2022-06-21T12:32:15Z</time>
      </trkpt>
      <trkpt lat="45.94412" lon="-0.95854">
        <ele>6.3</ele>
        <time>2022-06-21T12:32:16Z</time>
      </trkpt>
      <trkpt lat="45.94412" lon="-0.95854">
        <ele>6.3</ele>
        <time>2022-06-21T12:32:17Z</time>
      </trkpt>
      <trkpt lat="45.94411" lon="-0.95853">
        <ele>6.3</ele>
        <time>2022-06-21T12:32:18Z</time>
      </trkpt>
      <trkpt lat="45.94411" lon="-0.95852">
        <ele>6.3</ele>
        <time>2022-06-21T12:32:19Z</time>
      </trkpt>
      <trkpt lat="45.9441" lon="-0.95851">
        <ele>6.3</ele>
        <time>2022-06-21T12:32:21Z</time>
      </trkpt>
      <trkpt lat="45.94409" lon="-0.95851">
        <ele>6.3</ele>
        <time>2022-06-21T12:32:22Z</time>
      </trkpt>
      <trkpt lat="45.94408" lon="-0.9585">
        <ele>6.3</ele>
        <time>2022-06-21T12:32:23Z</time>
      </trkpt>
      <trkpt lat="45.94407" lon="-0.9585">
        <ele>6.3</ele>
        <time>2022-06-21T12:32:24Z</time>
      </trkpt>
      <trkpt lat="45.94406" lon="-0.9585">
        <ele>6.2</ele>
        <time>2022-06-21T12:32:25Z</time>
      </trkpt>
      <trkpt lat="45.94406" lon="-0.9585">
        <ele>6.2</ele>
        <time>2022-06-21T12:32:26Z</time>
      </trkpt>
      <trkpt lat="45.94406" lon="-0.95851">
        <ele>6.2</ele>
        <time>2022-06-21T12:32:27Z</time>
      </trkpt>
      <trkpt lat="45.94406" lon="-0.95851">
        <ele>6.2</ele>
        <time>2022-06-21T12:32:28Z</time>
      </trkpt>
      <trkpt lat="45.94405" lon="-0.95851">
        <ele>6.2</ele>
        <time>2022-06-21T12:32:29Z</time>
      </trkpt>
      <trkpt lat="45.94405" lon="-0.95851">
        <ele>6.2</ele>
        <time>2022-06-21T12:32:30Z</time>
      </trkpt>
      <trkpt lat="45.94405" lon="-0.95852">
        <ele>6.2</ele>
        <time>2022-06-21T12:32:31Z</time>
      </trkpt>
      <trkpt lat="45.94405" lon="-0.95852">
        <ele>6.2</ele>
        <time>2022-06-21T12:32:32Z</time>
      </trkpt>
      <trkpt lat="45.94405" lon="-0.95852">
        <ele>6.2</ele>
        <time>2022-06-21T12:32:33Z</time>
      </trkpt>
      <trkpt lat="45.94405" lon="-0.95852">
        <ele>6.2</ele>
        <time>2022-06-21T12:32:34Z</time>
      </trkpt>
      <trkpt lat="45.94405" lon="-0.95852">
        <ele>6.2</ele>
        <time>2022-06-21T12:32:35Z</time>
      </trkpt>
      <trkpt lat="45.94405" lon="-0.95852">
        <ele>6.2</ele>
        <time>2022-06-21T12:32:37Z</time>
      </trkpt>
      <trkpt lat="45.94404" lon="-0.95851">
        <ele>6.2</ele>
        <time>2022-06-21T12:32:38Z</time>
      </trkpt>
      <trkpt lat="45.94403" lon="-0.95851">
        <ele>6.2</ele>
        <time>2022-06-21T12:32:39Z</time>
      </trkpt>
      <trkpt lat="45.94402" lon="-0.9585">
        <ele>6.2</ele>
        <time>2022-06-21T12:32:40Z</time>
      </trkpt>
      <trkpt lat="45.944" lon="-0.95849">
        <ele>6.2</ele>
        <time>2022-06-21T12:32:41Z</time>
      </trkpt>
      <trkpt lat="45.94399" lon="-0.95849">
        <ele>6.2</ele>
        <time>2022-06-21T12:32:42Z</time>
      </trkpt>
      <trkpt lat="45.94398" lon="-0.95847">
        <ele>6.2</ele>
        <time>2022-06-21T12:32:44Z</time>
      </trkpt>
      <trkpt lat="45.94397" lon="-0.95846">
        <ele>6.2</ele>
        <time>2022-06-21T12:32:45Z</time>
      </trkpt>
      <trkpt lat="45.94396" lon="-0.95846">
        <ele>6.2</ele>
        <time>2022-06-21T12:32:46Z</time>
      </trkpt>
      <trkpt lat="45.94395" lon="-0.95844">
        <ele>6.2</ele>
        <time>2022-06-21T12:32:47Z</time>
      </trkpt>
      <trkpt lat="45.94394" lon="-0.95842">
        <ele>6.2</ele>
        <time>2022-06-21T12:32:48Z</time>
      </trkpt>
      <trkpt lat="45.94393" lon="-0.95841">
        <ele>6.2</ele>
        <time>2022-06-21T12:32:50Z</time>
      </trkpt>
      <trkpt lat="45.94393" lon="-0.9584">
        <ele>6.1</ele>
        <time>2022-06-21T12:32:51Z</time>
      </trkpt>
      <trkpt lat="45.94392" lon="-0.95839">
        <ele>6.1</ele>
        <time>2022-06-21T12:32:52Z</time>
      </trkpt>
      <trkpt lat="45.94391" lon="-0.95838">
        <ele>6.1</ele>
        <time>2022-06-21T12:32:53Z</time>
      </trkpt>
      <trkpt lat="45.94393" lon="-0.95839">
        <ele>6.1</ele>
        <time>2022-06-21T12:32:54Z</time>
      </trkpt>
      <trkpt lat="45.94393" lon="-0.95839">
        <ele>6.1</ele>
        <time>2022-06-21T12:32:55Z</time>
      </trkpt>
      <trkpt lat="45.94394" lon="-0.95839">
        <ele>6.1</ele>
        <time>2022-06-21T12:32:56Z</time>
      </trkpt>
      <trkpt lat="45.94394" lon="-0.95839">
        <ele>6.1</ele>
        <time>2022-06-21T12:32:57Z</time>
      </trkpt>
      <trkpt lat="45.94394" lon="-0.9584">
        <ele>6.1</ele>
        <time>2022-06-21T12:32:58Z</time>
      </trkpt>
      <trkpt lat="45.94394" lon="-0.9584">
        <ele>6.1</ele>
        <time>2022-06-21T12:32:59Z</time>
      </trkpt>
      <trkpt lat="45.94394" lon="-0.9584">
        <ele>6.1</ele>
        <time>2022-06-21T12:33:00Z</time>
      </trkpt>
      <trkpt lat="45.94394" lon="-0.95839">
        <ele>6.1</ele>
        <time>2022-06-21T12:33:01Z</time>
      </trkpt>
      <trkpt lat="45.94394" lon="-0.95839">
        <ele>6.1</ele>
        <time>2022-06-21T12:33:03Z</time>
      </trkpt>
      <trkpt lat="45.94394" lon="-0.95839">
        <ele>6.1</ele>
        <time>2022-06-21T12:33:04Z</time>
      </trkpt>
      <trkpt lat="45.94394" lon="-0.95839">
        <ele>6.1</ele>
        <time>2022-06-21T12:33:05Z</time>
      </trkpt>
      <trkpt lat="45.94394" lon="-0.95839">
        <ele>6.1</ele>
        <time>2022-06-21T12:33:06Z</time>
      </trkpt>
      <trkpt lat="45.94394" lon="-0.95839">
        <ele>6.1</ele>
        <time>2022-06-21T12:33:07Z</time>
      </trkpt>
      <trkpt lat="45.94394" lon="-0.95839">
        <ele>6.1</ele>
        <time>2022-06-21T12:33:08Z</time>
      </trkpt>
      <trkpt lat="45.94394" lon="-0.95839">
        <ele>6.1</ele>
        <time>2022-06-21T12:33:10Z</time>
      </trkpt>
      <trkpt lat="45.94394" lon="-0.95838">
        <ele>6.1</ele>
        <time>2022-06-21T12:33:11Z</time>
      </trkpt>
      <trkpt lat="45.94393" lon="-0.95837">
        <ele>6.1</ele>
        <time>2022-06-21T12:33:12Z</time>
      </trkpt>
      <trkpt lat="45.94393" lon="-0.95835">
        <ele>6.1</ele>
        <time>2022-06-21T12:33:13Z</time>
      </trkpt>
      <trkpt lat="45.94392" lon="-0.95832">
        <ele>6.1</ele>
        <time>2022-06-21T12:33:14Z</time>
      </trkpt>
      <trkpt lat="45.94391" lon="-0.95831">
        <ele>6.1</ele>
        <time>2022-06-21T12:33:15Z</time>
      </trkpt>
      <trkpt lat="45.94391" lon="-0.95829">
        <ele>6.1</ele>
        <time>2022-06-21T12:33:16Z</time>
      </trkpt>
      <trkpt lat="45.9439" lon="-0.95827">
        <ele>6.1</ele>
        <time>2022-06-21T12:33:17Z</time>
      </trkpt>
      <trkpt lat="45.94389" lon="-0.95825">
        <ele>6.1</ele>
        <time>2022-06-21T12:33:18Z</time>
      </trkpt>
      <trkpt lat="45.94388" lon="-0.95823">
        <ele>6.1</ele>
        <time>2022-06-21T12:33:19Z</time>
      </trkpt>
      <trkpt lat="45.94388" lon="-0.95822">
        <ele>6.1</ele>
        <time>2022-06-21T12:33:20Z</time>
      </trkpt>
      <trkpt lat="45.94387" lon="-0.9582">
        <ele>6.1</ele>
        <time>2022-06-21T12:33:22Z</time>
      </trkpt>
      <trkpt lat="45.94387" lon="-0.95819">
        <ele>6.1</ele>
        <time>2022-06-21T12:33:23Z</time>
      </trkpt>
      <trkpt lat="45.94386" lon="-0.95818">
        <ele>6.1</ele>
        <time>2022-06-21T12:33:24Z</time>
      </trkpt>
      <trkpt lat="45.94385" lon="-0.95817">
        <ele>6.1</ele>
        <time>2022-06-21T12:33:25Z</time>
      </trkpt>
      <trkpt lat="45.94385" lon="-0.95817">
        <ele>6.1</ele>
        <time>2022-06-21T12:33:26Z</time>
      </trkpt>
      <trkpt lat="45.94384" lon="-0.95817">
        <ele>6.1</ele>
        <time>2022-06-21T12:33:27Z</time>
      </trkpt>
      <trkpt lat="45.94383" lon="-0.95817">
        <ele>6.1</ele>
        <time>2022-06-21T12:33:28Z</time>
      </trkpt>
      <trkpt lat="45.94382" lon="-0.95816">
        <ele>6.1</ele>
        <time>2022-06-21T12:33:30Z</time>
      </trkpt>
      <trkpt lat="45.94382" lon="-0.95815">
        <ele>6.2</ele>
        <time>2022-06-21T12:33:31Z</time>
      </trkpt>
      <trkpt lat="45.9438" lon="-0.95814">
        <ele>6.2</ele>
        <time>2022-06-21T12:33:32Z</time>
      </trkpt>
      <trkpt lat="45.94379" lon="-0.95814">
        <ele>6.2</ele>
        <time>2022-06-21T12:33:33Z</time>
      </trkpt>
      <trkpt lat="45.94376" lon="-0.95813">
        <ele>6.2</ele>
        <time>2022-06-21T12:33:34Z</time>
      </trkpt>
      <trkpt lat="45.94375" lon="-0.95812">
        <ele>6.2</ele>
        <time>2022-06-21T12:33:35Z</time>
      </trkpt>
      <trkpt lat="45.94373" lon="-0.95811">
        <ele>6.2</ele>
        <time>2022-06-21T12:33:36Z</time>
      </trkpt>
      <trkpt lat="45.94371" lon="-0.95809">
        <ele>6.2</ele>
        <time>2022-06-21T12:33:38Z</time>
      </trkpt>
      <trkpt lat="45.94369" lon="-0.95807">
        <ele>6.2</ele>
        <time>2022-06-21T12:33:39Z</time>
      </trkpt>
      <trkpt lat="45.94368" lon="-0.95806">
        <ele>6.2</ele>
        <time>2022-06-21T12:33:40Z</time>
      </trkpt>
      <trkpt lat="45.94365" lon="-0.95804">
        <ele>6.2</ele>
        <time>2022-06-21T12:33:41Z</time>
      </trkpt>
      <trkpt lat="45.94364" lon="-0.95803">
        <ele>6.2</ele>
        <time>2022-06-21T12:33:42Z</time>
      </trkpt>
      <trkpt lat="45.94363" lon="-0.95802">
        <ele>6.2</ele>
        <time>2022-06-21T12:33:44Z</time>
      </trkpt>
      <trkpt lat="45.94362" lon="-0.95802">
        <ele>6.2</ele>
        <time>2022-06-21T12:33:45Z</time>
      </trkpt>
      <trkpt lat="45.94362" lon="-0.95801">
        <ele>6.2</ele>
        <time>2022-06-21T12:33:46Z</time>
      </trkpt>
      <trkpt lat="45.94361" lon="-0.95801">
        <ele>6.2</ele>
        <time>2022-06-21T12:33:47Z</time>
      </trkpt>
      <trkpt lat="45.94361" lon="-0.95801">
        <ele>6.2</ele>
        <time>2022-06-21T12:33:48Z</time>
      </trkpt>
      <trkpt lat="45.94359" lon="-0.95802">
        <ele>6.3</ele>
        <time>2022-06-21T12:33:50Z</time>
      </trkpt>
      <trkpt lat="45.94358" lon="-0.95802">
        <ele>6.3</ele>
        <time>2022-06-21T12:33:51Z</time>
      </trkpt>
      <trkpt lat="45.94357" lon="-0.95801">
        <ele>6.3</ele>
        <time>2022-06-21T12:33:52Z</time>
      </trkpt>
      <trkpt lat="45.94357" lon="-0.95805">
        <ele>6.3</ele>
        <time>2022-06-21T12:33:53Z</time>
      </trkpt>
      <trkpt lat="45.94357" lon="-0.95807">
        <ele>6.3</ele>
        <time>2022-06-21T12:33:54Z</time>
      </trkpt>
      <trkpt lat="45.94358" lon="-0.95809">
        <ele>6.3</ele>
        <time>2022-06-21T12:33:55Z</time>
      </trkpt>
      <trkpt lat="45.94358" lon="-0.95809">
        <ele>6.3</ele>
        <time>2022-06-21T12:33:56Z</time>
      </trkpt>
      <trkpt lat="45.94358" lon="-0.9581">
        <ele>6.3</ele>
        <time>2022-06-21T12:33:58Z</time>
      </trkpt>
      <trkpt lat="45.94358" lon="-0.9581">
        <ele>6.3</ele>
        <time>2022-06-21T12:33:59Z</time>
      </trkpt>
      <trkpt lat="45.94358" lon="-0.9581">
        <ele>6.3</ele>
        <time>2022-06-21T12:34:00Z</time>
      </trkpt>
      <trkpt lat="45.94358" lon="-0.9581">
        <ele>6.3</ele>
        <time>2022-06-21T12:34:01Z</time>
      </trkpt>
      <trkpt lat="45.94358" lon="-0.9581">
        <ele>6.3</ele>
        <time>2022-06-21T12:34:02Z</time>
      </trkpt>
      <trkpt lat="45.94358" lon="-0.9581">
        <ele>6.3</ele>
        <time>2022-06-21T12:34:03Z</time>
      </trkpt>
      <trkpt lat="45.94358" lon="-0.9581">
        <ele>6.3</ele>
        <time>2022-06-21T12:34:04Z</time>
      </trkpt>
      <trkpt lat="45.9436" lon="-0.9581">
        <ele>6.3</ele>
        <time>2022-06-21T12:34:06Z</time>
      </trkpt>
      <trkpt lat="45.94361" lon="-0.9581">
        <ele>6.3</ele>
        <time>2022-06-21T12:34:07Z</time>
      </trkpt>
      <trkpt lat="45.94362" lon="-0.9581">
        <ele>6.3</ele>
        <time>2022-06-21T12:34:08Z</time>
      </trkpt>
      <trkpt lat="45.94362" lon="-0.9581">
        <ele>6.3</ele>
        <time>2022-06-21T12:34:09Z</time>
      </trkpt>
      <trkpt lat="45.94362" lon="-0.9581">
        <ele>6.3</ele>
        <time>2022-06-21T12:34:10Z</time>
      </trkpt>
      <trkpt lat="45.94362" lon="-0.9581">
        <ele>6.3</ele>
        <time>2022-06-21T12:34:11Z</time>
      </trkpt>
      <trkpt lat="45.94362" lon="-0.9581">
        <ele>6.3</ele>
        <time>2022-06-21T12:34:13Z</time>
      </trkpt>
      <trkpt lat="45.94362" lon="-0.9581">
        <ele>6.3</ele>
        <time>2022-06-21T12:34:14Z</time>
      </trkpt>
      <trkpt lat="45.94362" lon="-0.9581">
        <ele>6.3</ele>
        <time>2022-06-21T12:34:15Z</time>
      </trkpt>
      <trkpt lat="45.94362" lon="-0.95811">
        <ele>6.3</ele>
        <time>2022-06-21T12:34:16Z</time>
      </trkpt>
      <trkpt lat="45.94362" lon="-0.95811">
        <ele>6.3</ele>
        <time>2022-06-21T12:34:17Z</time>
      </trkpt>
      <trkpt lat="45.94366" lon="-0.95809">
        <ele>6.3</ele>
        <time>2022-06-21T12:34:19Z</time>
      </trkpt>
      <trkpt lat="45.94367" lon="-0.95809">
        <ele>6.3</ele>
        <time>2022-06-21T12:34:20Z</time>
      </trkpt>
      <trkpt lat="45.94367" lon="-0.95809">
        <ele>6.3</ele>
        <time>2022-06-21T12:34:21Z</time>
      </trkpt>
      <trkpt lat="45.94367" lon="-0.95809">
        <ele>6.3</ele>
        <time>2022-06-21T12:34:22Z</time>
      </trkpt>
      <trkpt lat="45.94367" lon="-0.95809">
        <ele>6.3</ele>
        <time>2022-06-21T12:34:23Z</time>
      </trkpt>
      <trkpt lat="45.94367" lon="-0.95809">
        <ele>6.3</ele>
        <time>2022-06-21T12:34:24Z</time>
      </trkpt>
      <trkpt lat="45.94367" lon="-0.95809">
        <ele>6.3</ele>
        <time>2022-06-21T12:34:25Z</time>
      </trkpt>
      <trkpt lat="45.94367" lon="-0.95809">
        <ele>6.3</ele>
        <time>2022-06-21T12:34:26Z</time>
      </trkpt>
      <trkpt lat="45.94367" lon="-0.95809">
        <ele>6.3</ele>
        <time>2022-06-21T12:34:27Z</time>
      </trkpt>
      <trkpt lat="45.94367" lon="-0.95809">
        <ele>6.3</ele>
        <time>2022-06-21T12:34:28Z</time>
      </trkpt>
      <trkpt lat="45.94366" lon="-0.95809">
        <ele>6.3</ele>
        <time>2022-06-21T12:34:29Z</time>
      </trkpt>
      <trkpt lat="45.94366" lon="-0.95809">
        <ele>6.3</ele>
        <time>2022-06-21T12:34:30Z</time>
      </trkpt>
      <trkpt lat="45.94366" lon="-0.95809">
        <ele>6.3</ele>
        <time>2022-06-21T12:34:31Z</time>
      </trkpt>
      <trkpt lat="45.94366" lon="-0.95809">
        <ele>6.3</ele>
        <time>2022-06-21T12:34:32Z</time>
      </trkpt>
      <trkpt lat="45.94366" lon="-0.95809">
        <ele>6.3</ele>
        <time>2022-06-21T12:34:33Z</time>
      </trkpt>
      <trkpt lat="45.94365" lon="-0.95808">
        <ele>6.3</ele>
        <time>2022-06-21T12:34:34Z</time>
      </trkpt>
      <trkpt lat="45.94365" lon="-0.95808">
        <ele>6.3</ele>
        <time>2022-06-21T12:34:35Z</time>
      </trkpt>
      <trkpt lat="45.94365" lon="-0.95808">
        <ele>6.4</ele>
        <time>2022-06-21T12:34:36Z</time>
      </trkpt>
      <trkpt lat="45.94365" lon="-0.95808">
        <ele>6.4</ele>
        <time>2022-06-21T12:34:37Z</time>
      </trkpt>
      <trkpt lat="45.94365" lon="-0.95808">
        <ele>6.4</ele>
        <time>2022-06-21T12:34:38Z</time>
      </trkpt>
      <trkpt lat="45.94365" lon="-0.95808">
        <ele>6.4</ele>
        <time>2022-06-21T12:34:39Z</time>
      </trkpt>
      <trkpt lat="45.94365" lon="-0.95808">
        <ele>6.4</ele>
        <time>2022-06-21T12:34:40Z</time>
      </trkpt>
      <trkpt lat="45.94365" lon="-0.95808">
        <ele>6.4</ele>
        <time>2022-06-21T12:34:41Z</time>
      </trkpt>
      <trkpt lat="45.94365" lon="-0.95808">
        <ele>6.4</ele>
        <time>2022-06-21T12:34:42Z</time>
      </trkpt>
      <trkpt lat="45.94365" lon="-0.95808">
        <ele>6.4</ele>
        <time>2022-06-21T12:34:43Z</time>
      </trkpt>
      <trkpt lat="45.94365" lon="-0.95808">
        <ele>6.4</ele>
        <time>2022-06-21T12:34:44Z</time>
      </trkpt>
      <trkpt lat="45.94365" lon="-0.95808">
        <ele>6.4</ele>
        <time>2022-06-21T12:34:45Z</time>
      </trkpt>
      <trkpt lat="45.94365" lon="-0.95808">
        <ele>6.4</ele>
        <time>2022-06-21T12:34:46Z</time>
      </trkpt>
      <trkpt lat="45.94365" lon="-0.95808">
        <ele>6.4</ele>
        <time>2022-06-21T12:34:47Z</time>
      </trkpt>
      <trkpt lat="45.94365" lon="-0.95807">
        <ele>6.4</ele>
        <time>2022-06-21T12:34:48Z</time>
      </trkpt>
      <trkpt lat="45.94365" lon="-0.95806">
        <ele>6.4</ele>
        <time>2022-06-21T12:34:49Z</time>
      </trkpt>
      <trkpt lat="45.94365" lon="-0.95806">
        <ele>6.4</ele>
        <time>2022-06-21T12:34:50Z</time>
      </trkpt>
      <trkpt lat="45.94365" lon="-0.95806">
        <ele>6.4</ele>
        <time>2022-06-21T12:34:51Z</time>
      </trkpt>
      <trkpt lat="45.94364" lon="-0.95806">
        <ele>6.4</ele>
        <time>2022-06-21T12:34:52Z</time>
      </trkpt>
      <trkpt lat="45.94364" lon="-0.95806">
        <ele>6.4</ele>
        <time>2022-06-21T12:34:53Z</time>
      </trkpt>
      <trkpt lat="45.94364" lon="-0.95807">
        <ele>6.4</ele>
        <time>2022-06-21T12:34:54Z</time>
      </trkpt>
      <trkpt lat="45.94363" lon="-0.95805">
        <ele>6.4</ele>
        <time>2022-06-21T12:34:56Z</time>
      </trkpt>
      <trkpt lat="45.94362" lon="-0.95803">
        <ele>6.4</ele>
        <time>2022-06-21T12:34:57Z</time>
      </trkpt>
      <trkpt lat="45.94361" lon="-0.95801">
        <ele>6.4</ele>
        <time>2022-06-21T12:34:58Z</time>
      </trkpt>
      <trkpt lat="45.9436" lon="-0.958">
        <ele>6.4</ele>
        <time>2022-06-21T12:34:59Z</time>
      </trkpt>
      <trkpt lat="45.94359" lon="-0.95798">
        <ele>6.4</ele>
        <time>2022-06-21T12:35:00Z</time>
      </trkpt>
      <trkpt lat="45.94358" lon="-0.95797">
        <ele>6.4</ele>
        <time>2022-06-21T12:35:01Z</time>
      </trkpt>
      <trkpt lat="45.94356" lon="-0.95795">
        <ele>6.4</ele>
        <time>2022-06-21T12:35:03Z</time>
      </trkpt>
      <trkpt lat="45.94355" lon="-0.95794">
        <ele>6.4</ele>
        <time>2022-06-21T12:35:04Z</time>
      </trkpt>
      <trkpt lat="45.94353" lon="-0.95794">
        <ele>6.4</ele>
        <time>2022-06-21T12:35:05Z</time>
      </trkpt>
      <trkpt lat="45.94352" lon="-0.95793">
        <ele>6.4</ele>
        <time>2022-06-21T12:35:06Z</time>
      </trkpt>
      <trkpt lat="45.94351" lon="-0.95792">
        <ele>6.4</ele>
        <time>2022-06-21T12:35:07Z</time>
      </trkpt>
      <trkpt lat="45.9435" lon="-0.95791">
        <ele>6.4</ele>
        <time>2022-06-21T12:35:08Z</time>
      </trkpt>
      <trkpt lat="45.94349" lon="-0.95789">
        <ele>6.4</ele>
        <time>2022-06-21T12:35:09Z</time>
      </trkpt>
      <trkpt lat="45.94348" lon="-0.95788">
        <ele>6.4</ele>
        <time>2022-06-21T12:35:11Z</time>
      </trkpt>
      <trkpt lat="45.94347" lon="-0.95787">
        <ele>6.4</ele>
        <time>2022-06-21T12:35:12Z</time>
      </trkpt>
      <trkpt lat="45.94347" lon="-0.95786">
        <ele>6.4</ele>
        <time>2022-06-21T12:35:13Z</time>
      </trkpt>
      <trkpt lat="45.94346" lon="-0.95786">
        <ele>6.4</ele>
        <time>2022-06-21T12:35:14Z</time>
      </trkpt>
      <trkpt lat="45.94346" lon="-0.95785">
        <ele>6.4</ele>
        <time>2022-06-21T12:35:15Z</time>
      </trkpt>
      <trkpt lat="45.94345" lon="-0.95784">
        <ele>6.4</ele>
        <time>2022-06-21T12:35:16Z</time>
      </trkpt>
      <trkpt lat="45.94344" lon="-0.95783">
        <ele>6.4</ele>
        <time>2022-06-21T12:35:17Z</time>
      </trkpt>
      <trkpt lat="45.94343" lon="-0.95783">
        <ele>6.4</ele>
        <time>2022-06-21T12:35:19Z</time>
      </trkpt>
      <trkpt lat="45.94342" lon="-0.95782">
        <ele>6.4</ele>
        <time>2022-06-21T12:35:20Z</time>
      </trkpt>
      <trkpt lat="45.94341" lon="-0.95782">
        <ele>6.4</ele>
        <time>2022-06-21T12:35:21Z</time>
      </trkpt>
      <trkpt lat="45.9434" lon="-0.95781">
        <ele>6.4</ele>
        <time>2022-06-21T12:35:22Z</time>
      </trkpt>
      <trkpt lat="45.94338" lon="-0.95779">
        <ele>6.4</ele>
        <time>2022-06-21T12:35:24Z</time>
      </trkpt>
      <trkpt lat="45.94338" lon="-0.95778">
        <ele>6.4</ele>
        <time>2022-06-21T12:35:25Z</time>
      </trkpt>
      <trkpt lat="45.94337" lon="-0.95776">
        <ele>6.4</ele>
        <time>2022-06-21T12:35:26Z</time>
      </trkpt>
      <trkpt lat="45.94337" lon="-0.95776">
        <ele>6.4</ele>
        <time>2022-06-21T12:35:27Z</time>
      </trkpt>
      <trkpt lat="45.94337" lon="-0.95775">
        <ele>6.4</ele>
        <time>2022-06-21T12:35:28Z</time>
      </trkpt>
      <trkpt lat="45.94336" lon="-0.95775">
        <ele>6.4</ele>
        <time>2022-06-21T12:35:29Z</time>
      </trkpt>
      <trkpt lat="45.94335" lon="-0.95774">
        <ele>6.4</ele>
        <time>2022-06-21T12:35:30Z</time>
      </trkpt>
      <trkpt lat="45.94334" lon="-0.95773">
        <ele>6.4</ele>
        <time>2022-06-21T12:35:31Z</time>
      </trkpt>
      <trkpt lat="45.94333" lon="-0.95771">
        <ele>6.4</ele>
        <time>2022-06-21T12:35:33Z</time>
      </trkpt>
      <trkpt lat="45.94332" lon="-0.9577">
        <ele>6.4</ele>
        <time>2022-06-21T12:35:34Z</time>
      </trkpt>
      <trkpt lat="45.9433" lon="-0.95769">
        <ele>6.4</ele>
        <time>2022-06-21T12:35:35Z</time>
      </trkpt>
      <trkpt lat="45.94329" lon="-0.95768">
        <ele>6.4</ele>
        <time>2022-06-21T12:35:36Z</time>
      </trkpt>
      <trkpt lat="45.94328" lon="-0.95768">
        <ele>6.4</ele>
        <time>2022-06-21T12:35:37Z</time>
      </trkpt>
      <trkpt lat="45.94326" lon="-0.95767">
        <ele>6.4</ele>
        <time>2022-06-21T12:35:39Z</time>
      </trkpt>
      <trkpt lat="45.94325" lon="-0.95765">
        <ele>6.4</ele>
        <time>2022-06-21T12:35:40Z</time>
      </trkpt>
      <trkpt lat="45.94324" lon="-0.95764">
        <ele>6.4</ele>
        <time>2022-06-21T12:35:41Z</time>
      </trkpt>
      <trkpt lat="45.94323" lon="-0.95762">
        <ele>6.4</ele>
        <time>2022-06-21T12:35:42Z</time>
      </trkpt>
      <trkpt lat="45.94322" lon="-0.95762">
        <ele>6.4</ele>
        <time>2022-06-21T12:35:43Z</time>
      </trkpt>
      <trkpt lat="45.94321" lon="-0.95761">
        <ele>6.4</ele>
        <time>2022-06-21T12:35:44Z</time>
      </trkpt>
      <trkpt lat="45.94319" lon="-0.95759">
        <ele>6.4</ele>
        <time>2022-06-21T12:35:45Z</time>
      </trkpt>
      <trkpt lat="45.94317" lon="-0.95758">
        <ele>6.4</ele>
        <time>2022-06-21T12:35:47Z</time>
      </trkpt>
      <trkpt lat="45.94316" lon="-0.95757">
        <ele>6.4</ele>
        <time>2022-06-21T12:35:48Z</time>
      </trkpt>
      <trkpt lat="45.94315" lon="-0.95756">
        <ele>6.4</ele>
        <time>2022-06-21T12:35:49Z</time>
      </trkpt>
      <trkpt lat="45.94313" lon="-0.95755">
        <ele>6.5</ele>
        <time>2022-06-21T12:35:50Z</time>
      </trkpt>
      <trkpt lat="45.94312" lon="-0.95754">
        <ele>6.5</ele>
        <time>2022-06-21T12:35:51Z</time>
      </trkpt>
      <trkpt lat="45.9431" lon="-0.95752">
        <ele>6.5</ele>
        <time>2022-06-21T12:35:52Z</time>
      </trkpt>
      <trkpt lat="45.94309" lon="-0.95751">
        <ele>6.5</ele>
        <time>2022-06-21T12:35:54Z</time>
      </trkpt>
      <trkpt lat="45.94307" lon="-0.95749">
        <ele>6.5</ele>
        <time>2022-06-21T12:35:55Z</time>
      </trkpt>
      <trkpt lat="45.94306" lon="-0.95749">
        <ele>6.5</ele>
        <time>2022-06-21T12:35:56Z</time>
      </trkpt>
      <trkpt lat="45.94306" lon="-0.95748">
        <ele>6.5</ele>
        <time>2022-06-21T12:35:57Z</time>
      </trkpt>
      <trkpt lat="45.94305" lon="-0.95747">
        <ele>6.5</ele>
        <time>2022-06-21T12:35:58Z</time>
      </trkpt>
      <trkpt lat="45.94304" lon="-0.95745">
        <ele>6.5</ele>
        <time>2022-06-21T12:35:59Z</time>
      </trkpt>
      <trkpt lat="45.94303" lon="-0.95744">
        <ele>6.5</ele>
        <time>2022-06-21T12:36:00Z</time>
      </trkpt>
      <trkpt lat="45.94303" lon="-0.95743">
        <ele>6.5</ele>
        <time>2022-06-21T12:36:02Z</time>
      </trkpt>
      <trkpt lat="45.94302" lon="-0.95742">
        <ele>6.5</ele>
        <time>2022-06-21T12:36:03Z</time>
      </trkpt>
      <trkpt lat="45.94301" lon="-0.95741">
        <ele>6.5</ele>
        <time>2022-06-21T12:36:04Z</time>
      </trkpt>
      <trkpt lat="45.943" lon="-0.9574">
        <ele>6.5</ele>
        <time>2022-06-21T12:36:05Z</time>
      </trkpt>
      <trkpt lat="45.94299" lon="-0.95738">
        <ele>6.6</ele>
        <time>2022-06-21T12:36:07Z</time>
      </trkpt>
      <trkpt lat="45.94299" lon="-0.95736">
        <ele>6.6</ele>
        <time>2022-06-21T12:36:08Z</time>
      </trkpt>
      <trkpt lat="45.94298" lon="-0.95735">
        <ele>6.6</ele>
        <time>2022-06-21T12:36:09Z</time>
      </trkpt>
      <trkpt lat="45.94298" lon="-0.95734">
        <ele>6.6</ele>
        <time>2022-06-21T12:36:10Z</time>
      </trkpt>
      <trkpt lat="45.94297" lon="-0.95733">
        <ele>6.6</ele>
        <time>2022-06-21T12:36:11Z</time>
      </trkpt>
      <trkpt lat="45.94295" lon="-0.9573">
        <ele>6.6</ele>
        <time>2022-06-21T12:36:12Z</time>
      </trkpt>
      <trkpt lat="45.94294" lon="-0.95729">
        <ele>6.6</ele>
        <time>2022-06-21T12:36:13Z</time>
      </trkpt>
      <trkpt lat="45.94293" lon="-0.95728">
        <ele>6.6</ele>
        <time>2022-06-21T12:36:14Z</time>
      </trkpt>
      <trkpt lat="45.94291" lon="-0.95726">
        <ele>6.6</ele>
        <time>2022-06-21T12:36:15Z</time>
      </trkpt>
      <trkpt lat="45.9429" lon="-0.95725">
        <ele>6.7</ele>
        <time>2022-06-21T12:36:17Z</time>
      </trkpt>
      <trkpt lat="45.94289" lon="-0.95724">
        <ele>6.7</ele>
        <time>2022-06-21T12:36:18Z</time>
      </trkpt>
      <trkpt lat="45.94288" lon="-0.95722">
        <ele>6.7</ele>
        <time>2022-06-21T12:36:19Z</time>
      </trkpt>
      <trkpt lat="45.94287" lon="-0.95721">
        <ele>6.7</ele>
        <time>2022-06-21T12:36:20Z</time>
      </trkpt>
      <trkpt lat="45.94285" lon="-0.9572">
        <ele>6.7</ele>
        <time>2022-06-21T12:36:21Z</time>
      </trkpt>
      <trkpt lat="45.94285" lon="-0.95719">
        <ele>6.7</ele>
        <time>2022-06-21T12:36:23Z</time>
      </trkpt>
      <trkpt lat="45.94285" lon="-0.9572">
        <ele>6.7</ele>
        <time>2022-06-21T12:36:24Z</time>
      </trkpt>
      <trkpt lat="45.94285" lon="-0.9572">
        <ele>6.7</ele>
        <time>2022-06-21T12:36:25Z</time>
      </trkpt>
      <trkpt lat="45.94284" lon="-0.9572">
        <ele>6.7</ele>
        <time>2022-06-21T12:36:26Z</time>
      </trkpt>
      <trkpt lat="45.94284" lon="-0.95719">
        <ele>6.7</ele>
        <time>2022-06-21T12:36:27Z</time>
      </trkpt>
      <trkpt lat="45.94282" lon="-0.95718">
        <ele>6.8</ele>
        <time>2022-06-21T12:36:28Z</time>
      </trkpt>
      <trkpt lat="45.94281" lon="-0.95718">
        <ele>6.8</ele>
        <time>2022-06-21T12:36:29Z</time>
      </trkpt>
      <trkpt lat="45.9428" lon="-0.95716">
        <ele>6.8</ele>
        <time>2022-06-21T12:36:31Z</time>
      </trkpt>
      <trkpt lat="45.94277" lon="-0.95716">
        <ele>6.8</ele>
        <time>2022-06-21T12:36:32Z</time>
      </trkpt>
      <trkpt lat="45.94276" lon="-0.95715">
        <ele>6.8</ele>
        <time>2022-06-21T12:36:33Z</time>
      </trkpt>
      <trkpt lat="45.94274" lon="-0.95715">
        <ele>6.8</ele>
        <time>2022-06-21T12:36:34Z</time>
      </trkpt>
      <trkpt lat="45.94273" lon="-0.95715">
        <ele>6.8</ele>
        <time>2022-06-21T12:36:35Z</time>
      </trkpt>
      <trkpt lat="45.94272" lon="-0.95714">
        <ele>6.8</ele>
        <time>2022-06-21T12:36:36Z</time>
      </trkpt>
      <trkpt lat="45.94271" lon="-0.95714">
        <ele>6.9</ele>
        <time>2022-06-21T12:36:38Z</time>
      </trkpt>
      <trkpt lat="45.9427" lon="-0.95714">
        <ele>6.9</ele>
        <time>2022-06-21T12:36:39Z</time>
      </trkpt>
      <trkpt lat="45.94268" lon="-0.95712">
        <ele>6.9</ele>
        <time>2022-06-21T12:36:40Z</time>
      </trkpt>
      <trkpt lat="45.94267" lon="-0.95712">
        <ele>6.9</ele>
        <time>2022-06-21T12:36:41Z</time>
      </trkpt>
      <trkpt lat="45.94266" lon="-0.95711">
        <ele>6.9</ele>
        <time>2022-06-21T12:36:42Z</time>
      </trkpt>
      <trkpt lat="45.94266" lon="-0.95711">
        <ele>6.9</ele>
        <time>2022-06-21T12:36:43Z</time>
      </trkpt>
      <trkpt lat="45.94265" lon="-0.9571">
        <ele>6.9</ele>
        <time>2022-06-21T12:36:45Z</time>
      </trkpt>
      <trkpt lat="45.94264" lon="-0.95709">
        <ele>6.9</ele>
        <time>2022-06-21T12:36:46Z</time>
      </trkpt>
      <trkpt lat="45.94264" lon="-0.95708">
        <ele>6.9</ele>
        <time>2022-06-21T12:36:47Z</time>
      </trkpt>
      <trkpt lat="45.94264" lon="-0.95707">
        <ele>6.9</ele>
        <time>2022-06-21T12:36:48Z</time>
      </trkpt>
      <trkpt lat="45.94265" lon="-0.95703">
        <ele>7</ele>
        <time>2022-06-21T12:36:50Z</time>
      </trkpt>
      <trkpt lat="45.94267" lon="-0.957">
        <ele>7</ele>
        <time>2022-06-21T12:36:51Z</time>
      </trkpt>
      <trkpt lat="45.94269" lon="-0.957">
        <ele>7</ele>
        <time>2022-06-21T12:36:53Z</time>
      </trkpt>
      <trkpt lat="45.9427" lon="-0.957">
        <ele>7</ele>
        <time>2022-06-21T12:36:54Z</time>
      </trkpt>
      <trkpt lat="45.94271" lon="-0.95699">
        <ele>7</ele>
        <time>2022-06-21T12:36:55Z</time>
      </trkpt>
      <trkpt lat="45.94272" lon="-0.95701">
        <ele>7</ele>
        <time>2022-06-21T12:36:56Z</time>
      </trkpt>
      <trkpt lat="45.94272" lon="-0.95702">
        <ele>7</ele>
        <time>2022-06-21T12:36:57Z</time>
      </trkpt>
      <trkpt lat="45.94272" lon="-0.95702">
        <ele>7</ele>
        <time>2022-06-21T12:36:58Z</time>
      </trkpt>
      <trkpt lat="45.94272" lon="-0.95703">
        <ele>7</ele>
        <time>2022-06-21T12:36:59Z</time>
      </trkpt>
      <trkpt lat="45.94272" lon="-0.95703">
        <ele>7</ele>
        <time>2022-06-21T12:37:00Z</time>
      </trkpt>
      <trkpt lat="45.94272" lon="-0.95703">
        <ele>7</ele>
        <time>2022-06-21T12:37:01Z</time>
      </trkpt>
      <trkpt lat="45.94272" lon="-0.95703">
        <ele>7</ele>
        <time>2022-06-21T12:37:02Z</time>
      </trkpt>
      <trkpt lat="45.94272" lon="-0.95703">
        <ele>7</ele>
        <time>2022-06-21T12:37:03Z</time>
      </trkpt>
      <trkpt lat="45.94272" lon="-0.95703">
        <ele>7</ele>
        <time>2022-06-21T12:37:04Z</time>
      </trkpt>
      <trkpt lat="45.94273" lon="-0.95703">
        <ele>7</ele>
        <time>2022-06-21T12:37:05Z</time>
      </trkpt>
      <trkpt lat="45.94273" lon="-0.95703">
        <ele>7</ele>
        <time>2022-06-21T12:37:07Z</time>
      </trkpt>
      <trkpt lat="45.94272" lon="-0.95704">
        <ele>7</ele>
        <time>2022-06-21T12:37:08Z</time>
      </trkpt>
      <trkpt lat="45.94272" lon="-0.95704">
        <ele>7</ele>
        <time>2022-06-21T12:37:09Z</time>
      </trkpt>
      <trkpt lat="45.94272" lon="-0.95705">
        <ele>7</ele>
        <time>2022-06-21T12:37:10Z</time>
      </trkpt>
      <trkpt lat="45.94272" lon="-0.95705">
        <ele>7</ele>
        <time>2022-06-21T12:37:11Z</time>
      </trkpt>
      <trkpt lat="45.94272" lon="-0.95705">
        <ele>7</ele>
        <time>2022-06-21T12:37:12Z</time>
      </trkpt>
      <trkpt lat="45.94272" lon="-0.95705">
        <ele>7</ele>
        <time>2022-06-21T12:37:13Z</time>
      </trkpt>
      <trkpt lat="45.94272" lon="-0.95705">
        <ele>7</ele>
        <time>2022-06-21T12:37:14Z</time>
      </trkpt>
      <trkpt lat="45.94272" lon="-0.95705">
        <ele>7</ele>
        <time>2022-06-21T12:37:15Z</time>
      </trkpt>
      <trkpt lat="45.94272" lon="-0.95705">
        <ele>7</ele>
        <time>2022-06-21T12:37:16Z</time>
      </trkpt>
      <trkpt lat="45.94272" lon="-0.95705">
        <ele>7</ele>
        <time>2022-06-21T12:37:17Z</time>
      </trkpt>
      <trkpt lat="45.94271" lon="-0.95707">
        <ele>7</ele>
        <time>2022-06-21T12:37:18Z</time>
      </trkpt>
      <trkpt lat="45.9427" lon="-0.9571">
        <ele>7</ele>
        <time>2022-06-21T12:37:19Z</time>
      </trkpt>
      <trkpt lat="45.9427" lon="-0.95711">
        <ele>7</ele>
        <time>2022-06-21T12:37:20Z</time>
      </trkpt>
      <trkpt lat="45.9427" lon="-0.95708">
        <ele>7</ele>
        <time>2022-06-21T12:37:21Z</time>
      </trkpt>
      <trkpt lat="45.9427" lon="-0.95706">
        <ele>7.1</ele>
        <time>2022-06-21T12:37:22Z</time>
      </trkpt>
      <trkpt lat="45.94269" lon="-0.95706">
        <ele>7.1</ele>
        <time>2022-06-21T12:37:23Z</time>
      </trkpt>
      <trkpt lat="45.94268" lon="-0.95707">
        <ele>7.1</ele>
        <time>2022-06-21T12:37:25Z</time>
      </trkpt>
      <trkpt lat="45.94267" lon="-0.95708">
        <ele>7.1</ele>
        <time>2022-06-21T12:37:26Z</time>
      </trkpt>
      <trkpt lat="45.94267" lon="-0.9571">
        <ele>7.1</ele>
        <time>2022-06-21T12:37:27Z</time>
      </trkpt>
      <trkpt lat="45.94266" lon="-0.95711">
        <ele>7.1</ele>
        <time>2022-06-21T12:37:28Z</time>
      </trkpt>
      <trkpt lat="45.94265" lon="-0.95712">
        <ele>7.1</ele>
        <time>2022-06-21T12:37:30Z</time>
      </trkpt>
      <trkpt lat="45.94265" lon="-0.95713">
        <ele>7.1</ele>
        <time>2022-06-21T12:37:31Z</time>
      </trkpt>
      <trkpt lat="45.94265" lon="-0.95714">
        <ele>7.1</ele>
        <time>2022-06-21T12:37:32Z</time>
      </trkpt>
      <trkpt lat="45.94264" lon="-0.95714">
        <ele>7.1</ele>
        <time>2022-06-21T12:37:34Z</time>
      </trkpt>
      <trkpt lat="45.94265" lon="-0.95714">
        <ele>7.1</ele>
        <time>2022-06-21T12:37:35Z</time>
      </trkpt>
      <trkpt lat="45.94265" lon="-0.95715">
        <ele>7.1</ele>
        <time>2022-06-21T12:37:36Z</time>
      </trkpt>
      <trkpt lat="45.94266" lon="-0.95715">
        <ele>7.1</ele>
        <time>2022-06-21T12:37:37Z</time>
      </trkpt>
      <trkpt lat="45.94266" lon="-0.95715">
        <ele>7.1</ele>
        <time>2022-06-21T12:37:38Z</time>
      </trkpt>
      <trkpt lat="45.94267" lon="-0.95714">
        <ele>7.1</ele>
        <time>2022-06-21T12:37:39Z</time>
      </trkpt>
      <trkpt lat="45.94268" lon="-0.95713">
        <ele>7.1</ele>
        <time>2022-06-21T12:37:40Z</time>
      </trkpt>
      <trkpt lat="45.94268" lon="-0.95713">
        <ele>7.1</ele>
        <time>2022-06-21T12:37:41Z</time>
      </trkpt>
      <trkpt lat="45.94268" lon="-0.95712">
        <ele>7.1</ele>
        <time>2022-06-21T12:37:42Z</time>
      </trkpt>
      <trkpt lat="45.94268" lon="-0.95712">
        <ele>7.1</ele>
        <time>2022-06-21T12:37:43Z</time>
      </trkpt>
      <trkpt lat="45.94268" lon="-0.95712">
        <ele>7.1</ele>
        <time>2022-06-21T12:37:44Z</time>
      </trkpt>
      <trkpt lat="45.94269" lon="-0.95711">
        <ele>7.1</ele>
        <time>2022-06-21T12:37:45Z</time>
      </trkpt>
      <trkpt lat="45.94269" lon="-0.95711">
        <ele>7.1</ele>
        <time>2022-06-21T12:37:46Z</time>
      </trkpt>
      <trkpt lat="45.94269" lon="-0.95711">
        <ele>7.1</ele>
        <time>2022-06-21T12:37:47Z</time>
      </trkpt>
      <trkpt lat="45.94269" lon="-0.95711">
        <ele>7.1</ele>
        <time>2022-06-21T12:37:48Z</time>
      </trkpt>
      <trkpt lat="45.94269" lon="-0.95711">
        <ele>7.1</ele>
        <time>2022-06-21T12:37:49Z</time>
      </trkpt>
      <trkpt lat="45.94269" lon="-0.95711">
        <ele>7.1</ele>
        <time>2022-06-21T12:37:50Z</time>
      </trkpt>
      <trkpt lat="45.94269" lon="-0.9571">
        <ele>7.1</ele>
        <time>2022-06-21T12:37:51Z</time>
      </trkpt>
      <trkpt lat="45.94269" lon="-0.9571">
        <ele>7.1</ele>
        <time>2022-06-21T12:37:52Z</time>
      </trkpt>
      <trkpt lat="45.94269" lon="-0.9571">
        <ele>7.1</ele>
        <time>2022-06-21T12:37:53Z</time>
      </trkpt>
      <trkpt lat="45.94269" lon="-0.9571">
        <ele>7.1</ele>
        <time>2022-06-21T12:37:54Z</time>
      </trkpt>
      <trkpt lat="45.94269" lon="-0.9571">
        <ele>7.1</ele>
        <time>2022-06-21T12:37:55Z</time>
      </trkpt>
      <trkpt lat="45.94269" lon="-0.95709">
        <ele>7.1</ele>
        <time>2022-06-21T12:37:56Z</time>
      </trkpt>
      <trkpt lat="45.94269" lon="-0.95709">
        <ele>7.1</ele>
        <time>2022-06-21T12:37:57Z</time>
      </trkpt>
      <trkpt lat="45.94269" lon="-0.95709">
        <ele>7.1</ele>
        <time>2022-06-21T12:37:58Z</time>
      </trkpt>
      <trkpt lat="45.94269" lon="-0.95709">
        <ele>7.1</ele>
        <time>2022-06-21T12:37:59Z</time>
      </trkpt>
      <trkpt lat="45.94269" lon="-0.95709">
        <ele>7.1</ele>
        <time>2022-06-21T12:38:00Z</time>
      </trkpt>
      <trkpt lat="45.94269" lon="-0.95709">
        <ele>7.1</ele>
        <time>2022-06-21T12:38:01Z</time>
      </trkpt>
      <trkpt lat="45.94269" lon="-0.95709">
        <ele>7.1</ele>
        <time>2022-06-21T12:38:02Z</time>
      </trkpt>
      <trkpt lat="45.94269" lon="-0.95709">
        <ele>7.1</ele>
        <time>2022-06-21T12:38:03Z</time>
      </trkpt>
      <trkpt lat="45.94269" lon="-0.95709">
        <ele>7.1</ele>
        <time>2022-06-21T12:38:04Z</time>
      </trkpt>
      <trkpt lat="45.94269" lon="-0.95709">
        <ele>7.1</ele>
        <time>2022-06-21T12:38:05Z</time>
      </trkpt>
      <trkpt lat="45.94269" lon="-0.95709">
        <ele>7.1</ele>
        <time>2022-06-21T12:38:06Z</time>
      </trkpt>
      <trkpt lat="45.94269" lon="-0.95709">
        <ele>7.1</ele>
        <time>2022-06-21T12:38:07Z</time>
      </trkpt>
      <trkpt lat="45.94269" lon="-0.95709">
        <ele>7.1</ele>
        <time>2022-06-21T12:38:08Z</time>
      </trkpt>
      <trkpt lat="45.94269" lon="-0.95709">
        <ele>7.1</ele>
        <time>2022-06-21T12:38:09Z</time>
      </trkpt>
      <trkpt lat="45.94269" lon="-0.95709">
        <ele>7.1</ele>
        <time>2022-06-21T12:38:10Z</time>
      </trkpt>
      <trkpt lat="45.94269" lon="-0.95709">
        <ele>7.1</ele>
        <time>2022-06-21T12:38:11Z</time>
      </trkpt>
      <trkpt lat="45.94269" lon="-0.95709">
        <ele>7.1</ele>
        <time>2022-06-21T12:38:12Z</time>
      </trkpt>
      <trkpt lat="45.94269" lon="-0.95709">
        <ele>7.1</ele>
        <time>2022-06-21T12:38:13Z</time>
      </trkpt>
      <trkpt lat="45.94269" lon="-0.95709">
        <ele>7.1</ele>
        <time>2022-06-21T12:38:14Z</time>
      </trkpt>
      <trkpt lat="45.94268" lon="-0.9571">
        <ele>7.1</ele>
        <time>2022-06-21T12:38:16Z</time>
      </trkpt>
      <trkpt lat="45.94267" lon="-0.95711">
        <ele>7.1</ele>
        <time>2022-06-21T12:38:17Z</time>
      </trkpt>
      <trkpt lat="45.94266" lon="-0.95711">
        <ele>7.1</ele>
        <time>2022-06-21T12:38:18Z</time>
      </trkpt>
      <trkpt lat="45.94266" lon="-0.95711">
        <ele>7.1</ele>
        <time>2022-06-21T12:38:19Z</time>
      </trkpt>
      <trkpt lat="45.94266" lon="-0.95711">
        <ele>7.1</ele>
        <time>2022-06-21T12:38:20Z</time>
      </trkpt>
      <trkpt lat="45.94266" lon="-0.95711">
        <ele>7.1</ele>
        <time>2022-06-21T12:38:21Z</time>
      </trkpt>
      <trkpt lat="45.94265" lon="-0.95711">
        <ele>7.1</ele>
        <time>2022-06-21T12:38:22Z</time>
      </trkpt>
      <trkpt lat="45.94265" lon="-0.95711">
        <ele>7.1</ele>
        <time>2022-06-21T12:38:23Z</time>
      </trkpt>
      <trkpt lat="45.94265" lon="-0.95711">
        <ele>7.1</ele>
        <time>2022-06-21T12:38:24Z</time>
      </trkpt>
      <trkpt lat="45.94265" lon="-0.95711">
        <ele>7.1</ele>
        <time>2022-06-21T12:38:25Z</time>
      </trkpt>
      <trkpt lat="45.94265" lon="-0.95711">
        <ele>7.1</ele>
        <time>2022-06-21T12:38:26Z</time>
      </trkpt>
      <trkpt lat="45.94265" lon="-0.95711">
        <ele>7.1</ele>
        <time>2022-06-21T12:38:27Z</time>
      </trkpt>
      <trkpt lat="45.94265" lon="-0.95711">
        <ele>7.1</ele>
        <time>2022-06-21T12:38:28Z</time>
      </trkpt>
      <trkpt lat="45.94265" lon="-0.95711">
        <ele>7.1</ele>
        <time>2022-06-21T12:38:29Z</time>
      </trkpt>
      <trkpt lat="45.94265" lon="-0.95711">
        <ele>7.1</ele>
        <time>2022-06-21T12:38:30Z</time>
      </trkpt>
      <trkpt lat="45.94265" lon="-0.95711">
        <ele>7.1</ele>
        <time>2022-06-21T12:38:31Z</time>
      </trkpt>
      <trkpt lat="45.94265" lon="-0.95711">
        <ele>7.1</ele>
        <time>2022-06-21T12:38:32Z</time>
      </trkpt>
      <trkpt lat="45.94265" lon="-0.95711">
        <ele>7.1</ele>
        <time>2022-06-21T12:38:33Z</time>
      </trkpt>
      <trkpt lat="45.94265" lon="-0.95711">
        <ele>7.1</ele>
        <time>2022-06-21T12:38:34Z</time>
      </trkpt>
      <trkpt lat="45.94265" lon="-0.95711">
        <ele>7.1</ele>
        <time>2022-06-21T12:38:35Z</time>
      </trkpt>
      <trkpt lat="45.94265" lon="-0.95711">
        <ele>7.1</ele>
        <time>2022-06-21T12:38:36Z</time>
      </trkpt>
      <trkpt lat="45.94265" lon="-0.95711">
        <ele>7.1</ele>
        <time>2022-06-21T12:38:37Z</time>
      </trkpt>
      <trkpt lat="45.94265" lon="-0.95711">
        <ele>7.1</ele>
        <time>2022-06-21T12:38:38Z</time>
      </trkpt>
      <trkpt lat="45.94265" lon="-0.95711">
        <ele>7.1</ele>
        <time>2022-06-21T12:38:39Z</time>
      </trkpt>
      <trkpt lat="45.94265" lon="-0.95711">
        <ele>7.1</ele>
        <time>2022-06-21T12:38:40Z</time>
      </trkpt>
      <trkpt lat="45.94265" lon="-0.95711">
        <ele>7.1</ele>
        <time>2022-06-21T12:38:41Z</time>
      </trkpt>
      <trkpt lat="45.94265" lon="-0.95711">
        <ele>7.1</ele>
        <time>2022-06-21T12:38:42Z</time>
      </trkpt>
      <trkpt lat="45.94265" lon="-0.95711">
        <ele>7.1</ele>
        <time>2022-06-21T12:38:43Z</time>
      </trkpt>
      <trkpt lat="45.94265" lon="-0.95711">
        <ele>7.1</ele>
        <time>2022-06-21T12:38:44Z</time>
      </trkpt>
      <trkpt lat="45.94265" lon="-0.95711">
        <ele>7.1</ele>
        <time>2022-06-21T12:38:45Z</time>
      </trkpt>
      <trkpt lat="45.94265" lon="-0.95711">
        <ele>7</ele>
        <time>2022-06-21T12:38:46Z</time>
      </trkpt>
      <trkpt lat="45.94265" lon="-0.95711">
        <ele>7</ele>
        <time>2022-06-21T12:38:47Z</time>
      </trkpt>
      <trkpt lat="45.94265" lon="-0.95711">
        <ele>7</ele>
        <time>2022-06-21T12:38:48Z</time>
      </trkpt>
      <trkpt lat="45.94265" lon="-0.95711">
        <ele>7</ele>
        <time>2022-06-21T12:38:49Z</time>
      </trkpt>
      <trkpt lat="45.94265" lon="-0.95711">
        <ele>7</ele>
        <time>2022-06-21T12:38:50Z</time>
      </trkpt>
      <trkpt lat="45.94265" lon="-0.95711">
        <ele>7</ele>
        <time>2022-06-21T12:38:51Z</time>
      </trkpt>
      <trkpt lat="45.94265" lon="-0.95711">
        <ele>7</ele>
        <time>2022-06-21T12:38:52Z</time>
      </trkpt>
      <trkpt lat="45.94265" lon="-0.95711">
        <ele>7</ele>
        <time>2022-06-21T12:38:53Z</time>
      </trkpt>
      <trkpt lat="45.94265" lon="-0.95711">
        <ele>7</ele>
        <time>2022-06-21T12:38:54Z</time>
      </trkpt>
      <trkpt lat="45.94265" lon="-0.95711">
        <ele>7</ele>
        <time>2022-06-21T12:38:55Z</time>
      </trkpt>
      <trkpt lat="45.94265" lon="-0.95711">
        <ele>7</ele>
        <time>2022-06-21T12:38:56Z</time>
      </trkpt>
      <trkpt lat="45.94265" lon="-0.95711">
        <ele>7</ele>
        <time>2022-06-21T12:38:57Z</time>
      </trkpt>
      <trkpt lat="45.94265" lon="-0.95711">
        <ele>7</ele>
        <time>2022-06-21T12:38:58Z</time>
      </trkpt>
      <trkpt lat="45.94265" lon="-0.95711">
        <ele>7</ele>
        <time>2022-06-21T12:38:59Z</time>
      </trkpt>
      <trkpt lat="45.94265" lon="-0.95711">
        <ele>7</ele>
        <time>2022-06-21T12:39:00Z</time>
      </trkpt>
      <trkpt lat="45.94265" lon="-0.95711">
        <ele>7</ele>
        <time>2022-06-21T12:39:01Z</time>
      </trkpt>
      <trkpt lat="45.94265" lon="-0.95711">
        <ele>7</ele>
        <time>2022-06-21T12:39:02Z</time>
      </trkpt>
      <trkpt lat="45.94265" lon="-0.95711">
        <ele>7</ele>
        <time>2022-06-21T12:39:03Z</time>
      </trkpt>
      <trkpt lat="45.94265" lon="-0.95711">
        <ele>7</ele>
        <time>2022-06-21T12:39:04Z</time>
      </trkpt>
      <trkpt lat="45.94265" lon="-0.95711">
        <ele>7</ele>
        <time>2022-06-21T12:39:05Z</time>
      </trkpt>
      <trkpt lat="45.94265" lon="-0.95711">
        <ele>7</ele>
        <time>2022-06-21T12:39:06Z</time>
      </trkpt>
      <trkpt lat="45.94265" lon="-0.95711">
        <ele>7</ele>
        <time>2022-06-21T12:39:07Z</time>
      </trkpt>
      <trkpt lat="45.94265" lon="-0.95711">
        <ele>7</ele>
        <time>2022-06-21T12:39:08Z</time>
      </trkpt>
      <trkpt lat="45.94265" lon="-0.95711">
        <ele>7</ele>
        <time>2022-06-21T12:39:09Z</time>
      </trkpt>
      <trkpt lat="45.94265" lon="-0.95711">
        <ele>7</ele>
        <time>2022-06-21T12:39:10Z</time>
      </trkpt>
      <trkpt lat="45.94265" lon="-0.95711">
        <ele>7</ele>
        <time>2022-06-21T12:39:11Z</time>
      </trkpt>
      <trkpt lat="45.94265" lon="-0.95711">
        <ele>7</ele>
        <time>2022-06-21T12:39:12Z</time>
      </trkpt>
      <trkpt lat="45.94265" lon="-0.9571">
        <ele>7</ele>
        <time>2022-06-21T12:39:13Z</time>
      </trkpt>
      <trkpt lat="45.94265" lon="-0.9571">
        <ele>7</ele>
        <time>2022-06-21T12:39:14Z</time>
      </trkpt>
      <trkpt lat="45.94265" lon="-0.9571">
        <ele>7</ele>
        <time>2022-06-21T12:39:15Z</time>
      </trkpt>
      <trkpt lat="45.94265" lon="-0.9571">
        <ele>7</ele>
        <time>2022-06-21T12:39:16Z</time>
      </trkpt>
      <trkpt lat="45.94265" lon="-0.9571">
        <ele>7</ele>
        <time>2022-06-21T12:39:17Z</time>
      </trkpt>
      <trkpt lat="45.94265" lon="-0.9571">
        <ele>7</ele>
        <time>2022-06-21T12:39:18Z</time>
      </trkpt>
      <trkpt lat="45.94265" lon="-0.9571">
        <ele>7</ele>
        <time>2022-06-21T12:39:19Z</time>
      </trkpt>
      <trkpt lat="45.94265" lon="-0.9571">
        <ele>7</ele>
        <time>2022-06-21T12:39:20Z</time>
      </trkpt>
      <trkpt lat="45.94265" lon="-0.9571">
        <ele>7</ele>
        <time>2022-06-21T12:39:21Z</time>
      </trkpt>
      <trkpt lat="45.94265" lon="-0.9571">
        <ele>7</ele>
        <time>2022-06-21T12:39:22Z</time>
      </trkpt>
      <trkpt lat="45.94265" lon="-0.9571">
        <ele>7</ele>
        <time>2022-06-21T12:39:23Z</time>
      </trkpt>
      <trkpt lat="45.94265" lon="-0.9571">
        <ele>7</ele>
        <time>2022-06-21T12:39:24Z</time>
      </trkpt>
      <trkpt lat="45.94265" lon="-0.9571">
        <ele>7</ele>
        <time>2022-06-21T12:39:25Z</time>
      </trkpt>
      <trkpt lat="45.94265" lon="-0.9571">
        <ele>7</ele>
        <time>2022-06-21T12:39:26Z</time>
      </trkpt>
      <trkpt lat="45.94265" lon="-0.9571">
        <ele>7</ele>
        <time>2022-06-21T12:39:27Z</time>
      </trkpt>
      <trkpt lat="45.94265" lon="-0.9571">
        <ele>7</ele>
        <time>2022-06-21T12:39:28Z</time>
      </trkpt>
      <trkpt lat="45.94265" lon="-0.9571">
        <ele>7</ele>
        <time>2022-06-21T12:39:29Z</time>
      </trkpt>
      <trkpt lat="45.94265" lon="-0.9571">
        <ele>7</ele>
        <time>2022-06-21T12:39:30Z</time>
      </trkpt>
      <trkpt lat="45.94265" lon="-0.9571">
        <ele>7</ele>
        <time>2022-06-21T12:39:31Z</time>
      </trkpt>
      <trkpt lat="45.94265" lon="-0.9571">
        <ele>7</ele>
        <time>2022-06-21T12:39:32Z</time>
      </trkpt>
      <trkpt lat="45.94265" lon="-0.9571">
        <ele>7</ele>
        <time>2022-06-21T12:39:33Z</time>
      </trkpt>
      <trkpt lat="45.94265" lon="-0.9571">
        <ele>7</ele>
        <time>2022-06-21T12:39:34Z</time>
      </trkpt>
      <trkpt lat="45.94265" lon="-0.9571">
        <ele>7</ele>
        <time>2022-06-21T12:39:35Z</time>
      </trkpt>
      <trkpt lat="45.94265" lon="-0.9571">
        <ele>7</ele>
        <time>2022-06-21T12:39:36Z</time>
      </trkpt>
      <trkpt lat="45.94265" lon="-0.9571">
        <ele>7</ele>
        <time>2022-06-21T12:39:37Z</time>
      </trkpt>
      <trkpt lat="45.94265" lon="-0.9571">
        <ele>7</ele>
        <time>2022-06-21T12:39:38Z</time>
      </trkpt>
      <trkpt lat="45.94265" lon="-0.9571">
        <ele>7</ele>
        <time>2022-06-21T12:39:39Z</time>
      </trkpt>
      <trkpt lat="45.94265" lon="-0.9571">
        <ele>7</ele>
        <time>2022-06-21T12:39:41Z</time>
      </trkpt>
      <trkpt lat="45.94265" lon="-0.9571">
        <ele>7</ele>
        <time>2022-06-21T12:39:42Z</time>
      </trkpt>
      <trkpt lat="45.94265" lon="-0.9571">
        <ele>7</ele>
        <time>2022-06-21T12:39:43Z</time>
      </trkpt>
      <trkpt lat="45.94265" lon="-0.9571">
        <ele>7</ele>
        <time>2022-06-21T12:39:44Z</time>
      </trkpt>
      <trkpt lat="45.94265" lon="-0.9571">
        <ele>7</ele>
        <time>2022-06-21T12:39:45Z</time>
      </trkpt>
      <trkpt lat="45.94265" lon="-0.9571">
        <ele>7</ele>
        <time>2022-06-21T12:39:46Z</time>
      </trkpt>
      <trkpt lat="45.94265" lon="-0.9571">
        <ele>7</ele>
        <time>2022-06-21T12:39:47Z</time>
      </trkpt>
      <trkpt lat="45.94265" lon="-0.9571">
        <ele>7</ele>
        <time>2022-06-21T12:39:48Z</time>
      </trkpt>
      <trkpt lat="45.94265" lon="-0.9571">
        <ele>7</ele>
        <time>2022-06-21T12:39:49Z</time>
      </trkpt>
      <trkpt lat="45.94265" lon="-0.9571">
        <ele>7</ele>
        <time>2022-06-21T12:39:50Z</time>
      </trkpt>
      <trkpt lat="45.94265" lon="-0.9571">
        <ele>7</ele>
        <time>2022-06-21T12:39:51Z</time>
      </trkpt>
      <trkpt lat="45.94265" lon="-0.9571">
        <ele>7</ele>
        <time>2022-06-21T12:39:52Z</time>
      </trkpt>
      <trkpt lat="45.94265" lon="-0.9571">
        <ele>7</ele>
        <time>2022-06-21T12:39:53Z</time>
      </trkpt>
      <trkpt lat="45.94265" lon="-0.9571">
        <ele>7</ele>
        <time>2022-06-21T12:39:54Z</time>
      </trkpt>
      <trkpt lat="45.94265" lon="-0.9571">
        <ele>7</ele>
        <time>2022-06-21T12:39:55Z</time>
      </trkpt>
      <trkpt lat="45.94265" lon="-0.9571">
        <ele>7</ele>
        <time>2022-06-21T12:39:56Z</time>
      </trkpt>
      <trkpt lat="45.94265" lon="-0.9571">
        <ele>7</ele>
        <time>2022-06-21T12:39:57Z</time>
      </trkpt>
      <trkpt lat="45.94265" lon="-0.9571">
        <ele>7</ele>
        <time>2022-06-21T12:39:58Z</time>
      </trkpt>
      <trkpt lat="45.94265" lon="-0.9571">
        <ele>7</ele>
        <time>2022-06-21T12:39:59Z</time>
      </trkpt>
      <trkpt lat="45.94265" lon="-0.9571">
        <ele>7</ele>
        <time>2022-06-21T12:40:00Z</time>
      </trkpt>
      <trkpt lat="45.94265" lon="-0.9571">
        <ele>7</ele>
        <time>2022-06-21T12:40:01Z</time>
      </trkpt>
      <trkpt lat="45.94265" lon="-0.9571">
        <ele>7</ele>
        <time>2022-06-21T12:40:02Z</time>
      </trkpt>
      <trkpt lat="45.94265" lon="-0.9571">
        <ele>7</ele>
        <time>2022-06-21T12:40:03Z</time>
      </trkpt>
      <trkpt lat="45.94265" lon="-0.9571">
        <ele>7</ele>
        <time>2022-06-21T12:40:04Z</time>
      </trkpt>
      <trkpt lat="45.94265" lon="-0.9571">
        <ele>7</ele>
        <time>2022-06-21T12:40:05Z</time>
      </trkpt>
      <trkpt lat="45.94265" lon="-0.9571">
        <ele>7</ele>
        <time>2022-06-21T12:40:06Z</time>
      </trkpt>
      <trkpt lat="45.94265" lon="-0.9571">
        <ele>7</ele>
        <time>2022-06-21T12:40:07Z</time>
      </trkpt>
      <trkpt lat="45.94265" lon="-0.9571">
        <ele>7</ele>
        <time>2022-06-21T12:40:08Z</time>
      </trkpt>
      <trkpt lat="45.94265" lon="-0.9571">
        <ele>7</ele>
        <time>2022-06-21T12:40:09Z</time>
      </trkpt>
      <trkpt lat="45.94265" lon="-0.9571">
        <ele>7</ele>
        <time>2022-06-21T12:40:10Z</time>
      </trkpt>
      <trkpt lat="45.94265" lon="-0.9571">
        <ele>7</ele>
        <time>2022-06-21T12:40:11Z</time>
      </trkpt>
      <trkpt lat="45.94265" lon="-0.9571">
        <ele>7</ele>
        <time>2022-06-21T12:40:12Z</time>
      </trkpt>
      <trkpt lat="45.94265" lon="-0.9571">
        <ele>7</ele>
        <time>2022-06-21T12:40:13Z</time>
      </trkpt>
      <trkpt lat="45.94265" lon="-0.9571">
        <ele>7</ele>
        <time>2022-06-21T12:40:14Z</time>
      </trkpt>
      <trkpt lat="45.94265" lon="-0.9571">
        <ele>7</ele>
        <time>2022-06-21T12:40:15Z</time>
      </trkpt>
      <trkpt lat="45.94265" lon="-0.9571">
        <ele>7</ele>
        <time>2022-06-21T12:40:16Z</time>
      </trkpt>
      <trkpt lat="45.94265" lon="-0.9571">
        <ele>7</ele>
        <time>2022-06-21T12:40:17Z</time>
      </trkpt>
      <trkpt lat="45.94265" lon="-0.9571">
        <ele>7</ele>
        <time>2022-06-21T12:40:18Z</time>
      </trkpt>
      <trkpt lat="45.94265" lon="-0.9571">
        <ele>7</ele>
        <time>2022-06-21T12:40:19Z</time>
      </trkpt>
      <trkpt lat="45.94265" lon="-0.9571">
        <ele>7</ele>
        <time>2022-06-21T12:40:20Z</time>
      </trkpt>
      <trkpt lat="45.94265" lon="-0.9571">
        <ele>7</ele>
        <time>2022-06-21T12:40:21Z</time>
      </trkpt>
      <trkpt lat="45.94265" lon="-0.9571">
        <ele>7</ele>
        <time>2022-06-21T12:40:22Z</time>
      </trkpt>
      <trkpt lat="45.94265" lon="-0.9571">
        <ele>7</ele>
        <time>2022-06-21T12:40:23Z</time>
      </trkpt>
      <trkpt lat="45.94265" lon="-0.9571">
        <ele>7</ele>
        <time>2022-06-21T12:40:24Z</time>
      </trkpt>
      <trkpt lat="45.94265" lon="-0.9571">
        <ele>7</ele>
        <time>2022-06-21T12:40:25Z</time>
      </trkpt>
      <trkpt lat="45.94265" lon="-0.9571">
        <ele>7</ele>
        <time>2022-06-21T12:40:26Z</time>
      </trkpt>
      <trkpt lat="45.94265" lon="-0.9571">
        <ele>7</ele>
        <time>2022-06-21T12:40:27Z</time>
      </trkpt>
      <trkpt lat="45.94265" lon="-0.9571">
        <ele>7</ele>
        <time>2022-06-21T12:40:28Z</time>
      </trkpt>
      <trkpt lat="45.94265" lon="-0.9571">
        <ele>7</ele>
        <time>2022-06-21T12:40:29Z</time>
      </trkpt>
      <trkpt lat="45.94265" lon="-0.9571">
        <ele>7</ele>
        <time>2022-06-21T12:40:30Z</time>
      </trkpt>
      <trkpt lat="45.94265" lon="-0.9571">
        <ele>7</ele>
        <time>2022-06-21T12:40:31Z</time>
      </trkpt>
      <trkpt lat="45.94265" lon="-0.9571">
        <ele>7</ele>
        <time>2022-06-21T12:40:32Z</time>
      </trkpt>
      <trkpt lat="45.94265" lon="-0.9571">
        <ele>7</ele>
        <time>2022-06-21T12:40:33Z</time>
      </trkpt>
      <trkpt lat="45.94265" lon="-0.9571">
        <ele>7</ele>
        <time>2022-06-21T12:40:34Z</time>
      </trkpt>
      <trkpt lat="45.94265" lon="-0.9571">
        <ele>7</ele>
        <time>2022-06-21T12:40:35Z</time>
      </trkpt>
      <trkpt lat="45.94265" lon="-0.9571">
        <ele>7</ele>
        <time>2022-06-21T12:40:36Z</time>
      </trkpt>
      <trkpt lat="45.94265" lon="-0.9571">
        <ele>7</ele>
        <time>2022-06-21T12:40:37Z</time>
      </trkpt>
      <trkpt lat="45.94265" lon="-0.9571">
        <ele>7</ele>
        <time>2022-06-21T12:40:38Z</time>
      </trkpt>
      <trkpt lat="45.94265" lon="-0.9571">
        <ele>7</ele>
        <time>2022-06-21T12:40:39Z</time>
      </trkpt>
      <trkpt lat="45.94265" lon="-0.9571">
        <ele>7</ele>
        <time>2022-06-21T12:40:40Z</time>
      </trkpt>
      <trkpt lat="45.94265" lon="-0.9571">
        <ele>7</ele>
        <time>2022-06-21T12:40:41Z</time>
      </trkpt>
      <trkpt lat="45.94265" lon="-0.9571">
        <ele>7</ele>
        <time>2022-06-21T12:40:42Z</time>
      </trkpt>
      <trkpt lat="45.94265" lon="-0.9571">
        <ele>7</ele>
        <time>2022-06-21T12:40:43Z</time>
      </trkpt>
      <trkpt lat="45.94265" lon="-0.9571">
        <ele>7</ele>
        <time>2022-06-21T12:40:44Z</time>
      </trkpt>
      <trkpt lat="45.94265" lon="-0.9571">
        <ele>7</ele>
        <time>2022-06-21T12:40:45Z</time>
      </trkpt>
      <trkpt lat="45.94265" lon="-0.9571">
        <ele>7</ele>
        <time>2022-06-21T12:40:46Z</time>
      </trkpt>
      <trkpt lat="45.94265" lon="-0.9571">
        <ele>7</ele>
        <time>2022-06-21T12:40:47Z</time>
      </trkpt>
      <trkpt lat="45.94265" lon="-0.9571">
        <ele>7</ele>
        <time>2022-06-21T12:40:48Z</time>
      </trkpt>
      <trkpt lat="45.94265" lon="-0.9571">
        <ele>7</ele>
        <time>2022-06-21T12:40:49Z</time>
      </trkpt>
      <trkpt lat="45.94265" lon="-0.9571">
        <ele>7</ele>
        <time>2022-06-21T12:40:50Z</time>
      </trkpt>
      <trkpt lat="45.94265" lon="-0.9571">
        <ele>7</ele>
        <time>2022-06-21T12:40:51Z</time>
      </trkpt>
      <trkpt lat="45.94265" lon="-0.9571">
        <ele>7</ele>
        <time>2022-06-21T12:40:52Z</time>
      </trkpt>
      <trkpt lat="45.94265" lon="-0.9571">
        <ele>7</ele>
        <time>2022-06-21T12:40:53Z</time>
      </trkpt>
      <trkpt lat="45.94265" lon="-0.9571">
        <ele>7</ele>
        <time>2022-06-21T12:40:54Z</time>
      </trkpt>
      <trkpt lat="45.94265" lon="-0.9571">
        <ele>7</ele>
        <time>2022-06-21T12:40:55Z</time>
      </trkpt>
      <trkpt lat="45.94265" lon="-0.9571">
        <ele>7</ele>
        <time>2022-06-21T12:40:56Z</time>
      </trkpt>
      <trkpt lat="45.94265" lon="-0.9571">
        <ele>7</ele>
        <time>2022-06-21T12:40:57Z</time>
      </trkpt>
      <trkpt lat="45.94265" lon="-0.9571">
        <ele>7</ele>
        <time>2022-06-21T12:40:58Z</time>
      </trkpt>
      <trkpt lat="45.94265" lon="-0.9571">
        <ele>7</ele>
        <time>2022-06-21T12:40:59Z</time>
      </trkpt>
      <trkpt lat="45.94265" lon="-0.9571">
        <ele>7</ele>
        <time>2022-06-21T12:41:00Z</time>
      </trkpt>
      <trkpt lat="45.94265" lon="-0.9571">
        <ele>7</ele>
        <time>2022-06-21T12:41:01Z</time>
      </trkpt>
      <trkpt lat="45.94265" lon="-0.9571">
        <ele>7</ele>
        <time>2022-06-21T12:41:02Z</time>
      </trkpt>
      <trkpt lat="45.94265" lon="-0.9571">
        <ele>7</ele>
        <time>2022-06-21T12:41:03Z</time>
      </trkpt>
      <trkpt lat="45.94265" lon="-0.9571">
        <ele>7</ele>
        <time>2022-06-21T12:41:04Z</time>
      </trkpt>
      <trkpt lat="45.94265" lon="-0.9571">
        <ele>7</ele>
        <time>2022-06-21T12:41:05Z</time>
      </trkpt>
      <trkpt lat="45.94265" lon="-0.9571">
        <ele>7</ele>
        <time>2022-06-21T12:41:06Z</time>
      </trkpt>
      <trkpt lat="45.94265" lon="-0.9571">
        <ele>7</ele>
        <time>2022-06-21T12:41:07Z</time>
      </trkpt>
      <trkpt lat="45.94265" lon="-0.9571">
        <ele>7</ele>
        <time>2022-06-21T12:41:08Z</time>
      </trkpt>
      <trkpt lat="45.94265" lon="-0.9571">
        <ele>7</ele>
        <time>2022-06-21T12:41:09Z</time>
      </trkpt>
      <trkpt lat="45.94265" lon="-0.9571">
        <ele>7</ele>
        <time>2022-06-21T12:41:10Z</time>
      </trkpt>
      <trkpt lat="45.94265" lon="-0.9571">
        <ele>7</ele>
        <time>2022-06-21T12:41:11Z</time>
      </trkpt>
      <trkpt lat="45.94265" lon="-0.9571">
        <ele>7</ele>
        <time>2022-06-21T12:41:12Z</time>
      </trkpt>
      <trkpt lat="45.94264" lon="-0.9571">
        <ele>7</ele>
        <time>2022-06-21T12:41:13Z</time>
      </trkpt>
      <trkpt lat="45.94264" lon="-0.9571">
        <ele>7</ele>
        <time>2022-06-21T12:41:14Z</time>
      </trkpt>
      <trkpt lat="45.94264" lon="-0.9571">
        <ele>7</ele>
        <time>2022-06-21T12:41:15Z</time>
      </trkpt>
      <trkpt lat="45.94264" lon="-0.9571">
        <ele>7</ele>
        <time>2022-06-21T12:41:16Z</time>
      </trkpt>
      <trkpt lat="45.94264" lon="-0.9571">
        <ele>7</ele>
        <time>2022-06-21T12:41:17Z</time>
      </trkpt>
      <trkpt lat="45.94264" lon="-0.9571">
        <ele>7</ele>
        <time>2022-06-21T12:41:18Z</time>
      </trkpt>
      <trkpt lat="45.94264" lon="-0.9571">
        <ele>7</ele>
        <time>2022-06-21T12:41:19Z</time>
      </trkpt>
      <trkpt lat="45.94264" lon="-0.9571">
        <ele>7</ele>
        <time>2022-06-21T12:41:20Z</time>
      </trkpt>
      <trkpt lat="45.94264" lon="-0.9571">
        <ele>7</ele>
        <time>2022-06-21T12:41:21Z</time>
      </trkpt>
      <trkpt lat="45.94264" lon="-0.9571">
        <ele>7</ele>
        <time>2022-06-21T12:41:22Z</time>
      </trkpt>
      <trkpt lat="45.94264" lon="-0.9571">
        <ele>7</ele>
        <time>2022-06-21T12:41:23Z</time>
      </trkpt>
      <trkpt lat="45.94264" lon="-0.9571">
        <ele>7</ele>
        <time>2022-06-21T12:41:24Z</time>
      </trkpt>
      <trkpt lat="45.94264" lon="-0.9571">
        <ele>7</ele>
        <time>2022-06-21T12:41:25Z</time>
      </trkpt>
      <trkpt lat="45.94264" lon="-0.9571">
        <ele>7</ele>
        <time>2022-06-21T12:41:26Z</time>
      </trkpt>
      <trkpt lat="45.94264" lon="-0.9571">
        <ele>7</ele>
        <time>2022-06-21T12:41:27Z</time>
      </trkpt>
      <trkpt lat="45.94264" lon="-0.9571">
        <ele>7</ele>
        <time>2022-06-21T12:41:28Z</time>
      </trkpt>
      <trkpt lat="45.94264" lon="-0.9571">
        <ele>7</ele>
        <time>2022-06-21T12:41:29Z</time>
      </trkpt>
      <trkpt lat="45.94264" lon="-0.9571">
        <ele>7</ele>
        <time>2022-06-21T12:41:30Z</time>
      </trkpt>
      <trkpt lat="45.94264" lon="-0.9571">
        <ele>7</ele>
        <time>2022-06-21T12:41:31Z</time>
      </trkpt>
      <trkpt lat="45.94264" lon="-0.9571">
        <ele>7</ele>
        <time>2022-06-21T12:41:32Z</time>
      </trkpt>
      <trkpt lat="45.94264" lon="-0.9571">
        <ele>7</ele>
        <time>2022-06-21T12:41:33Z</time>
      </trkpt>
      <trkpt lat="45.94264" lon="-0.9571">
        <ele>7</ele>
        <time>2022-06-21T12:41:34Z</time>
      </trkpt>
      <trkpt lat="45.94264" lon="-0.9571">
        <ele>7</ele>
        <time>2022-06-21T12:41:35Z</time>
      </trkpt>
      <trkpt lat="45.94264" lon="-0.9571">
        <ele>7</ele>
        <time>2022-06-21T12:41:36Z</time>
      </trkpt>
      <trkpt lat="45.94264" lon="-0.9571">
        <ele>7</ele>
        <time>2022-06-21T12:41:37Z</time>
      </trkpt>
      <trkpt lat="45.94264" lon="-0.9571">
        <ele>7</ele>
        <time>2022-06-21T12:41:38Z</time>
      </trkpt>
      <trkpt lat="45.94264" lon="-0.9571">
        <ele>7</ele>
        <time>2022-06-21T12:41:39Z</time>
      </trkpt>
      <trkpt lat="45.94264" lon="-0.9571">
        <ele>7</ele>
        <time>2022-06-21T12:41:40Z</time>
      </trkpt>
      <trkpt lat="45.94264" lon="-0.9571">
        <ele>7</ele>
        <time>2022-06-21T12:41:41Z</time>
      </trkpt>
      <trkpt lat="45.94264" lon="-0.9571">
        <ele>7</ele>
        <time>2022-06-21T12:41:42Z</time>
      </trkpt>
      <trkpt lat="45.94264" lon="-0.9571">
        <ele>7</ele>
        <time>2022-06-21T12:41:43Z</time>
      </trkpt>
      <trkpt lat="45.94264" lon="-0.9571">
        <ele>7</ele>
        <time>2022-06-21T12:41:44Z</time>
      </trkpt>
      <trkpt lat="45.94264" lon="-0.9571">
        <ele>7</ele>
        <time>2022-06-21T12:41:45Z</time>
      </trkpt>
      <trkpt lat="45.94264" lon="-0.9571">
        <ele>7</ele>
        <time>2022-06-21T12:41:46Z</time>
      </trkpt>
      <trkpt lat="45.94264" lon="-0.9571">
        <ele>7</ele>
        <time>2022-06-21T12:41:47Z</time>
      </trkpt>
      <trkpt lat="45.94264" lon="-0.9571">
        <ele>7</ele>
        <time>2022-06-21T12:41:48Z</time>
      </trkpt>
      <trkpt lat="45.94264" lon="-0.9571">
        <ele>7</ele>
        <time>2022-06-21T12:41:49Z</time>
      </trkpt>
      <trkpt lat="45.94264" lon="-0.9571">
        <ele>7</ele>
        <time>2022-06-21T12:41:50Z</time>
      </trkpt>
      <trkpt lat="45.94264" lon="-0.9571">
        <ele>7</ele>
        <time>2022-06-21T12:41:51Z</time>
      </trkpt>
      <trkpt lat="45.94264" lon="-0.9571">
        <ele>7</ele>
        <time>2022-06-21T12:41:52Z</time>
      </trkpt>
      <trkpt lat="45.94264" lon="-0.9571">
        <ele>7</ele>
        <time>2022-06-21T12:41:53Z</time>
      </trkpt>
      <trkpt lat="45.94264" lon="-0.9571">
        <ele>7</ele>
        <time>2022-06-21T12:41:54Z</time>
      </trkpt>
      <trkpt lat="45.94264" lon="-0.9571">
        <ele>7</ele>
        <time>2022-06-21T12:41:55Z</time>
      </trkpt>
      <trkpt lat="45.94264" lon="-0.9571">
        <ele>7</ele>
        <time>2022-06-21T12:41:56Z</time>
      </trkpt>
      <trkpt lat="45.94264" lon="-0.9571">
        <ele>7</ele>
        <time>2022-06-21T12:41:57Z</time>
      </trkpt>
      <trkpt lat="45.94264" lon="-0.9571">
        <ele>7</ele>
        <time>2022-06-21T12:41:58Z</time>
      </trkpt>
      <trkpt lat="45.94264" lon="-0.9571">
        <ele>7</ele>
        <time>2022-06-21T12:41:59Z</time>
      </trkpt>
      <trkpt lat="45.94264" lon="-0.9571">
        <ele>7</ele>
        <time>2022-06-21T12:42:00Z</time>
      </trkpt>
      <trkpt lat="45.94264" lon="-0.9571">
        <ele>7</ele>
        <time>2022-06-21T12:42:01Z</time>
      </trkpt>
      <trkpt lat="45.94264" lon="-0.9571">
        <ele>7</ele>
        <time>2022-06-21T12:42:02Z</time>
      </trkpt>
      <trkpt lat="45.94264" lon="-0.9571">
        <ele>7</ele>
        <time>2022-06-21T12:42:03Z</time>
      </trkpt>
      <trkpt lat="45.94264" lon="-0.9571">
        <ele>7</ele>
        <time>2022-06-21T12:42:04Z</time>
      </trkpt>
      <trkpt lat="45.94264" lon="-0.9571">
        <ele>7</ele>
        <time>2022-06-21T12:42:05Z</time>
      </trkpt>
      <trkpt lat="45.94264" lon="-0.9571">
        <ele>7</ele>
        <time>2022-06-21T12:42:06Z</time>
      </trkpt>
      <trkpt lat="45.94264" lon="-0.9571">
        <ele>7</ele>
        <time>2022-06-21T12:42:07Z</time>
      </trkpt>
      <trkpt lat="45.94264" lon="-0.9571">
        <ele>7</ele>
        <time>2022-06-21T12:42:08Z</time>
      </trkpt>
      <trkpt lat="45.94264" lon="-0.9571">
        <ele>7</ele>
        <time>2022-06-21T12:42:09Z</time>
      </trkpt>
      <trkpt lat="45.94264" lon="-0.9571">
        <ele>7</ele>
        <time>2022-06-21T12:42:10Z</time>
      </trkpt>
      <trkpt lat="45.94264" lon="-0.9571">
        <ele>7</ele>
        <time>2022-06-21T12:42:11Z</time>
      </trkpt>
      <trkpt lat="45.94264" lon="-0.9571">
        <ele>7</ele>
        <time>2022-06-21T12:42:12Z</time>
      </trkpt>
      <trkpt lat="45.94264" lon="-0.9571">
        <ele>7</ele>
        <time>2022-06-21T12:42:13Z</time>
      </trkpt>
      <trkpt lat="45.94264" lon="-0.9571">
        <ele>7</ele>
        <time>2022-06-21T12:42:14Z</time>
      </trkpt>
      <trkpt lat="45.94264" lon="-0.9571">
        <ele>7</ele>
        <time>2022-06-21T12:42:15Z</time>
      </trkpt>
      <trkpt lat="45.94264" lon="-0.9571">
        <ele>7</ele>
        <time>2022-06-21T12:42:16Z</time>
      </trkpt>
      <trkpt lat="45.94264" lon="-0.9571">
        <ele>7</ele>
        <time>2022-06-21T12:42:17Z</time>
      </trkpt>
      <trkpt lat="45.94264" lon="-0.9571">
        <ele>7</ele>
        <time>2022-06-21T12:42:18Z</time>
      </trkpt>
      <trkpt lat="45.94264" lon="-0.9571">
        <ele>7</ele>
        <time>2022-06-21T12:42:19Z</time>
      </trkpt>
      <trkpt lat="45.94264" lon="-0.9571">
        <ele>7</ele>
        <time>2022-06-21T12:42:20Z</time>
      </trkpt>
      <trkpt lat="45.94264" lon="-0.9571">
        <ele>7</ele>
        <time>2022-06-21T12:42:21Z</time>
      </trkpt>
      <trkpt lat="45.94264" lon="-0.9571">
        <ele>7</ele>
        <time>2022-06-21T12:42:22Z</time>
      </trkpt>
      <trkpt lat="45.94264" lon="-0.9571">
        <ele>7</ele>
        <time>2022-06-21T12:42:23Z</time>
      </trkpt>
      <trkpt lat="45.94264" lon="-0.9571">
        <ele>7</ele>
        <time>2022-06-21T12:42:24Z</time>
      </trkpt>
      <trkpt lat="45.94264" lon="-0.9571">
        <ele>7</ele>
        <time>2022-06-21T12:42:25Z</time>
      </trkpt>
      <trkpt lat="45.94264" lon="-0.9571">
        <ele>7</ele>
        <time>2022-06-21T12:42:26Z</time>
      </trkpt>
      <trkpt lat="45.94264" lon="-0.9571">
        <ele>7</ele>
        <time>2022-06-21T12:42:27Z</time>
      </trkpt>
      <trkpt lat="45.94264" lon="-0.9571">
        <ele>7</ele>
        <time>2022-06-21T12:42:28Z</time>
      </trkpt>
      <trkpt lat="45.94264" lon="-0.9571">
        <ele>7</ele>
        <time>2022-06-21T12:42:29Z</time>
      </trkpt>
      <trkpt lat="45.94264" lon="-0.9571">
        <ele>7</ele>
        <time>2022-06-21T12:42:30Z</time>
      </trkpt>
      <trkpt lat="45.94264" lon="-0.9571">
        <ele>7</ele>
        <time>2022-06-21T12:42:31Z</time>
      </trkpt>
      <trkpt lat="45.94264" lon="-0.9571">
        <ele>7</ele>
        <time>2022-06-21T12:42:32Z</time>
      </trkpt>
      <trkpt lat="45.94264" lon="-0.9571">
        <ele>7</ele>
        <time>2022-06-21T12:42:33Z</time>
      </trkpt>
      <trkpt lat="45.94264" lon="-0.9571">
        <ele>7</ele>
        <time>2022-06-21T12:42:34Z</time>
      </trkpt>
      <trkpt lat="45.94264" lon="-0.9571">
        <ele>7</ele>
        <time>2022-06-21T12:42:35Z</time>
      </trkpt>
      <trkpt lat="45.94264" lon="-0.9571">
        <ele>7</ele>
        <time>2022-06-21T12:42:36Z</time>
      </trkpt>
      <trkpt lat="45.94264" lon="-0.9571">
        <ele>7</ele>
        <time>2022-06-21T12:42:37Z</time>
      </trkpt>
      <trkpt lat="45.94264" lon="-0.9571">
        <ele>7</ele>
        <time>2022-06-21T12:42:38Z</time>
      </trkpt>
      <trkpt lat="45.94264" lon="-0.9571">
        <ele>7</ele>
        <time>2022-06-21T12:42:39Z</time>
      </trkpt>
      <trkpt lat="45.94264" lon="-0.9571">
        <ele>7</ele>
        <time>2022-06-21T12:42:40Z</time>
      </trkpt>
      <trkpt lat="45.94264" lon="-0.9571">
        <ele>7</ele>
        <time>2022-06-21T12:42:41Z</time>
      </trkpt>
      <trkpt lat="45.94264" lon="-0.9571">
        <ele>7</ele>
        <time>2022-06-21T12:42:42Z</time>
      </trkpt>
      <trkpt lat="45.94264" lon="-0.9571">
        <ele>7</ele>
        <time>2022-06-21T12:42:43Z</time>
      </trkpt>
      <trkpt lat="45.94264" lon="-0.9571">
        <ele>7</ele>
        <time>2022-06-21T12:42:44Z</time>
      </trkpt>
      <trkpt lat="45.94264" lon="-0.9571">
        <ele>7</ele>
        <time>2022-06-21T12:42:45Z</time>
      </trkpt>
      <trkpt lat="45.94264" lon="-0.9571">
        <ele>7</ele>
        <time>2022-06-21T12:42:46Z</time>
      </trkpt>
      <trkpt lat="45.94264" lon="-0.9571">
        <ele>7</ele>
        <time>2022-06-21T12:42:47Z</time>
      </trkpt>
      <trkpt lat="45.94264" lon="-0.9571">
        <ele>7</ele>
        <time>2022-06-21T12:42:48Z</time>
      </trkpt>
      <trkpt lat="45.94264" lon="-0.9571">
        <ele>7</ele>
        <time>2022-06-21T12:42:49Z</time>
      </trkpt>
      <trkpt lat="45.94264" lon="-0.9571">
        <ele>7</ele>
        <time>2022-06-21T12:42:50Z</time>
      </trkpt>
      <trkpt lat="45.94264" lon="-0.9571">
        <ele>7</ele>
        <time>2022-06-21T12:42:51Z</time>
      </trkpt>
      <trkpt lat="45.94264" lon="-0.9571">
        <ele>7</ele>
        <time>2022-06-21T12:42:52Z</time>
      </trkpt>
      <trkpt lat="45.94264" lon="-0.9571">
        <ele>7</ele>
        <time>2022-06-21T12:42:53Z</time>
      </trkpt>
      <trkpt lat="45.94264" lon="-0.9571">
        <ele>7</ele>
        <time>2022-06-21T12:42:54Z</time>
      </trkpt>
      <trkpt lat="45.94264" lon="-0.9571">
        <ele>7</ele>
        <time>2022-06-21T12:42:55Z</time>
      </trkpt>
      <trkpt lat="45.94264" lon="-0.9571">
        <ele>7</ele>
        <time>2022-06-21T12:42:56Z</time>
      </trkpt>
      <trkpt lat="45.94264" lon="-0.9571">
        <ele>7</ele>
        <time>2022-06-21T12:42:57Z</time>
      </trkpt>
      <trkpt lat="45.94264" lon="-0.9571">
        <ele>7</ele>
        <time>2022-06-21T12:42:58Z</time>
      </trkpt>
      <trkpt lat="45.94264" lon="-0.9571">
        <ele>7</ele>
        <time>2022-06-21T12:42:59Z</time>
      </trkpt>
      <trkpt lat="45.94264" lon="-0.9571">
        <ele>7</ele>
        <time>2022-06-21T12:43:00Z</time>
      </trkpt>
      <trkpt lat="45.94264" lon="-0.9571">
        <ele>7</ele>
        <time>2022-06-21T12:43:01Z</time>
      </trkpt>
      <trkpt lat="45.94264" lon="-0.9571">
        <ele>7</ele>
        <time>2022-06-21T12:43:02Z</time>
      </trkpt>
      <trkpt lat="45.94264" lon="-0.9571">
        <ele>7</ele>
        <time>2022-06-21T12:43:03Z</time>
      </trkpt>
      <trkpt lat="45.94264" lon="-0.9571">
        <ele>7</ele>
        <time>2022-06-21T12:43:04Z</time>
      </trkpt>
      <trkpt lat="45.94264" lon="-0.9571">
        <ele>7</ele>
        <time>2022-06-21T12:43:05Z</time>
      </trkpt>
      <trkpt lat="45.94264" lon="-0.9571">
        <ele>7</ele>
        <time>2022-06-21T12:43:06Z</time>
      </trkpt>
      <trkpt lat="45.94264" lon="-0.9571">
        <ele>7</ele>
        <time>2022-06-21T12:43:07Z</time>
      </trkpt>
      <trkpt lat="45.94264" lon="-0.9571">
        <ele>7</ele>
        <time>2022-06-21T12:43:08Z</time>
      </trkpt>
      <trkpt lat="45.94264" lon="-0.9571">
        <ele>7</ele>
        <time>2022-06-21T12:43:09Z</time>
      </trkpt>
      <trkpt lat="45.94264" lon="-0.9571">
        <ele>7</ele>
        <time>2022-06-21T12:43:10Z</time>
      </trkpt>
      <trkpt lat="45.94264" lon="-0.9571">
        <ele>7</ele>
        <time>2022-06-21T12:43:11Z</time>
      </trkpt>
      <trkpt lat="45.94264" lon="-0.9571">
        <ele>7</ele>
        <time>2022-06-21T12:43:12Z</time>
      </trkpt>
      <trkpt lat="45.94264" lon="-0.9571">
        <ele>7</ele>
        <time>2022-06-21T12:43:13Z</time>
      </trkpt>
      <trkpt lat="45.94264" lon="-0.9571">
        <ele>7</ele>
        <time>2022-06-21T12:43:14Z</time>
      </trkpt>
      <trkpt lat="45.94264" lon="-0.9571">
        <ele>7</ele>
        <time>2022-06-21T12:43:15Z</time>
      </trkpt>
      <trkpt lat="45.94264" lon="-0.9571">
        <ele>7</ele>
        <time>2022-06-21T12:43:16Z</time>
      </trkpt>
      <trkpt lat="45.94264" lon="-0.9571">
        <ele>7</ele>
        <time>2022-06-21T12:43:17Z</time>
      </trkpt>
      <trkpt lat="45.94264" lon="-0.9571">
        <ele>7</ele>
        <time>2022-06-21T12:43:18Z</time>
      </trkpt>
      <trkpt lat="45.94264" lon="-0.9571">
        <ele>7</ele>
        <time>2022-06-21T12:43:19Z</time>
      </trkpt>
      <trkpt lat="45.94264" lon="-0.9571">
        <ele>7</ele>
        <time>2022-06-21T12:43:20Z</time>
      </trkpt>
      <trkpt lat="45.94264" lon="-0.9571">
        <ele>7</ele>
        <time>2022-06-21T12:43:21Z</time>
      </trkpt>
      <trkpt lat="45.94264" lon="-0.9571">
        <ele>7</ele>
        <time>2022-06-21T12:43:22Z</time>
      </trkpt>
      <trkpt lat="45.94264" lon="-0.9571">
        <ele>7</ele>
        <time>2022-06-21T12:43:23Z</time>
      </trkpt>
      <trkpt lat="45.94264" lon="-0.9571">
        <ele>7</ele>
        <time>2022-06-21T12:43:24Z</time>
      </trkpt>
      <trkpt lat="45.94264" lon="-0.9571">
        <ele>7</ele>
        <time>2022-06-21T12:43:25Z</time>
      </trkpt>
      <trkpt lat="45.94264" lon="-0.9571">
        <ele>7</ele>
        <time>2022-06-21T12:43:26Z</time>
      </trkpt>
      <trkpt lat="45.94264" lon="-0.9571">
        <ele>7</ele>
        <time>2022-06-21T12:43:27Z</time>
      </trkpt>
      <trkpt lat="45.94264" lon="-0.9571">
        <ele>7</ele>
        <time>2022-06-21T12:43:28Z</time>
      </trkpt>
      <trkpt lat="45.94264" lon="-0.95709">
        <ele>7</ele>
        <time>2022-06-21T12:43:29Z</time>
      </trkpt>
      <trkpt lat="45.94264" lon="-0.95709">
        <ele>7</ele>
        <time>2022-06-21T12:43:30Z</time>
      </trkpt>
      <trkpt lat="45.94264" lon="-0.95709">
        <ele>7</ele>
        <time>2022-06-21T12:43:31Z</time>
      </trkpt>
      <trkpt lat="45.94264" lon="-0.95709">
        <ele>7</ele>
        <time>2022-06-21T12:43:32Z</time>
      </trkpt>
      <trkpt lat="45.94264" lon="-0.95709">
        <ele>7</ele>
        <time>2022-06-21T12:43:33Z</time>
      </trkpt>
      <trkpt lat="45.94264" lon="-0.95709">
        <ele>7</ele>
        <time>2022-06-21T12:43:34Z</time>
      </trkpt>
      <trkpt lat="45.94264" lon="-0.95709">
        <ele>7</ele>
        <time>2022-06-21T12:43:35Z</time>
      </trkpt>
      <trkpt lat="45.94264" lon="-0.95709">
        <ele>7</ele>
        <time>2022-06-21T12:43:36Z</time>
      </trkpt>
      <trkpt lat="45.94264" lon="-0.95709">
        <ele>7</ele>
        <time>2022-06-21T12:43:37Z</time>
      </trkpt>
      <trkpt lat="45.94264" lon="-0.95709">
        <ele>7</ele>
        <time>2022-06-21T12:43:38Z</time>
      </trkpt>
      <trkpt lat="45.94264" lon="-0.95709">
        <ele>7</ele>
        <time>2022-06-21T12:43:39Z</time>
      </trkpt>
      <trkpt lat="45.94264" lon="-0.95709">
        <ele>7</ele>
        <time>2022-06-21T12:43:40Z</time>
      </trkpt>
      <trkpt lat="45.94264" lon="-0.95709">
        <ele>7</ele>
        <time>2022-06-21T12:43:41Z</time>
      </trkpt>
      <trkpt lat="45.94264" lon="-0.95709">
        <ele>7</ele>
        <time>2022-06-21T12:43:42Z</time>
      </trkpt>
      <trkpt lat="45.94264" lon="-0.95709">
        <ele>7</ele>
        <time>2022-06-21T12:43:43Z</time>
      </trkpt>
      <trkpt lat="45.94264" lon="-0.95709">
        <ele>7</ele>
        <time>2022-06-21T12:43:44Z</time>
      </trkpt>
      <trkpt lat="45.94264" lon="-0.95709">
        <ele>7</ele>
        <time>2022-06-21T12:43:45Z</time>
      </trkpt>
      <trkpt lat="45.94264" lon="-0.95709">
        <ele>7</ele>
        <time>2022-06-21T12:43:46Z</time>
      </trkpt>
      <trkpt lat="45.94264" lon="-0.95709">
        <ele>7</ele>
        <time>2022-06-21T12:43:47Z</time>
      </trkpt>
      <trkpt lat="45.94264" lon="-0.95709">
        <ele>7</ele>
        <time>2022-06-21T12:43:48Z</time>
      </trkpt>
      <trkpt lat="45.94264" lon="-0.95709">
        <ele>7</ele>
        <time>2022-06-21T12:43:49Z</time>
      </trkpt>
      <trkpt lat="45.94264" lon="-0.95709">
        <ele>7</ele>
        <time>2022-06-21T12:43:50Z</time>
      </trkpt>
      <trkpt lat="45.94264" lon="-0.95709">
        <ele>7</ele>
        <time>2022-06-21T12:43:51Z</time>
      </trkpt>
      <trkpt lat="45.94264" lon="-0.95709">
        <ele>7</ele>
        <time>2022-06-21T12:43:52Z</time>
      </trkpt>
      <trkpt lat="45.94264" lon="-0.95709">
        <ele>7</ele>
        <time>2022-06-21T12:43:53Z</time>
      </trkpt>
      <trkpt lat="45.94264" lon="-0.95709">
        <ele>7</ele>
        <time>2022-06-21T12:43:54Z</time>
      </trkpt>
      <trkpt lat="45.94264" lon="-0.95709">
        <ele>7</ele>
        <time>2022-06-21T12:43:55Z</time>
      </trkpt>
      <trkpt lat="45.94264" lon="-0.95709">
        <ele>7</ele>
        <time>2022-06-21T12:43:56Z</time>
      </trkpt>
      <trkpt lat="45.94264" lon="-0.95709">
        <ele>7</ele>
        <time>2022-06-21T12:43:57Z</time>
      </trkpt>
      <trkpt lat="45.94264" lon="-0.95709">
        <ele>7</ele>
        <time>2022-06-21T12:43:58Z</time>
      </trkpt>
      <trkpt lat="45.94264" lon="-0.95709">
        <ele>7</ele>
        <time>2022-06-21T12:43:59Z</time>
      </trkpt>
      <trkpt lat="45.94264" lon="-0.95709">
        <ele>7</ele>
        <time>2022-06-21T12:44:00Z</time>
      </trkpt>
      <trkpt lat="45.94264" lon="-0.95709">
        <ele>7</ele>
        <time>2022-06-21T12:44:01Z</time>
      </trkpt>
      <trkpt lat="45.94264" lon="-0.95709">
        <ele>7</ele>
        <time>2022-06-21T12:44:02Z</time>
      </trkpt>
      <trkpt lat="45.94264" lon="-0.95709">
        <ele>7</ele>
        <time>2022-06-21T12:44:03Z</time>
      </trkpt>
      <trkpt lat="45.94264" lon="-0.95709">
        <ele>7</ele>
        <time>2022-06-21T12:44:04Z</time>
      </trkpt>
      <trkpt lat="45.94264" lon="-0.95709">
        <ele>7</ele>
        <time>2022-06-21T12:44:05Z</time>
      </trkpt>
      <trkpt lat="45.94264" lon="-0.95709">
        <ele>7</ele>
        <time>2022-06-21T12:44:06Z</time>
      </trkpt>
      <trkpt lat="45.94264" lon="-0.95709">
        <ele>7</ele>
        <time>2022-06-21T12:44:07Z</time>
      </trkpt>
      <trkpt lat="45.94264" lon="-0.95709">
        <ele>7</ele>
        <time>2022-06-21T12:44:08Z</time>
      </trkpt>
      <trkpt lat="45.94264" lon="-0.95709">
        <ele>7</ele>
        <time>2022-06-21T12:44:09Z</time>
      </trkpt>
      <trkpt lat="45.94264" lon="-0.95709">
        <ele>7</ele>
        <time>2022-06-21T12:44:10Z</time>
      </trkpt>
      <trkpt lat="45.94264" lon="-0.95709">
        <ele>7</ele>
        <time>2022-06-21T12:44:11Z</time>
      </trkpt>
      <trkpt lat="45.94263" lon="-0.95709">
        <ele>7</ele>
        <time>2022-06-21T12:44:12Z</time>
      </trkpt>
      <trkpt lat="45.94263" lon="-0.95709">
        <ele>7</ele>
        <time>2022-06-21T12:44:13Z</time>
      </trkpt>
      <trkpt lat="45.94263" lon="-0.95709">
        <ele>7</ele>
        <time>2022-06-21T12:44:14Z</time>
      </trkpt>
      <trkpt lat="45.94263" lon="-0.95709">
        <ele>7</ele>
        <time>2022-06-21T12:44:15Z</time>
      </trkpt>
      <trkpt lat="45.94263" lon="-0.95709">
        <ele>7</ele>
        <time>2022-06-21T12:44:16Z</time>
      </trkpt>
      <trkpt lat="45.94263" lon="-0.95709">
        <ele>7</ele>
        <time>2022-06-21T12:44:17Z</time>
      </trkpt>
      <trkpt lat="45.94263" lon="-0.95709">
        <ele>7</ele>
        <time>2022-06-21T12:44:18Z</time>
      </trkpt>
      <trkpt lat="45.94263" lon="-0.95709">
        <ele>7</ele>
        <time>2022-06-21T12:44:19Z</time>
      </trkpt>
      <trkpt lat="45.94263" lon="-0.95709">
        <ele>7</ele>
        <time>2022-06-21T12:44:20Z</time>
      </trkpt>
      <trkpt lat="45.94263" lon="-0.95709">
        <ele>7</ele>
        <time>2022-06-21T12:44:21Z</time>
      </trkpt>
      <trkpt lat="45.94263" lon="-0.95709">
        <ele>7</ele>
        <time>2022-06-21T12:44:22Z</time>
      </trkpt>
      <trkpt lat="45.94263" lon="-0.95709">
        <ele>7</ele>
        <time>2022-06-21T12:44:23Z</time>
      </trkpt>
      <trkpt lat="45.94263" lon="-0.95709">
        <ele>7</ele>
        <time>2022-06-21T12:44:24Z</time>
      </trkpt>
      <trkpt lat="45.94263" lon="-0.95709">
        <ele>7</ele>
        <time>2022-06-21T12:44:25Z</time>
      </trkpt>
      <trkpt lat="45.94263" lon="-0.95709">
        <ele>7</ele>
        <time>2022-06-21T12:44:26Z</time>
      </trkpt>
      <trkpt lat="45.94263" lon="-0.95709">
        <ele>7</ele>
        <time>2022-06-21T12:44:27Z</time>
      </trkpt>
      <trkpt lat="45.94263" lon="-0.95709">
        <ele>7</ele>
        <time>2022-06-21T12:44:28Z</time>
      </trkpt>
      <trkpt lat="45.94263" lon="-0.95709">
        <ele>7</ele>
        <time>2022-06-21T12:44:29Z</time>
      </trkpt>
      <trkpt lat="45.94263" lon="-0.95709">
        <ele>7</ele>
        <time>2022-06-21T12:44:30Z</time>
      </trkpt>
      <trkpt lat="45.94263" lon="-0.95709">
        <ele>7</ele>
        <time>2022-06-21T12:44:31Z</time>
      </trkpt>
      <trkpt lat="45.94263" lon="-0.95709">
        <ele>7</ele>
        <time>2022-06-21T12:44:32Z</time>
      </trkpt>
      <trkpt lat="45.94263" lon="-0.95709">
        <ele>7</ele>
        <time>2022-06-21T12:44:33Z</time>
      </trkpt>
      <trkpt lat="45.94263" lon="-0.95709">
        <ele>7</ele>
        <time>2022-06-21T12:44:34Z</time>
      </trkpt>
      <trkpt lat="45.94263" lon="-0.95709">
        <ele>7</ele>
        <time>2022-06-21T12:44:35Z</time>
      </trkpt>
      <trkpt lat="45.94263" lon="-0.95709">
        <ele>7</ele>
        <time>2022-06-21T12:44:36Z</time>
      </trkpt>
      <trkpt lat="45.94263" lon="-0.95709">
        <ele>7</ele>
        <time>2022-06-21T12:44:37Z</time>
      </trkpt>
      <trkpt lat="45.94263" lon="-0.95709">
        <ele>7</ele>
        <time>2022-06-21T12:44:38Z</time>
      </trkpt>
      <trkpt lat="45.94263" lon="-0.95709">
        <ele>7</ele>
        <time>2022-06-21T12:44:39Z</time>
      </trkpt>
      <trkpt lat="45.94263" lon="-0.95709">
        <ele>7</ele>
        <time>2022-06-21T12:44:40Z</time>
      </trkpt>
      <trkpt lat="45.94263" lon="-0.95709">
        <ele>7</ele>
        <time>2022-06-21T12:44:41Z</time>
      </trkpt>
      <trkpt lat="45.94263" lon="-0.95709">
        <ele>7</ele>
        <time>2022-06-21T12:44:42Z</time>
      </trkpt>
      <trkpt lat="45.94263" lon="-0.95709">
        <ele>7</ele>
        <time>2022-06-21T12:44:43Z</time>
      </trkpt>
      <trkpt lat="45.94263" lon="-0.95709">
        <ele>7</ele>
        <time>2022-06-21T12:44:44Z</time>
      </trkpt>
      <trkpt lat="45.94263" lon="-0.95709">
        <ele>7</ele>
        <time>2022-06-21T12:44:45Z</time>
      </trkpt>
      <trkpt lat="45.94263" lon="-0.95709">
        <ele>7</ele>
        <time>2022-06-21T12:44:46Z</time>
      </trkpt>
      <trkpt lat="45.94263" lon="-0.95709">
        <ele>7</ele>
        <time>2022-06-21T12:44:47Z</time>
      </trkpt>
      <trkpt lat="45.94263" lon="-0.95709">
        <ele>7</ele>
        <time>2022-06-21T12:44:48Z</time>
      </trkpt>
      <trkpt lat="45.94263" lon="-0.95709">
        <ele>7</ele>
        <time>2022-06-21T12:44:49Z</time>
      </trkpt>
      <trkpt lat="45.94263" lon="-0.95709">
        <ele>7</ele>
        <time>2022-06-21T12:44:50Z</time>
      </trkpt>
      <trkpt lat="45.94263" lon="-0.95709">
        <ele>7</ele>
        <time>2022-06-21T12:44:51Z</time>
      </trkpt>
      <trkpt lat="45.94263" lon="-0.95709">
        <ele>7</ele>
        <time>2022-06-21T12:44:52Z</time>
      </trkpt>
      <trkpt lat="45.94263" lon="-0.95709">
        <ele>7</ele>
        <time>2022-06-21T12:44:53Z</time>
      </trkpt>
      <trkpt lat="45.94263" lon="-0.95709">
        <ele>7</ele>
        <time>2022-06-21T12:44:54Z</time>
      </trkpt>
      <trkpt lat="45.94263" lon="-0.95709">
        <ele>7</ele>
        <time>2022-06-21T12:44:55Z</time>
      </trkpt>
      <trkpt lat="45.94263" lon="-0.95709">
        <ele>7</ele>
        <time>2022-06-21T12:44:56Z</time>
      </trkpt>
      <trkpt lat="45.94263" lon="-0.95709">
        <ele>7</ele>
        <time>2022-06-21T12:44:57Z</time>
      </trkpt>
      <trkpt lat="45.94263" lon="-0.95709">
        <ele>7</ele>
        <time>2022-06-21T12:44:58Z</time>
      </trkpt>
      <trkpt lat="45.94263" lon="-0.95709">
        <ele>7</ele>
        <time>2022-06-21T12:44:59Z</time>
      </trkpt>
      <trkpt lat="45.94263" lon="-0.95709">
        <ele>7</ele>
        <time>2022-06-21T12:45:00Z</time>
      </trkpt>
      <trkpt lat="45.94263" lon="-0.95709">
        <ele>7</ele>
        <time>2022-06-21T12:45:01Z</time>
      </trkpt>
      <trkpt lat="45.94263" lon="-0.95709">
        <ele>7</ele>
        <time>2022-06-21T12:45:02Z</time>
      </trkpt>
      <trkpt lat="45.94263" lon="-0.95709">
        <ele>7</ele>
        <time>2022-06-21T12:45:03Z</time>
      </trkpt>
      <trkpt lat="45.94263" lon="-0.95709">
        <ele>7</ele>
        <time>2022-06-21T12:45:04Z</time>
      </trkpt>
      <trkpt lat="45.94263" lon="-0.95709">
        <ele>7</ele>
        <time>2022-06-21T12:45:05Z</time>
      </trkpt>
      <trkpt lat="45.94263" lon="-0.95709">
        <ele>7</ele>
        <time>2022-06-21T12:45:06Z</time>
      </trkpt>
      <trkpt lat="45.94263" lon="-0.95709">
        <ele>7</ele>
        <time>2022-06-21T12:45:07Z</time>
      </trkpt>
      <trkpt lat="45.94263" lon="-0.95709">
        <ele>7</ele>
        <time>2022-06-21T12:45:08Z</time>
      </trkpt>
      <trkpt lat="45.94263" lon="-0.95709">
        <ele>7</ele>
        <time>2022-06-21T12:45:09Z</time>
      </trkpt>
      <trkpt lat="45.94263" lon="-0.95709">
        <ele>7</ele>
        <time>2022-06-21T12:45:10Z</time>
      </trkpt>
      <trkpt lat="45.94263" lon="-0.95709">
        <ele>7</ele>
        <time>2022-06-21T12:45:11Z</time>
      </trkpt>
      <trkpt lat="45.94263" lon="-0.95709">
        <ele>7</ele>
        <time>2022-06-21T12:45:12Z</time>
      </trkpt>
      <trkpt lat="45.94263" lon="-0.95709">
        <ele>7</ele>
        <time>2022-06-21T12:45:13Z</time>
      </trkpt>
      <trkpt lat="45.94263" lon="-0.95709">
        <ele>7</ele>
        <time>2022-06-21T12:45:14Z</time>
      </trkpt>
      <trkpt lat="45.94263" lon="-0.95709">
        <ele>7</ele>
        <time>2022-06-21T12:45:15Z</time>
      </trkpt>
      <trkpt lat="45.94263" lon="-0.95709">
        <ele>7</ele>
        <time>2022-06-21T12:45:16Z</time>
      </trkpt>
      <trkpt lat="45.94263" lon="-0.95709">
        <ele>7</ele>
        <time>2022-06-21T12:45:17Z</time>
      </trkpt>
      <trkpt lat="45.94263" lon="-0.95709">
        <ele>7</ele>
        <time>2022-06-21T12:45:18Z</time>
      </trkpt>
      <trkpt lat="45.94263" lon="-0.95709">
        <ele>7</ele>
        <time>2022-06-21T12:45:19Z</time>
      </trkpt>
      <trkpt lat="45.94263" lon="-0.95709">
        <ele>7</ele>
        <time>2022-06-21T12:45:20Z</time>
      </trkpt>
      <trkpt lat="45.94263" lon="-0.95709">
        <ele>7</ele>
        <time>2022-06-21T12:45:21Z</time>
      </trkpt>
      <trkpt lat="45.94263" lon="-0.95709">
        <ele>7</ele>
        <time>2022-06-21T12:45:22Z</time>
      </trkpt>
      <trkpt lat="45.94263" lon="-0.95709">
        <ele>7</ele>
        <time>2022-06-21T12:45:23Z</time>
      </trkpt>
      <trkpt lat="45.94263" lon="-0.95709">
        <ele>7</ele>
        <time>2022-06-21T12:45:24Z</time>
      </trkpt>
      <trkpt lat="45.94263" lon="-0.95709">
        <ele>7</ele>
        <time>2022-06-21T12:45:25Z</time>
      </trkpt>
      <trkpt lat="45.94263" lon="-0.95709">
        <ele>7</ele>
        <time>2022-06-21T12:45:26Z</time>
      </trkpt>
      <trkpt lat="45.94263" lon="-0.95709">
        <ele>7</ele>
        <time>2022-06-21T12:45:27Z</time>
      </trkpt>
      <trkpt lat="45.94263" lon="-0.95709">
        <ele>7</ele>
        <time>2022-06-21T12:45:28Z</time>
      </trkpt>
      <trkpt lat="45.94263" lon="-0.95709">
        <ele>7</ele>
        <time>2022-06-21T12:45:29Z</time>
      </trkpt>
      <trkpt lat="45.94263" lon="-0.95709">
        <ele>7</ele>
        <time>2022-06-21T12:45:30Z</time>
      </trkpt>
      <trkpt lat="45.94263" lon="-0.95709">
        <ele>7</ele>
        <time>2022-06-21T12:45:31Z</time>
      </trkpt>
      <trkpt lat="45.94263" lon="-0.95709">
        <ele>7</ele>
        <time>2022-06-21T12:45:32Z</time>
      </trkpt>
      <trkpt lat="45.94263" lon="-0.95709">
        <ele>7</ele>
        <time>2022-06-21T12:45:33Z</time>
      </trkpt>
      <trkpt lat="45.94263" lon="-0.95709">
        <ele>7</ele>
        <time>2022-06-21T12:45:34Z</time>
      </trkpt>
      <trkpt lat="45.94263" lon="-0.95709">
        <ele>7</ele>
        <time>2022-06-21T12:45:35Z</time>
      </trkpt>
      <trkpt lat="45.94263" lon="-0.95709">
        <ele>7</ele>
        <time>2022-06-21T12:45:36Z</time>
      </trkpt>
      <trkpt lat="45.94263" lon="-0.95709">
        <ele>7</ele>
        <time>2022-06-21T12:45:37Z</time>
      </trkpt>
      <trkpt lat="45.94263" lon="-0.95709">
        <ele>7</ele>
        <time>2022-06-21T12:45:38Z</time>
      </trkpt>
      <trkpt lat="45.94263" lon="-0.95709">
        <ele>7</ele>
        <time>2022-06-21T12:45:39Z</time>
      </trkpt>
      <trkpt lat="45.94263" lon="-0.95709">
        <ele>7</ele>
        <time>2022-06-21T12:45:40Z</time>
      </trkpt>
      <trkpt lat="45.94263" lon="-0.95709">
        <ele>7</ele>
        <time>2022-06-21T12:45:41Z</time>
      </trkpt>
      <trkpt lat="45.94263" lon="-0.95709">
        <ele>7</ele>
        <time>2022-06-21T12:45:42Z</time>
      </trkpt>
      <trkpt lat="45.94263" lon="-0.95709">
        <ele>7</ele>
        <time>2022-06-21T12:45:43Z</time>
      </trkpt>
      <trkpt lat="45.94263" lon="-0.95709">
        <ele>7</ele>
        <time>2022-06-21T12:45:44Z</time>
      </trkpt>
      <trkpt lat="45.94263" lon="-0.95709">
        <ele>7</ele>
        <time>2022-06-21T12:45:45Z</time>
      </trkpt>
      <trkpt lat="45.94263" lon="-0.95709">
        <ele>7</ele>
        <time>2022-06-21T12:45:46Z</time>
      </trkpt>
      <trkpt lat="45.94263" lon="-0.95709">
        <ele>7</ele>
        <time>2022-06-21T12:45:47Z</time>
      </trkpt>
      <trkpt lat="45.94263" lon="-0.95709">
        <ele>7</ele>
        <time>2022-06-21T12:45:48Z</time>
      </trkpt>
      <trkpt lat="45.94263" lon="-0.95709">
        <ele>7</ele>
        <time>2022-06-21T12:45:49Z</time>
      </trkpt>
      <trkpt lat="45.94263" lon="-0.95709">
        <ele>7</ele>
        <time>2022-06-21T12:45:50Z</time>
      </trkpt>
      <trkpt lat="45.94263" lon="-0.95709">
        <ele>7</ele>
        <time>2022-06-21T12:45:51Z</time>
      </trkpt>
      <trkpt lat="45.94263" lon="-0.95709">
        <ele>7</ele>
        <time>2022-06-21T12:45:52Z</time>
      </trkpt>
      <trkpt lat="45.94263" lon="-0.95709">
        <ele>7</ele>
        <time>2022-06-21T12:45:53Z</time>
      </trkpt>
      <trkpt lat="45.94263" lon="-0.95709">
        <ele>7</ele>
        <time>2022-06-21T12:45:54Z</time>
      </trkpt>
      <trkpt lat="45.94263" lon="-0.95709">
        <ele>7</ele>
        <time>2022-06-21T12:45:55Z</time>
      </trkpt>
      <trkpt lat="45.94263" lon="-0.95709">
        <ele>7</ele>
        <time>2022-06-21T12:45:56Z</time>
      </trkpt>
      <trkpt lat="45.94263" lon="-0.95709">
        <ele>7</ele>
        <time>2022-06-21T12:45:57Z</time>
      </trkpt>
      <trkpt lat="45.94263" lon="-0.95709">
        <ele>7</ele>
        <time>2022-06-21T12:45:58Z</time>
      </trkpt>
      <trkpt lat="45.94263" lon="-0.95709">
        <ele>7</ele>
        <time>2022-06-21T12:45:59Z</time>
      </trkpt>
      <trkpt lat="45.94263" lon="-0.95709">
        <ele>7</ele>
        <time>2022-06-21T12:46:00Z</time>
      </trkpt>
      <trkpt lat="45.94263" lon="-0.95709">
        <ele>7</ele>
        <time>2022-06-21T12:46:01Z</time>
      </trkpt>
      <trkpt lat="45.94263" lon="-0.95709">
        <ele>7</ele>
        <time>2022-06-21T12:46:02Z</time>
      </trkpt>
      <trkpt lat="45.94263" lon="-0.95709">
        <ele>7</ele>
        <time>2022-06-21T12:46:03Z</time>
      </trkpt>
      <trkpt lat="45.94263" lon="-0.95709">
        <ele>7</ele>
        <time>2022-06-21T12:46:04Z</time>
      </trkpt>
      <trkpt lat="45.94263" lon="-0.95709">
        <ele>7</ele>
        <time>2022-06-21T12:46:05Z</time>
      </trkpt>
      <trkpt lat="45.94263" lon="-0.95709">
        <ele>7</ele>
        <time>2022-06-21T12:46:06Z</time>
      </trkpt>
      <trkpt lat="45.94263" lon="-0.95709">
        <ele>7</ele>
        <time>2022-06-21T12:46:07Z</time>
      </trkpt>
      <trkpt lat="45.94263" lon="-0.95709">
        <ele>7</ele>
        <time>2022-06-21T12:46:08Z</time>
      </trkpt>
      <trkpt lat="45.94263" lon="-0.95709">
        <ele>7</ele>
        <time>2022-06-21T12:46:09Z</time>
      </trkpt>
      <trkpt lat="45.94263" lon="-0.95709">
        <ele>7</ele>
        <time>2022-06-21T12:46:10Z</time>
      </trkpt>
      <trkpt lat="45.94263" lon="-0.95709">
        <ele>7</ele>
        <time>2022-06-21T12:46:11Z</time>
      </trkpt>
      <trkpt lat="45.94263" lon="-0.95709">
        <ele>7</ele>
        <time>2022-06-21T12:46:12Z</time>
      </trkpt>
      <trkpt lat="45.94263" lon="-0.95709">
        <ele>7</ele>
        <time>2022-06-21T12:46:13Z</time>
      </trkpt>
      <trkpt lat="45.94263" lon="-0.95709">
        <ele>7</ele>
        <time>2022-06-21T12:46:14Z</time>
      </trkpt>
      <trkpt lat="45.94263" lon="-0.95709">
        <ele>7</ele>
        <time>2022-06-21T12:46:15Z</time>
      </trkpt>
      <trkpt lat="45.94263" lon="-0.95709">
        <ele>7</ele>
        <time>2022-06-21T12:46:16Z</time>
      </trkpt>
      <trkpt lat="45.94263" lon="-0.95709">
        <ele>7</ele>
        <time>2022-06-21T12:46:17Z</time>
      </trkpt>
      <trkpt lat="45.94263" lon="-0.95709">
        <ele>7</ele>
        <time>2022-06-21T12:46:18Z</time>
      </trkpt>
      <trkpt lat="45.94263" lon="-0.95709">
        <ele>7</ele>
        <time>2022-06-21T12:46:19Z</time>
      </trkpt>
      <trkpt lat="45.94263" lon="-0.95709">
        <ele>7</ele>
        <time>2022-06-21T12:46:20Z</time>
      </trkpt>
      <trkpt lat="45.94263" lon="-0.95709">
        <ele>7</ele>
        <time>2022-06-21T12:46:21Z</time>
      </trkpt>
      <trkpt lat="45.94263" lon="-0.95709">
        <ele>7</ele>
        <time>2022-06-21T12:46:22Z</time>
      </trkpt>
      <trkpt lat="45.94263" lon="-0.95709">
        <ele>7</ele>
        <time>2022-06-21T12:46:23Z</time>
      </trkpt>
      <trkpt lat="45.94263" lon="-0.95709">
        <ele>7</ele>
        <time>2022-06-21T12:46:24Z</time>
      </trkpt>
      <trkpt lat="45.94263" lon="-0.95709">
        <ele>7</ele>
        <time>2022-06-21T12:46:25Z</time>
      </trkpt>
      <trkpt lat="45.94263" lon="-0.95709">
        <ele>7</ele>
        <time>2022-06-21T12:46:26Z</time>
      </trkpt>
      <trkpt lat="45.94263" lon="-0.95709">
        <ele>7</ele>
        <time>2022-06-21T12:46:27Z</time>
      </trkpt>
      <trkpt lat="45.94263" lon="-0.95709">
        <ele>7</ele>
        <time>2022-06-21T12:46:28Z</time>
      </trkpt>
      <trkpt lat="45.94263" lon="-0.95709">
        <ele>7</ele>
        <time>2022-06-21T12:46:29Z</time>
      </trkpt>
      <trkpt lat="45.94263" lon="-0.95709">
        <ele>7</ele>
        <time>2022-06-21T12:46:30Z</time>
      </trkpt>
      <trkpt lat="45.94263" lon="-0.95709">
        <ele>7</ele>
        <time>2022-06-21T12:46:31Z</time>
      </trkpt>
      <trkpt lat="45.94263" lon="-0.95709">
        <ele>7</ele>
        <time>2022-06-21T12:46:32Z</time>
      </trkpt>
      <trkpt lat="45.94263" lon="-0.95709">
        <ele>7</ele>
        <time>2022-06-21T12:46:33Z</time>
      </trkpt>
      <trkpt lat="45.94263" lon="-0.95709">
        <ele>7</ele>
        <time>2022-06-21T12:46:34Z</time>
      </trkpt>
      <trkpt lat="45.94263" lon="-0.95709">
        <ele>7</ele>
        <time>2022-06-21T12:46:35Z</time>
      </trkpt>
      <trkpt lat="45.94263" lon="-0.95709">
        <ele>7</ele>
        <time>2022-06-21T12:46:36Z</time>
      </trkpt>
      <trkpt lat="45.94263" lon="-0.95709">
        <ele>7</ele>
        <time>2022-06-21T12:46:37Z</time>
      </trkpt>
      <trkpt lat="45.94263" lon="-0.95709">
        <ele>7</ele>
        <time>2022-06-21T12:46:38Z</time>
      </trkpt>
      <trkpt lat="45.94263" lon="-0.95709">
        <ele>7</ele>
        <time>2022-06-21T12:46:39Z</time>
      </trkpt>
      <trkpt lat="45.94263" lon="-0.95709">
        <ele>7</ele>
        <time>2022-06-21T12:46:40Z</time>
      </trkpt>
      <trkpt lat="45.94263" lon="-0.95709">
        <ele>7</ele>
        <time>2022-06-21T12:46:41Z</time>
      </trkpt>
      <trkpt lat="45.94263" lon="-0.95709">
        <ele>7</ele>
        <time>2022-06-21T12:46:42Z</time>
      </trkpt>
      <trkpt lat="45.94263" lon="-0.95709">
        <ele>7</ele>
        <time>2022-06-21T12:46:43Z</time>
      </trkpt>
      <trkpt lat="45.94263" lon="-0.95709">
        <ele>7</ele>
        <time>2022-06-21T12:46:44Z</time>
      </trkpt>
      <trkpt lat="45.94263" lon="-0.95709">
        <ele>7</ele>
        <time>2022-06-21T12:46:45Z</time>
      </trkpt>
      <trkpt lat="45.94263" lon="-0.95709">
        <ele>7</ele>
        <time>2022-06-21T12:46:46Z</time>
      </trkpt>
      <trkpt lat="45.94263" lon="-0.95709">
        <ele>7</ele>
        <time>2022-06-21T12:46:47Z</time>
      </trkpt>
      <trkpt lat="45.94263" lon="-0.95709">
        <ele>7</ele>
        <time>2022-06-21T12:46:48Z</time>
      </trkpt>
      <trkpt lat="45.94263" lon="-0.95709">
        <ele>7</ele>
        <time>2022-06-21T12:46:49Z</time>
      </trkpt>
      <trkpt lat="45.94263" lon="-0.95709">
        <ele>7</ele>
        <time>2022-06-21T12:46:50Z</time>
      </trkpt>
      <trkpt lat="45.94263" lon="-0.95709">
        <ele>7</ele>
        <time>2022-06-21T12:46:51Z</time>
      </trkpt>
      <trkpt lat="45.94263" lon="-0.95709">
        <ele>7</ele>
        <time>2022-06-21T12:46:52Z</time>
      </trkpt>
      <trkpt lat="45.94263" lon="-0.95709">
        <ele>7</ele>
        <time>2022-06-21T12:46:53Z</time>
      </trkpt>
      <trkpt lat="45.94263" lon="-0.95709">
        <ele>7</ele>
        <time>2022-06-21T12:46:54Z</time>
      </trkpt>
      <trkpt lat="45.94263" lon="-0.95709">
        <ele>7</ele>
        <time>2022-06-21T12:46:55Z</time>
      </trkpt>
      <trkpt lat="45.94263" lon="-0.95709">
        <ele>7</ele>
        <time>2022-06-21T12:46:56Z</time>
      </trkpt>
      <trkpt lat="45.94263" lon="-0.95709">
        <ele>7</ele>
        <time>2022-06-21T12:46:57Z</time>
      </trkpt>
      <trkpt lat="45.94263" lon="-0.95709">
        <ele>7</ele>
        <time>2022-06-21T12:46:58Z</time>
      </trkpt>
      <trkpt lat="45.94263" lon="-0.95709">
        <ele>7</ele>
        <time>2022-06-21T12:46:59Z</time>
      </trkpt>
      <trkpt lat="45.94263" lon="-0.95709">
        <ele>7</ele>
        <time>2022-06-21T12:47:00Z</time>
      </trkpt>
      <trkpt lat="45.94263" lon="-0.95709">
        <ele>7</ele>
        <time>2022-06-21T12:47:01Z</time>
      </trkpt>
      <trkpt lat="45.94263" lon="-0.95709">
        <ele>7</ele>
        <time>2022-06-21T12:47:02Z</time>
      </trkpt>
      <trkpt lat="45.94263" lon="-0.95709">
        <ele>7</ele>
        <time>2022-06-21T12:47:03Z</time>
      </trkpt>
      <trkpt lat="45.94263" lon="-0.95709">
        <ele>7</ele>
        <time>2022-06-21T12:47:04Z</time>
      </trkpt>
      <trkpt lat="45.94263" lon="-0.95709">
        <ele>7</ele>
        <time>2022-06-21T12:47:05Z</time>
      </trkpt>
      <trkpt lat="45.94263" lon="-0.95709">
        <ele>7</ele>
        <time>2022-06-21T12:47:06Z</time>
      </trkpt>
      <trkpt lat="45.94263" lon="-0.95709">
        <ele>7</ele>
        <time>2022-06-21T12:47:07Z</time>
      </trkpt>
      <trkpt lat="45.94263" lon="-0.95709">
        <ele>7</ele>
        <time>2022-06-21T12:47:08Z</time>
      </trkpt>
      <trkpt lat="45.94263" lon="-0.95709">
        <ele>7</ele>
        <time>2022-06-21T12:47:09Z</time>
      </trkpt>
      <trkpt lat="45.94263" lon="-0.95709">
        <ele>7</ele>
        <time>2022-06-21T12:47:10Z</time>
      </trkpt>
      <trkpt lat="45.94262" lon="-0.95709">
        <ele>7</ele>
        <time>2022-06-21T12:47:11Z</time>
      </trkpt>
      <trkpt lat="45.94262" lon="-0.95709">
        <ele>7</ele>
        <time>2022-06-21T12:47:12Z</time>
      </trkpt>
      <trkpt lat="45.94262" lon="-0.95709">
        <ele>7</ele>
        <time>2022-06-21T12:47:13Z</time>
      </trkpt>
      <trkpt lat="45.94262" lon="-0.95709">
        <ele>7</ele>
        <time>2022-06-21T12:47:14Z</time>
      </trkpt>
      <trkpt lat="45.94262" lon="-0.95709">
        <ele>7</ele>
        <time>2022-06-21T12:47:15Z</time>
      </trkpt>
      <trkpt lat="45.94262" lon="-0.95709">
        <ele>7</ele>
        <time>2022-06-21T12:47:16Z</time>
      </trkpt>
      <trkpt lat="45.94262" lon="-0.95709">
        <ele>7</ele>
        <time>2022-06-21T12:47:17Z</time>
      </trkpt>
      <trkpt lat="45.94262" lon="-0.95709">
        <ele>7</ele>
        <time>2022-06-21T12:47:18Z</time>
      </trkpt>
      <trkpt lat="45.94262" lon="-0.95709">
        <ele>7</ele>
        <time>2022-06-21T12:47:19Z</time>
      </trkpt>
      <trkpt lat="45.94262" lon="-0.95709">
        <ele>7</ele>
        <time>2022-06-21T12:47:20Z</time>
      </trkpt>
      <trkpt lat="45.94262" lon="-0.95709">
        <ele>7</ele>
        <time>2022-06-21T12:47:21Z</time>
      </trkpt>
      <trkpt lat="45.94262" lon="-0.95709">
        <ele>7</ele>
        <time>2022-06-21T12:47:22Z</time>
      </trkpt>
      <trkpt lat="45.94262" lon="-0.95709">
        <ele>7</ele>
        <time>2022-06-21T12:47:23Z</time>
      </trkpt>
      <trkpt lat="45.94262" lon="-0.95709">
        <ele>7</ele>
        <time>2022-06-21T12:47:24Z</time>
      </trkpt>
      <trkpt lat="45.94262" lon="-0.95709">
        <ele>7</ele>
        <time>2022-06-21T12:47:25Z</time>
      </trkpt>
      <trkpt lat="45.94262" lon="-0.95709">
        <ele>7</ele>
        <time>2022-06-21T12:47:26Z</time>
      </trkpt>
      <trkpt lat="45.94262" lon="-0.95709">
        <ele>7</ele>
        <time>2022-06-21T12:47:27Z</time>
      </trkpt>
      <trkpt lat="45.94262" lon="-0.95709">
        <ele>7</ele>
        <time>2022-06-21T12:47:28Z</time>
      </trkpt>
      <trkpt lat="45.94262" lon="-0.95709">
        <ele>7</ele>
        <time>2022-06-21T12:47:29Z</time>
      </trkpt>
      <trkpt lat="45.94262" lon="-0.95709">
        <ele>7</ele>
        <time>2022-06-21T12:47:30Z</time>
      </trkpt>
      <trkpt lat="45.94262" lon="-0.95709">
        <ele>7</ele>
        <time>2022-06-21T12:47:31Z</time>
      </trkpt>
      <trkpt lat="45.94262" lon="-0.95709">
        <ele>7</ele>
        <time>2022-06-21T12:47:32Z</time>
      </trkpt>
      <trkpt lat="45.94262" lon="-0.95709">
        <ele>7</ele>
        <time>2022-06-21T12:47:33Z</time>
      </trkpt>
      <trkpt lat="45.94262" lon="-0.95709">
        <ele>7</ele>
        <time>2022-06-21T12:47:34Z</time>
      </trkpt>
      <trkpt lat="45.94262" lon="-0.95709">
        <ele>7</ele>
        <time>2022-06-21T12:47:35Z</time>
      </trkpt>
      <trkpt lat="45.94262" lon="-0.95709">
        <ele>7</ele>
        <time>2022-06-21T12:47:36Z</time>
      </trkpt>
      <trkpt lat="45.94262" lon="-0.95709">
        <ele>7</ele>
        <time>2022-06-21T12:47:37Z</time>
      </trkpt>
      <trkpt lat="45.94262" lon="-0.95709">
        <ele>7</ele>
        <time>2022-06-21T12:47:38Z</time>
      </trkpt>
      <trkpt lat="45.94262" lon="-0.95709">
        <ele>7</ele>
        <time>2022-06-21T12:47:39Z</time>
      </trkpt>
      <trkpt lat="45.94262" lon="-0.95709">
        <ele>7</ele>
        <time>2022-06-21T12:47:40Z</time>
      </trkpt>
      <trkpt lat="45.94262" lon="-0.95709">
        <ele>7</ele>
        <time>2022-06-21T12:47:41Z</time>
      </trkpt>
      <trkpt lat="45.94262" lon="-0.95709">
        <ele>7</ele>
        <time>2022-06-21T12:47:42Z</time>
      </trkpt>
      <trkpt lat="45.94262" lon="-0.95709">
        <ele>7</ele>
        <time>2022-06-21T12:47:43Z</time>
      </trkpt>
      <trkpt lat="45.94262" lon="-0.95708">
        <ele>7</ele>
        <time>2022-06-21T12:47:44Z</time>
      </trkpt>
      <trkpt lat="45.94262" lon="-0.95708">
        <ele>7</ele>
        <time>2022-06-21T12:47:45Z</time>
      </trkpt>
      <trkpt lat="45.94262" lon="-0.95708">
        <ele>7</ele>
        <time>2022-06-21T12:47:46Z</time>
      </trkpt>
      <trkpt lat="45.94262" lon="-0.95708">
        <ele>7</ele>
        <time>2022-06-21T12:47:47Z</time>
      </trkpt>
      <trkpt lat="45.94262" lon="-0.95708">
        <ele>7</ele>
        <time>2022-06-21T12:47:48Z</time>
      </trkpt>
      <trkpt lat="45.94262" lon="-0.95708">
        <ele>7</ele>
        <time>2022-06-21T12:47:49Z</time>
      </trkpt>
      <trkpt lat="45.94262" lon="-0.95708">
        <ele>7</ele>
        <time>2022-06-21T12:47:50Z</time>
      </trkpt>
      <trkpt lat="45.94262" lon="-0.95708">
        <ele>7</ele>
        <time>2022-06-21T12:47:51Z</time>
      </trkpt>
      <trkpt lat="45.94262" lon="-0.95708">
        <ele>7</ele>
        <time>2022-06-21T12:47:52Z</time>
      </trkpt>
      <trkpt lat="45.94262" lon="-0.95708">
        <ele>7</ele>
        <time>2022-06-21T12:47:53Z</time>
      </trkpt>
      <trkpt lat="45.94262" lon="-0.95708">
        <ele>7</ele>
        <time>2022-06-21T12:47:54Z</time>
      </trkpt>
      <trkpt lat="45.94262" lon="-0.95708">
        <ele>7</ele>
        <time>2022-06-21T12:47:55Z</time>
      </trkpt>
      <trkpt lat="45.94262" lon="-0.95708">
        <ele>7</ele>
        <time>2022-06-21T12:47:56Z</time>
      </trkpt>
      <trkpt lat="45.94262" lon="-0.95708">
        <ele>7</ele>
        <time>2022-06-21T12:47:57Z</time>
      </trkpt>
      <trkpt lat="45.94262" lon="-0.95708">
        <ele>7</ele>
        <time>2022-06-21T12:47:58Z</time>
      </trkpt>
      <trkpt lat="45.94262" lon="-0.95708">
        <ele>7</ele>
        <time>2022-06-21T12:47:59Z</time>
      </trkpt>
      <trkpt lat="45.94262" lon="-0.95708">
        <ele>7</ele>
        <time>2022-06-21T12:48:00Z</time>
      </trkpt>
      <trkpt lat="45.94262" lon="-0.95708">
        <ele>7</ele>
        <time>2022-06-21T12:48:01Z</time>
      </trkpt>
      <trkpt lat="45.94262" lon="-0.95708">
        <ele>7</ele>
        <time>2022-06-21T12:48:02Z</time>
      </trkpt>
      <trkpt lat="45.94262" lon="-0.95708">
        <ele>7</ele>
        <time>2022-06-21T12:48:03Z</time>
      </trkpt>
      <trkpt lat="45.94262" lon="-0.95708">
        <ele>7</ele>
        <time>2022-06-21T12:48:04Z</time>
      </trkpt>
      <trkpt lat="45.94262" lon="-0.95708">
        <ele>7</ele>
        <time>2022-06-21T12:48:05Z</time>
      </trkpt>
      <trkpt lat="45.94262" lon="-0.95708">
        <ele>7</ele>
        <time>2022-06-21T12:48:06Z</time>
      </trkpt>
      <trkpt lat="45.94262" lon="-0.95708">
        <ele>7</ele>
        <time>2022-06-21T12:48:07Z</time>
      </trkpt>
      <trkpt lat="45.94262" lon="-0.95708">
        <ele>7</ele>
        <time>2022-06-21T12:48:08Z</time>
      </trkpt>
      <trkpt lat="45.94262" lon="-0.95708">
        <ele>7</ele>
        <time>2022-06-21T12:48:09Z</time>
      </trkpt>
      <trkpt lat="45.94262" lon="-0.95708">
        <ele>7</ele>
        <time>2022-06-21T12:48:10Z</time>
      </trkpt>
      <trkpt lat="45.94262" lon="-0.95708">
        <ele>7</ele>
        <time>2022-06-21T12:48:11Z</time>
      </trkpt>
      <trkpt lat="45.94262" lon="-0.95708">
        <ele>7</ele>
        <time>2022-06-21T12:48:12Z</time>
      </trkpt>
      <trkpt lat="45.94262" lon="-0.95708">
        <ele>7</ele>
        <time>2022-06-21T12:48:13Z</time>
      </trkpt>
      <trkpt lat="45.94262" lon="-0.95708">
        <ele>7</ele>
        <time>2022-06-21T12:48:14Z</time>
      </trkpt>
      <trkpt lat="45.94262" lon="-0.95708">
        <ele>7</ele>
        <time>2022-06-21T12:48:15Z</time>
      </trkpt>
      <trkpt lat="45.94262" lon="-0.95708">
        <ele>7</ele>
        <time>2022-06-21T12:48:16Z</time>
      </trkpt>
      <trkpt lat="45.94262" lon="-0.95708">
        <ele>7</ele>
        <time>2022-06-21T12:48:17Z</time>
      </trkpt>
      <trkpt lat="45.94262" lon="-0.95708">
        <ele>7</ele>
        <time>2022-06-21T12:48:18Z</time>
      </trkpt>
      <trkpt lat="45.94262" lon="-0.95708">
        <ele>7</ele>
        <time>2022-06-21T12:48:19Z</time>
      </trkpt>
      <trkpt lat="45.94262" lon="-0.95708">
        <ele>7</ele>
        <time>2022-06-21T12:48:20Z</time>
      </trkpt>
      <trkpt lat="45.94262" lon="-0.95708">
        <ele>7</ele>
        <time>2022-06-21T12:48:21Z</time>
      </trkpt>
      <trkpt lat="45.94262" lon="-0.95708">
        <ele>7</ele>
        <time>2022-06-21T12:48:22Z</time>
      </trkpt>
      <trkpt lat="45.94262" lon="-0.95708">
        <ele>7</ele>
        <time>2022-06-21T12:48:23Z</time>
      </trkpt>
      <trkpt lat="45.94262" lon="-0.95708">
        <ele>7</ele>
        <time>2022-06-21T12:48:24Z</time>
      </trkpt>
      <trkpt lat="45.94262" lon="-0.95708">
        <ele>7</ele>
        <time>2022-06-21T12:48:25Z</time>
      </trkpt>
      <trkpt lat="45.94262" lon="-0.95708">
        <ele>7</ele>
        <time>2022-06-21T12:48:26Z</time>
      </trkpt>
      <trkpt lat="45.94262" lon="-0.95708">
        <ele>7</ele>
        <time>2022-06-21T12:48:27Z</time>
      </trkpt>
      <trkpt lat="45.94262" lon="-0.95708">
        <ele>7</ele>
        <time>2022-06-21T12:48:28Z</time>
      </trkpt>
      <trkpt lat="45.94262" lon="-0.95708">
        <ele>7</ele>
        <time>2022-06-21T12:48:29Z</time>
      </trkpt>
      <trkpt lat="45.94262" lon="-0.95708">
        <ele>7</ele>
        <time>2022-06-21T12:48:30Z</time>
      </trkpt>
      <trkpt lat="45.94262" lon="-0.95708">
        <ele>7</ele>
        <time>2022-06-21T12:48:31Z</time>
      </trkpt>
      <trkpt lat="45.94262" lon="-0.95708">
        <ele>7</ele>
        <time>2022-06-21T12:48:32Z</time>
      </trkpt>
      <trkpt lat="45.94262" lon="-0.95708">
        <ele>7</ele>
        <time>2022-06-21T12:48:33Z</time>
      </trkpt>
      <trkpt lat="45.94262" lon="-0.95708">
        <ele>7</ele>
        <time>2022-06-21T12:48:34Z</time>
      </trkpt>
      <trkpt lat="45.94262" lon="-0.95708">
        <ele>7</ele>
        <time>2022-06-21T12:48:35Z</time>
      </trkpt>
      <trkpt lat="45.94262" lon="-0.95708">
        <ele>7</ele>
        <time>2022-06-21T12:48:36Z</time>
      </trkpt>
      <trkpt lat="45.94262" lon="-0.95708">
        <ele>7</ele>
        <time>2022-06-21T12:48:37Z</time>
      </trkpt>
      <trkpt lat="45.94262" lon="-0.95708">
        <ele>7</ele>
        <time>2022-06-21T12:48:38Z</time>
      </trkpt>
      <trkpt lat="45.94261" lon="-0.95707">
        <ele>7</ele>
        <time>2022-06-21T12:48:39Z</time>
      </trkpt>
      <trkpt lat="45.94261" lon="-0.95707">
        <ele>7</ele>
        <time>2022-06-21T12:48:40Z</time>
      </trkpt>
      <trkpt lat="45.94262" lon="-0.95707">
        <ele>7</ele>
        <time>2022-06-21T12:48:41Z</time>
      </trkpt>
      <trkpt lat="45.94262" lon="-0.95708">
        <ele>7</ele>
        <time>2022-06-21T12:48:42Z</time>
      </trkpt>
      <trkpt lat="45.94263" lon="-0.95708">
        <ele>7</ele>
        <time>2022-06-21T12:48:43Z</time>
      </trkpt>
      <trkpt lat="45.94263" lon="-0.95708">
        <ele>7</ele>
        <time>2022-06-21T12:48:44Z</time>
      </trkpt>
      <trkpt lat="45.94263" lon="-0.95707">
        <ele>7</ele>
        <time>2022-06-21T12:48:45Z</time>
      </trkpt>
      <trkpt lat="45.94263" lon="-0.95707">
        <ele>7</ele>
        <time>2022-06-21T12:48:46Z</time>
      </trkpt>
      <trkpt lat="45.94262" lon="-0.95707">
        <ele>7</ele>
        <time>2022-06-21T12:48:47Z</time>
      </trkpt>
      <trkpt lat="45.94262" lon="-0.95707">
        <ele>7</ele>
        <time>2022-06-21T12:48:48Z</time>
      </trkpt>
      <trkpt lat="45.94262" lon="-0.95707">
        <ele>7</ele>
        <time>2022-06-21T12:48:49Z</time>
      </trkpt>
      <trkpt lat="45.94262" lon="-0.95708">
        <ele>7</ele>
        <time>2022-06-21T12:48:50Z</time>
      </trkpt>
      <trkpt lat="45.94262" lon="-0.95708">
        <ele>7</ele>
        <time>2022-06-21T12:48:51Z</time>
      </trkpt>
      <trkpt lat="45.94262" lon="-0.95708">
        <ele>7</ele>
        <time>2022-06-21T12:48:52Z</time>
      </trkpt>
      <trkpt lat="45.94262" lon="-0.95708">
        <ele>7</ele>
        <time>2022-06-21T12:48:54Z</time>
      </trkpt>
      <trkpt lat="45.94262" lon="-0.95707">
        <ele>7</ele>
        <time>2022-06-21T12:48:55Z</time>
      </trkpt>
      <trkpt lat="45.94262" lon="-0.95707">
        <ele>7</ele>
        <time>2022-06-21T12:48:56Z</time>
      </trkpt>
      <trkpt lat="45.94262" lon="-0.95707">
        <ele>7</ele>
        <time>2022-06-21T12:48:57Z</time>
      </trkpt>
      <trkpt lat="45.94261" lon="-0.95708">
        <ele>7</ele>
        <time>2022-06-21T12:48:58Z</time>
      </trkpt>
      <trkpt lat="45.94261" lon="-0.95708">
        <ele>7</ele>
        <time>2022-06-21T12:48:59Z</time>
      </trkpt>
      <trkpt lat="45.94261" lon="-0.95708">
        <ele>7</ele>
        <time>2022-06-21T12:49:00Z</time>
      </trkpt>
      <trkpt lat="45.94261" lon="-0.95708">
        <ele>7</ele>
        <time>2022-06-21T12:49:01Z</time>
      </trkpt>
      <trkpt lat="45.94262" lon="-0.95708">
        <ele>7</ele>
        <time>2022-06-21T12:49:02Z</time>
      </trkpt>
      <trkpt lat="45.94262" lon="-0.95708">
        <ele>7</ele>
        <time>2022-06-21T12:49:03Z</time>
      </trkpt>
      <trkpt lat="45.94262" lon="-0.95708">
        <ele>7</ele>
        <time>2022-06-21T12:49:04Z</time>
      </trkpt>
      <trkpt lat="45.94262" lon="-0.95708">
        <ele>7</ele>
        <time>2022-06-21T12:49:05Z</time>
      </trkpt>
      <trkpt lat="45.94262" lon="-0.95708">
        <ele>7</ele>
        <time>2022-06-21T12:49:06Z</time>
      </trkpt>
      <trkpt lat="45.94262" lon="-0.95709">
        <ele>7</ele>
        <time>2022-06-21T12:49:07Z</time>
      </trkpt>
      <trkpt lat="45.94262" lon="-0.95709">
        <ele>7</ele>
        <time>2022-06-21T12:49:08Z</time>
      </trkpt>
      <trkpt lat="45.94262" lon="-0.95709">
        <ele>7</ele>
        <time>2022-06-21T12:49:09Z</time>
      </trkpt>
      <trkpt lat="45.94262" lon="-0.95709">
        <ele>7</ele>
        <time>2022-06-21T12:49:10Z</time>
      </trkpt>
      <trkpt lat="45.94263" lon="-0.95709">
        <ele>7</ele>
        <time>2022-06-21T12:49:11Z</time>
      </trkpt>
      <trkpt lat="45.94263" lon="-0.95709">
        <ele>7</ele>
        <time>2022-06-21T12:49:12Z</time>
      </trkpt>
      <trkpt lat="45.94263" lon="-0.95709">
        <ele>7</ele>
        <time>2022-06-21T12:49:13Z</time>
      </trkpt>
      <trkpt lat="45.94262" lon="-0.95707">
        <ele>7</ele>
        <time>2022-06-21T12:49:14Z</time>
      </trkpt>
      <trkpt lat="45.94262" lon="-0.95707">
        <ele>7</ele>
        <time>2022-06-21T12:49:15Z</time>
      </trkpt>
      <trkpt lat="45.94262" lon="-0.95707">
        <ele>7</ele>
        <time>2022-06-21T12:49:16Z</time>
      </trkpt>
      <trkpt lat="45.94261" lon="-0.95707">
        <ele>7</ele>
        <time>2022-06-21T12:49:17Z</time>
      </trkpt>
      <trkpt lat="45.94261" lon="-0.95707">
        <ele>7</ele>
        <time>2022-06-21T12:49:18Z</time>
      </trkpt>
      <trkpt lat="45.94261" lon="-0.95706">
        <ele>7</ele>
        <time>2022-06-21T12:49:19Z</time>
      </trkpt>
      <trkpt lat="45.94261" lon="-0.95706">
        <ele>7</ele>
        <time>2022-06-21T12:49:20Z</time>
      </trkpt>
      <trkpt lat="45.94261" lon="-0.95706">
        <ele>7</ele>
        <time>2022-06-21T12:49:21Z</time>
      </trkpt>
      <trkpt lat="45.94261" lon="-0.95706">
        <ele>7</ele>
        <time>2022-06-21T12:49:22Z</time>
      </trkpt>
      <trkpt lat="45.94261" lon="-0.95706">
        <ele>7</ele>
        <time>2022-06-21T12:49:23Z</time>
      </trkpt>
      <trkpt lat="45.94261" lon="-0.95706">
        <ele>7</ele>
        <time>2022-06-21T12:49:25Z</time>
      </trkpt>
      <trkpt lat="45.94261" lon="-0.95706">
        <ele>7</ele>
        <time>2022-06-21T12:49:26Z</time>
      </trkpt>
      <trkpt lat="45.94261" lon="-0.95707">
        <ele>7</ele>
        <time>2022-06-21T12:49:27Z</time>
      </trkpt>
      <trkpt lat="45.94261" lon="-0.95707">
        <ele>7</ele>
        <time>2022-06-21T12:49:29Z</time>
      </trkpt>
      <trkpt lat="45.94261" lon="-0.95707">
        <ele>7</ele>
        <time>2022-06-21T12:49:30Z</time>
      </trkpt>
      <trkpt lat="45.94261" lon="-0.95707">
        <ele>7</ele>
        <time>2022-06-21T12:49:31Z</time>
      </trkpt>
      <trkpt lat="45.94261" lon="-0.95707">
        <ele>7</ele>
        <time>2022-06-21T12:49:32Z</time>
      </trkpt>
      <trkpt lat="45.94261" lon="-0.95707">
        <ele>7</ele>
        <time>2022-06-21T12:49:33Z</time>
      </trkpt>
      <trkpt lat="45.94261" lon="-0.95708">
        <ele>7</ele>
        <time>2022-06-21T12:49:34Z</time>
      </trkpt>
      <trkpt lat="45.94261" lon="-0.95708">
        <ele>7</ele>
        <time>2022-06-21T12:49:35Z</time>
      </trkpt>
      <trkpt lat="45.94261" lon="-0.95708">
        <ele>7</ele>
        <time>2022-06-21T12:49:37Z</time>
      </trkpt>
      <trkpt lat="45.94261" lon="-0.95708">
        <ele>7</ele>
        <time>2022-06-21T12:49:38Z</time>
      </trkpt>
      <trkpt lat="45.94261" lon="-0.95708">
        <ele>7</ele>
        <time>2022-06-21T12:49:39Z</time>
      </trkpt>
      <trkpt lat="45.94261" lon="-0.95708">
        <ele>7</ele>
        <time>2022-06-21T12:49:40Z</time>
      </trkpt>
      <trkpt lat="45.94261" lon="-0.95708">
        <ele>7</ele>
        <time>2022-06-21T12:49:42Z</time>
      </trkpt>
      <trkpt lat="45.94261" lon="-0.95708">
        <ele>7</ele>
        <time>2022-06-21T12:49:43Z</time>
      </trkpt>
      <trkpt lat="45.94261" lon="-0.95708">
        <ele>7</ele>
        <time>2022-06-21T12:49:44Z</time>
      </trkpt>
      <trkpt lat="45.94261" lon="-0.95708">
        <ele>7</ele>
        <time>2022-06-21T12:49:45Z</time>
      </trkpt>
      <trkpt lat="45.94261" lon="-0.95708">
        <ele>7</ele>
        <time>2022-06-21T12:49:46Z</time>
      </trkpt>
      <trkpt lat="45.94261" lon="-0.95708">
        <ele>7</ele>
        <time>2022-06-21T12:49:47Z</time>
      </trkpt>
      <trkpt lat="45.94261" lon="-0.95708">
        <ele>7</ele>
        <time>2022-06-21T12:49:48Z</time>
      </trkpt>
      <trkpt lat="45.94261" lon="-0.95708">
        <ele>7</ele>
        <time>2022-06-21T12:49:49Z</time>
      </trkpt>
      <trkpt lat="45.94261" lon="-0.95709">
        <ele>7</ele>
        <time>2022-06-21T12:49:50Z</time>
      </trkpt>
      <trkpt lat="45.94261" lon="-0.95709">
        <ele>7</ele>
        <time>2022-06-21T12:49:52Z</time>
      </trkpt>
      <trkpt lat="45.94261" lon="-0.95709">
        <ele>7</ele>
        <time>2022-06-21T12:49:53Z</time>
      </trkpt>
      <trkpt lat="45.94261" lon="-0.95709">
        <ele>7</ele>
        <time>2022-06-21T12:49:54Z</time>
      </trkpt>
      <trkpt lat="45.94261" lon="-0.95709">
        <ele>7</ele>
        <time>2022-06-21T12:49:55Z</time>
      </trkpt>
      <trkpt lat="45.94261" lon="-0.95708">
        <ele>7</ele>
        <time>2022-06-21T12:49:56Z</time>
      </trkpt>
      <trkpt lat="45.94261" lon="-0.95708">
        <ele>7</ele>
        <time>2022-06-21T12:49:57Z</time>
      </trkpt>
      <trkpt lat="45.94261" lon="-0.95709">
        <ele>6.9</ele>
        <time>2022-06-21T12:49:58Z</time>
      </trkpt>
      <trkpt lat="45.94262" lon="-0.95709">
        <ele>6.9</ele>
        <time>2022-06-21T12:49:59Z</time>
      </trkpt>
      <trkpt lat="45.94262" lon="-0.95709">
        <ele>6.9</ele>
        <time>2022-06-21T12:50:00Z</time>
      </trkpt>
      <trkpt lat="45.94262" lon="-0.95709">
        <ele>6.9</ele>
        <time>2022-06-21T12:50:01Z</time>
      </trkpt>
      <trkpt lat="45.94262" lon="-0.95709">
        <ele>6.9</ele>
        <time>2022-06-21T12:50:02Z</time>
      </trkpt>
      <trkpt lat="45.94262" lon="-0.95709">
        <ele>6.9</ele>
        <time>2022-06-21T12:50:03Z</time>
      </trkpt>
      <trkpt lat="45.94262" lon="-0.95708">
        <ele>6.9</ele>
        <time>2022-06-21T12:50:04Z</time>
      </trkpt>
      <trkpt lat="45.94262" lon="-0.95708">
        <ele>6.9</ele>
        <time>2022-06-21T12:50:05Z</time>
      </trkpt>
      <trkpt lat="45.94262" lon="-0.95708">
        <ele>6.9</ele>
        <time>2022-06-21T12:50:06Z</time>
      </trkpt>
      <trkpt lat="45.94262" lon="-0.95708">
        <ele>6.9</ele>
        <time>2022-06-21T12:50:07Z</time>
      </trkpt>
      <trkpt lat="45.94262" lon="-0.95708">
        <ele>6.9</ele>
        <time>2022-06-21T12:50:08Z</time>
      </trkpt>
      <trkpt lat="45.94262" lon="-0.95708">
        <ele>6.9</ele>
        <time>2022-06-21T12:50:09Z</time>
      </trkpt>
      <trkpt lat="45.94262" lon="-0.95708">
        <ele>6.9</ele>
        <time>2022-06-21T12:50:10Z</time>
      </trkpt>
      <trkpt lat="45.94262" lon="-0.95708">
        <ele>6.9</ele>
        <time>2022-06-21T12:50:11Z</time>
      </trkpt>
      <trkpt lat="45.94262" lon="-0.95708">
        <ele>6.9</ele>
        <time>2022-06-21T12:50:12Z</time>
      </trkpt>
      <trkpt lat="45.94262" lon="-0.95708">
        <ele>6.9</ele>
        <time>2022-06-21T12:50:13Z</time>
      </trkpt>
      <trkpt lat="45.94262" lon="-0.95708">
        <ele>6.9</ele>
        <time>2022-06-21T12:50:14Z</time>
      </trkpt>
      <trkpt lat="45.94262" lon="-0.95708">
        <ele>6.9</ele>
        <time>2022-06-21T12:50:15Z</time>
      </trkpt>
      <trkpt lat="45.94262" lon="-0.95708">
        <ele>6.9</ele>
        <time>2022-06-21T12:50:16Z</time>
      </trkpt>
      <trkpt lat="45.94262" lon="-0.95708">
        <ele>6.9</ele>
        <time>2022-06-21T12:50:17Z</time>
      </trkpt>
      <trkpt lat="45.94262" lon="-0.95708">
        <ele>6.9</ele>
        <time>2022-06-21T12:50:18Z</time>
      </trkpt>
      <trkpt lat="45.94262" lon="-0.95708">
        <ele>6.9</ele>
        <time>2022-06-21T12:50:19Z</time>
      </trkpt>
      <trkpt lat="45.94262" lon="-0.95708">
        <ele>6.9</ele>
        <time>2022-06-21T12:50:20Z</time>
      </trkpt>
      <trkpt lat="45.94262" lon="-0.95708">
        <ele>6.9</ele>
        <time>2022-06-21T12:50:21Z</time>
      </trkpt>
      <trkpt lat="45.94262" lon="-0.95708">
        <ele>6.9</ele>
        <time>2022-06-21T12:50:22Z</time>
      </trkpt>
      <trkpt lat="45.94262" lon="-0.95708">
        <ele>6.9</ele>
        <time>2022-06-21T12:50:23Z</time>
      </trkpt>
      <trkpt lat="45.94262" lon="-0.95708">
        <ele>6.9</ele>
        <time>2022-06-21T12:50:24Z</time>
      </trkpt>
      <trkpt lat="45.94262" lon="-0.95708">
        <ele>6.9</ele>
        <time>2022-06-21T12:50:25Z</time>
      </trkpt>
      <trkpt lat="45.94262" lon="-0.95708">
        <ele>6.9</ele>
        <time>2022-06-21T12:50:26Z</time>
      </trkpt>
      <trkpt lat="45.94262" lon="-0.95709">
        <ele>6.9</ele>
        <time>2022-06-21T12:50:27Z</time>
      </trkpt>
      <trkpt lat="45.94262" lon="-0.95709">
        <ele>6.9</ele>
        <time>2022-06-21T12:50:28Z</time>
      </trkpt>
      <trkpt lat="45.94262" lon="-0.95709">
        <ele>6.9</ele>
        <time>2022-06-21T12:50:29Z</time>
      </trkpt>
      <trkpt lat="45.94262" lon="-0.95709">
        <ele>6.9</ele>
        <time>2022-06-21T12:50:30Z</time>
      </trkpt>
      <trkpt lat="45.94262" lon="-0.95709">
        <ele>6.9</ele>
        <time>2022-06-21T12:50:31Z</time>
      </trkpt>
      <trkpt lat="45.94262" lon="-0.95709">
        <ele>6.9</ele>
        <time>2022-06-21T12:50:32Z</time>
      </trkpt>
      <trkpt lat="45.94262" lon="-0.95708">
        <ele>6.9</ele>
        <time>2022-06-21T12:50:33Z</time>
      </trkpt>
      <trkpt lat="45.94262" lon="-0.95709">
        <ele>6.9</ele>
        <time>2022-06-21T12:50:34Z</time>
      </trkpt>
      <trkpt lat="45.94262" lon="-0.95709">
        <ele>6.9</ele>
        <time>2022-06-21T12:50:35Z</time>
      </trkpt>
      <trkpt lat="45.94262" lon="-0.95709">
        <ele>6.9</ele>
        <time>2022-06-21T12:50:36Z</time>
      </trkpt>
      <trkpt lat="45.94262" lon="-0.95709">
        <ele>6.9</ele>
        <time>2022-06-21T12:50:37Z</time>
      </trkpt>
      <trkpt lat="45.94262" lon="-0.9571">
        <ele>6.9</ele>
        <time>2022-06-21T12:50:38Z</time>
      </trkpt>
      <trkpt lat="45.94262" lon="-0.9571">
        <ele>6.9</ele>
        <time>2022-06-21T12:50:39Z</time>
      </trkpt>
      <trkpt lat="45.94262" lon="-0.9571">
        <ele>6.9</ele>
        <time>2022-06-21T12:50:41Z</time>
      </trkpt>
      <trkpt lat="45.94261" lon="-0.95711">
        <ele>6.9</ele>
        <time>2022-06-21T12:50:42Z</time>
      </trkpt>
      <trkpt lat="45.94262" lon="-0.9571">
        <ele>6.9</ele>
        <time>2022-06-21T12:50:43Z</time>
      </trkpt>
      <trkpt lat="45.94262" lon="-0.95711">
        <ele>6.9</ele>
        <time>2022-06-21T12:50:45Z</time>
      </trkpt>
      <trkpt lat="45.94262" lon="-0.95711">
        <ele>6.9</ele>
        <time>2022-06-21T12:50:46Z</time>
      </trkpt>
      <trkpt lat="45.94261" lon="-0.9571">
        <ele>6.9</ele>
        <time>2022-06-21T12:50:48Z</time>
      </trkpt>
      <trkpt lat="45.94261" lon="-0.9571">
        <ele>6.9</ele>
        <time>2022-06-21T12:50:49Z</time>
      </trkpt>
      <trkpt lat="45.94261" lon="-0.9571">
        <ele>6.9</ele>
        <time>2022-06-21T12:50:50Z</time>
      </trkpt>
      <trkpt lat="45.94261" lon="-0.9571">
        <ele>6.9</ele>
        <time>2022-06-21T12:50:51Z</time>
      </trkpt>
      <trkpt lat="45.94261" lon="-0.9571">
        <ele>6.9</ele>
        <time>2022-06-21T12:50:52Z</time>
      </trkpt>
      <trkpt lat="45.94261" lon="-0.95711">
        <ele>6.9</ele>
        <time>2022-06-21T12:50:53Z</time>
      </trkpt>
      <trkpt lat="45.94261" lon="-0.95711">
        <ele>6.9</ele>
        <time>2022-06-21T12:50:54Z</time>
      </trkpt>
      <trkpt lat="45.94261" lon="-0.95712">
        <ele>6.9</ele>
        <time>2022-06-21T12:50:55Z</time>
      </trkpt>
      <trkpt lat="45.94261" lon="-0.95712">
        <ele>6.9</ele>
        <time>2022-06-21T12:50:56Z</time>
      </trkpt>
      <trkpt lat="45.94261" lon="-0.95713">
        <ele>6.9</ele>
        <time>2022-06-21T12:50:57Z</time>
      </trkpt>
      <trkpt lat="45.94261" lon="-0.95713">
        <ele>6.9</ele>
        <time>2022-06-21T12:50:58Z</time>
      </trkpt>
      <trkpt lat="45.94261" lon="-0.95712">
        <ele>6.9</ele>
        <time>2022-06-21T12:50:59Z</time>
      </trkpt>
      <trkpt lat="45.94261" lon="-0.95711">
        <ele>6.9</ele>
        <time>2022-06-21T12:51:00Z</time>
      </trkpt>
      <trkpt lat="45.94261" lon="-0.95711">
        <ele>6.9</ele>
        <time>2022-06-21T12:51:01Z</time>
      </trkpt>
      <trkpt lat="45.94261" lon="-0.9571">
        <ele>6.9</ele>
        <time>2022-06-21T12:51:02Z</time>
      </trkpt>
      <trkpt lat="45.94261" lon="-0.95709">
        <ele>6.9</ele>
        <time>2022-06-21T12:51:03Z</time>
      </trkpt>
      <trkpt lat="45.94261" lon="-0.95709">
        <ele>6.9</ele>
        <time>2022-06-21T12:51:04Z</time>
      </trkpt>
      <trkpt lat="45.94261" lon="-0.95709">
        <ele>6.9</ele>
        <time>2022-06-21T12:51:05Z</time>
      </trkpt>
      <trkpt lat="45.94261" lon="-0.95709">
        <ele>6.9</ele>
        <time>2022-06-21T12:51:06Z</time>
      </trkpt>
      <trkpt lat="45.94261" lon="-0.95709">
        <ele>6.9</ele>
        <time>2022-06-21T12:51:07Z</time>
      </trkpt>
      <trkpt lat="45.94261" lon="-0.95709">
        <ele>6.9</ele>
        <time>2022-06-21T12:51:08Z</time>
      </trkpt>
      <trkpt lat="45.94261" lon="-0.95709">
        <ele>6.9</ele>
        <time>2022-06-21T12:51:09Z</time>
      </trkpt>
      <trkpt lat="45.94261" lon="-0.95709">
        <ele>6.9</ele>
        <time>2022-06-21T12:51:10Z</time>
      </trkpt>
      <trkpt lat="45.94262" lon="-0.95709">
        <ele>6.9</ele>
        <time>2022-06-21T12:51:11Z</time>
      </trkpt>
      <trkpt lat="45.94262" lon="-0.95708">
        <ele>6.9</ele>
        <time>2022-06-21T12:51:12Z</time>
      </trkpt>
      <trkpt lat="45.94262" lon="-0.95708">
        <ele>6.9</ele>
        <time>2022-06-21T12:51:13Z</time>
      </trkpt>
      <trkpt lat="45.94262" lon="-0.95708">
        <ele>6.9</ele>
        <time>2022-06-21T12:51:14Z</time>
      </trkpt>
      <trkpt lat="45.94262" lon="-0.95708">
        <ele>6.9</ele>
        <time>2022-06-21T12:51:15Z</time>
      </trkpt>
      <trkpt lat="45.94262" lon="-0.95708">
        <ele>6.9</ele>
        <time>2022-06-21T12:51:16Z</time>
      </trkpt>
      <trkpt lat="45.94262" lon="-0.95708">
        <ele>6.9</ele>
        <time>2022-06-21T12:51:17Z</time>
      </trkpt>
      <trkpt lat="45.94262" lon="-0.95708">
        <ele>6.9</ele>
        <time>2022-06-21T12:51:18Z</time>
      </trkpt>
      <trkpt lat="45.94262" lon="-0.95708">
        <ele>6.9</ele>
        <time>2022-06-21T12:51:19Z</time>
      </trkpt>
      <trkpt lat="45.94262" lon="-0.95708">
        <ele>6.9</ele>
        <time>2022-06-21T12:51:20Z</time>
      </trkpt>
      <trkpt lat="45.94262" lon="-0.95708">
        <ele>6.9</ele>
        <time>2022-06-21T12:51:21Z</time>
      </trkpt>
      <trkpt lat="45.94262" lon="-0.95708">
        <ele>6.9</ele>
        <time>2022-06-21T12:51:22Z</time>
      </trkpt>
      <trkpt lat="45.94262" lon="-0.95708">
        <ele>6.9</ele>
        <time>2022-06-21T12:51:23Z</time>
      </trkpt>
      <trkpt lat="45.94262" lon="-0.95708">
        <ele>6.9</ele>
        <time>2022-06-21T12:51:24Z</time>
      </trkpt>
      <trkpt lat="45.94262" lon="-0.95708">
        <ele>6.9</ele>
        <time>2022-06-21T12:51:25Z</time>
      </trkpt>
      <trkpt lat="45.94262" lon="-0.95708">
        <ele>6.9</ele>
        <time>2022-06-21T12:51:26Z</time>
      </trkpt>
      <trkpt lat="45.94262" lon="-0.95708">
        <ele>6.9</ele>
        <time>2022-06-21T12:51:27Z</time>
      </trkpt>
      <trkpt lat="45.94262" lon="-0.95708">
        <ele>6.9</ele>
        <time>2022-06-21T12:51:28Z</time>
      </trkpt>
      <trkpt lat="45.94262" lon="-0.95708">
        <ele>6.9</ele>
        <time>2022-06-21T12:51:29Z</time>
      </trkpt>
      <trkpt lat="45.94262" lon="-0.95708">
        <ele>6.9</ele>
        <time>2022-06-21T12:51:30Z</time>
      </trkpt>
      <trkpt lat="45.94262" lon="-0.95708">
        <ele>6.9</ele>
        <time>2022-06-21T12:51:31Z</time>
      </trkpt>
      <trkpt lat="45.94262" lon="-0.95708">
        <ele>6.9</ele>
        <time>2022-06-21T12:51:32Z</time>
      </trkpt>
      <trkpt lat="45.94262" lon="-0.95708">
        <ele>6.9</ele>
        <time>2022-06-21T12:51:33Z</time>
      </trkpt>
      <trkpt lat="45.94262" lon="-0.95708">
        <ele>6.9</ele>
        <time>2022-06-21T12:51:34Z</time>
      </trkpt>
      <trkpt lat="45.94262" lon="-0.95708">
        <ele>6.9</ele>
        <time>2022-06-21T12:51:35Z</time>
      </trkpt>
      <trkpt lat="45.94262" lon="-0.95708">
        <ele>6.9</ele>
        <time>2022-06-21T12:51:36Z</time>
      </trkpt>
      <trkpt lat="45.94262" lon="-0.95708">
        <ele>6.9</ele>
        <time>2022-06-21T12:51:37Z</time>
      </trkpt>
      <trkpt lat="45.94262" lon="-0.95708">
        <ele>6.9</ele>
        <time>2022-06-21T12:51:38Z</time>
      </trkpt>
      <trkpt lat="45.94262" lon="-0.95708">
        <ele>6.9</ele>
        <time>2022-06-21T12:51:39Z</time>
      </trkpt>
      <trkpt lat="45.94262" lon="-0.95708">
        <ele>6.9</ele>
        <time>2022-06-21T12:51:40Z</time>
      </trkpt>
      <trkpt lat="45.94262" lon="-0.95708">
        <ele>6.9</ele>
        <time>2022-06-21T12:51:41Z</time>
      </trkpt>
      <trkpt lat="45.94262" lon="-0.95708">
        <ele>6.9</ele>
        <time>2022-06-21T12:51:42Z</time>
      </trkpt>
      <trkpt lat="45.94262" lon="-0.95708">
        <ele>6.9</ele>
        <time>2022-06-21T12:51:43Z</time>
      </trkpt>
      <trkpt lat="45.94262" lon="-0.95708">
        <ele>6.9</ele>
        <time>2022-06-21T12:51:44Z</time>
      </trkpt>
      <trkpt lat="45.94262" lon="-0.95709">
        <ele>6.9</ele>
        <time>2022-06-21T12:51:45Z</time>
      </trkpt>
      <trkpt lat="45.94262" lon="-0.95709">
        <ele>6.9</ele>
        <time>2022-06-21T12:51:46Z</time>
      </trkpt>
      <trkpt lat="45.94262" lon="-0.95709">
        <ele>6.8</ele>
        <time>2022-06-21T12:51:47Z</time>
      </trkpt>
      <trkpt lat="45.94262" lon="-0.95708">
        <ele>6.8</ele>
        <time>2022-06-21T12:51:48Z</time>
      </trkpt>
      <trkpt lat="45.94262" lon="-0.95708">
        <ele>6.8</ele>
        <time>2022-06-21T12:51:49Z</time>
      </trkpt>
      <trkpt lat="45.94262" lon="-0.95708">
        <ele>6.8</ele>
        <time>2022-06-21T12:51:50Z</time>
      </trkpt>
      <trkpt lat="45.94262" lon="-0.95708">
        <ele>6.8</ele>
        <time>2022-06-21T12:51:51Z</time>
      </trkpt>
      <trkpt lat="45.94262" lon="-0.95708">
        <ele>6.8</ele>
        <time>2022-06-21T12:51:52Z</time>
      </trkpt>
      <trkpt lat="45.94262" lon="-0.95708">
        <ele>6.8</ele>
        <time>2022-06-21T12:51:53Z</time>
      </trkpt>
      <trkpt lat="45.94262" lon="-0.95708">
        <ele>6.8</ele>
        <time>2022-06-21T12:51:54Z</time>
      </trkpt>
      <trkpt lat="45.94262" lon="-0.95708">
        <ele>6.8</ele>
        <time>2022-06-21T12:51:55Z</time>
      </trkpt>
      <trkpt lat="45.94263" lon="-0.95708">
        <ele>6.8</ele>
        <time>2022-06-21T12:51:56Z</time>
      </trkpt>
      <trkpt lat="45.94263" lon="-0.95707">
        <ele>6.8</ele>
        <time>2022-06-21T12:51:57Z</time>
      </trkpt>
      <trkpt lat="45.94263" lon="-0.95707">
        <ele>6.8</ele>
        <time>2022-06-21T12:51:58Z</time>
      </trkpt>
      <trkpt lat="45.94263" lon="-0.95706">
        <ele>6.8</ele>
        <time>2022-06-21T12:51:59Z</time>
      </trkpt>
      <trkpt lat="45.94264" lon="-0.95706">
        <ele>6.8</ele>
        <time>2022-06-21T12:52:01Z</time>
      </trkpt>
      <trkpt lat="45.94265" lon="-0.95706">
        <ele>6.8</ele>
        <time>2022-06-21T12:52:02Z</time>
      </trkpt>
      <trkpt lat="45.94265" lon="-0.95706">
        <ele>6.8</ele>
        <time>2022-06-21T12:52:03Z</time>
      </trkpt>
      <trkpt lat="45.94263" lon="-0.95707">
        <ele>6.8</ele>
        <time>2022-06-21T12:52:05Z</time>
      </trkpt>
      <trkpt lat="45.94263" lon="-0.95706">
        <ele>6.8</ele>
        <time>2022-06-21T12:52:06Z</time>
      </trkpt>
      <trkpt lat="45.94263" lon="-0.95706">
        <ele>6.8</ele>
        <time>2022-06-21T12:52:07Z</time>
      </trkpt>
      <trkpt lat="45.94263" lon="-0.95706">
        <ele>6.8</ele>
        <time>2022-06-21T12:52:08Z</time>
      </trkpt>
      <trkpt lat="45.94263" lon="-0.95706">
        <ele>6.8</ele>
        <time>2022-06-21T12:52:09Z</time>
      </trkpt>
      <trkpt lat="45.94263" lon="-0.95706">
        <ele>6.8</ele>
        <time>2022-06-21T12:52:10Z</time>
      </trkpt>
      <trkpt lat="45.94263" lon="-0.95707">
        <ele>6.8</ele>
        <time>2022-06-21T12:52:11Z</time>
      </trkpt>
      <trkpt lat="45.94262" lon="-0.95707">
        <ele>6.8</ele>
        <time>2022-06-21T12:52:12Z</time>
      </trkpt>
      <trkpt lat="45.94262" lon="-0.95707">
        <ele>6.8</ele>
        <time>2022-06-21T12:52:13Z</time>
      </trkpt>
      <trkpt lat="45.94262" lon="-0.95707">
        <ele>6.8</ele>
        <time>2022-06-21T12:52:14Z</time>
      </trkpt>
      <trkpt lat="45.94262" lon="-0.95707">
        <ele>6.8</ele>
        <time>2022-06-21T12:52:15Z</time>
      </trkpt>
      <trkpt lat="45.94262" lon="-0.95707">
        <ele>6.8</ele>
        <time>2022-06-21T12:52:16Z</time>
      </trkpt>
      <trkpt lat="45.94262" lon="-0.95708">
        <ele>6.8</ele>
        <time>2022-06-21T12:52:17Z</time>
      </trkpt>
      <trkpt lat="45.94262" lon="-0.95708">
        <ele>6.8</ele>
        <time>2022-06-21T12:52:18Z</time>
      </trkpt>
      <trkpt lat="45.94262" lon="-0.95708">
        <ele>6.8</ele>
        <time>2022-06-21T12:52:19Z</time>
      </trkpt>
      <trkpt lat="45.94262" lon="-0.95708">
        <ele>6.8</ele>
        <time>2022-06-21T12:52:20Z</time>
      </trkpt>
      <trkpt lat="45.94262" lon="-0.95708">
        <ele>6.8</ele>
        <time>2022-06-21T12:52:21Z</time>
      </trkpt>
      <trkpt lat="45.94262" lon="-0.95708">
        <ele>6.8</ele>
        <time>2022-06-21T12:52:22Z</time>
      </trkpt>
      <trkpt lat="45.94262" lon="-0.95708">
        <ele>6.8</ele>
        <time>2022-06-21T12:52:23Z</time>
      </trkpt>
      <trkpt lat="45.94262" lon="-0.95708">
        <ele>6.8</ele>
        <time>2022-06-21T12:52:24Z</time>
      </trkpt>
      <trkpt lat="45.94262" lon="-0.95708">
        <ele>6.8</ele>
        <time>2022-06-21T12:52:25Z</time>
      </trkpt>
      <trkpt lat="45.94262" lon="-0.95708">
        <ele>6.8</ele>
        <time>2022-06-21T12:52:26Z</time>
      </trkpt>
      <trkpt lat="45.94262" lon="-0.95708">
        <ele>6.8</ele>
        <time>2022-06-21T12:52:27Z</time>
      </trkpt>
      <trkpt lat="45.94262" lon="-0.95708">
        <ele>6.8</ele>
        <time>2022-06-21T12:52:28Z</time>
      </trkpt>
      <trkpt lat="45.94262" lon="-0.95708">
        <ele>6.8</ele>
        <time>2022-06-21T12:52:29Z</time>
      </trkpt>
      <trkpt lat="45.94262" lon="-0.95708">
        <ele>6.8</ele>
        <time>2022-06-21T12:52:30Z</time>
      </trkpt>
      <trkpt lat="45.94262" lon="-0.95708">
        <ele>6.8</ele>
        <time>2022-06-21T12:52:31Z</time>
      </trkpt>
      <trkpt lat="45.94262" lon="-0.95708">
        <ele>6.8</ele>
        <time>2022-06-21T12:52:32Z</time>
      </trkpt>
      <trkpt lat="45.94262" lon="-0.95708">
        <ele>6.8</ele>
        <time>2022-06-21T12:52:33Z</time>
      </trkpt>
      <trkpt lat="45.94262" lon="-0.95708">
        <ele>6.8</ele>
        <time>2022-06-21T12:52:34Z</time>
      </trkpt>
      <trkpt lat="45.94262" lon="-0.95708">
        <ele>6.8</ele>
        <time>2022-06-21T12:52:35Z</time>
      </trkpt>
      <trkpt lat="45.94262" lon="-0.95708">
        <ele>6.8</ele>
        <time>2022-06-21T12:52:36Z</time>
      </trkpt>
      <trkpt lat="45.94262" lon="-0.95708">
        <ele>6.8</ele>
        <time>2022-06-21T12:52:37Z</time>
      </trkpt>
      <trkpt lat="45.94262" lon="-0.95708">
        <ele>6.8</ele>
        <time>2022-06-21T12:52:38Z</time>
      </trkpt>
      <trkpt lat="45.94262" lon="-0.95708">
        <ele>6.8</ele>
        <time>2022-06-21T12:52:39Z</time>
      </trkpt>
      <trkpt lat="45.94262" lon="-0.95708">
        <ele>6.8</ele>
        <time>2022-06-21T12:52:40Z</time>
      </trkpt>
      <trkpt lat="45.94262" lon="-0.95708">
        <ele>6.8</ele>
        <time>2022-06-21T12:52:41Z</time>
      </trkpt>
      <trkpt lat="45.94262" lon="-0.95708">
        <ele>6.8</ele>
        <time>2022-06-21T12:52:42Z</time>
      </trkpt>
      <trkpt lat="45.94262" lon="-0.95708">
        <ele>6.8</ele>
        <time>2022-06-21T12:52:43Z</time>
      </trkpt>
      <trkpt lat="45.94262" lon="-0.95708">
        <ele>6.8</ele>
        <time>2022-06-21T12:52:44Z</time>
      </trkpt>
      <trkpt lat="45.94262" lon="-0.95708">
        <ele>6.8</ele>
        <time>2022-06-21T12:52:45Z</time>
      </trkpt>
      <trkpt lat="45.94262" lon="-0.95708">
        <ele>6.8</ele>
        <time>2022-06-21T12:52:46Z</time>
      </trkpt>
      <trkpt lat="45.94262" lon="-0.95708">
        <ele>6.8</ele>
        <time>2022-06-21T12:52:47Z</time>
      </trkpt>
      <trkpt lat="45.94262" lon="-0.95708">
        <ele>6.8</ele>
        <time>2022-06-21T12:52:48Z</time>
      </trkpt>
      <trkpt lat="45.94262" lon="-0.95708">
        <ele>6.8</ele>
        <time>2022-06-21T12:52:49Z</time>
      </trkpt>
      <trkpt lat="45.94262" lon="-0.95708">
        <ele>6.8</ele>
        <time>2022-06-21T12:52:50Z</time>
      </trkpt>
      <trkpt lat="45.94262" lon="-0.95708">
        <ele>6.8</ele>
        <time>2022-06-21T12:52:51Z</time>
      </trkpt>
      <trkpt lat="45.94262" lon="-0.95708">
        <ele>6.8</ele>
        <time>2022-06-21T12:52:52Z</time>
      </trkpt>
      <trkpt lat="45.94262" lon="-0.95708">
        <ele>6.8</ele>
        <time>2022-06-21T12:52:53Z</time>
      </trkpt>
      <trkpt lat="45.94262" lon="-0.95708">
        <ele>6.8</ele>
        <time>2022-06-21T12:52:54Z</time>
      </trkpt>
      <trkpt lat="45.94262" lon="-0.95708">
        <ele>6.8</ele>
        <time>2022-06-21T12:52:55Z</time>
      </trkpt>
      <trkpt lat="45.94262" lon="-0.95708">
        <ele>6.8</ele>
        <time>2022-06-21T12:52:56Z</time>
      </trkpt>
      <trkpt lat="45.94262" lon="-0.95708">
        <ele>6.8</ele>
        <time>2022-06-21T12:52:57Z</time>
      </trkpt>
      <trkpt lat="45.94262" lon="-0.95708">
        <ele>6.8</ele>
        <time>2022-06-21T12:52:58Z</time>
      </trkpt>
      <trkpt lat="45.94262" lon="-0.95708">
        <ele>6.8</ele>
        <time>2022-06-21T12:52:59Z</time>
      </trkpt>
      <trkpt lat="45.9426" lon="-0.95709">
        <ele>6.8</ele>
        <time>2022-06-21T12:53:00Z</time>
      </trkpt>
      <trkpt lat="45.94259" lon="-0.9571">
        <ele>6.8</ele>
        <time>2022-06-21T12:53:01Z</time>
      </trkpt>
      <trkpt lat="45.94259" lon="-0.9571">
        <ele>6.8</ele>
        <time>2022-06-21T12:53:02Z</time>
      </trkpt>
      <trkpt lat="45.94258" lon="-0.9571">
        <ele>6.8</ele>
        <time>2022-06-21T12:53:03Z</time>
      </trkpt>
      <trkpt lat="45.94258" lon="-0.9571">
        <ele>6.8</ele>
        <time>2022-06-21T12:53:04Z</time>
      </trkpt>
      <trkpt lat="45.94259" lon="-0.95711">
        <ele>6.8</ele>
        <time>2022-06-21T12:53:05Z</time>
      </trkpt>
      <trkpt lat="45.94259" lon="-0.95711">
        <ele>6.8</ele>
        <time>2022-06-21T12:53:06Z</time>
      </trkpt>
      <trkpt lat="45.94259" lon="-0.95711">
        <ele>6.8</ele>
        <time>2022-06-21T12:53:07Z</time>
      </trkpt>
      <trkpt lat="45.94259" lon="-0.95711">
        <ele>6.8</ele>
        <time>2022-06-21T12:53:08Z</time>
      </trkpt>
      <trkpt lat="45.94259" lon="-0.95711">
        <ele>6.8</ele>
        <time>2022-06-21T12:53:09Z</time>
      </trkpt>
      <trkpt lat="45.94259" lon="-0.95711">
        <ele>6.8</ele>
        <time>2022-06-21T12:53:10Z</time>
      </trkpt>
      <trkpt lat="45.9426" lon="-0.95711">
        <ele>6.8</ele>
        <time>2022-06-21T12:53:11Z</time>
      </trkpt>
      <trkpt lat="45.9426" lon="-0.95711">
        <ele>6.8</ele>
        <time>2022-06-21T12:53:12Z</time>
      </trkpt>
      <trkpt lat="45.9426" lon="-0.95711">
        <ele>6.8</ele>
        <time>2022-06-21T12:53:13Z</time>
      </trkpt>
      <trkpt lat="45.9426" lon="-0.95711">
        <ele>6.8</ele>
        <time>2022-06-21T12:53:14Z</time>
      </trkpt>
      <trkpt lat="45.9426" lon="-0.95711">
        <ele>6.8</ele>
        <time>2022-06-21T12:53:15Z</time>
      </trkpt>
      <trkpt lat="45.9426" lon="-0.95711">
        <ele>6.8</ele>
        <time>2022-06-21T12:53:16Z</time>
      </trkpt>
      <trkpt lat="45.9426" lon="-0.95711">
        <ele>6.8</ele>
        <time>2022-06-21T12:53:17Z</time>
      </trkpt>
      <trkpt lat="45.9426" lon="-0.95711">
        <ele>6.8</ele>
        <time>2022-06-21T12:53:18Z</time>
      </trkpt>
      <trkpt lat="45.9426" lon="-0.95711">
        <ele>6.8</ele>
        <time>2022-06-21T12:53:19Z</time>
      </trkpt>
      <trkpt lat="45.9426" lon="-0.95711">
        <ele>6.8</ele>
        <time>2022-06-21T12:53:20Z</time>
      </trkpt>
      <trkpt lat="45.9426" lon="-0.95711">
        <ele>6.8</ele>
        <time>2022-06-21T12:53:21Z</time>
      </trkpt>
      <trkpt lat="45.9426" lon="-0.95711">
        <ele>6.8</ele>
        <time>2022-06-21T12:53:22Z</time>
      </trkpt>
      <trkpt lat="45.9426" lon="-0.95711">
        <ele>6.8</ele>
        <time>2022-06-21T12:53:23Z</time>
      </trkpt>
      <trkpt lat="45.9426" lon="-0.95711">
        <ele>6.8</ele>
        <time>2022-06-21T12:53:24Z</time>
      </trkpt>
      <trkpt lat="45.9426" lon="-0.95711">
        <ele>6.8</ele>
        <time>2022-06-21T12:53:25Z</time>
      </trkpt>
      <trkpt lat="45.9426" lon="-0.95711">
        <ele>6.8</ele>
        <time>2022-06-21T12:53:26Z</time>
      </trkpt>
      <trkpt lat="45.9426" lon="-0.95711">
        <ele>6.8</ele>
        <time>2022-06-21T12:53:27Z</time>
      </trkpt>
      <trkpt lat="45.9426" lon="-0.95711">
        <ele>6.8</ele>
        <time>2022-06-21T12:53:28Z</time>
      </trkpt>
      <trkpt lat="45.9426" lon="-0.95711">
        <ele>6.8</ele>
        <time>2022-06-21T12:53:29Z</time>
      </trkpt>
      <trkpt lat="45.9426" lon="-0.95711">
        <ele>6.8</ele>
        <time>2022-06-21T12:53:30Z</time>
      </trkpt>
      <trkpt lat="45.9426" lon="-0.95711">
        <ele>6.8</ele>
        <time>2022-06-21T12:53:31Z</time>
      </trkpt>
      <trkpt lat="45.9426" lon="-0.95711">
        <ele>6.8</ele>
        <time>2022-06-21T12:53:32Z</time>
      </trkpt>
      <trkpt lat="45.9426" lon="-0.95711">
        <ele>6.8</ele>
        <time>2022-06-21T12:53:33Z</time>
      </trkpt>
      <trkpt lat="45.9426" lon="-0.95711">
        <ele>6.8</ele>
        <time>2022-06-21T12:53:34Z</time>
      </trkpt>
      <trkpt lat="45.9426" lon="-0.95711">
        <ele>6.8</ele>
        <time>2022-06-21T12:53:35Z</time>
      </trkpt>
      <trkpt lat="45.9426" lon="-0.95711">
        <ele>6.8</ele>
        <time>2022-06-21T12:53:36Z</time>
      </trkpt>
      <trkpt lat="45.9426" lon="-0.95711">
        <ele>6.8</ele>
        <time>2022-06-21T12:53:37Z</time>
      </trkpt>
      <trkpt lat="45.9426" lon="-0.95711">
        <ele>6.8</ele>
        <time>2022-06-21T12:53:38Z</time>
      </trkpt>
      <trkpt lat="45.9426" lon="-0.95711">
        <ele>6.8</ele>
        <time>2022-06-21T12:53:39Z</time>
      </trkpt>
      <trkpt lat="45.9426" lon="-0.95711">
        <ele>6.8</ele>
        <time>2022-06-21T12:53:40Z</time>
      </trkpt>
      <trkpt lat="45.9426" lon="-0.95711">
        <ele>6.8</ele>
        <time>2022-06-21T12:53:41Z</time>
      </trkpt>
      <trkpt lat="45.9426" lon="-0.95711">
        <ele>6.8</ele>
        <time>2022-06-21T12:53:42Z</time>
      </trkpt>
      <trkpt lat="45.9426" lon="-0.95711">
        <ele>6.8</ele>
        <time>2022-06-21T12:53:43Z</time>
      </trkpt>
      <trkpt lat="45.9426" lon="-0.95711">
        <ele>6.8</ele>
        <time>2022-06-21T12:53:44Z</time>
      </trkpt>
      <trkpt lat="45.9426" lon="-0.95711">
        <ele>6.8</ele>
        <time>2022-06-21T12:53:45Z</time>
      </trkpt>
      <trkpt lat="45.9426" lon="-0.95711">
        <ele>6.8</ele>
        <time>2022-06-21T12:53:46Z</time>
      </trkpt>
      <trkpt lat="45.9426" lon="-0.95711">
        <ele>6.7</ele>
        <time>2022-06-21T12:53:47Z</time>
      </trkpt>
      <trkpt lat="45.94261" lon="-0.95711">
        <ele>6.7</ele>
        <time>2022-06-21T12:53:48Z</time>
      </trkpt>
      <trkpt lat="45.94262" lon="-0.95712">
        <ele>6.7</ele>
        <time>2022-06-21T12:53:49Z</time>
      </trkpt>
      <trkpt lat="45.94262" lon="-0.95712">
        <ele>6.7</ele>
        <time>2022-06-21T12:53:50Z</time>
      </trkpt>
      <trkpt lat="45.94262" lon="-0.95712">
        <ele>6.7</ele>
        <time>2022-06-21T12:53:51Z</time>
      </trkpt>
      <trkpt lat="45.94263" lon="-0.95712">
        <ele>6.7</ele>
        <time>2022-06-21T12:53:52Z</time>
      </trkpt>
      <trkpt lat="45.94262" lon="-0.95712">
        <ele>6.7</ele>
        <time>2022-06-21T12:53:54Z</time>
      </trkpt>
      <trkpt lat="45.94262" lon="-0.95713">
        <ele>6.7</ele>
        <time>2022-06-21T12:53:56Z</time>
      </trkpt>
      <trkpt lat="45.94264" lon="-0.95714">
        <ele>6.7</ele>
        <time>2022-06-21T12:53:58Z</time>
      </trkpt>
      <trkpt lat="45.94264" lon="-0.95714">
        <ele>6.7</ele>
        <time>2022-06-21T12:53:59Z</time>
      </trkpt>
      <trkpt lat="45.94264" lon="-0.95715">
        <ele>6.7</ele>
        <time>2022-06-21T12:54:00Z</time>
      </trkpt>
      <trkpt lat="45.94264" lon="-0.95715">
        <ele>6.7</ele>
        <time>2022-06-21T12:54:01Z</time>
      </trkpt>
      <trkpt lat="45.94265" lon="-0.95714">
        <ele>6.7</ele>
        <time>2022-06-21T12:54:02Z</time>
      </trkpt>
      <trkpt lat="45.94266" lon="-0.95715">
        <ele>6.7</ele>
        <time>2022-06-21T12:54:03Z</time>
      </trkpt>
      <trkpt lat="45.94267" lon="-0.95715">
        <ele>6.7</ele>
        <time>2022-06-21T12:54:04Z</time>
      </trkpt>
      <trkpt lat="45.94267" lon="-0.95715">
        <ele>6.7</ele>
        <time>2022-06-21T12:54:05Z</time>
      </trkpt>
      <trkpt lat="45.94268" lon="-0.95715">
        <ele>6.7</ele>
        <time>2022-06-21T12:54:06Z</time>
      </trkpt>
      <trkpt lat="45.94268" lon="-0.95715">
        <ele>6.7</ele>
        <time>2022-06-21T12:54:07Z</time>
      </trkpt>
      <trkpt lat="45.94268" lon="-0.95714">
        <ele>6.7</ele>
        <time>2022-06-21T12:54:08Z</time>
      </trkpt>
      <trkpt lat="45.94268" lon="-0.95714">
        <ele>6.7</ele>
        <time>2022-06-21T12:54:09Z</time>
      </trkpt>
      <trkpt lat="45.94268" lon="-0.95714">
        <ele>6.7</ele>
        <time>2022-06-21T12:54:10Z</time>
      </trkpt>
      <trkpt lat="45.94268" lon="-0.95714">
        <ele>6.7</ele>
        <time>2022-06-21T12:54:11Z</time>
      </trkpt>
      <trkpt lat="45.94268" lon="-0.95714">
        <ele>6.7</ele>
        <time>2022-06-21T12:54:12Z</time>
      </trkpt>
      <trkpt lat="45.94269" lon="-0.95713">
        <ele>6.7</ele>
        <time>2022-06-21T12:54:14Z</time>
      </trkpt>
      <trkpt lat="45.94269" lon="-0.95713">
        <ele>6.7</ele>
        <time>2022-06-21T12:54:15Z</time>
      </trkpt>
      <trkpt lat="45.9427" lon="-0.95714">
        <ele>6.7</ele>
        <time>2022-06-21T12:54:16Z</time>
      </trkpt>
      <trkpt lat="45.94271" lon="-0.95714">
        <ele>6.7</ele>
        <time>2022-06-21T12:54:17Z</time>
      </trkpt>
      <trkpt lat="45.94271" lon="-0.95714">
        <ele>6.6</ele>
        <time>2022-06-21T12:54:18Z</time>
      </trkpt>
      <trkpt lat="45.94272" lon="-0.95715">
        <ele>6.6</ele>
        <time>2022-06-21T12:54:19Z</time>
      </trkpt>
      <trkpt lat="45.94273" lon="-0.95714">
        <ele>6.6</ele>
        <time>2022-06-21T12:54:20Z</time>
      </trkpt>
      <trkpt lat="45.94274" lon="-0.95714">
        <ele>6.6</ele>
        <time>2022-06-21T12:54:21Z</time>
      </trkpt>
      <trkpt lat="45.94275" lon="-0.95715">
        <ele>6.6</ele>
        <time>2022-06-21T12:54:23Z</time>
      </trkpt>
      <trkpt lat="45.94277" lon="-0.95716">
        <ele>6.6</ele>
        <time>2022-06-21T12:54:24Z</time>
      </trkpt>
      <trkpt lat="45.94278" lon="-0.95717">
        <ele>6.6</ele>
        <time>2022-06-21T12:54:25Z</time>
      </trkpt>
      <trkpt lat="45.94279" lon="-0.95718">
        <ele>6.6</ele>
        <time>2022-06-21T12:54:27Z</time>
      </trkpt>
      <trkpt lat="45.9428" lon="-0.95719">
        <ele>6.6</ele>
        <time>2022-06-21T12:54:28Z</time>
      </trkpt>
      <trkpt lat="45.94282" lon="-0.95721">
        <ele>6.6</ele>
        <time>2022-06-21T12:54:29Z</time>
      </trkpt>
      <trkpt lat="45.94283" lon="-0.95722">
        <ele>6.6</ele>
        <time>2022-06-21T12:54:30Z</time>
      </trkpt>
      <trkpt lat="45.94283" lon="-0.95723">
        <ele>6.6</ele>
        <time>2022-06-21T12:54:31Z</time>
      </trkpt>
      <trkpt lat="45.94284" lon="-0.95724">
        <ele>6.6</ele>
        <time>2022-06-21T12:54:33Z</time>
      </trkpt>
      <trkpt lat="45.94284" lon="-0.95726">
        <ele>6.6</ele>
        <time>2022-06-21T12:54:34Z</time>
      </trkpt>
      <trkpt lat="45.94285" lon="-0.95727">
        <ele>6.5</ele>
        <time>2022-06-21T12:54:35Z</time>
      </trkpt>
      <trkpt lat="45.94286" lon="-0.95728">
        <ele>6.5</ele>
        <time>2022-06-21T12:54:36Z</time>
      </trkpt>
      <trkpt lat="45.94287" lon="-0.95729">
        <ele>6.5</ele>
        <time>2022-06-21T12:54:37Z</time>
      </trkpt>
      <trkpt lat="45.94289" lon="-0.9573">
        <ele>6.5</ele>
        <time>2022-06-21T12:54:38Z</time>
      </trkpt>
      <trkpt lat="45.9429" lon="-0.95731">
        <ele>6.5</ele>
        <time>2022-06-21T12:54:39Z</time>
      </trkpt>
      <trkpt lat="45.94291" lon="-0.95731">
        <ele>6.5</ele>
        <time>2022-06-21T12:54:41Z</time>
      </trkpt>
      <trkpt lat="45.94292" lon="-0.95732">
        <ele>6.5</ele>
        <time>2022-06-21T12:54:42Z</time>
      </trkpt>
      <trkpt lat="45.94293" lon="-0.95733">
        <ele>6.5</ele>
        <time>2022-06-21T12:54:43Z</time>
      </trkpt>
      <trkpt lat="45.94295" lon="-0.95734">
        <ele>6.5</ele>
        <time>2022-06-21T12:54:44Z</time>
      </trkpt>
      <trkpt lat="45.94296" lon="-0.95734">
        <ele>6.5</ele>
        <time>2022-06-21T12:54:45Z</time>
      </trkpt>
      <trkpt lat="45.94297" lon="-0.95735">
        <ele>6.5</ele>
        <time>2022-06-21T12:54:46Z</time>
      </trkpt>
      <trkpt lat="45.94298" lon="-0.95737">
        <ele>6.5</ele>
        <time>2022-06-21T12:54:48Z</time>
      </trkpt>
      <trkpt lat="45.94299" lon="-0.95738">
        <ele>6.5</ele>
        <time>2022-06-21T12:54:49Z</time>
      </trkpt>
      <trkpt lat="45.943" lon="-0.95739">
        <ele>6.5</ele>
        <time>2022-06-21T12:54:50Z</time>
      </trkpt>
      <trkpt lat="45.94301" lon="-0.9574">
        <ele>6.5</ele>
        <time>2022-06-21T12:54:51Z</time>
      </trkpt>
      <trkpt lat="45.94302" lon="-0.95741">
        <ele>6.5</ele>
        <time>2022-06-21T12:54:52Z</time>
      </trkpt>
      <trkpt lat="45.94303" lon="-0.95742">
        <ele>6.5</ele>
        <time>2022-06-21T12:54:53Z</time>
      </trkpt>
      <trkpt lat="45.94304" lon="-0.95743">
        <ele>6.5</ele>
        <time>2022-06-21T12:54:54Z</time>
      </trkpt>
      <trkpt lat="45.94305" lon="-0.95744">
        <ele>6.5</ele>
        <time>2022-06-21T12:54:55Z</time>
      </trkpt>
      <trkpt lat="45.94306" lon="-0.95744">
        <ele>6.4</ele>
        <time>2022-06-21T12:54:56Z</time>
      </trkpt>
      <trkpt lat="45.94308" lon="-0.95746">
        <ele>6.4</ele>
        <time>2022-06-21T12:54:58Z</time>
      </trkpt>
      <trkpt lat="45.94309" lon="-0.95747">
        <ele>6.4</ele>
        <time>2022-06-21T12:54:59Z</time>
      </trkpt>
      <trkpt lat="45.94311" lon="-0.95749">
        <ele>6.4</ele>
        <time>2022-06-21T12:55:01Z</time>
      </trkpt>
      <trkpt lat="45.94311" lon="-0.9575">
        <ele>6.4</ele>
        <time>2022-06-21T12:55:02Z</time>
      </trkpt>
      <trkpt lat="45.94312" lon="-0.9575">
        <ele>6.4</ele>
        <time>2022-06-21T12:55:03Z</time>
      </trkpt>
      <trkpt lat="45.94313" lon="-0.95751">
        <ele>6.4</ele>
        <time>2022-06-21T12:55:04Z</time>
      </trkpt>
      <trkpt lat="45.94314" lon="-0.95752">
        <ele>6.4</ele>
        <time>2022-06-21T12:55:05Z</time>
      </trkpt>
      <trkpt lat="45.94315" lon="-0.95753">
        <ele>6.4</ele>
        <time>2022-06-21T12:55:06Z</time>
      </trkpt>
      <trkpt lat="45.94316" lon="-0.95753">
        <ele>6.4</ele>
        <time>2022-06-21T12:55:08Z</time>
      </trkpt>
      <trkpt lat="45.94317" lon="-0.95754">
        <ele>6.4</ele>
        <time>2022-06-21T12:55:09Z</time>
      </trkpt>
      <trkpt lat="45.94318" lon="-0.95755">
        <ele>6.4</ele>
        <time>2022-06-21T12:55:10Z</time>
      </trkpt>
      <trkpt lat="45.94319" lon="-0.95756">
        <ele>6.4</ele>
        <time>2022-06-21T12:55:11Z</time>
      </trkpt>
      <trkpt lat="45.94319" lon="-0.95756">
        <ele>6.4</ele>
        <time>2022-06-21T12:55:12Z</time>
      </trkpt>
      <trkpt lat="45.9432" lon="-0.95757">
        <ele>6.4</ele>
        <time>2022-06-21T12:55:13Z</time>
      </trkpt>
      <trkpt lat="45.94322" lon="-0.95759">
        <ele>6.4</ele>
        <time>2022-06-21T12:55:14Z</time>
      </trkpt>
      <trkpt lat="45.94323" lon="-0.9576">
        <ele>6.4</ele>
        <time>2022-06-21T12:55:16Z</time>
      </trkpt>
      <trkpt lat="45.94323" lon="-0.9576">
        <ele>6.4</ele>
        <time>2022-06-21T12:55:17Z</time>
      </trkpt>
      <trkpt lat="45.94325" lon="-0.95762">
        <ele>6.4</ele>
        <time>2022-06-21T12:55:18Z</time>
      </trkpt>
      <trkpt lat="45.94326" lon="-0.95763">
        <ele>6.4</ele>
        <time>2022-06-21T12:55:19Z</time>
      </trkpt>
      <trkpt lat="45.94327" lon="-0.95763">
        <ele>6.4</ele>
        <time>2022-06-21T12:55:20Z</time>
      </trkpt>
      <trkpt lat="45.94328" lon="-0.95764">
        <ele>6.4</ele>
        <time>2022-06-21T12:55:21Z</time>
      </trkpt>
      <trkpt lat="45.9433" lon="-0.95765">
        <ele>6.4</ele>
        <time>2022-06-21T12:55:22Z</time>
      </trkpt>
      <trkpt lat="45.94331" lon="-0.95766">
        <ele>6.4</ele>
        <time>2022-06-21T12:55:23Z</time>
      </trkpt>
      <trkpt lat="45.94332" lon="-0.95767">
        <ele>6.4</ele>
        <time>2022-06-21T12:55:25Z</time>
      </trkpt>
      <trkpt lat="45.94333" lon="-0.95768">
        <ele>6.4</ele>
        <time>2022-06-21T12:55:26Z</time>
      </trkpt>
      <trkpt lat="45.94334" lon="-0.95769">
        <ele>6.4</ele>
        <time>2022-06-21T12:55:27Z</time>
      </trkpt>
      <trkpt lat="45.94334" lon="-0.9577">
        <ele>6.4</ele>
        <time>2022-06-21T12:55:28Z</time>
      </trkpt>
      <trkpt lat="45.94335" lon="-0.95771">
        <ele>6.4</ele>
        <time>2022-06-21T12:55:29Z</time>
      </trkpt>
      <trkpt lat="45.94336" lon="-0.95772">
        <ele>6.4</ele>
        <time>2022-06-21T12:55:30Z</time>
      </trkpt>
      <trkpt lat="45.94337" lon="-0.95773">
        <ele>6.4</ele>
        <time>2022-06-21T12:55:32Z</time>
      </trkpt>
      <trkpt lat="45.94338" lon="-0.95774">
        <ele>6.4</ele>
        <time>2022-06-21T12:55:33Z</time>
      </trkpt>
      <trkpt lat="45.94339" lon="-0.95775">
        <ele>6.4</ele>
        <time>2022-06-21T12:55:34Z</time>
      </trkpt>
      <trkpt lat="45.9434" lon="-0.95776">
        <ele>6.4</ele>
        <time>2022-06-21T12:55:35Z</time>
      </trkpt>
      <trkpt lat="45.9434" lon="-0.95777">
        <ele>6.4</ele>
        <time>2022-06-21T12:55:36Z</time>
      </trkpt>
      <trkpt lat="45.94341" lon="-0.95777">
        <ele>6.4</ele>
        <time>2022-06-21T12:55:37Z</time>
      </trkpt>
      <trkpt lat="45.94341" lon="-0.95778">
        <ele>6.4</ele>
        <time>2022-06-21T12:55:38Z</time>
      </trkpt>
      <trkpt lat="45.94342" lon="-0.95779">
        <ele>6.4</ele>
        <time>2022-06-21T12:55:39Z</time>
      </trkpt>
      <trkpt lat="45.94342" lon="-0.95781">
        <ele>6.4</ele>
        <time>2022-06-21T12:55:40Z</time>
      </trkpt>
      <trkpt lat="45.94344" lon="-0.95782">
        <ele>6.4</ele>
        <time>2022-06-21T12:55:41Z</time>
      </trkpt>
      <trkpt lat="45.94344" lon="-0.95783">
        <ele>6.4</ele>
        <time>2022-06-21T12:55:42Z</time>
      </trkpt>
      <trkpt lat="45.94345" lon="-0.95784">
        <ele>6.4</ele>
        <time>2022-06-21T12:55:44Z</time>
      </trkpt>
      <trkpt lat="45.94346" lon="-0.95785">
        <ele>6.4</ele>
        <time>2022-06-21T12:55:45Z</time>
      </trkpt>
      <trkpt lat="45.94346" lon="-0.95785">
        <ele>6.4</ele>
        <time>2022-06-21T12:55:46Z</time>
      </trkpt>
      <trkpt lat="45.94347" lon="-0.95787">
        <ele>6.4</ele>
        <time>2022-06-21T12:55:47Z</time>
      </trkpt>
      <trkpt lat="45.94348" lon="-0.95787">
        <ele>6.4</ele>
        <time>2022-06-21T12:55:48Z</time>
      </trkpt>
      <trkpt lat="45.9435" lon="-0.95787">
        <ele>6.4</ele>
        <time>2022-06-21T12:55:49Z</time>
      </trkpt>
      <trkpt lat="45.94351" lon="-0.95788">
        <ele>6.4</ele>
        <time>2022-06-21T12:55:50Z</time>
      </trkpt>
      <trkpt lat="45.94351" lon="-0.95789">
        <ele>6.4</ele>
        <time>2022-06-21T12:55:52Z</time>
      </trkpt>
      <trkpt lat="45.94352" lon="-0.9579">
        <ele>6.4</ele>
        <time>2022-06-21T12:55:53Z</time>
      </trkpt>
      <trkpt lat="45.94353" lon="-0.95791">
        <ele>6.4</ele>
        <time>2022-06-21T12:55:55Z</time>
      </trkpt>
      <trkpt lat="45.94354" lon="-0.95792">
        <ele>6.4</ele>
        <time>2022-06-21T12:55:56Z</time>
      </trkpt>
      <trkpt lat="45.94356" lon="-0.95793">
        <ele>6.4</ele>
        <time>2022-06-21T12:55:57Z</time>
      </trkpt>
      <trkpt lat="45.94358" lon="-0.95795">
        <ele>6.4</ele>
        <time>2022-06-21T12:55:58Z</time>
      </trkpt>
      <trkpt lat="45.94359" lon="-0.95796">
        <ele>6.3</ele>
        <time>2022-06-21T12:55:59Z</time>
      </trkpt>
      <trkpt lat="45.94359" lon="-0.95797">
        <ele>6.3</ele>
        <time>2022-06-21T12:56:00Z</time>
      </trkpt>
      <trkpt lat="45.94361" lon="-0.95799">
        <ele>6.3</ele>
        <time>2022-06-21T12:56:01Z</time>
      </trkpt>
      <trkpt lat="45.94362" lon="-0.958">
        <ele>6.3</ele>
        <time>2022-06-21T12:56:03Z</time>
      </trkpt>
      <trkpt lat="45.94363" lon="-0.95801">
        <ele>6.3</ele>
        <time>2022-06-21T12:56:04Z</time>
      </trkpt>
      <trkpt lat="45.94364" lon="-0.95802">
        <ele>6.3</ele>
        <time>2022-06-21T12:56:05Z</time>
      </trkpt>
      <trkpt lat="45.94365" lon="-0.95803">
        <ele>6.3</ele>
        <time>2022-06-21T12:56:06Z</time>
      </trkpt>
      <trkpt lat="45.94366" lon="-0.95804">
        <ele>6.3</ele>
        <time>2022-06-21T12:56:07Z</time>
      </trkpt>
      <trkpt lat="45.94367" lon="-0.95806">
        <ele>6.2</ele>
        <time>2022-06-21T12:56:08Z</time>
      </trkpt>
      <trkpt lat="45.94369" lon="-0.95807">
        <ele>6.2</ele>
        <time>2022-06-21T12:56:09Z</time>
      </trkpt>
      <trkpt lat="45.94369" lon="-0.95807">
        <ele>6.2</ele>
        <time>2022-06-21T12:56:11Z</time>
      </trkpt>
      <trkpt lat="45.9437" lon="-0.95808">
        <ele>6.2</ele>
        <time>2022-06-21T12:56:12Z</time>
      </trkpt>
      <trkpt lat="45.94371" lon="-0.95809">
        <ele>6.2</ele>
        <time>2022-06-21T12:56:13Z</time>
      </trkpt>
      <trkpt lat="45.94372" lon="-0.9581">
        <ele>6.2</ele>
        <time>2022-06-21T12:56:14Z</time>
      </trkpt>
      <trkpt lat="45.94374" lon="-0.95813">
        <ele>6.2</ele>
        <time>2022-06-21T12:56:15Z</time>
      </trkpt>
      <trkpt lat="45.94376" lon="-0.95813">
        <ele>6.1</ele>
        <time>2022-06-21T12:56:17Z</time>
      </trkpt>
      <trkpt lat="45.94377" lon="-0.95814">
        <ele>6.1</ele>
        <time>2022-06-21T12:56:18Z</time>
      </trkpt>
      <trkpt lat="45.94378" lon="-0.95815">
        <ele>6.1</ele>
        <time>2022-06-21T12:56:20Z</time>
      </trkpt>
      <trkpt lat="45.94379" lon="-0.95816">
        <ele>6.1</ele>
        <time>2022-06-21T12:56:21Z</time>
      </trkpt>
      <trkpt lat="45.9438" lon="-0.95818">
        <ele>6.1</ele>
        <time>2022-06-21T12:56:23Z</time>
      </trkpt>
      <trkpt lat="45.94381" lon="-0.95819">
        <ele>6.1</ele>
        <time>2022-06-21T12:56:24Z</time>
      </trkpt>
      <trkpt lat="45.94382" lon="-0.9582">
        <ele>6.1</ele>
        <time>2022-06-21T12:56:25Z</time>
      </trkpt>
      <trkpt lat="45.94383" lon="-0.95822">
        <ele>6</ele>
        <time>2022-06-21T12:56:26Z</time>
      </trkpt>
      <trkpt lat="45.94385" lon="-0.95823">
        <ele>6</ele>
        <time>2022-06-21T12:56:28Z</time>
      </trkpt>
      <trkpt lat="45.94386" lon="-0.95824">
        <ele>6</ele>
        <time>2022-06-21T12:56:29Z</time>
      </trkpt>
      <trkpt lat="45.94386" lon="-0.95825">
        <ele>6</ele>
        <time>2022-06-21T12:56:30Z</time>
      </trkpt>
      <trkpt lat="45.94387" lon="-0.95826">
        <ele>6</ele>
        <time>2022-06-21T12:56:31Z</time>
      </trkpt>
      <trkpt lat="45.94388" lon="-0.95828">
        <ele>6</ele>
        <time>2022-06-21T12:56:33Z</time>
      </trkpt>
      <trkpt lat="45.9439" lon="-0.9583">
        <ele>6</ele>
        <time>2022-06-21T12:56:34Z</time>
      </trkpt>
      <trkpt lat="45.9439" lon="-0.95831">
        <ele>5.9</ele>
        <time>2022-06-21T12:56:35Z</time>
      </trkpt>
      <trkpt lat="45.94391" lon="-0.95832">
        <ele>5.9</ele>
        <time>2022-06-21T12:56:36Z</time>
      </trkpt>
      <trkpt lat="45.94392" lon="-0.95833">
        <ele>5.9</ele>
        <time>2022-06-21T12:56:38Z</time>
      </trkpt>
      <trkpt lat="45.94392" lon="-0.95835">
        <ele>5.9</ele>
        <time>2022-06-21T12:56:39Z</time>
      </trkpt>
      <trkpt lat="45.94393" lon="-0.95837">
        <ele>5.9</ele>
        <time>2022-06-21T12:56:40Z</time>
      </trkpt>
      <trkpt lat="45.94394" lon="-0.95838">
        <ele>5.9</ele>
        <time>2022-06-21T12:56:41Z</time>
      </trkpt>
      <trkpt lat="45.94394" lon="-0.95839">
        <ele>5.9</ele>
        <time>2022-06-21T12:56:42Z</time>
      </trkpt>
      <trkpt lat="45.94396" lon="-0.95842">
        <ele>5.9</ele>
        <time>2022-06-21T12:56:43Z</time>
      </trkpt>
      <trkpt lat="45.94396" lon="-0.95843">
        <ele>5.9</ele>
        <time>2022-06-21T12:56:44Z</time>
      </trkpt>
      <trkpt lat="45.94397" lon="-0.95845">
        <ele>5.8</ele>
        <time>2022-06-21T12:56:46Z</time>
      </trkpt>
      <trkpt lat="45.94397" lon="-0.95846">
        <ele>5.8</ele>
        <time>2022-06-21T12:56:47Z</time>
      </trkpt>
      <trkpt lat="45.94398" lon="-0.95847">
        <ele>5.8</ele>
        <time>2022-06-21T12:56:48Z</time>
      </trkpt>
      <trkpt lat="45.94398" lon="-0.95848">
        <ele>5.8</ele>
        <time>2022-06-21T12:56:49Z</time>
      </trkpt>
      <trkpt lat="45.94399" lon="-0.9585">
        <ele>5.8</ele>
        <time>2022-06-21T12:56:51Z</time>
      </trkpt>
      <trkpt lat="45.944" lon="-0.95852">
        <ele>5.8</ele>
        <time>2022-06-21T12:56:52Z</time>
      </trkpt>
      <trkpt lat="45.94401" lon="-0.95854">
        <ele>5.8</ele>
        <time>2022-06-21T12:56:54Z</time>
      </trkpt>
      <trkpt lat="45.94401" lon="-0.95856">
        <ele>5.8</ele>
        <time>2022-06-21T12:56:55Z</time>
      </trkpt>
      <trkpt lat="45.94403" lon="-0.95858">
        <ele>5.8</ele>
        <time>2022-06-21T12:56:56Z</time>
      </trkpt>
      <trkpt lat="45.94403" lon="-0.95859">
        <ele>5.8</ele>
        <time>2022-06-21T12:56:58Z</time>
      </trkpt>
      <trkpt lat="45.94404" lon="-0.9586">
        <ele>5.8</ele>
        <time>2022-06-21T12:56:59Z</time>
      </trkpt>
      <trkpt lat="45.94404" lon="-0.95861">
        <ele>5.7</ele>
        <time>2022-06-21T12:57:00Z</time>
      </trkpt>
      <trkpt lat="45.94405" lon="-0.95862">
        <ele>5.7</ele>
        <time>2022-06-21T12:57:01Z</time>
      </trkpt>
      <trkpt lat="45.94406" lon="-0.95864">
        <ele>5.7</ele>
        <time>2022-06-21T12:57:02Z</time>
      </trkpt>
      <trkpt lat="45.94408" lon="-0.95868">
        <ele>5.7</ele>
        <time>2022-06-21T12:57:04Z</time>
      </trkpt>
      <trkpt lat="45.94409" lon="-0.95868">
        <ele>5.7</ele>
        <time>2022-06-21T12:57:05Z</time>
      </trkpt>
      <trkpt lat="45.9441" lon="-0.95869">
        <ele>5.7</ele>
        <time>2022-06-21T12:57:06Z</time>
      </trkpt>
      <trkpt lat="45.94411" lon="-0.9587">
        <ele>5.7</ele>
        <time>2022-06-21T12:57:07Z</time>
      </trkpt>
      <trkpt lat="45.94413" lon="-0.95869">
        <ele>5.7</ele>
        <time>2022-06-21T12:57:08Z</time>
      </trkpt>
      <trkpt lat="45.94417" lon="-0.95866">
        <ele>5.7</ele>
        <time>2022-06-21T12:57:10Z</time>
      </trkpt>
      <trkpt lat="45.9442" lon="-0.95864">
        <ele>5.7</ele>
        <time>2022-06-21T12:57:11Z</time>
      </trkpt>
      <trkpt lat="45.94421" lon="-0.95865">
        <ele>5.7</ele>
        <time>2022-06-21T12:57:12Z</time>
      </trkpt>
      <trkpt lat="45.94422" lon="-0.95865">
        <ele>5.7</ele>
        <time>2022-06-21T12:57:13Z</time>
      </trkpt>
      <trkpt lat="45.94422" lon="-0.95866">
        <ele>5.7</ele>
        <time>2022-06-21T12:57:14Z</time>
      </trkpt>
      <trkpt lat="45.94423" lon="-0.95867">
        <ele>5.7</ele>
        <time>2022-06-21T12:57:16Z</time>
      </trkpt>
      <trkpt lat="45.94423" lon="-0.95867">
        <ele>5.7</ele>
        <time>2022-06-21T12:57:17Z</time>
      </trkpt>
      <trkpt lat="45.94424" lon="-0.95869">
        <ele>5.7</ele>
        <time>2022-06-21T12:57:18Z</time>
      </trkpt>
      <trkpt lat="45.94424" lon="-0.9587">
        <ele>5.7</ele>
        <time>2022-06-21T12:57:19Z</time>
      </trkpt>
      <trkpt lat="45.94425" lon="-0.95871">
        <ele>5.8</ele>
        <time>2022-06-21T12:57:20Z</time>
      </trkpt>
      <trkpt lat="45.94425" lon="-0.95872">
        <ele>5.8</ele>
        <time>2022-06-21T12:57:21Z</time>
      </trkpt>
      <trkpt lat="45.94424" lon="-0.95871">
        <ele>5.8</ele>
        <time>2022-06-21T12:57:22Z</time>
      </trkpt>
      <trkpt lat="45.94424" lon="-0.95872">
        <ele>5.8</ele>
        <time>2022-06-21T12:57:24Z</time>
      </trkpt>
      <trkpt lat="45.94425" lon="-0.95873">
        <ele>5.8</ele>
        <time>2022-06-21T12:57:25Z</time>
      </trkpt>
      <trkpt lat="45.94425" lon="-0.95874">
        <ele>5.8</ele>
        <time>2022-06-21T12:57:26Z</time>
      </trkpt>
      <trkpt lat="45.94426" lon="-0.95875">
        <ele>5.8</ele>
        <time>2022-06-21T12:57:27Z</time>
      </trkpt>
      <trkpt lat="45.94427" lon="-0.95877">
        <ele>5.8</ele>
        <time>2022-06-21T12:57:28Z</time>
      </trkpt>
      <trkpt lat="45.94428" lon="-0.95879">
        <ele>5.8</ele>
        <time>2022-06-21T12:57:30Z</time>
      </trkpt>
      <trkpt lat="45.94429" lon="-0.9588">
        <ele>5.8</ele>
        <time>2022-06-21T12:57:31Z</time>
      </trkpt>
      <trkpt lat="45.94429" lon="-0.95881">
        <ele>5.8</ele>
        <time>2022-06-21T12:57:32Z</time>
      </trkpt>
      <trkpt lat="45.9443" lon="-0.95881">
        <ele>5.8</ele>
        <time>2022-06-21T12:57:33Z</time>
      </trkpt>
      <trkpt lat="45.94431" lon="-0.95879">
        <ele>5.8</ele>
        <time>2022-06-21T12:57:35Z</time>
      </trkpt>
      <trkpt lat="45.94431" lon="-0.9588">
        <ele>5.8</ele>
        <time>2022-06-21T12:57:36Z</time>
      </trkpt>
      <trkpt lat="45.94432" lon="-0.9588">
        <ele>5.8</ele>
        <time>2022-06-21T12:57:37Z</time>
      </trkpt>
      <trkpt lat="45.94432" lon="-0.9588">
        <ele>5.8</ele>
        <time>2022-06-21T12:57:38Z</time>
      </trkpt>
      <trkpt lat="45.94431" lon="-0.9588">
        <ele>5.8</ele>
        <time>2022-06-21T12:57:39Z</time>
      </trkpt>
      <trkpt lat="45.94431" lon="-0.9588">
        <ele>5.8</ele>
        <time>2022-06-21T12:57:40Z</time>
      </trkpt>
      <trkpt lat="45.94431" lon="-0.95879">
        <ele>5.8</ele>
        <time>2022-06-21T12:57:41Z</time>
      </trkpt>
      <trkpt lat="45.94431" lon="-0.95879">
        <ele>5.8</ele>
        <time>2022-06-21T12:57:43Z</time>
      </trkpt>
      <trkpt lat="45.94431" lon="-0.95878">
        <ele>5.8</ele>
        <time>2022-06-21T12:57:44Z</time>
      </trkpt>
      <trkpt lat="45.94432" lon="-0.95877">
        <ele>5.8</ele>
        <time>2022-06-21T12:57:45Z</time>
      </trkpt>
      <trkpt lat="45.94433" lon="-0.95876">
        <ele>5.8</ele>
        <time>2022-06-21T12:57:47Z</time>
      </trkpt>
      <trkpt lat="45.94433" lon="-0.95876">
        <ele>5.8</ele>
        <time>2022-06-21T12:57:48Z</time>
      </trkpt>
      <trkpt lat="45.94434" lon="-0.95876">
        <ele>5.8</ele>
        <time>2022-06-21T12:57:49Z</time>
      </trkpt>
      <trkpt lat="45.94435" lon="-0.95875">
        <ele>5.8</ele>
        <time>2022-06-21T12:57:50Z</time>
      </trkpt>
      <trkpt lat="45.94436" lon="-0.95874">
        <ele>5.7</ele>
        <time>2022-06-21T12:57:51Z</time>
      </trkpt>
      <trkpt lat="45.94437" lon="-0.95873">
        <ele>5.7</ele>
        <time>2022-06-21T12:57:53Z</time>
      </trkpt>
      <trkpt lat="45.94438" lon="-0.95873">
        <ele>5.7</ele>
        <time>2022-06-21T12:57:54Z</time>
      </trkpt>
      <trkpt lat="45.94439" lon="-0.95872">
        <ele>5.7</ele>
        <time>2022-06-21T12:57:55Z</time>
      </trkpt>
      <trkpt lat="45.9444" lon="-0.95871">
        <ele>5.7</ele>
        <time>2022-06-21T12:57:56Z</time>
      </trkpt>
      <trkpt lat="45.94441" lon="-0.9587">
        <ele>5.7</ele>
        <time>2022-06-21T12:57:57Z</time>
      </trkpt>
      <trkpt lat="45.94441" lon="-0.95869">
        <ele>5.7</ele>
        <time>2022-06-21T12:57:59Z</time>
      </trkpt>
      <trkpt lat="45.94442" lon="-0.95869">
        <ele>5.7</ele>
        <time>2022-06-21T12:58:00Z</time>
      </trkpt>
      <trkpt lat="45.94443" lon="-0.95868">
        <ele>5.7</ele>
        <time>2022-06-21T12:58:01Z</time>
      </trkpt>
      <trkpt lat="45.94444" lon="-0.95867">
        <ele>5.7</ele>
        <time>2022-06-21T12:58:02Z</time>
      </trkpt>
      <trkpt lat="45.94444" lon="-0.95866">
        <ele>5.7</ele>
        <time>2022-06-21T12:58:04Z</time>
      </trkpt>
      <trkpt lat="45.94445" lon="-0.95865">
        <ele>5.7</ele>
        <time>2022-06-21T12:58:05Z</time>
      </trkpt>
      <trkpt lat="45.94445" lon="-0.95865">
        <ele>5.7</ele>
        <time>2022-06-21T12:58:06Z</time>
      </trkpt>
      <trkpt lat="45.94446" lon="-0.95865">
        <ele>5.7</ele>
        <time>2022-06-21T12:58:07Z</time>
      </trkpt>
      <trkpt lat="45.94446" lon="-0.95866">
        <ele>5.7</ele>
        <time>2022-06-21T12:58:08Z</time>
      </trkpt>
      <trkpt lat="45.94447" lon="-0.95866">
        <ele>5.7</ele>
        <time>2022-06-21T12:58:09Z</time>
      </trkpt>
      <trkpt lat="45.94447" lon="-0.95867">
        <ele>5.7</ele>
        <time>2022-06-21T12:58:10Z</time>
      </trkpt>
      <trkpt lat="45.94447" lon="-0.95868">
        <ele>5.7</ele>
        <time>2022-06-21T12:58:11Z</time>
      </trkpt>
      <trkpt lat="45.94448" lon="-0.95868">
        <ele>5.7</ele>
        <time>2022-06-21T12:58:12Z</time>
      </trkpt>
      <trkpt lat="45.94448" lon="-0.95868">
        <ele>5.7</ele>
        <time>2022-06-21T12:58:14Z</time>
      </trkpt>
      <trkpt lat="45.94448" lon="-0.95868">
        <ele>5.7</ele>
        <time>2022-06-21T12:58:15Z</time>
      </trkpt>
      <trkpt lat="45.94448" lon="-0.95868">
        <ele>5.7</ele>
        <time>2022-06-21T12:58:16Z</time>
      </trkpt>
      <trkpt lat="45.94448" lon="-0.95868">
        <ele>5.7</ele>
        <time>2022-06-21T12:58:17Z</time>
      </trkpt>
      <trkpt lat="45.94448" lon="-0.95868">
        <ele>5.7</ele>
        <time>2022-06-21T12:58:18Z</time>
      </trkpt>
      <trkpt lat="45.94448" lon="-0.95868">
        <ele>5.7</ele>
        <time>2022-06-21T12:58:19Z</time>
      </trkpt>
      <trkpt lat="45.94448" lon="-0.95868">
        <ele>5.7</ele>
        <time>2022-06-21T12:58:20Z</time>
      </trkpt>
      <trkpt lat="45.94448" lon="-0.95868">
        <ele>5.7</ele>
        <time>2022-06-21T12:58:21Z</time>
      </trkpt>
      <trkpt lat="45.94448" lon="-0.95868">
        <ele>5.7</ele>
        <time>2022-06-21T12:58:22Z</time>
      </trkpt>
      <trkpt lat="45.94448" lon="-0.95867">
        <ele>5.7</ele>
        <time>2022-06-21T12:58:24Z</time>
      </trkpt>
      <trkpt lat="45.94448" lon="-0.95867">
        <ele>5.7</ele>
        <time>2022-06-21T12:58:25Z</time>
      </trkpt>
      <trkpt lat="45.94448" lon="-0.95867">
        <ele>5.7</ele>
        <time>2022-06-21T12:58:26Z</time>
      </trkpt>
      <trkpt lat="45.94448" lon="-0.95867">
        <ele>5.7</ele>
        <time>2022-06-21T12:58:27Z</time>
      </trkpt>
      <trkpt lat="45.94448" lon="-0.95867">
        <ele>5.7</ele>
        <time>2022-06-21T12:58:28Z</time>
      </trkpt>
      <trkpt lat="45.94448" lon="-0.95867">
        <ele>5.7</ele>
        <time>2022-06-21T12:58:29Z</time>
      </trkpt>
      <trkpt lat="45.94448" lon="-0.95867">
        <ele>5.7</ele>
        <time>2022-06-21T12:58:30Z</time>
      </trkpt>
      <trkpt lat="45.94448" lon="-0.95867">
        <ele>5.7</ele>
        <time>2022-06-21T12:58:31Z</time>
      </trkpt>
      <trkpt lat="45.94448" lon="-0.95867">
        <ele>5.7</ele>
        <time>2022-06-21T12:58:32Z</time>
      </trkpt>
      <trkpt lat="45.94448" lon="-0.95867">
        <ele>5.7</ele>
        <time>2022-06-21T12:58:33Z</time>
      </trkpt>
      <trkpt lat="45.94448" lon="-0.95867">
        <ele>5.7</ele>
        <time>2022-06-21T12:58:34Z</time>
      </trkpt>
      <trkpt lat="45.94448" lon="-0.95867">
        <ele>5.7</ele>
        <time>2022-06-21T12:58:35Z</time>
      </trkpt>
      <trkpt lat="45.94448" lon="-0.95867">
        <ele>5.7</ele>
        <time>2022-06-21T12:58:36Z</time>
      </trkpt>
      <trkpt lat="45.94448" lon="-0.95867">
        <ele>5.7</ele>
        <time>2022-06-21T12:58:37Z</time>
      </trkpt>
      <trkpt lat="45.94448" lon="-0.95867">
        <ele>5.7</ele>
        <time>2022-06-21T12:58:38Z</time>
      </trkpt>
      <trkpt lat="45.94448" lon="-0.95867">
        <ele>5.7</ele>
        <time>2022-06-21T12:58:39Z</time>
      </trkpt>
      <trkpt lat="45.94448" lon="-0.95867">
        <ele>5.7</ele>
        <time>2022-06-21T12:58:40Z</time>
      </trkpt>
      <trkpt lat="45.94448" lon="-0.95867">
        <ele>5.7</ele>
        <time>2022-06-21T12:58:41Z</time>
      </trkpt>
      <trkpt lat="45.94449" lon="-0.95867">
        <ele>5.7</ele>
        <time>2022-06-21T12:58:42Z</time>
      </trkpt>
      <trkpt lat="45.94449" lon="-0.95867">
        <ele>5.7</ele>
        <time>2022-06-21T12:58:43Z</time>
      </trkpt>
      <trkpt lat="45.94449" lon="-0.95867">
        <ele>5.7</ele>
        <time>2022-06-21T12:58:44Z</time>
      </trkpt>
      <trkpt lat="45.94449" lon="-0.95866">
        <ele>5.7</ele>
        <time>2022-06-21T12:58:45Z</time>
      </trkpt>
      <trkpt lat="45.94449" lon="-0.95866">
        <ele>5.7</ele>
        <time>2022-06-21T12:58:46Z</time>
      </trkpt>
      <trkpt lat="45.94449" lon="-0.95866">
        <ele>5.7</ele>
        <time>2022-06-21T12:58:47Z</time>
      </trkpt>
      <trkpt lat="45.94449" lon="-0.95866">
        <ele>5.7</ele>
        <time>2022-06-21T12:58:48Z</time>
      </trkpt>
      <trkpt lat="45.94449" lon="-0.95866">
        <ele>5.7</ele>
        <time>2022-06-21T12:58:49Z</time>
      </trkpt>
      <trkpt lat="45.94449" lon="-0.95866">
        <ele>5.7</ele>
        <time>2022-06-21T12:58:50Z</time>
      </trkpt>
      <trkpt lat="45.94449" lon="-0.95866">
        <ele>5.7</ele>
        <time>2022-06-21T12:58:51Z</time>
      </trkpt>
      <trkpt lat="45.94449" lon="-0.95866">
        <ele>5.7</ele>
        <time>2022-06-21T12:58:52Z</time>
      </trkpt>
      <trkpt lat="45.94449" lon="-0.95866">
        <ele>5.7</ele>
        <time>2022-06-21T12:58:53Z</time>
      </trkpt>
      <trkpt lat="45.94449" lon="-0.95866">
        <ele>5.7</ele>
        <time>2022-06-21T12:58:54Z</time>
      </trkpt>
      <trkpt lat="45.94449" lon="-0.95866">
        <ele>5.7</ele>
        <time>2022-06-21T12:58:55Z</time>
      </trkpt>
      <trkpt lat="45.94449" lon="-0.95866">
        <ele>5.7</ele>
        <time>2022-06-21T12:58:56Z</time>
      </trkpt>
      <trkpt lat="45.94449" lon="-0.95866">
        <ele>5.7</ele>
        <time>2022-06-21T12:58:57Z</time>
      </trkpt>
      <trkpt lat="45.94449" lon="-0.95866">
        <ele>5.7</ele>
        <time>2022-06-21T12:58:58Z</time>
      </trkpt>
      <trkpt lat="45.94449" lon="-0.95866">
        <ele>5.7</ele>
        <time>2022-06-21T12:58:59Z</time>
      </trkpt>
      <trkpt lat="45.94449" lon="-0.95866">
        <ele>5.7</ele>
        <time>2022-06-21T12:59:00Z</time>
      </trkpt>
      <trkpt lat="45.94449" lon="-0.95866">
        <ele>5.7</ele>
        <time>2022-06-21T12:59:01Z</time>
      </trkpt>
      <trkpt lat="45.94449" lon="-0.95866">
        <ele>5.7</ele>
        <time>2022-06-21T12:59:02Z</time>
      </trkpt>
      <trkpt lat="45.94449" lon="-0.95866">
        <ele>5.7</ele>
        <time>2022-06-21T12:59:03Z</time>
      </trkpt>
      <trkpt lat="45.94449" lon="-0.95866">
        <ele>5.7</ele>
        <time>2022-06-21T12:59:04Z</time>
      </trkpt>
      <trkpt lat="45.94449" lon="-0.95866">
        <ele>5.7</ele>
        <time>2022-06-21T12:59:05Z</time>
      </trkpt>
      <trkpt lat="45.94449" lon="-0.95865">
        <ele>5.7</ele>
        <time>2022-06-21T12:59:06Z</time>
      </trkpt>
      <trkpt lat="45.94449" lon="-0.95865">
        <ele>5.7</ele>
        <time>2022-06-21T12:59:07Z</time>
      </trkpt>
      <trkpt lat="45.94449" lon="-0.95865">
        <ele>5.7</ele>
        <time>2022-06-21T12:59:08Z</time>
      </trkpt>
      <trkpt lat="45.94449" lon="-0.95865">
        <ele>5.7</ele>
        <time>2022-06-21T12:59:09Z</time>
      </trkpt>
      <trkpt lat="45.94449" lon="-0.95865">
        <ele>5.7</ele>
        <time>2022-06-21T12:59:10Z</time>
      </trkpt>
      <trkpt lat="45.94449" lon="-0.95865">
        <ele>5.7</ele>
        <time>2022-06-21T12:59:11Z</time>
      </trkpt>
      <trkpt lat="45.94449" lon="-0.95865">
        <ele>5.7</ele>
        <time>2022-06-21T12:59:12Z</time>
      </trkpt>
      <trkpt lat="45.9445" lon="-0.95865">
        <ele>5.7</ele>
        <time>2022-06-21T12:59:13Z</time>
      </trkpt>
      <trkpt lat="45.9445" lon="-0.95865">
        <ele>5.7</ele>
        <time>2022-06-21T12:59:14Z</time>
      </trkpt>
      <trkpt lat="45.9445" lon="-0.95865">
        <ele>5.7</ele>
        <time>2022-06-21T12:59:15Z</time>
      </trkpt>
      <trkpt lat="45.9445" lon="-0.95865">
        <ele>5.7</ele>
        <time>2022-06-21T12:59:16Z</time>
      </trkpt>
      <trkpt lat="45.9445" lon="-0.95865">
        <ele>5.7</ele>
        <time>2022-06-21T12:59:17Z</time>
      </trkpt>
      <trkpt lat="45.9445" lon="-0.95865">
        <ele>5.7</ele>
        <time>2022-06-21T12:59:18Z</time>
      </trkpt>
      <trkpt lat="45.9445" lon="-0.95865">
        <ele>5.7</ele>
        <time>2022-06-21T12:59:19Z</time>
      </trkpt>
      <trkpt lat="45.9445" lon="-0.95865">
        <ele>5.7</ele>
        <time>2022-06-21T12:59:20Z</time>
      </trkpt>
      <trkpt lat="45.9445" lon="-0.95865">
        <ele>5.7</ele>
        <time>2022-06-21T12:59:21Z</time>
      </trkpt>
      <trkpt lat="45.9445" lon="-0.95865">
        <ele>5.7</ele>
        <time>2022-06-21T12:59:22Z</time>
      </trkpt>
      <trkpt lat="45.9445" lon="-0.95865">
        <ele>5.7</ele>
        <time>2022-06-21T12:59:23Z</time>
      </trkpt>
      <trkpt lat="45.9445" lon="-0.95865">
        <ele>5.7</ele>
        <time>2022-06-21T12:59:24Z</time>
      </trkpt>
      <trkpt lat="45.9445" lon="-0.95865">
        <ele>5.7</ele>
        <time>2022-06-21T12:59:25Z</time>
      </trkpt>
      <trkpt lat="45.9445" lon="-0.95865">
        <ele>5.7</ele>
        <time>2022-06-21T12:59:26Z</time>
      </trkpt>
      <trkpt lat="45.9445" lon="-0.95864">
        <ele>5.7</ele>
        <time>2022-06-21T12:59:27Z</time>
      </trkpt>
      <trkpt lat="45.9445" lon="-0.95864">
        <ele>5.7</ele>
        <time>2022-06-21T12:59:28Z</time>
      </trkpt>
      <trkpt lat="45.9445" lon="-0.95864">
        <ele>5.7</ele>
        <time>2022-06-21T12:59:29Z</time>
      </trkpt>
      <trkpt lat="45.9445" lon="-0.95864">
        <ele>5.7</ele>
        <time>2022-06-21T12:59:30Z</time>
      </trkpt>
      <trkpt lat="45.9445" lon="-0.95864">
        <ele>5.7</ele>
        <time>2022-06-21T12:59:31Z</time>
      </trkpt>
      <trkpt lat="45.9445" lon="-0.95864">
        <ele>5.7</ele>
        <time>2022-06-21T12:59:32Z</time>
      </trkpt>
      <trkpt lat="45.9445" lon="-0.95864">
        <ele>5.7</ele>
        <time>2022-06-21T12:59:33Z</time>
      </trkpt>
      <trkpt lat="45.9445" lon="-0.95864">
        <ele>5.7</ele>
        <time>2022-06-21T12:59:34Z</time>
      </trkpt>
      <trkpt lat="45.9445" lon="-0.95864">
        <ele>5.7</ele>
        <time>2022-06-21T12:59:35Z</time>
      </trkpt>
      <trkpt lat="45.94451" lon="-0.95862">
        <ele>5.6</ele>
        <time>2022-06-21T12:59:36Z</time>
      </trkpt>
      <trkpt lat="45.94451" lon="-0.95861">
        <ele>5.6</ele>
        <time>2022-06-21T12:59:37Z</time>
      </trkpt>
      <trkpt lat="45.94452" lon="-0.9586">
        <ele>5.6</ele>
        <time>2022-06-21T12:59:38Z</time>
      </trkpt>
      <trkpt lat="45.94453" lon="-0.95858">
        <ele>5.6</ele>
        <time>2022-06-21T12:59:39Z</time>
      </trkpt>
      <trkpt lat="45.94454" lon="-0.95857">
        <ele>5.6</ele>
        <time>2022-06-21T12:59:40Z</time>
      </trkpt>
      <trkpt lat="45.94454" lon="-0.95855">
        <ele>5.6</ele>
        <time>2022-06-21T12:59:41Z</time>
      </trkpt>
      <trkpt lat="45.94456" lon="-0.95853">
        <ele>5.6</ele>
        <time>2022-06-21T12:59:43Z</time>
      </trkpt>
      <trkpt lat="45.94457" lon="-0.95853">
        <ele>5.6</ele>
        <time>2022-06-21T12:59:44Z</time>
      </trkpt>
      <trkpt lat="45.94458" lon="-0.95854">
        <ele>5.6</ele>
        <time>2022-06-21T12:59:45Z</time>
      </trkpt>
      <trkpt lat="45.94458" lon="-0.95855">
        <ele>5.5</ele>
        <time>2022-06-21T12:59:46Z</time>
      </trkpt>
      <trkpt lat="45.94458" lon="-0.95855">
        <ele>5.5</ele>
        <time>2022-06-21T12:59:47Z</time>
      </trkpt>
      <trkpt lat="45.94458" lon="-0.95856">
        <ele>5.5</ele>
        <time>2022-06-21T12:59:48Z</time>
      </trkpt>
      <trkpt lat="45.94458" lon="-0.95856">
        <ele>5.5</ele>
        <time>2022-06-21T12:59:49Z</time>
      </trkpt>
      <trkpt lat="45.94457" lon="-0.95855">
        <ele>5.5</ele>
        <time>2022-06-21T12:59:50Z</time>
      </trkpt>
      <trkpt lat="45.94458" lon="-0.95854">
        <ele>5.5</ele>
        <time>2022-06-21T12:59:51Z</time>
      </trkpt>
      <trkpt lat="45.94459" lon="-0.95854">
        <ele>5.5</ele>
        <time>2022-06-21T12:59:52Z</time>
      </trkpt>
      <trkpt lat="45.9446" lon="-0.95852">
        <ele>5.5</ele>
        <time>2022-06-21T12:59:53Z</time>
      </trkpt>
      <trkpt lat="45.94461" lon="-0.95851">
        <ele>5.5</ele>
        <time>2022-06-21T12:59:55Z</time>
      </trkpt>
      <trkpt lat="45.94462" lon="-0.9585">
        <ele>5.5</ele>
        <time>2022-06-21T12:59:56Z</time>
      </trkpt>
      <trkpt lat="45.94464" lon="-0.95849">
        <ele>5.5</ele>
        <time>2022-06-21T12:59:57Z</time>
      </trkpt>
      <trkpt lat="45.94465" lon="-0.95848">
        <ele>5.4</ele>
        <time>2022-06-21T12:59:58Z</time>
      </trkpt>
      <trkpt lat="45.94467" lon="-0.95846">
        <ele>5.4</ele>
        <time>2022-06-21T12:59:59Z</time>
      </trkpt>
      <trkpt lat="45.94468" lon="-0.95845">
        <ele>5.4</ele>
        <time>2022-06-21T13:00:01Z</time>
      </trkpt>
      <trkpt lat="45.94468" lon="-0.95843">
        <ele>5.4</ele>
        <time>2022-06-21T13:00:02Z</time>
      </trkpt>
      <trkpt lat="45.94468" lon="-0.95842">
        <ele>5.4</ele>
        <time>2022-06-21T13:00:03Z</time>
      </trkpt>
      <trkpt lat="45.94469" lon="-0.95841">
        <ele>5.4</ele>
        <time>2022-06-21T13:00:04Z</time>
      </trkpt>
      <trkpt lat="45.94469" lon="-0.9584">
        <ele>5.4</ele>
        <time>2022-06-21T13:00:05Z</time>
      </trkpt>
      <trkpt lat="45.94471" lon="-0.95839">
        <ele>5.3</ele>
        <time>2022-06-21T13:00:06Z</time>
      </trkpt>
      <trkpt lat="45.94472" lon="-0.95837">
        <ele>5.3</ele>
        <time>2022-06-21T13:00:08Z</time>
      </trkpt>
      <trkpt lat="45.94475" lon="-0.95837">
        <ele>5.3</ele>
        <time>2022-06-21T13:00:09Z</time>
      </trkpt>
      <trkpt lat="45.94477" lon="-0.95834">
        <ele>5.2</ele>
        <time>2022-06-21T13:00:10Z</time>
      </trkpt>
      <trkpt lat="45.94477" lon="-0.95833">
        <ele>5.2</ele>
        <time>2022-06-21T13:00:12Z</time>
      </trkpt>
      <trkpt lat="45.94477" lon="-0.95831">
        <ele>5.2</ele>
        <time>2022-06-21T13:00:13Z</time>
      </trkpt>
      <trkpt lat="45.94478" lon="-0.9583">
        <ele>5.2</ele>
        <time>2022-06-21T13:00:14Z</time>
      </trkpt>
      <trkpt lat="45.94478" lon="-0.95828">
        <ele>5.2</ele>
        <time>2022-06-21T13:00:15Z</time>
      </trkpt>
      <trkpt lat="45.94478" lon="-0.95827">
        <ele>5.2</ele>
        <time>2022-06-21T13:00:16Z</time>
      </trkpt>
      <trkpt lat="45.94478" lon="-0.95826">
        <ele>5.2</ele>
        <time>2022-06-21T13:00:17Z</time>
      </trkpt>
      <trkpt lat="45.94477" lon="-0.95825">
        <ele>5.2</ele>
        <time>2022-06-21T13:00:18Z</time>
      </trkpt>
      <trkpt lat="45.94477" lon="-0.95824">
        <ele>5.2</ele>
        <time>2022-06-21T13:00:19Z</time>
      </trkpt>
      <trkpt lat="45.94478" lon="-0.95823">
        <ele>5.1</ele>
        <time>2022-06-21T13:00:20Z</time>
      </trkpt>
      <trkpt lat="45.94478" lon="-0.95823">
        <ele>5.1</ele>
        <time>2022-06-21T13:00:21Z</time>
      </trkpt>
      <trkpt lat="45.94479" lon="-0.95823">
        <ele>5.1</ele>
        <time>2022-06-21T13:00:22Z</time>
      </trkpt>
      <trkpt lat="45.94479" lon="-0.95823">
        <ele>5.1</ele>
        <time>2022-06-21T13:00:23Z</time>
      </trkpt>
      <trkpt lat="45.94478" lon="-0.95824">
        <ele>5.1</ele>
        <time>2022-06-21T13:00:24Z</time>
      </trkpt>
      <trkpt lat="45.94478" lon="-0.95824">
        <ele>5.1</ele>
        <time>2022-06-21T13:00:25Z</time>
      </trkpt>
      <trkpt lat="45.94478" lon="-0.95824">
        <ele>5.1</ele>
        <time>2022-06-21T13:00:26Z</time>
      </trkpt>
      <trkpt lat="45.94478" lon="-0.95825">
        <ele>5.1</ele>
        <time>2022-06-21T13:00:27Z</time>
      </trkpt>
      <trkpt lat="45.94478" lon="-0.95825">
        <ele>5.1</ele>
        <time>2022-06-21T13:00:28Z</time>
      </trkpt>
      <trkpt lat="45.94478" lon="-0.95825">
        <ele>5.1</ele>
        <time>2022-06-21T13:00:29Z</time>
      </trkpt>
      <trkpt lat="45.94477" lon="-0.95825">
        <ele>5.1</ele>
        <time>2022-06-21T13:00:30Z</time>
      </trkpt>
      <trkpt lat="45.94477" lon="-0.95825">
        <ele>5.1</ele>
        <time>2022-06-21T13:00:31Z</time>
      </trkpt>
      <trkpt lat="45.94478" lon="-0.95824">
        <ele>5.1</ele>
        <time>2022-06-21T13:00:33Z</time>
      </trkpt>
      <trkpt lat="45.94479" lon="-0.95822">
        <ele>5.1</ele>
        <time>2022-06-21T13:00:34Z</time>
      </trkpt>
      <trkpt lat="45.94479" lon="-0.9582">
        <ele>5.1</ele>
        <time>2022-06-21T13:00:35Z</time>
      </trkpt>
      <trkpt lat="45.9448" lon="-0.95816">
        <ele>5</ele>
        <time>2022-06-21T13:00:36Z</time>
      </trkpt>
      <trkpt lat="45.94481" lon="-0.95815">
        <ele>5</ele>
        <time>2022-06-21T13:00:38Z</time>
      </trkpt>
      <trkpt lat="45.94481" lon="-0.95813">
        <ele>5</ele>
        <time>2022-06-21T13:00:39Z</time>
      </trkpt>
      <trkpt lat="45.94482" lon="-0.95811">
        <ele>5</ele>
        <time>2022-06-21T13:00:40Z</time>
      </trkpt>
      <trkpt lat="45.94483" lon="-0.95809">
        <ele>5</ele>
        <time>2022-06-21T13:00:41Z</time>
      </trkpt>
      <trkpt lat="45.94484" lon="-0.95806">
        <ele>5</ele>
        <time>2022-06-21T13:00:43Z</time>
      </trkpt>
      <trkpt lat="45.94484" lon="-0.95805">
        <ele>4.9</ele>
        <time>2022-06-21T13:00:44Z</time>
      </trkpt>
      <trkpt lat="45.94485" lon="-0.95803">
        <ele>4.9</ele>
        <time>2022-06-21T13:00:45Z</time>
      </trkpt>
      <trkpt lat="45.94485" lon="-0.95801">
        <ele>4.9</ele>
        <time>2022-06-21T13:00:46Z</time>
      </trkpt>
      <trkpt lat="45.94485" lon="-0.958">
        <ele>4.9</ele>
        <time>2022-06-21T13:00:48Z</time>
      </trkpt>
      <trkpt lat="45.94486" lon="-0.95799">
        <ele>4.9</ele>
        <time>2022-06-21T13:00:49Z</time>
      </trkpt>
      <trkpt lat="45.94486" lon="-0.95798">
        <ele>4.9</ele>
        <time>2022-06-21T13:00:50Z</time>
      </trkpt>
      <trkpt lat="45.94486" lon="-0.95797">
        <ele>4.9</ele>
        <time>2022-06-21T13:00:51Z</time>
      </trkpt>
      <trkpt lat="45.94487" lon="-0.95796">
        <ele>4.9</ele>
        <time>2022-06-21T13:00:52Z</time>
      </trkpt>
      <trkpt lat="45.94487" lon="-0.95794">
        <ele>4.9</ele>
        <time>2022-06-21T13:00:53Z</time>
      </trkpt>
      <trkpt lat="45.94487" lon="-0.95793">
        <ele>4.9</ele>
        <time>2022-06-21T13:00:54Z</time>
      </trkpt>
      <trkpt lat="45.94489" lon="-0.9579">
        <ele>4.8</ele>
        <time>2022-06-21T13:00:56Z</time>
      </trkpt>
      <trkpt lat="45.94489" lon="-0.95789">
        <ele>4.8</ele>
        <time>2022-06-21T13:00:57Z</time>
      </trkpt>
      <trkpt lat="45.9449" lon="-0.95788">
        <ele>4.8</ele>
        <time>2022-06-21T13:00:58Z</time>
      </trkpt>
      <trkpt lat="45.9449" lon="-0.95787">
        <ele>4.8</ele>
        <time>2022-06-21T13:00:59Z</time>
      </trkpt>
      <trkpt lat="45.94492" lon="-0.95785">
        <ele>4.8</ele>
        <time>2022-06-21T13:01:01Z</time>
      </trkpt>
      <trkpt lat="45.94493" lon="-0.95785">
        <ele>4.8</ele>
        <time>2022-06-21T13:01:02Z</time>
      </trkpt>
      <trkpt lat="45.94495" lon="-0.95785">
        <ele>4.8</ele>
        <time>2022-06-21T13:01:03Z</time>
      </trkpt>
      <trkpt lat="45.94498" lon="-0.95785">
        <ele>4.8</ele>
        <time>2022-06-21T13:01:04Z</time>
      </trkpt>
      <trkpt lat="45.94499" lon="-0.95785">
        <ele>4.8</ele>
        <time>2022-06-21T13:01:05Z</time>
      </trkpt>
      <trkpt lat="45.945" lon="-0.95785">
        <ele>4.8</ele>
        <time>2022-06-21T13:01:07Z</time>
      </trkpt>
      <trkpt lat="45.94501" lon="-0.95785">
        <ele>4.8</ele>
        <time>2022-06-21T13:01:08Z</time>
      </trkpt>
      <trkpt lat="45.94502" lon="-0.95785">
        <ele>4.8</ele>
        <time>2022-06-21T13:01:09Z</time>
      </trkpt>
      <trkpt lat="45.94504" lon="-0.95786">
        <ele>4.8</ele>
        <time>2022-06-21T13:01:10Z</time>
      </trkpt>
      <trkpt lat="45.94504" lon="-0.95787">
        <ele>4.8</ele>
        <time>2022-06-21T13:01:11Z</time>
      </trkpt>
      <trkpt lat="45.94505" lon="-0.95788">
        <ele>4.8</ele>
        <time>2022-06-21T13:01:12Z</time>
      </trkpt>
      <trkpt lat="45.94508" lon="-0.95789">
        <ele>4.8</ele>
        <time>2022-06-21T13:01:13Z</time>
      </trkpt>
      <trkpt lat="45.94509" lon="-0.95789">
        <ele>4.8</ele>
        <time>2022-06-21T13:01:15Z</time>
      </trkpt>
      <trkpt lat="45.9451" lon="-0.9579">
        <ele>4.8</ele>
        <time>2022-06-21T13:01:16Z</time>
      </trkpt>
      <trkpt lat="45.94511" lon="-0.9579">
        <ele>4.8</ele>
        <time>2022-06-21T13:01:17Z</time>
      </trkpt>
      <trkpt lat="45.94512" lon="-0.9579">
        <ele>4.8</ele>
        <time>2022-06-21T13:01:18Z</time>
      </trkpt>
      <trkpt lat="45.94514" lon="-0.95791">
        <ele>4.8</ele>
        <time>2022-06-21T13:01:19Z</time>
      </trkpt>
      <trkpt lat="45.94515" lon="-0.95791">
        <ele>4.8</ele>
        <time>2022-06-21T13:01:20Z</time>
      </trkpt>
      <trkpt lat="45.94517" lon="-0.95792">
        <ele>4.8</ele>
        <time>2022-06-21T13:01:21Z</time>
      </trkpt>
      <trkpt lat="45.94518" lon="-0.95792">
        <ele>4.8</ele>
        <time>2022-06-21T13:01:22Z</time>
      </trkpt>
      <trkpt lat="45.9452" lon="-0.95793">
        <ele>4.9</ele>
        <time>2022-06-21T13:01:23Z</time>
      </trkpt>
      <trkpt lat="45.94522" lon="-0.95795">
        <ele>4.9</ele>
        <time>2022-06-21T13:01:25Z</time>
      </trkpt>
      <trkpt lat="45.94523" lon="-0.95799">
        <ele>5</ele>
        <time>2022-06-21T13:01:26Z</time>
      </trkpt>
      <trkpt lat="45.94523" lon="-0.958">
        <ele>5</ele>
        <time>2022-06-21T13:01:27Z</time>
      </trkpt>
      <trkpt lat="45.94524" lon="-0.95803">
        <ele>5</ele>
        <time>2022-06-21T13:01:28Z</time>
      </trkpt>
      <trkpt lat="45.94524" lon="-0.95805">
        <ele>5.1</ele>
        <time>2022-06-21T13:01:30Z</time>
      </trkpt>
      <trkpt lat="45.94524" lon="-0.95808">
        <ele>5.1</ele>
        <time>2022-06-21T13:01:31Z</time>
      </trkpt>
      <trkpt lat="45.94524" lon="-0.9581">
        <ele>5.1</ele>
        <time>2022-06-21T13:01:32Z</time>
      </trkpt>
      <trkpt lat="45.94524" lon="-0.95812">
        <ele>5.1</ele>
        <time>2022-06-21T13:01:33Z</time>
      </trkpt>
      <trkpt lat="45.94522" lon="-0.95814">
        <ele>5.1</ele>
        <time>2022-06-21T13:01:34Z</time>
      </trkpt>
      <trkpt lat="45.94521" lon="-0.95816">
        <ele>5.1</ele>
        <time>2022-06-21T13:01:35Z</time>
      </trkpt>
      <trkpt lat="45.94521" lon="-0.95818">
        <ele>5.1</ele>
        <time>2022-06-21T13:01:36Z</time>
      </trkpt>
      <trkpt lat="45.9452" lon="-0.9582">
        <ele>5.1</ele>
        <time>2022-06-21T13:01:38Z</time>
      </trkpt>
      <trkpt lat="45.9452" lon="-0.95822">
        <ele>5.1</ele>
        <time>2022-06-21T13:01:39Z</time>
      </trkpt>
      <trkpt lat="45.94518" lon="-0.95825">
        <ele>5.1</ele>
        <time>2022-06-21T13:01:40Z</time>
      </trkpt>
      <trkpt lat="45.94518" lon="-0.95826">
        <ele>5</ele>
        <time>2022-06-21T13:01:41Z</time>
      </trkpt>
      <trkpt lat="45.94517" lon="-0.95829">
        <ele>5</ele>
        <time>2022-06-21T13:01:42Z</time>
      </trkpt>
      <trkpt lat="45.94517" lon="-0.9583">
        <ele>5</ele>
        <time>2022-06-21T13:01:43Z</time>
      </trkpt>
      <trkpt lat="45.94517" lon="-0.95831">
        <ele>5</ele>
        <time>2022-06-21T13:01:44Z</time>
      </trkpt>
      <trkpt lat="45.9452" lon="-0.95832">
        <ele>5.1</ele>
        <time>2022-06-21T13:01:46Z</time>
      </trkpt>
      <trkpt lat="45.94519" lon="-0.95832">
        <ele>5.1</ele>
        <time>2022-06-21T13:01:47Z</time>
      </trkpt>
      <trkpt lat="45.94519" lon="-0.95834">
        <ele>5.1</ele>
        <time>2022-06-21T13:01:48Z</time>
      </trkpt>
      <trkpt lat="45.94518" lon="-0.95836">
        <ele>5</ele>
        <time>2022-06-21T13:01:49Z</time>
      </trkpt>
      <trkpt lat="45.94518" lon="-0.95838">
        <ele>5</ele>
        <time>2022-06-21T13:01:50Z</time>
      </trkpt>
      <trkpt lat="45.94516" lon="-0.95839">
        <ele>4.9</ele>
        <time>2022-06-21T13:01:51Z</time>
      </trkpt>
      <trkpt lat="45.94516" lon="-0.9584">
        <ele>4.9</ele>
        <time>2022-06-21T13:01:52Z</time>
      </trkpt>
      <trkpt lat="45.94516" lon="-0.95842">
        <ele>4.9</ele>
        <time>2022-06-21T13:01:53Z</time>
      </trkpt>
      <trkpt lat="45.94516" lon="-0.95843">
        <ele>4.9</ele>
        <time>2022-06-21T13:01:54Z</time>
      </trkpt>
      <trkpt lat="45.94516" lon="-0.95845">
        <ele>4.9</ele>
        <time>2022-06-21T13:01:55Z</time>
      </trkpt>
      <trkpt lat="45.94516" lon="-0.95848">
        <ele>4.8</ele>
        <time>2022-06-21T13:01:56Z</time>
      </trkpt>
      <trkpt lat="45.94516" lon="-0.9585">
        <ele>4.8</ele>
        <time>2022-06-21T13:01:57Z</time>
      </trkpt>
      <trkpt lat="45.94515" lon="-0.95852">
        <ele>4.7</ele>
        <time>2022-06-21T13:01:58Z</time>
      </trkpt>
      <trkpt lat="45.94515" lon="-0.95854">
        <ele>4.7</ele>
        <time>2022-06-21T13:01:59Z</time>
      </trkpt>
      <trkpt lat="45.94515" lon="-0.95856">
        <ele>4.7</ele>
        <time>2022-06-21T13:02:01Z</time>
      </trkpt>
      <trkpt lat="45.94514" lon="-0.95857">
        <ele>4.6</ele>
        <time>2022-06-21T13:02:02Z</time>
      </trkpt>
      <trkpt lat="45.94514" lon="-0.95858">
        <ele>4.6</ele>
        <time>2022-06-21T13:02:03Z</time>
      </trkpt>
      <trkpt lat="45.94515" lon="-0.95859">
        <ele>4.6</ele>
        <time>2022-06-21T13:02:04Z</time>
      </trkpt>
      <trkpt lat="45.94516" lon="-0.95861">
        <ele>4.6</ele>
        <time>2022-06-21T13:02:05Z</time>
      </trkpt>
      <trkpt lat="45.94517" lon="-0.95862">
        <ele>4.6</ele>
        <time>2022-06-21T13:02:06Z</time>
      </trkpt>
      <trkpt lat="45.94519" lon="-0.95864">
        <ele>4.7</ele>
        <time>2022-06-21T13:02:07Z</time>
      </trkpt>
      <trkpt lat="45.9452" lon="-0.95865">
        <ele>4.6</ele>
        <time>2022-06-21T13:02:09Z</time>
      </trkpt>
      <trkpt lat="45.94522" lon="-0.95866">
        <ele>4.7</ele>
        <time>2022-06-21T13:02:10Z</time>
      </trkpt>
      <trkpt lat="45.94525" lon="-0.95867">
        <ele>4.7</ele>
        <time>2022-06-21T13:02:11Z</time>
      </trkpt>
      <trkpt lat="45.94526" lon="-0.95867">
        <ele>4.7</ele>
        <time>2022-06-21T13:02:12Z</time>
      </trkpt>
      <trkpt lat="45.94528" lon="-0.95868">
        <ele>4.7</ele>
        <time>2022-06-21T13:02:13Z</time>
      </trkpt>
      <trkpt lat="45.94529" lon="-0.95869">
        <ele>4.7</ele>
        <time>2022-06-21T13:02:14Z</time>
      </trkpt>
      <trkpt lat="45.9453" lon="-0.9587">
        <ele>4.7</ele>
        <time>2022-06-21T13:02:15Z</time>
      </trkpt>
      <trkpt lat="45.94532" lon="-0.95872">
        <ele>4.7</ele>
        <time>2022-06-21T13:02:16Z</time>
      </trkpt>
      <trkpt lat="45.94534" lon="-0.95874">
        <ele>4.7</ele>
        <time>2022-06-21T13:02:17Z</time>
      </trkpt>
      <trkpt lat="45.94535" lon="-0.95874">
        <ele>4.7</ele>
        <time>2022-06-21T13:02:18Z</time>
      </trkpt>
      <trkpt lat="45.94536" lon="-0.95876">
        <ele>4.7</ele>
        <time>2022-06-21T13:02:19Z</time>
      </trkpt>
      <trkpt lat="45.94538" lon="-0.95876">
        <ele>4.7</ele>
        <time>2022-06-21T13:02:20Z</time>
      </trkpt>
      <trkpt lat="45.94539" lon="-0.95878">
        <ele>4.7</ele>
        <time>2022-06-21T13:02:21Z</time>
      </trkpt>
      <trkpt lat="45.9454" lon="-0.95878">
        <ele>4.7</ele>
        <time>2022-06-21T13:02:22Z</time>
      </trkpt>
      <trkpt lat="45.94541" lon="-0.95879">
        <ele>4.7</ele>
        <time>2022-06-21T13:02:23Z</time>
      </trkpt>
      <trkpt lat="45.94542" lon="-0.95879">
        <ele>4.7</ele>
        <time>2022-06-21T13:02:24Z</time>
      </trkpt>
      <trkpt lat="45.94543" lon="-0.9588">
        <ele>4.7</ele>
        <time>2022-06-21T13:02:25Z</time>
      </trkpt>
      <trkpt lat="45.94544" lon="-0.95881">
        <ele>4.7</ele>
        <time>2022-06-21T13:02:26Z</time>
      </trkpt>
      <trkpt lat="45.94544" lon="-0.95882">
        <ele>4.7</ele>
        <time>2022-06-21T13:02:27Z</time>
      </trkpt>
      <trkpt lat="45.94545" lon="-0.95882">
        <ele>4.7</ele>
        <time>2022-06-21T13:02:28Z</time>
      </trkpt>
      <trkpt lat="45.94546" lon="-0.95883">
        <ele>4.7</ele>
        <time>2022-06-21T13:02:29Z</time>
      </trkpt>
      <trkpt lat="45.94548" lon="-0.95883">
        <ele>4.7</ele>
        <time>2022-06-21T13:02:30Z</time>
      </trkpt>
      <trkpt lat="45.9455" lon="-0.95882">
        <ele>4.7</ele>
        <time>2022-06-21T13:02:32Z</time>
      </trkpt>
      <trkpt lat="45.94551" lon="-0.95882">
        <ele>4.7</ele>
        <time>2022-06-21T13:02:33Z</time>
      </trkpt>
      <trkpt lat="45.94552" lon="-0.95882">
        <ele>4.7</ele>
        <time>2022-06-21T13:02:34Z</time>
      </trkpt>
      <trkpt lat="45.94553" lon="-0.95882">
        <ele>4.7</ele>
        <time>2022-06-21T13:02:35Z</time>
      </trkpt>
      <trkpt lat="45.94554" lon="-0.95883">
        <ele>4.7</ele>
        <time>2022-06-21T13:02:37Z</time>
      </trkpt>
      <trkpt lat="45.94554" lon="-0.95884">
        <ele>4.7</ele>
        <time>2022-06-21T13:02:38Z</time>
      </trkpt>
      <trkpt lat="45.94555" lon="-0.95885">
        <ele>4.7</ele>
        <time>2022-06-21T13:02:39Z</time>
      </trkpt>
      <trkpt lat="45.94555" lon="-0.95885">
        <ele>4.7</ele>
        <time>2022-06-21T13:02:40Z</time>
      </trkpt>
      <trkpt lat="45.94555" lon="-0.95886">
        <ele>4.7</ele>
        <time>2022-06-21T13:02:41Z</time>
      </trkpt>
      <trkpt lat="45.94555" lon="-0.95886">
        <ele>4.7</ele>
        <time>2022-06-21T13:02:42Z</time>
      </trkpt>
      <trkpt lat="45.94554" lon="-0.95885">
        <ele>4.7</ele>
        <time>2022-06-21T13:02:43Z</time>
      </trkpt>
      <trkpt lat="45.94555" lon="-0.95885">
        <ele>4.7</ele>
        <time>2022-06-21T13:02:44Z</time>
      </trkpt>
      <trkpt lat="45.94555" lon="-0.95886">
        <ele>4.7</ele>
        <time>2022-06-21T13:02:45Z</time>
      </trkpt>
      <trkpt lat="45.94555" lon="-0.95886">
        <ele>4.7</ele>
        <time>2022-06-21T13:02:47Z</time>
      </trkpt>
      <trkpt lat="45.94556" lon="-0.95885">
        <ele>4.7</ele>
        <time>2022-06-21T13:02:48Z</time>
      </trkpt>
      <trkpt lat="45.94557" lon="-0.95883">
        <ele>4.7</ele>
        <time>2022-06-21T13:02:51Z</time>
      </trkpt>
      <trkpt lat="45.94558" lon="-0.95882">
        <ele>4.7</ele>
        <time>2022-06-21T13:02:52Z</time>
      </trkpt>
      <trkpt lat="45.94559" lon="-0.95881">
        <ele>4.7</ele>
        <time>2022-06-21T13:02:53Z</time>
      </trkpt>
      <trkpt lat="45.9456" lon="-0.95881">
        <ele>4.7</ele>
        <time>2022-06-21T13:02:54Z</time>
      </trkpt>
      <trkpt lat="45.94561" lon="-0.9588">
        <ele>4.7</ele>
        <time>2022-06-21T13:02:55Z</time>
      </trkpt>
      <trkpt lat="45.94561" lon="-0.95879">
        <ele>4.7</ele>
        <time>2022-06-21T13:02:56Z</time>
      </trkpt>
      <trkpt lat="45.94563" lon="-0.95878">
        <ele>4.7</ele>
        <time>2022-06-21T13:02:57Z</time>
      </trkpt>
      <trkpt lat="45.94564" lon="-0.95878">
        <ele>4.7</ele>
        <time>2022-06-21T13:02:58Z</time>
      </trkpt>
      <trkpt lat="45.94566" lon="-0.95878">
        <ele>4.7</ele>
        <time>2022-06-21T13:02:59Z</time>
      </trkpt>
      <trkpt lat="45.94566" lon="-0.95878">
        <ele>4.7</ele>
        <time>2022-06-21T13:03:01Z</time>
      </trkpt>
      <trkpt lat="45.94568" lon="-0.95878">
        <ele>4.7</ele>
        <time>2022-06-21T13:03:02Z</time>
      </trkpt>
      <trkpt lat="45.94569" lon="-0.95877">
        <ele>4.7</ele>
        <time>2022-06-21T13:03:03Z</time>
      </trkpt>
      <trkpt lat="45.94569" lon="-0.95877">
        <ele>4.7</ele>
        <time>2022-06-21T13:03:04Z</time>
      </trkpt>
      <trkpt lat="45.94572" lon="-0.95877">
        <ele>4.7</ele>
        <time>2022-06-21T13:03:06Z</time>
      </trkpt>
      <trkpt lat="45.94572" lon="-0.95877">
        <ele>4.7</ele>
        <time>2022-06-21T13:03:07Z</time>
      </trkpt>
      <trkpt lat="45.94573" lon="-0.95877">
        <ele>4.7</ele>
        <time>2022-06-21T13:03:08Z</time>
      </trkpt>
      <trkpt lat="45.94576" lon="-0.95876">
        <ele>4.7</ele>
        <time>2022-06-21T13:03:09Z</time>
      </trkpt>
      <trkpt lat="45.94577" lon="-0.95876">
        <ele>4.7</ele>
        <time>2022-06-21T13:03:10Z</time>
      </trkpt>
      <trkpt lat="45.94578" lon="-0.95876">
        <ele>4.7</ele>
        <time>2022-06-21T13:03:12Z</time>
      </trkpt>
      <trkpt lat="45.94579" lon="-0.95876">
        <ele>4.7</ele>
        <time>2022-06-21T13:03:13Z</time>
      </trkpt>
      <trkpt lat="45.9458" lon="-0.95877">
        <ele>4.7</ele>
        <time>2022-06-21T13:03:14Z</time>
      </trkpt>
      <trkpt lat="45.94581" lon="-0.95877">
        <ele>4.7</ele>
        <time>2022-06-21T13:03:15Z</time>
      </trkpt>
      <trkpt lat="45.94581" lon="-0.95876">
        <ele>4.7</ele>
        <time>2022-06-21T13:03:16Z</time>
      </trkpt>
      <trkpt lat="45.94583" lon="-0.95876">
        <ele>4.7</ele>
        <time>2022-06-21T13:03:17Z</time>
      </trkpt>
      <trkpt lat="45.94584" lon="-0.95877">
        <ele>4.7</ele>
        <time>2022-06-21T13:03:18Z</time>
      </trkpt>
      <trkpt lat="45.94585" lon="-0.95877">
        <ele>4.7</ele>
        <time>2022-06-21T13:03:20Z</time>
      </trkpt>
      <trkpt lat="45.94588" lon="-0.95878">
        <ele>4.7</ele>
        <time>2022-06-21T13:03:22Z</time>
      </trkpt>
      <trkpt lat="45.9459" lon="-0.95882">
        <ele>4.7</ele>
        <time>2022-06-21T13:03:23Z</time>
      </trkpt>
      <trkpt lat="45.9459" lon="-0.95887">
        <ele>4.7</ele>
        <time>2022-06-21T13:03:25Z</time>
      </trkpt>
      <trkpt lat="45.9459" lon="-0.95888">
        <ele>4.7</ele>
        <time>2022-06-21T13:03:26Z</time>
      </trkpt>
      <trkpt lat="45.94592" lon="-0.95891">
        <ele>4.7</ele>
        <time>2022-06-21T13:03:28Z</time>
      </trkpt>
      <trkpt lat="45.94593" lon="-0.95892">
        <ele>4.7</ele>
        <time>2022-06-21T13:03:30Z</time>
      </trkpt>
      <trkpt lat="45.94594" lon="-0.95894">
        <ele>4.7</ele>
        <time>2022-06-21T13:03:31Z</time>
      </trkpt>
      <trkpt lat="45.94595" lon="-0.95896">
        <ele>4.7</ele>
        <time>2022-06-21T13:03:32Z</time>
      </trkpt>
      <trkpt lat="45.94595" lon="-0.95898">
        <ele>4.7</ele>
        <time>2022-06-21T13:03:33Z</time>
      </trkpt>
      <trkpt lat="45.94595" lon="-0.95899">
        <ele>4.7</ele>
        <time>2022-06-21T13:03:35Z</time>
      </trkpt>
      <trkpt lat="45.94595" lon="-0.959">
        <ele>4.7</ele>
        <time>2022-06-21T13:03:36Z</time>
      </trkpt>
      <trkpt lat="45.94596" lon="-0.95904">
        <ele>4.7</ele>
        <time>2022-06-21T13:03:37Z</time>
      </trkpt>
      <trkpt lat="45.94596" lon="-0.95905">
        <ele>4.7</ele>
        <time>2022-06-21T13:03:38Z</time>
      </trkpt>
      <trkpt lat="45.94596" lon="-0.95907">
        <ele>4.7</ele>
        <time>2022-06-21T13:03:39Z</time>
      </trkpt>
      <trkpt lat="45.94597" lon="-0.95911">
        <ele>4.7</ele>
        <time>2022-06-21T13:03:40Z</time>
      </trkpt>
      <trkpt lat="45.94597" lon="-0.95912">
        <ele>4.7</ele>
        <time>2022-06-21T13:03:42Z</time>
      </trkpt>
      <trkpt lat="45.94597" lon="-0.95914">
        <ele>4.7</ele>
        <time>2022-06-21T13:03:43Z</time>
      </trkpt>
      <trkpt lat="45.94597" lon="-0.95916">
        <ele>4.7</ele>
        <time>2022-06-21T13:03:44Z</time>
      </trkpt>
      <trkpt lat="45.94597" lon="-0.95917">
        <ele>4.7</ele>
        <time>2022-06-21T13:03:45Z</time>
      </trkpt>
      <trkpt lat="45.94597" lon="-0.95922">
        <ele>4.8</ele>
        <time>2022-06-21T13:03:46Z</time>
      </trkpt>
      <trkpt lat="45.94598" lon="-0.95924">
        <ele>4.8</ele>
        <time>2022-06-21T13:03:47Z</time>
      </trkpt>
      <trkpt lat="45.94599" lon="-0.95929">
        <ele>4.8</ele>
        <time>2022-06-21T13:03:48Z</time>
      </trkpt>
      <trkpt lat="45.94599" lon="-0.95931">
        <ele>4.8</ele>
        <time>2022-06-21T13:03:49Z</time>
      </trkpt>
      <trkpt lat="45.946" lon="-0.95935">
        <ele>4.8</ele>
        <time>2022-06-21T13:03:50Z</time>
      </trkpt>
      <trkpt lat="45.94601" lon="-0.95936">
        <ele>4.8</ele>
        <time>2022-06-21T13:03:51Z</time>
      </trkpt>
      <trkpt lat="45.94603" lon="-0.95937">
        <ele>4.8</ele>
        <time>2022-06-21T13:03:53Z</time>
      </trkpt>
      <trkpt lat="45.94604" lon="-0.95937">
        <ele>4.8</ele>
        <time>2022-06-21T13:03:54Z</time>
      </trkpt>
      <trkpt lat="45.94605" lon="-0.95937">
        <ele>4.8</ele>
        <time>2022-06-21T13:03:55Z</time>
      </trkpt>
      <trkpt lat="45.94605" lon="-0.95938">
        <ele>4.8</ele>
        <time>2022-06-21T13:03:56Z</time>
      </trkpt>
      <trkpt lat="45.94605" lon="-0.95939">
        <ele>4.8</ele>
        <time>2022-06-21T13:03:57Z</time>
      </trkpt>
      <trkpt lat="45.94605" lon="-0.9594">
        <ele>4.8</ele>
        <time>2022-06-21T13:03:58Z</time>
      </trkpt>
      <trkpt lat="45.94605" lon="-0.95942">
        <ele>4.8</ele>
        <time>2022-06-21T13:03:59Z</time>
      </trkpt>
      <trkpt lat="45.94605" lon="-0.95943">
        <ele>4.8</ele>
        <time>2022-06-21T13:04:01Z</time>
      </trkpt>
      <trkpt lat="45.94605" lon="-0.95944">
        <ele>4.8</ele>
        <time>2022-06-21T13:04:02Z</time>
      </trkpt>
      <trkpt lat="45.94605" lon="-0.95945">
        <ele>4.8</ele>
        <time>2022-06-21T13:04:03Z</time>
      </trkpt>
      <trkpt lat="45.94605" lon="-0.95946">
        <ele>4.8</ele>
        <time>2022-06-21T13:04:04Z</time>
      </trkpt>
      <trkpt lat="45.94606" lon="-0.95947">
        <ele>4.8</ele>
        <time>2022-06-21T13:04:05Z</time>
      </trkpt>
      <trkpt lat="45.94606" lon="-0.95949">
        <ele>4.8</ele>
        <time>2022-06-21T13:04:06Z</time>
      </trkpt>
      <trkpt lat="45.94605" lon="-0.9595">
        <ele>4.8</ele>
        <time>2022-06-21T13:04:08Z</time>
      </trkpt>
      <trkpt lat="45.94605" lon="-0.95952">
        <ele>4.8</ele>
        <time>2022-06-21T13:04:09Z</time>
      </trkpt>
      <trkpt lat="45.94604" lon="-0.95956">
        <ele>4.8</ele>
        <time>2022-06-21T13:04:10Z</time>
      </trkpt>
      <trkpt lat="45.94604" lon="-0.95958">
        <ele>4.8</ele>
        <time>2022-06-21T13:04:11Z</time>
      </trkpt>
      <trkpt lat="45.94605" lon="-0.95961">
        <ele>4.8</ele>
        <time>2022-06-21T13:04:13Z</time>
      </trkpt>
      <trkpt lat="45.94605" lon="-0.95962">
        <ele>4.8</ele>
        <time>2022-06-21T13:04:15Z</time>
      </trkpt>
      <trkpt lat="45.94606" lon="-0.95964">
        <ele>4.8</ele>
        <time>2022-06-21T13:04:16Z</time>
      </trkpt>
      <trkpt lat="45.94606" lon="-0.95964">
        <ele>4.8</ele>
        <time>2022-06-21T13:04:17Z</time>
      </trkpt>
      <trkpt lat="45.94608" lon="-0.95965">
        <ele>4.8</ele>
        <time>2022-06-21T13:04:18Z</time>
      </trkpt>
      <trkpt lat="45.94609" lon="-0.95966">
        <ele>4.8</ele>
        <time>2022-06-21T13:04:19Z</time>
      </trkpt>
      <trkpt lat="45.94609" lon="-0.95967">
        <ele>4.8</ele>
        <time>2022-06-21T13:04:20Z</time>
      </trkpt>
      <trkpt lat="45.9461" lon="-0.95969">
        <ele>4.8</ele>
        <time>2022-06-21T13:04:21Z</time>
      </trkpt>
      <trkpt lat="45.9461" lon="-0.9597">
        <ele>4.8</ele>
        <time>2022-06-21T13:04:22Z</time>
      </trkpt>
      <trkpt lat="45.94609" lon="-0.95971">
        <ele>4.8</ele>
        <time>2022-06-21T13:04:23Z</time>
      </trkpt>
      <trkpt lat="45.94609" lon="-0.95972">
        <ele>4.8</ele>
        <time>2022-06-21T13:04:25Z</time>
      </trkpt>
      <trkpt lat="45.94608" lon="-0.95973">
        <ele>4.8</ele>
        <time>2022-06-21T13:04:26Z</time>
      </trkpt>
      <trkpt lat="45.94607" lon="-0.95974">
        <ele>4.8</ele>
        <time>2022-06-21T13:04:27Z</time>
      </trkpt>
      <trkpt lat="45.94606" lon="-0.95975">
        <ele>4.8</ele>
        <time>2022-06-21T13:04:28Z</time>
      </trkpt>
      <trkpt lat="45.94605" lon="-0.95977">
        <ele>4.8</ele>
        <time>2022-06-21T13:04:29Z</time>
      </trkpt>
      <trkpt lat="45.94605" lon="-0.95978">
        <ele>4.8</ele>
        <time>2022-06-21T13:04:31Z</time>
      </trkpt>
      <trkpt lat="45.94604" lon="-0.9598">
        <ele>4.8</ele>
        <time>2022-06-21T13:04:32Z</time>
      </trkpt>
      <trkpt lat="45.94604" lon="-0.95982">
        <ele>4.9</ele>
        <time>2022-06-21T13:04:33Z</time>
      </trkpt>
      <trkpt lat="45.94603" lon="-0.95984">
        <ele>4.9</ele>
        <time>2022-06-21T13:04:34Z</time>
      </trkpt>
      <trkpt lat="45.94603" lon="-0.95986">
        <ele>4.9</ele>
        <time>2022-06-21T13:04:35Z</time>
      </trkpt>
      <trkpt lat="45.94603" lon="-0.95989">
        <ele>4.9</ele>
        <time>2022-06-21T13:04:36Z</time>
      </trkpt>
      <trkpt lat="45.94603" lon="-0.9599">
        <ele>4.9</ele>
        <time>2022-06-21T13:04:37Z</time>
      </trkpt>
      <trkpt lat="45.94602" lon="-0.95992">
        <ele>4.9</ele>
        <time>2022-06-21T13:04:38Z</time>
      </trkpt>
      <trkpt lat="45.94601" lon="-0.95994">
        <ele>4.9</ele>
        <time>2022-06-21T13:04:39Z</time>
      </trkpt>
      <trkpt lat="45.94601" lon="-0.95995">
        <ele>4.9</ele>
        <time>2022-06-21T13:04:40Z</time>
      </trkpt>
      <trkpt lat="45.94601" lon="-0.95997">
        <ele>4.9</ele>
        <time>2022-06-21T13:04:41Z</time>
      </trkpt>
      <trkpt lat="45.946" lon="-0.95998">
        <ele>4.9</ele>
        <time>2022-06-21T13:04:42Z</time>
      </trkpt>
      <trkpt lat="45.946" lon="-0.95999">
        <ele>4.9</ele>
        <time>2022-06-21T13:04:43Z</time>
      </trkpt>
      <trkpt lat="45.946" lon="-0.96001">
        <ele>4.9</ele>
        <time>2022-06-21T13:04:44Z</time>
      </trkpt>
      <trkpt lat="45.946" lon="-0.96002">
        <ele>4.9</ele>
        <time>2022-06-21T13:04:45Z</time>
      </trkpt>
      <trkpt lat="45.94598" lon="-0.96002">
        <ele>5</ele>
        <time>2022-06-21T13:04:46Z</time>
      </trkpt>
      <trkpt lat="45.94597" lon="-0.96002">
        <ele>5</ele>
        <time>2022-06-21T13:04:47Z</time>
      </trkpt>
      <trkpt lat="45.94598" lon="-0.96005">
        <ele>5</ele>
        <time>2022-06-21T13:04:48Z</time>
      </trkpt>
      <trkpt lat="45.94598" lon="-0.96006">
        <ele>5</ele>
        <time>2022-06-21T13:04:49Z</time>
      </trkpt>
      <trkpt lat="45.94599" lon="-0.96007">
        <ele>5</ele>
        <time>2022-06-21T13:04:50Z</time>
      </trkpt>
      <trkpt lat="45.94601" lon="-0.96011">
        <ele>5</ele>
        <time>2022-06-21T13:04:51Z</time>
      </trkpt>
      <trkpt lat="45.94601" lon="-0.96012">
        <ele>5</ele>
        <time>2022-06-21T13:04:52Z</time>
      </trkpt>
      <trkpt lat="45.94602" lon="-0.96014">
        <ele>5</ele>
        <time>2022-06-21T13:04:54Z</time>
      </trkpt>
      <trkpt lat="45.94603" lon="-0.96016">
        <ele>5</ele>
        <time>2022-06-21T13:04:55Z</time>
      </trkpt>
      <trkpt lat="45.94604" lon="-0.96017">
        <ele>5</ele>
        <time>2022-06-21T13:04:56Z</time>
      </trkpt>
      <trkpt lat="45.94604" lon="-0.96018">
        <ele>5</ele>
        <time>2022-06-21T13:04:57Z</time>
      </trkpt>
      <trkpt lat="45.94604" lon="-0.96019">
        <ele>4.8</ele>
        <time>2022-06-21T13:04:58Z</time>
      </trkpt>
      <trkpt lat="45.94603" lon="-0.9602">
        <ele>4.8</ele>
        <time>2022-06-21T13:04:59Z</time>
      </trkpt>
      <trkpt lat="45.94605" lon="-0.96024">
        <ele>4.8</ele>
        <time>2022-06-21T13:05:01Z</time>
      </trkpt>
      <trkpt lat="45.94605" lon="-0.96025">
        <ele>4.8</ele>
        <time>2022-06-21T13:05:02Z</time>
      </trkpt>
      <trkpt lat="45.94607" lon="-0.96026">
        <ele>4.8</ele>
        <time>2022-06-21T13:05:03Z</time>
      </trkpt>
      <trkpt lat="45.94609" lon="-0.96027">
        <ele>4.8</ele>
        <time>2022-06-21T13:05:04Z</time>
      </trkpt>
      <trkpt lat="45.9461" lon="-0.96028">
        <ele>4.8</ele>
        <time>2022-06-21T13:05:05Z</time>
      </trkpt>
      <trkpt lat="45.94611" lon="-0.96028">
        <ele>4.8</ele>
        <time>2022-06-21T13:05:06Z</time>
      </trkpt>
      <trkpt lat="45.94612" lon="-0.96028">
        <ele>4.8</ele>
        <time>2022-06-21T13:05:07Z</time>
      </trkpt>
      <trkpt lat="45.94611" lon="-0.96028">
        <ele>4.8</ele>
        <time>2022-06-21T13:05:08Z</time>
      </trkpt>
      <trkpt lat="45.94611" lon="-0.96028">
        <ele>4.8</ele>
        <time>2022-06-21T13:05:09Z</time>
      </trkpt>
      <trkpt lat="45.9461" lon="-0.96029">
        <ele>4.8</ele>
        <time>2022-06-21T13:05:10Z</time>
      </trkpt>
      <trkpt lat="45.94609" lon="-0.9603">
        <ele>4.8</ele>
        <time>2022-06-21T13:05:11Z</time>
      </trkpt>
      <trkpt lat="45.94609" lon="-0.9603">
        <ele>4.8</ele>
        <time>2022-06-21T13:05:13Z</time>
      </trkpt>
      <trkpt lat="45.94608" lon="-0.96031">
        <ele>4.8</ele>
        <time>2022-06-21T13:05:14Z</time>
      </trkpt>
      <trkpt lat="45.94607" lon="-0.96032">
        <ele>4.8</ele>
        <time>2022-06-21T13:05:15Z</time>
      </trkpt>
      <trkpt lat="45.94606" lon="-0.96032">
        <ele>4.8</ele>
        <time>2022-06-21T13:05:16Z</time>
      </trkpt>
      <trkpt lat="45.94605" lon="-0.96033">
        <ele>4.8</ele>
        <time>2022-06-21T13:05:18Z</time>
      </trkpt>
      <trkpt lat="45.94603" lon="-0.96031">
        <ele>4.8</ele>
        <time>2022-06-21T13:05:19Z</time>
      </trkpt>
      <trkpt lat="45.94601" lon="-0.9603">
        <ele>4.8</ele>
        <time>2022-06-21T13:05:20Z</time>
      </trkpt>
      <trkpt lat="45.946" lon="-0.96027">
        <ele>4.8</ele>
        <time>2022-06-21T13:05:21Z</time>
      </trkpt>
      <trkpt lat="45.94598" lon="-0.96025">
        <ele>4.9</ele>
        <time>2022-06-21T13:05:23Z</time>
      </trkpt>
      <trkpt lat="45.94597" lon="-0.96024">
        <ele>4.9</ele>
        <time>2022-06-21T13:05:24Z</time>
      </trkpt>
      <trkpt lat="45.94596" lon="-0.96023">
        <ele>4.9</ele>
        <time>2022-06-21T13:05:25Z</time>
      </trkpt>
      <trkpt lat="45.94593" lon="-0.96021">
        <ele>4.9</ele>
        <time>2022-06-21T13:05:27Z</time>
      </trkpt>
      <trkpt lat="45.94593" lon="-0.96021">
        <ele>4.9</ele>
        <time>2022-06-21T13:05:28Z</time>
      </trkpt>
      <trkpt lat="45.94592" lon="-0.9602">
        <ele>4.9</ele>
        <time>2022-06-21T13:05:29Z</time>
      </trkpt>
      <trkpt lat="45.9459" lon="-0.9602">
        <ele>4.9</ele>
        <time>2022-06-21T13:05:30Z</time>
      </trkpt>
      <trkpt lat="45.94589" lon="-0.96019">
        <ele>4.9</ele>
        <time>2022-06-21T13:05:31Z</time>
      </trkpt>
      <trkpt lat="45.94587" lon="-0.96019">
        <ele>4.9</ele>
        <time>2022-06-21T13:05:32Z</time>
      </trkpt>
      <trkpt lat="45.94587" lon="-0.96019">
        <ele>5</ele>
        <time>2022-06-21T13:05:33Z</time>
      </trkpt>
      <trkpt lat="45.94586" lon="-0.96019">
        <ele>5</ele>
        <time>2022-06-21T13:05:34Z</time>
      </trkpt>
      <trkpt lat="45.94583" lon="-0.96019">
        <ele>5</ele>
        <time>2022-06-21T13:05:36Z</time>
      </trkpt>
      <trkpt lat="45.94582" lon="-0.96019">
        <ele>5</ele>
        <time>2022-06-21T13:05:37Z</time>
      </trkpt>
      <trkpt lat="45.9458" lon="-0.9602">
        <ele>5</ele>
        <time>2022-06-21T13:05:38Z</time>
      </trkpt>
      <trkpt lat="45.94579" lon="-0.96021">
        <ele>5</ele>
        <time>2022-06-21T13:05:39Z</time>
      </trkpt>
      <trkpt lat="45.94577" lon="-0.96021">
        <ele>5</ele>
        <time>2022-06-21T13:05:40Z</time>
      </trkpt>
      <trkpt lat="45.94576" lon="-0.96021">
        <ele>5</ele>
        <time>2022-06-21T13:05:42Z</time>
      </trkpt>
      <trkpt lat="45.94575" lon="-0.96021">
        <ele>5</ele>
        <time>2022-06-21T13:05:43Z</time>
      </trkpt>
      <trkpt lat="45.94575" lon="-0.96021">
        <ele>5</ele>
        <time>2022-06-21T13:05:44Z</time>
      </trkpt>
      <trkpt lat="45.94575" lon="-0.96021">
        <ele>5</ele>
        <time>2022-06-21T13:05:45Z</time>
      </trkpt>
      <trkpt lat="45.94574" lon="-0.9602">
        <ele>5</ele>
        <time>2022-06-21T13:05:46Z</time>
      </trkpt>
      <trkpt lat="45.94573" lon="-0.9602">
        <ele>5.1</ele>
        <time>2022-06-21T13:05:47Z</time>
      </trkpt>
      <trkpt lat="45.94571" lon="-0.9602">
        <ele>5.1</ele>
        <time>2022-06-21T13:05:48Z</time>
      </trkpt>
      <trkpt lat="45.9457" lon="-0.9602">
        <ele>5.1</ele>
        <time>2022-06-21T13:05:49Z</time>
      </trkpt>
      <trkpt lat="45.94569" lon="-0.9602">
        <ele>5.1</ele>
        <time>2022-06-21T13:05:50Z</time>
      </trkpt>
      <trkpt lat="45.94568" lon="-0.96019">
        <ele>5.1</ele>
        <time>2022-06-21T13:05:51Z</time>
      </trkpt>
      <trkpt lat="45.94565" lon="-0.96019">
        <ele>5.1</ele>
        <time>2022-06-21T13:05:52Z</time>
      </trkpt>
      <trkpt lat="45.94564" lon="-0.9602">
        <ele>5.1</ele>
        <time>2022-06-21T13:05:54Z</time>
      </trkpt>
      <trkpt lat="45.94562" lon="-0.9602">
        <ele>5.1</ele>
        <time>2022-06-21T13:05:55Z</time>
      </trkpt>
      <trkpt lat="45.94561" lon="-0.9602">
        <ele>5.1</ele>
        <time>2022-06-21T13:05:57Z</time>
      </trkpt>
      <trkpt lat="45.9456" lon="-0.9602">
        <ele>5.1</ele>
        <time>2022-06-21T13:05:59Z</time>
      </trkpt>
      <trkpt lat="45.94559" lon="-0.9602">
        <ele>5.2</ele>
        <time>2022-06-21T13:06:01Z</time>
      </trkpt>
      <trkpt lat="45.94557" lon="-0.9602">
        <ele>5.2</ele>
        <time>2022-06-21T13:06:02Z</time>
      </trkpt>
      <trkpt lat="45.94556" lon="-0.9602">
        <ele>5.2</ele>
        <time>2022-06-21T13:06:03Z</time>
      </trkpt>
      <trkpt lat="45.94554" lon="-0.96021">
        <ele>5.2</ele>
        <time>2022-06-21T13:06:04Z</time>
      </trkpt>
      <trkpt lat="45.94551" lon="-0.96022">
        <ele>5.2</ele>
        <time>2022-06-21T13:06:05Z</time>
      </trkpt>
      <trkpt lat="45.9455" lon="-0.96022">
        <ele>5.2</ele>
        <time>2022-06-21T13:06:07Z</time>
      </trkpt>
      <trkpt lat="45.94549" lon="-0.96022">
        <ele>5.2</ele>
        <time>2022-06-21T13:06:08Z</time>
      </trkpt>
      <trkpt lat="45.94548" lon="-0.96023">
        <ele>5.2</ele>
        <time>2022-06-21T13:06:09Z</time>
      </trkpt>
      <trkpt lat="45.94547" lon="-0.96023">
        <ele>5.2</ele>
        <time>2022-06-21T13:06:10Z</time>
      </trkpt>
      <trkpt lat="45.94545" lon="-0.96023">
        <ele>5.2</ele>
        <time>2022-06-21T13:06:11Z</time>
      </trkpt>
      <trkpt lat="45.94544" lon="-0.96023">
        <ele>5.2</ele>
        <time>2022-06-21T13:06:12Z</time>
      </trkpt>
      <trkpt lat="45.94544" lon="-0.96023">
        <ele>5.2</ele>
        <time>2022-06-21T13:06:13Z</time>
      </trkpt>
      <trkpt lat="45.94542" lon="-0.96023">
        <ele>5.2</ele>
        <time>2022-06-21T13:06:14Z</time>
      </trkpt>
      <trkpt lat="45.94541" lon="-0.96023">
        <ele>5.2</ele>
        <time>2022-06-21T13:06:15Z</time>
      </trkpt>
      <trkpt lat="45.9454" lon="-0.96023">
        <ele>5.3</ele>
        <time>2022-06-21T13:06:17Z</time>
      </trkpt>
      <trkpt lat="45.94539" lon="-0.96023">
        <ele>5.3</ele>
        <time>2022-06-21T13:06:18Z</time>
      </trkpt>
      <trkpt lat="45.94538" lon="-0.96022">
        <ele>5.3</ele>
        <time>2022-06-21T13:06:19Z</time>
      </trkpt>
      <trkpt lat="45.94537" lon="-0.96021">
        <ele>5.3</ele>
        <time>2022-06-21T13:06:20Z</time>
      </trkpt>
      <trkpt lat="45.94536" lon="-0.96021">
        <ele>5.3</ele>
        <time>2022-06-21T13:06:21Z</time>
      </trkpt>
      <trkpt lat="45.94534" lon="-0.9602">
        <ele>5.3</ele>
        <time>2022-06-21T13:06:23Z</time>
      </trkpt>
      <trkpt lat="45.94533" lon="-0.9602">
        <ele>5.3</ele>
        <time>2022-06-21T13:06:24Z</time>
      </trkpt>
      <trkpt lat="45.94531" lon="-0.9602">
        <ele>5.3</ele>
        <time>2022-06-21T13:06:25Z</time>
      </trkpt>
      <trkpt lat="45.94528" lon="-0.96019">
        <ele>5.3</ele>
        <time>2022-06-21T13:06:27Z</time>
      </trkpt>
      <trkpt lat="45.94527" lon="-0.96019">
        <ele>5.3</ele>
        <time>2022-06-21T13:06:28Z</time>
      </trkpt>
      <trkpt lat="45.94526" lon="-0.9602">
        <ele>5.3</ele>
        <time>2022-06-21T13:06:30Z</time>
      </trkpt>
      <trkpt lat="45.94525" lon="-0.96021">
        <ele>5.3</ele>
        <time>2022-06-21T13:06:31Z</time>
      </trkpt>
      <trkpt lat="45.94523" lon="-0.96021">
        <ele>5.3</ele>
        <time>2022-06-21T13:06:32Z</time>
      </trkpt>
      <trkpt lat="45.94522" lon="-0.9602">
        <ele>5.3</ele>
        <time>2022-06-21T13:06:33Z</time>
      </trkpt>
      <trkpt lat="45.94521" lon="-0.9602">
        <ele>5.3</ele>
        <time>2022-06-21T13:06:34Z</time>
      </trkpt>
      <trkpt lat="45.9452" lon="-0.9602">
        <ele>5.4</ele>
        <time>2022-06-21T13:06:35Z</time>
      </trkpt>
      <trkpt lat="45.94518" lon="-0.96019">
        <ele>5.4</ele>
        <time>2022-06-21T13:06:37Z</time>
      </trkpt>
      <trkpt lat="45.94517" lon="-0.96019">
        <ele>5.4</ele>
        <time>2022-06-21T13:06:38Z</time>
      </trkpt>
      <trkpt lat="45.94516" lon="-0.96019">
        <ele>5.4</ele>
        <time>2022-06-21T13:06:39Z</time>
      </trkpt>
      <trkpt lat="45.94515" lon="-0.96019">
        <ele>5.4</ele>
        <time>2022-06-21T13:06:40Z</time>
      </trkpt>
      <trkpt lat="45.94513" lon="-0.96019">
        <ele>5.4</ele>
        <time>2022-06-21T13:06:41Z</time>
      </trkpt>
      <trkpt lat="45.94512" lon="-0.96019">
        <ele>5.4</ele>
        <time>2022-06-21T13:06:42Z</time>
      </trkpt>
      <trkpt lat="45.94511" lon="-0.96019">
        <ele>5.4</ele>
        <time>2022-06-21T13:06:44Z</time>
      </trkpt>
      <trkpt lat="45.9451" lon="-0.96019">
        <ele>5.4</ele>
        <time>2022-06-21T13:06:45Z</time>
      </trkpt>
      <trkpt lat="45.94509" lon="-0.96019">
        <ele>5.4</ele>
        <time>2022-06-21T13:06:46Z</time>
      </trkpt>
      <trkpt lat="45.94508" lon="-0.96019">
        <ele>5.4</ele>
        <time>2022-06-21T13:06:47Z</time>
      </trkpt>
      <trkpt lat="45.94506" lon="-0.96019">
        <ele>5.4</ele>
        <time>2022-06-21T13:06:48Z</time>
      </trkpt>
      <trkpt lat="45.94504" lon="-0.96019">
        <ele>5.4</ele>
        <time>2022-06-21T13:06:49Z</time>
      </trkpt>
      <trkpt lat="45.94504" lon="-0.96019">
        <ele>5.4</ele>
        <time>2022-06-21T13:06:51Z</time>
      </trkpt>
      <trkpt lat="45.94503" lon="-0.96019">
        <ele>5.4</ele>
        <time>2022-06-21T13:06:52Z</time>
      </trkpt>
      <trkpt lat="45.94502" lon="-0.96019">
        <ele>5.4</ele>
        <time>2022-06-21T13:06:53Z</time>
      </trkpt>
      <trkpt lat="45.94501" lon="-0.96019">
        <ele>5.4</ele>
        <time>2022-06-21T13:06:54Z</time>
      </trkpt>
      <trkpt lat="45.94499" lon="-0.96022">
        <ele>5.4</ele>
        <time>2022-06-21T13:06:55Z</time>
      </trkpt>
      <trkpt lat="45.94498" lon="-0.96022">
        <ele>5.4</ele>
        <time>2022-06-21T13:06:56Z</time>
      </trkpt>
      <trkpt lat="45.94497" lon="-0.96022">
        <ele>5.4</ele>
        <time>2022-06-21T13:06:57Z</time>
      </trkpt>
      <trkpt lat="45.94496" lon="-0.96023">
        <ele>5.4</ele>
        <time>2022-06-21T13:06:58Z</time>
      </trkpt>
      <trkpt lat="45.94495" lon="-0.96023">
        <ele>5.4</ele>
        <time>2022-06-21T13:06:59Z</time>
      </trkpt>
      <trkpt lat="45.94495" lon="-0.96023">
        <ele>5.4</ele>
        <time>2022-06-21T13:07:00Z</time>
      </trkpt>
      <trkpt lat="45.94494" lon="-0.96023">
        <ele>5.4</ele>
        <time>2022-06-21T13:07:01Z</time>
      </trkpt>
      <trkpt lat="45.94494" lon="-0.96023">
        <ele>5.4</ele>
        <time>2022-06-21T13:07:02Z</time>
      </trkpt>
      <trkpt lat="45.94493" lon="-0.96023">
        <ele>5.4</ele>
        <time>2022-06-21T13:07:04Z</time>
      </trkpt>
      <trkpt lat="45.94492" lon="-0.96023">
        <ele>5.4</ele>
        <time>2022-06-21T13:07:05Z</time>
      </trkpt>
      <trkpt lat="45.9449" lon="-0.96023">
        <ele>5.5</ele>
        <time>2022-06-21T13:07:06Z</time>
      </trkpt>
      <trkpt lat="45.94489" lon="-0.96023">
        <ele>5.5</ele>
        <time>2022-06-21T13:07:07Z</time>
      </trkpt>
      <trkpt lat="45.94487" lon="-0.96023">
        <ele>5.5</ele>
        <time>2022-06-21T13:07:08Z</time>
      </trkpt>
      <trkpt lat="45.94486" lon="-0.96023">
        <ele>5.5</ele>
        <time>2022-06-21T13:07:09Z</time>
      </trkpt>
      <trkpt lat="45.94485" lon="-0.96023">
        <ele>5.5</ele>
        <time>2022-06-21T13:07:11Z</time>
      </trkpt>
      <trkpt lat="45.94484" lon="-0.96023">
        <ele>5.5</ele>
        <time>2022-06-21T13:07:12Z</time>
      </trkpt>
      <trkpt lat="45.94482" lon="-0.96023">
        <ele>5.5</ele>
        <time>2022-06-21T13:07:13Z</time>
      </trkpt>
      <trkpt lat="45.94481" lon="-0.96023">
        <ele>5.5</ele>
        <time>2022-06-21T13:07:14Z</time>
      </trkpt>
      <trkpt lat="45.94479" lon="-0.96022">
        <ele>5.5</ele>
        <time>2022-06-21T13:07:15Z</time>
      </trkpt>
      <trkpt lat="45.94478" lon="-0.96021">
        <ele>5.5</ele>
        <time>2022-06-21T13:07:16Z</time>
      </trkpt>
      <trkpt lat="45.94477" lon="-0.9602">
        <ele>5.5</ele>
        <time>2022-06-21T13:07:17Z</time>
      </trkpt>
      <trkpt lat="45.94476" lon="-0.9602">
        <ele>5.6</ele>
        <time>2022-06-21T13:07:19Z</time>
      </trkpt>
      <trkpt lat="45.94475" lon="-0.96019">
        <ele>5.6</ele>
        <time>2022-06-21T13:07:20Z</time>
      </trkpt>
      <trkpt lat="45.94474" lon="-0.96019">
        <ele>5.6</ele>
        <time>2022-06-21T13:07:21Z</time>
      </trkpt>
      <trkpt lat="45.94473" lon="-0.96019">
        <ele>5.6</ele>
        <time>2022-06-21T13:07:22Z</time>
      </trkpt>
      <trkpt lat="45.94471" lon="-0.96018">
        <ele>5.6</ele>
        <time>2022-06-21T13:07:23Z</time>
      </trkpt>
      <trkpt lat="45.9447" lon="-0.96018">
        <ele>5.6</ele>
        <time>2022-06-21T13:07:25Z</time>
      </trkpt>
      <trkpt lat="45.94469" lon="-0.96018">
        <ele>5.6</ele>
        <time>2022-06-21T13:07:26Z</time>
      </trkpt>
      <trkpt lat="45.94467" lon="-0.96017">
        <ele>5.6</ele>
        <time>2022-06-21T13:07:27Z</time>
      </trkpt>
      <trkpt lat="45.94466" lon="-0.96017">
        <ele>5.6</ele>
        <time>2022-06-21T13:07:28Z</time>
      </trkpt>
      <trkpt lat="45.94466" lon="-0.96017">
        <ele>5.6</ele>
        <time>2022-06-21T13:07:29Z</time>
      </trkpt>
      <trkpt lat="45.94464" lon="-0.96017">
        <ele>5.7</ele>
        <time>2022-06-21T13:07:30Z</time>
      </trkpt>
      <trkpt lat="45.94463" lon="-0.96018">
        <ele>5.7</ele>
        <time>2022-06-21T13:07:32Z</time>
      </trkpt>
      <trkpt lat="45.94462" lon="-0.96018">
        <ele>5.7</ele>
        <time>2022-06-21T13:07:34Z</time>
      </trkpt>
      <trkpt lat="45.94461" lon="-0.96018">
        <ele>5.7</ele>
        <time>2022-06-21T13:07:35Z</time>
      </trkpt>
      <trkpt lat="45.94459" lon="-0.96019">
        <ele>5.7</ele>
        <time>2022-06-21T13:07:37Z</time>
      </trkpt>
      <trkpt lat="45.94458" lon="-0.96019">
        <ele>5.7</ele>
        <time>2022-06-21T13:07:38Z</time>
      </trkpt>
      <trkpt lat="45.94457" lon="-0.9602">
        <ele>5.7</ele>
        <time>2022-06-21T13:07:39Z</time>
      </trkpt>
      <trkpt lat="45.94456" lon="-0.9602">
        <ele>5.7</ele>
        <time>2022-06-21T13:07:40Z</time>
      </trkpt>
      <trkpt lat="45.94456" lon="-0.9602">
        <ele>5.7</ele>
        <time>2022-06-21T13:07:42Z</time>
      </trkpt>
      <trkpt lat="45.94455" lon="-0.96021">
        <ele>5.7</ele>
        <time>2022-06-21T13:07:43Z</time>
      </trkpt>
      <trkpt lat="45.94455" lon="-0.96023">
        <ele>5.8</ele>
        <time>2022-06-21T13:07:44Z</time>
      </trkpt>
      <trkpt lat="45.94455" lon="-0.96025">
        <ele>5.8</ele>
        <time>2022-06-21T13:07:46Z</time>
      </trkpt>
      <trkpt lat="45.94455" lon="-0.96025">
        <ele>5.8</ele>
        <time>2022-06-21T13:07:47Z</time>
      </trkpt>
      <trkpt lat="45.94454" lon="-0.96026">
        <ele>5.8</ele>
        <time>2022-06-21T13:07:48Z</time>
      </trkpt>
      <trkpt lat="45.94454" lon="-0.96027">
        <ele>5.8</ele>
        <time>2022-06-21T13:07:49Z</time>
      </trkpt>
      <trkpt lat="45.94453" lon="-0.96027">
        <ele>5.8</ele>
        <time>2022-06-21T13:07:50Z</time>
      </trkpt>
      <trkpt lat="45.94451" lon="-0.96025">
        <ele>5.8</ele>
        <time>2022-06-21T13:07:51Z</time>
      </trkpt>
      <trkpt lat="45.94451" lon="-0.96025">
        <ele>5.8</ele>
        <time>2022-06-21T13:07:52Z</time>
      </trkpt>
      <trkpt lat="45.9445" lon="-0.96025">
        <ele>5.8</ele>
        <time>2022-06-21T13:07:53Z</time>
      </trkpt>
      <trkpt lat="45.94449" lon="-0.96025">
        <ele>5.8</ele>
        <time>2022-06-21T13:07:54Z</time>
      </trkpt>
      <trkpt lat="45.94448" lon="-0.96025">
        <ele>5.8</ele>
        <time>2022-06-21T13:07:55Z</time>
      </trkpt>
      <trkpt lat="45.94445" lon="-0.96024">
        <ele>5.9</ele>
        <time>2022-06-21T13:07:56Z</time>
      </trkpt>
      <trkpt lat="45.94443" lon="-0.96024">
        <ele>6</ele>
        <time>2022-06-21T13:07:57Z</time>
      </trkpt>
      <trkpt lat="45.94442" lon="-0.96024">
        <ele>6</ele>
        <time>2022-06-21T13:07:59Z</time>
      </trkpt>
      <trkpt lat="45.94441" lon="-0.96024">
        <ele>6</ele>
        <time>2022-06-21T13:08:00Z</time>
      </trkpt>
      <trkpt lat="45.94436" lon="-0.9602">
        <ele>6.1</ele>
        <time>2022-06-21T13:08:01Z</time>
      </trkpt>
      <trkpt lat="45.94435" lon="-0.9602">
        <ele>6.1</ele>
        <time>2022-06-21T13:08:02Z</time>
      </trkpt>
      <trkpt lat="45.94435" lon="-0.9602">
        <ele>6.1</ele>
        <time>2022-06-21T13:08:03Z</time>
      </trkpt>
      <trkpt lat="45.94434" lon="-0.9602">
        <ele>6.2</ele>
        <time>2022-06-21T13:08:05Z</time>
      </trkpt>
      <trkpt lat="45.94433" lon="-0.9602">
        <ele>6.2</ele>
        <time>2022-06-21T13:08:06Z</time>
      </trkpt>
      <trkpt lat="45.94434" lon="-0.9602">
        <ele>6.2</ele>
        <time>2022-06-21T13:08:07Z</time>
      </trkpt>
      <trkpt lat="45.94433" lon="-0.9602">
        <ele>6.2</ele>
        <time>2022-06-21T13:08:08Z</time>
      </trkpt>
      <trkpt lat="45.94434" lon="-0.9602">
        <ele>6.2</ele>
        <time>2022-06-21T13:08:09Z</time>
      </trkpt>
      <trkpt lat="45.94436" lon="-0.9602">
        <ele>6.2</ele>
        <time>2022-06-21T13:08:11Z</time>
      </trkpt>
      <trkpt lat="45.94432" lon="-0.9602">
        <ele>6.3</ele>
        <time>2022-06-21T13:08:12Z</time>
      </trkpt>
      <trkpt lat="45.94431" lon="-0.96021">
        <ele>6.3</ele>
        <time>2022-06-21T13:08:13Z</time>
      </trkpt>
      <trkpt lat="45.94429" lon="-0.96021">
        <ele>6.4</ele>
        <time>2022-06-21T13:08:14Z</time>
      </trkpt>
      <trkpt lat="45.94427" lon="-0.96021">
        <ele>6.5</ele>
        <time>2022-06-21T13:08:15Z</time>
      </trkpt>
      <trkpt lat="45.94425" lon="-0.96021">
        <ele>6.5</ele>
        <time>2022-06-21T13:08:16Z</time>
      </trkpt>
      <trkpt lat="45.94424" lon="-0.96021">
        <ele>6.5</ele>
        <time>2022-06-21T13:08:18Z</time>
      </trkpt>
      <trkpt lat="45.94423" lon="-0.96021">
        <ele>6.5</ele>
        <time>2022-06-21T13:08:19Z</time>
      </trkpt>
      <trkpt lat="45.94422" lon="-0.96021">
        <ele>6.5</ele>
        <time>2022-06-21T13:08:20Z</time>
      </trkpt>
      <trkpt lat="45.94421" lon="-0.96021">
        <ele>6.6</ele>
        <time>2022-06-21T13:08:21Z</time>
      </trkpt>
      <trkpt lat="45.94419" lon="-0.96021">
        <ele>6.6</ele>
        <time>2022-06-21T13:08:22Z</time>
      </trkpt>
      <trkpt lat="45.94418" lon="-0.96021">
        <ele>6.6</ele>
        <time>2022-06-21T13:08:24Z</time>
      </trkpt>
      <trkpt lat="45.94417" lon="-0.96021">
        <ele>6.6</ele>
        <time>2022-06-21T13:08:25Z</time>
      </trkpt>
      <trkpt lat="45.94416" lon="-0.96022">
        <ele>6.7</ele>
        <time>2022-06-21T13:08:26Z</time>
      </trkpt>
      <trkpt lat="45.94415" lon="-0.96023">
        <ele>6.7</ele>
        <time>2022-06-21T13:08:27Z</time>
      </trkpt>
      <trkpt lat="45.94414" lon="-0.96023">
        <ele>6.7</ele>
        <time>2022-06-21T13:08:28Z</time>
      </trkpt>
      <trkpt lat="45.94412" lon="-0.96023">
        <ele>6.7</ele>
        <time>2022-06-21T13:08:30Z</time>
      </trkpt>
      <trkpt lat="45.9441" lon="-0.96022">
        <ele>6.8</ele>
        <time>2022-06-21T13:08:31Z</time>
      </trkpt>
      <trkpt lat="45.94409" lon="-0.96022">
        <ele>6.8</ele>
        <time>2022-06-21T13:08:32Z</time>
      </trkpt>
      <trkpt lat="45.94409" lon="-0.96022">
        <ele>6.8</ele>
        <time>2022-06-21T13:08:33Z</time>
      </trkpt>
      <trkpt lat="45.94407" lon="-0.96022">
        <ele>6.8</ele>
        <time>2022-06-21T13:08:34Z</time>
      </trkpt>
      <trkpt lat="45.94407" lon="-0.96021">
        <ele>6.9</ele>
        <time>2022-06-21T13:08:35Z</time>
      </trkpt>
      <trkpt lat="45.94406" lon="-0.96021">
        <ele>6.9</ele>
        <time>2022-06-21T13:08:36Z</time>
      </trkpt>
      <trkpt lat="45.94404" lon="-0.96021">
        <ele>6.9</ele>
        <time>2022-06-21T13:08:38Z</time>
      </trkpt>
      <trkpt lat="45.94403" lon="-0.96021">
        <ele>6.9</ele>
        <time>2022-06-21T13:08:39Z</time>
      </trkpt>
      <trkpt lat="45.94402" lon="-0.96021">
        <ele>7</ele>
        <time>2022-06-21T13:08:40Z</time>
      </trkpt>
      <trkpt lat="45.94401" lon="-0.96021">
        <ele>7</ele>
        <time>2022-06-21T13:08:41Z</time>
      </trkpt>
      <trkpt lat="45.944" lon="-0.9602">
        <ele>7</ele>
        <time>2022-06-21T13:08:42Z</time>
      </trkpt>
      <trkpt lat="45.94399" lon="-0.9602">
        <ele>7</ele>
        <time>2022-06-21T13:08:43Z</time>
      </trkpt>
      <trkpt lat="45.94397" lon="-0.96019">
        <ele>7.1</ele>
        <time>2022-06-21T13:08:44Z</time>
      </trkpt>
      <trkpt lat="45.94396" lon="-0.96019">
        <ele>7</ele>
        <time>2022-06-21T13:08:45Z</time>
      </trkpt>
      <trkpt lat="45.94396" lon="-0.96019">
        <ele>7.1</ele>
        <time>2022-06-21T13:08:47Z</time>
      </trkpt>
      <trkpt lat="45.94395" lon="-0.96015">
        <ele>7</ele>
        <time>2022-06-21T13:08:49Z</time>
      </trkpt>
      <trkpt lat="45.94394" lon="-0.96014">
        <ele>7</ele>
        <time>2022-06-21T13:08:50Z</time>
      </trkpt>
      <trkpt lat="45.94394" lon="-0.96013">
        <ele>7</ele>
        <time>2022-06-21T13:08:51Z</time>
      </trkpt>
      <trkpt lat="45.94394" lon="-0.96011">
        <ele>7</ele>
        <time>2022-06-21T13:08:52Z</time>
      </trkpt>
      <trkpt lat="45.94393" lon="-0.96008">
        <ele>7</ele>
        <time>2022-06-21T13:08:54Z</time>
      </trkpt>
      <trkpt lat="45.94393" lon="-0.96007">
        <ele>7</ele>
        <time>2022-06-21T13:08:55Z</time>
      </trkpt>
      <trkpt lat="45.94391" lon="-0.96004">
        <ele>7</ele>
        <time>2022-06-21T13:08:56Z</time>
      </trkpt>
      <trkpt lat="45.94391" lon="-0.96003">
        <ele>6.9</ele>
        <time>2022-06-21T13:08:57Z</time>
      </trkpt>
      <trkpt lat="45.9439" lon="-0.96001">
        <ele>7</ele>
        <time>2022-06-21T13:08:58Z</time>
      </trkpt>
      <trkpt lat="45.94389" lon="-0.96002">
        <ele>7</ele>
        <time>2022-06-21T13:09:00Z</time>
      </trkpt>
      <trkpt lat="45.94389" lon="-0.96002">
        <ele>7</ele>
        <time>2022-06-21T13:09:01Z</time>
      </trkpt>
      <trkpt lat="45.94388" lon="-0.96001">
        <ele>7</ele>
        <time>2022-06-21T13:09:02Z</time>
      </trkpt>
      <trkpt lat="45.94387" lon="-0.96">
        <ele>6.9</ele>
        <time>2022-06-21T13:09:03Z</time>
      </trkpt>
      <trkpt lat="45.94385" lon="-0.95999">
        <ele>7</ele>
        <time>2022-06-21T13:09:04Z</time>
      </trkpt>
      <trkpt lat="45.94384" lon="-0.95997">
        <ele>7.2</ele>
        <time>2022-06-21T13:09:06Z</time>
      </trkpt>
      <trkpt lat="45.94383" lon="-0.95996">
        <ele>7.1</ele>
        <time>2022-06-21T13:09:07Z</time>
      </trkpt>
      <trkpt lat="45.94382" lon="-0.95995">
        <ele>7.1</ele>
        <time>2022-06-21T13:09:08Z</time>
      </trkpt>
      <trkpt lat="45.94382" lon="-0.95994">
        <ele>7.1</ele>
        <time>2022-06-21T13:09:09Z</time>
      </trkpt>
      <trkpt lat="45.94381" lon="-0.95993">
        <ele>7.2</ele>
        <time>2022-06-21T13:09:10Z</time>
      </trkpt>
      <trkpt lat="45.9438" lon="-0.95992">
        <ele>7.1</ele>
        <time>2022-06-21T13:09:11Z</time>
      </trkpt>
      <trkpt lat="45.94379" lon="-0.95991">
        <ele>7.1</ele>
        <time>2022-06-21T13:09:12Z</time>
      </trkpt>
      <trkpt lat="45.94378" lon="-0.9599">
        <ele>7.2</ele>
        <time>2022-06-21T13:09:13Z</time>
      </trkpt>
      <trkpt lat="45.94377" lon="-0.9599">
        <ele>7.2</ele>
        <time>2022-06-21T13:09:15Z</time>
      </trkpt>
      <trkpt lat="45.94376" lon="-0.95988">
        <ele>7.1</ele>
        <time>2022-06-21T13:09:16Z</time>
      </trkpt>
      <trkpt lat="45.94375" lon="-0.95987">
        <ele>7.1</ele>
        <time>2022-06-21T13:09:17Z</time>
      </trkpt>
      <trkpt lat="45.94374" lon="-0.95986">
        <ele>7.2</ele>
        <time>2022-06-21T13:09:18Z</time>
      </trkpt>
      <trkpt lat="45.94372" lon="-0.95985">
        <ele>7.1</ele>
        <time>2022-06-21T13:09:20Z</time>
      </trkpt>
      <trkpt lat="45.94371" lon="-0.95982">
        <ele>7.1</ele>
        <time>2022-06-21T13:09:21Z</time>
      </trkpt>
      <trkpt lat="45.94371" lon="-0.95981">
        <ele>7.1</ele>
        <time>2022-06-21T13:09:22Z</time>
      </trkpt>
      <trkpt lat="45.9437" lon="-0.9598">
        <ele>7.1</ele>
        <time>2022-06-21T13:09:23Z</time>
      </trkpt>
      <trkpt lat="45.9437" lon="-0.95978">
        <ele>7.1</ele>
        <time>2022-06-21T13:09:24Z</time>
      </trkpt>
      <trkpt lat="45.9437" lon="-0.95976">
        <ele>7</ele>
        <time>2022-06-21T13:09:25Z</time>
      </trkpt>
      <trkpt lat="45.94369" lon="-0.95973">
        <ele>7</ele>
        <time>2022-06-21T13:09:26Z</time>
      </trkpt>
      <trkpt lat="45.94369" lon="-0.95972">
        <ele>6.9</ele>
        <time>2022-06-21T13:09:28Z</time>
      </trkpt>
      <trkpt lat="45.94369" lon="-0.9597">
        <ele>6.9</ele>
        <time>2022-06-21T13:09:29Z</time>
      </trkpt>
      <trkpt lat="45.9437" lon="-0.95967">
        <ele>6.9</ele>
        <time>2022-06-21T13:09:30Z</time>
      </trkpt>
      <trkpt lat="45.9437" lon="-0.95966">
        <ele>6.9</ele>
        <time>2022-06-21T13:09:31Z</time>
      </trkpt>
      <trkpt lat="45.94371" lon="-0.95965">
        <ele>6.8</ele>
        <time>2022-06-21T13:09:32Z</time>
      </trkpt>
      <trkpt lat="45.94372" lon="-0.95964">
        <ele>6.8</ele>
        <time>2022-06-21T13:09:33Z</time>
      </trkpt>
      <trkpt lat="45.94373" lon="-0.95962">
        <ele>6.8</ele>
        <time>2022-06-21T13:09:34Z</time>
      </trkpt>
      <trkpt lat="45.94377" lon="-0.95962">
        <ele>6.7</ele>
        <time>2022-06-21T13:09:36Z</time>
      </trkpt>
      <trkpt lat="45.94377" lon="-0.95962">
        <ele>6.7</ele>
        <time>2022-06-21T13:09:37Z</time>
      </trkpt>
      <trkpt lat="45.94379" lon="-0.95962">
        <ele>6.7</ele>
        <time>2022-06-21T13:09:38Z</time>
      </trkpt>
      <trkpt lat="45.9438" lon="-0.95961">
        <ele>6.6</ele>
        <time>2022-06-21T13:09:39Z</time>
      </trkpt>
      <trkpt lat="45.94381" lon="-0.95962">
        <ele>6.6</ele>
        <time>2022-06-21T13:09:40Z</time>
      </trkpt>
      <trkpt lat="45.94381" lon="-0.95961">
        <ele>6.6</ele>
        <time>2022-06-21T13:09:41Z</time>
      </trkpt>
      <trkpt lat="45.94381" lon="-0.95962">
        <ele>6.6</ele>
        <time>2022-06-21T13:09:42Z</time>
      </trkpt>
      <trkpt lat="45.94381" lon="-0.95962">
        <ele>6.6</ele>
        <time>2022-06-21T13:09:43Z</time>
      </trkpt>
      <trkpt lat="45.94381" lon="-0.95962">
        <ele>6.6</ele>
        <time>2022-06-21T13:09:44Z</time>
      </trkpt>
      <trkpt lat="45.94381" lon="-0.95962">
        <ele>6.6</ele>
        <time>2022-06-21T13:09:45Z</time>
      </trkpt>
      <trkpt lat="45.94381" lon="-0.95962">
        <ele>6.6</ele>
        <time>2022-06-21T13:09:46Z</time>
      </trkpt>
      <trkpt lat="45.94381" lon="-0.95962">
        <ele>6.6</ele>
        <time>2022-06-21T13:09:47Z</time>
      </trkpt>
      <trkpt lat="45.94381" lon="-0.95962">
        <ele>6.6</ele>
        <time>2022-06-21T13:09:48Z</time>
      </trkpt>
      <trkpt lat="45.94382" lon="-0.95962">
        <ele>6.6</ele>
        <time>2022-06-21T13:09:49Z</time>
      </trkpt>
      <trkpt lat="45.94381" lon="-0.95963">
        <ele>6.6</ele>
        <time>2022-06-21T13:09:51Z</time>
      </trkpt>
      <trkpt lat="45.94381" lon="-0.95962">
        <ele>6.6</ele>
        <time>2022-06-21T13:09:52Z</time>
      </trkpt>
      <trkpt lat="45.94381" lon="-0.95962">
        <ele>6.6</ele>
        <time>2022-06-21T13:09:53Z</time>
      </trkpt>
      <trkpt lat="45.94381" lon="-0.95962">
        <ele>6.6</ele>
        <time>2022-06-21T13:09:54Z</time>
      </trkpt>
      <trkpt lat="45.94382" lon="-0.95962">
        <ele>6.6</ele>
        <time>2022-06-21T13:09:55Z</time>
      </trkpt>
      <trkpt lat="45.94381" lon="-0.95962">
        <ele>6.6</ele>
        <time>2022-06-21T13:09:56Z</time>
      </trkpt>
      <trkpt lat="45.94381" lon="-0.95962">
        <ele>6.6</ele>
        <time>2022-06-21T13:09:57Z</time>
      </trkpt>
      <trkpt lat="45.94381" lon="-0.95962">
        <ele>6.6</ele>
        <time>2022-06-21T13:09:58Z</time>
      </trkpt>
      <trkpt lat="45.94382" lon="-0.95962">
        <ele>6.6</ele>
        <time>2022-06-21T13:09:59Z</time>
      </trkpt>
      <trkpt lat="45.94382" lon="-0.95961">
        <ele>6.5</ele>
        <time>2022-06-21T13:10:00Z</time>
      </trkpt>
      <trkpt lat="45.94382" lon="-0.95961">
        <ele>6.5</ele>
        <time>2022-06-21T13:10:01Z</time>
      </trkpt>
      <trkpt lat="45.94383" lon="-0.9596">
        <ele>6.5</ele>
        <time>2022-06-21T13:10:02Z</time>
      </trkpt>
      <trkpt lat="45.94384" lon="-0.9596">
        <ele>6.5</ele>
        <time>2022-06-21T13:10:03Z</time>
      </trkpt>
      <trkpt lat="45.94384" lon="-0.95959">
        <ele>6.5</ele>
        <time>2022-06-21T13:10:04Z</time>
      </trkpt>
      <trkpt lat="45.94385" lon="-0.95957">
        <ele>6.5</ele>
        <time>2022-06-21T13:10:06Z</time>
      </trkpt>
      <trkpt lat="45.94386" lon="-0.95956">
        <ele>6.5</ele>
        <time>2022-06-21T13:10:07Z</time>
      </trkpt>
      <trkpt lat="45.94386" lon="-0.95954">
        <ele>6.4</ele>
        <time>2022-06-21T13:10:08Z</time>
      </trkpt>
      <trkpt lat="45.94387" lon="-0.95952">
        <ele>6.4</ele>
        <time>2022-06-21T13:10:09Z</time>
      </trkpt>
      <trkpt lat="45.94388" lon="-0.95949">
        <ele>6.4</ele>
        <time>2022-06-21T13:10:10Z</time>
      </trkpt>
      <trkpt lat="45.94389" lon="-0.95948">
        <ele>6.4</ele>
        <time>2022-06-21T13:10:11Z</time>
      </trkpt>
      <trkpt lat="45.9439" lon="-0.95946">
        <ele>6.3</ele>
        <time>2022-06-21T13:10:12Z</time>
      </trkpt>
      <trkpt lat="45.94391" lon="-0.95945">
        <ele>6.3</ele>
        <time>2022-06-21T13:10:13Z</time>
      </trkpt>
      <trkpt lat="45.94392" lon="-0.95941">
        <ele>6.3</ele>
        <time>2022-06-21T13:10:15Z</time>
      </trkpt>
      <trkpt lat="45.94393" lon="-0.9594">
        <ele>6.2</ele>
        <time>2022-06-21T13:10:16Z</time>
      </trkpt>
      <trkpt lat="45.94395" lon="-0.95938">
        <ele>6.2</ele>
        <time>2022-06-21T13:10:17Z</time>
      </trkpt>
      <trkpt lat="45.94397" lon="-0.95934">
        <ele>6.2</ele>
        <time>2022-06-21T13:10:19Z</time>
      </trkpt>
      <trkpt lat="45.94398" lon="-0.9593">
        <ele>6.1</ele>
        <time>2022-06-21T13:10:20Z</time>
      </trkpt>
      <trkpt lat="45.94399" lon="-0.95928">
        <ele>6.1</ele>
        <time>2022-06-21T13:10:21Z</time>
      </trkpt>
      <trkpt lat="45.944" lon="-0.95924">
        <ele>6.1</ele>
        <time>2022-06-21T13:10:22Z</time>
      </trkpt>
      <trkpt lat="45.94401" lon="-0.95923">
        <ele>6.1</ele>
        <time>2022-06-21T13:10:23Z</time>
      </trkpt>
      <trkpt lat="45.94402" lon="-0.95921">
        <ele>6</ele>
        <time>2022-06-21T13:10:24Z</time>
      </trkpt>
      <trkpt lat="45.94402" lon="-0.95918">
        <ele>6</ele>
        <time>2022-06-21T13:10:26Z</time>
      </trkpt>
      <trkpt lat="45.94403" lon="-0.95916">
        <ele>6</ele>
        <time>2022-06-21T13:10:27Z</time>
      </trkpt>
      <trkpt lat="45.94403" lon="-0.95915">
        <ele>6</ele>
        <time>2022-06-21T13:10:28Z</time>
      </trkpt>
      <trkpt lat="45.94403" lon="-0.95913">
        <ele>6</ele>
        <time>2022-06-21T13:10:29Z</time>
      </trkpt>
      <trkpt lat="45.94401" lon="-0.95915">
        <ele>6</ele>
        <time>2022-06-21T13:10:30Z</time>
      </trkpt>
      <trkpt lat="45.94401" lon="-0.95915">
        <ele>6</ele>
        <time>2022-06-21T13:10:31Z</time>
      </trkpt>
      <trkpt lat="45.94401" lon="-0.95916">
        <ele>6</ele>
        <time>2022-06-21T13:10:32Z</time>
      </trkpt>
      <trkpt lat="45.944" lon="-0.95916">
        <ele>6</ele>
        <time>2022-06-21T13:10:33Z</time>
      </trkpt>
      <trkpt lat="45.944" lon="-0.95916">
        <ele>6</ele>
        <time>2022-06-21T13:10:34Z</time>
      </trkpt>
      <trkpt lat="45.944" lon="-0.95917">
        <ele>6</ele>
        <time>2022-06-21T13:10:35Z</time>
      </trkpt>
      <trkpt lat="45.944" lon="-0.95917">
        <ele>6</ele>
        <time>2022-06-21T13:10:36Z</time>
      </trkpt>
      <trkpt lat="45.94399" lon="-0.95917">
        <ele>6</ele>
        <time>2022-06-21T13:10:37Z</time>
      </trkpt>
      <trkpt lat="45.94399" lon="-0.95917">
        <ele>6</ele>
        <time>2022-06-21T13:10:38Z</time>
      </trkpt>
      <trkpt lat="45.94399" lon="-0.95917">
        <ele>6</ele>
        <time>2022-06-21T13:10:39Z</time>
      </trkpt>
      <trkpt lat="45.94399" lon="-0.95918">
        <ele>6</ele>
        <time>2022-06-21T13:10:40Z</time>
      </trkpt>
      <trkpt lat="45.94399" lon="-0.95918">
        <ele>6</ele>
        <time>2022-06-21T13:10:41Z</time>
      </trkpt>
      <trkpt lat="45.94399" lon="-0.95918">
        <ele>6</ele>
        <time>2022-06-21T13:10:42Z</time>
      </trkpt>
      <trkpt lat="45.94398" lon="-0.95918">
        <ele>6</ele>
        <time>2022-06-21T13:10:43Z</time>
      </trkpt>
      <trkpt lat="45.94398" lon="-0.95918">
        <ele>5.9</ele>
        <time>2022-06-21T13:10:44Z</time>
      </trkpt>
      <trkpt lat="45.94398" lon="-0.95919">
        <ele>5.9</ele>
        <time>2022-06-21T13:10:45Z</time>
      </trkpt>
      <trkpt lat="45.94398" lon="-0.95919">
        <ele>5.9</ele>
        <time>2022-06-21T13:10:46Z</time>
      </trkpt>
      <trkpt lat="45.94398" lon="-0.95919">
        <ele>5.9</ele>
        <time>2022-06-21T13:10:47Z</time>
      </trkpt>
      <trkpt lat="45.94398" lon="-0.95919">
        <ele>5.9</ele>
        <time>2022-06-21T13:10:48Z</time>
      </trkpt>
      <trkpt lat="45.94397" lon="-0.95919">
        <ele>5.9</ele>
        <time>2022-06-21T13:10:49Z</time>
      </trkpt>
      <trkpt lat="45.94397" lon="-0.9592">
        <ele>5.9</ele>
        <time>2022-06-21T13:10:50Z</time>
      </trkpt>
      <trkpt lat="45.94397" lon="-0.9592">
        <ele>5.9</ele>
        <time>2022-06-21T13:10:51Z</time>
      </trkpt>
      <trkpt lat="45.94397" lon="-0.9592">
        <ele>5.9</ele>
        <time>2022-06-21T13:10:52Z</time>
      </trkpt>
      <trkpt lat="45.94395" lon="-0.95922">
        <ele>5.9</ele>
        <time>2022-06-21T13:10:53Z</time>
      </trkpt>
      <trkpt lat="45.94394" lon="-0.95922">
        <ele>5.9</ele>
        <time>2022-06-21T13:10:54Z</time>
      </trkpt>
      <trkpt lat="45.94398" lon="-0.95918">
        <ele>5.9</ele>
        <time>2022-06-21T13:10:55Z</time>
      </trkpt>
      <trkpt lat="45.94399" lon="-0.95917">
        <ele>5.9</ele>
        <time>2022-06-21T13:10:56Z</time>
      </trkpt>
      <trkpt lat="45.94399" lon="-0.95917">
        <ele>5.9</ele>
        <time>2022-06-21T13:10:57Z</time>
      </trkpt>
      <trkpt lat="45.944" lon="-0.95917">
        <ele>5.9</ele>
        <time>2022-06-21T13:10:58Z</time>
      </trkpt>
      <trkpt lat="45.94401" lon="-0.95917">
        <ele>5.9</ele>
        <time>2022-06-21T13:10:59Z</time>
      </trkpt>
      <trkpt lat="45.94401" lon="-0.95917">
        <ele>5.9</ele>
        <time>2022-06-21T13:11:00Z</time>
      </trkpt>
      <trkpt lat="45.94402" lon="-0.95917">
        <ele>5.9</ele>
        <time>2022-06-21T13:11:02Z</time>
      </trkpt>
      <trkpt lat="45.94403" lon="-0.95916">
        <ele>5.9</ele>
        <time>2022-06-21T13:11:03Z</time>
      </trkpt>
      <trkpt lat="45.94404" lon="-0.95916">
        <ele>5.9</ele>
        <time>2022-06-21T13:11:04Z</time>
      </trkpt>
      <trkpt lat="45.94404" lon="-0.95915">
        <ele>5.9</ele>
        <time>2022-06-21T13:11:05Z</time>
      </trkpt>
      <trkpt lat="45.94405" lon="-0.95914">
        <ele>5.9</ele>
        <time>2022-06-21T13:11:06Z</time>
      </trkpt>
      <trkpt lat="45.94406" lon="-0.95914">
        <ele>5.9</ele>
        <time>2022-06-21T13:11:07Z</time>
      </trkpt>
      <trkpt lat="45.94406" lon="-0.95913">
        <ele>5.9</ele>
        <time>2022-06-21T13:11:08Z</time>
      </trkpt>
      <trkpt lat="45.94407" lon="-0.95912">
        <ele>5.9</ele>
        <time>2022-06-21T13:11:09Z</time>
      </trkpt>
      <trkpt lat="45.94408" lon="-0.95909">
        <ele>5.9</ele>
        <time>2022-06-21T13:11:10Z</time>
      </trkpt>
      <trkpt lat="45.94409" lon="-0.95908">
        <ele>5.9</ele>
        <time>2022-06-21T13:11:11Z</time>
      </trkpt>
      <trkpt lat="45.9441" lon="-0.95907">
        <ele>5.9</ele>
        <time>2022-06-21T13:11:12Z</time>
      </trkpt>
      <trkpt lat="45.94411" lon="-0.95905">
        <ele>5.9</ele>
        <time>2022-06-21T13:11:13Z</time>
      </trkpt>
      <trkpt lat="45.94413" lon="-0.95903">
        <ele>5.9</ele>
        <time>2022-06-21T13:11:15Z</time>
      </trkpt>
      <trkpt lat="45.94413" lon="-0.959">
        <ele>5.9</ele>
        <time>2022-06-21T13:11:16Z</time>
      </trkpt>
      <trkpt lat="45.94414" lon="-0.95899">
        <ele>5.9</ele>
        <time>2022-06-21T13:11:17Z</time>
      </trkpt>
      <trkpt lat="45.94415" lon="-0.95897">
        <ele>5.8</ele>
        <time>2022-06-21T13:11:18Z</time>
      </trkpt>
      <trkpt lat="45.94415" lon="-0.95894">
        <ele>5.8</ele>
        <time>2022-06-21T13:11:20Z</time>
      </trkpt>
      <trkpt lat="45.94415" lon="-0.95892">
        <ele>5.8</ele>
        <time>2022-06-21T13:11:21Z</time>
      </trkpt>
      <trkpt lat="45.94415" lon="-0.95889">
        <ele>5.8</ele>
        <time>2022-06-21T13:11:22Z</time>
      </trkpt>
      <trkpt lat="45.94415" lon="-0.95887">
        <ele>5.7</ele>
        <time>2022-06-21T13:11:23Z</time>
      </trkpt>
      <trkpt lat="45.94414" lon="-0.95885">
        <ele>5.7</ele>
        <time>2022-06-21T13:11:24Z</time>
      </trkpt>
      <trkpt lat="45.94413" lon="-0.95881">
        <ele>5.7</ele>
        <time>2022-06-21T13:11:25Z</time>
      </trkpt>
      <trkpt lat="45.94412" lon="-0.9588">
        <ele>5.7</ele>
        <time>2022-06-21T13:11:26Z</time>
      </trkpt>
      <trkpt lat="45.94412" lon="-0.95878">
        <ele>5.7</ele>
        <time>2022-06-21T13:11:27Z</time>
      </trkpt>
      <trkpt lat="45.9441" lon="-0.95876">
        <ele>5.7</ele>
        <time>2022-06-21T13:11:29Z</time>
      </trkpt>
      <trkpt lat="45.94409" lon="-0.95874">
        <ele>5.7</ele>
        <time>2022-06-21T13:11:30Z</time>
      </trkpt>
      <trkpt lat="45.94408" lon="-0.95873">
        <ele>5.7</ele>
        <time>2022-06-21T13:11:31Z</time>
      </trkpt>
      <trkpt lat="45.94406" lon="-0.95871">
        <ele>5.7</ele>
        <time>2022-06-21T13:11:32Z</time>
      </trkpt>
      <trkpt lat="45.94405" lon="-0.9587">
        <ele>5.7</ele>
        <time>2022-06-21T13:11:33Z</time>
      </trkpt>
      <trkpt lat="45.94403" lon="-0.9587">
        <ele>5.7</ele>
        <time>2022-06-21T13:11:34Z</time>
      </trkpt>
      <trkpt lat="45.94402" lon="-0.95868">
        <ele>5.7</ele>
        <time>2022-06-21T13:11:35Z</time>
      </trkpt>
      <trkpt lat="45.944" lon="-0.95867">
        <ele>5.7</ele>
        <time>2022-06-21T13:11:37Z</time>
      </trkpt>
      <trkpt lat="45.94399" lon="-0.95866">
        <ele>5.7</ele>
        <time>2022-06-21T13:11:38Z</time>
      </trkpt>
      <trkpt lat="45.94397" lon="-0.95866">
        <ele>5.7</ele>
        <time>2022-06-21T13:11:39Z</time>
      </trkpt>
      <trkpt lat="45.94396" lon="-0.95865">
        <ele>5.7</ele>
        <time>2022-06-21T13:11:40Z</time>
      </trkpt>
      <trkpt lat="45.94395" lon="-0.95864">
        <ele>5.8</ele>
        <time>2022-06-21T13:11:41Z</time>
      </trkpt>
      <trkpt lat="45.94394" lon="-0.95864">
        <ele>5.8</ele>
        <time>2022-06-21T13:11:42Z</time>
      </trkpt>
      <trkpt lat="45.94393" lon="-0.95863">
        <ele>5.8</ele>
        <time>2022-06-21T13:11:43Z</time>
      </trkpt>
      <trkpt lat="45.94391" lon="-0.95863">
        <ele>5.8</ele>
        <time>2022-06-21T13:11:45Z</time>
      </trkpt>
      <trkpt lat="45.9439" lon="-0.95862">
        <ele>5.8</ele>
        <time>2022-06-21T13:11:46Z</time>
      </trkpt>
      <trkpt lat="45.94391" lon="-0.95863">
        <ele>5.8</ele>
        <time>2022-06-21T13:11:47Z</time>
      </trkpt>
      <trkpt lat="45.94391" lon="-0.95864">
        <ele>5.8</ele>
        <time>2022-06-21T13:11:48Z</time>
      </trkpt>
      <trkpt lat="45.9439" lon="-0.95862">
        <ele>5.8</ele>
        <time>2022-06-21T13:11:49Z</time>
      </trkpt>
      <trkpt lat="45.94389" lon="-0.95861">
        <ele>5.8</ele>
        <time>2022-06-21T13:11:50Z</time>
      </trkpt>
      <trkpt lat="45.94388" lon="-0.95859">
        <ele>5.8</ele>
        <time>2022-06-21T13:11:51Z</time>
      </trkpt>
      <trkpt lat="45.94388" lon="-0.95858">
        <ele>5.8</ele>
        <time>2022-06-21T13:11:52Z</time>
      </trkpt>
      <trkpt lat="45.94387" lon="-0.95857">
        <ele>5.8</ele>
        <time>2022-06-21T13:11:53Z</time>
      </trkpt>
      <trkpt lat="45.94386" lon="-0.95855">
        <ele>5.8</ele>
        <time>2022-06-21T13:11:54Z</time>
      </trkpt>
      <trkpt lat="45.94385" lon="-0.95854">
        <ele>5.9</ele>
        <time>2022-06-21T13:11:55Z</time>
      </trkpt>
      <trkpt lat="45.94385" lon="-0.95852">
        <ele>5.9</ele>
        <time>2022-06-21T13:11:57Z</time>
      </trkpt>
      <trkpt lat="45.94384" lon="-0.95851">
        <ele>5.9</ele>
        <time>2022-06-21T13:11:58Z</time>
      </trkpt>
      <trkpt lat="45.94384" lon="-0.9585">
        <ele>5.9</ele>
        <time>2022-06-21T13:11:59Z</time>
      </trkpt>
      <trkpt lat="45.94383" lon="-0.95847">
        <ele>5.9</ele>
        <time>2022-06-21T13:12:00Z</time>
      </trkpt>
      <trkpt lat="45.94382" lon="-0.95846">
        <ele>5.9</ele>
        <time>2022-06-21T13:12:01Z</time>
      </trkpt>
      <trkpt lat="45.94382" lon="-0.95845">
        <ele>5.9</ele>
        <time>2022-06-21T13:12:02Z</time>
      </trkpt>
      <trkpt lat="45.94382" lon="-0.95844">
        <ele>5.9</ele>
        <time>2022-06-21T13:12:03Z</time>
      </trkpt>
      <trkpt lat="45.94381" lon="-0.95845">
        <ele>5.9</ele>
        <time>2022-06-21T13:12:05Z</time>
      </trkpt>
      <trkpt lat="45.94381" lon="-0.95844">
        <ele>5.9</ele>
        <time>2022-06-21T13:12:06Z</time>
      </trkpt>
      <trkpt lat="45.94381" lon="-0.95842">
        <ele>5.9</ele>
        <time>2022-06-21T13:12:07Z</time>
      </trkpt>
      <trkpt lat="45.9438" lon="-0.95841">
        <ele>6</ele>
        <time>2022-06-21T13:12:08Z</time>
      </trkpt>
      <trkpt lat="45.94379" lon="-0.95839">
        <ele>6</ele>
        <time>2022-06-21T13:12:09Z</time>
      </trkpt>
      <trkpt lat="45.94378" lon="-0.95838">
        <ele>6</ele>
        <time>2022-06-21T13:12:10Z</time>
      </trkpt>
      <trkpt lat="45.94378" lon="-0.95837">
        <ele>6</ele>
        <time>2022-06-21T13:12:11Z</time>
      </trkpt>
      <trkpt lat="45.94377" lon="-0.95835">
        <ele>6</ele>
        <time>2022-06-21T13:12:13Z</time>
      </trkpt>
      <trkpt lat="45.94376" lon="-0.95835">
        <ele>6</ele>
        <time>2022-06-21T13:12:14Z</time>
      </trkpt>
      <trkpt lat="45.94375" lon="-0.95834">
        <ele>6</ele>
        <time>2022-06-21T13:12:15Z</time>
      </trkpt>
      <trkpt lat="45.94374" lon="-0.95832">
        <ele>6</ele>
        <time>2022-06-21T13:12:16Z</time>
      </trkpt>
      <trkpt lat="45.94373" lon="-0.95831">
        <ele>6</ele>
        <time>2022-06-21T13:12:17Z</time>
      </trkpt>
      <trkpt lat="45.94373" lon="-0.9583">
        <ele>6.1</ele>
        <time>2022-06-21T13:12:18Z</time>
      </trkpt>
      <trkpt lat="45.94372" lon="-0.95829">
        <ele>6.1</ele>
        <time>2022-06-21T13:12:20Z</time>
      </trkpt>
      <trkpt lat="45.94371" lon="-0.95828">
        <ele>6.1</ele>
        <time>2022-06-21T13:12:21Z</time>
      </trkpt>
      <trkpt lat="45.94371" lon="-0.95828">
        <ele>6.1</ele>
        <time>2022-06-21T13:12:22Z</time>
      </trkpt>
      <trkpt lat="45.9437" lon="-0.95827">
        <ele>6.1</ele>
        <time>2022-06-21T13:12:23Z</time>
      </trkpt>
      <trkpt lat="45.94369" lon="-0.95825">
        <ele>6.1</ele>
        <time>2022-06-21T13:12:24Z</time>
      </trkpt>
      <trkpt lat="45.94368" lon="-0.95824">
        <ele>6.1</ele>
        <time>2022-06-21T13:12:25Z</time>
      </trkpt>
      <trkpt lat="45.94368" lon="-0.95822">
        <ele>6.1</ele>
        <time>2022-06-21T13:12:27Z</time>
      </trkpt>
      <trkpt lat="45.94368" lon="-0.95821">
        <ele>6.1</ele>
        <time>2022-06-21T13:12:28Z</time>
      </trkpt>
      <trkpt lat="45.94368" lon="-0.95821">
        <ele>6.2</ele>
        <time>2022-06-21T13:12:29Z</time>
      </trkpt>
      <trkpt lat="45.94368" lon="-0.9582">
        <ele>6.2</ele>
        <time>2022-06-21T13:12:30Z</time>
      </trkpt>
      <trkpt lat="45.94367" lon="-0.95817">
        <ele>6.2</ele>
        <time>2022-06-21T13:12:31Z</time>
      </trkpt>
      <trkpt lat="45.94366" lon="-0.95816">
        <ele>6.2</ele>
        <time>2022-06-21T13:12:32Z</time>
      </trkpt>
      <trkpt lat="45.94365" lon="-0.95815">
        <ele>6.2</ele>
        <time>2022-06-21T13:12:34Z</time>
      </trkpt>
      <trkpt lat="45.94363" lon="-0.95814">
        <ele>6.2</ele>
        <time>2022-06-21T13:12:35Z</time>
      </trkpt>
      <trkpt lat="45.94362" lon="-0.95812">
        <ele>6.3</ele>
        <time>2022-06-21T13:12:36Z</time>
      </trkpt>
      <trkpt lat="45.94361" lon="-0.95811">
        <ele>6.3</ele>
        <time>2022-06-21T13:12:37Z</time>
      </trkpt>
      <trkpt lat="45.94361" lon="-0.9581">
        <ele>6.3</ele>
        <time>2022-06-21T13:12:38Z</time>
      </trkpt>
      <trkpt lat="45.9436" lon="-0.95809">
        <ele>6.3</ele>
        <time>2022-06-21T13:12:39Z</time>
      </trkpt>
      <trkpt lat="45.94358" lon="-0.95808">
        <ele>6.3</ele>
        <time>2022-06-21T13:12:40Z</time>
      </trkpt>
      <trkpt lat="45.94357" lon="-0.95806">
        <ele>6.3</ele>
        <time>2022-06-21T13:12:42Z</time>
      </trkpt>
      <trkpt lat="45.94357" lon="-0.95806">
        <ele>6.3</ele>
        <time>2022-06-21T13:12:43Z</time>
      </trkpt>
      <trkpt lat="45.94356" lon="-0.95806">
        <ele>6.3</ele>
        <time>2022-06-21T13:12:44Z</time>
      </trkpt>
      <trkpt lat="45.94356" lon="-0.95805">
        <ele>6.3</ele>
        <time>2022-06-21T13:12:45Z</time>
      </trkpt>
      <trkpt lat="45.94354" lon="-0.95803">
        <ele>6.4</ele>
        <time>2022-06-21T13:12:47Z</time>
      </trkpt>
      <trkpt lat="45.94354" lon="-0.95803">
        <ele>6.4</ele>
        <time>2022-06-21T13:12:48Z</time>
      </trkpt>
      <trkpt lat="45.94353" lon="-0.95802">
        <ele>6.4</ele>
        <time>2022-06-21T13:12:49Z</time>
      </trkpt>
      <trkpt lat="45.94352" lon="-0.95802">
        <ele>6.4</ele>
        <time>2022-06-21T13:12:50Z</time>
      </trkpt>
      <trkpt lat="45.9435" lon="-0.95801">
        <ele>6.4</ele>
        <time>2022-06-21T13:12:52Z</time>
      </trkpt>
      <trkpt lat="45.94349" lon="-0.958">
        <ele>6.4</ele>
        <time>2022-06-21T13:12:53Z</time>
      </trkpt>
      <trkpt lat="45.94348" lon="-0.95799">
        <ele>6.4</ele>
        <time>2022-06-21T13:12:54Z</time>
      </trkpt>
      <trkpt lat="45.94347" lon="-0.95798">
        <ele>6.4</ele>
        <time>2022-06-21T13:12:55Z</time>
      </trkpt>
      <trkpt lat="45.94346" lon="-0.95797">
        <ele>6.4</ele>
        <time>2022-06-21T13:12:56Z</time>
      </trkpt>
      <trkpt lat="45.94345" lon="-0.95795">
        <ele>6.4</ele>
        <time>2022-06-21T13:12:57Z</time>
      </trkpt>
      <trkpt lat="45.94344" lon="-0.95794">
        <ele>6.4</ele>
        <time>2022-06-21T13:12:58Z</time>
      </trkpt>
      <trkpt lat="45.94343" lon="-0.95793">
        <ele>6.4</ele>
        <time>2022-06-21T13:12:59Z</time>
      </trkpt>
      <trkpt lat="45.94342" lon="-0.95793">
        <ele>6.4</ele>
        <time>2022-06-21T13:13:00Z</time>
      </trkpt>
      <trkpt lat="45.94341" lon="-0.95792">
        <ele>6.4</ele>
        <time>2022-06-21T13:13:02Z</time>
      </trkpt>
      <trkpt lat="45.94341" lon="-0.95791">
        <ele>6.4</ele>
        <time>2022-06-21T13:13:03Z</time>
      </trkpt>
      <trkpt lat="45.9434" lon="-0.95791">
        <ele>6.4</ele>
        <time>2022-06-21T13:13:04Z</time>
      </trkpt>
      <trkpt lat="45.94339" lon="-0.9579">
        <ele>6.4</ele>
        <time>2022-06-21T13:13:05Z</time>
      </trkpt>
      <trkpt lat="45.94338" lon="-0.9579">
        <ele>6.4</ele>
        <time>2022-06-21T13:13:06Z</time>
      </trkpt>
      <trkpt lat="45.94337" lon="-0.95789">
        <ele>6.4</ele>
        <time>2022-06-21T13:13:07Z</time>
      </trkpt>
      <trkpt lat="45.94336" lon="-0.95789">
        <ele>6.4</ele>
        <time>2022-06-21T13:13:09Z</time>
      </trkpt>
      <trkpt lat="45.94335" lon="-0.95788">
        <ele>6.4</ele>
        <time>2022-06-21T13:13:10Z</time>
      </trkpt>
      <trkpt lat="45.94333" lon="-0.95787">
        <ele>6.4</ele>
        <time>2022-06-21T13:13:11Z</time>
      </trkpt>
      <trkpt lat="45.94332" lon="-0.95786">
        <ele>6.4</ele>
        <time>2022-06-21T13:13:12Z</time>
      </trkpt>
      <trkpt lat="45.94331" lon="-0.95786">
        <ele>6.4</ele>
        <time>2022-06-21T13:13:13Z</time>
      </trkpt>
      <trkpt lat="45.9433" lon="-0.95785">
        <ele>6.4</ele>
        <time>2022-06-21T13:13:14Z</time>
      </trkpt>
      <trkpt lat="45.94328" lon="-0.95784">
        <ele>6.4</ele>
        <time>2022-06-21T13:13:16Z</time>
      </trkpt>
      <trkpt lat="45.94327" lon="-0.95783">
        <ele>6.4</ele>
        <time>2022-06-21T13:13:17Z</time>
      </trkpt>
      <trkpt lat="45.94325" lon="-0.95782">
        <ele>6.4</ele>
        <time>2022-06-21T13:13:18Z</time>
      </trkpt>
      <trkpt lat="45.94322" lon="-0.9578">
        <ele>6.4</ele>
        <time>2022-06-21T13:13:20Z</time>
      </trkpt>
      <trkpt lat="45.94321" lon="-0.95779">
        <ele>6.4</ele>
        <time>2022-06-21T13:13:21Z</time>
      </trkpt>
      <trkpt lat="45.9432" lon="-0.95778">
        <ele>6.4</ele>
        <time>2022-06-21T13:13:22Z</time>
      </trkpt>
      <trkpt lat="45.94319" lon="-0.95777">
        <ele>6.4</ele>
        <time>2022-06-21T13:13:23Z</time>
      </trkpt>
      <trkpt lat="45.94318" lon="-0.95776">
        <ele>6.4</ele>
        <time>2022-06-21T13:13:24Z</time>
      </trkpt>
      <trkpt lat="45.94317" lon="-0.95776">
        <ele>6.4</ele>
        <time>2022-06-21T13:13:25Z</time>
      </trkpt>
      <trkpt lat="45.94317" lon="-0.95775">
        <ele>6.5</ele>
        <time>2022-06-21T13:13:26Z</time>
      </trkpt>
      <trkpt lat="45.94316" lon="-0.95774">
        <ele>6.5</ele>
        <time>2022-06-21T13:13:28Z</time>
      </trkpt>
      <trkpt lat="45.94315" lon="-0.95774">
        <ele>6.5</ele>
        <time>2022-06-21T13:13:29Z</time>
      </trkpt>
      <trkpt lat="45.94314" lon="-0.95773">
        <ele>6.5</ele>
        <time>2022-06-21T13:13:30Z</time>
      </trkpt>
      <trkpt lat="45.94314" lon="-0.95773">
        <ele>6.5</ele>
        <time>2022-06-21T13:13:31Z</time>
      </trkpt>
      <trkpt lat="45.94313" lon="-0.95772">
        <ele>6.5</ele>
        <time>2022-06-21T13:13:32Z</time>
      </trkpt>
      <trkpt lat="45.94312" lon="-0.95771">
        <ele>6.5</ele>
        <time>2022-06-21T13:13:33Z</time>
      </trkpt>
      <trkpt lat="45.94311" lon="-0.9577">
        <ele>6.5</ele>
        <time>2022-06-21T13:13:35Z</time>
      </trkpt>
      <trkpt lat="45.9431" lon="-0.9577">
        <ele>6.5</ele>
        <time>2022-06-21T13:13:36Z</time>
      </trkpt>
      <trkpt lat="45.9431" lon="-0.9577">
        <ele>6.5</ele>
        <time>2022-06-21T13:13:37Z</time>
      </trkpt>
      <trkpt lat="45.9431" lon="-0.95769">
        <ele>6.5</ele>
        <time>2022-06-21T13:13:38Z</time>
      </trkpt>
      <trkpt lat="45.94309" lon="-0.95769">
        <ele>6.5</ele>
        <time>2022-06-21T13:13:39Z</time>
      </trkpt>
      <trkpt lat="45.94308" lon="-0.95768">
        <ele>6.5</ele>
        <time>2022-06-21T13:13:40Z</time>
      </trkpt>
      <trkpt lat="45.94307" lon="-0.95767">
        <ele>6.5</ele>
        <time>2022-06-21T13:13:41Z</time>
      </trkpt>
      <trkpt lat="45.94307" lon="-0.95767">
        <ele>6.5</ele>
        <time>2022-06-21T13:13:42Z</time>
      </trkpt>
      <trkpt lat="45.94306" lon="-0.95766">
        <ele>6.5</ele>
        <time>2022-06-21T13:13:43Z</time>
      </trkpt>
      <trkpt lat="45.94305" lon="-0.95766">
        <ele>6.5</ele>
        <time>2022-06-21T13:13:44Z</time>
      </trkpt>
      <trkpt lat="45.94303" lon="-0.95764">
        <ele>6.6</ele>
        <time>2022-06-21T13:13:46Z</time>
      </trkpt>
      <trkpt lat="45.94302" lon="-0.95763">
        <ele>6.6</ele>
        <time>2022-06-21T13:13:47Z</time>
      </trkpt>
      <trkpt lat="45.94301" lon="-0.95762">
        <ele>6.6</ele>
        <time>2022-06-21T13:13:48Z</time>
      </trkpt>
      <trkpt lat="45.943" lon="-0.95761">
        <ele>6.6</ele>
        <time>2022-06-21T13:13:49Z</time>
      </trkpt>
      <trkpt lat="45.94298" lon="-0.95759">
        <ele>6.6</ele>
        <time>2022-06-21T13:13:50Z</time>
      </trkpt>
      <trkpt lat="45.94297" lon="-0.95758">
        <ele>6.6</ele>
        <time>2022-06-21T13:13:51Z</time>
      </trkpt>
      <trkpt lat="45.94296" lon="-0.95757">
        <ele>6.6</ele>
        <time>2022-06-21T13:13:53Z</time>
      </trkpt>
      <trkpt lat="45.94295" lon="-0.95756">
        <ele>6.7</ele>
        <time>2022-06-21T13:13:54Z</time>
      </trkpt>
      <trkpt lat="45.94295" lon="-0.95756">
        <ele>6.7</ele>
        <time>2022-06-21T13:13:55Z</time>
      </trkpt>
      <trkpt lat="45.94294" lon="-0.95755">
        <ele>6.7</ele>
        <time>2022-06-21T13:13:56Z</time>
      </trkpt>
      <trkpt lat="45.94293" lon="-0.95754">
        <ele>6.7</ele>
        <time>2022-06-21T13:13:57Z</time>
      </trkpt>
      <trkpt lat="45.94292" lon="-0.95753">
        <ele>6.7</ele>
        <time>2022-06-21T13:13:58Z</time>
      </trkpt>
      <trkpt lat="45.94291" lon="-0.95752">
        <ele>6.7</ele>
        <time>2022-06-21T13:14:00Z</time>
      </trkpt>
      <trkpt lat="45.94289" lon="-0.9575">
        <ele>6.8</ele>
        <time>2022-06-21T13:14:01Z</time>
      </trkpt>
      <trkpt lat="45.94288" lon="-0.9575">
        <ele>6.8</ele>
        <time>2022-06-21T13:14:02Z</time>
      </trkpt>
      <trkpt lat="45.94288" lon="-0.95749">
        <ele>6.8</ele>
        <time>2022-06-21T13:14:03Z</time>
      </trkpt>
      <trkpt lat="45.94287" lon="-0.95748">
        <ele>6.8</ele>
        <time>2022-06-21T13:14:04Z</time>
      </trkpt>
      <trkpt lat="45.94285" lon="-0.95747">
        <ele>6.8</ele>
        <time>2022-06-21T13:14:05Z</time>
      </trkpt>
      <trkpt lat="45.94284" lon="-0.95747">
        <ele>6.8</ele>
        <time>2022-06-21T13:14:07Z</time>
      </trkpt>
      <trkpt lat="45.94283" lon="-0.95746">
        <ele>6.8</ele>
        <time>2022-06-21T13:14:08Z</time>
      </trkpt>
      <trkpt lat="45.94283" lon="-0.95745">
        <ele>6.8</ele>
        <time>2022-06-21T13:14:09Z</time>
      </trkpt>
      <trkpt lat="45.94282" lon="-0.95745">
        <ele>6.8</ele>
        <time>2022-06-21T13:14:10Z</time>
      </trkpt>
      <trkpt lat="45.94281" lon="-0.95744">
        <ele>6.9</ele>
        <time>2022-06-21T13:14:11Z</time>
      </trkpt>
      <trkpt lat="45.9428" lon="-0.95743">
        <ele>6.9</ele>
        <time>2022-06-21T13:14:12Z</time>
      </trkpt>
      <trkpt lat="45.94278" lon="-0.95741">
        <ele>6.9</ele>
        <time>2022-06-21T13:14:13Z</time>
      </trkpt>
      <trkpt lat="45.94278" lon="-0.95741">
        <ele>6.9</ele>
        <time>2022-06-21T13:14:15Z</time>
      </trkpt>
      <trkpt lat="45.94277" lon="-0.9574">
        <ele>6.9</ele>
        <time>2022-06-21T13:14:16Z</time>
      </trkpt>
      <trkpt lat="45.94277" lon="-0.9574">
        <ele>6.9</ele>
        <time>2022-06-21T13:14:17Z</time>
      </trkpt>
      <trkpt lat="45.94276" lon="-0.95739">
        <ele>6.9</ele>
        <time>2022-06-21T13:14:18Z</time>
      </trkpt>
      <trkpt lat="45.94275" lon="-0.95737">
        <ele>6.9</ele>
        <time>2022-06-21T13:14:19Z</time>
      </trkpt>
      <trkpt lat="45.94274" lon="-0.95736">
        <ele>6.9</ele>
        <time>2022-06-21T13:14:20Z</time>
      </trkpt>
      <trkpt lat="45.94273" lon="-0.95735">
        <ele>7</ele>
        <time>2022-06-21T13:14:21Z</time>
      </trkpt>
      <trkpt lat="45.94272" lon="-0.95734">
        <ele>7</ele>
        <time>2022-06-21T13:14:23Z</time>
      </trkpt>
      <trkpt lat="45.9427" lon="-0.95733">
        <ele>7</ele>
        <time>2022-06-21T13:14:24Z</time>
      </trkpt>
      <trkpt lat="45.94268" lon="-0.9573">
        <ele>7</ele>
        <time>2022-06-21T13:14:25Z</time>
      </trkpt>
      <trkpt lat="45.94267" lon="-0.95729">
        <ele>7</ele>
        <time>2022-06-21T13:14:26Z</time>
      </trkpt>
      <trkpt lat="45.94266" lon="-0.95729">
        <ele>7</ele>
        <time>2022-06-21T13:14:27Z</time>
      </trkpt>
      <trkpt lat="45.94264" lon="-0.95729">
        <ele>7</ele>
        <time>2022-06-21T13:14:29Z</time>
      </trkpt>
      <trkpt lat="45.94264" lon="-0.9573">
        <ele>7</ele>
        <time>2022-06-21T13:14:30Z</time>
      </trkpt>
      <trkpt lat="45.94264" lon="-0.95732">
        <ele>7</ele>
        <time>2022-06-21T13:14:31Z</time>
      </trkpt>
      <trkpt lat="45.94265" lon="-0.95732">
        <ele>7</ele>
        <time>2022-06-21T13:14:32Z</time>
      </trkpt>
      <trkpt lat="45.94265" lon="-0.95732">
        <ele>7</ele>
        <time>2022-06-21T13:14:33Z</time>
      </trkpt>
      <trkpt lat="45.94265" lon="-0.95732">
        <ele>7</ele>
        <time>2022-06-21T13:14:34Z</time>
      </trkpt>
      <trkpt lat="45.94265" lon="-0.95732">
        <ele>7</ele>
        <time>2022-06-21T13:14:35Z</time>
      </trkpt>
      <trkpt lat="45.94266" lon="-0.95732">
        <ele>7</ele>
        <time>2022-06-21T13:14:36Z</time>
      </trkpt>
      <trkpt lat="45.94266" lon="-0.95732">
        <ele>7</ele>
        <time>2022-06-21T13:14:37Z</time>
      </trkpt>
      <trkpt lat="45.94265" lon="-0.95732">
        <ele>7</ele>
        <time>2022-06-21T13:14:38Z</time>
      </trkpt>
      <trkpt lat="45.94265" lon="-0.95732">
        <ele>7</ele>
        <time>2022-06-21T13:14:39Z</time>
      </trkpt>
      <trkpt lat="45.94265" lon="-0.95732">
        <ele>7</ele>
        <time>2022-06-21T13:14:40Z</time>
      </trkpt>
      <trkpt lat="45.94265" lon="-0.95732">
        <ele>7</ele>
        <time>2022-06-21T13:14:42Z</time>
      </trkpt>
      <trkpt lat="45.94265" lon="-0.95732">
        <ele>7</ele>
        <time>2022-06-21T13:14:43Z</time>
      </trkpt>
      <trkpt lat="45.94265" lon="-0.95733">
        <ele>7.1</ele>
        <time>2022-06-21T13:14:44Z</time>
      </trkpt>
      <trkpt lat="45.94265" lon="-0.95733">
        <ele>7.1</ele>
        <time>2022-06-21T13:14:45Z</time>
      </trkpt>
      <trkpt lat="45.94265" lon="-0.95733">
        <ele>7.1</ele>
        <time>2022-06-21T13:14:46Z</time>
      </trkpt>
      <trkpt lat="45.94265" lon="-0.95733">
        <ele>7.1</ele>
        <time>2022-06-21T13:14:47Z</time>
      </trkpt>
      <trkpt lat="45.94265" lon="-0.95732">
        <ele>7.1</ele>
        <time>2022-06-21T13:14:48Z</time>
      </trkpt>
      <trkpt lat="45.94266" lon="-0.95732">
        <ele>7.1</ele>
        <time>2022-06-21T13:14:49Z</time>
      </trkpt>
      <trkpt lat="45.94266" lon="-0.95732">
        <ele>7.1</ele>
        <time>2022-06-21T13:14:50Z</time>
      </trkpt>
      <trkpt lat="45.94266" lon="-0.95732">
        <ele>7.1</ele>
        <time>2022-06-21T13:14:51Z</time>
      </trkpt>
      <trkpt lat="45.94266" lon="-0.95732">
        <ele>7.1</ele>
        <time>2022-06-21T13:14:52Z</time>
      </trkpt>
      <trkpt lat="45.94266" lon="-0.95732">
        <ele>7.1</ele>
        <time>2022-06-21T13:14:53Z</time>
      </trkpt>
      <trkpt lat="45.94266" lon="-0.95732">
        <ele>7.1</ele>
        <time>2022-06-21T13:14:54Z</time>
      </trkpt>
      <trkpt lat="45.94266" lon="-0.95732">
        <ele>7.1</ele>
        <time>2022-06-21T13:14:55Z</time>
      </trkpt>
      <trkpt lat="45.94266" lon="-0.95732">
        <ele>7.1</ele>
        <time>2022-06-21T13:14:56Z</time>
      </trkpt>
      <trkpt lat="45.94266" lon="-0.95732">
        <ele>7.1</ele>
        <time>2022-06-21T13:14:57Z</time>
      </trkpt>
      <trkpt lat="45.94266" lon="-0.95732">
        <ele>7.1</ele>
        <time>2022-06-21T13:14:58Z</time>
      </trkpt>
      <trkpt lat="45.94266" lon="-0.95732">
        <ele>7.1</ele>
        <time>2022-06-21T13:14:59Z</time>
      </trkpt>
      <trkpt lat="45.94266" lon="-0.95732">
        <ele>7.1</ele>
        <time>2022-06-21T13:15:00Z</time>
      </trkpt>
      <trkpt lat="45.94266" lon="-0.95732">
        <ele>7.1</ele>
        <time>2022-06-21T13:15:01Z</time>
      </trkpt>
      <trkpt lat="45.94266" lon="-0.95732">
        <ele>7.1</ele>
        <time>2022-06-21T13:15:02Z</time>
      </trkpt>
      <trkpt lat="45.94266" lon="-0.95732">
        <ele>7.1</ele>
        <time>2022-06-21T13:15:03Z</time>
      </trkpt>
      <trkpt lat="45.94267" lon="-0.95732">
        <ele>7.1</ele>
        <time>2022-06-21T13:15:04Z</time>
      </trkpt>
      <trkpt lat="45.94268" lon="-0.9573">
        <ele>7.1</ele>
        <time>2022-06-21T13:15:05Z</time>
      </trkpt>
      <trkpt lat="45.94267" lon="-0.9573">
        <ele>7.1</ele>
        <time>2022-06-21T13:15:06Z</time>
      </trkpt>
      <trkpt lat="45.94267" lon="-0.95729">
        <ele>7.1</ele>
        <time>2022-06-21T13:15:07Z</time>
      </trkpt>
      <trkpt lat="45.94266" lon="-0.95728">
        <ele>7.1</ele>
        <time>2022-06-21T13:15:08Z</time>
      </trkpt>
      <trkpt lat="45.94266" lon="-0.95728">
        <ele>7.1</ele>
        <time>2022-06-21T13:15:09Z</time>
      </trkpt>
      <trkpt lat="45.94265" lon="-0.95727">
        <ele>7.1</ele>
        <time>2022-06-21T13:15:10Z</time>
      </trkpt>
      <trkpt lat="45.94265" lon="-0.95727">
        <ele>7.1</ele>
        <time>2022-06-21T13:15:11Z</time>
      </trkpt>
      <trkpt lat="45.94264" lon="-0.95726">
        <ele>7.1</ele>
        <time>2022-06-21T13:15:13Z</time>
      </trkpt>
      <trkpt lat="45.94264" lon="-0.95726">
        <ele>7.1</ele>
        <time>2022-06-21T13:15:14Z</time>
      </trkpt>
      <trkpt lat="45.94263" lon="-0.95725">
        <ele>7.1</ele>
        <time>2022-06-21T13:15:15Z</time>
      </trkpt>
      <trkpt lat="45.94263" lon="-0.95724">
        <ele>7.1</ele>
        <time>2022-06-21T13:15:16Z</time>
      </trkpt>
      <trkpt lat="45.94261" lon="-0.95723">
        <ele>7.1</ele>
        <time>2022-06-21T13:15:18Z</time>
      </trkpt>
      <trkpt lat="45.94261" lon="-0.95723">
        <ele>7.1</ele>
        <time>2022-06-21T13:15:19Z</time>
      </trkpt>
      <trkpt lat="45.94261" lon="-0.95723">
        <ele>7.1</ele>
        <time>2022-06-21T13:15:20Z</time>
      </trkpt>
      <trkpt lat="45.94261" lon="-0.95723">
        <ele>7.1</ele>
        <time>2022-06-21T13:15:21Z</time>
      </trkpt>
      <trkpt lat="45.94261" lon="-0.95723">
        <ele>7.1</ele>
        <time>2022-06-21T13:15:22Z</time>
      </trkpt>
      <trkpt lat="45.94261" lon="-0.95722">
        <ele>7.1</ele>
        <time>2022-06-21T13:15:23Z</time>
      </trkpt>
      <trkpt lat="45.94261" lon="-0.95722">
        <ele>7.1</ele>
        <time>2022-06-21T13:15:24Z</time>
      </trkpt>
      <trkpt lat="45.9426" lon="-0.95722">
        <ele>7.1</ele>
        <time>2022-06-21T13:15:25Z</time>
      </trkpt>
      <trkpt lat="45.9426" lon="-0.95722">
        <ele>7.1</ele>
        <time>2022-06-21T13:15:26Z</time>
      </trkpt>
      <trkpt lat="45.9426" lon="-0.95722">
        <ele>7.1</ele>
        <time>2022-06-21T13:15:27Z</time>
      </trkpt>
      <trkpt lat="45.9426" lon="-0.95722">
        <ele>7.1</ele>
        <time>2022-06-21T13:15:28Z</time>
      </trkpt>
      <trkpt lat="45.9426" lon="-0.95721">
        <ele>7.1</ele>
        <time>2022-06-21T13:15:29Z</time>
      </trkpt>
      <trkpt lat="45.9426" lon="-0.95721">
        <ele>7.1</ele>
        <time>2022-06-21T13:15:30Z</time>
      </trkpt>
      <trkpt lat="45.9426" lon="-0.95721">
        <ele>7.1</ele>
        <time>2022-06-21T13:15:31Z</time>
      </trkpt>
      <trkpt lat="45.9426" lon="-0.95721">
        <ele>7.1</ele>
        <time>2022-06-21T13:15:32Z</time>
      </trkpt>
      <trkpt lat="45.9426" lon="-0.95721">
        <ele>7.1</ele>
        <time>2022-06-21T13:15:33Z</time>
      </trkpt>
      <trkpt lat="45.94259" lon="-0.95718">
        <ele>7.2</ele>
        <time>2022-06-21T13:15:34Z</time>
      </trkpt>
      <trkpt lat="45.94258" lon="-0.95717">
        <ele>7.2</ele>
        <time>2022-06-21T13:15:36Z</time>
      </trkpt>
      <trkpt lat="45.94257" lon="-0.95716">
        <ele>7.2</ele>
        <time>2022-06-21T13:15:37Z</time>
      </trkpt>
      <trkpt lat="45.94256" lon="-0.95714">
        <ele>7.2</ele>
        <time>2022-06-21T13:15:38Z</time>
      </trkpt>
      <trkpt lat="45.94255" lon="-0.95714">
        <ele>7.2</ele>
        <time>2022-06-21T13:15:39Z</time>
      </trkpt>
      <trkpt lat="45.94254" lon="-0.95713">
        <ele>7.2</ele>
        <time>2022-06-21T13:15:40Z</time>
      </trkpt>
      <trkpt lat="45.94253" lon="-0.95713">
        <ele>7.2</ele>
        <time>2022-06-21T13:15:41Z</time>
      </trkpt>
      <trkpt lat="45.94252" lon="-0.95712">
        <ele>7.2</ele>
        <time>2022-06-21T13:15:42Z</time>
      </trkpt>
      <trkpt lat="45.94251" lon="-0.95712">
        <ele>7.2</ele>
        <time>2022-06-21T13:15:44Z</time>
      </trkpt>
      <trkpt lat="45.9425" lon="-0.95711">
        <ele>7.2</ele>
        <time>2022-06-21T13:15:45Z</time>
      </trkpt>
      <trkpt lat="45.94249" lon="-0.95711">
        <ele>7.2</ele>
        <time>2022-06-21T13:15:46Z</time>
      </trkpt>
      <trkpt lat="45.94248" lon="-0.9571">
        <ele>7.2</ele>
        <time>2022-06-21T13:15:47Z</time>
      </trkpt>
      <trkpt lat="45.94247" lon="-0.9571">
        <ele>7.2</ele>
        <time>2022-06-21T13:15:48Z</time>
      </trkpt>
      <trkpt lat="45.94246" lon="-0.95709">
        <ele>7.3</ele>
        <time>2022-06-21T13:15:49Z</time>
      </trkpt>
      <trkpt lat="45.94246" lon="-0.95708">
        <ele>7.3</ele>
        <time>2022-06-21T13:15:51Z</time>
      </trkpt>
      <trkpt lat="45.94247" lon="-0.95708">
        <ele>7.3</ele>
        <time>2022-06-21T13:15:52Z</time>
      </trkpt>
      <trkpt lat="45.94247" lon="-0.95707">
        <ele>7.3</ele>
        <time>2022-06-21T13:15:53Z</time>
      </trkpt>
      <trkpt lat="45.94247" lon="-0.95707">
        <ele>7.3</ele>
        <time>2022-06-21T13:15:54Z</time>
      </trkpt>
      <trkpt lat="45.94245" lon="-0.95705">
        <ele>7.3</ele>
        <time>2022-06-21T13:15:55Z</time>
      </trkpt>
      <trkpt lat="45.94243" lon="-0.95704">
        <ele>7.3</ele>
        <time>2022-06-21T13:15:56Z</time>
      </trkpt>
      <trkpt lat="45.94241" lon="-0.95701">
        <ele>7.3</ele>
        <time>2022-06-21T13:15:58Z</time>
      </trkpt>
      <trkpt lat="45.94241" lon="-0.957">
        <ele>7.3</ele>
        <time>2022-06-21T13:15:59Z</time>
      </trkpt>
      <trkpt lat="45.94238" lon="-0.95697">
        <ele>7.3</ele>
        <time>2022-06-21T13:16:00Z</time>
      </trkpt>
      <trkpt lat="45.94238" lon="-0.95696">
        <ele>7.3</ele>
        <time>2022-06-21T13:16:01Z</time>
      </trkpt>
      <trkpt lat="45.94235" lon="-0.95692">
        <ele>7.3</ele>
        <time>2022-06-21T13:16:02Z</time>
      </trkpt>
      <trkpt lat="45.94235" lon="-0.95692">
        <ele>7.3</ele>
        <time>2022-06-21T13:16:03Z</time>
      </trkpt>
      <trkpt lat="45.94233" lon="-0.9569">
        <ele>7.4</ele>
        <time>2022-06-21T13:16:04Z</time>
      </trkpt>
      <trkpt lat="45.94231" lon="-0.95689">
        <ele>7.4</ele>
        <time>2022-06-21T13:16:05Z</time>
      </trkpt>
      <trkpt lat="45.9423" lon="-0.95688">
        <ele>7.4</ele>
        <time>2022-06-21T13:16:07Z</time>
      </trkpt>
      <trkpt lat="45.94228" lon="-0.95687">
        <ele>7.4</ele>
        <time>2022-06-21T13:16:08Z</time>
      </trkpt>
      <trkpt lat="45.94227" lon="-0.95687">
        <ele>7.4</ele>
        <time>2022-06-21T13:16:09Z</time>
      </trkpt>
      <trkpt lat="45.94225" lon="-0.95687">
        <ele>7.4</ele>
        <time>2022-06-21T13:16:10Z</time>
      </trkpt>
      <trkpt lat="45.94223" lon="-0.95686">
        <ele>7.4</ele>
        <time>2022-06-21T13:16:11Z</time>
      </trkpt>
      <trkpt lat="45.94221" lon="-0.95684">
        <ele>7.4</ele>
        <time>2022-06-21T13:16:12Z</time>
      </trkpt>
      <trkpt lat="45.9422" lon="-0.95683">
        <ele>7.4</ele>
        <time>2022-06-21T13:16:14Z</time>
      </trkpt>
      <trkpt lat="45.94218" lon="-0.95682">
        <ele>7.4</ele>
        <time>2022-06-21T13:16:15Z</time>
      </trkpt>
      <trkpt lat="45.94217" lon="-0.95682">
        <ele>7.4</ele>
        <time>2022-06-21T13:16:16Z</time>
      </trkpt>
      <trkpt lat="45.94215" lon="-0.9568">
        <ele>7.4</ele>
        <time>2022-06-21T13:16:17Z</time>
      </trkpt>
      <trkpt lat="45.94214" lon="-0.95679">
        <ele>7.4</ele>
        <time>2022-06-21T13:16:18Z</time>
      </trkpt>
      <trkpt lat="45.94212" lon="-0.95678">
        <ele>7.4</ele>
        <time>2022-06-21T13:16:19Z</time>
      </trkpt>
      <trkpt lat="45.94211" lon="-0.95677">
        <ele>7.4</ele>
        <time>2022-06-21T13:16:21Z</time>
      </trkpt>
      <trkpt lat="45.9421" lon="-0.95678">
        <ele>7.4</ele>
        <time>2022-06-21T13:16:22Z</time>
      </trkpt>
      <trkpt lat="45.94209" lon="-0.95678">
        <ele>7.4</ele>
        <time>2022-06-21T13:16:23Z</time>
      </trkpt>
      <trkpt lat="45.94208" lon="-0.95677">
        <ele>7.4</ele>
        <time>2022-06-21T13:16:24Z</time>
      </trkpt>
      <trkpt lat="45.94207" lon="-0.95676">
        <ele>7.4</ele>
        <time>2022-06-21T13:16:25Z</time>
      </trkpt>
      <trkpt lat="45.94206" lon="-0.95675">
        <ele>7.4</ele>
        <time>2022-06-21T13:16:26Z</time>
      </trkpt>
      <trkpt lat="45.94205" lon="-0.95674">
        <ele>7.4</ele>
        <time>2022-06-21T13:16:27Z</time>
      </trkpt>
      <trkpt lat="45.94204" lon="-0.95673">
        <ele>7.4</ele>
        <time>2022-06-21T13:16:28Z</time>
      </trkpt>
      <trkpt lat="45.94204" lon="-0.95672">
        <ele>7.4</ele>
        <time>2022-06-21T13:16:29Z</time>
      </trkpt>
      <trkpt lat="45.94203" lon="-0.95671">
        <ele>7.5</ele>
        <time>2022-06-21T13:16:30Z</time>
      </trkpt>
      <trkpt lat="45.94202" lon="-0.9567">
        <ele>7.5</ele>
        <time>2022-06-21T13:16:31Z</time>
      </trkpt>
      <trkpt lat="45.94201" lon="-0.95668">
        <ele>7.5</ele>
        <time>2022-06-21T13:16:32Z</time>
      </trkpt>
      <trkpt lat="45.942" lon="-0.95667">
        <ele>7.5</ele>
        <time>2022-06-21T13:16:33Z</time>
      </trkpt>
      <trkpt lat="45.94198" lon="-0.95666">
        <ele>7.5</ele>
        <time>2022-06-21T13:16:35Z</time>
      </trkpt>
      <trkpt lat="45.94197" lon="-0.95664">
        <ele>7.5</ele>
        <time>2022-06-21T13:16:36Z</time>
      </trkpt>
      <trkpt lat="45.94196" lon="-0.95663">
        <ele>7.5</ele>
        <time>2022-06-21T13:16:37Z</time>
      </trkpt>
      <trkpt lat="45.94193" lon="-0.95662">
        <ele>7.5</ele>
        <time>2022-06-21T13:16:38Z</time>
      </trkpt>
      <trkpt lat="45.94192" lon="-0.95662">
        <ele>7.5</ele>
        <time>2022-06-21T13:16:40Z</time>
      </trkpt>
      <trkpt lat="45.94191" lon="-0.95661">
        <ele>7.5</ele>
        <time>2022-06-21T13:16:41Z</time>
      </trkpt>
      <trkpt lat="45.94189" lon="-0.95661">
        <ele>7.5</ele>
        <time>2022-06-21T13:16:42Z</time>
      </trkpt>
      <trkpt lat="45.94188" lon="-0.9566">
        <ele>7.5</ele>
        <time>2022-06-21T13:16:43Z</time>
      </trkpt>
      <trkpt lat="45.94187" lon="-0.9566">
        <ele>7.5</ele>
        <time>2022-06-21T13:16:44Z</time>
      </trkpt>
      <trkpt lat="45.94187" lon="-0.95659">
        <ele>7.5</ele>
        <time>2022-06-21T13:16:45Z</time>
      </trkpt>
      <trkpt lat="45.94186" lon="-0.95659">
        <ele>7.5</ele>
        <time>2022-06-21T13:16:46Z</time>
      </trkpt>
      <trkpt lat="45.9419" lon="-0.95659">
        <ele>7.5</ele>
        <time>2022-06-21T13:16:47Z</time>
      </trkpt>
      <trkpt lat="45.94192" lon="-0.95658">
        <ele>7.5</ele>
        <time>2022-06-21T13:16:49Z</time>
      </trkpt>
      <trkpt lat="45.94191" lon="-0.95658">
        <ele>7.5</ele>
        <time>2022-06-21T13:16:50Z</time>
      </trkpt>
      <trkpt lat="45.94189" lon="-0.95657">
        <ele>7.5</ele>
        <time>2022-06-21T13:16:51Z</time>
      </trkpt>
      <trkpt lat="45.94187" lon="-0.95654">
        <ele>7.5</ele>
        <time>2022-06-21T13:16:52Z</time>
      </trkpt>
      <trkpt lat="45.94186" lon="-0.95654">
        <ele>7.5</ele>
        <time>2022-06-21T13:16:53Z</time>
      </trkpt>
      <trkpt lat="45.94185" lon="-0.95653">
        <ele>7.5</ele>
        <time>2022-06-21T13:16:54Z</time>
      </trkpt>
      <trkpt lat="45.94184" lon="-0.95652">
        <ele>7.5</ele>
        <time>2022-06-21T13:16:56Z</time>
      </trkpt>
      <trkpt lat="45.94183" lon="-0.95651">
        <ele>7.6</ele>
        <time>2022-06-21T13:16:57Z</time>
      </trkpt>
      <trkpt lat="45.94183" lon="-0.95652">
        <ele>7.6</ele>
        <time>2022-06-21T13:16:58Z</time>
      </trkpt>
      <trkpt lat="45.94183" lon="-0.95651">
        <ele>7.6</ele>
        <time>2022-06-21T13:16:59Z</time>
      </trkpt>
      <trkpt lat="45.94181" lon="-0.95651">
        <ele>7.6</ele>
        <time>2022-06-21T13:17:01Z</time>
      </trkpt>
      <trkpt lat="45.9418" lon="-0.95651">
        <ele>7.6</ele>
        <time>2022-06-21T13:17:02Z</time>
      </trkpt>
      <trkpt lat="45.94179" lon="-0.9565">
        <ele>7.6</ele>
        <time>2022-06-21T13:17:03Z</time>
      </trkpt>
      <trkpt lat="45.94179" lon="-0.9565">
        <ele>7.6</ele>
        <time>2022-06-21T13:17:04Z</time>
      </trkpt>
      <trkpt lat="45.94178" lon="-0.95648">
        <ele>7.6</ele>
        <time>2022-06-21T13:17:06Z</time>
      </trkpt>
      <trkpt lat="45.94178" lon="-0.95648">
        <ele>7.6</ele>
        <time>2022-06-21T13:17:07Z</time>
      </trkpt>
      <trkpt lat="45.94178" lon="-0.95648">
        <ele>7.6</ele>
        <time>2022-06-21T13:17:08Z</time>
      </trkpt>
      <trkpt lat="45.94178" lon="-0.95648">
        <ele>7.6</ele>
        <time>2022-06-21T13:17:09Z</time>
      </trkpt>
      <trkpt lat="45.94178" lon="-0.95648">
        <ele>7.6</ele>
        <time>2022-06-21T13:17:11Z</time>
      </trkpt>
      <trkpt lat="45.94178" lon="-0.95649">
        <ele>7.6</ele>
        <time>2022-06-21T13:17:12Z</time>
      </trkpt>
      <trkpt lat="45.94178" lon="-0.95649">
        <ele>7.6</ele>
        <time>2022-06-21T13:17:13Z</time>
      </trkpt>
      <trkpt lat="45.94178" lon="-0.9565">
        <ele>7.6</ele>
        <time>2022-06-21T13:17:14Z</time>
      </trkpt>
      <trkpt lat="45.94178" lon="-0.9565">
        <ele>7.6</ele>
        <time>2022-06-21T13:17:15Z</time>
      </trkpt>
      <trkpt lat="45.94178" lon="-0.9565">
        <ele>7.6</ele>
        <time>2022-06-21T13:17:16Z</time>
      </trkpt>
      <trkpt lat="45.94178" lon="-0.9565">
        <ele>7.6</ele>
        <time>2022-06-21T13:17:17Z</time>
      </trkpt>
      <trkpt lat="45.94178" lon="-0.9565">
        <ele>7.6</ele>
        <time>2022-06-21T13:17:18Z</time>
      </trkpt>
      <trkpt lat="45.94178" lon="-0.95651">
        <ele>7.6</ele>
        <time>2022-06-21T13:17:19Z</time>
      </trkpt>
      <trkpt lat="45.94177" lon="-0.95651">
        <ele>7.6</ele>
        <time>2022-06-21T13:17:20Z</time>
      </trkpt>
      <trkpt lat="45.94177" lon="-0.95651">
        <ele>7.6</ele>
        <time>2022-06-21T13:17:21Z</time>
      </trkpt>
      <trkpt lat="45.94177" lon="-0.95651">
        <ele>7.6</ele>
        <time>2022-06-21T13:17:22Z</time>
      </trkpt>
      <trkpt lat="45.94176" lon="-0.95651">
        <ele>7.6</ele>
        <time>2022-06-21T13:17:23Z</time>
      </trkpt>
      <trkpt lat="45.94176" lon="-0.95652">
        <ele>7.6</ele>
        <time>2022-06-21T13:17:24Z</time>
      </trkpt>
      <trkpt lat="45.94175" lon="-0.95653">
        <ele>7.6</ele>
        <time>2022-06-21T13:17:25Z</time>
      </trkpt>
      <trkpt lat="45.94175" lon="-0.95653">
        <ele>7.6</ele>
        <time>2022-06-21T13:17:26Z</time>
      </trkpt>
      <trkpt lat="45.94174" lon="-0.95654">
        <ele>7.6</ele>
        <time>2022-06-21T13:17:27Z</time>
      </trkpt>
      <trkpt lat="45.94174" lon="-0.95655">
        <ele>7.6</ele>
        <time>2022-06-21T13:17:28Z</time>
      </trkpt>
      <trkpt lat="45.94173" lon="-0.95656">
        <ele>7.6</ele>
        <time>2022-06-21T13:17:29Z</time>
      </trkpt>
      <trkpt lat="45.94173" lon="-0.95656">
        <ele>7.6</ele>
        <time>2022-06-21T13:17:30Z</time>
      </trkpt>
      <trkpt lat="45.94173" lon="-0.95657">
        <ele>7.6</ele>
        <time>2022-06-21T13:17:31Z</time>
      </trkpt>
      <trkpt lat="45.94173" lon="-0.95657">
        <ele>7.6</ele>
        <time>2022-06-21T13:17:32Z</time>
      </trkpt>
      <trkpt lat="45.94173" lon="-0.95657">
        <ele>7.6</ele>
        <time>2022-06-21T13:17:33Z</time>
      </trkpt>
      <trkpt lat="45.94173" lon="-0.95657">
        <ele>7.6</ele>
        <time>2022-06-21T13:17:34Z</time>
      </trkpt>
      <trkpt lat="45.94173" lon="-0.95657">
        <ele>7.6</ele>
        <time>2022-06-21T13:17:35Z</time>
      </trkpt>
      <trkpt lat="45.94173" lon="-0.95657">
        <ele>7.6</ele>
        <time>2022-06-21T13:17:36Z</time>
      </trkpt>
      <trkpt lat="45.94173" lon="-0.95657">
        <ele>7.6</ele>
        <time>2022-06-21T13:17:37Z</time>
      </trkpt>
      <trkpt lat="45.94173" lon="-0.95657">
        <ele>7.6</ele>
        <time>2022-06-21T13:17:38Z</time>
      </trkpt>
      <trkpt lat="45.94173" lon="-0.95657">
        <ele>7.6</ele>
        <time>2022-06-21T13:17:39Z</time>
      </trkpt>
      <trkpt lat="45.94173" lon="-0.95657">
        <ele>7.6</ele>
        <time>2022-06-21T13:17:40Z</time>
      </trkpt>
      <trkpt lat="45.94173" lon="-0.95657">
        <ele>7.6</ele>
        <time>2022-06-21T13:17:41Z</time>
      </trkpt>
      <trkpt lat="45.94173" lon="-0.95656">
        <ele>7.6</ele>
        <time>2022-06-21T13:17:42Z</time>
      </trkpt>
      <trkpt lat="45.94174" lon="-0.95655">
        <ele>7.6</ele>
        <time>2022-06-21T13:17:43Z</time>
      </trkpt>
      <trkpt lat="45.94175" lon="-0.95653">
        <ele>7.7</ele>
        <time>2022-06-21T13:17:44Z</time>
      </trkpt>
      <trkpt lat="45.94177" lon="-0.95651">
        <ele>7.7</ele>
        <time>2022-06-21T13:17:45Z</time>
      </trkpt>
      <trkpt lat="45.94177" lon="-0.9565">
        <ele>7.7</ele>
        <time>2022-06-21T13:17:46Z</time>
      </trkpt>
      <trkpt lat="45.94178" lon="-0.9565">
        <ele>7.7</ele>
        <time>2022-06-21T13:17:47Z</time>
      </trkpt>
      <trkpt lat="45.94178" lon="-0.9565">
        <ele>7.7</ele>
        <time>2022-06-21T13:17:48Z</time>
      </trkpt>
      <trkpt lat="45.94178" lon="-0.95649">
        <ele>7.7</ele>
        <time>2022-06-21T13:17:49Z</time>
      </trkpt>
      <trkpt lat="45.94179" lon="-0.95648">
        <ele>7.7</ele>
        <time>2022-06-21T13:17:51Z</time>
      </trkpt>
      <trkpt lat="45.94179" lon="-0.95647">
        <ele>7.7</ele>
        <time>2022-06-21T13:17:52Z</time>
      </trkpt>
      <trkpt lat="45.94179" lon="-0.95646">
        <ele>7.7</ele>
        <time>2022-06-21T13:17:53Z</time>
      </trkpt>
      <trkpt lat="45.94179" lon="-0.95645">
        <ele>7.7</ele>
        <time>2022-06-21T13:17:54Z</time>
      </trkpt>
      <trkpt lat="45.9418" lon="-0.95642">
        <ele>7.7</ele>
        <time>2022-06-21T13:17:56Z</time>
      </trkpt>
      <trkpt lat="45.9418" lon="-0.95641">
        <ele>7.7</ele>
        <time>2022-06-21T13:17:57Z</time>
      </trkpt>
      <trkpt lat="45.94179" lon="-0.95639">
        <ele>7.7</ele>
        <time>2022-06-21T13:17:58Z</time>
      </trkpt>
      <trkpt lat="45.94179" lon="-0.95638">
        <ele>7.7</ele>
        <time>2022-06-21T13:17:59Z</time>
      </trkpt>
      <trkpt lat="45.94177" lon="-0.95635">
        <ele>7.7</ele>
        <time>2022-06-21T13:18:00Z</time>
      </trkpt>
      <trkpt lat="45.94176" lon="-0.95634">
        <ele>7.7</ele>
        <time>2022-06-21T13:18:02Z</time>
      </trkpt>
      <trkpt lat="45.94175" lon="-0.95633">
        <ele>7.6</ele>
        <time>2022-06-21T13:18:03Z</time>
      </trkpt>
      <trkpt lat="45.94173" lon="-0.95631">
        <ele>7.6</ele>
        <time>2022-06-21T13:18:04Z</time>
      </trkpt>
      <trkpt lat="45.94169" lon="-0.95631">
        <ele>7.5</ele>
        <time>2022-06-21T13:18:05Z</time>
      </trkpt>
      <trkpt lat="45.94164" lon="-0.9563">
        <ele>7.4</ele>
        <time>2022-06-21T13:18:06Z</time>
      </trkpt>
      <trkpt lat="45.94163" lon="-0.9563">
        <ele>7.3</ele>
        <time>2022-06-21T13:18:08Z</time>
      </trkpt>
      <trkpt lat="45.94162" lon="-0.95628">
        <ele>7.3</ele>
        <time>2022-06-21T13:18:09Z</time>
      </trkpt>
      <trkpt lat="45.94161" lon="-0.95627">
        <ele>7.3</ele>
        <time>2022-06-21T13:18:10Z</time>
      </trkpt>
      <trkpt lat="45.9416" lon="-0.95626">
        <ele>7.2</ele>
        <time>2022-06-21T13:18:11Z</time>
      </trkpt>
      <trkpt lat="45.94159" lon="-0.95625">
        <ele>7.2</ele>
        <time>2022-06-21T13:18:12Z</time>
      </trkpt>
      <trkpt lat="45.94158" lon="-0.95624">
        <ele>7.2</ele>
        <time>2022-06-21T13:18:13Z</time>
      </trkpt>
      <trkpt lat="45.94157" lon="-0.95623">
        <ele>7.1</ele>
        <time>2022-06-21T13:18:14Z</time>
      </trkpt>
      <trkpt lat="45.94157" lon="-0.95623">
        <ele>7.1</ele>
        <time>2022-06-21T13:18:16Z</time>
      </trkpt>
      <trkpt lat="45.94156" lon="-0.95624">
        <ele>7.1</ele>
        <time>2022-06-21T13:18:17Z</time>
      </trkpt>
      <trkpt lat="45.94156" lon="-0.95625">
        <ele>7.1</ele>
        <time>2022-06-21T13:18:18Z</time>
      </trkpt>
      <trkpt lat="45.94156" lon="-0.95627">
        <ele>7.1</ele>
        <time>2022-06-21T13:18:19Z</time>
      </trkpt>
      <trkpt lat="45.94155" lon="-0.95627">
        <ele>7</ele>
        <time>2022-06-21T13:18:20Z</time>
      </trkpt>
      <trkpt lat="45.94154" lon="-0.95627">
        <ele>7</ele>
        <time>2022-06-21T13:18:21Z</time>
      </trkpt>
      <trkpt lat="45.94153" lon="-0.95627">
        <ele>7</ele>
        <time>2022-06-21T13:18:23Z</time>
      </trkpt>
      <trkpt lat="45.94152" lon="-0.95627">
        <ele>7</ele>
        <time>2022-06-21T13:18:24Z</time>
      </trkpt>
      <trkpt lat="45.94151" lon="-0.95625">
        <ele>6.9</ele>
        <time>2022-06-21T13:18:25Z</time>
      </trkpt>
      <trkpt lat="45.94151" lon="-0.95624">
        <ele>6.9</ele>
        <time>2022-06-21T13:18:26Z</time>
      </trkpt>
      <trkpt lat="45.9415" lon="-0.95623">
        <ele>6.9</ele>
        <time>2022-06-21T13:18:27Z</time>
      </trkpt>
      <trkpt lat="45.9415" lon="-0.95622">
        <ele>6.9</ele>
        <time>2022-06-21T13:18:28Z</time>
      </trkpt>
      <trkpt lat="45.94149" lon="-0.95621">
        <ele>6.8</ele>
        <time>2022-06-21T13:18:29Z</time>
      </trkpt>
      <trkpt lat="45.94148" lon="-0.9562">
        <ele>6.8</ele>
        <time>2022-06-21T13:18:30Z</time>
      </trkpt>
      <trkpt lat="45.94147" lon="-0.95619">
        <ele>6.8</ele>
        <time>2022-06-21T13:18:32Z</time>
      </trkpt>
      <trkpt lat="45.94146" lon="-0.95617">
        <ele>6.7</ele>
        <time>2022-06-21T13:18:33Z</time>
      </trkpt>
      <trkpt lat="45.94145" lon="-0.95616">
        <ele>6.7</ele>
        <time>2022-06-21T13:18:34Z</time>
      </trkpt>
      <trkpt lat="45.94141" lon="-0.95612">
        <ele>6.6</ele>
        <time>2022-06-21T13:18:35Z</time>
      </trkpt>
      <trkpt lat="45.9414" lon="-0.95611">
        <ele>6.5</ele>
        <time>2022-06-21T13:18:36Z</time>
      </trkpt>
      <trkpt lat="45.94139" lon="-0.9561">
        <ele>6.5</ele>
        <time>2022-06-21T13:18:38Z</time>
      </trkpt>
      <trkpt lat="45.94139" lon="-0.95608">
        <ele>6.5</ele>
        <time>2022-06-21T13:18:39Z</time>
      </trkpt>
      <trkpt lat="45.94139" lon="-0.95604">
        <ele>6.4</ele>
        <time>2022-06-21T13:18:40Z</time>
      </trkpt>
      <trkpt lat="45.94138" lon="-0.95603">
        <ele>6.4</ele>
        <time>2022-06-21T13:18:41Z</time>
      </trkpt>
      <trkpt lat="45.94137" lon="-0.95601">
        <ele>6.4</ele>
        <time>2022-06-21T13:18:43Z</time>
      </trkpt>
      <trkpt lat="45.94135" lon="-0.956">
        <ele>6.3</ele>
        <time>2022-06-21T13:18:44Z</time>
      </trkpt>
      <trkpt lat="45.94134" lon="-0.95599">
        <ele>6.3</ele>
        <time>2022-06-21T13:18:45Z</time>
      </trkpt>
      <trkpt lat="45.94132" lon="-0.95598">
        <ele>6.2</ele>
        <time>2022-06-21T13:18:46Z</time>
      </trkpt>
      <trkpt lat="45.94132" lon="-0.95597">
        <ele>6.2</ele>
        <time>2022-06-21T13:18:47Z</time>
      </trkpt>
      <trkpt lat="45.94132" lon="-0.95596">
        <ele>6.2</ele>
        <time>2022-06-21T13:18:48Z</time>
      </trkpt>
      <trkpt lat="45.94132" lon="-0.95594">
        <ele>6.2</ele>
        <time>2022-06-21T13:18:50Z</time>
      </trkpt>
      <trkpt lat="45.94131" lon="-0.95592">
        <ele>6.1</ele>
        <time>2022-06-21T13:18:51Z</time>
      </trkpt>
      <trkpt lat="45.94131" lon="-0.9559">
        <ele>6.1</ele>
        <time>2022-06-21T13:18:53Z</time>
      </trkpt>
      <trkpt lat="45.94129" lon="-0.95585">
        <ele>6</ele>
        <time>2022-06-21T13:18:55Z</time>
      </trkpt>
      <trkpt lat="45.94128" lon="-0.95586">
        <ele>6.1</ele>
        <time>2022-06-21T13:18:56Z</time>
      </trkpt>
      <trkpt lat="45.94127" lon="-0.95586">
        <ele>6.2</ele>
        <time>2022-06-21T13:18:57Z</time>
      </trkpt>
      <trkpt lat="45.94126" lon="-0.95585">
        <ele>6.1</ele>
        <time>2022-06-21T13:18:58Z</time>
      </trkpt>
      <trkpt lat="45.94125" lon="-0.95583">
        <ele>6.2</ele>
        <time>2022-06-21T13:18:59Z</time>
      </trkpt>
      <trkpt lat="45.94125" lon="-0.95581">
        <ele>6.2</ele>
        <time>2022-06-21T13:19:01Z</time>
      </trkpt>
      <trkpt lat="45.94125" lon="-0.9558">
        <ele>6.1</ele>
        <time>2022-06-21T13:19:02Z</time>
      </trkpt>
      <trkpt lat="45.94124" lon="-0.95579">
        <ele>6.1</ele>
        <time>2022-06-21T13:19:03Z</time>
      </trkpt>
      <trkpt lat="45.94124" lon="-0.95578">
        <ele>6.2</ele>
        <time>2022-06-21T13:19:04Z</time>
      </trkpt>
      <trkpt lat="45.94124" lon="-0.95577">
        <ele>6.2</ele>
        <time>2022-06-21T13:19:05Z</time>
      </trkpt>
      <trkpt lat="45.94123" lon="-0.95576">
        <ele>6.1</ele>
        <time>2022-06-21T13:19:06Z</time>
      </trkpt>
      <trkpt lat="45.94123" lon="-0.95576">
        <ele>6.2</ele>
        <time>2022-06-21T13:19:07Z</time>
      </trkpt>
      <trkpt lat="45.94123" lon="-0.95575">
        <ele>6.2</ele>
        <time>2022-06-21T13:19:08Z</time>
      </trkpt>
      <trkpt lat="45.94122" lon="-0.95575">
        <ele>6.3</ele>
        <time>2022-06-21T13:19:09Z</time>
      </trkpt>
      <trkpt lat="45.94121" lon="-0.95575">
        <ele>6.3</ele>
        <time>2022-06-21T13:19:10Z</time>
      </trkpt>
      <trkpt lat="45.94121" lon="-0.95575">
        <ele>6.4</ele>
        <time>2022-06-21T13:19:12Z</time>
      </trkpt>
      <trkpt lat="45.9412" lon="-0.95575">
        <ele>6.4</ele>
        <time>2022-06-21T13:19:13Z</time>
      </trkpt>
      <trkpt lat="45.94119" lon="-0.95575">
        <ele>6.5</ele>
        <time>2022-06-21T13:19:14Z</time>
      </trkpt>
      <trkpt lat="45.94119" lon="-0.95576">
        <ele>6.5</ele>
        <time>2022-06-21T13:19:15Z</time>
      </trkpt>
      <trkpt lat="45.94119" lon="-0.95576">
        <ele>6.5</ele>
        <time>2022-06-21T13:19:16Z</time>
      </trkpt>
      <trkpt lat="45.94118" lon="-0.95577">
        <ele>6.7</ele>
        <time>2022-06-21T13:19:17Z</time>
      </trkpt>
      <trkpt lat="45.94117" lon="-0.95577">
        <ele>6.8</ele>
        <time>2022-06-21T13:19:18Z</time>
      </trkpt>
      <trkpt lat="45.94116" lon="-0.95577">
        <ele>6.8</ele>
        <time>2022-06-21T13:19:20Z</time>
      </trkpt>
      <trkpt lat="45.94115" lon="-0.95578">
        <ele>6.9</ele>
        <time>2022-06-21T13:19:21Z</time>
      </trkpt>
      <trkpt lat="45.94114" lon="-0.95578">
        <ele>6.9</ele>
        <time>2022-06-21T13:19:22Z</time>
      </trkpt>
      <trkpt lat="45.94113" lon="-0.95578">
        <ele>6.9</ele>
        <time>2022-06-21T13:19:23Z</time>
      </trkpt>
      <trkpt lat="45.94112" lon="-0.95578">
        <ele>7</ele>
        <time>2022-06-21T13:19:24Z</time>
      </trkpt>
      <trkpt lat="45.9411" lon="-0.95577">
        <ele>7</ele>
        <time>2022-06-21T13:19:26Z</time>
      </trkpt>
      <trkpt lat="45.94107" lon="-0.95576">
        <ele>7</ele>
        <time>2022-06-21T13:19:27Z</time>
      </trkpt>
      <trkpt lat="45.94106" lon="-0.95576">
        <ele>7</ele>
        <time>2022-06-21T13:19:28Z</time>
      </trkpt>
      <trkpt lat="45.94104" lon="-0.95576">
        <ele>7.1</ele>
        <time>2022-06-21T13:19:29Z</time>
      </trkpt>
      <trkpt lat="45.94102" lon="-0.95576">
        <ele>7.1</ele>
        <time>2022-06-21T13:19:30Z</time>
      </trkpt>
      <trkpt lat="45.94101" lon="-0.95576">
        <ele>7.2</ele>
        <time>2022-06-21T13:19:32Z</time>
      </trkpt>
      <trkpt lat="45.941" lon="-0.95576">
        <ele>7.2</ele>
        <time>2022-06-21T13:19:33Z</time>
      </trkpt>
      <trkpt lat="45.94099" lon="-0.95576">
        <ele>7.2</ele>
        <time>2022-06-21T13:19:34Z</time>
      </trkpt>
      <trkpt lat="45.94098" lon="-0.95576">
        <ele>7.3</ele>
        <time>2022-06-21T13:19:35Z</time>
      </trkpt>
      <trkpt lat="45.94097" lon="-0.95576">
        <ele>7.3</ele>
        <time>2022-06-21T13:19:36Z</time>
      </trkpt>
      <trkpt lat="45.94096" lon="-0.95576">
        <ele>7.4</ele>
        <time>2022-06-21T13:19:37Z</time>
      </trkpt>
      <trkpt lat="45.94095" lon="-0.95576">
        <ele>7.4</ele>
        <time>2022-06-21T13:19:38Z</time>
      </trkpt>
      <trkpt lat="45.94094" lon="-0.95576">
        <ele>7.5</ele>
        <time>2022-06-21T13:19:40Z</time>
      </trkpt>
      <trkpt lat="45.94093" lon="-0.95576">
        <ele>7.5</ele>
        <time>2022-06-21T13:19:41Z</time>
      </trkpt>
      <trkpt lat="45.94092" lon="-0.95574">
        <ele>7.6</ele>
        <time>2022-06-21T13:19:42Z</time>
      </trkpt>
      <trkpt lat="45.94092" lon="-0.95573">
        <ele>7.6</ele>
        <time>2022-06-21T13:19:43Z</time>
      </trkpt>
      <trkpt lat="45.94091" lon="-0.95571">
        <ele>7.6</ele>
        <time>2022-06-21T13:19:45Z</time>
      </trkpt>
      <trkpt lat="45.94091" lon="-0.95569">
        <ele>7.6</ele>
        <time>2022-06-21T13:19:46Z</time>
      </trkpt>
      <trkpt lat="45.9409" lon="-0.95568">
        <ele>7.6</ele>
        <time>2022-06-21T13:19:47Z</time>
      </trkpt>
      <trkpt lat="45.9409" lon="-0.95567">
        <ele>7.6</ele>
        <time>2022-06-21T13:19:48Z</time>
      </trkpt>
      <trkpt lat="45.94089" lon="-0.95566">
        <ele>7.6</ele>
        <time>2022-06-21T13:19:49Z</time>
      </trkpt>
      <trkpt lat="45.94089" lon="-0.95566">
        <ele>7.6</ele>
        <time>2022-06-21T13:19:50Z</time>
      </trkpt>
      <trkpt lat="45.94088" lon="-0.95566">
        <ele>7.6</ele>
        <time>2022-06-21T13:19:51Z</time>
      </trkpt>
      <trkpt lat="45.94087" lon="-0.95567">
        <ele>7.6</ele>
        <time>2022-06-21T13:19:52Z</time>
      </trkpt>
      <trkpt lat="45.94086" lon="-0.95567">
        <ele>7.6</ele>
        <time>2022-06-21T13:19:53Z</time>
      </trkpt>
      <trkpt lat="45.94085" lon="-0.95568">
        <ele>7.6</ele>
        <time>2022-06-21T13:19:54Z</time>
      </trkpt>
      <trkpt lat="45.94084" lon="-0.95568">
        <ele>7.6</ele>
        <time>2022-06-21T13:19:55Z</time>
      </trkpt>
      <trkpt lat="45.94083" lon="-0.95568">
        <ele>7.6</ele>
        <time>2022-06-21T13:19:56Z</time>
      </trkpt>
      <trkpt lat="45.94082" lon="-0.95568">
        <ele>7.5</ele>
        <time>2022-06-21T13:19:57Z</time>
      </trkpt>
      <trkpt lat="45.94081" lon="-0.95569">
        <ele>7.5</ele>
        <time>2022-06-21T13:19:58Z</time>
      </trkpt>
      <trkpt lat="45.9408" lon="-0.95569">
        <ele>7.5</ele>
        <time>2022-06-21T13:19:59Z</time>
      </trkpt>
      <trkpt lat="45.94078" lon="-0.95569">
        <ele>7.5</ele>
        <time>2022-06-21T13:20:00Z</time>
      </trkpt>
      <trkpt lat="45.94077" lon="-0.95571">
        <ele>7.5</ele>
        <time>2022-06-21T13:20:01Z</time>
      </trkpt>
      <trkpt lat="45.94076" lon="-0.95571">
        <ele>7.5</ele>
        <time>2022-06-21T13:20:02Z</time>
      </trkpt>
      <trkpt lat="45.94075" lon="-0.95571">
        <ele>7.5</ele>
        <time>2022-06-21T13:20:04Z</time>
      </trkpt>
      <trkpt lat="45.94074" lon="-0.95572">
        <ele>7.5</ele>
        <time>2022-06-21T13:20:05Z</time>
      </trkpt>
      <trkpt lat="45.94071" lon="-0.95572">
        <ele>7.5</ele>
        <time>2022-06-21T13:20:06Z</time>
      </trkpt>
      <trkpt lat="45.9407" lon="-0.95572">
        <ele>7.5</ele>
        <time>2022-06-21T13:20:07Z</time>
      </trkpt>
      <trkpt lat="45.94068" lon="-0.95571">
        <ele>7.5</ele>
        <time>2022-06-21T13:20:09Z</time>
      </trkpt>
      <trkpt lat="45.94067" lon="-0.9557">
        <ele>7.5</ele>
        <time>2022-06-21T13:20:10Z</time>
      </trkpt>
      <trkpt lat="45.94066" lon="-0.9557">
        <ele>7.4</ele>
        <time>2022-06-21T13:20:11Z</time>
      </trkpt>
      <trkpt lat="45.94064" lon="-0.9557">
        <ele>7.4</ele>
        <time>2022-06-21T13:20:12Z</time>
      </trkpt>
      <trkpt lat="45.94063" lon="-0.9557">
        <ele>7.4</ele>
        <time>2022-06-21T13:20:13Z</time>
      </trkpt>
      <trkpt lat="45.94061" lon="-0.95571">
        <ele>7.4</ele>
        <time>2022-06-21T13:20:14Z</time>
      </trkpt>
      <trkpt lat="45.9406" lon="-0.95571">
        <ele>7.4</ele>
        <time>2022-06-21T13:20:16Z</time>
      </trkpt>
      <trkpt lat="45.94058" lon="-0.95572">
        <ele>7.4</ele>
        <time>2022-06-21T13:20:17Z</time>
      </trkpt>
      <trkpt lat="45.94057" lon="-0.95573">
        <ele>7.4</ele>
        <time>2022-06-21T13:20:18Z</time>
      </trkpt>
      <trkpt lat="45.94055" lon="-0.95573">
        <ele>7.4</ele>
        <time>2022-06-21T13:20:19Z</time>
      </trkpt>
      <trkpt lat="45.94056" lon="-0.95574">
        <ele>7.4</ele>
        <time>2022-06-21T13:20:20Z</time>
      </trkpt>
      <trkpt lat="45.94055" lon="-0.95575">
        <ele>7.4</ele>
        <time>2022-06-21T13:20:21Z</time>
      </trkpt>
      <trkpt lat="45.94054" lon="-0.95575">
        <ele>7.4</ele>
        <time>2022-06-21T13:20:22Z</time>
      </trkpt>
      <trkpt lat="45.94052" lon="-0.95575">
        <ele>7.4</ele>
        <time>2022-06-21T13:20:24Z</time>
      </trkpt>
      <trkpt lat="45.9405" lon="-0.95575">
        <ele>7.3</ele>
        <time>2022-06-21T13:20:25Z</time>
      </trkpt>
      <trkpt lat="45.94049" lon="-0.95575">
        <ele>7.3</ele>
        <time>2022-06-21T13:20:26Z</time>
      </trkpt>
      <trkpt lat="45.94047" lon="-0.95575">
        <ele>7.3</ele>
        <time>2022-06-21T13:20:27Z</time>
      </trkpt>
      <trkpt lat="45.94046" lon="-0.95575">
        <ele>7.3</ele>
        <time>2022-06-21T13:20:28Z</time>
      </trkpt>
      <trkpt lat="45.94045" lon="-0.95574">
        <ele>7.3</ele>
        <time>2022-06-21T13:20:29Z</time>
      </trkpt>
      <trkpt lat="45.94043" lon="-0.95574">
        <ele>7.3</ele>
        <time>2022-06-21T13:20:31Z</time>
      </trkpt>
      <trkpt lat="45.94042" lon="-0.95574">
        <ele>7.3</ele>
        <time>2022-06-21T13:20:32Z</time>
      </trkpt>
      <trkpt lat="45.94041" lon="-0.95574">
        <ele>7.3</ele>
        <time>2022-06-21T13:20:33Z</time>
      </trkpt>
      <trkpt lat="45.9404" lon="-0.95574">
        <ele>7.3</ele>
        <time>2022-06-21T13:20:34Z</time>
      </trkpt>
      <trkpt lat="45.94039" lon="-0.95574">
        <ele>7.3</ele>
        <time>2022-06-21T13:20:35Z</time>
      </trkpt>
      <trkpt lat="45.94037" lon="-0.95574">
        <ele>7.3</ele>
        <time>2022-06-21T13:20:36Z</time>
      </trkpt>
      <trkpt lat="45.94037" lon="-0.95574">
        <ele>7.3</ele>
        <time>2022-06-21T13:20:37Z</time>
      </trkpt>
      <trkpt lat="45.94036" lon="-0.95574">
        <ele>7.3</ele>
        <time>2022-06-21T13:20:39Z</time>
      </trkpt>
      <trkpt lat="45.94036" lon="-0.95574">
        <ele>7.3</ele>
        <time>2022-06-21T13:20:40Z</time>
      </trkpt>
      <trkpt lat="45.94035" lon="-0.95574">
        <ele>7.3</ele>
        <time>2022-06-21T13:20:41Z</time>
      </trkpt>
      <trkpt lat="45.94035" lon="-0.95574">
        <ele>7.3</ele>
        <time>2022-06-21T13:20:42Z</time>
      </trkpt>
      <trkpt lat="45.94033" lon="-0.95574">
        <ele>7.3</ele>
        <time>2022-06-21T13:20:43Z</time>
      </trkpt>
      <trkpt lat="45.94031" lon="-0.95574">
        <ele>7.2</ele>
        <time>2022-06-21T13:20:44Z</time>
      </trkpt>
      <trkpt lat="45.94029" lon="-0.95575">
        <ele>7.2</ele>
        <time>2022-06-21T13:20:45Z</time>
      </trkpt>
      <trkpt lat="45.94027" lon="-0.95575">
        <ele>7.2</ele>
        <time>2022-06-21T13:20:47Z</time>
      </trkpt>
      <trkpt lat="45.94026" lon="-0.95575">
        <ele>7.2</ele>
        <time>2022-06-21T13:20:48Z</time>
      </trkpt>
      <trkpt lat="45.94025" lon="-0.95576">
        <ele>7.2</ele>
        <time>2022-06-21T13:20:49Z</time>
      </trkpt>
      <trkpt lat="45.94024" lon="-0.95576">
        <ele>7.2</ele>
        <time>2022-06-21T13:20:50Z</time>
      </trkpt>
      <trkpt lat="45.94021" lon="-0.95576">
        <ele>7.2</ele>
        <time>2022-06-21T13:20:51Z</time>
      </trkpt>
      <trkpt lat="45.9402" lon="-0.95576">
        <ele>7.2</ele>
        <time>2022-06-21T13:20:52Z</time>
      </trkpt>
      <trkpt lat="45.94018" lon="-0.95577">
        <ele>7.2</ele>
        <time>2022-06-21T13:20:53Z</time>
      </trkpt>
      <trkpt lat="45.94017" lon="-0.95577">
        <ele>7.2</ele>
        <time>2022-06-21T13:20:55Z</time>
      </trkpt>
      <trkpt lat="45.94017" lon="-0.95577">
        <ele>7.2</ele>
        <time>2022-06-21T13:20:56Z</time>
      </trkpt>
      <trkpt lat="45.94016" lon="-0.95577">
        <ele>7.2</ele>
        <time>2022-06-21T13:20:57Z</time>
      </trkpt>
      <trkpt lat="45.94016" lon="-0.95577">
        <ele>7.2</ele>
        <time>2022-06-21T13:20:58Z</time>
      </trkpt>
      <trkpt lat="45.94015" lon="-0.95578">
        <ele>7.2</ele>
        <time>2022-06-21T13:20:59Z</time>
      </trkpt>
      <trkpt lat="45.94013" lon="-0.95578">
        <ele>7.1</ele>
        <time>2022-06-21T13:21:01Z</time>
      </trkpt>
      <trkpt lat="45.94012" lon="-0.9558">
        <ele>7.1</ele>
        <time>2022-06-21T13:21:02Z</time>
      </trkpt>
      <trkpt lat="45.94012" lon="-0.95582">
        <ele>7.1</ele>
        <time>2022-06-21T13:21:03Z</time>
      </trkpt>
      <trkpt lat="45.94011" lon="-0.95583">
        <ele>7.1</ele>
        <time>2022-06-21T13:21:04Z</time>
      </trkpt>
      <trkpt lat="45.94011" lon="-0.95584">
        <ele>7.1</ele>
        <time>2022-06-21T13:21:06Z</time>
      </trkpt>
      <trkpt lat="45.94011" lon="-0.95585">
        <ele>7.1</ele>
        <time>2022-06-21T13:21:07Z</time>
      </trkpt>
      <trkpt lat="45.94011" lon="-0.95587">
        <ele>7.1</ele>
        <time>2022-06-21T13:21:08Z</time>
      </trkpt>
      <trkpt lat="45.94014" lon="-0.95589">
        <ele>7.1</ele>
        <time>2022-06-21T13:21:09Z</time>
      </trkpt>
      <trkpt lat="45.94014" lon="-0.95589">
        <ele>7.1</ele>
        <time>2022-06-21T13:21:10Z</time>
      </trkpt>
      <trkpt lat="45.94014" lon="-0.9559">
        <ele>7.1</ele>
        <time>2022-06-21T13:21:11Z</time>
      </trkpt>
      <trkpt lat="45.94014" lon="-0.9559">
        <ele>7.1</ele>
        <time>2022-06-21T13:21:12Z</time>
      </trkpt>
      <trkpt lat="45.94015" lon="-0.95591">
        <ele>7.1</ele>
        <time>2022-06-21T13:21:13Z</time>
      </trkpt>
      <trkpt lat="45.94016" lon="-0.95591">
        <ele>7.1</ele>
        <time>2022-06-21T13:21:15Z</time>
      </trkpt>
      <trkpt lat="45.94016" lon="-0.95591">
        <ele>7.1</ele>
        <time>2022-06-21T13:21:16Z</time>
      </trkpt>
      <trkpt lat="45.94016" lon="-0.95592">
        <ele>7.1</ele>
        <time>2022-06-21T13:21:17Z</time>
      </trkpt>
      <trkpt lat="45.94017" lon="-0.95592">
        <ele>7.1</ele>
        <time>2022-06-21T13:21:18Z</time>
      </trkpt>
      <trkpt lat="45.94017" lon="-0.95593">
        <ele>7.1</ele>
        <time>2022-06-21T13:21:19Z</time>
      </trkpt>
      <trkpt lat="45.94017" lon="-0.95594">
        <ele>7</ele>
        <time>2022-06-21T13:21:20Z</time>
      </trkpt>
      <trkpt lat="45.94018" lon="-0.95595">
        <ele>7</ele>
        <time>2022-06-21T13:21:21Z</time>
      </trkpt>
      <trkpt lat="45.94018" lon="-0.95595">
        <ele>7</ele>
        <time>2022-06-21T13:21:22Z</time>
      </trkpt>
      <trkpt lat="45.94018" lon="-0.95596">
        <ele>7</ele>
        <time>2022-06-21T13:21:23Z</time>
      </trkpt>
      <trkpt lat="45.94019" lon="-0.95596">
        <ele>7</ele>
        <time>2022-06-21T13:21:24Z</time>
      </trkpt>
      <trkpt lat="45.9402" lon="-0.95597">
        <ele>7</ele>
        <time>2022-06-21T13:21:25Z</time>
      </trkpt>
      <trkpt lat="45.9402" lon="-0.95597">
        <ele>7.1</ele>
        <time>2022-06-21T13:21:26Z</time>
      </trkpt>
      <trkpt lat="45.9402" lon="-0.95598">
        <ele>7.1</ele>
        <time>2022-06-21T13:21:27Z</time>
      </trkpt>
      <trkpt lat="45.9402" lon="-0.95597">
        <ele>7.1</ele>
        <time>2022-06-21T13:21:28Z</time>
      </trkpt>
      <trkpt lat="45.9402" lon="-0.95597">
        <ele>7.1</ele>
        <time>2022-06-21T13:21:29Z</time>
      </trkpt>
      <trkpt lat="45.94021" lon="-0.95597">
        <ele>7.1</ele>
        <time>2022-06-21T13:21:30Z</time>
      </trkpt>
      <trkpt lat="45.94021" lon="-0.95596">
        <ele>7.1</ele>
        <time>2022-06-21T13:21:31Z</time>
      </trkpt>
      <trkpt lat="45.94021" lon="-0.95596">
        <ele>7.1</ele>
        <time>2022-06-21T13:21:32Z</time>
      </trkpt>
      <trkpt lat="45.94021" lon="-0.95596">
        <ele>7.1</ele>
        <time>2022-06-21T13:21:33Z</time>
      </trkpt>
      <trkpt lat="45.94021" lon="-0.95595">
        <ele>7.1</ele>
        <time>2022-06-21T13:21:34Z</time>
      </trkpt>
      <trkpt lat="45.94022" lon="-0.95595">
        <ele>7.1</ele>
        <time>2022-06-21T13:21:35Z</time>
      </trkpt>
      <trkpt lat="45.94022" lon="-0.95595">
        <ele>7.1</ele>
        <time>2022-06-21T13:21:36Z</time>
      </trkpt>
      <trkpt lat="45.94022" lon="-0.95595">
        <ele>7.1</ele>
        <time>2022-06-21T13:21:37Z</time>
      </trkpt>
      <trkpt lat="45.94022" lon="-0.95594">
        <ele>7.1</ele>
        <time>2022-06-21T13:21:38Z</time>
      </trkpt>
      <trkpt lat="45.94022" lon="-0.95594">
        <ele>7.1</ele>
        <time>2022-06-21T13:21:39Z</time>
      </trkpt>
      <trkpt lat="45.94022" lon="-0.95594">
        <ele>7.1</ele>
        <time>2022-06-21T13:21:40Z</time>
      </trkpt>
      <trkpt lat="45.94023" lon="-0.95593">
        <ele>7.1</ele>
        <time>2022-06-21T13:21:41Z</time>
      </trkpt>
      <trkpt lat="45.94024" lon="-0.95591">
        <ele>7</ele>
        <time>2022-06-21T13:21:42Z</time>
      </trkpt>
      <trkpt lat="45.94024" lon="-0.9559">
        <ele>7</ele>
        <time>2022-06-21T13:21:43Z</time>
      </trkpt>
      <trkpt lat="45.94024" lon="-0.95589">
        <ele>7</ele>
        <time>2022-06-21T13:21:44Z</time>
      </trkpt>
      <trkpt lat="45.94023" lon="-0.95586">
        <ele>7</ele>
        <time>2022-06-21T13:21:45Z</time>
      </trkpt>
      <trkpt lat="45.94022" lon="-0.95585">
        <ele>7</ele>
        <time>2022-06-21T13:21:46Z</time>
      </trkpt>
      <trkpt lat="45.94022" lon="-0.95584">
        <ele>7</ele>
        <time>2022-06-21T13:21:47Z</time>
      </trkpt>
      <trkpt lat="45.9402" lon="-0.95583">
        <ele>7</ele>
        <time>2022-06-21T13:21:48Z</time>
      </trkpt>
      <trkpt lat="45.94019" lon="-0.95583">
        <ele>7</ele>
        <time>2022-06-21T13:21:49Z</time>
      </trkpt>
      <trkpt lat="45.94018" lon="-0.95584">
        <ele>7</ele>
        <time>2022-06-21T13:21:50Z</time>
      </trkpt>
      <trkpt lat="45.94017" lon="-0.95584">
        <ele>7</ele>
        <time>2022-06-21T13:21:51Z</time>
      </trkpt>
      <trkpt lat="45.94015" lon="-0.95584">
        <ele>7</ele>
        <time>2022-06-21T13:21:52Z</time>
      </trkpt>
      <trkpt lat="45.94014" lon="-0.95584">
        <ele>7</ele>
        <time>2022-06-21T13:21:54Z</time>
      </trkpt>
      <trkpt lat="45.94013" lon="-0.95586">
        <ele>7</ele>
        <time>2022-06-21T13:21:55Z</time>
      </trkpt>
      <trkpt lat="45.94012" lon="-0.95586">
        <ele>7</ele>
        <time>2022-06-21T13:21:56Z</time>
      </trkpt>
      <trkpt lat="45.94011" lon="-0.95586">
        <ele>7</ele>
        <time>2022-06-21T13:21:57Z</time>
      </trkpt>
      <trkpt lat="45.9401" lon="-0.95586">
        <ele>6.9</ele>
        <time>2022-06-21T13:21:58Z</time>
      </trkpt>
      <trkpt lat="45.94009" lon="-0.95589">
        <ele>6.9</ele>
        <time>2022-06-21T13:21:59Z</time>
      </trkpt>
      <trkpt lat="45.94007" lon="-0.95589">
        <ele>6.9</ele>
        <time>2022-06-21T13:22:01Z</time>
      </trkpt>
      <trkpt lat="45.94006" lon="-0.9559">
        <ele>6.9</ele>
        <time>2022-06-21T13:22:02Z</time>
      </trkpt>
      <trkpt lat="45.94005" lon="-0.9559">
        <ele>6.9</ele>
        <time>2022-06-21T13:22:03Z</time>
      </trkpt>
      <trkpt lat="45.94004" lon="-0.9559">
        <ele>6.9</ele>
        <time>2022-06-21T13:22:04Z</time>
      </trkpt>
      <trkpt lat="45.94003" lon="-0.9559">
        <ele>6.9</ele>
        <time>2022-06-21T13:22:05Z</time>
      </trkpt>
      <trkpt lat="45.94002" lon="-0.95589">
        <ele>6.9</ele>
        <time>2022-06-21T13:22:06Z</time>
      </trkpt>
      <trkpt lat="45.94" lon="-0.95589">
        <ele>6.9</ele>
        <time>2022-06-21T13:22:07Z</time>
      </trkpt>
      <trkpt lat="45.93999" lon="-0.95588">
        <ele>6.9</ele>
        <time>2022-06-21T13:22:08Z</time>
      </trkpt>
      <trkpt lat="45.93997" lon="-0.95587">
        <ele>6.9</ele>
        <time>2022-06-21T13:22:09Z</time>
      </trkpt>
      <trkpt lat="45.93995" lon="-0.95587">
        <ele>6.9</ele>
        <time>2022-06-21T13:22:10Z</time>
      </trkpt>
      <trkpt lat="45.93994" lon="-0.95587">
        <ele>6.9</ele>
        <time>2022-06-21T13:22:12Z</time>
      </trkpt>
      <trkpt lat="45.93992" lon="-0.95587">
        <ele>6.8</ele>
        <time>2022-06-21T13:22:13Z</time>
      </trkpt>
      <trkpt lat="45.9399" lon="-0.95586">
        <ele>6.8</ele>
        <time>2022-06-21T13:22:14Z</time>
      </trkpt>
      <trkpt lat="45.93989" lon="-0.95586">
        <ele>6.8</ele>
        <time>2022-06-21T13:22:15Z</time>
      </trkpt>
      <trkpt lat="45.93989" lon="-0.95586">
        <ele>6.8</ele>
        <time>2022-06-21T13:22:16Z</time>
      </trkpt>
      <trkpt lat="45.93988" lon="-0.95585">
        <ele>6.8</ele>
        <time>2022-06-21T13:22:17Z</time>
      </trkpt>
      <trkpt lat="45.93987" lon="-0.95584">
        <ele>6.8</ele>
        <time>2022-06-21T13:22:19Z</time>
      </trkpt>
      <trkpt lat="45.93986" lon="-0.95583">
        <ele>6.8</ele>
        <time>2022-06-21T13:22:20Z</time>
      </trkpt>
      <trkpt lat="45.93985" lon="-0.95583">
        <ele>6.8</ele>
        <time>2022-06-21T13:22:21Z</time>
      </trkpt>
      <trkpt lat="45.93984" lon="-0.95583">
        <ele>6.8</ele>
        <time>2022-06-21T13:22:22Z</time>
      </trkpt>
      <trkpt lat="45.93982" lon="-0.95584">
        <ele>6.8</ele>
        <time>2022-06-21T13:22:23Z</time>
      </trkpt>
      <trkpt lat="45.93981" lon="-0.95584">
        <ele>6.8</ele>
        <time>2022-06-21T13:22:24Z</time>
      </trkpt>
      <trkpt lat="45.93979" lon="-0.95585">
        <ele>6.8</ele>
        <time>2022-06-21T13:22:25Z</time>
      </trkpt>
      <trkpt lat="45.93978" lon="-0.95586">
        <ele>6.7</ele>
        <time>2022-06-21T13:22:26Z</time>
      </trkpt>
      <trkpt lat="45.93976" lon="-0.95587">
        <ele>6.7</ele>
        <time>2022-06-21T13:22:28Z</time>
      </trkpt>
      <trkpt lat="45.93974" lon="-0.95588">
        <ele>6.7</ele>
        <time>2022-06-21T13:22:29Z</time>
      </trkpt>
      <trkpt lat="45.93973" lon="-0.9559">
        <ele>6.8</ele>
        <time>2022-06-21T13:22:30Z</time>
      </trkpt>
      <trkpt lat="45.9397" lon="-0.95592">
        <ele>6.8</ele>
        <time>2022-06-21T13:22:31Z</time>
      </trkpt>
      <trkpt lat="45.93969" lon="-0.95592">
        <ele>6.8</ele>
        <time>2022-06-21T13:22:32Z</time>
      </trkpt>
      <trkpt lat="45.93968" lon="-0.95595">
        <ele>6.8</ele>
        <time>2022-06-21T13:22:33Z</time>
      </trkpt>
      <trkpt lat="45.93967" lon="-0.95597">
        <ele>6.8</ele>
        <time>2022-06-21T13:22:34Z</time>
      </trkpt>
      <trkpt lat="45.93966" lon="-0.95599">
        <ele>6.7</ele>
        <time>2022-06-21T13:22:36Z</time>
      </trkpt>
      <trkpt lat="45.93965" lon="-0.956">
        <ele>6.7</ele>
        <time>2022-06-21T13:22:37Z</time>
      </trkpt>
      <trkpt lat="45.93963" lon="-0.95601">
        <ele>6.7</ele>
        <time>2022-06-21T13:22:38Z</time>
      </trkpt>
      <trkpt lat="45.93962" lon="-0.95601">
        <ele>6.7</ele>
        <time>2022-06-21T13:22:39Z</time>
      </trkpt>
      <trkpt lat="45.93961" lon="-0.95601">
        <ele>6.7</ele>
        <time>2022-06-21T13:22:40Z</time>
      </trkpt>
      <trkpt lat="45.93959" lon="-0.95599">
        <ele>6.7</ele>
        <time>2022-06-21T13:22:41Z</time>
      </trkpt>
      <trkpt lat="45.93957" lon="-0.95595">
        <ele>6.7</ele>
        <time>2022-06-21T13:22:42Z</time>
      </trkpt>
      <trkpt lat="45.93955" lon="-0.9559">
        <ele>6.6</ele>
        <time>2022-06-21T13:22:43Z</time>
      </trkpt>
      <trkpt lat="45.93953" lon="-0.95586">
        <ele>6.6</ele>
        <time>2022-06-21T13:22:45Z</time>
      </trkpt>
      <trkpt lat="45.93951" lon="-0.95585">
        <ele>6.6</ele>
        <time>2022-06-21T13:22:46Z</time>
      </trkpt>
      <trkpt lat="45.9395" lon="-0.95585">
        <ele>6.6</ele>
        <time>2022-06-21T13:22:47Z</time>
      </trkpt>
      <trkpt lat="45.93949" lon="-0.95585">
        <ele>6.6</ele>
        <time>2022-06-21T13:22:48Z</time>
      </trkpt>
      <trkpt lat="45.93947" lon="-0.95585">
        <ele>6.6</ele>
        <time>2022-06-21T13:22:49Z</time>
      </trkpt>
      <trkpt lat="45.93946" lon="-0.95585">
        <ele>6.6</ele>
        <time>2022-06-21T13:22:50Z</time>
      </trkpt>
      <trkpt lat="45.93946" lon="-0.95587">
        <ele>6.6</ele>
        <time>2022-06-21T13:22:52Z</time>
      </trkpt>
      <trkpt lat="45.93945" lon="-0.95588">
        <ele>6.6</ele>
        <time>2022-06-21T13:22:53Z</time>
      </trkpt>
      <trkpt lat="45.93945" lon="-0.95589">
        <ele>6.6</ele>
        <time>2022-06-21T13:22:54Z</time>
      </trkpt>
      <trkpt lat="45.93944" lon="-0.9559">
        <ele>6.6</ele>
        <time>2022-06-21T13:22:55Z</time>
      </trkpt>
      <trkpt lat="45.93943" lon="-0.9559">
        <ele>6.6</ele>
        <time>2022-06-21T13:22:56Z</time>
      </trkpt>
      <trkpt lat="45.93942" lon="-0.9559">
        <ele>6.5</ele>
        <time>2022-06-21T13:22:57Z</time>
      </trkpt>
      <trkpt lat="45.9394" lon="-0.9559">
        <ele>6.5</ele>
        <time>2022-06-21T13:22:58Z</time>
      </trkpt>
      <trkpt lat="45.93938" lon="-0.95589">
        <ele>6.5</ele>
        <time>2022-06-21T13:23:00Z</time>
      </trkpt>
      <trkpt lat="45.93938" lon="-0.95589">
        <ele>6.5</ele>
        <time>2022-06-21T13:23:01Z</time>
      </trkpt>
      <trkpt lat="45.93937" lon="-0.9559">
        <ele>6.5</ele>
        <time>2022-06-21T13:23:02Z</time>
      </trkpt>
      <trkpt lat="45.93937" lon="-0.9559">
        <ele>6.5</ele>
        <time>2022-06-21T13:23:03Z</time>
      </trkpt>
      <trkpt lat="45.93935" lon="-0.95591">
        <ele>6.5</ele>
        <time>2022-06-21T13:23:05Z</time>
      </trkpt>
      <trkpt lat="45.93934" lon="-0.9559">
        <ele>6.5</ele>
        <time>2022-06-21T13:23:06Z</time>
      </trkpt>
      <trkpt lat="45.93933" lon="-0.9559">
        <ele>6.5</ele>
        <time>2022-06-21T13:23:07Z</time>
      </trkpt>
      <trkpt lat="45.93931" lon="-0.9559">
        <ele>6.5</ele>
        <time>2022-06-21T13:23:09Z</time>
      </trkpt>
      <trkpt lat="45.9393" lon="-0.95591">
        <ele>6.5</ele>
        <time>2022-06-21T13:23:10Z</time>
      </trkpt>
      <trkpt lat="45.93929" lon="-0.95591">
        <ele>6.5</ele>
        <time>2022-06-21T13:23:11Z</time>
      </trkpt>
      <trkpt lat="45.93928" lon="-0.95591">
        <ele>6.5</ele>
        <time>2022-06-21T13:23:12Z</time>
      </trkpt>
      <trkpt lat="45.93927" lon="-0.95592">
        <ele>6.5</ele>
        <time>2022-06-21T13:23:13Z</time>
      </trkpt>
      <trkpt lat="45.93926" lon="-0.95592">
        <ele>6.5</ele>
        <time>2022-06-21T13:23:15Z</time>
      </trkpt>
      <trkpt lat="45.93925" lon="-0.95592">
        <ele>6.5</ele>
        <time>2022-06-21T13:23:16Z</time>
      </trkpt>
      <trkpt lat="45.93924" lon="-0.95592">
        <ele>6.5</ele>
        <time>2022-06-21T13:23:17Z</time>
      </trkpt>
      <trkpt lat="45.93924" lon="-0.95593">
        <ele>6.5</ele>
        <time>2022-06-21T13:23:18Z</time>
      </trkpt>
      <trkpt lat="45.93923" lon="-0.95593">
        <ele>6.5</ele>
        <time>2022-06-21T13:23:19Z</time>
      </trkpt>
      <trkpt lat="45.93922" lon="-0.95592">
        <ele>6.5</ele>
        <time>2022-06-21T13:23:20Z</time>
      </trkpt>
      <trkpt lat="45.9392" lon="-0.95591">
        <ele>6.5</ele>
        <time>2022-06-21T13:23:22Z</time>
      </trkpt>
      <trkpt lat="45.9392" lon="-0.95591">
        <ele>6.5</ele>
        <time>2022-06-21T13:23:23Z</time>
      </trkpt>
      <trkpt lat="45.93919" lon="-0.95591">
        <ele>6.5</ele>
        <time>2022-06-21T13:23:24Z</time>
      </trkpt>
      <trkpt lat="45.93918" lon="-0.9559">
        <ele>6.5</ele>
        <time>2022-06-21T13:23:25Z</time>
      </trkpt>
      <trkpt lat="45.93918" lon="-0.9559">
        <ele>6.5</ele>
        <time>2022-06-21T13:23:26Z</time>
      </trkpt>
      <trkpt lat="45.93918" lon="-0.9559">
        <ele>6.5</ele>
        <time>2022-06-21T13:23:27Z</time>
      </trkpt>
      <trkpt lat="45.93918" lon="-0.9559">
        <ele>6.5</ele>
        <time>2022-06-21T13:23:28Z</time>
      </trkpt>
      <trkpt lat="45.93917" lon="-0.9559">
        <ele>6.5</ele>
        <time>2022-06-21T13:23:29Z</time>
      </trkpt>
      <trkpt lat="45.93917" lon="-0.95591">
        <ele>6.5</ele>
        <time>2022-06-21T13:23:30Z</time>
      </trkpt>
      <trkpt lat="45.93916" lon="-0.95591">
        <ele>6.5</ele>
        <time>2022-06-21T13:23:31Z</time>
      </trkpt>
      <trkpt lat="45.93915" lon="-0.95591">
        <ele>6.5</ele>
        <time>2022-06-21T13:23:32Z</time>
      </trkpt>
      <trkpt lat="45.93914" lon="-0.95591">
        <ele>6.4</ele>
        <time>2022-06-21T13:23:33Z</time>
      </trkpt>
      <trkpt lat="45.93912" lon="-0.95591">
        <ele>6.4</ele>
        <time>2022-06-21T13:23:35Z</time>
      </trkpt>
      <trkpt lat="45.93911" lon="-0.95591">
        <ele>6.4</ele>
        <time>2022-06-21T13:23:36Z</time>
      </trkpt>
      <trkpt lat="45.9391" lon="-0.95591">
        <ele>6.4</ele>
        <time>2022-06-21T13:23:37Z</time>
      </trkpt>
      <trkpt lat="45.93909" lon="-0.95591">
        <ele>6.4</ele>
        <time>2022-06-21T13:23:38Z</time>
      </trkpt>
      <trkpt lat="45.93907" lon="-0.95591">
        <ele>6.4</ele>
        <time>2022-06-21T13:23:39Z</time>
      </trkpt>
      <trkpt lat="45.93906" lon="-0.95591">
        <ele>6.4</ele>
        <time>2022-06-21T13:23:40Z</time>
      </trkpt>
      <trkpt lat="45.93905" lon="-0.95591">
        <ele>6.4</ele>
        <time>2022-06-21T13:23:42Z</time>
      </trkpt>
      <trkpt lat="45.93904" lon="-0.95591">
        <ele>6.4</ele>
        <time>2022-06-21T13:23:43Z</time>
      </trkpt>
      <trkpt lat="45.93902" lon="-0.95591">
        <ele>6.4</ele>
        <time>2022-06-21T13:23:44Z</time>
      </trkpt>
      <trkpt lat="45.939" lon="-0.95591">
        <ele>6.4</ele>
        <time>2022-06-21T13:23:45Z</time>
      </trkpt>
      <trkpt lat="45.93899" lon="-0.95591">
        <ele>6.4</ele>
        <time>2022-06-21T13:23:46Z</time>
      </trkpt>
      <trkpt lat="45.93897" lon="-0.95592">
        <ele>6.4</ele>
        <time>2022-06-21T13:23:47Z</time>
      </trkpt>
      <trkpt lat="45.93896" lon="-0.95592">
        <ele>6.4</ele>
        <time>2022-06-21T13:23:49Z</time>
      </trkpt>
      <trkpt lat="45.93896" lon="-0.95593">
        <ele>6.4</ele>
        <time>2022-06-21T13:23:50Z</time>
      </trkpt>
      <trkpt lat="45.93895" lon="-0.95594">
        <ele>6.4</ele>
        <time>2022-06-21T13:23:52Z</time>
      </trkpt>
      <trkpt lat="45.93894" lon="-0.95595">
        <ele>6.4</ele>
        <time>2022-06-21T13:23:53Z</time>
      </trkpt>
      <trkpt lat="45.93894" lon="-0.95596">
        <ele>6.4</ele>
        <time>2022-06-21T13:23:54Z</time>
      </trkpt>
      <trkpt lat="45.93893" lon="-0.95597">
        <ele>6.4</ele>
        <time>2022-06-21T13:23:55Z</time>
      </trkpt>
      <trkpt lat="45.93892" lon="-0.95598">
        <ele>6.4</ele>
        <time>2022-06-21T13:23:57Z</time>
      </trkpt>
      <trkpt lat="45.93891" lon="-0.95598">
        <ele>6.4</ele>
        <time>2022-06-21T13:23:58Z</time>
      </trkpt>
      <trkpt lat="45.9389" lon="-0.95599">
        <ele>6.4</ele>
        <time>2022-06-21T13:23:59Z</time>
      </trkpt>
      <trkpt lat="45.93889" lon="-0.95599">
        <ele>6.4</ele>
        <time>2022-06-21T13:24:01Z</time>
      </trkpt>
      <trkpt lat="45.93889" lon="-0.95599">
        <ele>6.4</ele>
        <time>2022-06-21T13:24:02Z</time>
      </trkpt>
      <trkpt lat="45.93889" lon="-0.95599">
        <ele>6.4</ele>
        <time>2022-06-21T13:24:03Z</time>
      </trkpt>
      <trkpt lat="45.93889" lon="-0.95599">
        <ele>6.4</ele>
        <time>2022-06-21T13:24:04Z</time>
      </trkpt>
      <trkpt lat="45.93889" lon="-0.95598">
        <ele>6.4</ele>
        <time>2022-06-21T13:24:05Z</time>
      </trkpt>
      <trkpt lat="45.93889" lon="-0.95598">
        <ele>6.4</ele>
        <time>2022-06-21T13:24:07Z</time>
      </trkpt>
      <trkpt lat="45.93888" lon="-0.95598">
        <ele>6.4</ele>
        <time>2022-06-21T13:24:08Z</time>
      </trkpt>
      <trkpt lat="45.93888" lon="-0.95597">
        <ele>6.4</ele>
        <time>2022-06-21T13:24:09Z</time>
      </trkpt>
      <trkpt lat="45.93888" lon="-0.95596">
        <ele>6.4</ele>
        <time>2022-06-21T13:24:11Z</time>
      </trkpt>
      <trkpt lat="45.93888" lon="-0.95596">
        <ele>6.4</ele>
        <time>2022-06-21T13:24:13Z</time>
      </trkpt>
      <trkpt lat="45.93888" lon="-0.95596">
        <ele>6.4</ele>
        <time>2022-06-21T13:24:14Z</time>
      </trkpt>
      <trkpt lat="45.93888" lon="-0.95595">
        <ele>6.4</ele>
        <time>2022-06-21T13:24:15Z</time>
      </trkpt>
      <trkpt lat="45.93888" lon="-0.95595">
        <ele>6.4</ele>
        <time>2022-06-21T13:24:17Z</time>
      </trkpt>
      <trkpt lat="45.93888" lon="-0.95595">
        <ele>6.4</ele>
        <time>2022-06-21T13:24:18Z</time>
      </trkpt>
      <trkpt lat="45.93888" lon="-0.95594">
        <ele>6.4</ele>
        <time>2022-06-21T13:24:19Z</time>
      </trkpt>
      <trkpt lat="45.93889" lon="-0.95594">
        <ele>6.4</ele>
        <time>2022-06-21T13:24:21Z</time>
      </trkpt>
      <trkpt lat="45.93889" lon="-0.95595">
        <ele>6.4</ele>
        <time>2022-06-21T13:24:22Z</time>
      </trkpt>
      <trkpt lat="45.9389" lon="-0.95595">
        <ele>6.4</ele>
        <time>2022-06-21T13:24:24Z</time>
      </trkpt>
      <trkpt lat="45.93892" lon="-0.95594">
        <ele>6.4</ele>
        <time>2022-06-21T13:24:26Z</time>
      </trkpt>
      <trkpt lat="45.93892" lon="-0.95594">
        <ele>6.4</ele>
        <time>2022-06-21T13:24:27Z</time>
      </trkpt>
      <trkpt lat="45.93893" lon="-0.95594">
        <ele>6.4</ele>
        <time>2022-06-21T13:24:28Z</time>
      </trkpt>
      <trkpt lat="45.93893" lon="-0.95594">
        <ele>6.4</ele>
        <time>2022-06-21T13:24:29Z</time>
      </trkpt>
      <trkpt lat="45.93893" lon="-0.95595">
        <ele>6.4</ele>
        <time>2022-06-21T13:24:31Z</time>
      </trkpt>
      <trkpt lat="45.93893" lon="-0.95595">
        <ele>6.4</ele>
        <time>2022-06-21T13:24:32Z</time>
      </trkpt>
      <trkpt lat="45.93893" lon="-0.95595">
        <ele>6.4</ele>
        <time>2022-06-21T13:24:33Z</time>
      </trkpt>
      <trkpt lat="45.93893" lon="-0.95595">
        <ele>6.4</ele>
        <time>2022-06-21T13:24:34Z</time>
      </trkpt>
      <trkpt lat="45.93892" lon="-0.95597">
        <ele>6.4</ele>
        <time>2022-06-21T13:24:35Z</time>
      </trkpt>
      <trkpt lat="45.93892" lon="-0.95598">
        <ele>6.4</ele>
        <time>2022-06-21T13:24:36Z</time>
      </trkpt>
      <trkpt lat="45.93892" lon="-0.95598">
        <ele>6.4</ele>
        <time>2022-06-21T13:24:37Z</time>
      </trkpt>
      <trkpt lat="45.93892" lon="-0.95598">
        <ele>6.4</ele>
        <time>2022-06-21T13:24:38Z</time>
      </trkpt>
      <trkpt lat="45.93892" lon="-0.95598">
        <ele>6.4</ele>
        <time>2022-06-21T13:24:39Z</time>
      </trkpt>
      <trkpt lat="45.93892" lon="-0.95599">
        <ele>6.4</ele>
        <time>2022-06-21T13:24:40Z</time>
      </trkpt>
      <trkpt lat="45.93891" lon="-0.956">
        <ele>6.4</ele>
        <time>2022-06-21T13:24:41Z</time>
      </trkpt>
      <trkpt lat="45.93891" lon="-0.956">
        <ele>6.4</ele>
        <time>2022-06-21T13:24:42Z</time>
      </trkpt>
      <trkpt lat="45.93891" lon="-0.956">
        <ele>6.4</ele>
        <time>2022-06-21T13:24:43Z</time>
      </trkpt>
      <trkpt lat="45.93891" lon="-0.956">
        <ele>6.4</ele>
        <time>2022-06-21T13:24:44Z</time>
      </trkpt>
      <trkpt lat="45.93891" lon="-0.956">
        <ele>6.4</ele>
        <time>2022-06-21T13:24:45Z</time>
      </trkpt>
      <trkpt lat="45.93892" lon="-0.956">
        <ele>6.4</ele>
        <time>2022-06-21T13:24:46Z</time>
      </trkpt>
      <trkpt lat="45.93892" lon="-0.95601">
        <ele>6.4</ele>
        <time>2022-06-21T13:24:47Z</time>
      </trkpt>
      <trkpt lat="45.93892" lon="-0.95601">
        <ele>6.4</ele>
        <time>2022-06-21T13:24:48Z</time>
      </trkpt>
      <trkpt lat="45.93892" lon="-0.95601">
        <ele>6.4</ele>
        <time>2022-06-21T13:24:49Z</time>
      </trkpt>
      <trkpt lat="45.93892" lon="-0.95601">
        <ele>6.4</ele>
        <time>2022-06-21T13:24:50Z</time>
      </trkpt>
      <trkpt lat="45.93892" lon="-0.95601">
        <ele>6.4</ele>
        <time>2022-06-21T13:24:51Z</time>
      </trkpt>
      <trkpt lat="45.93892" lon="-0.95601">
        <ele>6.4</ele>
        <time>2022-06-21T13:24:52Z</time>
      </trkpt>
      <trkpt lat="45.93892" lon="-0.95601">
        <ele>6.4</ele>
        <time>2022-06-21T13:24:53Z</time>
      </trkpt>
      <trkpt lat="45.93892" lon="-0.95602">
        <ele>6.4</ele>
        <time>2022-06-21T13:24:54Z</time>
      </trkpt>
      <trkpt lat="45.93892" lon="-0.95602">
        <ele>6.4</ele>
        <time>2022-06-21T13:24:55Z</time>
      </trkpt>
      <trkpt lat="45.93892" lon="-0.95602">
        <ele>6.4</ele>
        <time>2022-06-21T13:24:56Z</time>
      </trkpt>
      <trkpt lat="45.93892" lon="-0.95602">
        <ele>6.4</ele>
        <time>2022-06-21T13:24:57Z</time>
      </trkpt>
      <trkpt lat="45.93892" lon="-0.95602">
        <ele>6.4</ele>
        <time>2022-06-21T13:24:58Z</time>
      </trkpt>
      <trkpt lat="45.93892" lon="-0.95602">
        <ele>6.4</ele>
        <time>2022-06-21T13:24:59Z</time>
      </trkpt>
      <trkpt lat="45.93892" lon="-0.95602">
        <ele>6.4</ele>
        <time>2022-06-21T13:25:00Z</time>
      </trkpt>
      <trkpt lat="45.93892" lon="-0.95602">
        <ele>6.4</ele>
        <time>2022-06-21T13:25:01Z</time>
      </trkpt>
      <trkpt lat="45.93892" lon="-0.95602">
        <ele>6.4</ele>
        <time>2022-06-21T13:25:02Z</time>
      </trkpt>
      <trkpt lat="45.93892" lon="-0.95602">
        <ele>6.4</ele>
        <time>2022-06-21T13:25:03Z</time>
      </trkpt>
      <trkpt lat="45.93892" lon="-0.95601">
        <ele>6.4</ele>
        <time>2022-06-21T13:25:04Z</time>
      </trkpt>
      <trkpt lat="45.93892" lon="-0.956">
        <ele>6.4</ele>
        <time>2022-06-21T13:25:05Z</time>
      </trkpt>
      <trkpt lat="45.93892" lon="-0.95598">
        <ele>6.4</ele>
        <time>2022-06-21T13:25:06Z</time>
      </trkpt>
      <trkpt lat="45.93892" lon="-0.95597">
        <ele>6.4</ele>
        <time>2022-06-21T13:25:07Z</time>
      </trkpt>
      <trkpt lat="45.93892" lon="-0.95596">
        <ele>6.4</ele>
        <time>2022-06-21T13:25:08Z</time>
      </trkpt>
      <trkpt lat="45.93892" lon="-0.95595">
        <ele>6.4</ele>
        <time>2022-06-21T13:25:09Z</time>
      </trkpt>
      <trkpt lat="45.93892" lon="-0.95594">
        <ele>6.4</ele>
        <time>2022-06-21T13:25:10Z</time>
      </trkpt>
      <trkpt lat="45.93892" lon="-0.95599">
        <ele>6.4</ele>
        <time>2022-06-21T13:25:11Z</time>
      </trkpt>
      <trkpt lat="45.93892" lon="-0.956">
        <ele>6.4</ele>
        <time>2022-06-21T13:25:12Z</time>
      </trkpt>
      <trkpt lat="45.93892" lon="-0.956">
        <ele>6.4</ele>
        <time>2022-06-21T13:25:13Z</time>
      </trkpt>
      <trkpt lat="45.93892" lon="-0.95599">
        <ele>6.4</ele>
        <time>2022-06-21T13:25:14Z</time>
      </trkpt>
      <trkpt lat="45.93892" lon="-0.95598">
        <ele>6.4</ele>
        <time>2022-06-21T13:25:15Z</time>
      </trkpt>
      <trkpt lat="45.93892" lon="-0.95597">
        <ele>6.4</ele>
        <time>2022-06-21T13:25:16Z</time>
      </trkpt>
      <trkpt lat="45.93892" lon="-0.95597">
        <ele>6.4</ele>
        <time>2022-06-21T13:25:17Z</time>
      </trkpt>
      <trkpt lat="45.93892" lon="-0.95596">
        <ele>6.4</ele>
        <time>2022-06-21T13:25:18Z</time>
      </trkpt>
      <trkpt lat="45.93891" lon="-0.95597">
        <ele>6.4</ele>
        <time>2022-06-21T13:25:19Z</time>
      </trkpt>
      <trkpt lat="45.93891" lon="-0.95597">
        <ele>6.4</ele>
        <time>2022-06-21T13:25:20Z</time>
      </trkpt>
      <trkpt lat="45.93892" lon="-0.95595">
        <ele>6.4</ele>
        <time>2022-06-21T13:25:21Z</time>
      </trkpt>
      <trkpt lat="45.93892" lon="-0.95593">
        <ele>6.4</ele>
        <time>2022-06-21T13:25:22Z</time>
      </trkpt>
      <trkpt lat="45.93892" lon="-0.95591">
        <ele>6.4</ele>
        <time>2022-06-21T13:25:23Z</time>
      </trkpt>
      <trkpt lat="45.93892" lon="-0.9559">
        <ele>6.4</ele>
        <time>2022-06-21T13:25:24Z</time>
      </trkpt>
      <trkpt lat="45.93892" lon="-0.95589">
        <ele>6.4</ele>
        <time>2022-06-21T13:25:25Z</time>
      </trkpt>
      <trkpt lat="45.93892" lon="-0.95588">
        <ele>6.4</ele>
        <time>2022-06-21T13:25:26Z</time>
      </trkpt>
      <trkpt lat="45.93892" lon="-0.95588">
        <ele>6.4</ele>
        <time>2022-06-21T13:25:27Z</time>
      </trkpt>
      <trkpt lat="45.93892" lon="-0.95589">
        <ele>6.4</ele>
        <time>2022-06-21T13:25:28Z</time>
      </trkpt>
      <trkpt lat="45.93892" lon="-0.95589">
        <ele>6.4</ele>
        <time>2022-06-21T13:25:29Z</time>
      </trkpt>
      <trkpt lat="45.93892" lon="-0.95589">
        <ele>6.4</ele>
        <time>2022-06-21T13:25:30Z</time>
      </trkpt>
      <trkpt lat="45.93892" lon="-0.9559">
        <ele>6.4</ele>
        <time>2022-06-21T13:25:31Z</time>
      </trkpt>
      <trkpt lat="45.93892" lon="-0.9559">
        <ele>6.4</ele>
        <time>2022-06-21T13:25:32Z</time>
      </trkpt>
      <trkpt lat="45.93892" lon="-0.95591">
        <ele>6.4</ele>
        <time>2022-06-21T13:25:33Z</time>
      </trkpt>
      <trkpt lat="45.93892" lon="-0.95591">
        <ele>6.4</ele>
        <time>2022-06-21T13:25:34Z</time>
      </trkpt>
      <trkpt lat="45.93891" lon="-0.95591">
        <ele>6.4</ele>
        <time>2022-06-21T13:25:35Z</time>
      </trkpt>
      <trkpt lat="45.93891" lon="-0.95592">
        <ele>6.4</ele>
        <time>2022-06-21T13:25:36Z</time>
      </trkpt>
      <trkpt lat="45.93891" lon="-0.95592">
        <ele>6.4</ele>
        <time>2022-06-21T13:25:37Z</time>
      </trkpt>
      <trkpt lat="45.93891" lon="-0.95593">
        <ele>6.4</ele>
        <time>2022-06-21T13:25:38Z</time>
      </trkpt>
      <trkpt lat="45.93891" lon="-0.95593">
        <ele>6.4</ele>
        <time>2022-06-21T13:25:39Z</time>
      </trkpt>
      <trkpt lat="45.93889" lon="-0.95594">
        <ele>6.4</ele>
        <time>2022-06-21T13:25:40Z</time>
      </trkpt>
      <trkpt lat="45.93886" lon="-0.95594">
        <ele>6.4</ele>
        <time>2022-06-21T13:25:41Z</time>
      </trkpt>
      <trkpt lat="45.93889" lon="-0.95595">
        <ele>6.3</ele>
        <time>2022-06-21T13:25:42Z</time>
      </trkpt>
      <trkpt lat="45.93889" lon="-0.95595">
        <ele>6.3</ele>
        <time>2022-06-21T13:25:43Z</time>
      </trkpt>
      <trkpt lat="45.93889" lon="-0.95594">
        <ele>6.3</ele>
        <time>2022-06-21T13:25:44Z</time>
      </trkpt>
      <trkpt lat="45.93889" lon="-0.95593">
        <ele>6.3</ele>
        <time>2022-06-21T13:25:45Z</time>
      </trkpt>
      <trkpt lat="45.93888" lon="-0.95591">
        <ele>6.3</ele>
        <time>2022-06-21T13:25:47Z</time>
      </trkpt>
      <trkpt lat="45.93887" lon="-0.95589">
        <ele>6.3</ele>
        <time>2022-06-21T13:25:48Z</time>
      </trkpt>
      <trkpt lat="45.93887" lon="-0.95588">
        <ele>6.3</ele>
        <time>2022-06-21T13:25:49Z</time>
      </trkpt>
      <trkpt lat="45.93887" lon="-0.95588">
        <ele>6.3</ele>
        <time>2022-06-21T13:25:50Z</time>
      </trkpt>
      <trkpt lat="45.93886" lon="-0.95587">
        <ele>6.3</ele>
        <time>2022-06-21T13:25:52Z</time>
      </trkpt>
      <trkpt lat="45.93886" lon="-0.95587">
        <ele>6.3</ele>
        <time>2022-06-21T13:25:53Z</time>
      </trkpt>
      <trkpt lat="45.93886" lon="-0.95587">
        <ele>6.3</ele>
        <time>2022-06-21T13:25:54Z</time>
      </trkpt>
      <trkpt lat="45.93886" lon="-0.95588">
        <ele>6.3</ele>
        <time>2022-06-21T13:25:55Z</time>
      </trkpt>
      <trkpt lat="45.93886" lon="-0.95588">
        <ele>6.3</ele>
        <time>2022-06-21T13:25:57Z</time>
      </trkpt>
      <trkpt lat="45.93886" lon="-0.95588">
        <ele>6.3</ele>
        <time>2022-06-21T13:25:58Z</time>
      </trkpt>
      <trkpt lat="45.93886" lon="-0.95589">
        <ele>6.3</ele>
        <time>2022-06-21T13:25:59Z</time>
      </trkpt>
      <trkpt lat="45.93885" lon="-0.95589">
        <ele>6.3</ele>
        <time>2022-06-21T13:26:00Z</time>
      </trkpt>
      <trkpt lat="45.93885" lon="-0.95589">
        <ele>6.3</ele>
        <time>2022-06-21T13:26:01Z</time>
      </trkpt>
      <trkpt lat="45.93885" lon="-0.95589">
        <ele>6.3</ele>
        <time>2022-06-21T13:26:02Z</time>
      </trkpt>
      <trkpt lat="45.93885" lon="-0.9559">
        <ele>6.3</ele>
        <time>2022-06-21T13:26:03Z</time>
      </trkpt>
      <trkpt lat="45.93886" lon="-0.95589">
        <ele>6.3</ele>
        <time>2022-06-21T13:26:04Z</time>
      </trkpt>
      <trkpt lat="45.93883" lon="-0.95589">
        <ele>6.3</ele>
        <time>2022-06-21T13:26:05Z</time>
      </trkpt>
      <trkpt lat="45.93883" lon="-0.95589">
        <ele>6.3</ele>
        <time>2022-06-21T13:26:06Z</time>
      </trkpt>
      <trkpt lat="45.93883" lon="-0.95588">
        <ele>6.3</ele>
        <time>2022-06-21T13:26:07Z</time>
      </trkpt>
      <trkpt lat="45.93884" lon="-0.95588">
        <ele>6.3</ele>
        <time>2022-06-21T13:26:08Z</time>
      </trkpt>
      <trkpt lat="45.93884" lon="-0.95588">
        <ele>6.3</ele>
        <time>2022-06-21T13:26:09Z</time>
      </trkpt>
      <trkpt lat="45.93884" lon="-0.95588">
        <ele>6.3</ele>
        <time>2022-06-21T13:26:10Z</time>
      </trkpt>
      <trkpt lat="45.93885" lon="-0.95588">
        <ele>6.3</ele>
        <time>2022-06-21T13:26:11Z</time>
      </trkpt>
      <trkpt lat="45.93885" lon="-0.95588">
        <ele>6.3</ele>
        <time>2022-06-21T13:26:12Z</time>
      </trkpt>
      <trkpt lat="45.93885" lon="-0.95587">
        <ele>6.3</ele>
        <time>2022-06-21T13:26:13Z</time>
      </trkpt>
      <trkpt lat="45.93886" lon="-0.95587">
        <ele>6.3</ele>
        <time>2022-06-21T13:26:14Z</time>
      </trkpt>
      <trkpt lat="45.93886" lon="-0.95587">
        <ele>6.3</ele>
        <time>2022-06-21T13:26:15Z</time>
      </trkpt>
      <trkpt lat="45.93887" lon="-0.95587">
        <ele>6.3</ele>
        <time>2022-06-21T13:26:16Z</time>
      </trkpt>
      <trkpt lat="45.93887" lon="-0.95587">
        <ele>6.3</ele>
        <time>2022-06-21T13:26:17Z</time>
      </trkpt>
      <trkpt lat="45.93887" lon="-0.95587">
        <ele>6.3</ele>
        <time>2022-06-21T13:26:18Z</time>
      </trkpt>
      <trkpt lat="45.93888" lon="-0.95586">
        <ele>6.3</ele>
        <time>2022-06-21T13:26:19Z</time>
      </trkpt>
      <trkpt lat="45.93888" lon="-0.95586">
        <ele>6.3</ele>
        <time>2022-06-21T13:26:20Z</time>
      </trkpt>
      <trkpt lat="45.93888" lon="-0.95586">
        <ele>6.3</ele>
        <time>2022-06-21T13:26:21Z</time>
      </trkpt>
      <trkpt lat="45.93889" lon="-0.95586">
        <ele>6.3</ele>
        <time>2022-06-21T13:26:22Z</time>
      </trkpt>
      <trkpt lat="45.93888" lon="-0.95586">
        <ele>6.3</ele>
        <time>2022-06-21T13:26:23Z</time>
      </trkpt>
      <trkpt lat="45.93888" lon="-0.95586">
        <ele>6.3</ele>
        <time>2022-06-21T13:26:24Z</time>
      </trkpt>
      <trkpt lat="45.93887" lon="-0.95586">
        <ele>6.3</ele>
        <time>2022-06-21T13:26:25Z</time>
      </trkpt>
      <trkpt lat="45.93887" lon="-0.95586">
        <ele>6.3</ele>
        <time>2022-06-21T13:26:26Z</time>
      </trkpt>
      <trkpt lat="45.93886" lon="-0.95586">
        <ele>6.3</ele>
        <time>2022-06-21T13:26:27Z</time>
      </trkpt>
      <trkpt lat="45.93886" lon="-0.95586">
        <ele>6.3</ele>
        <time>2022-06-21T13:26:28Z</time>
      </trkpt>
      <trkpt lat="45.93885" lon="-0.95586">
        <ele>6.3</ele>
        <time>2022-06-21T13:26:29Z</time>
      </trkpt>
      <trkpt lat="45.93885" lon="-0.95587">
        <ele>6.3</ele>
        <time>2022-06-21T13:26:30Z</time>
      </trkpt>
      <trkpt lat="45.93884" lon="-0.95587">
        <ele>6.3</ele>
        <time>2022-06-21T13:26:31Z</time>
      </trkpt>
      <trkpt lat="45.93884" lon="-0.95587">
        <ele>6.3</ele>
        <time>2022-06-21T13:26:32Z</time>
      </trkpt>
      <trkpt lat="45.93883" lon="-0.95587">
        <ele>6.3</ele>
        <time>2022-06-21T13:26:33Z</time>
      </trkpt>
      <trkpt lat="45.93883" lon="-0.95587">
        <ele>6.2</ele>
        <time>2022-06-21T13:26:34Z</time>
      </trkpt>
      <trkpt lat="45.93882" lon="-0.95587">
        <ele>6.2</ele>
        <time>2022-06-21T13:26:35Z</time>
      </trkpt>
      <trkpt lat="45.93882" lon="-0.95587">
        <ele>6.2</ele>
        <time>2022-06-21T13:26:36Z</time>
      </trkpt>
      <trkpt lat="45.93881" lon="-0.95587">
        <ele>6.2</ele>
        <time>2022-06-21T13:26:37Z</time>
      </trkpt>
      <trkpt lat="45.93881" lon="-0.95587">
        <ele>6.2</ele>
        <time>2022-06-21T13:26:38Z</time>
      </trkpt>
      <trkpt lat="45.9388" lon="-0.95587">
        <ele>6.2</ele>
        <time>2022-06-21T13:26:39Z</time>
      </trkpt>
      <trkpt lat="45.9388" lon="-0.95587">
        <ele>6.2</ele>
        <time>2022-06-21T13:26:40Z</time>
      </trkpt>
      <trkpt lat="45.93879" lon="-0.95587">
        <ele>6.2</ele>
        <time>2022-06-21T13:26:41Z</time>
      </trkpt>
      <trkpt lat="45.93879" lon="-0.95587">
        <ele>6.2</ele>
        <time>2022-06-21T13:26:42Z</time>
      </trkpt>
      <trkpt lat="45.93878" lon="-0.95587">
        <ele>6.2</ele>
        <time>2022-06-21T13:26:43Z</time>
      </trkpt>
      <trkpt lat="45.93878" lon="-0.95587">
        <ele>6.2</ele>
        <time>2022-06-21T13:26:44Z</time>
      </trkpt>
      <trkpt lat="45.93878" lon="-0.95587">
        <ele>6.2</ele>
        <time>2022-06-21T13:26:45Z</time>
      </trkpt>
      <trkpt lat="45.93879" lon="-0.95587">
        <ele>6.2</ele>
        <time>2022-06-21T13:26:46Z</time>
      </trkpt>
      <trkpt lat="45.9388" lon="-0.95587">
        <ele>6.2</ele>
        <time>2022-06-21T13:26:47Z</time>
      </trkpt>
      <trkpt lat="45.93892" lon="-0.95585">
        <ele>6.1</ele>
        <time>2022-06-21T13:26:48Z</time>
      </trkpt>
      <trkpt lat="45.93879" lon="-0.95587">
        <ele>6</ele>
        <time>2022-06-21T13:26:49Z</time>
      </trkpt>
      <trkpt lat="45.93879" lon="-0.95587">
        <ele>6</ele>
        <time>2022-06-21T13:26:50Z</time>
      </trkpt>
      <trkpt lat="45.93879" lon="-0.95587">
        <ele>5.9</ele>
        <time>2022-06-21T13:26:51Z</time>
      </trkpt>
      <trkpt lat="45.9388" lon="-0.95587">
        <ele>5.9</ele>
        <time>2022-06-21T13:26:52Z</time>
      </trkpt>
      <trkpt lat="45.93881" lon="-0.95587">
        <ele>5.9</ele>
        <time>2022-06-21T13:26:53Z</time>
      </trkpt>
      <trkpt lat="45.93881" lon="-0.95587">
        <ele>5.9</ele>
        <time>2022-06-21T13:26:54Z</time>
      </trkpt>
      <trkpt lat="45.93882" lon="-0.95587">
        <ele>5.9</ele>
        <time>2022-06-21T13:26:55Z</time>
      </trkpt>
      <trkpt lat="45.93882" lon="-0.95587">
        <ele>5.9</ele>
        <time>2022-06-21T13:26:56Z</time>
      </trkpt>
      <trkpt lat="45.93884" lon="-0.95586">
        <ele>5.9</ele>
        <time>2022-06-21T13:26:57Z</time>
      </trkpt>
      <trkpt lat="45.93885" lon="-0.95586">
        <ele>5.9</ele>
        <time>2022-06-21T13:26:58Z</time>
      </trkpt>
      <trkpt lat="45.93886" lon="-0.95586">
        <ele>5.9</ele>
        <time>2022-06-21T13:26:59Z</time>
      </trkpt>
      <trkpt lat="45.93884" lon="-0.95584">
        <ele>5.9</ele>
        <time>2022-06-21T13:27:00Z</time>
      </trkpt>
      <trkpt lat="45.93885" lon="-0.95584">
        <ele>5.9</ele>
        <time>2022-06-21T13:27:01Z</time>
      </trkpt>
      <trkpt lat="45.93886" lon="-0.95584">
        <ele>5.8</ele>
        <time>2022-06-21T13:27:02Z</time>
      </trkpt>
      <trkpt lat="45.93887" lon="-0.95584">
        <ele>5.8</ele>
        <time>2022-06-21T13:27:03Z</time>
      </trkpt>
      <trkpt lat="45.93888" lon="-0.95584">
        <ele>5.8</ele>
        <time>2022-06-21T13:27:04Z</time>
      </trkpt>
      <trkpt lat="45.93888" lon="-0.95585">
        <ele>5.8</ele>
        <time>2022-06-21T13:27:05Z</time>
      </trkpt>
      <trkpt lat="45.93889" lon="-0.95585">
        <ele>5.8</ele>
        <time>2022-06-21T13:27:06Z</time>
      </trkpt>
      <trkpt lat="45.93889" lon="-0.95585">
        <ele>5.8</ele>
        <time>2022-06-21T13:27:07Z</time>
      </trkpt>
      <trkpt lat="45.93889" lon="-0.95585">
        <ele>5.8</ele>
        <time>2022-06-21T13:27:08Z</time>
      </trkpt>
      <trkpt lat="45.9389" lon="-0.95585">
        <ele>5.8</ele>
        <time>2022-06-21T13:27:09Z</time>
      </trkpt>
      <trkpt lat="45.9389" lon="-0.95585">
        <ele>5.8</ele>
        <time>2022-06-21T13:27:10Z</time>
      </trkpt>
      <trkpt lat="45.9389" lon="-0.95585">
        <ele>5.8</ele>
        <time>2022-06-21T13:27:11Z</time>
      </trkpt>
      <trkpt lat="45.93891" lon="-0.95584">
        <ele>5.8</ele>
        <time>2022-06-21T13:27:12Z</time>
      </trkpt>
      <trkpt lat="45.93889" lon="-0.95584">
        <ele>5.8</ele>
        <time>2022-06-21T13:27:13Z</time>
      </trkpt>
      <trkpt lat="45.93888" lon="-0.95584">
        <ele>5.8</ele>
        <time>2022-06-21T13:27:14Z</time>
      </trkpt>
      <trkpt lat="45.93887" lon="-0.95584">
        <ele>5.8</ele>
        <time>2022-06-21T13:27:15Z</time>
      </trkpt>
      <trkpt lat="45.93886" lon="-0.95584">
        <ele>5.7</ele>
        <time>2022-06-21T13:27:16Z</time>
      </trkpt>
      <trkpt lat="45.93884" lon="-0.95583">
        <ele>5.7</ele>
        <time>2022-06-21T13:27:17Z</time>
      </trkpt>
      <trkpt lat="45.93884" lon="-0.95583">
        <ele>5.7</ele>
        <time>2022-06-21T13:27:18Z</time>
      </trkpt>
      <trkpt lat="45.93884" lon="-0.95583">
        <ele>5.7</ele>
        <time>2022-06-21T13:27:19Z</time>
      </trkpt>
      <trkpt lat="45.93884" lon="-0.95583">
        <ele>5.7</ele>
        <time>2022-06-21T13:27:20Z</time>
      </trkpt>
      <trkpt lat="45.93884" lon="-0.95583">
        <ele>5.7</ele>
        <time>2022-06-21T13:27:21Z</time>
      </trkpt>
      <trkpt lat="45.93884" lon="-0.95583">
        <ele>5.7</ele>
        <time>2022-06-21T13:27:22Z</time>
      </trkpt>
      <trkpt lat="45.93884" lon="-0.95583">
        <ele>5.7</ele>
        <time>2022-06-21T13:27:23Z</time>
      </trkpt>
      <trkpt lat="45.93884" lon="-0.95583">
        <ele>5.7</ele>
        <time>2022-06-21T13:27:24Z</time>
      </trkpt>
      <trkpt lat="45.93884" lon="-0.95583">
        <ele>5.7</ele>
        <time>2022-06-21T13:27:25Z</time>
      </trkpt>
      <trkpt lat="45.93884" lon="-0.95583">
        <ele>5.7</ele>
        <time>2022-06-21T13:27:26Z</time>
      </trkpt>
      <trkpt lat="45.93884" lon="-0.95583">
        <ele>5.7</ele>
        <time>2022-06-21T13:27:27Z</time>
      </trkpt>
      <trkpt lat="45.93884" lon="-0.95583">
        <ele>5.7</ele>
        <time>2022-06-21T13:27:28Z</time>
      </trkpt>
      <trkpt lat="45.93885" lon="-0.95584">
        <ele>5.7</ele>
        <time>2022-06-21T13:27:29Z</time>
      </trkpt>
      <trkpt lat="45.93885" lon="-0.95584">
        <ele>5.7</ele>
        <time>2022-06-21T13:27:30Z</time>
      </trkpt>
      <trkpt lat="45.93886" lon="-0.95584">
        <ele>5.7</ele>
        <time>2022-06-21T13:27:31Z</time>
      </trkpt>
      <trkpt lat="45.93888" lon="-0.95584">
        <ele>5.7</ele>
        <time>2022-06-21T13:27:32Z</time>
      </trkpt>
      <trkpt lat="45.93889" lon="-0.95584">
        <ele>5.7</ele>
        <time>2022-06-21T13:27:33Z</time>
      </trkpt>
      <trkpt lat="45.93889" lon="-0.95585">
        <ele>5.7</ele>
        <time>2022-06-21T13:27:34Z</time>
      </trkpt>
      <trkpt lat="45.9389" lon="-0.95585">
        <ele>5.7</ele>
        <time>2022-06-21T13:27:35Z</time>
      </trkpt>
      <trkpt lat="45.9389" lon="-0.95585">
        <ele>5.7</ele>
        <time>2022-06-21T13:27:36Z</time>
      </trkpt>
      <trkpt lat="45.9389" lon="-0.95585">
        <ele>5.7</ele>
        <time>2022-06-21T13:27:37Z</time>
      </trkpt>
      <trkpt lat="45.93889" lon="-0.95585">
        <ele>5.7</ele>
        <time>2022-06-21T13:27:38Z</time>
      </trkpt>
      <trkpt lat="45.93885" lon="-0.95584">
        <ele>5.7</ele>
        <time>2022-06-21T13:27:39Z</time>
      </trkpt>
      <trkpt lat="45.93884" lon="-0.95584">
        <ele>5.7</ele>
        <time>2022-06-21T13:27:40Z</time>
      </trkpt>
      <trkpt lat="45.93884" lon="-0.95584">
        <ele>5.7</ele>
        <time>2022-06-21T13:27:41Z</time>
      </trkpt>
      <trkpt lat="45.93884" lon="-0.95584">
        <ele>5.7</ele>
        <time>2022-06-21T13:27:42Z</time>
      </trkpt>
      <trkpt lat="45.93885" lon="-0.95584">
        <ele>5.6</ele>
        <time>2022-06-21T13:27:43Z</time>
      </trkpt>
      <trkpt lat="45.93885" lon="-0.95584">
        <ele>5.6</ele>
        <time>2022-06-21T13:27:44Z</time>
      </trkpt>
      <trkpt lat="45.93885" lon="-0.95584">
        <ele>5.6</ele>
        <time>2022-06-21T13:27:45Z</time>
      </trkpt>
      <trkpt lat="45.93885" lon="-0.95585">
        <ele>5.6</ele>
        <time>2022-06-21T13:27:46Z</time>
      </trkpt>
      <trkpt lat="45.93885" lon="-0.95585">
        <ele>5.6</ele>
        <time>2022-06-21T13:27:47Z</time>
      </trkpt>
      <trkpt lat="45.93885" lon="-0.95585">
        <ele>5.6</ele>
        <time>2022-06-21T13:27:48Z</time>
      </trkpt>
      <trkpt lat="45.93885" lon="-0.95585">
        <ele>5.6</ele>
        <time>2022-06-21T13:27:49Z</time>
      </trkpt>
      <trkpt lat="45.93885" lon="-0.95585">
        <ele>5.6</ele>
        <time>2022-06-21T13:27:50Z</time>
      </trkpt>
      <trkpt lat="45.93885" lon="-0.95585">
        <ele>5.6</ele>
        <time>2022-06-21T13:27:51Z</time>
      </trkpt>
      <trkpt lat="45.93885" lon="-0.95585">
        <ele>5.6</ele>
        <time>2022-06-21T13:27:52Z</time>
      </trkpt>
      <trkpt lat="45.93885" lon="-0.95586">
        <ele>5.6</ele>
        <time>2022-06-21T13:27:53Z</time>
      </trkpt>
      <trkpt lat="45.93885" lon="-0.95586">
        <ele>5.6</ele>
        <time>2022-06-21T13:27:54Z</time>
      </trkpt>
      <trkpt lat="45.93885" lon="-0.95586">
        <ele>5.6</ele>
        <time>2022-06-21T13:27:55Z</time>
      </trkpt>
      <trkpt lat="45.93885" lon="-0.95586">
        <ele>5.6</ele>
        <time>2022-06-21T13:27:56Z</time>
      </trkpt>
      <trkpt lat="45.93886" lon="-0.95586">
        <ele>5.6</ele>
        <time>2022-06-21T13:27:57Z</time>
      </trkpt>
      <trkpt lat="45.93886" lon="-0.95586">
        <ele>5.6</ele>
        <time>2022-06-21T13:27:58Z</time>
      </trkpt>
      <trkpt lat="45.93886" lon="-0.95586">
        <ele>5.6</ele>
        <time>2022-06-21T13:27:59Z</time>
      </trkpt>
      <trkpt lat="45.93886" lon="-0.95587">
        <ele>5.6</ele>
        <time>2022-06-21T13:28:00Z</time>
      </trkpt>
      <trkpt lat="45.93886" lon="-0.95587">
        <ele>5.6</ele>
        <time>2022-06-21T13:28:01Z</time>
      </trkpt>
      <trkpt lat="45.93886" lon="-0.95587">
        <ele>5.6</ele>
        <time>2022-06-21T13:28:02Z</time>
      </trkpt>
      <trkpt lat="45.93886" lon="-0.95587">
        <ele>5.6</ele>
        <time>2022-06-21T13:28:03Z</time>
      </trkpt>
      <trkpt lat="45.93886" lon="-0.95587">
        <ele>5.6</ele>
        <time>2022-06-21T13:28:04Z</time>
      </trkpt>
      <trkpt lat="45.93886" lon="-0.95587">
        <ele>5.6</ele>
        <time>2022-06-21T13:28:05Z</time>
      </trkpt>
      <trkpt lat="45.93886" lon="-0.95587">
        <ele>5.6</ele>
        <time>2022-06-21T13:28:06Z</time>
      </trkpt>
      <trkpt lat="45.93886" lon="-0.95588">
        <ele>5.6</ele>
        <time>2022-06-21T13:28:07Z</time>
      </trkpt>
      <trkpt lat="45.93886" lon="-0.95588">
        <ele>5.6</ele>
        <time>2022-06-21T13:28:08Z</time>
      </trkpt>
      <trkpt lat="45.93886" lon="-0.95588">
        <ele>5.6</ele>
        <time>2022-06-21T13:28:09Z</time>
      </trkpt>
      <trkpt lat="45.93887" lon="-0.95588">
        <ele>5.6</ele>
        <time>2022-06-21T13:28:10Z</time>
      </trkpt>
      <trkpt lat="45.93887" lon="-0.95588">
        <ele>5.6</ele>
        <time>2022-06-21T13:28:11Z</time>
      </trkpt>
      <trkpt lat="45.93887" lon="-0.95588">
        <ele>5.6</ele>
        <time>2022-06-21T13:28:12Z</time>
      </trkpt>
      <trkpt lat="45.93887" lon="-0.95588">
        <ele>5.6</ele>
        <time>2022-06-21T13:28:13Z</time>
      </trkpt>
      <trkpt lat="45.93887" lon="-0.95589">
        <ele>5.6</ele>
        <time>2022-06-21T13:28:14Z</time>
      </trkpt>
      <trkpt lat="45.93887" lon="-0.95589">
        <ele>5.6</ele>
        <time>2022-06-21T13:28:15Z</time>
      </trkpt>
      <trkpt lat="45.93887" lon="-0.95589">
        <ele>5.6</ele>
        <time>2022-06-21T13:28:16Z</time>
      </trkpt>
      <trkpt lat="45.93887" lon="-0.95589">
        <ele>5.6</ele>
        <time>2022-06-21T13:28:17Z</time>
      </trkpt>
      <trkpt lat="45.93887" lon="-0.95589">
        <ele>5.6</ele>
        <time>2022-06-21T13:28:18Z</time>
      </trkpt>
      <trkpt lat="45.93887" lon="-0.95589">
        <ele>5.6</ele>
        <time>2022-06-21T13:28:19Z</time>
      </trkpt>
      <trkpt lat="45.93887" lon="-0.95589">
        <ele>5.6</ele>
        <time>2022-06-21T13:28:20Z</time>
      </trkpt>
      <trkpt lat="45.93887" lon="-0.9559">
        <ele>5.6</ele>
        <time>2022-06-21T13:28:21Z</time>
      </trkpt>
      <trkpt lat="45.93887" lon="-0.9559">
        <ele>5.6</ele>
        <time>2022-06-21T13:28:22Z</time>
      </trkpt>
      <trkpt lat="45.93888" lon="-0.9559">
        <ele>5.6</ele>
        <time>2022-06-21T13:28:23Z</time>
      </trkpt>
      <trkpt lat="45.93888" lon="-0.9559">
        <ele>5.6</ele>
        <time>2022-06-21T13:28:24Z</time>
      </trkpt>
      <trkpt lat="45.93888" lon="-0.9559">
        <ele>5.6</ele>
        <time>2022-06-21T13:28:25Z</time>
      </trkpt>
      <trkpt lat="45.93888" lon="-0.9559">
        <ele>5.6</ele>
        <time>2022-06-21T13:28:26Z</time>
      </trkpt>
      <trkpt lat="45.93888" lon="-0.9559">
        <ele>5.6</ele>
        <time>2022-06-21T13:28:27Z</time>
      </trkpt>
      <trkpt lat="45.93888" lon="-0.95591">
        <ele>5.6</ele>
        <time>2022-06-21T13:28:28Z</time>
      </trkpt>
      <trkpt lat="45.93888" lon="-0.95591">
        <ele>5.6</ele>
        <time>2022-06-21T13:28:29Z</time>
      </trkpt>
      <trkpt lat="45.93888" lon="-0.95591">
        <ele>5.6</ele>
        <time>2022-06-21T13:28:30Z</time>
      </trkpt>
      <trkpt lat="45.93888" lon="-0.95591">
        <ele>5.6</ele>
        <time>2022-06-21T13:28:31Z</time>
      </trkpt>
      <trkpt lat="45.93888" lon="-0.95591">
        <ele>5.6</ele>
        <time>2022-06-21T13:28:32Z</time>
      </trkpt>
      <trkpt lat="45.93888" lon="-0.95591">
        <ele>5.6</ele>
        <time>2022-06-21T13:28:33Z</time>
      </trkpt>
      <trkpt lat="45.93888" lon="-0.95591">
        <ele>5.6</ele>
        <time>2022-06-21T13:28:34Z</time>
      </trkpt>
      <trkpt lat="45.93888" lon="-0.95592">
        <ele>5.6</ele>
        <time>2022-06-21T13:28:35Z</time>
      </trkpt>
      <trkpt lat="45.93889" lon="-0.95592">
        <ele>5.6</ele>
        <time>2022-06-21T13:28:36Z</time>
      </trkpt>
      <trkpt lat="45.93889" lon="-0.95592">
        <ele>5.6</ele>
        <time>2022-06-21T13:28:37Z</time>
      </trkpt>
      <trkpt lat="45.93889" lon="-0.95592">
        <ele>5.6</ele>
        <time>2022-06-21T13:28:38Z</time>
      </trkpt>
      <trkpt lat="45.93889" lon="-0.95592">
        <ele>5.6</ele>
        <time>2022-06-21T13:28:39Z</time>
      </trkpt>
      <trkpt lat="45.93889" lon="-0.95592">
        <ele>5.6</ele>
        <time>2022-06-21T13:28:40Z</time>
      </trkpt>
      <trkpt lat="45.93889" lon="-0.95592">
        <ele>5.6</ele>
        <time>2022-06-21T13:28:41Z</time>
      </trkpt>
      <trkpt lat="45.93889" lon="-0.95593">
        <ele>5.6</ele>
        <time>2022-06-21T13:28:42Z</time>
      </trkpt>
      <trkpt lat="45.93889" lon="-0.95593">
        <ele>5.6</ele>
        <time>2022-06-21T13:28:43Z</time>
      </trkpt>
      <trkpt lat="45.93889" lon="-0.95593">
        <ele>5.6</ele>
        <time>2022-06-21T13:28:44Z</time>
      </trkpt>
      <trkpt lat="45.93889" lon="-0.95593">
        <ele>5.6</ele>
        <time>2022-06-21T13:28:45Z</time>
      </trkpt>
      <trkpt lat="45.93889" lon="-0.95593">
        <ele>5.6</ele>
        <time>2022-06-21T13:28:46Z</time>
      </trkpt>
      <trkpt lat="45.93889" lon="-0.95593">
        <ele>5.6</ele>
        <time>2022-06-21T13:28:47Z</time>
      </trkpt>
      <trkpt lat="45.93891" lon="-0.95598">
        <ele>5.6</ele>
        <time>2022-06-21T13:28:48Z</time>
      </trkpt>
      <trkpt lat="45.93891" lon="-0.956">
        <ele>5.6</ele>
        <time>2022-06-21T13:28:49Z</time>
      </trkpt>
      <trkpt lat="45.93892" lon="-0.95601">
        <ele>5.6</ele>
        <time>2022-06-21T13:28:50Z</time>
      </trkpt>
      <trkpt lat="45.93892" lon="-0.95601">
        <ele>5.6</ele>
        <time>2022-06-21T13:28:51Z</time>
      </trkpt>
      <trkpt lat="45.93893" lon="-0.95601">
        <ele>5.6</ele>
        <time>2022-06-21T13:28:52Z</time>
      </trkpt>
      <trkpt lat="45.93893" lon="-0.95601">
        <ele>5.6</ele>
        <time>2022-06-21T13:28:53Z</time>
      </trkpt>
      <trkpt lat="45.93894" lon="-0.95601">
        <ele>5.6</ele>
        <time>2022-06-21T13:28:54Z</time>
      </trkpt>
      <trkpt lat="45.93894" lon="-0.95601">
        <ele>5.6</ele>
        <time>2022-06-21T13:28:55Z</time>
      </trkpt>
      <trkpt lat="45.93894" lon="-0.95601">
        <ele>5.6</ele>
        <time>2022-06-21T13:28:56Z</time>
      </trkpt>
      <trkpt lat="45.93894" lon="-0.95601">
        <ele>5.6</ele>
        <time>2022-06-21T13:28:57Z</time>
      </trkpt>
      <trkpt lat="45.93894" lon="-0.95601">
        <ele>5.6</ele>
        <time>2022-06-21T13:28:58Z</time>
      </trkpt>
      <trkpt lat="45.93894" lon="-0.95601">
        <ele>5.6</ele>
        <time>2022-06-21T13:28:59Z</time>
      </trkpt>
      <trkpt lat="45.93894" lon="-0.95601">
        <ele>5.6</ele>
        <time>2022-06-21T13:29:00Z</time>
      </trkpt>
      <trkpt lat="45.93894" lon="-0.95601">
        <ele>5.6</ele>
        <time>2022-06-21T13:29:01Z</time>
      </trkpt>
      <trkpt lat="45.93894" lon="-0.95601">
        <ele>5.6</ele>
        <time>2022-06-21T13:29:02Z</time>
      </trkpt>
      <trkpt lat="45.93894" lon="-0.95601">
        <ele>5.6</ele>
        <time>2022-06-21T13:29:03Z</time>
      </trkpt>
      <trkpt lat="45.93894" lon="-0.95601">
        <ele>5.6</ele>
        <time>2022-06-21T13:29:05Z</time>
      </trkpt>
      <trkpt lat="45.93894" lon="-0.95601">
        <ele>5.6</ele>
        <time>2022-06-21T13:29:06Z</time>
      </trkpt>
      <trkpt lat="45.93894" lon="-0.95601">
        <ele>5.6</ele>
        <time>2022-06-21T13:29:07Z</time>
      </trkpt>
      <trkpt lat="45.93894" lon="-0.95601">
        <ele>5.6</ele>
        <time>2022-06-21T13:29:08Z</time>
      </trkpt>
      <trkpt lat="45.93894" lon="-0.95601">
        <ele>5.6</ele>
        <time>2022-06-21T13:29:09Z</time>
      </trkpt>
      <trkpt lat="45.93894" lon="-0.95601">
        <ele>5.6</ele>
        <time>2022-06-21T13:29:10Z</time>
      </trkpt>
      <trkpt lat="45.93894" lon="-0.95601">
        <ele>5.6</ele>
        <time>2022-06-21T13:29:11Z</time>
      </trkpt>
      <trkpt lat="45.93893" lon="-0.95599">
        <ele>5.6</ele>
        <time>2022-06-21T13:29:12Z</time>
      </trkpt>
      <trkpt lat="45.93893" lon="-0.95599">
        <ele>5.6</ele>
        <time>2022-06-21T13:29:13Z</time>
      </trkpt>
      <trkpt lat="45.93893" lon="-0.95599">
        <ele>5.6</ele>
        <time>2022-06-21T13:29:14Z</time>
      </trkpt>
      <trkpt lat="45.93893" lon="-0.95599">
        <ele>5.6</ele>
        <time>2022-06-21T13:29:15Z</time>
      </trkpt>
      <trkpt lat="45.93894" lon="-0.95599">
        <ele>5.6</ele>
        <time>2022-06-21T13:29:16Z</time>
      </trkpt>
      <trkpt lat="45.93894" lon="-0.95597">
        <ele>5.6</ele>
        <time>2022-06-21T13:29:17Z</time>
      </trkpt>
      <trkpt lat="45.93894" lon="-0.95597">
        <ele>5.6</ele>
        <time>2022-06-21T13:29:18Z</time>
      </trkpt>
      <trkpt lat="45.93894" lon="-0.95597">
        <ele>5.6</ele>
        <time>2022-06-21T13:29:19Z</time>
      </trkpt>
      <trkpt lat="45.93894" lon="-0.95597">
        <ele>5.6</ele>
        <time>2022-06-21T13:29:20Z</time>
      </trkpt>
      <trkpt lat="45.93894" lon="-0.95597">
        <ele>5.6</ele>
        <time>2022-06-21T13:29:21Z</time>
      </trkpt>
      <trkpt lat="45.93894" lon="-0.95597">
        <ele>5.6</ele>
        <time>2022-06-21T13:29:22Z</time>
      </trkpt>
      <trkpt lat="45.93894" lon="-0.95597">
        <ele>5.6</ele>
        <time>2022-06-21T13:29:24Z</time>
      </trkpt>
      <trkpt lat="45.93894" lon="-0.95597">
        <ele>5.6</ele>
        <time>2022-06-21T13:29:25Z</time>
      </trkpt>
      <trkpt lat="45.93894" lon="-0.95597">
        <ele>5.6</ele>
        <time>2022-06-21T13:29:26Z</time>
      </trkpt>
      <trkpt lat="45.93894" lon="-0.95597">
        <ele>5.6</ele>
        <time>2022-06-21T13:29:27Z</time>
      </trkpt>
      <trkpt lat="45.93894" lon="-0.95597">
        <ele>5.6</ele>
        <time>2022-06-21T13:29:28Z</time>
      </trkpt>
      <trkpt lat="45.93894" lon="-0.95597">
        <ele>5.6</ele>
        <time>2022-06-21T13:29:29Z</time>
      </trkpt>
      <trkpt lat="45.93894" lon="-0.95597">
        <ele>5.6</ele>
        <time>2022-06-21T13:29:30Z</time>
      </trkpt>
      <trkpt lat="45.93894" lon="-0.95597">
        <ele>5.6</ele>
        <time>2022-06-21T13:29:31Z</time>
      </trkpt>
      <trkpt lat="45.93893" lon="-0.95597">
        <ele>5.6</ele>
        <time>2022-06-21T13:29:32Z</time>
      </trkpt>
      <trkpt lat="45.93893" lon="-0.95596">
        <ele>5.6</ele>
        <time>2022-06-21T13:29:33Z</time>
      </trkpt>
      <trkpt lat="45.93893" lon="-0.95595">
        <ele>5.6</ele>
        <time>2022-06-21T13:29:34Z</time>
      </trkpt>
      <trkpt lat="45.93893" lon="-0.95595">
        <ele>5.6</ele>
        <time>2022-06-21T13:29:35Z</time>
      </trkpt>
      <trkpt lat="45.93893" lon="-0.95597">
        <ele>5.6</ele>
        <time>2022-06-21T13:29:36Z</time>
      </trkpt>
      <trkpt lat="45.93894" lon="-0.95597">
        <ele>5.6</ele>
        <time>2022-06-21T13:29:37Z</time>
      </trkpt>
      <trkpt lat="45.93894" lon="-0.95597">
        <ele>5.6</ele>
        <time>2022-06-21T13:29:38Z</time>
      </trkpt>
      <trkpt lat="45.93894" lon="-0.95597">
        <ele>5.6</ele>
        <time>2022-06-21T13:29:39Z</time>
      </trkpt>
      <trkpt lat="45.93894" lon="-0.95597">
        <ele>5.6</ele>
        <time>2022-06-21T13:29:40Z</time>
      </trkpt>
      <trkpt lat="45.93894" lon="-0.95597">
        <ele>5.6</ele>
        <time>2022-06-21T13:29:41Z</time>
      </trkpt>
      <trkpt lat="45.93894" lon="-0.95597">
        <ele>5.6</ele>
        <time>2022-06-21T13:29:42Z</time>
      </trkpt>
      <trkpt lat="45.93894" lon="-0.95597">
        <ele>5.6</ele>
        <time>2022-06-21T13:29:43Z</time>
      </trkpt>
      <trkpt lat="45.93894" lon="-0.95597">
        <ele>5.6</ele>
        <time>2022-06-21T13:29:44Z</time>
      </trkpt>
      <trkpt lat="45.93894" lon="-0.95597">
        <ele>5.6</ele>
        <time>2022-06-21T13:29:45Z</time>
      </trkpt>
      <trkpt lat="45.93894" lon="-0.95597">
        <ele>5.6</ele>
        <time>2022-06-21T13:29:46Z</time>
      </trkpt>
      <trkpt lat="45.93894" lon="-0.95597">
        <ele>5.6</ele>
        <time>2022-06-21T13:29:47Z</time>
      </trkpt>
      <trkpt lat="45.93894" lon="-0.95597">
        <ele>5.6</ele>
        <time>2022-06-21T13:29:48Z</time>
      </trkpt>
      <trkpt lat="45.93893" lon="-0.95596">
        <ele>5.6</ele>
        <time>2022-06-21T13:29:49Z</time>
      </trkpt>
      <trkpt lat="45.93893" lon="-0.95595">
        <ele>5.6</ele>
        <time>2022-06-21T13:29:50Z</time>
      </trkpt>
      <trkpt lat="45.93893" lon="-0.95595">
        <ele>5.6</ele>
        <time>2022-06-21T13:29:51Z</time>
      </trkpt>
      <trkpt lat="45.93893" lon="-0.95596">
        <ele>5.6</ele>
        <time>2022-06-21T13:29:52Z</time>
      </trkpt>
      <trkpt lat="45.93893" lon="-0.95595">
        <ele>5.6</ele>
        <time>2022-06-21T13:29:53Z</time>
      </trkpt>
      <trkpt lat="45.93893" lon="-0.95596">
        <ele>5.6</ele>
        <time>2022-06-21T13:29:54Z</time>
      </trkpt>
      <trkpt lat="45.93893" lon="-0.95596">
        <ele>5.6</ele>
        <time>2022-06-21T13:29:55Z</time>
      </trkpt>
      <trkpt lat="45.93894" lon="-0.9559">
        <ele>5.6</ele>
        <time>2022-06-21T13:29:57Z</time>
      </trkpt>
      <trkpt lat="45.93894" lon="-0.9559">
        <ele>5.6</ele>
        <time>2022-06-21T13:29:58Z</time>
      </trkpt>
      <trkpt lat="45.93894" lon="-0.95592">
        <ele>5.6</ele>
        <time>2022-06-21T13:30:00Z</time>
      </trkpt>
      <trkpt lat="45.93894" lon="-0.95592">
        <ele>5.6</ele>
        <time>2022-06-21T13:30:01Z</time>
      </trkpt>
      <trkpt lat="45.93894" lon="-0.95593">
        <ele>5.6</ele>
        <time>2022-06-21T13:30:02Z</time>
      </trkpt>
      <trkpt lat="45.93894" lon="-0.95594">
        <ele>5.6</ele>
        <time>2022-06-21T13:30:03Z</time>
      </trkpt>
      <trkpt lat="45.93893" lon="-0.95601">
        <ele>5.6</ele>
        <time>2022-06-21T13:30:04Z</time>
      </trkpt>
      <trkpt lat="45.93891" lon="-0.95606">
        <ele>5.6</ele>
        <time>2022-06-21T13:30:05Z</time>
      </trkpt>
      <trkpt lat="45.93891" lon="-0.95608">
        <ele>5.6</ele>
        <time>2022-06-21T13:30:06Z</time>
      </trkpt>
      <trkpt lat="45.9389" lon="-0.9561">
        <ele>5.6</ele>
        <time>2022-06-21T13:30:08Z</time>
      </trkpt>
      <trkpt lat="45.9389" lon="-0.9561">
        <ele>5.6</ele>
        <time>2022-06-21T13:30:09Z</time>
      </trkpt>
      <trkpt lat="45.9389" lon="-0.9561">
        <ele>5.6</ele>
        <time>2022-06-21T13:30:10Z</time>
      </trkpt>
      <trkpt lat="45.9389" lon="-0.9561">
        <ele>5.6</ele>
        <time>2022-06-21T13:30:11Z</time>
      </trkpt>
      <trkpt lat="45.9389" lon="-0.9561">
        <ele>5.6</ele>
        <time>2022-06-21T13:30:12Z</time>
      </trkpt>
      <trkpt lat="45.9389" lon="-0.9561">
        <ele>5.6</ele>
        <time>2022-06-21T13:30:13Z</time>
      </trkpt>
      <trkpt lat="45.9389" lon="-0.9561">
        <ele>5.6</ele>
        <time>2022-06-21T13:30:14Z</time>
      </trkpt>
      <trkpt lat="45.9389" lon="-0.9561">
        <ele>5.6</ele>
        <time>2022-06-21T13:30:15Z</time>
      </trkpt>
      <trkpt lat="45.9389" lon="-0.9561">
        <ele>5.6</ele>
        <time>2022-06-21T13:30:16Z</time>
      </trkpt>
      <trkpt lat="45.9389" lon="-0.9561">
        <ele>5.6</ele>
        <time>2022-06-21T13:30:17Z</time>
      </trkpt>
      <trkpt lat="45.9389" lon="-0.9561">
        <ele>5.6</ele>
        <time>2022-06-21T13:30:18Z</time>
      </trkpt>
      <trkpt lat="45.9389" lon="-0.9561">
        <ele>5.6</ele>
        <time>2022-06-21T13:30:19Z</time>
      </trkpt>
      <trkpt lat="45.9389" lon="-0.9561">
        <ele>5.6</ele>
        <time>2022-06-21T13:30:21Z</time>
      </trkpt>
      <trkpt lat="45.9389" lon="-0.95611">
        <ele>5.6</ele>
        <time>2022-06-21T13:30:22Z</time>
      </trkpt>
      <trkpt lat="45.93889" lon="-0.95611">
        <ele>5.6</ele>
        <time>2022-06-21T13:30:23Z</time>
      </trkpt>
      <trkpt lat="45.93888" lon="-0.95611">
        <ele>5.6</ele>
        <time>2022-06-21T13:30:24Z</time>
      </trkpt>
      <trkpt lat="45.93887" lon="-0.9561">
        <ele>5.6</ele>
        <time>2022-06-21T13:30:25Z</time>
      </trkpt>
      <trkpt lat="45.93885" lon="-0.95605">
        <ele>5.6</ele>
        <time>2022-06-21T13:30:27Z</time>
      </trkpt>
      <trkpt lat="45.93885" lon="-0.95603">
        <ele>5.6</ele>
        <time>2022-06-21T13:30:28Z</time>
      </trkpt>
      <trkpt lat="45.93883" lon="-0.95598">
        <ele>5.5</ele>
        <time>2022-06-21T13:30:29Z</time>
      </trkpt>
      <trkpt lat="45.93883" lon="-0.95597">
        <ele>5.5</ele>
        <time>2022-06-21T13:30:30Z</time>
      </trkpt>
      <trkpt lat="45.93881" lon="-0.95595">
        <ele>5.5</ele>
        <time>2022-06-21T13:30:31Z</time>
      </trkpt>
      <trkpt lat="45.93878" lon="-0.95594">
        <ele>5.5</ele>
        <time>2022-06-21T13:30:33Z</time>
      </trkpt>
      <trkpt lat="45.93875" lon="-0.95593">
        <ele>5.5</ele>
        <time>2022-06-21T13:30:34Z</time>
      </trkpt>
      <trkpt lat="45.93872" lon="-0.95594">
        <ele>5.5</ele>
        <time>2022-06-21T13:30:35Z</time>
      </trkpt>
      <trkpt lat="45.93871" lon="-0.95594">
        <ele>5.5</ele>
        <time>2022-06-21T13:30:36Z</time>
      </trkpt>
      <trkpt lat="45.9387" lon="-0.95594">
        <ele>5.5</ele>
        <time>2022-06-21T13:30:37Z</time>
      </trkpt>
      <trkpt lat="45.93869" lon="-0.95594">
        <ele>5.5</ele>
        <time>2022-06-21T13:30:38Z</time>
      </trkpt>
      <trkpt lat="45.93867" lon="-0.95595">
        <ele>5.5</ele>
        <time>2022-06-21T13:30:39Z</time>
      </trkpt>
      <trkpt lat="45.93866" lon="-0.95595">
        <ele>5.5</ele>
        <time>2022-06-21T13:30:40Z</time>
      </trkpt>
      <trkpt lat="45.93866" lon="-0.95595">
        <ele>5.5</ele>
        <time>2022-06-21T13:30:41Z</time>
      </trkpt>
      <trkpt lat="45.93864" lon="-0.95596">
        <ele>5.4</ele>
        <time>2022-06-21T13:30:42Z</time>
      </trkpt>
      <trkpt lat="45.93863" lon="-0.95596">
        <ele>5.4</ele>
        <time>2022-06-21T13:30:43Z</time>
      </trkpt>
      <trkpt lat="45.93862" lon="-0.95596">
        <ele>5.4</ele>
        <time>2022-06-21T13:30:44Z</time>
      </trkpt>
      <trkpt lat="45.93858" lon="-0.95597">
        <ele>5.4</ele>
        <time>2022-06-21T13:30:45Z</time>
      </trkpt>
      <trkpt lat="45.93857" lon="-0.95597">
        <ele>5.4</ele>
        <time>2022-06-21T13:30:46Z</time>
      </trkpt>
      <trkpt lat="45.93855" lon="-0.95597">
        <ele>5.4</ele>
        <time>2022-06-21T13:30:47Z</time>
      </trkpt>
      <trkpt lat="45.93853" lon="-0.95598">
        <ele>5.4</ele>
        <time>2022-06-21T13:30:48Z</time>
      </trkpt>
      <trkpt lat="45.93852" lon="-0.95598">
        <ele>5.4</ele>
        <time>2022-06-21T13:30:50Z</time>
      </trkpt>
      <trkpt lat="45.93851" lon="-0.95598">
        <ele>5.4</ele>
        <time>2022-06-21T13:30:51Z</time>
      </trkpt>
      <trkpt lat="45.93849" lon="-0.95598">
        <ele>5.4</ele>
        <time>2022-06-21T13:30:52Z</time>
      </trkpt>
      <trkpt lat="45.93848" lon="-0.95599">
        <ele>5.4</ele>
        <time>2022-06-21T13:30:53Z</time>
      </trkpt>
      <trkpt lat="45.93848" lon="-0.95599">
        <ele>5.4</ele>
        <time>2022-06-21T13:30:54Z</time>
      </trkpt>
      <trkpt lat="45.93847" lon="-0.95599">
        <ele>5.4</ele>
        <time>2022-06-21T13:30:55Z</time>
      </trkpt>
      <trkpt lat="45.93846" lon="-0.95599">
        <ele>5.3</ele>
        <time>2022-06-21T13:30:56Z</time>
      </trkpt>
      <trkpt lat="45.93845" lon="-0.956">
        <ele>5.3</ele>
        <time>2022-06-21T13:30:57Z</time>
      </trkpt>
      <trkpt lat="45.93841" lon="-0.95601">
        <ele>5.3</ele>
        <time>2022-06-21T13:30:58Z</time>
      </trkpt>
      <trkpt lat="45.9384" lon="-0.95602">
        <ele>5.3</ele>
        <time>2022-06-21T13:30:59Z</time>
      </trkpt>
      <trkpt lat="45.93839" lon="-0.95602">
        <ele>5.3</ele>
        <time>2022-06-21T13:31:01Z</time>
      </trkpt>
      <trkpt lat="45.93838" lon="-0.95602">
        <ele>5.3</ele>
        <time>2022-06-21T13:31:02Z</time>
      </trkpt>
      <trkpt lat="45.93836" lon="-0.95602">
        <ele>5.3</ele>
        <time>2022-06-21T13:31:03Z</time>
      </trkpt>
      <trkpt lat="45.93836" lon="-0.95603">
        <ele>5.3</ele>
        <time>2022-06-21T13:31:04Z</time>
      </trkpt>
      <trkpt lat="45.93835" lon="-0.95603">
        <ele>5.3</ele>
        <time>2022-06-21T13:31:05Z</time>
      </trkpt>
      <trkpt lat="45.93834" lon="-0.95603">
        <ele>5.3</ele>
        <time>2022-06-21T13:31:06Z</time>
      </trkpt>
      <trkpt lat="45.93833" lon="-0.95603">
        <ele>5.3</ele>
        <time>2022-06-21T13:31:08Z</time>
      </trkpt>
      <trkpt lat="45.93833" lon="-0.95604">
        <ele>5.3</ele>
        <time>2022-06-21T13:31:09Z</time>
      </trkpt>
      <trkpt lat="45.93834" lon="-0.95604">
        <ele>5.3</ele>
        <time>2022-06-21T13:31:10Z</time>
      </trkpt>
      <trkpt lat="45.93833" lon="-0.95604">
        <ele>5.3</ele>
        <time>2022-06-21T13:31:11Z</time>
      </trkpt>
      <trkpt lat="45.93833" lon="-0.95604">
        <ele>5.2</ele>
        <time>2022-06-21T13:31:12Z</time>
      </trkpt>
      <trkpt lat="45.93832" lon="-0.95604">
        <ele>5.2</ele>
        <time>2022-06-21T13:31:13Z</time>
      </trkpt>
      <trkpt lat="45.93831" lon="-0.95604">
        <ele>5.2</ele>
        <time>2022-06-21T13:31:14Z</time>
      </trkpt>
      <trkpt lat="45.93831" lon="-0.95604">
        <ele>5.2</ele>
        <time>2022-06-21T13:31:15Z</time>
      </trkpt>
      <trkpt lat="45.93831" lon="-0.95605">
        <ele>5.2</ele>
        <time>2022-06-21T13:31:16Z</time>
      </trkpt>
      <trkpt lat="45.9383" lon="-0.95605">
        <ele>5.2</ele>
        <time>2022-06-21T13:31:17Z</time>
      </trkpt>
      <trkpt lat="45.9383" lon="-0.95605">
        <ele>5.2</ele>
        <time>2022-06-21T13:31:19Z</time>
      </trkpt>
      <trkpt lat="45.93828" lon="-0.95606">
        <ele>5.2</ele>
        <time>2022-06-21T13:31:20Z</time>
      </trkpt>
      <trkpt lat="45.93826" lon="-0.95607">
        <ele>5.2</ele>
        <time>2022-06-21T13:31:21Z</time>
      </trkpt>
      <trkpt lat="45.93825" lon="-0.95607">
        <ele>5.2</ele>
        <time>2022-06-21T13:31:23Z</time>
      </trkpt>
      <trkpt lat="45.93825" lon="-0.95607">
        <ele>5.2</ele>
        <time>2022-06-21T13:31:24Z</time>
      </trkpt>
      <trkpt lat="45.93824" lon="-0.95607">
        <ele>5.2</ele>
        <time>2022-06-21T13:31:25Z</time>
      </trkpt>
      <trkpt lat="45.93823" lon="-0.95607">
        <ele>5.2</ele>
        <time>2022-06-21T13:31:26Z</time>
      </trkpt>
      <trkpt lat="45.93821" lon="-0.95608">
        <ele>5.2</ele>
        <time>2022-06-21T13:31:27Z</time>
      </trkpt>
      <trkpt lat="45.9382" lon="-0.95608">
        <ele>5.2</ele>
        <time>2022-06-21T13:31:28Z</time>
      </trkpt>
      <trkpt lat="45.9382" lon="-0.95608">
        <ele>5.2</ele>
        <time>2022-06-21T13:31:29Z</time>
      </trkpt>
      <trkpt lat="45.93819" lon="-0.95609">
        <ele>5.2</ele>
        <time>2022-06-21T13:31:30Z</time>
      </trkpt>
      <trkpt lat="45.93818" lon="-0.95609">
        <ele>5.2</ele>
        <time>2022-06-21T13:31:31Z</time>
      </trkpt>
      <trkpt lat="45.93817" lon="-0.9561">
        <ele>5.2</ele>
        <time>2022-06-21T13:31:33Z</time>
      </trkpt>
      <trkpt lat="45.93814" lon="-0.9561">
        <ele>5.1</ele>
        <time>2022-06-21T13:31:35Z</time>
      </trkpt>
      <trkpt lat="45.93811" lon="-0.95611">
        <ele>5.1</ele>
        <time>2022-06-21T13:31:36Z</time>
      </trkpt>
      <trkpt lat="45.93808" lon="-0.95612">
        <ele>5.1</ele>
        <time>2022-06-21T13:31:37Z</time>
      </trkpt>
      <trkpt lat="45.93804" lon="-0.95613">
        <ele>5.1</ele>
        <time>2022-06-21T13:31:38Z</time>
      </trkpt>
      <trkpt lat="45.93801" lon="-0.95614">
        <ele>5.1</ele>
        <time>2022-06-21T13:31:39Z</time>
      </trkpt>
      <trkpt lat="45.938" lon="-0.95615">
        <ele>5.1</ele>
        <time>2022-06-21T13:31:40Z</time>
      </trkpt>
      <trkpt lat="45.93798" lon="-0.95615">
        <ele>5.1</ele>
        <time>2022-06-21T13:31:42Z</time>
      </trkpt>
      <trkpt lat="45.93797" lon="-0.95615">
        <ele>5.1</ele>
        <time>2022-06-21T13:31:43Z</time>
      </trkpt>
      <trkpt lat="45.93797" lon="-0.95616">
        <ele>5.1</ele>
        <time>2022-06-21T13:31:44Z</time>
      </trkpt>
      <trkpt lat="45.93796" lon="-0.95616">
        <ele>5.1</ele>
        <time>2022-06-21T13:31:45Z</time>
      </trkpt>
      <trkpt lat="45.93796" lon="-0.95616">
        <ele>5.1</ele>
        <time>2022-06-21T13:31:46Z</time>
      </trkpt>
      <trkpt lat="45.93795" lon="-0.95616">
        <ele>5.1</ele>
        <time>2022-06-21T13:31:47Z</time>
      </trkpt>
      <trkpt lat="45.93795" lon="-0.95616">
        <ele>5.1</ele>
        <time>2022-06-21T13:31:48Z</time>
      </trkpt>
      <trkpt lat="45.93794" lon="-0.95615">
        <ele>5.1</ele>
        <time>2022-06-21T13:31:49Z</time>
      </trkpt>
      <trkpt lat="45.93794" lon="-0.95615">
        <ele>5.1</ele>
        <time>2022-06-21T13:31:50Z</time>
      </trkpt>
      <trkpt lat="45.93794" lon="-0.95616">
        <ele>5.1</ele>
        <time>2022-06-21T13:31:52Z</time>
      </trkpt>
      <trkpt lat="45.93793" lon="-0.95616">
        <ele>5.1</ele>
        <time>2022-06-21T13:31:53Z</time>
      </trkpt>
      <trkpt lat="45.93792" lon="-0.95616">
        <ele>5.1</ele>
        <time>2022-06-21T13:31:54Z</time>
      </trkpt>
      <trkpt lat="45.93793" lon="-0.95616">
        <ele>5.1</ele>
        <time>2022-06-21T13:31:55Z</time>
      </trkpt>
      <trkpt lat="45.93793" lon="-0.95617">
        <ele>5.1</ele>
        <time>2022-06-21T13:31:56Z</time>
      </trkpt>
      <trkpt lat="45.93793" lon="-0.95617">
        <ele>5.1</ele>
        <time>2022-06-21T13:31:57Z</time>
      </trkpt>
      <trkpt lat="45.93793" lon="-0.95617">
        <ele>5.1</ele>
        <time>2022-06-21T13:31:58Z</time>
      </trkpt>
      <trkpt lat="45.93793" lon="-0.95617">
        <ele>5.1</ele>
        <time>2022-06-21T13:31:59Z</time>
      </trkpt>
      <trkpt lat="45.93793" lon="-0.95617">
        <ele>5.1</ele>
        <time>2022-06-21T13:32:00Z</time>
      </trkpt>
      <trkpt lat="45.93793" lon="-0.95617">
        <ele>5.1</ele>
        <time>2022-06-21T13:32:02Z</time>
      </trkpt>
      <trkpt lat="45.93792" lon="-0.95617">
        <ele>5.1</ele>
        <time>2022-06-21T13:32:03Z</time>
      </trkpt>
      <trkpt lat="45.93791" lon="-0.95617">
        <ele>5.1</ele>
        <time>2022-06-21T13:32:05Z</time>
      </trkpt>
      <trkpt lat="45.9379" lon="-0.95618">
        <ele>5.1</ele>
        <time>2022-06-21T13:32:06Z</time>
      </trkpt>
      <trkpt lat="45.93788" lon="-0.95618">
        <ele>5.2</ele>
        <time>2022-06-21T13:32:07Z</time>
      </trkpt>
      <trkpt lat="45.93787" lon="-0.95618">
        <ele>5.2</ele>
        <time>2022-06-21T13:32:08Z</time>
      </trkpt>
      <trkpt lat="45.93787" lon="-0.95619">
        <ele>5.2</ele>
        <time>2022-06-21T13:32:10Z</time>
      </trkpt>
      <trkpt lat="45.93786" lon="-0.9562">
        <ele>5.4</ele>
        <time>2022-06-21T13:32:11Z</time>
      </trkpt>
      <trkpt lat="45.93786" lon="-0.9562">
        <ele>5.5</ele>
        <time>2022-06-21T13:32:12Z</time>
      </trkpt>
      <trkpt lat="45.93785" lon="-0.95621">
        <ele>5.5</ele>
        <time>2022-06-21T13:32:13Z</time>
      </trkpt>
      <trkpt lat="45.93785" lon="-0.95621">
        <ele>5.5</ele>
        <time>2022-06-21T13:32:15Z</time>
      </trkpt>
      <trkpt lat="45.93785" lon="-0.95622">
        <ele>5.5</ele>
        <time>2022-06-21T13:32:16Z</time>
      </trkpt>
      <trkpt lat="45.93784" lon="-0.95622">
        <ele>5.6</ele>
        <time>2022-06-21T13:32:17Z</time>
      </trkpt>
      <trkpt lat="45.93783" lon="-0.95624">
        <ele>5.6</ele>
        <time>2022-06-21T13:32:18Z</time>
      </trkpt>
      <trkpt lat="45.93782" lon="-0.95625">
        <ele>5.8</ele>
        <time>2022-06-21T13:32:19Z</time>
      </trkpt>
      <trkpt lat="45.93781" lon="-0.95626">
        <ele>5.8</ele>
        <time>2022-06-21T13:32:20Z</time>
      </trkpt>
      <trkpt lat="45.93779" lon="-0.95629">
        <ele>6.1</ele>
        <time>2022-06-21T13:32:22Z</time>
      </trkpt>
      <trkpt lat="45.93778" lon="-0.95634">
        <ele>6.3</ele>
        <time>2022-06-21T13:32:23Z</time>
      </trkpt>
      <trkpt lat="45.93777" lon="-0.9564">
        <ele>6.5</ele>
        <time>2022-06-21T13:32:24Z</time>
      </trkpt>
      <trkpt lat="45.93777" lon="-0.95641">
        <ele>6.7</ele>
        <time>2022-06-21T13:32:25Z</time>
      </trkpt>
      <trkpt lat="45.93779" lon="-0.95642">
        <ele>6.8</ele>
        <time>2022-06-21T13:32:27Z</time>
      </trkpt>
      <trkpt lat="45.93779" lon="-0.95642">
        <ele>6.8</ele>
        <time>2022-06-21T13:32:28Z</time>
      </trkpt>
      <trkpt lat="45.9378" lon="-0.95643">
        <ele>6.9</ele>
        <time>2022-06-21T13:32:29Z</time>
      </trkpt>
      <trkpt lat="45.9378" lon="-0.95643">
        <ele>6.9</ele>
        <time>2022-06-21T13:32:30Z</time>
      </trkpt>
      <trkpt lat="45.9378" lon="-0.95641">
        <ele>6.7</ele>
        <time>2022-06-21T13:32:31Z</time>
      </trkpt>
      <trkpt lat="45.93779" lon="-0.95637">
        <ele>6.7</ele>
        <time>2022-06-21T13:32:33Z</time>
      </trkpt>
      <trkpt lat="45.93779" lon="-0.95637">
        <ele>6.6</ele>
        <time>2022-06-21T13:32:34Z</time>
      </trkpt>
      <trkpt lat="45.9378" lon="-0.95636">
        <ele>6.6</ele>
        <time>2022-06-21T13:32:35Z</time>
      </trkpt>
      <trkpt lat="45.9378" lon="-0.95636">
        <ele>6.6</ele>
        <time>2022-06-21T13:32:36Z</time>
      </trkpt>
      <trkpt lat="45.93779" lon="-0.95636">
        <ele>6.6</ele>
        <time>2022-06-21T13:32:38Z</time>
      </trkpt>
      <trkpt lat="45.93779" lon="-0.95636">
        <ele>6.7</ele>
        <time>2022-06-21T13:32:39Z</time>
      </trkpt>
      <trkpt lat="45.9378" lon="-0.95636">
        <ele>6.7</ele>
        <time>2022-06-21T13:32:40Z</time>
      </trkpt>
      <trkpt lat="45.9378" lon="-0.95636">
        <ele>6.7</ele>
        <time>2022-06-21T13:32:41Z</time>
      </trkpt>
      <trkpt lat="45.9378" lon="-0.95635">
        <ele>6.8</ele>
        <time>2022-06-21T13:32:42Z</time>
      </trkpt>
      <trkpt lat="45.9378" lon="-0.95633">
        <ele>6.8</ele>
        <time>2022-06-21T13:32:43Z</time>
      </trkpt>
      <trkpt lat="45.93781" lon="-0.9563">
        <ele>6.6</ele>
        <time>2022-06-21T13:32:44Z</time>
      </trkpt>
      <trkpt lat="45.93781" lon="-0.95628">
        <ele>6.6</ele>
        <time>2022-06-21T13:32:45Z</time>
      </trkpt>
      <trkpt lat="45.93783" lon="-0.95625">
        <ele>6.5</ele>
        <time>2022-06-21T13:32:46Z</time>
      </trkpt>
      <trkpt lat="45.93784" lon="-0.95623">
        <ele>6.3</ele>
        <time>2022-06-21T13:32:48Z</time>
      </trkpt>
      <trkpt lat="45.93785" lon="-0.95622">
        <ele>6.3</ele>
        <time>2022-06-21T13:32:49Z</time>
      </trkpt>
      <trkpt lat="45.93786" lon="-0.95621">
        <ele>6.3</ele>
        <time>2022-06-21T13:32:50Z</time>
      </trkpt>
      <trkpt lat="45.93787" lon="-0.95621">
        <ele>6.4</ele>
        <time>2022-06-21T13:32:51Z</time>
      </trkpt>
      <trkpt lat="45.93789" lon="-0.95621">
        <ele>6.4</ele>
        <time>2022-06-21T13:32:52Z</time>
      </trkpt>
      <trkpt lat="45.9379" lon="-0.95621">
        <ele>6.5</ele>
        <time>2022-06-21T13:32:53Z</time>
      </trkpt>
      <trkpt lat="45.93792" lon="-0.9562">
        <ele>6.5</ele>
        <time>2022-06-21T13:32:55Z</time>
      </trkpt>
      <trkpt lat="45.93794" lon="-0.9562">
        <ele>6.5</ele>
        <time>2022-06-21T13:32:57Z</time>
      </trkpt>
      <trkpt lat="45.93797" lon="-0.9562">
        <ele>6.6</ele>
        <time>2022-06-21T13:32:58Z</time>
      </trkpt>
      <trkpt lat="45.93798" lon="-0.9562">
        <ele>6.6</ele>
        <time>2022-06-21T13:32:59Z</time>
      </trkpt>
      <trkpt lat="45.93799" lon="-0.9562">
        <ele>6.4</ele>
        <time>2022-06-21T13:33:00Z</time>
      </trkpt>
      <trkpt lat="45.938" lon="-0.9562">
        <ele>6.5</ele>
        <time>2022-06-21T13:33:01Z</time>
      </trkpt>
      <trkpt lat="45.93801" lon="-0.9562">
        <ele>6.7</ele>
        <time>2022-06-21T13:33:02Z</time>
      </trkpt>
      <trkpt lat="45.93802" lon="-0.95621">
        <ele>6.7</ele>
        <time>2022-06-21T13:33:04Z</time>
      </trkpt>
      <trkpt lat="45.93803" lon="-0.95621">
        <ele>6.8</ele>
        <time>2022-06-21T13:33:05Z</time>
      </trkpt>
      <trkpt lat="45.93805" lon="-0.95621">
        <ele>6.8</ele>
        <time>2022-06-21T13:33:06Z</time>
      </trkpt>
      <trkpt lat="45.93805" lon="-0.95623">
        <ele>6.8</ele>
        <time>2022-06-21T13:33:07Z</time>
      </trkpt>
      <trkpt lat="45.93805" lon="-0.95627">
        <ele>7</ele>
        <time>2022-06-21T13:33:09Z</time>
      </trkpt>
      <trkpt lat="45.93806" lon="-0.95629">
        <ele>7.3</ele>
        <time>2022-06-21T13:33:10Z</time>
      </trkpt>
      <trkpt lat="45.93806" lon="-0.95631">
        <ele>7.3</ele>
        <time>2022-06-21T13:33:11Z</time>
      </trkpt>
      <trkpt lat="45.93806" lon="-0.95632">
        <ele>7.3</ele>
        <time>2022-06-21T13:33:12Z</time>
      </trkpt>
      <trkpt lat="45.93807" lon="-0.95635">
        <ele>7.5</ele>
        <time>2022-06-21T13:33:13Z</time>
      </trkpt>
      <trkpt lat="45.93807" lon="-0.95636">
        <ele>7.6</ele>
        <time>2022-06-21T13:33:14Z</time>
      </trkpt>
      <trkpt lat="45.93808" lon="-0.95637">
        <ele>7.8</ele>
        <time>2022-06-21T13:33:15Z</time>
      </trkpt>
      <trkpt lat="45.93808" lon="-0.95639">
        <ele>7.8</ele>
        <time>2022-06-21T13:33:16Z</time>
      </trkpt>
      <trkpt lat="45.93809" lon="-0.95641">
        <ele>7.9</ele>
        <time>2022-06-21T13:33:17Z</time>
      </trkpt>
      <trkpt lat="45.93809" lon="-0.95644">
        <ele>8.1</ele>
        <time>2022-06-21T13:33:19Z</time>
      </trkpt>
      <trkpt lat="45.93809" lon="-0.95645">
        <ele>8.1</ele>
        <time>2022-06-21T13:33:20Z</time>
      </trkpt>
      <trkpt lat="45.93809" lon="-0.95647">
        <ele>8.3</ele>
        <time>2022-06-21T13:33:21Z</time>
      </trkpt>
      <trkpt lat="45.93809" lon="-0.95649">
        <ele>8.3</ele>
        <time>2022-06-21T13:33:22Z</time>
      </trkpt>
      <trkpt lat="45.93809" lon="-0.95651">
        <ele>8.5</ele>
        <time>2022-06-21T13:33:23Z</time>
      </trkpt>
      <trkpt lat="45.93809" lon="-0.95654">
        <ele>8.6</ele>
        <time>2022-06-21T13:33:24Z</time>
      </trkpt>
      <trkpt lat="45.93809" lon="-0.95657">
        <ele>8.8</ele>
        <time>2022-06-21T13:33:26Z</time>
      </trkpt>
      <trkpt lat="45.93808" lon="-0.95658">
        <ele>8.8</ele>
        <time>2022-06-21T13:33:27Z</time>
      </trkpt>
      <trkpt lat="45.93808" lon="-0.9566">
        <ele>9</ele>
        <time>2022-06-21T13:33:29Z</time>
      </trkpt>
      <trkpt lat="45.93808" lon="-0.95661">
        <ele>9</ele>
        <time>2022-06-21T13:33:30Z</time>
      </trkpt>
      <trkpt lat="45.93808" lon="-0.95661">
        <ele>9</ele>
        <time>2022-06-21T13:33:31Z</time>
      </trkpt>
      <trkpt lat="45.93808" lon="-0.95663">
        <ele>9.2</ele>
        <time>2022-06-21T13:33:32Z</time>
      </trkpt>
      <trkpt lat="45.93808" lon="-0.95665">
        <ele>9.3</ele>
        <time>2022-06-21T13:33:33Z</time>
      </trkpt>
      <trkpt lat="45.93808" lon="-0.95666">
        <ele>9.3</ele>
        <time>2022-06-21T13:33:35Z</time>
      </trkpt>
      <trkpt lat="45.93807" lon="-0.95667">
        <ele>9.5</ele>
        <time>2022-06-21T13:33:36Z</time>
      </trkpt>
      <trkpt lat="45.93807" lon="-0.95668">
        <ele>9.5</ele>
        <time>2022-06-21T13:33:37Z</time>
      </trkpt>
      <trkpt lat="45.93807" lon="-0.9567">
        <ele>9.5</ele>
        <time>2022-06-21T13:33:38Z</time>
      </trkpt>
      <trkpt lat="45.93807" lon="-0.9567">
        <ele>9.6</ele>
        <time>2022-06-21T13:33:39Z</time>
      </trkpt>
      <trkpt lat="45.93806" lon="-0.9567">
        <ele>9.6</ele>
        <time>2022-06-21T13:33:41Z</time>
      </trkpt>
      <trkpt lat="45.93806" lon="-0.9567">
        <ele>9.6</ele>
        <time>2022-06-21T13:33:42Z</time>
      </trkpt>
      <trkpt lat="45.93806" lon="-0.9567">
        <ele>9.6</ele>
        <time>2022-06-21T13:33:44Z</time>
      </trkpt>
      <trkpt lat="45.93807" lon="-0.95668">
        <ele>9.7</ele>
        <time>2022-06-21T13:33:45Z</time>
      </trkpt>
      <trkpt lat="45.93807" lon="-0.95667">
        <ele>9.7</ele>
        <time>2022-06-21T13:33:46Z</time>
      </trkpt>
      <trkpt lat="45.93807" lon="-0.95667">
        <ele>9.7</ele>
        <time>2022-06-21T13:33:47Z</time>
      </trkpt>
      <trkpt lat="45.93807" lon="-0.95667">
        <ele>9.8</ele>
        <time>2022-06-21T13:33:48Z</time>
      </trkpt>
      <trkpt lat="45.93807" lon="-0.95667">
        <ele>9.8</ele>
        <time>2022-06-21T13:33:49Z</time>
      </trkpt>
      <trkpt lat="45.93807" lon="-0.95667">
        <ele>9.8</ele>
        <time>2022-06-21T13:33:50Z</time>
      </trkpt>
      <trkpt lat="45.93807" lon="-0.95667">
        <ele>9.7</ele>
        <time>2022-06-21T13:33:51Z</time>
      </trkpt>
      <trkpt lat="45.93807" lon="-0.95666">
        <ele>9.7</ele>
        <time>2022-06-21T13:33:52Z</time>
      </trkpt>
      <trkpt lat="45.93807" lon="-0.95666">
        <ele>9.7</ele>
        <time>2022-06-21T13:33:53Z</time>
      </trkpt>
      <trkpt lat="45.93807" lon="-0.95665">
        <ele>9.8</ele>
        <time>2022-06-21T13:33:54Z</time>
      </trkpt>
      <trkpt lat="45.93807" lon="-0.95665">
        <ele>9.8</ele>
        <time>2022-06-21T13:33:55Z</time>
      </trkpt>
      <trkpt lat="45.93806" lon="-0.95664">
        <ele>9.8</ele>
        <time>2022-06-21T13:33:56Z</time>
      </trkpt>
      <trkpt lat="45.93806" lon="-0.95664">
        <ele>9.8</ele>
        <time>2022-06-21T13:33:57Z</time>
      </trkpt>
      <trkpt lat="45.93806" lon="-0.95664">
        <ele>9.9</ele>
        <time>2022-06-21T13:33:58Z</time>
      </trkpt>
      <trkpt lat="45.93806" lon="-0.95664">
        <ele>9.9</ele>
        <time>2022-06-21T13:33:59Z</time>
      </trkpt>
      <trkpt lat="45.93806" lon="-0.95664">
        <ele>9.9</ele>
        <time>2022-06-21T13:34:00Z</time>
      </trkpt>
      <trkpt lat="45.93807" lon="-0.95664">
        <ele>9.9</ele>
        <time>2022-06-21T13:34:01Z</time>
      </trkpt>
      <trkpt lat="45.93807" lon="-0.95664">
        <ele>10</ele>
        <time>2022-06-21T13:34:02Z</time>
      </trkpt>
      <trkpt lat="45.93807" lon="-0.95664">
        <ele>10</ele>
        <time>2022-06-21T13:34:03Z</time>
      </trkpt>
      <trkpt lat="45.93807" lon="-0.95664">
        <ele>10</ele>
        <time>2022-06-21T13:34:04Z</time>
      </trkpt>
      <trkpt lat="45.93807" lon="-0.95664">
        <ele>10.1</ele>
        <time>2022-06-21T13:34:05Z</time>
      </trkpt>
      <trkpt lat="45.93807" lon="-0.95664">
        <ele>10.1</ele>
        <time>2022-06-21T13:34:06Z</time>
      </trkpt>
      <trkpt lat="45.93807" lon="-0.95664">
        <ele>10.1</ele>
        <time>2022-06-21T13:34:08Z</time>
      </trkpt>
      <trkpt lat="45.93807" lon="-0.95664">
        <ele>10.1</ele>
        <time>2022-06-21T13:34:09Z</time>
      </trkpt>
      <trkpt lat="45.93806" lon="-0.95664">
        <ele>10.2</ele>
        <time>2022-06-21T13:34:10Z</time>
      </trkpt>
      <trkpt lat="45.93806" lon="-0.95663">
        <ele>10.2</ele>
        <time>2022-06-21T13:34:12Z</time>
      </trkpt>
      <trkpt lat="45.93806" lon="-0.95663">
        <ele>10.2</ele>
        <time>2022-06-21T13:34:13Z</time>
      </trkpt>
      <trkpt lat="45.93806" lon="-0.95663">
        <ele>10.3</ele>
        <time>2022-06-21T13:34:14Z</time>
      </trkpt>
      <trkpt lat="45.93806" lon="-0.95664">
        <ele>10.3</ele>
        <time>2022-06-21T13:34:15Z</time>
      </trkpt>
      <trkpt lat="45.93806" lon="-0.95664">
        <ele>10.3</ele>
        <time>2022-06-21T13:34:16Z</time>
      </trkpt>
      <trkpt lat="45.93806" lon="-0.95665">
        <ele>10.3</ele>
        <time>2022-06-21T13:34:17Z</time>
      </trkpt>
      <trkpt lat="45.93807" lon="-0.95665">
        <ele>10.4</ele>
        <time>2022-06-21T13:34:18Z</time>
      </trkpt>
      <trkpt lat="45.93807" lon="-0.95666">
        <ele>10.4</ele>
        <time>2022-06-21T13:34:19Z</time>
      </trkpt>
      <trkpt lat="45.93807" lon="-0.95667">
        <ele>10.6</ele>
        <time>2022-06-21T13:34:20Z</time>
      </trkpt>
      <trkpt lat="45.93808" lon="-0.95669">
        <ele>10.6</ele>
        <time>2022-06-21T13:34:21Z</time>
      </trkpt>
      <trkpt lat="45.93807" lon="-0.95669">
        <ele>10.6</ele>
        <time>2022-06-21T13:34:22Z</time>
      </trkpt>
      <trkpt lat="45.93807" lon="-0.95669">
        <ele>10.7</ele>
        <time>2022-06-21T13:34:23Z</time>
      </trkpt>
      <trkpt lat="45.93806" lon="-0.95668">
        <ele>10.7</ele>
        <time>2022-06-21T13:34:24Z</time>
      </trkpt>
      <trkpt lat="45.93806" lon="-0.95668">
        <ele>10.7</ele>
        <time>2022-06-21T13:34:25Z</time>
      </trkpt>
      <trkpt lat="45.93805" lon="-0.95667">
        <ele>10.8</ele>
        <time>2022-06-21T13:34:26Z</time>
      </trkpt>
      <trkpt lat="45.93805" lon="-0.95667">
        <ele>10.8</ele>
        <time>2022-06-21T13:34:27Z</time>
      </trkpt>
      <trkpt lat="45.93806" lon="-0.95665">
        <ele>10.6</ele>
        <time>2022-06-21T13:34:28Z</time>
      </trkpt>
      <trkpt lat="45.93806" lon="-0.95664">
        <ele>10.7</ele>
        <time>2022-06-21T13:34:29Z</time>
      </trkpt>
      <trkpt lat="45.93807" lon="-0.95664">
        <ele>10.7</ele>
        <time>2022-06-21T13:34:30Z</time>
      </trkpt>
      <trkpt lat="45.93807" lon="-0.95663">
        <ele>10.7</ele>
        <time>2022-06-21T13:34:32Z</time>
      </trkpt>
      <trkpt lat="45.93807" lon="-0.95663">
        <ele>10.8</ele>
        <time>2022-06-21T13:34:33Z</time>
      </trkpt>
      <trkpt lat="45.93807" lon="-0.95663">
        <ele>10.8</ele>
        <time>2022-06-21T13:34:34Z</time>
      </trkpt>
      <trkpt lat="45.93807" lon="-0.95663">
        <ele>10.8</ele>
        <time>2022-06-21T13:34:35Z</time>
      </trkpt>
      <trkpt lat="45.93807" lon="-0.95663">
        <ele>10.8</ele>
        <time>2022-06-21T13:34:36Z</time>
      </trkpt>
      <trkpt lat="45.93807" lon="-0.95663">
        <ele>10.7</ele>
        <time>2022-06-21T13:34:37Z</time>
      </trkpt>
      <trkpt lat="45.93806" lon="-0.95662">
        <ele>10.7</ele>
        <time>2022-06-21T13:34:38Z</time>
      </trkpt>
      <trkpt lat="45.93802" lon="-0.95632">
        <ele>9.5</ele>
        <time>2022-06-21T13:37:28Z</time>
      </trkpt>
      <trkpt lat="45.93802" lon="-0.95631">
        <ele>9.5</ele>
        <time>2022-06-21T13:37:29Z</time>
      </trkpt>
      <trkpt lat="45.93802" lon="-0.95631">
        <ele>9.5</ele>
        <time>2022-06-21T13:37:30Z</time>
      </trkpt>
      <trkpt lat="45.93802" lon="-0.95631">
        <ele>9.6</ele>
        <time>2022-06-21T13:37:31Z</time>
      </trkpt>
      <trkpt lat="45.93803" lon="-0.95631">
        <ele>9.6</ele>
        <time>2022-06-21T13:37:32Z</time>
      </trkpt>
      <trkpt lat="45.93804" lon="-0.9563">
        <ele>9.6</ele>
        <time>2022-06-21T13:37:33Z</time>
      </trkpt>
      <trkpt lat="45.93804" lon="-0.9563">
        <ele>9.6</ele>
        <time>2022-06-21T13:37:34Z</time>
      </trkpt>
      <trkpt lat="45.93836" lon="-0.95605">
        <ele>9</ele>
        <time>2022-06-21T13:37:35Z</time>
      </trkpt>
      <trkpt lat="45.93835" lon="-0.95604">
        <ele>9</ele>
        <time>2022-06-21T13:37:36Z</time>
      </trkpt>
      <trkpt lat="45.93834" lon="-0.95601">
        <ele>8.9</ele>
        <time>2022-06-21T13:37:37Z</time>
      </trkpt>
      <trkpt lat="45.9382" lon="-0.95631">
        <ele>10</ele>
        <time>2022-06-21T13:37:38Z</time>
      </trkpt>
      <trkpt lat="45.93826" lon="-0.95604">
        <ele>9</ele>
        <time>2022-06-21T13:37:42Z</time>
      </trkpt>
      <trkpt lat="45.93828" lon="-0.956">
        <ele>8.8</ele>
        <time>2022-06-21T13:37:46Z</time>
      </trkpt>
      <trkpt lat="45.9383" lon="-0.9558">
        <ele>7.9</ele>
        <time>2022-06-21T13:37:50Z</time>
      </trkpt>
      <trkpt lat="45.93823" lon="-0.95638">
        <ele>10.5</ele>
        <time>2022-06-21T13:39:52Z</time>
      </trkpt>
      <trkpt lat="45.93823" lon="-0.95638">
        <ele>10.5</ele>
        <time>2022-06-21T13:40:07Z</time>
      </trkpt>
      <trkpt lat="45.93823" lon="-0.95638">
        <ele>10.5</ele>
        <time>2022-06-21T13:40:12Z</time>
      </trkpt>
      <trkpt lat="45.93823" lon="-0.95638">
        <ele>10.6</ele>
        <time>2022-06-21T13:41:19Z</time>
      </trkpt>
      <trkpt lat="45.93887" lon="-0.95616">
        <ele>10.3</ele>
        <time>2022-06-21T13:41:34Z</time>
      </trkpt>
      <trkpt lat="45.93887" lon="-0.95616">
        <ele>10.3</ele>
        <time>2022-06-21T13:41:45Z</time>
      </trkpt>
      <trkpt lat="45.93865" lon="-0.95624">
        <ele>10.4</ele>
        <time>2022-06-21T13:41:50Z</time>
      </trkpt>
      <trkpt lat="45.93866" lon="-0.95572">
        <ele>8.1</ele>
        <time>2022-06-21T13:42:07Z</time>
      </trkpt>
      <trkpt lat="45.93822" lon="-0.95665">
        <ele>11.7</ele>
        <time>2022-06-21T13:42:10Z</time>
      </trkpt>
      <trkpt lat="45.93822" lon="-0.95667">
        <ele>11.7</ele>
        <time>2022-06-21T13:42:11Z</time>
      </trkpt>
      <trkpt lat="45.93821" lon="-0.95662">
        <ele>11.5</ele>
        <time>2022-06-21T13:42:12Z</time>
      </trkpt>
      <trkpt lat="45.93816" lon="-0.95643">
        <ele>10.8</ele>
        <time>2022-06-21T13:42:14Z</time>
      </trkpt>
      <trkpt lat="45.93816" lon="-0.95643">
        <ele>10.8</ele>
        <time>2022-06-21T13:42:15Z</time>
      </trkpt>
      <trkpt lat="45.93816" lon="-0.95643">
        <ele>10.8</ele>
        <time>2022-06-21T13:42:16Z</time>
      </trkpt>
      <trkpt lat="45.93816" lon="-0.95643">
        <ele>10.8</ele>
        <time>2022-06-21T13:42:17Z</time>
      </trkpt>
      <trkpt lat="45.93816" lon="-0.95643">
        <ele>10.8</ele>
        <time>2022-06-21T13:42:18Z</time>
      </trkpt>
      <trkpt lat="45.93816" lon="-0.95643">
        <ele>10.8</ele>
        <time>2022-06-21T13:42:19Z</time>
      </trkpt>
      <trkpt lat="45.93816" lon="-0.95643">
        <ele>10.8</ele>
        <time>2022-06-21T13:42:20Z</time>
      </trkpt>
      <trkpt lat="45.93816" lon="-0.95643">
        <ele>10.8</ele>
        <time>2022-06-21T13:42:21Z</time>
      </trkpt>
      <trkpt lat="45.93816" lon="-0.95643">
        <ele>10.8</ele>
        <time>2022-06-21T13:42:22Z</time>
      </trkpt>
      <trkpt lat="45.93816" lon="-0.95643">
        <ele>10.8</ele>
        <time>2022-06-21T13:42:23Z</time>
      </trkpt>
      <trkpt lat="45.93816" lon="-0.95643">
        <ele>10.8</ele>
        <time>2022-06-21T13:42:24Z</time>
      </trkpt>
      <trkpt lat="45.93816" lon="-0.95643">
        <ele>10.8</ele>
        <time>2022-06-21T13:42:25Z</time>
      </trkpt>
      <trkpt lat="45.93817" lon="-0.95645">
        <ele>10.8</ele>
        <time>2022-06-21T13:42:26Z</time>
      </trkpt>
      <trkpt lat="45.93819" lon="-0.95646">
        <ele>10.8</ele>
        <time>2022-06-21T13:42:27Z</time>
      </trkpt>
      <trkpt lat="45.93817" lon="-0.95648">
        <ele>10.7</ele>
        <time>2022-06-21T13:42:28Z</time>
      </trkpt>
      <trkpt lat="45.93816" lon="-0.95649">
        <ele>10.7</ele>
        <time>2022-06-21T13:42:29Z</time>
      </trkpt>
      <trkpt lat="45.93816" lon="-0.9565">
        <ele>10.7</ele>
        <time>2022-06-21T13:42:30Z</time>
      </trkpt>
      <trkpt lat="45.93815" lon="-0.9565">
        <ele>10.7</ele>
        <time>2022-06-21T13:42:31Z</time>
      </trkpt>
      <trkpt lat="45.93815" lon="-0.95651">
        <ele>10.6</ele>
        <time>2022-06-21T13:42:32Z</time>
      </trkpt>
      <trkpt lat="45.93814" lon="-0.95651">
        <ele>10.6</ele>
        <time>2022-06-21T13:42:33Z</time>
      </trkpt>
      <trkpt lat="45.93814" lon="-0.95652">
        <ele>10.6</ele>
        <time>2022-06-21T13:42:34Z</time>
      </trkpt>
      <trkpt lat="45.93814" lon="-0.95652">
        <ele>10.6</ele>
        <time>2022-06-21T13:42:35Z</time>
      </trkpt>
      <trkpt lat="45.93813" lon="-0.95652">
        <ele>10.6</ele>
        <time>2022-06-21T13:42:36Z</time>
      </trkpt>
      <trkpt lat="45.93813" lon="-0.95653">
        <ele>10.6</ele>
        <time>2022-06-21T13:42:37Z</time>
      </trkpt>
      <trkpt lat="45.93813" lon="-0.95653">
        <ele>10.6</ele>
        <time>2022-06-21T13:42:38Z</time>
      </trkpt>
      <trkpt lat="45.93813" lon="-0.95653">
        <ele>10.6</ele>
        <time>2022-06-21T13:42:39Z</time>
      </trkpt>
      <trkpt lat="45.93813" lon="-0.95653">
        <ele>10.6</ele>
        <time>2022-06-21T13:42:40Z</time>
      </trkpt>
      <trkpt lat="45.93813" lon="-0.95654">
        <ele>10.6</ele>
        <time>2022-06-21T13:42:41Z</time>
      </trkpt>
      <trkpt lat="45.93813" lon="-0.95654">
        <ele>10.6</ele>
        <time>2022-06-21T13:42:42Z</time>
      </trkpt>
      <trkpt lat="45.93813" lon="-0.95654">
        <ele>10.6</ele>
        <time>2022-06-21T13:42:43Z</time>
      </trkpt>
      <trkpt lat="45.93814" lon="-0.95655">
        <ele>10.6</ele>
        <time>2022-06-21T13:42:44Z</time>
      </trkpt>
      <trkpt lat="45.93814" lon="-0.95655">
        <ele>10.5</ele>
        <time>2022-06-21T13:42:45Z</time>
      </trkpt>
      <trkpt lat="45.93815" lon="-0.95655">
        <ele>10.5</ele>
        <time>2022-06-21T13:42:46Z</time>
      </trkpt>
      <trkpt lat="45.93816" lon="-0.95655">
        <ele>10.5</ele>
        <time>2022-06-21T13:42:47Z</time>
      </trkpt>
      <trkpt lat="45.93818" lon="-0.95656">
        <ele>10.5</ele>
        <time>2022-06-21T13:42:48Z</time>
      </trkpt>
      <trkpt lat="45.93818" lon="-0.95656">
        <ele>10.5</ele>
        <time>2022-06-21T13:42:49Z</time>
      </trkpt>
      <trkpt lat="45.93818" lon="-0.95657">
        <ele>10.5</ele>
        <time>2022-06-21T13:42:50Z</time>
      </trkpt>
      <trkpt lat="45.93818" lon="-0.95657">
        <ele>10.4</ele>
        <time>2022-06-21T13:42:51Z</time>
      </trkpt>
      <trkpt lat="45.93819" lon="-0.95658">
        <ele>10.4</ele>
        <time>2022-06-21T13:42:52Z</time>
      </trkpt>
      <trkpt lat="45.93819" lon="-0.95659">
        <ele>10.4</ele>
        <time>2022-06-21T13:42:53Z</time>
      </trkpt>
      <trkpt lat="45.93819" lon="-0.95658">
        <ele>10.4</ele>
        <time>2022-06-21T13:42:54Z</time>
      </trkpt>
      <trkpt lat="45.93819" lon="-0.95658">
        <ele>10.4</ele>
        <time>2022-06-21T13:42:55Z</time>
      </trkpt>
      <trkpt lat="45.93819" lon="-0.95658">
        <ele>10.4</ele>
        <time>2022-06-21T13:42:56Z</time>
      </trkpt>
      <trkpt lat="45.9382" lon="-0.95658">
        <ele>10.4</ele>
        <time>2022-06-21T13:42:57Z</time>
      </trkpt>
      <trkpt lat="45.9382" lon="-0.95659">
        <ele>10.4</ele>
        <time>2022-06-21T13:42:58Z</time>
      </trkpt>
      <trkpt lat="45.93821" lon="-0.95659">
        <ele>10.4</ele>
        <time>2022-06-21T13:42:59Z</time>
      </trkpt>
      <trkpt lat="45.93821" lon="-0.95659">
        <ele>10.4</ele>
        <time>2022-06-21T13:43:00Z</time>
      </trkpt>
      <trkpt lat="45.93821" lon="-0.9566">
        <ele>10.3</ele>
        <time>2022-06-21T13:43:01Z</time>
      </trkpt>
      <trkpt lat="45.93822" lon="-0.9566">
        <ele>10.3</ele>
        <time>2022-06-21T13:43:02Z</time>
      </trkpt>
      <trkpt lat="45.93822" lon="-0.9566">
        <ele>10.3</ele>
        <time>2022-06-21T13:43:03Z</time>
      </trkpt>
      <trkpt lat="45.93822" lon="-0.9566">
        <ele>10.3</ele>
        <time>2022-06-21T13:43:04Z</time>
      </trkpt>
      <trkpt lat="45.93823" lon="-0.95661">
        <ele>10.3</ele>
        <time>2022-06-21T13:43:05Z</time>
      </trkpt>
      <trkpt lat="45.93823" lon="-0.95659">
        <ele>10.3</ele>
        <time>2022-06-21T13:43:06Z</time>
      </trkpt>
      <trkpt lat="45.93822" lon="-0.95658">
        <ele>10.2</ele>
        <time>2022-06-21T13:43:07Z</time>
      </trkpt>
      <trkpt lat="45.93823" lon="-0.95659">
        <ele>10.2</ele>
        <time>2022-06-21T13:43:08Z</time>
      </trkpt>
      <trkpt lat="45.93823" lon="-0.9566">
        <ele>10.2</ele>
        <time>2022-06-21T13:43:09Z</time>
      </trkpt>
      <trkpt lat="45.93824" lon="-0.95661">
        <ele>10.2</ele>
        <time>2022-06-21T13:43:10Z</time>
      </trkpt>
      <trkpt lat="45.93824" lon="-0.95661">
        <ele>10.2</ele>
        <time>2022-06-21T13:43:11Z</time>
      </trkpt>
      <trkpt lat="45.93824" lon="-0.95661">
        <ele>10.2</ele>
        <time>2022-06-21T13:43:12Z</time>
      </trkpt>
      <trkpt lat="45.93824" lon="-0.9566">
        <ele>10.2</ele>
        <time>2022-06-21T13:43:13Z</time>
      </trkpt>
      <trkpt lat="45.93824" lon="-0.95661">
        <ele>10.2</ele>
        <time>2022-06-21T13:43:14Z</time>
      </trkpt>
      <trkpt lat="45.93825" lon="-0.9566">
        <ele>10.2</ele>
        <time>2022-06-21T13:43:15Z</time>
      </trkpt>
      <trkpt lat="45.93825" lon="-0.9566">
        <ele>10.2</ele>
        <time>2022-06-21T13:43:16Z</time>
      </trkpt>
      <trkpt lat="45.93825" lon="-0.95661">
        <ele>10.2</ele>
        <time>2022-06-21T13:43:17Z</time>
      </trkpt>
      <trkpt lat="45.93825" lon="-0.95661">
        <ele>10.2</ele>
        <time>2022-06-21T13:43:18Z</time>
      </trkpt>
      <trkpt lat="45.93825" lon="-0.95661">
        <ele>10.2</ele>
        <time>2022-06-21T13:43:19Z</time>
      </trkpt>
      <trkpt lat="45.93826" lon="-0.95663">
        <ele>10.1</ele>
        <time>2022-06-21T13:43:20Z</time>
      </trkpt>
      <trkpt lat="45.93826" lon="-0.95664">
        <ele>10.1</ele>
        <time>2022-06-21T13:43:21Z</time>
      </trkpt>
      <trkpt lat="45.93826" lon="-0.95665">
        <ele>10.1</ele>
        <time>2022-06-21T13:43:22Z</time>
      </trkpt>
      <trkpt lat="45.93826" lon="-0.95666">
        <ele>10.1</ele>
        <time>2022-06-21T13:43:23Z</time>
      </trkpt>
      <trkpt lat="45.93826" lon="-0.95669">
        <ele>11.2</ele>
        <time>2022-06-21T13:43:24Z</time>
      </trkpt>
      <trkpt lat="45.93827" lon="-0.9567">
        <ele>11.2</ele>
        <time>2022-06-21T13:43:25Z</time>
      </trkpt>
      <trkpt lat="45.93827" lon="-0.9567">
        <ele>11.2</ele>
        <time>2022-06-21T13:43:26Z</time>
      </trkpt>
      <trkpt lat="45.93827" lon="-0.95671">
        <ele>11.3</ele>
        <time>2022-06-21T13:43:27Z</time>
      </trkpt>
      <trkpt lat="45.93826" lon="-0.95673">
        <ele>11.3</ele>
        <time>2022-06-21T13:43:28Z</time>
      </trkpt>
      <trkpt lat="45.93826" lon="-0.95673">
        <ele>11.3</ele>
        <time>2022-06-21T13:43:29Z</time>
      </trkpt>
      <trkpt lat="45.93826" lon="-0.95674">
        <ele>11.4</ele>
        <time>2022-06-21T13:43:30Z</time>
      </trkpt>
      <trkpt lat="45.93826" lon="-0.95675">
        <ele>11.4</ele>
        <time>2022-06-21T13:43:31Z</time>
      </trkpt>
      <trkpt lat="45.93825" lon="-0.95677">
        <ele>11.5</ele>
        <time>2022-06-21T13:43:32Z</time>
      </trkpt>
      <trkpt lat="45.93825" lon="-0.95679">
        <ele>11.6</ele>
        <time>2022-06-21T13:43:33Z</time>
      </trkpt>
      <trkpt lat="45.93824" lon="-0.9568">
        <ele>11.6</ele>
        <time>2022-06-21T13:43:34Z</time>
      </trkpt>
      <trkpt lat="45.93824" lon="-0.95681">
        <ele>11.7</ele>
        <time>2022-06-21T13:43:35Z</time>
      </trkpt>
      <trkpt lat="45.93824" lon="-0.95682">
        <ele>11.7</ele>
        <time>2022-06-21T13:43:36Z</time>
      </trkpt>
      <trkpt lat="45.93823" lon="-0.95683">
        <ele>11.7</ele>
        <time>2022-06-21T13:43:37Z</time>
      </trkpt>
      <trkpt lat="45.93823" lon="-0.95683">
        <ele>11.8</ele>
        <time>2022-06-21T13:43:38Z</time>
      </trkpt>
      <trkpt lat="45.93823" lon="-0.95685">
        <ele>11.8</ele>
        <time>2022-06-21T13:43:39Z</time>
      </trkpt>
      <trkpt lat="45.93823" lon="-0.95685">
        <ele>11.8</ele>
        <time>2022-06-21T13:43:40Z</time>
      </trkpt>
      <trkpt lat="45.93824" lon="-0.95685">
        <ele>11.8</ele>
        <time>2022-06-21T13:43:41Z</time>
      </trkpt>
      <trkpt lat="45.93824" lon="-0.95685">
        <ele>11.9</ele>
        <time>2022-06-21T13:43:42Z</time>
      </trkpt>
      <trkpt lat="45.93824" lon="-0.95685">
        <ele>11.9</ele>
        <time>2022-06-21T13:43:43Z</time>
      </trkpt>
      <trkpt lat="45.93825" lon="-0.95685">
        <ele>11.9</ele>
        <time>2022-06-21T13:43:44Z</time>
      </trkpt>
      <trkpt lat="45.93825" lon="-0.95686">
        <ele>11.9</ele>
        <time>2022-06-21T13:43:45Z</time>
      </trkpt>
      <trkpt lat="45.93825" lon="-0.95686">
        <ele>11.9</ele>
        <time>2022-06-21T13:43:46Z</time>
      </trkpt>
      <trkpt lat="45.93825" lon="-0.95686">
        <ele>11.9</ele>
        <time>2022-06-21T13:43:47Z</time>
      </trkpt>
      <trkpt lat="45.93824" lon="-0.95687">
        <ele>11.9</ele>
        <time>2022-06-21T13:43:48Z</time>
      </trkpt>
      <trkpt lat="45.93824" lon="-0.95687">
        <ele>12</ele>
        <time>2022-06-21T13:43:49Z</time>
      </trkpt>
      <trkpt lat="45.93824" lon="-0.95687">
        <ele>12</ele>
        <time>2022-06-21T13:43:50Z</time>
      </trkpt>
      <trkpt lat="45.93824" lon="-0.95688">
        <ele>12</ele>
        <time>2022-06-21T13:43:51Z</time>
      </trkpt>
      <trkpt lat="45.93824" lon="-0.95688">
        <ele>12</ele>
        <time>2022-06-21T13:43:52Z</time>
      </trkpt>
      <trkpt lat="45.93824" lon="-0.95689">
        <ele>12</ele>
        <time>2022-06-21T13:43:53Z</time>
      </trkpt>
      <trkpt lat="45.93824" lon="-0.95689">
        <ele>12</ele>
        <time>2022-06-21T13:43:54Z</time>
      </trkpt>
      <trkpt lat="45.93824" lon="-0.95689">
        <ele>12.1</ele>
        <time>2022-06-21T13:43:56Z</time>
      </trkpt>
      <trkpt lat="45.93824" lon="-0.9569">
        <ele>12.1</ele>
        <time>2022-06-21T13:43:57Z</time>
      </trkpt>
      <trkpt lat="45.93824" lon="-0.9569">
        <ele>12.1</ele>
        <time>2022-06-21T13:43:58Z</time>
      </trkpt>
      <trkpt lat="45.93824" lon="-0.95691">
        <ele>12.1</ele>
        <time>2022-06-21T13:43:59Z</time>
      </trkpt>
      <trkpt lat="45.93824" lon="-0.95691">
        <ele>12.1</ele>
        <time>2022-06-21T13:44:00Z</time>
      </trkpt>
      <trkpt lat="45.93824" lon="-0.95691">
        <ele>12.1</ele>
        <time>2022-06-21T13:44:02Z</time>
      </trkpt>
      <trkpt lat="45.93824" lon="-0.95692">
        <ele>12.1</ele>
        <time>2022-06-21T13:44:03Z</time>
      </trkpt>
      <trkpt lat="45.93824" lon="-0.95692">
        <ele>12.2</ele>
        <time>2022-06-21T13:44:04Z</time>
      </trkpt>
      <trkpt lat="45.93824" lon="-0.95693">
        <ele>12.2</ele>
        <time>2022-06-21T13:44:05Z</time>
      </trkpt>
      <trkpt lat="45.93823" lon="-0.95693">
        <ele>12.2</ele>
        <time>2022-06-21T13:44:06Z</time>
      </trkpt>
      <trkpt lat="45.93823" lon="-0.95693">
        <ele>12.2</ele>
        <time>2022-06-21T13:44:07Z</time>
      </trkpt>
      <trkpt lat="45.93823" lon="-0.95694">
        <ele>12.2</ele>
        <time>2022-06-21T13:44:08Z</time>
      </trkpt>
      <trkpt lat="45.93823" lon="-0.95694">
        <ele>12.2</ele>
        <time>2022-06-21T13:44:10Z</time>
      </trkpt>
      <trkpt lat="45.93823" lon="-0.95695">
        <ele>12.2</ele>
        <time>2022-06-21T13:44:11Z</time>
      </trkpt>
      <trkpt lat="45.93823" lon="-0.95695">
        <ele>12.2</ele>
        <time>2022-06-21T13:44:12Z</time>
      </trkpt>
      <trkpt lat="45.93823" lon="-0.95695">
        <ele>12.2</ele>
        <time>2022-06-21T13:44:13Z</time>
      </trkpt>
      <trkpt lat="45.93825" lon="-0.95699">
        <ele>12.3</ele>
        <time>2022-06-21T13:44:15Z</time>
      </trkpt>
      <trkpt lat="45.93825" lon="-0.957">
        <ele>12.4</ele>
        <time>2022-06-21T13:44:16Z</time>
      </trkpt>
      <trkpt lat="45.93825" lon="-0.95703">
        <ele>12.4</ele>
        <time>2022-06-21T13:44:17Z</time>
      </trkpt>
      <trkpt lat="45.93825" lon="-0.95705">
        <ele>12.4</ele>
        <time>2022-06-21T13:44:18Z</time>
      </trkpt>
      <trkpt lat="45.93825" lon="-0.95708">
        <ele>12.5</ele>
        <time>2022-06-21T13:44:19Z</time>
      </trkpt>
      <trkpt lat="45.93825" lon="-0.95709">
        <ele>12.5</ele>
        <time>2022-06-21T13:44:21Z</time>
      </trkpt>
      <trkpt lat="45.93825" lon="-0.9571">
        <ele>12.5</ele>
        <time>2022-06-21T13:44:22Z</time>
      </trkpt>
      <trkpt lat="45.93825" lon="-0.95712">
        <ele>12.5</ele>
        <time>2022-06-21T13:44:23Z</time>
      </trkpt>
      <trkpt lat="45.93825" lon="-0.95713">
        <ele>12.5</ele>
        <time>2022-06-21T13:44:24Z</time>
      </trkpt>
      <trkpt lat="45.93825" lon="-0.95715">
        <ele>12.5</ele>
        <time>2022-06-21T13:44:25Z</time>
      </trkpt>
      <trkpt lat="45.93825" lon="-0.95716">
        <ele>12.5</ele>
        <time>2022-06-21T13:44:27Z</time>
      </trkpt>
      <trkpt lat="45.93825" lon="-0.95715">
        <ele>12.6</ele>
        <time>2022-06-21T13:44:28Z</time>
      </trkpt>
      <trkpt lat="45.93825" lon="-0.95716">
        <ele>12.6</ele>
        <time>2022-06-21T13:44:29Z</time>
      </trkpt>
      <trkpt lat="45.93825" lon="-0.95719">
        <ele>12.6</ele>
        <time>2022-06-21T13:44:30Z</time>
      </trkpt>
      <trkpt lat="45.93825" lon="-0.95721">
        <ele>12.6</ele>
        <time>2022-06-21T13:44:31Z</time>
      </trkpt>
      <trkpt lat="45.93826" lon="-0.95724">
        <ele>12.6</ele>
        <time>2022-06-21T13:44:33Z</time>
      </trkpt>
      <trkpt lat="45.93826" lon="-0.95726">
        <ele>12.6</ele>
        <time>2022-06-21T13:44:34Z</time>
      </trkpt>
      <trkpt lat="45.93826" lon="-0.95728">
        <ele>12.6</ele>
        <time>2022-06-21T13:44:35Z</time>
      </trkpt>
      <trkpt lat="45.93826" lon="-0.9573">
        <ele>12.6</ele>
        <time>2022-06-21T13:44:36Z</time>
      </trkpt>
      <trkpt lat="45.93826" lon="-0.95732">
        <ele>12.6</ele>
        <time>2022-06-21T13:44:37Z</time>
      </trkpt>
      <trkpt lat="45.93826" lon="-0.95734">
        <ele>12.6</ele>
        <time>2022-06-21T13:44:38Z</time>
      </trkpt>
      <trkpt lat="45.93826" lon="-0.95735">
        <ele>12.7</ele>
        <time>2022-06-21T13:44:40Z</time>
      </trkpt>
      <trkpt lat="45.93827" lon="-0.95737">
        <ele>12.7</ele>
        <time>2022-06-21T13:44:41Z</time>
      </trkpt>
      <trkpt lat="45.93827" lon="-0.95738">
        <ele>12.7</ele>
        <time>2022-06-21T13:44:42Z</time>
      </trkpt>
      <trkpt lat="45.93827" lon="-0.95739">
        <ele>12.7</ele>
        <time>2022-06-21T13:44:43Z</time>
      </trkpt>
      <trkpt lat="45.93828" lon="-0.95741">
        <ele>12.7</ele>
        <time>2022-06-21T13:44:44Z</time>
      </trkpt>
      <trkpt lat="45.93828" lon="-0.95743">
        <ele>12.7</ele>
        <time>2022-06-21T13:44:45Z</time>
      </trkpt>
      <trkpt lat="45.93829" lon="-0.95744">
        <ele>12.7</ele>
        <time>2022-06-21T13:44:47Z</time>
      </trkpt>
      <trkpt lat="45.93829" lon="-0.95745">
        <ele>12.7</ele>
        <time>2022-06-21T13:44:48Z</time>
      </trkpt>
      <trkpt lat="45.93829" lon="-0.95746">
        <ele>12.7</ele>
        <time>2022-06-21T13:44:49Z</time>
      </trkpt>
      <trkpt lat="45.93829" lon="-0.95747">
        <ele>12.7</ele>
        <time>2022-06-21T13:44:50Z</time>
      </trkpt>
      <trkpt lat="45.9383" lon="-0.95748">
        <ele>12.7</ele>
        <time>2022-06-21T13:44:51Z</time>
      </trkpt>
      <trkpt lat="45.9383" lon="-0.95749">
        <ele>12.7</ele>
        <time>2022-06-21T13:44:52Z</time>
      </trkpt>
      <trkpt lat="45.9383" lon="-0.9575">
        <ele>12.7</ele>
        <time>2022-06-21T13:44:53Z</time>
      </trkpt>
      <trkpt lat="45.9383" lon="-0.95754">
        <ele>12.7</ele>
        <time>2022-06-21T13:44:54Z</time>
      </trkpt>
      <trkpt lat="45.9383" lon="-0.95756">
        <ele>12.7</ele>
        <time>2022-06-21T13:44:55Z</time>
      </trkpt>
      <trkpt lat="45.93831" lon="-0.95762">
        <ele>12.7</ele>
        <time>2022-06-21T13:44:57Z</time>
      </trkpt>
      <trkpt lat="45.93831" lon="-0.95764">
        <ele>12.6</ele>
        <time>2022-06-21T13:44:58Z</time>
      </trkpt>
      <trkpt lat="45.93831" lon="-0.95765">
        <ele>12.6</ele>
        <time>2022-06-21T13:44:59Z</time>
      </trkpt>
      <trkpt lat="45.93831" lon="-0.95767">
        <ele>12.6</ele>
        <time>2022-06-21T13:45:00Z</time>
      </trkpt>
      <trkpt lat="45.93831" lon="-0.95771">
        <ele>12.6</ele>
        <time>2022-06-21T13:45:02Z</time>
      </trkpt>
      <trkpt lat="45.93831" lon="-0.95772">
        <ele>12.6</ele>
        <time>2022-06-21T13:45:03Z</time>
      </trkpt>
      <trkpt lat="45.93831" lon="-0.95774">
        <ele>12.6</ele>
        <time>2022-06-21T13:45:04Z</time>
      </trkpt>
      <trkpt lat="45.93831" lon="-0.95776">
        <ele>12.6</ele>
        <time>2022-06-21T13:45:05Z</time>
      </trkpt>
      <trkpt lat="45.93831" lon="-0.95781">
        <ele>12.6</ele>
        <time>2022-06-21T13:45:07Z</time>
      </trkpt>
      <trkpt lat="45.93831" lon="-0.95782">
        <ele>12.6</ele>
        <time>2022-06-21T13:45:08Z</time>
      </trkpt>
      <trkpt lat="45.93831" lon="-0.95783">
        <ele>12.6</ele>
        <time>2022-06-21T13:45:09Z</time>
      </trkpt>
      <trkpt lat="45.9383" lon="-0.95784">
        <ele>12.6</ele>
        <time>2022-06-21T13:45:10Z</time>
      </trkpt>
      <trkpt lat="45.93829" lon="-0.95784">
        <ele>12.6</ele>
        <time>2022-06-21T13:45:12Z</time>
      </trkpt>
      <trkpt lat="45.93829" lon="-0.95784">
        <ele>12.6</ele>
        <time>2022-06-21T13:45:13Z</time>
      </trkpt>
      <trkpt lat="45.93828" lon="-0.95784">
        <ele>12.6</ele>
        <time>2022-06-21T13:45:14Z</time>
      </trkpt>
      <trkpt lat="45.93828" lon="-0.95785">
        <ele>12.6</ele>
        <time>2022-06-21T13:45:15Z</time>
      </trkpt>
      <trkpt lat="45.93827" lon="-0.95785">
        <ele>12.6</ele>
        <time>2022-06-21T13:45:17Z</time>
      </trkpt>
      <trkpt lat="45.93827" lon="-0.95785">
        <ele>12.6</ele>
        <time>2022-06-21T13:45:18Z</time>
      </trkpt>
      <trkpt lat="45.93828" lon="-0.95785">
        <ele>12.6</ele>
        <time>2022-06-21T13:45:19Z</time>
      </trkpt>
      <trkpt lat="45.93828" lon="-0.95785">
        <ele>12.6</ele>
        <time>2022-06-21T13:45:20Z</time>
      </trkpt>
      <trkpt lat="45.93829" lon="-0.95784">
        <ele>12.6</ele>
        <time>2022-06-21T13:45:21Z</time>
      </trkpt>
      <trkpt lat="45.9383" lon="-0.95782">
        <ele>12.6</ele>
        <time>2022-06-21T13:45:22Z</time>
      </trkpt>
      <trkpt lat="45.9383" lon="-0.95781">
        <ele>12.6</ele>
        <time>2022-06-21T13:45:23Z</time>
      </trkpt>
      <trkpt lat="45.93831" lon="-0.95782">
        <ele>12.6</ele>
        <time>2022-06-21T13:45:25Z</time>
      </trkpt>
      <trkpt lat="45.93831" lon="-0.95782">
        <ele>12.6</ele>
        <time>2022-06-21T13:45:26Z</time>
      </trkpt>
      <trkpt lat="45.93831" lon="-0.95783">
        <ele>12.6</ele>
        <time>2022-06-21T13:45:27Z</time>
      </trkpt>
      <trkpt lat="45.9383" lon="-0.95784">
        <ele>12.6</ele>
        <time>2022-06-21T13:45:28Z</time>
      </trkpt>
      <trkpt lat="45.9383" lon="-0.95785">
        <ele>12.6</ele>
        <time>2022-06-21T13:45:29Z</time>
      </trkpt>
      <trkpt lat="45.9383" lon="-0.95785">
        <ele>12.6</ele>
        <time>2022-06-21T13:45:30Z</time>
      </trkpt>
      <trkpt lat="45.93829" lon="-0.95786">
        <ele>12.6</ele>
        <time>2022-06-21T13:45:31Z</time>
      </trkpt>
      <trkpt lat="45.93829" lon="-0.95786">
        <ele>12.6</ele>
        <time>2022-06-21T13:45:32Z</time>
      </trkpt>
      <trkpt lat="45.93829" lon="-0.95786">
        <ele>12.6</ele>
        <time>2022-06-21T13:45:33Z</time>
      </trkpt>
      <trkpt lat="45.93829" lon="-0.95786">
        <ele>12.6</ele>
        <time>2022-06-21T13:45:34Z</time>
      </trkpt>
      <trkpt lat="45.93829" lon="-0.95785">
        <ele>12.6</ele>
        <time>2022-06-21T13:45:35Z</time>
      </trkpt>
      <trkpt lat="45.93829" lon="-0.95785">
        <ele>12.6</ele>
        <time>2022-06-21T13:45:36Z</time>
      </trkpt>
      <trkpt lat="45.93829" lon="-0.95785">
        <ele>12.6</ele>
        <time>2022-06-21T13:45:37Z</time>
      </trkpt>
      <trkpt lat="45.93829" lon="-0.95785">
        <ele>12.6</ele>
        <time>2022-06-21T13:45:38Z</time>
      </trkpt>
      <trkpt lat="45.93829" lon="-0.95785">
        <ele>12.6</ele>
        <time>2022-06-21T13:45:39Z</time>
      </trkpt>
      <trkpt lat="45.93829" lon="-0.95785">
        <ele>12.6</ele>
        <time>2022-06-21T13:45:40Z</time>
      </trkpt>
      <trkpt lat="45.93829" lon="-0.95785">
        <ele>12.6</ele>
        <time>2022-06-21T13:45:41Z</time>
      </trkpt>
      <trkpt lat="45.9383" lon="-0.95786">
        <ele>12.6</ele>
        <time>2022-06-21T13:45:42Z</time>
      </trkpt>
      <trkpt lat="45.9383" lon="-0.95786">
        <ele>12.6</ele>
        <time>2022-06-21T13:45:43Z</time>
      </trkpt>
      <trkpt lat="45.9383" lon="-0.95786">
        <ele>12.6</ele>
        <time>2022-06-21T13:45:44Z</time>
      </trkpt>
      <trkpt lat="45.9383" lon="-0.95786">
        <ele>12.6</ele>
        <time>2022-06-21T13:45:45Z</time>
      </trkpt>
      <trkpt lat="45.93829" lon="-0.95785">
        <ele>12.6</ele>
        <time>2022-06-21T13:45:46Z</time>
      </trkpt>
      <trkpt lat="45.93829" lon="-0.95784">
        <ele>12.6</ele>
        <time>2022-06-21T13:45:47Z</time>
      </trkpt>
      <trkpt lat="45.93829" lon="-0.95784">
        <ele>12.6</ele>
        <time>2022-06-21T13:45:48Z</time>
      </trkpt>
      <trkpt lat="45.93829" lon="-0.95784">
        <ele>12.6</ele>
        <time>2022-06-21T13:45:49Z</time>
      </trkpt>
      <trkpt lat="45.93829" lon="-0.95784">
        <ele>12.6</ele>
        <time>2022-06-21T13:45:50Z</time>
      </trkpt>
      <trkpt lat="45.93829" lon="-0.95785">
        <ele>12.6</ele>
        <time>2022-06-21T13:45:51Z</time>
      </trkpt>
      <trkpt lat="45.93828" lon="-0.95786">
        <ele>12.5</ele>
        <time>2022-06-21T13:45:52Z</time>
      </trkpt>
      <trkpt lat="45.93831" lon="-0.95787">
        <ele>12.5</ele>
        <time>2022-06-21T13:45:53Z</time>
      </trkpt>
      <trkpt lat="45.93832" lon="-0.95788">
        <ele>12.5</ele>
        <time>2022-06-21T13:45:54Z</time>
      </trkpt>
      <trkpt lat="45.93833" lon="-0.95788">
        <ele>12.5</ele>
        <time>2022-06-21T13:45:56Z</time>
      </trkpt>
      <trkpt lat="45.93834" lon="-0.95789">
        <ele>12.5</ele>
        <time>2022-06-21T13:45:57Z</time>
      </trkpt>
      <trkpt lat="45.93836" lon="-0.95793">
        <ele>12.5</ele>
        <time>2022-06-21T13:45:58Z</time>
      </trkpt>
      <trkpt lat="45.93837" lon="-0.95795">
        <ele>12.5</ele>
        <time>2022-06-21T13:45:59Z</time>
      </trkpt>
      <trkpt lat="45.93837" lon="-0.95797">
        <ele>12.5</ele>
        <time>2022-06-21T13:46:00Z</time>
      </trkpt>
      <trkpt lat="45.93837" lon="-0.95798">
        <ele>12.5</ele>
        <time>2022-06-21T13:46:02Z</time>
      </trkpt>
      <trkpt lat="45.93838" lon="-0.958">
        <ele>12.5</ele>
        <time>2022-06-21T13:46:03Z</time>
      </trkpt>
      <trkpt lat="45.93836" lon="-0.95799">
        <ele>12.5</ele>
        <time>2022-06-21T13:46:04Z</time>
      </trkpt>
      <trkpt lat="45.93835" lon="-0.95798">
        <ele>12.5</ele>
        <time>2022-06-21T13:46:05Z</time>
      </trkpt>
      <trkpt lat="45.93834" lon="-0.95798">
        <ele>12.4</ele>
        <time>2022-06-21T13:46:06Z</time>
      </trkpt>
      <trkpt lat="45.93834" lon="-0.95797">
        <ele>12.4</ele>
        <time>2022-06-21T13:46:07Z</time>
      </trkpt>
      <trkpt lat="45.93834" lon="-0.95801">
        <ele>12.4</ele>
        <time>2022-06-21T13:46:08Z</time>
      </trkpt>
      <trkpt lat="45.93834" lon="-0.95803">
        <ele>12.4</ele>
        <time>2022-06-21T13:46:10Z</time>
      </trkpt>
      <trkpt lat="45.93834" lon="-0.95805">
        <ele>12.4</ele>
        <time>2022-06-21T13:46:11Z</time>
      </trkpt>
      <trkpt lat="45.93835" lon="-0.95809">
        <ele>12.4</ele>
        <time>2022-06-21T13:46:13Z</time>
      </trkpt>
      <trkpt lat="45.93837" lon="-0.95811">
        <ele>12.4</ele>
        <time>2022-06-21T13:46:14Z</time>
      </trkpt>
      <trkpt lat="45.93837" lon="-0.95812">
        <ele>12.4</ele>
        <time>2022-06-21T13:46:15Z</time>
      </trkpt>
      <trkpt lat="45.93839" lon="-0.95815">
        <ele>12.4</ele>
        <time>2022-06-21T13:46:17Z</time>
      </trkpt>
      <trkpt lat="45.9384" lon="-0.95817">
        <ele>12.4</ele>
        <time>2022-06-21T13:46:18Z</time>
      </trkpt>
      <trkpt lat="45.93839" lon="-0.95817">
        <ele>12.4</ele>
        <time>2022-06-21T13:46:19Z</time>
      </trkpt>
      <trkpt lat="45.93839" lon="-0.95819">
        <ele>12.4</ele>
        <time>2022-06-21T13:46:20Z</time>
      </trkpt>
      <trkpt lat="45.93838" lon="-0.95821">
        <ele>12.4</ele>
        <time>2022-06-21T13:46:22Z</time>
      </trkpt>
      <trkpt lat="45.93838" lon="-0.95823">
        <ele>12.5</ele>
        <time>2022-06-21T13:46:23Z</time>
      </trkpt>
      <trkpt lat="45.93837" lon="-0.95825">
        <ele>12.5</ele>
        <time>2022-06-21T13:46:24Z</time>
      </trkpt>
      <trkpt lat="45.93837" lon="-0.95826">
        <ele>12.5</ele>
        <time>2022-06-21T13:46:25Z</time>
      </trkpt>
      <trkpt lat="45.93837" lon="-0.95827">
        <ele>12.5</ele>
        <time>2022-06-21T13:46:26Z</time>
      </trkpt>
      <trkpt lat="45.93837" lon="-0.95829">
        <ele>12.5</ele>
        <time>2022-06-21T13:46:27Z</time>
      </trkpt>
      <trkpt lat="45.93837" lon="-0.9583">
        <ele>12.5</ele>
        <time>2022-06-21T13:46:28Z</time>
      </trkpt>
      <trkpt lat="45.93838" lon="-0.95833">
        <ele>12.5</ele>
        <time>2022-06-21T13:46:30Z</time>
      </trkpt>
      <trkpt lat="45.93838" lon="-0.95834">
        <ele>12.6</ele>
        <time>2022-06-21T13:46:31Z</time>
      </trkpt>
      <trkpt lat="45.93838" lon="-0.95835">
        <ele>12.6</ele>
        <time>2022-06-21T13:46:32Z</time>
      </trkpt>
      <trkpt lat="45.93838" lon="-0.95836">
        <ele>12.6</ele>
        <time>2022-06-21T13:46:33Z</time>
      </trkpt>
      <trkpt lat="45.93838" lon="-0.95837">
        <ele>12.6</ele>
        <time>2022-06-21T13:46:34Z</time>
      </trkpt>
      <trkpt lat="45.93838" lon="-0.95837">
        <ele>12.6</ele>
        <time>2022-06-21T13:46:35Z</time>
      </trkpt>
      <trkpt lat="45.93838" lon="-0.95838">
        <ele>12.6</ele>
        <time>2022-06-21T13:46:36Z</time>
      </trkpt>
      <trkpt lat="45.93838" lon="-0.95838">
        <ele>12.6</ele>
        <time>2022-06-21T13:46:38Z</time>
      </trkpt>
      <trkpt lat="45.93838" lon="-0.95839">
        <ele>12.6</ele>
        <time>2022-06-21T13:46:39Z</time>
      </trkpt>
      <trkpt lat="45.93838" lon="-0.95841">
        <ele>12.6</ele>
        <time>2022-06-21T13:46:41Z</time>
      </trkpt>
      <trkpt lat="45.93838" lon="-0.95843">
        <ele>12.6</ele>
        <time>2022-06-21T13:46:42Z</time>
      </trkpt>
      <trkpt lat="45.93838" lon="-0.95845">
        <ele>12.6</ele>
        <time>2022-06-21T13:46:43Z</time>
      </trkpt>
      <trkpt lat="45.93839" lon="-0.95849">
        <ele>12.7</ele>
        <time>2022-06-21T13:46:45Z</time>
      </trkpt>
      <trkpt lat="45.93839" lon="-0.9585">
        <ele>12.7</ele>
        <time>2022-06-21T13:46:46Z</time>
      </trkpt>
      <trkpt lat="45.93839" lon="-0.95852">
        <ele>12.7</ele>
        <time>2022-06-21T13:46:47Z</time>
      </trkpt>
      <trkpt lat="45.93839" lon="-0.95853">
        <ele>12.7</ele>
        <time>2022-06-21T13:46:48Z</time>
      </trkpt>
      <trkpt lat="45.9384" lon="-0.95859">
        <ele>12.7</ele>
        <time>2022-06-21T13:46:49Z</time>
      </trkpt>
      <trkpt lat="45.9384" lon="-0.9586">
        <ele>12.7</ele>
        <time>2022-06-21T13:46:50Z</time>
      </trkpt>
      <trkpt lat="45.9384" lon="-0.95861">
        <ele>12.7</ele>
        <time>2022-06-21T13:46:52Z</time>
      </trkpt>
      <trkpt lat="45.9384" lon="-0.95863">
        <ele>12.7</ele>
        <time>2022-06-21T13:46:53Z</time>
      </trkpt>
      <trkpt lat="45.9384" lon="-0.95864">
        <ele>12.7</ele>
        <time>2022-06-21T13:46:54Z</time>
      </trkpt>
      <trkpt lat="45.9384" lon="-0.95868">
        <ele>12.8</ele>
        <time>2022-06-21T13:46:55Z</time>
      </trkpt>
      <trkpt lat="45.9384" lon="-0.95871">
        <ele>12.8</ele>
        <time>2022-06-21T13:46:56Z</time>
      </trkpt>
      <trkpt lat="45.9384" lon="-0.95872">
        <ele>12.8</ele>
        <time>2022-06-21T13:46:57Z</time>
      </trkpt>
      <trkpt lat="45.9384" lon="-0.95874">
        <ele>12.8</ele>
        <time>2022-06-21T13:46:58Z</time>
      </trkpt>
      <trkpt lat="45.93841" lon="-0.95881">
        <ele>12.8</ele>
        <time>2022-06-21T13:47:00Z</time>
      </trkpt>
      <trkpt lat="45.93841" lon="-0.95882">
        <ele>12.8</ele>
        <time>2022-06-21T13:47:01Z</time>
      </trkpt>
      <trkpt lat="45.93841" lon="-0.95883">
        <ele>12.8</ele>
        <time>2022-06-21T13:47:02Z</time>
      </trkpt>
      <trkpt lat="45.93841" lon="-0.95885">
        <ele>12.8</ele>
        <time>2022-06-21T13:47:03Z</time>
      </trkpt>
      <trkpt lat="45.93841" lon="-0.95887">
        <ele>12.8</ele>
        <time>2022-06-21T13:47:05Z</time>
      </trkpt>
      <trkpt lat="45.93841" lon="-0.95888">
        <ele>12.9</ele>
        <time>2022-06-21T13:47:06Z</time>
      </trkpt>
      <trkpt lat="45.93841" lon="-0.9589">
        <ele>12.9</ele>
        <time>2022-06-21T13:47:07Z</time>
      </trkpt>
      <trkpt lat="45.93841" lon="-0.95892">
        <ele>12.9</ele>
        <time>2022-06-21T13:47:08Z</time>
      </trkpt>
      <trkpt lat="45.93841" lon="-0.95894">
        <ele>12.9</ele>
        <time>2022-06-21T13:47:09Z</time>
      </trkpt>
      <trkpt lat="45.93841" lon="-0.95896">
        <ele>12.9</ele>
        <time>2022-06-21T13:47:10Z</time>
      </trkpt>
      <trkpt lat="45.93842" lon="-0.959">
        <ele>12.9</ele>
        <time>2022-06-21T13:47:12Z</time>
      </trkpt>
      <trkpt lat="45.93842" lon="-0.95901">
        <ele>12.9</ele>
        <time>2022-06-21T13:47:13Z</time>
      </trkpt>
      <trkpt lat="45.93842" lon="-0.95902">
        <ele>12.9</ele>
        <time>2022-06-21T13:47:14Z</time>
      </trkpt>
      <trkpt lat="45.93842" lon="-0.95904">
        <ele>12.9</ele>
        <time>2022-06-21T13:47:15Z</time>
      </trkpt>
      <trkpt lat="45.93842" lon="-0.95906">
        <ele>12.9</ele>
        <time>2022-06-21T13:47:16Z</time>
      </trkpt>
      <trkpt lat="45.93842" lon="-0.95907">
        <ele>12.9</ele>
        <time>2022-06-21T13:47:17Z</time>
      </trkpt>
      <trkpt lat="45.93842" lon="-0.95903">
        <ele>12.9</ele>
        <time>2022-06-21T13:47:19Z</time>
      </trkpt>
      <trkpt lat="45.93842" lon="-0.95902">
        <ele>12.9</ele>
        <time>2022-06-21T13:47:20Z</time>
      </trkpt>
      <trkpt lat="45.93842" lon="-0.95901">
        <ele>12.9</ele>
        <time>2022-06-21T13:47:22Z</time>
      </trkpt>
      <trkpt lat="45.93842" lon="-0.959">
        <ele>12.9</ele>
        <time>2022-06-21T13:47:23Z</time>
      </trkpt>
      <trkpt lat="45.93841" lon="-0.95899">
        <ele>12.9</ele>
        <time>2022-06-21T13:47:24Z</time>
      </trkpt>
      <trkpt lat="45.93841" lon="-0.95897">
        <ele>12.9</ele>
        <time>2022-06-21T13:47:25Z</time>
      </trkpt>
      <trkpt lat="45.93841" lon="-0.95895">
        <ele>12.9</ele>
        <time>2022-06-21T13:47:26Z</time>
      </trkpt>
      <trkpt lat="45.93841" lon="-0.95893">
        <ele>12.9</ele>
        <time>2022-06-21T13:47:27Z</time>
      </trkpt>
      <trkpt lat="45.93841" lon="-0.95891">
        <ele>12.9</ele>
        <time>2022-06-21T13:47:28Z</time>
      </trkpt>
      <trkpt lat="45.9384" lon="-0.9589">
        <ele>12.9</ele>
        <time>2022-06-21T13:47:30Z</time>
      </trkpt>
      <trkpt lat="45.9384" lon="-0.95889">
        <ele>12.9</ele>
        <time>2022-06-21T13:47:31Z</time>
      </trkpt>
      <trkpt lat="45.93839" lon="-0.95887">
        <ele>12.9</ele>
        <time>2022-06-21T13:47:32Z</time>
      </trkpt>
      <trkpt lat="45.93839" lon="-0.95886">
        <ele>12.8</ele>
        <time>2022-06-21T13:47:33Z</time>
      </trkpt>
      <trkpt lat="45.93838" lon="-0.95885">
        <ele>12.8</ele>
        <time>2022-06-21T13:47:34Z</time>
      </trkpt>
      <trkpt lat="45.93838" lon="-0.95883">
        <ele>12.8</ele>
        <time>2022-06-21T13:47:35Z</time>
      </trkpt>
      <trkpt lat="45.93837" lon="-0.9588">
        <ele>12.8</ele>
        <time>2022-06-21T13:47:37Z</time>
      </trkpt>
      <trkpt lat="45.93837" lon="-0.95879">
        <ele>12.8</ele>
        <time>2022-06-21T13:47:38Z</time>
      </trkpt>
      <trkpt lat="45.93837" lon="-0.95877">
        <ele>12.8</ele>
        <time>2022-06-21T13:47:39Z</time>
      </trkpt>
      <trkpt lat="45.93837" lon="-0.95874">
        <ele>12.8</ele>
        <time>2022-06-21T13:47:40Z</time>
      </trkpt>
      <trkpt lat="45.93837" lon="-0.95873">
        <ele>12.8</ele>
        <time>2022-06-21T13:47:41Z</time>
      </trkpt>
      <trkpt lat="45.93837" lon="-0.95871">
        <ele>12.8</ele>
        <time>2022-06-21T13:47:42Z</time>
      </trkpt>
      <trkpt lat="45.93836" lon="-0.95869">
        <ele>12.8</ele>
        <time>2022-06-21T13:47:43Z</time>
      </trkpt>
      <trkpt lat="45.93836" lon="-0.95867">
        <ele>12.8</ele>
        <time>2022-06-21T13:47:45Z</time>
      </trkpt>
      <trkpt lat="45.93835" lon="-0.95865">
        <ele>12.7</ele>
        <time>2022-06-21T13:47:46Z</time>
      </trkpt>
      <trkpt lat="45.93835" lon="-0.95863">
        <ele>12.7</ele>
        <time>2022-06-21T13:47:47Z</time>
      </trkpt>
      <trkpt lat="45.93835" lon="-0.95861">
        <ele>12.7</ele>
        <time>2022-06-21T13:47:48Z</time>
      </trkpt>
      <trkpt lat="45.93836" lon="-0.9586">
        <ele>12.7</ele>
        <time>2022-06-21T13:47:49Z</time>
      </trkpt>
      <trkpt lat="45.93836" lon="-0.95858">
        <ele>12.7</ele>
        <time>2022-06-21T13:47:50Z</time>
      </trkpt>
      <trkpt lat="45.93836" lon="-0.95857">
        <ele>12.7</ele>
        <time>2022-06-21T13:47:51Z</time>
      </trkpt>
      <trkpt lat="45.93836" lon="-0.95856">
        <ele>12.7</ele>
        <time>2022-06-21T13:47:53Z</time>
      </trkpt>
      <trkpt lat="45.93836" lon="-0.95854">
        <ele>12.7</ele>
        <time>2022-06-21T13:47:54Z</time>
      </trkpt>
      <trkpt lat="45.93837" lon="-0.95853">
        <ele>12.7</ele>
        <time>2022-06-21T13:47:55Z</time>
      </trkpt>
      <trkpt lat="45.93838" lon="-0.95852">
        <ele>12.7</ele>
        <time>2022-06-21T13:47:56Z</time>
      </trkpt>
      <trkpt lat="45.93838" lon="-0.95851">
        <ele>12.7</ele>
        <time>2022-06-21T13:47:57Z</time>
      </trkpt>
      <trkpt lat="45.93838" lon="-0.95848">
        <ele>12.6</ele>
        <time>2022-06-21T13:47:58Z</time>
      </trkpt>
      <trkpt lat="45.93838" lon="-0.95847">
        <ele>12.6</ele>
        <time>2022-06-21T13:47:59Z</time>
      </trkpt>
      <trkpt lat="45.93837" lon="-0.95845">
        <ele>12.6</ele>
        <time>2022-06-21T13:48:00Z</time>
      </trkpt>
      <trkpt lat="45.93837" lon="-0.95844">
        <ele>12.6</ele>
        <time>2022-06-21T13:48:02Z</time>
      </trkpt>
      <trkpt lat="45.93837" lon="-0.95842">
        <ele>12.6</ele>
        <time>2022-06-21T13:48:03Z</time>
      </trkpt>
      <trkpt lat="45.93838" lon="-0.9584">
        <ele>12.6</ele>
        <time>2022-06-21T13:48:04Z</time>
      </trkpt>
      <trkpt lat="45.93839" lon="-0.95838">
        <ele>12.6</ele>
        <time>2022-06-21T13:48:05Z</time>
      </trkpt>
      <trkpt lat="45.93839" lon="-0.95836">
        <ele>12.6</ele>
        <time>2022-06-21T13:48:06Z</time>
      </trkpt>
      <trkpt lat="45.93838" lon="-0.95834">
        <ele>12.5</ele>
        <time>2022-06-21T13:48:07Z</time>
      </trkpt>
      <trkpt lat="45.93838" lon="-0.95833">
        <ele>12.5</ele>
        <time>2022-06-21T13:48:09Z</time>
      </trkpt>
      <trkpt lat="45.93837" lon="-0.95831">
        <ele>12.5</ele>
        <time>2022-06-21T13:48:10Z</time>
      </trkpt>
      <trkpt lat="45.93837" lon="-0.9583">
        <ele>12.5</ele>
        <time>2022-06-21T13:48:11Z</time>
      </trkpt>
      <trkpt lat="45.93837" lon="-0.95828">
        <ele>12.5</ele>
        <time>2022-06-21T13:48:12Z</time>
      </trkpt>
      <trkpt lat="45.93838" lon="-0.95823">
        <ele>12.3</ele>
        <time>2022-06-21T13:48:14Z</time>
      </trkpt>
      <trkpt lat="45.93838" lon="-0.95822">
        <ele>12.3</ele>
        <time>2022-06-21T13:48:15Z</time>
      </trkpt>
      <trkpt lat="45.93838" lon="-0.95822">
        <ele>12.3</ele>
        <time>2022-06-21T13:48:16Z</time>
      </trkpt>
      <trkpt lat="45.93837" lon="-0.95823">
        <ele>12.3</ele>
        <time>2022-06-21T13:48:17Z</time>
      </trkpt>
      <trkpt lat="45.93837" lon="-0.95823">
        <ele>12.3</ele>
        <time>2022-06-21T13:48:19Z</time>
      </trkpt>
      <trkpt lat="45.93836" lon="-0.95823">
        <ele>12.3</ele>
        <time>2022-06-21T13:48:20Z</time>
      </trkpt>
      <trkpt lat="45.93836" lon="-0.95822">
        <ele>12.3</ele>
        <time>2022-06-21T13:48:21Z</time>
      </trkpt>
      <trkpt lat="45.93835" lon="-0.95823">
        <ele>12.3</ele>
        <time>2022-06-21T13:48:22Z</time>
      </trkpt>
      <trkpt lat="45.93835" lon="-0.95823">
        <ele>12.3</ele>
        <time>2022-06-21T13:48:24Z</time>
      </trkpt>
      <trkpt lat="45.93835" lon="-0.95824">
        <ele>12.3</ele>
        <time>2022-06-21T13:48:25Z</time>
      </trkpt>
      <trkpt lat="45.93833" lon="-0.95825">
        <ele>12.2</ele>
        <time>2022-06-21T13:48:27Z</time>
      </trkpt>
      <trkpt lat="45.93832" lon="-0.95827">
        <ele>12.2</ele>
        <time>2022-06-21T13:48:28Z</time>
      </trkpt>
      <trkpt lat="45.93832" lon="-0.95828">
        <ele>12.2</ele>
        <time>2022-06-21T13:48:29Z</time>
      </trkpt>
      <trkpt lat="45.93832" lon="-0.95828">
        <ele>12.2</ele>
        <time>2022-06-21T13:48:30Z</time>
      </trkpt>
      <trkpt lat="45.93832" lon="-0.95829">
        <ele>12.2</ele>
        <time>2022-06-21T13:48:32Z</time>
      </trkpt>
      <trkpt lat="45.93832" lon="-0.9583">
        <ele>12.2</ele>
        <time>2022-06-21T13:48:33Z</time>
      </trkpt>
      <trkpt lat="45.93832" lon="-0.9583">
        <ele>12.2</ele>
        <time>2022-06-21T13:48:34Z</time>
      </trkpt>
      <trkpt lat="45.93831" lon="-0.95831">
        <ele>12.2</ele>
        <time>2022-06-21T13:48:35Z</time>
      </trkpt>
      <trkpt lat="45.93831" lon="-0.9583">
        <ele>12.2</ele>
        <time>2022-06-21T13:48:36Z</time>
      </trkpt>
      <trkpt lat="45.93831" lon="-0.9583">
        <ele>12.2</ele>
        <time>2022-06-21T13:48:37Z</time>
      </trkpt>
      <trkpt lat="45.9383" lon="-0.95828">
        <ele>12.1</ele>
        <time>2022-06-21T13:48:38Z</time>
      </trkpt>
      <trkpt lat="45.93825" lon="-0.95822">
        <ele>12.1</ele>
        <time>2022-06-21T13:48:40Z</time>
      </trkpt>
      <trkpt lat="45.93824" lon="-0.9582">
        <ele>12</ele>
        <time>2022-06-21T13:48:41Z</time>
      </trkpt>
      <trkpt lat="45.93824" lon="-0.9582">
        <ele>12</ele>
        <time>2022-06-21T13:48:42Z</time>
      </trkpt>
      <trkpt lat="45.93824" lon="-0.9582">
        <ele>12</ele>
        <time>2022-06-21T13:48:43Z</time>
      </trkpt>
      <trkpt lat="45.93824" lon="-0.9582">
        <ele>12</ele>
        <time>2022-06-21T13:48:44Z</time>
      </trkpt>
      <trkpt lat="45.93823" lon="-0.9582">
        <ele>12</ele>
        <time>2022-06-21T13:48:45Z</time>
      </trkpt>
      <trkpt lat="45.93823" lon="-0.9582">
        <ele>12</ele>
        <time>2022-06-21T13:48:46Z</time>
      </trkpt>
      <trkpt lat="45.93822" lon="-0.9582">
        <ele>12</ele>
        <time>2022-06-21T13:48:47Z</time>
      </trkpt>
      <trkpt lat="45.93821" lon="-0.9582">
        <ele>12</ele>
        <time>2022-06-21T13:48:49Z</time>
      </trkpt>
      <trkpt lat="45.9382" lon="-0.95821">
        <ele>12</ele>
        <time>2022-06-21T13:48:50Z</time>
      </trkpt>
      <trkpt lat="45.93819" lon="-0.95821">
        <ele>12</ele>
        <time>2022-06-21T13:48:51Z</time>
      </trkpt>
      <trkpt lat="45.93819" lon="-0.95821">
        <ele>12</ele>
        <time>2022-06-21T13:48:52Z</time>
      </trkpt>
      <trkpt lat="45.93818" lon="-0.95821">
        <ele>11.9</ele>
        <time>2022-06-21T13:48:53Z</time>
      </trkpt>
      <trkpt lat="45.93816" lon="-0.95821">
        <ele>11.9</ele>
        <time>2022-06-21T13:48:54Z</time>
      </trkpt>
      <trkpt lat="45.93815" lon="-0.95821">
        <ele>11.9</ele>
        <time>2022-06-21T13:48:55Z</time>
      </trkpt>
      <trkpt lat="45.93814" lon="-0.95821">
        <ele>11.9</ele>
        <time>2022-06-21T13:48:56Z</time>
      </trkpt>
      <trkpt lat="45.93812" lon="-0.95821">
        <ele>11.9</ele>
        <time>2022-06-21T13:48:58Z</time>
      </trkpt>
      <trkpt lat="45.93811" lon="-0.9582">
        <ele>11.9</ele>
        <time>2022-06-21T13:48:59Z</time>
      </trkpt>
      <trkpt lat="45.93809" lon="-0.95819">
        <ele>11.8</ele>
        <time>2022-06-21T13:49:00Z</time>
      </trkpt>
      <trkpt lat="45.93807" lon="-0.95819">
        <ele>11.8</ele>
        <time>2022-06-21T13:49:01Z</time>
      </trkpt>
      <trkpt lat="45.93806" lon="-0.95818">
        <ele>11.8</ele>
        <time>2022-06-21T13:49:02Z</time>
      </trkpt>
      <trkpt lat="45.93805" lon="-0.95818">
        <ele>11.8</ele>
        <time>2022-06-21T13:49:03Z</time>
      </trkpt>
      <trkpt lat="45.93804" lon="-0.95817">
        <ele>11.7</ele>
        <time>2022-06-21T13:49:05Z</time>
      </trkpt>
      <trkpt lat="45.93802" lon="-0.95817">
        <ele>11.7</ele>
        <time>2022-06-21T13:49:06Z</time>
      </trkpt>
      <trkpt lat="45.938" lon="-0.95818">
        <ele>11.7</ele>
        <time>2022-06-21T13:49:07Z</time>
      </trkpt>
      <trkpt lat="45.93798" lon="-0.95818">
        <ele>11.6</ele>
        <time>2022-06-21T13:49:08Z</time>
      </trkpt>
      <trkpt lat="45.93797" lon="-0.95818">
        <ele>11.6</ele>
        <time>2022-06-21T13:49:10Z</time>
      </trkpt>
      <trkpt lat="45.93796" lon="-0.95819">
        <ele>11.6</ele>
        <time>2022-06-21T13:49:11Z</time>
      </trkpt>
      <trkpt lat="45.93795" lon="-0.95819">
        <ele>11.6</ele>
        <time>2022-06-21T13:49:12Z</time>
      </trkpt>
      <trkpt lat="45.93794" lon="-0.95819">
        <ele>11.6</ele>
        <time>2022-06-21T13:49:13Z</time>
      </trkpt>
      <trkpt lat="45.93792" lon="-0.9582">
        <ele>11.6</ele>
        <time>2022-06-21T13:49:14Z</time>
      </trkpt>
      <trkpt lat="45.93791" lon="-0.9582">
        <ele>11.5</ele>
        <time>2022-06-21T13:49:15Z</time>
      </trkpt>
      <trkpt lat="45.93792" lon="-0.9582">
        <ele>11.5</ele>
        <time>2022-06-21T13:49:16Z</time>
      </trkpt>
      <trkpt lat="45.93792" lon="-0.9582">
        <ele>11.5</ele>
        <time>2022-06-21T13:49:17Z</time>
      </trkpt>
      <trkpt lat="45.93791" lon="-0.9582">
        <ele>11.5</ele>
        <time>2022-06-21T13:49:19Z</time>
      </trkpt>
      <trkpt lat="45.93789" lon="-0.95821">
        <ele>11.5</ele>
        <time>2022-06-21T13:49:20Z</time>
      </trkpt>
      <trkpt lat="45.93788" lon="-0.95821">
        <ele>11.5</ele>
        <time>2022-06-21T13:49:21Z</time>
      </trkpt>
      <trkpt lat="45.93787" lon="-0.95821">
        <ele>11.4</ele>
        <time>2022-06-21T13:49:22Z</time>
      </trkpt>
      <trkpt lat="45.93785" lon="-0.95821">
        <ele>11.4</ele>
        <time>2022-06-21T13:49:23Z</time>
      </trkpt>
      <trkpt lat="45.93784" lon="-0.95822">
        <ele>11.4</ele>
        <time>2022-06-21T13:49:24Z</time>
      </trkpt>
      <trkpt lat="45.93782" lon="-0.95822">
        <ele>11.4</ele>
        <time>2022-06-21T13:49:25Z</time>
      </trkpt>
      <trkpt lat="45.93781" lon="-0.95822">
        <ele>11.4</ele>
        <time>2022-06-21T13:49:26Z</time>
      </trkpt>
      <trkpt lat="45.93779" lon="-0.95822">
        <ele>11.3</ele>
        <time>2022-06-21T13:49:27Z</time>
      </trkpt>
      <trkpt lat="45.93778" lon="-0.95823">
        <ele>11.3</ele>
        <time>2022-06-21T13:49:29Z</time>
      </trkpt>
      <trkpt lat="45.93776" lon="-0.95823">
        <ele>11.3</ele>
        <time>2022-06-21T13:49:30Z</time>
      </trkpt>
      <trkpt lat="45.93775" lon="-0.95823">
        <ele>11.3</ele>
        <time>2022-06-21T13:49:31Z</time>
      </trkpt>
      <trkpt lat="45.93774" lon="-0.95824">
        <ele>11.3</ele>
        <time>2022-06-21T13:49:32Z</time>
      </trkpt>
      <trkpt lat="45.93773" lon="-0.95824">
        <ele>11.3</ele>
        <time>2022-06-21T13:49:33Z</time>
      </trkpt>
      <trkpt lat="45.93772" lon="-0.95824">
        <ele>11.2</ele>
        <time>2022-06-21T13:49:34Z</time>
      </trkpt>
      <trkpt lat="45.9377" lon="-0.95824">
        <ele>11.2</ele>
        <time>2022-06-21T13:49:35Z</time>
      </trkpt>
      <trkpt lat="45.93768" lon="-0.95824">
        <ele>11.2</ele>
        <time>2022-06-21T13:49:36Z</time>
      </trkpt>
      <trkpt lat="45.93767" lon="-0.95824">
        <ele>11.2</ele>
        <time>2022-06-21T13:49:38Z</time>
      </trkpt>
      <trkpt lat="45.93765" lon="-0.95824">
        <ele>11.1</ele>
        <time>2022-06-21T13:49:39Z</time>
      </trkpt>
      <trkpt lat="45.93764" lon="-0.95824">
        <ele>11.1</ele>
        <time>2022-06-21T13:49:40Z</time>
      </trkpt>
      <trkpt lat="45.93762" lon="-0.95824">
        <ele>11.1</ele>
        <time>2022-06-21T13:49:41Z</time>
      </trkpt>
      <trkpt lat="45.93761" lon="-0.95824">
        <ele>11.1</ele>
        <time>2022-06-21T13:49:42Z</time>
      </trkpt>
      <trkpt lat="45.9376" lon="-0.95824">
        <ele>11.1</ele>
        <time>2022-06-21T13:49:43Z</time>
      </trkpt>
      <trkpt lat="45.93758" lon="-0.95824">
        <ele>11</ele>
        <time>2022-06-21T13:49:44Z</time>
      </trkpt>
      <trkpt lat="45.93757" lon="-0.95824">
        <ele>11</ele>
        <time>2022-06-21T13:49:45Z</time>
      </trkpt>
      <trkpt lat="45.93755" lon="-0.95824">
        <ele>11</ele>
        <time>2022-06-21T13:49:47Z</time>
      </trkpt>
      <trkpt lat="45.93753" lon="-0.95824">
        <ele>11</ele>
        <time>2022-06-21T13:49:48Z</time>
      </trkpt>
      <trkpt lat="45.93753" lon="-0.95825">
        <ele>10.9</ele>
        <time>2022-06-21T13:49:49Z</time>
      </trkpt>
      <trkpt lat="45.93752" lon="-0.95825">
        <ele>10.9</ele>
        <time>2022-06-21T13:49:50Z</time>
      </trkpt>
      <trkpt lat="45.9375" lon="-0.95825">
        <ele>10.9</ele>
        <time>2022-06-21T13:49:53Z</time>
      </trkpt>
      <trkpt lat="45.93746" lon="-0.95825">
        <ele>10.8</ele>
        <time>2022-06-21T13:49:54Z</time>
      </trkpt>
      <trkpt lat="45.93745" lon="-0.95825">
        <ele>10.8</ele>
        <time>2022-06-21T13:49:56Z</time>
      </trkpt>
      <trkpt lat="45.93744" lon="-0.95825">
        <ele>10.8</ele>
        <time>2022-06-21T13:49:57Z</time>
      </trkpt>
      <trkpt lat="45.9374" lon="-0.95825">
        <ele>10.7</ele>
        <time>2022-06-21T13:49:59Z</time>
      </trkpt>
      <trkpt lat="45.93739" lon="-0.95825">
        <ele>10.7</ele>
        <time>2022-06-21T13:50:00Z</time>
      </trkpt>
      <trkpt lat="45.93735" lon="-0.95825">
        <ele>10.6</ele>
        <time>2022-06-21T13:50:02Z</time>
      </trkpt>
      <trkpt lat="45.93733" lon="-0.95825">
        <ele>10.5</ele>
        <time>2022-06-21T13:50:03Z</time>
      </trkpt>
      <trkpt lat="45.93732" lon="-0.95825">
        <ele>10.5</ele>
        <time>2022-06-21T13:50:04Z</time>
      </trkpt>
      <trkpt lat="45.93731" lon="-0.95826">
        <ele>10.5</ele>
        <time>2022-06-21T13:50:05Z</time>
      </trkpt>
      <trkpt lat="45.93728" lon="-0.95826">
        <ele>10.4</ele>
        <time>2022-06-21T13:50:07Z</time>
      </trkpt>
      <trkpt lat="45.93724" lon="-0.95825">
        <ele>10.3</ele>
        <time>2022-06-21T13:50:08Z</time>
      </trkpt>
      <trkpt lat="45.93723" lon="-0.95825">
        <ele>10.3</ele>
        <time>2022-06-21T13:50:09Z</time>
      </trkpt>
      <trkpt lat="45.93721" lon="-0.95825">
        <ele>10.3</ele>
        <time>2022-06-21T13:50:10Z</time>
      </trkpt>
      <trkpt lat="45.93718" lon="-0.95826">
        <ele>10.2</ele>
        <time>2022-06-21T13:50:12Z</time>
      </trkpt>
      <trkpt lat="45.93716" lon="-0.95826">
        <ele>10.2</ele>
        <time>2022-06-21T13:50:13Z</time>
      </trkpt>
      <trkpt lat="45.93714" lon="-0.95825">
        <ele>10.1</ele>
        <time>2022-06-21T13:50:15Z</time>
      </trkpt>
      <trkpt lat="45.93714" lon="-0.95824">
        <ele>10.1</ele>
        <time>2022-06-21T13:50:16Z</time>
      </trkpt>
      <trkpt lat="45.93713" lon="-0.95822">
        <ele>10.1</ele>
        <time>2022-06-21T13:50:17Z</time>
      </trkpt>
      <trkpt lat="45.93713" lon="-0.95822">
        <ele>10.1</ele>
        <time>2022-06-21T13:50:18Z</time>
      </trkpt>
      <trkpt lat="45.93711" lon="-0.9582">
        <ele>10</ele>
        <time>2022-06-21T13:50:20Z</time>
      </trkpt>
      <trkpt lat="45.9371" lon="-0.95819">
        <ele>10</ele>
        <time>2022-06-21T13:50:21Z</time>
      </trkpt>
      <trkpt lat="45.93709" lon="-0.95818">
        <ele>10</ele>
        <time>2022-06-21T13:50:22Z</time>
      </trkpt>
      <trkpt lat="45.93709" lon="-0.95818">
        <ele>10</ele>
        <time>2022-06-21T13:50:23Z</time>
      </trkpt>
      <trkpt lat="45.93708" lon="-0.95817">
        <ele>10</ele>
        <time>2022-06-21T13:50:25Z</time>
      </trkpt>
      <trkpt lat="45.93707" lon="-0.95817">
        <ele>10</ele>
        <time>2022-06-21T13:50:26Z</time>
      </trkpt>
      <trkpt lat="45.93707" lon="-0.95816">
        <ele>9.9</ele>
        <time>2022-06-21T13:50:27Z</time>
      </trkpt>
      <trkpt lat="45.93706" lon="-0.95817">
        <ele>9.9</ele>
        <time>2022-06-21T13:50:28Z</time>
      </trkpt>
      <trkpt lat="45.93705" lon="-0.95817">
        <ele>9.9</ele>
        <time>2022-06-21T13:50:29Z</time>
      </trkpt>
      <trkpt lat="45.93703" lon="-0.95817">
        <ele>9.9</ele>
        <time>2022-06-21T13:50:30Z</time>
      </trkpt>
      <trkpt lat="45.93702" lon="-0.95816">
        <ele>9.9</ele>
        <time>2022-06-21T13:50:31Z</time>
      </trkpt>
      <trkpt lat="45.937" lon="-0.95817">
        <ele>9.8</ele>
        <time>2022-06-21T13:50:33Z</time>
      </trkpt>
      <trkpt lat="45.93699" lon="-0.95817">
        <ele>9.8</ele>
        <time>2022-06-21T13:50:34Z</time>
      </trkpt>
      <trkpt lat="45.93698" lon="-0.95818">
        <ele>9.8</ele>
        <time>2022-06-21T13:50:36Z</time>
      </trkpt>
      <trkpt lat="45.93697" lon="-0.95818">
        <ele>9.8</ele>
        <time>2022-06-21T13:50:37Z</time>
      </trkpt>
      <trkpt lat="45.93698" lon="-0.9582">
        <ele>9.8</ele>
        <time>2022-06-21T13:50:39Z</time>
      </trkpt>
      <trkpt lat="45.93697" lon="-0.95822">
        <ele>9.8</ele>
        <time>2022-06-21T13:50:40Z</time>
      </trkpt>
      <trkpt lat="45.93696" lon="-0.95822">
        <ele>9.8</ele>
        <time>2022-06-21T13:50:41Z</time>
      </trkpt>
      <trkpt lat="45.93695" lon="-0.95822">
        <ele>9.8</ele>
        <time>2022-06-21T13:50:42Z</time>
      </trkpt>
      <trkpt lat="45.93693" lon="-0.95823">
        <ele>9.8</ele>
        <time>2022-06-21T13:50:44Z</time>
      </trkpt>
      <trkpt lat="45.93692" lon="-0.95823">
        <ele>9.7</ele>
        <time>2022-06-21T13:50:45Z</time>
      </trkpt>
      <trkpt lat="45.93691" lon="-0.95824">
        <ele>9.7</ele>
        <time>2022-06-21T13:50:46Z</time>
      </trkpt>
      <trkpt lat="45.93691" lon="-0.95824">
        <ele>9.7</ele>
        <time>2022-06-21T13:50:47Z</time>
      </trkpt>
      <trkpt lat="45.9369" lon="-0.95824">
        <ele>9.7</ele>
        <time>2022-06-21T13:50:48Z</time>
      </trkpt>
      <trkpt lat="45.9369" lon="-0.95825">
        <ele>9.7</ele>
        <time>2022-06-21T13:50:49Z</time>
      </trkpt>
      <trkpt lat="45.9369" lon="-0.95825">
        <ele>9.7</ele>
        <time>2022-06-21T13:50:50Z</time>
      </trkpt>
      <trkpt lat="45.93688" lon="-0.95824">
        <ele>9.7</ele>
        <time>2022-06-21T13:50:52Z</time>
      </trkpt>
      <trkpt lat="45.93688" lon="-0.95823">
        <ele>9.7</ele>
        <time>2022-06-21T13:50:53Z</time>
      </trkpt>
      <trkpt lat="45.93687" lon="-0.95823">
        <ele>9.7</ele>
        <time>2022-06-21T13:50:54Z</time>
      </trkpt>
      <trkpt lat="45.93686" lon="-0.95823">
        <ele>9.7</ele>
        <time>2022-06-21T13:50:56Z</time>
      </trkpt>
      <trkpt lat="45.93685" lon="-0.95823">
        <ele>9.7</ele>
        <time>2022-06-21T13:50:57Z</time>
      </trkpt>
      <trkpt lat="45.93684" lon="-0.95825">
        <ele>9.7</ele>
        <time>2022-06-21T13:50:58Z</time>
      </trkpt>
      <trkpt lat="45.93682" lon="-0.95826">
        <ele>9.7</ele>
        <time>2022-06-21T13:50:59Z</time>
      </trkpt>
      <trkpt lat="45.93681" lon="-0.95827">
        <ele>9.7</ele>
        <time>2022-06-21T13:51:00Z</time>
      </trkpt>
      <trkpt lat="45.9368" lon="-0.95828">
        <ele>9.6</ele>
        <time>2022-06-21T13:51:01Z</time>
      </trkpt>
      <trkpt lat="45.93678" lon="-0.95829">
        <ele>9.6</ele>
        <time>2022-06-21T13:51:03Z</time>
      </trkpt>
      <trkpt lat="45.93677" lon="-0.9583">
        <ele>9.6</ele>
        <time>2022-06-21T13:51:04Z</time>
      </trkpt>
      <trkpt lat="45.93677" lon="-0.9583">
        <ele>9.6</ele>
        <time>2022-06-21T13:51:05Z</time>
      </trkpt>
      <trkpt lat="45.93676" lon="-0.9583">
        <ele>9.6</ele>
        <time>2022-06-21T13:51:06Z</time>
      </trkpt>
      <trkpt lat="45.93675" lon="-0.95829">
        <ele>9.6</ele>
        <time>2022-06-21T13:51:07Z</time>
      </trkpt>
      <trkpt lat="45.93675" lon="-0.95829">
        <ele>9.6</ele>
        <time>2022-06-21T13:51:08Z</time>
      </trkpt>
      <trkpt lat="45.93677" lon="-0.95827">
        <ele>9.6</ele>
        <time>2022-06-21T13:51:10Z</time>
      </trkpt>
      <trkpt lat="45.93677" lon="-0.95826">
        <ele>9.6</ele>
        <time>2022-06-21T13:51:11Z</time>
      </trkpt>
      <trkpt lat="45.93678" lon="-0.95825">
        <ele>9.6</ele>
        <time>2022-06-21T13:51:12Z</time>
      </trkpt>
      <trkpt lat="45.93678" lon="-0.95825">
        <ele>9.6</ele>
        <time>2022-06-21T13:51:13Z</time>
      </trkpt>
      <trkpt lat="45.93678" lon="-0.95824">
        <ele>9.6</ele>
        <time>2022-06-21T13:51:14Z</time>
      </trkpt>
      <trkpt lat="45.93677" lon="-0.95824">
        <ele>9.6</ele>
        <time>2022-06-21T13:51:15Z</time>
      </trkpt>
      <trkpt lat="45.93677" lon="-0.95825">
        <ele>9.6</ele>
        <time>2022-06-21T13:51:16Z</time>
      </trkpt>
      <trkpt lat="45.93676" lon="-0.95825">
        <ele>9.6</ele>
        <time>2022-06-21T13:51:18Z</time>
      </trkpt>
      <trkpt lat="45.93676" lon="-0.95826">
        <ele>9.6</ele>
        <time>2022-06-21T13:51:19Z</time>
      </trkpt>
      <trkpt lat="45.93675" lon="-0.95826">
        <ele>9.6</ele>
        <time>2022-06-21T13:51:20Z</time>
      </trkpt>
      <trkpt lat="45.93674" lon="-0.95827">
        <ele>9.6</ele>
        <time>2022-06-21T13:51:21Z</time>
      </trkpt>
      <trkpt lat="45.93673" lon="-0.95827">
        <ele>9.6</ele>
        <time>2022-06-21T13:51:22Z</time>
      </trkpt>
      <trkpt lat="45.93672" lon="-0.95827">
        <ele>9.6</ele>
        <time>2022-06-21T13:51:23Z</time>
      </trkpt>
      <trkpt lat="45.93671" lon="-0.95827">
        <ele>9.6</ele>
        <time>2022-06-21T13:51:25Z</time>
      </trkpt>
      <trkpt lat="45.9367" lon="-0.95827">
        <ele>9.6</ele>
        <time>2022-06-21T13:51:26Z</time>
      </trkpt>
      <trkpt lat="45.93669" lon="-0.95828">
        <ele>9.6</ele>
        <time>2022-06-21T13:51:27Z</time>
      </trkpt>
      <trkpt lat="45.93667" lon="-0.95829">
        <ele>9.6</ele>
        <time>2022-06-21T13:51:28Z</time>
      </trkpt>
      <trkpt lat="45.93665" lon="-0.95831">
        <ele>9.6</ele>
        <time>2022-06-21T13:51:29Z</time>
      </trkpt>
      <trkpt lat="45.93664" lon="-0.95832">
        <ele>9.6</ele>
        <time>2022-06-21T13:51:30Z</time>
      </trkpt>
      <trkpt lat="45.93661" lon="-0.95833">
        <ele>9.6</ele>
        <time>2022-06-21T13:51:32Z</time>
      </trkpt>
      <trkpt lat="45.93661" lon="-0.95833">
        <ele>9.6</ele>
        <time>2022-06-21T13:51:33Z</time>
      </trkpt>
      <trkpt lat="45.9366" lon="-0.95834">
        <ele>9.6</ele>
        <time>2022-06-21T13:51:34Z</time>
      </trkpt>
      <trkpt lat="45.93657" lon="-0.95835">
        <ele>9.6</ele>
        <time>2022-06-21T13:51:36Z</time>
      </trkpt>
      <trkpt lat="45.93656" lon="-0.95835">
        <ele>9.6</ele>
        <time>2022-06-21T13:51:37Z</time>
      </trkpt>
      <trkpt lat="45.93653" lon="-0.95836">
        <ele>9.6</ele>
        <time>2022-06-21T13:51:38Z</time>
      </trkpt>
      <trkpt lat="45.93651" lon="-0.95837">
        <ele>9.6</ele>
        <time>2022-06-21T13:51:39Z</time>
      </trkpt>
      <trkpt lat="45.9365" lon="-0.95837">
        <ele>9.6</ele>
        <time>2022-06-21T13:51:40Z</time>
      </trkpt>
      <trkpt lat="45.93649" lon="-0.95838">
        <ele>9.6</ele>
        <time>2022-06-21T13:51:41Z</time>
      </trkpt>
      <trkpt lat="45.93647" lon="-0.95838">
        <ele>9.6</ele>
        <time>2022-06-21T13:51:42Z</time>
      </trkpt>
      <trkpt lat="45.93646" lon="-0.95838">
        <ele>9.6</ele>
        <time>2022-06-21T13:51:44Z</time>
      </trkpt>
      <trkpt lat="45.93645" lon="-0.95838">
        <ele>9.6</ele>
        <time>2022-06-21T13:51:46Z</time>
      </trkpt>
      <trkpt lat="45.93644" lon="-0.95837">
        <ele>9.6</ele>
        <time>2022-06-21T13:51:47Z</time>
      </trkpt>
      <trkpt lat="45.93643" lon="-0.95837">
        <ele>9.6</ele>
        <time>2022-06-21T13:51:48Z</time>
      </trkpt>
      <trkpt lat="45.93643" lon="-0.95836">
        <ele>9.6</ele>
        <time>2022-06-21T13:51:49Z</time>
      </trkpt>
      <trkpt lat="45.93641" lon="-0.95837">
        <ele>9.6</ele>
        <time>2022-06-21T13:51:50Z</time>
      </trkpt>
      <trkpt lat="45.93641" lon="-0.95837">
        <ele>9.6</ele>
        <time>2022-06-21T13:51:52Z</time>
      </trkpt>
      <trkpt lat="45.9364" lon="-0.95837">
        <ele>9.6</ele>
        <time>2022-06-21T13:51:53Z</time>
      </trkpt>
      <trkpt lat="45.93639" lon="-0.95837">
        <ele>9.6</ele>
        <time>2022-06-21T13:51:54Z</time>
      </trkpt>
      <trkpt lat="45.93637" lon="-0.95838">
        <ele>9.6</ele>
        <time>2022-06-21T13:51:55Z</time>
      </trkpt>
      <trkpt lat="45.93636" lon="-0.95839">
        <ele>9.6</ele>
        <time>2022-06-21T13:51:57Z</time>
      </trkpt>
      <trkpt lat="45.93635" lon="-0.9584">
        <ele>9.6</ele>
        <time>2022-06-21T13:51:58Z</time>
      </trkpt>
      <trkpt lat="45.93632" lon="-0.95841">
        <ele>9.6</ele>
        <time>2022-06-21T13:51:59Z</time>
      </trkpt>
      <trkpt lat="45.93631" lon="-0.95841">
        <ele>9.6</ele>
        <time>2022-06-21T13:52:00Z</time>
      </trkpt>
      <trkpt lat="45.93629" lon="-0.95841">
        <ele>9.6</ele>
        <time>2022-06-21T13:52:01Z</time>
      </trkpt>
      <trkpt lat="45.93626" lon="-0.9584">
        <ele>9.6</ele>
        <time>2022-06-21T13:52:03Z</time>
      </trkpt>
      <trkpt lat="45.93623" lon="-0.9584">
        <ele>9.6</ele>
        <time>2022-06-21T13:52:04Z</time>
      </trkpt>
      <trkpt lat="45.93622" lon="-0.9584">
        <ele>9.6</ele>
        <time>2022-06-21T13:52:05Z</time>
      </trkpt>
      <trkpt lat="45.93619" lon="-0.9584">
        <ele>9.6</ele>
        <time>2022-06-21T13:52:06Z</time>
      </trkpt>
      <trkpt lat="45.93618" lon="-0.9584">
        <ele>9.6</ele>
        <time>2022-06-21T13:52:07Z</time>
      </trkpt>
      <trkpt lat="45.93614" lon="-0.95843">
        <ele>9.6</ele>
        <time>2022-06-21T13:52:09Z</time>
      </trkpt>
      <trkpt lat="45.93613" lon="-0.95845">
        <ele>9.6</ele>
        <time>2022-06-21T13:52:10Z</time>
      </trkpt>
      <trkpt lat="45.93611" lon="-0.95846">
        <ele>9.6</ele>
        <time>2022-06-21T13:52:11Z</time>
      </trkpt>
      <trkpt lat="45.9361" lon="-0.95845">
        <ele>9.6</ele>
        <time>2022-06-21T13:52:12Z</time>
      </trkpt>
      <trkpt lat="45.93609" lon="-0.95845">
        <ele>9.6</ele>
        <time>2022-06-21T13:52:13Z</time>
      </trkpt>
      <trkpt lat="45.93607" lon="-0.95844">
        <ele>9.6</ele>
        <time>2022-06-21T13:52:14Z</time>
      </trkpt>
      <trkpt lat="45.93605" lon="-0.95843">
        <ele>9.6</ele>
        <time>2022-06-21T13:52:16Z</time>
      </trkpt>
      <trkpt lat="45.93604" lon="-0.95846">
        <ele>9.6</ele>
        <time>2022-06-21T13:52:17Z</time>
      </trkpt>
      <trkpt lat="45.93605" lon="-0.95847">
        <ele>9.6</ele>
        <time>2022-06-21T13:52:18Z</time>
      </trkpt>
      <trkpt lat="45.93605" lon="-0.95848">
        <ele>9.6</ele>
        <time>2022-06-21T13:52:19Z</time>
      </trkpt>
      <trkpt lat="45.93603" lon="-0.95849">
        <ele>9.6</ele>
        <time>2022-06-21T13:52:20Z</time>
      </trkpt>
      <trkpt lat="45.93602" lon="-0.95849">
        <ele>9.6</ele>
        <time>2022-06-21T13:52:21Z</time>
      </trkpt>
      <trkpt lat="45.93601" lon="-0.9585">
        <ele>9.6</ele>
        <time>2022-06-21T13:52:22Z</time>
      </trkpt>
      <trkpt lat="45.93599" lon="-0.9585">
        <ele>9.6</ele>
        <time>2022-06-21T13:52:24Z</time>
      </trkpt>
      <trkpt lat="45.93598" lon="-0.95851">
        <ele>9.6</ele>
        <time>2022-06-21T13:52:25Z</time>
      </trkpt>
      <trkpt lat="45.93597" lon="-0.95851">
        <ele>9.6</ele>
        <time>2022-06-21T13:52:26Z</time>
      </trkpt>
      <trkpt lat="45.93596" lon="-0.95851">
        <ele>9.6</ele>
        <time>2022-06-21T13:52:27Z</time>
      </trkpt>
      <trkpt lat="45.93595" lon="-0.95851">
        <ele>9.6</ele>
        <time>2022-06-21T13:52:28Z</time>
      </trkpt>
      <trkpt lat="45.93595" lon="-0.95851">
        <ele>9.6</ele>
        <time>2022-06-21T13:52:29Z</time>
      </trkpt>
      <trkpt lat="45.93593" lon="-0.95852">
        <ele>9.6</ele>
        <time>2022-06-21T13:52:31Z</time>
      </trkpt>
      <trkpt lat="45.93591" lon="-0.95852">
        <ele>9.7</ele>
        <time>2022-06-21T13:52:32Z</time>
      </trkpt>
      <trkpt lat="45.93588" lon="-0.95853">
        <ele>9.7</ele>
        <time>2022-06-21T13:52:33Z</time>
      </trkpt>
      <trkpt lat="45.93588" lon="-0.95853">
        <ele>9.7</ele>
        <time>2022-06-21T13:52:34Z</time>
      </trkpt>
      <trkpt lat="45.93587" lon="-0.95853">
        <ele>9.7</ele>
        <time>2022-06-21T13:52:35Z</time>
      </trkpt>
      <trkpt lat="45.93586" lon="-0.95854">
        <ele>9.7</ele>
        <time>2022-06-21T13:52:36Z</time>
      </trkpt>
      <trkpt lat="45.93585" lon="-0.95854">
        <ele>9.7</ele>
        <time>2022-06-21T13:52:38Z</time>
      </trkpt>
      <trkpt lat="45.93584" lon="-0.95854">
        <ele>9.7</ele>
        <time>2022-06-21T13:52:39Z</time>
      </trkpt>
      <trkpt lat="45.93583" lon="-0.95854">
        <ele>9.7</ele>
        <time>2022-06-21T13:52:40Z</time>
      </trkpt>
      <trkpt lat="45.93582" lon="-0.95855">
        <ele>9.7</ele>
        <time>2022-06-21T13:52:41Z</time>
      </trkpt>
      <trkpt lat="45.93582" lon="-0.95855">
        <ele>9.7</ele>
        <time>2022-06-21T13:52:42Z</time>
      </trkpt>
      <trkpt lat="45.93581" lon="-0.95854">
        <ele>9.7</ele>
        <time>2022-06-21T13:52:44Z</time>
      </trkpt>
      <trkpt lat="45.93581" lon="-0.95853">
        <ele>9.7</ele>
        <time>2022-06-21T13:52:45Z</time>
      </trkpt>
      <trkpt lat="45.9358" lon="-0.95853">
        <ele>9.7</ele>
        <time>2022-06-21T13:52:46Z</time>
      </trkpt>
      <trkpt lat="45.9358" lon="-0.95853">
        <ele>9.7</ele>
        <time>2022-06-21T13:52:47Z</time>
      </trkpt>
      <trkpt lat="45.9358" lon="-0.95853">
        <ele>9.7</ele>
        <time>2022-06-21T13:52:48Z</time>
      </trkpt>
      <trkpt lat="45.9358" lon="-0.95854">
        <ele>9.7</ele>
        <time>2022-06-21T13:52:49Z</time>
      </trkpt>
      <trkpt lat="45.93579" lon="-0.95855">
        <ele>9.7</ele>
        <time>2022-06-21T13:52:50Z</time>
      </trkpt>
      <trkpt lat="45.93578" lon="-0.95855">
        <ele>9.7</ele>
        <time>2022-06-21T13:52:52Z</time>
      </trkpt>
      <trkpt lat="45.93578" lon="-0.95854">
        <ele>9.7</ele>
        <time>2022-06-21T13:52:53Z</time>
      </trkpt>
      <trkpt lat="45.93575" lon="-0.95851">
        <ele>9.7</ele>
        <time>2022-06-21T13:52:54Z</time>
      </trkpt>
      <trkpt lat="45.93575" lon="-0.95851">
        <ele>9.7</ele>
        <time>2022-06-21T13:52:55Z</time>
      </trkpt>
      <trkpt lat="45.93573" lon="-0.95851">
        <ele>9.7</ele>
        <time>2022-06-21T13:52:57Z</time>
      </trkpt>
      <trkpt lat="45.93572" lon="-0.95851">
        <ele>9.7</ele>
        <time>2022-06-21T13:52:58Z</time>
      </trkpt>
      <trkpt lat="45.93572" lon="-0.95852">
        <ele>9.7</ele>
        <time>2022-06-21T13:52:59Z</time>
      </trkpt>
      <trkpt lat="45.93571" lon="-0.95852">
        <ele>9.7</ele>
        <time>2022-06-21T13:53:00Z</time>
      </trkpt>
      <trkpt lat="45.9357" lon="-0.95852">
        <ele>9.7</ele>
        <time>2022-06-21T13:53:01Z</time>
      </trkpt>
      <trkpt lat="45.9357" lon="-0.95854">
        <ele>9.7</ele>
        <time>2022-06-21T13:53:03Z</time>
      </trkpt>
      <trkpt lat="45.9357" lon="-0.95856">
        <ele>9.7</ele>
        <time>2022-06-21T13:53:04Z</time>
      </trkpt>
      <trkpt lat="45.9357" lon="-0.95859">
        <ele>9.7</ele>
        <time>2022-06-21T13:53:05Z</time>
      </trkpt>
      <trkpt lat="45.93569" lon="-0.95859">
        <ele>9.7</ele>
        <time>2022-06-21T13:53:06Z</time>
      </trkpt>
      <trkpt lat="45.93568" lon="-0.9586">
        <ele>9.7</ele>
        <time>2022-06-21T13:53:07Z</time>
      </trkpt>
      <trkpt lat="45.93566" lon="-0.9586">
        <ele>9.7</ele>
        <time>2022-06-21T13:53:08Z</time>
      </trkpt>
      <trkpt lat="45.93565" lon="-0.95859">
        <ele>9.7</ele>
        <time>2022-06-21T13:53:10Z</time>
      </trkpt>
      <trkpt lat="45.93564" lon="-0.95859">
        <ele>9.7</ele>
        <time>2022-06-21T13:53:11Z</time>
      </trkpt>
      <trkpt lat="45.93564" lon="-0.95858">
        <ele>9.7</ele>
        <time>2022-06-21T13:53:12Z</time>
      </trkpt>
      <trkpt lat="45.93563" lon="-0.95857">
        <ele>9.7</ele>
        <time>2022-06-21T13:53:13Z</time>
      </trkpt>
      <trkpt lat="45.93562" lon="-0.95857">
        <ele>9.7</ele>
        <time>2022-06-21T13:53:14Z</time>
      </trkpt>
      <trkpt lat="45.93563" lon="-0.95857">
        <ele>9.7</ele>
        <time>2022-06-21T13:53:16Z</time>
      </trkpt>
      <trkpt lat="45.93561" lon="-0.95858">
        <ele>9.7</ele>
        <time>2022-06-21T13:53:17Z</time>
      </trkpt>
      <trkpt lat="45.93559" lon="-0.95859">
        <ele>9.7</ele>
        <time>2022-06-21T13:53:18Z</time>
      </trkpt>
      <trkpt lat="45.93556" lon="-0.9586">
        <ele>9.7</ele>
        <time>2022-06-21T13:53:19Z</time>
      </trkpt>
      <trkpt lat="45.93555" lon="-0.9586">
        <ele>9.7</ele>
        <time>2022-06-21T13:53:20Z</time>
      </trkpt>
      <trkpt lat="45.93554" lon="-0.95861">
        <ele>9.7</ele>
        <time>2022-06-21T13:53:21Z</time>
      </trkpt>
      <trkpt lat="45.93553" lon="-0.95861">
        <ele>9.7</ele>
        <time>2022-06-21T13:53:23Z</time>
      </trkpt>
      <trkpt lat="45.93552" lon="-0.95861">
        <ele>9.7</ele>
        <time>2022-06-21T13:53:24Z</time>
      </trkpt>
      <trkpt lat="45.93551" lon="-0.95861">
        <ele>9.6</ele>
        <time>2022-06-21T13:53:25Z</time>
      </trkpt>
      <trkpt lat="45.93548" lon="-0.95862">
        <ele>9.6</ele>
        <time>2022-06-21T13:53:26Z</time>
      </trkpt>
      <trkpt lat="45.93547" lon="-0.95862">
        <ele>9.6</ele>
        <time>2022-06-21T13:53:27Z</time>
      </trkpt>
      <trkpt lat="45.93546" lon="-0.95863">
        <ele>9.6</ele>
        <time>2022-06-21T13:53:28Z</time>
      </trkpt>
      <trkpt lat="45.93544" lon="-0.95863">
        <ele>9.6</ele>
        <time>2022-06-21T13:53:30Z</time>
      </trkpt>
      <trkpt lat="45.93543" lon="-0.95864">
        <ele>9.6</ele>
        <time>2022-06-21T13:53:31Z</time>
      </trkpt>
      <trkpt lat="45.93541" lon="-0.95864">
        <ele>9.6</ele>
        <time>2022-06-21T13:53:32Z</time>
      </trkpt>
      <trkpt lat="45.9354" lon="-0.95864">
        <ele>9.6</ele>
        <time>2022-06-21T13:53:33Z</time>
      </trkpt>
      <trkpt lat="45.93539" lon="-0.95863">
        <ele>9.6</ele>
        <time>2022-06-21T13:53:34Z</time>
      </trkpt>
      <trkpt lat="45.93538" lon="-0.95863">
        <ele>9.6</ele>
        <time>2022-06-21T13:53:35Z</time>
      </trkpt>
      <trkpt lat="45.93538" lon="-0.95861">
        <ele>9.6</ele>
        <time>2022-06-21T13:53:37Z</time>
      </trkpt>
      <trkpt lat="45.93538" lon="-0.9586">
        <ele>9.6</ele>
        <time>2022-06-21T13:53:38Z</time>
      </trkpt>
      <trkpt lat="45.93537" lon="-0.95859">
        <ele>9.6</ele>
        <time>2022-06-21T13:53:39Z</time>
      </trkpt>
      <trkpt lat="45.93537" lon="-0.95857">
        <ele>9.6</ele>
        <time>2022-06-21T13:53:40Z</time>
      </trkpt>
      <trkpt lat="45.93536" lon="-0.95856">
        <ele>9.6</ele>
        <time>2022-06-21T13:53:41Z</time>
      </trkpt>
      <trkpt lat="45.93535" lon="-0.95856">
        <ele>9.6</ele>
        <time>2022-06-21T13:53:42Z</time>
      </trkpt>
      <trkpt lat="45.93534" lon="-0.95856">
        <ele>9.6</ele>
        <time>2022-06-21T13:53:43Z</time>
      </trkpt>
      <trkpt lat="45.93532" lon="-0.95856">
        <ele>9.6</ele>
        <time>2022-06-21T13:53:44Z</time>
      </trkpt>
      <trkpt lat="45.93531" lon="-0.95856">
        <ele>9.6</ele>
        <time>2022-06-21T13:53:45Z</time>
      </trkpt>
      <trkpt lat="45.93531" lon="-0.95856">
        <ele>9.6</ele>
        <time>2022-06-21T13:53:46Z</time>
      </trkpt>
      <trkpt lat="45.93529" lon="-0.9586">
        <ele>9.6</ele>
        <time>2022-06-21T13:53:47Z</time>
      </trkpt>
      <trkpt lat="45.93528" lon="-0.9586">
        <ele>9.6</ele>
        <time>2022-06-21T13:53:48Z</time>
      </trkpt>
      <trkpt lat="45.93527" lon="-0.95859">
        <ele>9.6</ele>
        <time>2022-06-21T13:53:49Z</time>
      </trkpt>
      <trkpt lat="45.93525" lon="-0.9586">
        <ele>9.6</ele>
        <time>2022-06-21T13:53:50Z</time>
      </trkpt>
      <trkpt lat="45.93524" lon="-0.9586">
        <ele>9.6</ele>
        <time>2022-06-21T13:53:52Z</time>
      </trkpt>
      <trkpt lat="45.93523" lon="-0.95861">
        <ele>9.6</ele>
        <time>2022-06-21T13:53:53Z</time>
      </trkpt>
      <trkpt lat="45.93522" lon="-0.95862">
        <ele>9.6</ele>
        <time>2022-06-21T13:53:54Z</time>
      </trkpt>
      <trkpt lat="45.93522" lon="-0.95863">
        <ele>9.6</ele>
        <time>2022-06-21T13:53:55Z</time>
      </trkpt>
      <trkpt lat="45.93522" lon="-0.95864">
        <ele>9.6</ele>
        <time>2022-06-21T13:53:56Z</time>
      </trkpt>
      <trkpt lat="45.93522" lon="-0.95865">
        <ele>9.6</ele>
        <time>2022-06-21T13:53:57Z</time>
      </trkpt>
      <trkpt lat="45.93522" lon="-0.95868">
        <ele>9.6</ele>
        <time>2022-06-21T13:53:58Z</time>
      </trkpt>
      <trkpt lat="45.93522" lon="-0.95872">
        <ele>9.6</ele>
        <time>2022-06-21T13:54:00Z</time>
      </trkpt>
      <trkpt lat="45.93522" lon="-0.95873">
        <ele>9.6</ele>
        <time>2022-06-21T13:54:01Z</time>
      </trkpt>
      <trkpt lat="45.93522" lon="-0.95875">
        <ele>9.6</ele>
        <time>2022-06-21T13:54:02Z</time>
      </trkpt>
      <trkpt lat="45.93522" lon="-0.95877">
        <ele>9.6</ele>
        <time>2022-06-21T13:54:03Z</time>
      </trkpt>
      <trkpt lat="45.93523" lon="-0.95881">
        <ele>9.6</ele>
        <time>2022-06-21T13:54:04Z</time>
      </trkpt>
      <trkpt lat="45.93523" lon="-0.95882">
        <ele>9.6</ele>
        <time>2022-06-21T13:54:06Z</time>
      </trkpt>
      <trkpt lat="45.93524" lon="-0.95884">
        <ele>9.6</ele>
        <time>2022-06-21T13:54:07Z</time>
      </trkpt>
      <trkpt lat="45.93524" lon="-0.95885">
        <ele>9.6</ele>
        <time>2022-06-21T13:54:08Z</time>
      </trkpt>
      <trkpt lat="45.93525" lon="-0.95887">
        <ele>9.6</ele>
        <time>2022-06-21T13:54:09Z</time>
      </trkpt>
      <trkpt lat="45.93526" lon="-0.95888">
        <ele>9.6</ele>
        <time>2022-06-21T13:54:10Z</time>
      </trkpt>
      <trkpt lat="45.93526" lon="-0.95889">
        <ele>9.6</ele>
        <time>2022-06-21T13:54:12Z</time>
      </trkpt>
      <trkpt lat="45.93527" lon="-0.9589">
        <ele>9.6</ele>
        <time>2022-06-21T13:54:13Z</time>
      </trkpt>
      <trkpt lat="45.93527" lon="-0.95892">
        <ele>9.6</ele>
        <time>2022-06-21T13:54:14Z</time>
      </trkpt>
      <trkpt lat="45.93526" lon="-0.95893">
        <ele>9.6</ele>
        <time>2022-06-21T13:54:15Z</time>
      </trkpt>
      <trkpt lat="45.93526" lon="-0.95893">
        <ele>9.6</ele>
        <time>2022-06-21T13:54:16Z</time>
      </trkpt>
      <trkpt lat="45.93526" lon="-0.95893">
        <ele>9.6</ele>
        <time>2022-06-21T13:54:17Z</time>
      </trkpt>
      <trkpt lat="45.93526" lon="-0.95894">
        <ele>9.6</ele>
        <time>2022-06-21T13:54:18Z</time>
      </trkpt>
      <trkpt lat="45.93525" lon="-0.95894">
        <ele>9.6</ele>
        <time>2022-06-21T13:54:20Z</time>
      </trkpt>
      <trkpt lat="45.93525" lon="-0.95894">
        <ele>9.6</ele>
        <time>2022-06-21T13:54:21Z</time>
      </trkpt>
      <trkpt lat="45.93525" lon="-0.95894">
        <ele>9.6</ele>
        <time>2022-06-21T13:54:22Z</time>
      </trkpt>
      <trkpt lat="45.93525" lon="-0.95894">
        <ele>9.6</ele>
        <time>2022-06-21T13:54:23Z</time>
      </trkpt>
      <trkpt lat="45.93524" lon="-0.95894">
        <ele>9.6</ele>
        <time>2022-06-21T13:54:24Z</time>
      </trkpt>
      <trkpt lat="45.93524" lon="-0.95895">
        <ele>9.6</ele>
        <time>2022-06-21T13:54:25Z</time>
      </trkpt>
      <trkpt lat="45.93523" lon="-0.95895">
        <ele>9.6</ele>
        <time>2022-06-21T13:54:26Z</time>
      </trkpt>
      <trkpt lat="45.93523" lon="-0.95895">
        <ele>9.6</ele>
        <time>2022-06-21T13:54:27Z</time>
      </trkpt>
      <trkpt lat="45.93523" lon="-0.95895">
        <ele>9.6</ele>
        <time>2022-06-21T13:54:28Z</time>
      </trkpt>
      <trkpt lat="45.93522" lon="-0.95895">
        <ele>9.6</ele>
        <time>2022-06-21T13:54:29Z</time>
      </trkpt>
      <trkpt lat="45.93522" lon="-0.95895">
        <ele>9.6</ele>
        <time>2022-06-21T13:54:30Z</time>
      </trkpt>
      <trkpt lat="45.93522" lon="-0.95895">
        <ele>9.6</ele>
        <time>2022-06-21T13:54:31Z</time>
      </trkpt>
      <trkpt lat="45.93522" lon="-0.95895">
        <ele>9.6</ele>
        <time>2022-06-21T13:54:32Z</time>
      </trkpt>
      <trkpt lat="45.93522" lon="-0.95896">
        <ele>9.6</ele>
        <time>2022-06-21T13:54:33Z</time>
      </trkpt>
      <trkpt lat="45.93522" lon="-0.95898">
        <ele>9.6</ele>
        <time>2022-06-21T13:54:35Z</time>
      </trkpt>
      <trkpt lat="45.93521" lon="-0.95899">
        <ele>9.6</ele>
        <time>2022-06-21T13:54:36Z</time>
      </trkpt>
      <trkpt lat="45.93521" lon="-0.95901">
        <ele>9.6</ele>
        <time>2022-06-21T13:54:37Z</time>
      </trkpt>
      <trkpt lat="45.9352" lon="-0.95901">
        <ele>9.6</ele>
        <time>2022-06-21T13:54:39Z</time>
      </trkpt>
      <trkpt lat="45.9352" lon="-0.95901">
        <ele>9.6</ele>
        <time>2022-06-21T13:54:40Z</time>
      </trkpt>
      <trkpt lat="45.93518" lon="-0.959">
        <ele>9.6</ele>
        <time>2022-06-21T13:54:42Z</time>
      </trkpt>
      <trkpt lat="45.93518" lon="-0.959">
        <ele>9.6</ele>
        <time>2022-06-21T13:54:43Z</time>
      </trkpt>
      <trkpt lat="45.93517" lon="-0.959">
        <ele>9.6</ele>
        <time>2022-06-21T13:54:44Z</time>
      </trkpt>
      <trkpt lat="45.93516" lon="-0.95901">
        <ele>9.6</ele>
        <time>2022-06-21T13:54:46Z</time>
      </trkpt>
      <trkpt lat="45.93515" lon="-0.95901">
        <ele>9.6</ele>
        <time>2022-06-21T13:54:47Z</time>
      </trkpt>
      <trkpt lat="45.93514" lon="-0.95901">
        <ele>9.6</ele>
        <time>2022-06-21T13:54:48Z</time>
      </trkpt>
      <trkpt lat="45.93514" lon="-0.959">
        <ele>9.6</ele>
        <time>2022-06-21T13:54:49Z</time>
      </trkpt>
      <trkpt lat="45.93514" lon="-0.95899">
        <ele>9.6</ele>
        <time>2022-06-21T13:54:50Z</time>
      </trkpt>
      <trkpt lat="45.93514" lon="-0.95898">
        <ele>9.6</ele>
        <time>2022-06-21T13:54:51Z</time>
      </trkpt>
      <trkpt lat="45.93514" lon="-0.95896">
        <ele>9.6</ele>
        <time>2022-06-21T13:54:53Z</time>
      </trkpt>
      <trkpt lat="45.93514" lon="-0.95894">
        <ele>9.6</ele>
        <time>2022-06-21T13:54:54Z</time>
      </trkpt>
      <trkpt lat="45.93514" lon="-0.95893">
        <ele>9.6</ele>
        <time>2022-06-21T13:54:55Z</time>
      </trkpt>
      <trkpt lat="45.93514" lon="-0.95891">
        <ele>9.6</ele>
        <time>2022-06-21T13:54:56Z</time>
      </trkpt>
      <trkpt lat="45.93514" lon="-0.9589">
        <ele>9.6</ele>
        <time>2022-06-21T13:54:57Z</time>
      </trkpt>
      <trkpt lat="45.93514" lon="-0.95889">
        <ele>9.6</ele>
        <time>2022-06-21T13:54:58Z</time>
      </trkpt>
      <trkpt lat="45.93514" lon="-0.95888">
        <ele>9.6</ele>
        <time>2022-06-21T13:54:59Z</time>
      </trkpt>
      <trkpt lat="45.93513" lon="-0.95887">
        <ele>9.6</ele>
        <time>2022-06-21T13:55:01Z</time>
      </trkpt>
      <trkpt lat="45.93513" lon="-0.95886">
        <ele>9.7</ele>
        <time>2022-06-21T13:55:02Z</time>
      </trkpt>
      <trkpt lat="45.93513" lon="-0.95885">
        <ele>9.7</ele>
        <time>2022-06-21T13:55:03Z</time>
      </trkpt>
      <trkpt lat="45.93513" lon="-0.95884">
        <ele>9.7</ele>
        <time>2022-06-21T13:55:04Z</time>
      </trkpt>
      <trkpt lat="45.93513" lon="-0.95882">
        <ele>9.7</ele>
        <time>2022-06-21T13:55:05Z</time>
      </trkpt>
      <trkpt lat="45.93513" lon="-0.95881">
        <ele>9.7</ele>
        <time>2022-06-21T13:55:06Z</time>
      </trkpt>
      <trkpt lat="45.93512" lon="-0.9588">
        <ele>9.7</ele>
        <time>2022-06-21T13:55:07Z</time>
      </trkpt>
      <trkpt lat="45.93512" lon="-0.95878">
        <ele>9.7</ele>
        <time>2022-06-21T13:55:09Z</time>
      </trkpt>
      <trkpt lat="45.93511" lon="-0.95876">
        <ele>9.7</ele>
        <time>2022-06-21T13:55:10Z</time>
      </trkpt>
      <trkpt lat="45.93509" lon="-0.95874">
        <ele>9.7</ele>
        <time>2022-06-21T13:55:11Z</time>
      </trkpt>
      <trkpt lat="45.93508" lon="-0.95873">
        <ele>9.7</ele>
        <time>2022-06-21T13:55:12Z</time>
      </trkpt>
      <trkpt lat="45.93507" lon="-0.95873">
        <ele>9.7</ele>
        <time>2022-06-21T13:55:13Z</time>
      </trkpt>
      <trkpt lat="45.93504" lon="-0.95873">
        <ele>9.7</ele>
        <time>2022-06-21T13:55:14Z</time>
      </trkpt>
      <trkpt lat="45.93502" lon="-0.95873">
        <ele>9.7</ele>
        <time>2022-06-21T13:55:15Z</time>
      </trkpt>
      <trkpt lat="45.93499" lon="-0.95873">
        <ele>9.8</ele>
        <time>2022-06-21T13:55:17Z</time>
      </trkpt>
      <trkpt lat="45.93498" lon="-0.95874">
        <ele>9.8</ele>
        <time>2022-06-21T13:55:18Z</time>
      </trkpt>
      <trkpt lat="45.93497" lon="-0.95874">
        <ele>9.8</ele>
        <time>2022-06-21T13:55:19Z</time>
      </trkpt>
      <trkpt lat="45.93496" lon="-0.95874">
        <ele>9.8</ele>
        <time>2022-06-21T13:55:20Z</time>
      </trkpt>
      <trkpt lat="45.93494" lon="-0.95874">
        <ele>9.8</ele>
        <time>2022-06-21T13:55:21Z</time>
      </trkpt>
      <trkpt lat="45.93492" lon="-0.95874">
        <ele>9.8</ele>
        <time>2022-06-21T13:55:22Z</time>
      </trkpt>
      <trkpt lat="45.93491" lon="-0.95874">
        <ele>9.8</ele>
        <time>2022-06-21T13:55:24Z</time>
      </trkpt>
      <trkpt lat="45.9349" lon="-0.95874">
        <ele>9.8</ele>
        <time>2022-06-21T13:55:25Z</time>
      </trkpt>
      <trkpt lat="45.93489" lon="-0.95875">
        <ele>9.8</ele>
        <time>2022-06-21T13:55:26Z</time>
      </trkpt>
      <trkpt lat="45.93488" lon="-0.95875">
        <ele>9.8</ele>
        <time>2022-06-21T13:55:27Z</time>
      </trkpt>
      <trkpt lat="45.93487" lon="-0.95876">
        <ele>9.8</ele>
        <time>2022-06-21T13:55:28Z</time>
      </trkpt>
      <trkpt lat="45.93487" lon="-0.95876">
        <ele>9.8</ele>
        <time>2022-06-21T13:55:29Z</time>
      </trkpt>
      <trkpt lat="45.93486" lon="-0.95876">
        <ele>9.8</ele>
        <time>2022-06-21T13:55:30Z</time>
      </trkpt>
      <trkpt lat="45.93486" lon="-0.95876">
        <ele>9.8</ele>
        <time>2022-06-21T13:55:32Z</time>
      </trkpt>
      <trkpt lat="45.93486" lon="-0.95876">
        <ele>9.8</ele>
        <time>2022-06-21T13:55:33Z</time>
      </trkpt>
      <trkpt lat="45.93485" lon="-0.95876">
        <ele>9.8</ele>
        <time>2022-06-21T13:55:34Z</time>
      </trkpt>
      <trkpt lat="45.93485" lon="-0.95876">
        <ele>9.8</ele>
        <time>2022-06-21T13:55:35Z</time>
      </trkpt>
      <trkpt lat="45.93485" lon="-0.95876">
        <ele>9.8</ele>
        <time>2022-06-21T13:55:36Z</time>
      </trkpt>
      <trkpt lat="45.93484" lon="-0.95877">
        <ele>9.8</ele>
        <time>2022-06-21T13:55:37Z</time>
      </trkpt>
      <trkpt lat="45.93483" lon="-0.95877">
        <ele>9.8</ele>
        <time>2022-06-21T13:55:39Z</time>
      </trkpt>
      <trkpt lat="45.93482" lon="-0.95877">
        <ele>9.8</ele>
        <time>2022-06-21T13:55:40Z</time>
      </trkpt>
      <trkpt lat="45.93481" lon="-0.95877">
        <ele>9.8</ele>
        <time>2022-06-21T13:55:41Z</time>
      </trkpt>
      <trkpt lat="45.93481" lon="-0.95877">
        <ele>9.8</ele>
        <time>2022-06-21T13:55:42Z</time>
      </trkpt>
      <trkpt lat="45.9348" lon="-0.95878">
        <ele>9.8</ele>
        <time>2022-06-21T13:55:43Z</time>
      </trkpt>
      <trkpt lat="45.93479" lon="-0.95878">
        <ele>9.9</ele>
        <time>2022-06-21T13:55:44Z</time>
      </trkpt>
      <trkpt lat="45.93479" lon="-0.95878">
        <ele>9.9</ele>
        <time>2022-06-21T13:55:46Z</time>
      </trkpt>
      <trkpt lat="45.93478" lon="-0.95879">
        <ele>9.9</ele>
        <time>2022-06-21T13:55:47Z</time>
      </trkpt>
      <trkpt lat="45.93478" lon="-0.95879">
        <ele>9.9</ele>
        <time>2022-06-21T13:55:48Z</time>
      </trkpt>
      <trkpt lat="45.93477" lon="-0.95879">
        <ele>9.9</ele>
        <time>2022-06-21T13:55:49Z</time>
      </trkpt>
      <trkpt lat="45.93476" lon="-0.95879">
        <ele>9.9</ele>
        <time>2022-06-21T13:55:50Z</time>
      </trkpt>
      <trkpt lat="45.93476" lon="-0.9588">
        <ele>9.9</ele>
        <time>2022-06-21T13:55:51Z</time>
      </trkpt>
      <trkpt lat="45.93475" lon="-0.9588">
        <ele>9.9</ele>
        <time>2022-06-21T13:55:53Z</time>
      </trkpt>
      <trkpt lat="45.93474" lon="-0.9588">
        <ele>9.9</ele>
        <time>2022-06-21T13:55:54Z</time>
      </trkpt>
      <trkpt lat="45.93474" lon="-0.95881">
        <ele>9.9</ele>
        <time>2022-06-21T13:55:55Z</time>
      </trkpt>
      <trkpt lat="45.93474" lon="-0.95882">
        <ele>9.9</ele>
        <time>2022-06-21T13:55:56Z</time>
      </trkpt>
      <trkpt lat="45.93474" lon="-0.95884">
        <ele>9.9</ele>
        <time>2022-06-21T13:55:57Z</time>
      </trkpt>
      <trkpt lat="45.93473" lon="-0.95888">
        <ele>9.9</ele>
        <time>2022-06-21T13:55:59Z</time>
      </trkpt>
      <trkpt lat="45.93472" lon="-0.9589">
        <ele>9.9</ele>
        <time>2022-06-21T13:56:00Z</time>
      </trkpt>
      <trkpt lat="45.93472" lon="-0.95893">
        <ele>9.9</ele>
        <time>2022-06-21T13:56:02Z</time>
      </trkpt>
      <trkpt lat="45.93471" lon="-0.95895">
        <ele>9.9</ele>
        <time>2022-06-21T13:56:06Z</time>
      </trkpt>
      <trkpt lat="45.9347" lon="-0.95898">
        <ele>9.9</ele>
        <time>2022-06-21T13:56:07Z</time>
      </trkpt>
      <trkpt lat="45.93469" lon="-0.959">
        <ele>9.9</ele>
        <time>2022-06-21T13:56:09Z</time>
      </trkpt>
      <trkpt lat="45.93465" lon="-0.95901">
        <ele>9.9</ele>
        <time>2022-06-21T13:56:11Z</time>
      </trkpt>
      <trkpt lat="45.93465" lon="-0.95901">
        <ele>9.9</ele>
        <time>2022-06-21T13:56:12Z</time>
      </trkpt>
      <trkpt lat="45.93464" lon="-0.95902">
        <ele>10</ele>
        <time>2022-06-21T13:56:13Z</time>
      </trkpt>
      <trkpt lat="45.93464" lon="-0.95902">
        <ele>10</ele>
        <time>2022-06-21T13:56:14Z</time>
      </trkpt>
      <trkpt lat="45.93463" lon="-0.95902">
        <ele>10</ele>
        <time>2022-06-21T13:56:15Z</time>
      </trkpt>
      <trkpt lat="45.93462" lon="-0.95902">
        <ele>10</ele>
        <time>2022-06-21T13:56:16Z</time>
      </trkpt>
      <trkpt lat="45.93462" lon="-0.95902">
        <ele>10</ele>
        <time>2022-06-21T13:56:17Z</time>
      </trkpt>
      <trkpt lat="45.93461" lon="-0.95901">
        <ele>10</ele>
        <time>2022-06-21T13:56:18Z</time>
      </trkpt>
      <trkpt lat="45.93461" lon="-0.95901">
        <ele>10</ele>
        <time>2022-06-21T13:56:19Z</time>
      </trkpt>
      <trkpt lat="45.9346" lon="-0.959">
        <ele>10</ele>
        <time>2022-06-21T13:56:21Z</time>
      </trkpt>
      <trkpt lat="45.9346" lon="-0.959">
        <ele>10</ele>
        <time>2022-06-21T13:56:22Z</time>
      </trkpt>
      <trkpt lat="45.9346" lon="-0.959">
        <ele>10</ele>
        <time>2022-06-21T13:56:23Z</time>
      </trkpt>
      <trkpt lat="45.93459" lon="-0.959">
        <ele>10</ele>
        <time>2022-06-21T13:56:24Z</time>
      </trkpt>
      <trkpt lat="45.93459" lon="-0.95901">
        <ele>10</ele>
        <time>2022-06-21T13:56:27Z</time>
      </trkpt>
      <trkpt lat="45.93458" lon="-0.95901">
        <ele>10</ele>
        <time>2022-06-21T13:56:28Z</time>
      </trkpt>
      <trkpt lat="45.93458" lon="-0.95902">
        <ele>10</ele>
        <time>2022-06-21T13:56:29Z</time>
      </trkpt>
      <trkpt lat="45.93457" lon="-0.95903">
        <ele>10</ele>
        <time>2022-06-21T13:56:30Z</time>
      </trkpt>
      <trkpt lat="45.93457" lon="-0.95904">
        <ele>10</ele>
        <time>2022-06-21T13:56:32Z</time>
      </trkpt>
      <trkpt lat="45.93456" lon="-0.95905">
        <ele>10</ele>
        <time>2022-06-21T13:56:33Z</time>
      </trkpt>
      <trkpt lat="45.93455" lon="-0.95905">
        <ele>10.4</ele>
        <time>2022-06-21T13:56:34Z</time>
      </trkpt>
      <trkpt lat="45.93455" lon="-0.95906">
        <ele>10.4</ele>
        <time>2022-06-21T13:56:35Z</time>
      </trkpt>
      <trkpt lat="45.93455" lon="-0.95908">
        <ele>10.4</ele>
        <time>2022-06-21T13:56:37Z</time>
      </trkpt>
      <trkpt lat="45.93456" lon="-0.95908">
        <ele>10.4</ele>
        <time>2022-06-21T13:56:38Z</time>
      </trkpt>
      <trkpt lat="45.93456" lon="-0.95909">
        <ele>10.4</ele>
        <time>2022-06-21T13:56:39Z</time>
      </trkpt>
      <trkpt lat="45.93457" lon="-0.9591">
        <ele>10.4</ele>
        <time>2022-06-21T13:56:40Z</time>
      </trkpt>
      <trkpt lat="45.93458" lon="-0.95911">
        <ele>10.4</ele>
        <time>2022-06-21T13:56:41Z</time>
      </trkpt>
      <trkpt lat="45.93458" lon="-0.95913">
        <ele>10.4</ele>
        <time>2022-06-21T13:56:43Z</time>
      </trkpt>
      <trkpt lat="45.93459" lon="-0.95914">
        <ele>10.5</ele>
        <time>2022-06-21T13:56:44Z</time>
      </trkpt>
      <trkpt lat="45.9346" lon="-0.95916">
        <ele>10.5</ele>
        <time>2022-06-21T13:56:45Z</time>
      </trkpt>
      <trkpt lat="45.9346" lon="-0.95918">
        <ele>10.5</ele>
        <time>2022-06-21T13:56:46Z</time>
      </trkpt>
      <trkpt lat="45.9346" lon="-0.95921">
        <ele>10.5</ele>
        <time>2022-06-21T13:56:47Z</time>
      </trkpt>
      <trkpt lat="45.9346" lon="-0.95923">
        <ele>10.5</ele>
        <time>2022-06-21T13:56:48Z</time>
      </trkpt>
      <trkpt lat="45.93458" lon="-0.95926">
        <ele>10.6</ele>
        <time>2022-06-21T13:56:50Z</time>
      </trkpt>
      <trkpt lat="45.93457" lon="-0.9593">
        <ele>10.6</ele>
        <time>2022-06-21T13:56:51Z</time>
      </trkpt>
      <trkpt lat="45.93457" lon="-0.95932">
        <ele>10.6</ele>
        <time>2022-06-21T13:56:52Z</time>
      </trkpt>
      <trkpt lat="45.9346" lon="-0.95934">
        <ele>10.6</ele>
        <time>2022-06-21T13:56:53Z</time>
      </trkpt>
      <trkpt lat="45.93461" lon="-0.95935">
        <ele>10.7</ele>
        <time>2022-06-21T13:56:54Z</time>
      </trkpt>
      <trkpt lat="45.93462" lon="-0.95937">
        <ele>10.7</ele>
        <time>2022-06-21T13:56:55Z</time>
      </trkpt>
      <trkpt lat="45.93463" lon="-0.95938">
        <ele>10.7</ele>
        <time>2022-06-21T13:56:56Z</time>
      </trkpt>
      <trkpt lat="45.93464" lon="-0.9594">
        <ele>10.7</ele>
        <time>2022-06-21T13:56:58Z</time>
      </trkpt>
      <trkpt lat="45.93465" lon="-0.95941">
        <ele>10.7</ele>
        <time>2022-06-21T13:56:59Z</time>
      </trkpt>
      <trkpt lat="45.93467" lon="-0.95943">
        <ele>10.8</ele>
        <time>2022-06-21T13:57:00Z</time>
      </trkpt>
      <trkpt lat="45.93467" lon="-0.95944">
        <ele>10.8</ele>
        <time>2022-06-21T13:57:01Z</time>
      </trkpt>
      <trkpt lat="45.93468" lon="-0.95945">
        <ele>10.8</ele>
        <time>2022-06-21T13:57:02Z</time>
      </trkpt>
      <trkpt lat="45.93468" lon="-0.95947">
        <ele>10.8</ele>
        <time>2022-06-21T13:57:03Z</time>
      </trkpt>
      <trkpt lat="45.93468" lon="-0.95949">
        <ele>10.8</ele>
        <time>2022-06-21T13:57:04Z</time>
      </trkpt>
      <trkpt lat="45.93468" lon="-0.9595">
        <ele>10.9</ele>
        <time>2022-06-21T13:57:06Z</time>
      </trkpt>
      <trkpt lat="45.93468" lon="-0.95952">
        <ele>10.9</ele>
        <time>2022-06-21T13:57:07Z</time>
      </trkpt>
      <trkpt lat="45.93469" lon="-0.95955">
        <ele>10.9</ele>
        <time>2022-06-21T13:57:09Z</time>
      </trkpt>
      <trkpt lat="45.9347" lon="-0.95957">
        <ele>10.9</ele>
        <time>2022-06-21T13:57:10Z</time>
      </trkpt>
      <trkpt lat="45.9347" lon="-0.95956">
        <ele>10.9</ele>
        <time>2022-06-21T13:57:11Z</time>
      </trkpt>
      <trkpt lat="45.9347" lon="-0.95956">
        <ele>10.9</ele>
        <time>2022-06-21T13:57:12Z</time>
      </trkpt>
      <trkpt lat="45.9347" lon="-0.95956">
        <ele>10.9</ele>
        <time>2022-06-21T13:57:13Z</time>
      </trkpt>
      <trkpt lat="45.93469" lon="-0.95956">
        <ele>10.9</ele>
        <time>2022-06-21T13:57:15Z</time>
      </trkpt>
      <trkpt lat="45.93468" lon="-0.95955">
        <ele>11</ele>
        <time>2022-06-21T13:57:16Z</time>
      </trkpt>
      <trkpt lat="45.93468" lon="-0.95955">
        <ele>11</ele>
        <time>2022-06-21T13:57:17Z</time>
      </trkpt>
      <trkpt lat="45.93468" lon="-0.95955">
        <ele>11</ele>
        <time>2022-06-21T13:57:18Z</time>
      </trkpt>
      <trkpt lat="45.93468" lon="-0.95954">
        <ele>11</ele>
        <time>2022-06-21T13:57:19Z</time>
      </trkpt>
      <trkpt lat="45.93467" lon="-0.95954">
        <ele>11</ele>
        <time>2022-06-21T13:57:20Z</time>
      </trkpt>
      <trkpt lat="45.93467" lon="-0.95954">
        <ele>11</ele>
        <time>2022-06-21T13:57:21Z</time>
      </trkpt>
      <trkpt lat="45.93467" lon="-0.95955">
        <ele>11</ele>
        <time>2022-06-21T13:57:22Z</time>
      </trkpt>
      <trkpt lat="45.93467" lon="-0.95955">
        <ele>11</ele>
        <time>2022-06-21T13:57:23Z</time>
      </trkpt>
      <trkpt lat="45.93467" lon="-0.95955">
        <ele>11</ele>
        <time>2022-06-21T13:57:24Z</time>
      </trkpt>
      <trkpt lat="45.93467" lon="-0.95955">
        <ele>11</ele>
        <time>2022-06-21T13:57:25Z</time>
      </trkpt>
      <trkpt lat="45.93467" lon="-0.95955">
        <ele>11</ele>
        <time>2022-06-21T13:57:26Z</time>
      </trkpt>
      <trkpt lat="45.93467" lon="-0.95955">
        <ele>11</ele>
        <time>2022-06-21T13:57:27Z</time>
      </trkpt>
      <trkpt lat="45.93467" lon="-0.95955">
        <ele>11</ele>
        <time>2022-06-21T13:57:28Z</time>
      </trkpt>
      <trkpt lat="45.93467" lon="-0.95955">
        <ele>11</ele>
        <time>2022-06-21T13:57:29Z</time>
      </trkpt>
      <trkpt lat="45.93467" lon="-0.95955">
        <ele>11</ele>
        <time>2022-06-21T13:57:30Z</time>
      </trkpt>
      <trkpt lat="45.93467" lon="-0.95956">
        <ele>11</ele>
        <time>2022-06-21T13:57:32Z</time>
      </trkpt>
      <trkpt lat="45.93467" lon="-0.95957">
        <ele>11</ele>
        <time>2022-06-21T13:57:33Z</time>
      </trkpt>
      <trkpt lat="45.93468" lon="-0.95958">
        <ele>11</ele>
        <time>2022-06-21T13:57:34Z</time>
      </trkpt>
      <trkpt lat="45.93468" lon="-0.95959">
        <ele>11</ele>
        <time>2022-06-21T13:57:35Z</time>
      </trkpt>
      <trkpt lat="45.93468" lon="-0.9596">
        <ele>11</ele>
        <time>2022-06-21T13:57:36Z</time>
      </trkpt>
      <trkpt lat="45.93467" lon="-0.95961">
        <ele>11</ele>
        <time>2022-06-21T13:57:37Z</time>
      </trkpt>
      <trkpt lat="45.93467" lon="-0.95961">
        <ele>11.1</ele>
        <time>2022-06-21T13:57:38Z</time>
      </trkpt>
      <trkpt lat="45.93467" lon="-0.95961">
        <ele>11.1</ele>
        <time>2022-06-21T13:57:39Z</time>
      </trkpt>
      <trkpt lat="45.93467" lon="-0.95961">
        <ele>11.1</ele>
        <time>2022-06-21T13:57:40Z</time>
      </trkpt>
      <trkpt lat="45.93467" lon="-0.9596">
        <ele>11.1</ele>
        <time>2022-06-21T13:57:41Z</time>
      </trkpt>
      <trkpt lat="45.93467" lon="-0.9596">
        <ele>11.1</ele>
        <time>2022-06-21T13:57:42Z</time>
      </trkpt>
      <trkpt lat="45.93468" lon="-0.9596">
        <ele>11.1</ele>
        <time>2022-06-21T13:57:43Z</time>
      </trkpt>
      <trkpt lat="45.93468" lon="-0.9596">
        <ele>11.1</ele>
        <time>2022-06-21T13:57:44Z</time>
      </trkpt>
      <trkpt lat="45.93468" lon="-0.95961">
        <ele>11.1</ele>
        <time>2022-06-21T13:57:45Z</time>
      </trkpt>
      <trkpt lat="45.93468" lon="-0.95961">
        <ele>11.1</ele>
        <time>2022-06-21T13:57:46Z</time>
      </trkpt>
      <trkpt lat="45.93468" lon="-0.95961">
        <ele>11.1</ele>
        <time>2022-06-21T13:57:47Z</time>
      </trkpt>
      <trkpt lat="45.93468" lon="-0.95962">
        <ele>11.1</ele>
        <time>2022-06-21T13:57:48Z</time>
      </trkpt>
      <trkpt lat="45.93468" lon="-0.95964">
        <ele>11.1</ele>
        <time>2022-06-21T13:57:50Z</time>
      </trkpt>
      <trkpt lat="45.93469" lon="-0.95966">
        <ele>11.1</ele>
        <time>2022-06-21T13:57:51Z</time>
      </trkpt>
      <trkpt lat="45.93469" lon="-0.95968">
        <ele>11.1</ele>
        <time>2022-06-21T13:57:52Z</time>
      </trkpt>
      <trkpt lat="45.93469" lon="-0.95972">
        <ele>11.2</ele>
        <time>2022-06-21T13:57:53Z</time>
      </trkpt>
      <trkpt lat="45.93469" lon="-0.95973">
        <ele>11.2</ele>
        <time>2022-06-21T13:57:54Z</time>
      </trkpt>
      <trkpt lat="45.93469" lon="-0.95976">
        <ele>11.2</ele>
        <time>2022-06-21T13:57:56Z</time>
      </trkpt>
      <trkpt lat="45.93469" lon="-0.95977">
        <ele>11.2</ele>
        <time>2022-06-21T13:57:57Z</time>
      </trkpt>
      <trkpt lat="45.93469" lon="-0.95977">
        <ele>11.2</ele>
        <time>2022-06-21T13:58:00Z</time>
      </trkpt>
      <trkpt lat="45.93469" lon="-0.95977">
        <ele>11.2</ele>
        <time>2022-06-21T13:58:01Z</time>
      </trkpt>
      <trkpt lat="45.93469" lon="-0.95976">
        <ele>11.2</ele>
        <time>2022-06-21T13:58:02Z</time>
      </trkpt>
      <trkpt lat="45.93469" lon="-0.95976">
        <ele>11.2</ele>
        <time>2022-06-21T13:58:03Z</time>
      </trkpt>
      <trkpt lat="45.93469" lon="-0.95976">
        <ele>11.2</ele>
        <time>2022-06-21T13:58:04Z</time>
      </trkpt>
      <trkpt lat="45.93469" lon="-0.95976">
        <ele>11.2</ele>
        <time>2022-06-21T13:58:05Z</time>
      </trkpt>
      <trkpt lat="45.93469" lon="-0.95975">
        <ele>11.2</ele>
        <time>2022-06-21T13:58:06Z</time>
      </trkpt>
      <trkpt lat="45.93468" lon="-0.95975">
        <ele>11.2</ele>
        <time>2022-06-21T13:58:07Z</time>
      </trkpt>
      <trkpt lat="45.93468" lon="-0.95975">
        <ele>11.2</ele>
        <time>2022-06-21T13:58:08Z</time>
      </trkpt>
      <trkpt lat="45.93468" lon="-0.95975">
        <ele>11.2</ele>
        <time>2022-06-21T13:58:09Z</time>
      </trkpt>
      <trkpt lat="45.93468" lon="-0.95975">
        <ele>11.2</ele>
        <time>2022-06-21T13:58:10Z</time>
      </trkpt>
      <trkpt lat="45.93468" lon="-0.95976">
        <ele>11.2</ele>
        <time>2022-06-21T13:58:11Z</time>
      </trkpt>
      <trkpt lat="45.93468" lon="-0.95976">
        <ele>11.2</ele>
        <time>2022-06-21T13:58:12Z</time>
      </trkpt>
      <trkpt lat="45.93468" lon="-0.95976">
        <ele>11.2</ele>
        <time>2022-06-21T13:58:13Z</time>
      </trkpt>
      <trkpt lat="45.93468" lon="-0.95976">
        <ele>11.2</ele>
        <time>2022-06-21T13:58:14Z</time>
      </trkpt>
      <trkpt lat="45.93468" lon="-0.95976">
        <ele>11.2</ele>
        <time>2022-06-21T13:58:15Z</time>
      </trkpt>
      <trkpt lat="45.93468" lon="-0.95976">
        <ele>11.2</ele>
        <time>2022-06-21T13:58:16Z</time>
      </trkpt>
      <trkpt lat="45.93468" lon="-0.95975">
        <ele>11.2</ele>
        <time>2022-06-21T13:58:17Z</time>
      </trkpt>
      <trkpt lat="45.93468" lon="-0.95975">
        <ele>11.2</ele>
        <time>2022-06-21T13:58:18Z</time>
      </trkpt>
      <trkpt lat="45.93468" lon="-0.95975">
        <ele>11.2</ele>
        <time>2022-06-21T13:58:19Z</time>
      </trkpt>
      <trkpt lat="45.93468" lon="-0.95975">
        <ele>11.2</ele>
        <time>2022-06-21T13:58:20Z</time>
      </trkpt>
      <trkpt lat="45.93468" lon="-0.95975">
        <ele>11.2</ele>
        <time>2022-06-21T13:58:21Z</time>
      </trkpt>
      <trkpt lat="45.93468" lon="-0.95975">
        <ele>11.2</ele>
        <time>2022-06-21T13:58:22Z</time>
      </trkpt>
      <trkpt lat="45.93468" lon="-0.95975">
        <ele>11.2</ele>
        <time>2022-06-21T13:58:23Z</time>
      </trkpt>
      <trkpt lat="45.93468" lon="-0.95975">
        <ele>11.2</ele>
        <time>2022-06-21T13:58:24Z</time>
      </trkpt>
      <trkpt lat="45.93468" lon="-0.95975">
        <ele>11.2</ele>
        <time>2022-06-21T13:58:25Z</time>
      </trkpt>
      <trkpt lat="45.93468" lon="-0.95975">
        <ele>11.2</ele>
        <time>2022-06-21T13:58:26Z</time>
      </trkpt>
      <trkpt lat="45.93468" lon="-0.95975">
        <ele>11.2</ele>
        <time>2022-06-21T13:58:27Z</time>
      </trkpt>
      <trkpt lat="45.93468" lon="-0.95975">
        <ele>11.2</ele>
        <time>2022-06-21T13:58:28Z</time>
      </trkpt>
      <trkpt lat="45.93468" lon="-0.95975">
        <ele>11.2</ele>
        <time>2022-06-21T13:58:29Z</time>
      </trkpt>
      <trkpt lat="45.93468" lon="-0.95975">
        <ele>11.2</ele>
        <time>2022-06-21T13:58:30Z</time>
      </trkpt>
      <trkpt lat="45.93468" lon="-0.95975">
        <ele>11.2</ele>
        <time>2022-06-21T13:58:31Z</time>
      </trkpt>
      <trkpt lat="45.93468" lon="-0.95975">
        <ele>11.2</ele>
        <time>2022-06-21T13:58:32Z</time>
      </trkpt>
      <trkpt lat="45.93468" lon="-0.95975">
        <ele>11.2</ele>
        <time>2022-06-21T13:58:33Z</time>
      </trkpt>
      <trkpt lat="45.93468" lon="-0.95975">
        <ele>11.2</ele>
        <time>2022-06-21T13:58:34Z</time>
      </trkpt>
      <trkpt lat="45.93468" lon="-0.95975">
        <ele>11.2</ele>
        <time>2022-06-21T13:58:35Z</time>
      </trkpt>
      <trkpt lat="45.93468" lon="-0.95975">
        <ele>11.2</ele>
        <time>2022-06-21T13:58:36Z</time>
      </trkpt>
      <trkpt lat="45.93468" lon="-0.95975">
        <ele>11.2</ele>
        <time>2022-06-21T13:58:37Z</time>
      </trkpt>
      <trkpt lat="45.93468" lon="-0.95975">
        <ele>11.2</ele>
        <time>2022-06-21T13:58:38Z</time>
      </trkpt>
      <trkpt lat="45.93468" lon="-0.95975">
        <ele>11.2</ele>
        <time>2022-06-21T13:58:39Z</time>
      </trkpt>
      <trkpt lat="45.93468" lon="-0.95975">
        <ele>11.2</ele>
        <time>2022-06-21T13:58:40Z</time>
      </trkpt>
      <trkpt lat="45.93468" lon="-0.95975">
        <ele>11.2</ele>
        <time>2022-06-21T13:58:41Z</time>
      </trkpt>
      <trkpt lat="45.93468" lon="-0.95975">
        <ele>11.2</ele>
        <time>2022-06-21T13:58:42Z</time>
      </trkpt>
      <trkpt lat="45.93468" lon="-0.95975">
        <ele>11.2</ele>
        <time>2022-06-21T13:58:43Z</time>
      </trkpt>
      <trkpt lat="45.93468" lon="-0.95975">
        <ele>11.2</ele>
        <time>2022-06-21T13:58:44Z</time>
      </trkpt>
      <trkpt lat="45.93468" lon="-0.95975">
        <ele>11.2</ele>
        <time>2022-06-21T13:58:45Z</time>
      </trkpt>
      <trkpt lat="45.93468" lon="-0.95975">
        <ele>11.2</ele>
        <time>2022-06-21T13:58:46Z</time>
      </trkpt>
      <trkpt lat="45.93468" lon="-0.95975">
        <ele>11.2</ele>
        <time>2022-06-21T13:58:47Z</time>
      </trkpt>
      <trkpt lat="45.93468" lon="-0.95975">
        <ele>11.2</ele>
        <time>2022-06-21T13:58:48Z</time>
      </trkpt>
      <trkpt lat="45.93468" lon="-0.95975">
        <ele>11.2</ele>
        <time>2022-06-21T13:58:49Z</time>
      </trkpt>
      <trkpt lat="45.93468" lon="-0.95975">
        <ele>11.2</ele>
        <time>2022-06-21T13:58:50Z</time>
      </trkpt>
      <trkpt lat="45.93468" lon="-0.95975">
        <ele>11.2</ele>
        <time>2022-06-21T13:58:51Z</time>
      </trkpt>
      <trkpt lat="45.93468" lon="-0.95975">
        <ele>11.2</ele>
        <time>2022-06-21T13:58:52Z</time>
      </trkpt>
      <trkpt lat="45.93468" lon="-0.95975">
        <ele>11.2</ele>
        <time>2022-06-21T13:58:53Z</time>
      </trkpt>
      <trkpt lat="45.93468" lon="-0.95975">
        <ele>11.2</ele>
        <time>2022-06-21T13:58:54Z</time>
      </trkpt>
      <trkpt lat="45.93468" lon="-0.95975">
        <ele>11.2</ele>
        <time>2022-06-21T13:58:55Z</time>
      </trkpt>
      <trkpt lat="45.93468" lon="-0.95975">
        <ele>11.2</ele>
        <time>2022-06-21T13:58:56Z</time>
      </trkpt>
      <trkpt lat="45.93468" lon="-0.95975">
        <ele>11.2</ele>
        <time>2022-06-21T13:58:57Z</time>
      </trkpt>
      <trkpt lat="45.93468" lon="-0.95975">
        <ele>11.2</ele>
        <time>2022-06-21T13:58:58Z</time>
      </trkpt>
      <trkpt lat="45.93468" lon="-0.95975">
        <ele>11.2</ele>
        <time>2022-06-21T13:58:59Z</time>
      </trkpt>
      <trkpt lat="45.93468" lon="-0.95975">
        <ele>11.2</ele>
        <time>2022-06-21T13:59:00Z</time>
      </trkpt>
      <trkpt lat="45.93468" lon="-0.95975">
        <ele>11.2</ele>
        <time>2022-06-21T13:59:01Z</time>
      </trkpt>
      <trkpt lat="45.93468" lon="-0.95975">
        <ele>11.2</ele>
        <time>2022-06-21T13:59:02Z</time>
      </trkpt>
      <trkpt lat="45.93468" lon="-0.95975">
        <ele>11.2</ele>
        <time>2022-06-21T13:59:03Z</time>
      </trkpt>
      <trkpt lat="45.93468" lon="-0.95975">
        <ele>11.2</ele>
        <time>2022-06-21T13:59:04Z</time>
      </trkpt>
      <trkpt lat="45.93468" lon="-0.95975">
        <ele>11.2</ele>
        <time>2022-06-21T13:59:05Z</time>
      </trkpt>
      <trkpt lat="45.93468" lon="-0.95975">
        <ele>11.2</ele>
        <time>2022-06-21T13:59:06Z</time>
      </trkpt>
      <trkpt lat="45.93468" lon="-0.95975">
        <ele>11.2</ele>
        <time>2022-06-21T13:59:07Z</time>
      </trkpt>
      <trkpt lat="45.93468" lon="-0.95975">
        <ele>11.2</ele>
        <time>2022-06-21T13:59:08Z</time>
      </trkpt>
      <trkpt lat="45.93468" lon="-0.95975">
        <ele>11.2</ele>
        <time>2022-06-21T13:59:09Z</time>
      </trkpt>
      <trkpt lat="45.93468" lon="-0.95975">
        <ele>11.2</ele>
        <time>2022-06-21T13:59:10Z</time>
      </trkpt>
      <trkpt lat="45.93468" lon="-0.95975">
        <ele>11.2</ele>
        <time>2022-06-21T13:59:11Z</time>
      </trkpt>
      <trkpt lat="45.93468" lon="-0.95975">
        <ele>11.2</ele>
        <time>2022-06-21T13:59:12Z</time>
      </trkpt>
      <trkpt lat="45.93468" lon="-0.95975">
        <ele>11.2</ele>
        <time>2022-06-21T13:59:13Z</time>
      </trkpt>
      <trkpt lat="45.93468" lon="-0.95975">
        <ele>11.2</ele>
        <time>2022-06-21T13:59:14Z</time>
      </trkpt>
      <trkpt lat="45.93468" lon="-0.95975">
        <ele>11.2</ele>
        <time>2022-06-21T13:59:15Z</time>
      </trkpt>
      <trkpt lat="45.93468" lon="-0.95975">
        <ele>11.2</ele>
        <time>2022-06-21T13:59:16Z</time>
      </trkpt>
      <trkpt lat="45.93468" lon="-0.95975">
        <ele>11.2</ele>
        <time>2022-06-21T13:59:17Z</time>
      </trkpt>
      <trkpt lat="45.93468" lon="-0.95975">
        <ele>11.2</ele>
        <time>2022-06-21T13:59:18Z</time>
      </trkpt>
      <trkpt lat="45.93468" lon="-0.95975">
        <ele>11.2</ele>
        <time>2022-06-21T13:59:19Z</time>
      </trkpt>
      <trkpt lat="45.93468" lon="-0.95975">
        <ele>11.2</ele>
        <time>2022-06-21T13:59:20Z</time>
      </trkpt>
      <trkpt lat="45.93468" lon="-0.95975">
        <ele>11.2</ele>
        <time>2022-06-21T13:59:21Z</time>
      </trkpt>
      <trkpt lat="45.93468" lon="-0.95975">
        <ele>11.2</ele>
        <time>2022-06-21T13:59:22Z</time>
      </trkpt>
      <trkpt lat="45.93468" lon="-0.95975">
        <ele>11.2</ele>
        <time>2022-06-21T13:59:23Z</time>
      </trkpt>
      <trkpt lat="45.93468" lon="-0.95975">
        <ele>11.2</ele>
        <time>2022-06-21T13:59:24Z</time>
      </trkpt>
      <trkpt lat="45.93467" lon="-0.95977">
        <ele>11.2</ele>
        <time>2022-06-21T13:59:25Z</time>
      </trkpt>
      <trkpt lat="45.93467" lon="-0.95978">
        <ele>11.2</ele>
        <time>2022-06-21T13:59:26Z</time>
      </trkpt>
      <trkpt lat="45.93467" lon="-0.95978">
        <ele>11.2</ele>
        <time>2022-06-21T13:59:27Z</time>
      </trkpt>
      <trkpt lat="45.93467" lon="-0.95978">
        <ele>11.2</ele>
        <time>2022-06-21T13:59:28Z</time>
      </trkpt>
      <trkpt lat="45.93467" lon="-0.95978">
        <ele>11.2</ele>
        <time>2022-06-21T13:59:29Z</time>
      </trkpt>
      <trkpt lat="45.93467" lon="-0.95978">
        <ele>11.2</ele>
        <time>2022-06-21T13:59:30Z</time>
      </trkpt>
      <trkpt lat="45.93467" lon="-0.95978">
        <ele>11.2</ele>
        <time>2022-06-21T13:59:31Z</time>
      </trkpt>
      <trkpt lat="45.93467" lon="-0.95978">
        <ele>11.2</ele>
        <time>2022-06-21T13:59:32Z</time>
      </trkpt>
      <trkpt lat="45.93467" lon="-0.95978">
        <ele>11.2</ele>
        <time>2022-06-21T13:59:33Z</time>
      </trkpt>
      <trkpt lat="45.93467" lon="-0.95978">
        <ele>11.2</ele>
        <time>2022-06-21T13:59:34Z</time>
      </trkpt>
      <trkpt lat="45.93467" lon="-0.95978">
        <ele>11.2</ele>
        <time>2022-06-21T13:59:35Z</time>
      </trkpt>
      <trkpt lat="45.93467" lon="-0.95978">
        <ele>11.2</ele>
        <time>2022-06-21T13:59:36Z</time>
      </trkpt>
      <trkpt lat="45.93467" lon="-0.95978">
        <ele>11.2</ele>
        <time>2022-06-21T13:59:37Z</time>
      </trkpt>
      <trkpt lat="45.93467" lon="-0.95978">
        <ele>11.2</ele>
        <time>2022-06-21T13:59:38Z</time>
      </trkpt>
      <trkpt lat="45.93467" lon="-0.95978">
        <ele>11.2</ele>
        <time>2022-06-21T13:59:39Z</time>
      </trkpt>
      <trkpt lat="45.93467" lon="-0.95978">
        <ele>11.2</ele>
        <time>2022-06-21T13:59:40Z</time>
      </trkpt>
      <trkpt lat="45.93467" lon="-0.95978">
        <ele>11.2</ele>
        <time>2022-06-21T13:59:41Z</time>
      </trkpt>
      <trkpt lat="45.93467" lon="-0.95978">
        <ele>11.2</ele>
        <time>2022-06-21T13:59:42Z</time>
      </trkpt>
      <trkpt lat="45.93467" lon="-0.95978">
        <ele>11.2</ele>
        <time>2022-06-21T13:59:43Z</time>
      </trkpt>
      <trkpt lat="45.93467" lon="-0.95978">
        <ele>11.2</ele>
        <time>2022-06-21T13:59:44Z</time>
      </trkpt>
      <trkpt lat="45.93467" lon="-0.95978">
        <ele>11.2</ele>
        <time>2022-06-21T13:59:45Z</time>
      </trkpt>
      <trkpt lat="45.93467" lon="-0.95978">
        <ele>11.2</ele>
        <time>2022-06-21T13:59:46Z</time>
      </trkpt>
      <trkpt lat="45.93467" lon="-0.95978">
        <ele>11.2</ele>
        <time>2022-06-21T13:59:47Z</time>
      </trkpt>
      <trkpt lat="45.93467" lon="-0.95978">
        <ele>11.2</ele>
        <time>2022-06-21T13:59:48Z</time>
      </trkpt>
      <trkpt lat="45.93467" lon="-0.95978">
        <ele>11.2</ele>
        <time>2022-06-21T13:59:49Z</time>
      </trkpt>
      <trkpt lat="45.93467" lon="-0.95978">
        <ele>11.2</ele>
        <time>2022-06-21T13:59:50Z</time>
      </trkpt>
      <trkpt lat="45.93467" lon="-0.95978">
        <ele>11.2</ele>
        <time>2022-06-21T13:59:51Z</time>
      </trkpt>
      <trkpt lat="45.93467" lon="-0.95978">
        <ele>11.2</ele>
        <time>2022-06-21T13:59:52Z</time>
      </trkpt>
      <trkpt lat="45.93467" lon="-0.95978">
        <ele>11.2</ele>
        <time>2022-06-21T13:59:53Z</time>
      </trkpt>
      <trkpt lat="45.93467" lon="-0.95978">
        <ele>11.2</ele>
        <time>2022-06-21T13:59:54Z</time>
      </trkpt>
      <trkpt lat="45.93467" lon="-0.95978">
        <ele>11.2</ele>
        <time>2022-06-21T13:59:55Z</time>
      </trkpt>
      <trkpt lat="45.93467" lon="-0.95978">
        <ele>11.2</ele>
        <time>2022-06-21T13:59:56Z</time>
      </trkpt>
      <trkpt lat="45.93467" lon="-0.95978">
        <ele>11.2</ele>
        <time>2022-06-21T13:59:57Z</time>
      </trkpt>
      <trkpt lat="45.93467" lon="-0.95978">
        <ele>11.2</ele>
        <time>2022-06-21T13:59:58Z</time>
      </trkpt>
      <trkpt lat="45.93467" lon="-0.95978">
        <ele>11.2</ele>
        <time>2022-06-21T13:59:59Z</time>
      </trkpt>
      <trkpt lat="45.93467" lon="-0.95978">
        <ele>11.2</ele>
        <time>2022-06-21T14:00:00Z</time>
      </trkpt>
      <trkpt lat="45.93467" lon="-0.95978">
        <ele>11.2</ele>
        <time>2022-06-21T14:00:01Z</time>
      </trkpt>
      <trkpt lat="45.93467" lon="-0.95978">
        <ele>11.2</ele>
        <time>2022-06-21T14:00:02Z</time>
      </trkpt>
      <trkpt lat="45.93467" lon="-0.95978">
        <ele>11.2</ele>
        <time>2022-06-21T14:00:03Z</time>
      </trkpt>
      <trkpt lat="45.93467" lon="-0.95978">
        <ele>11.2</ele>
        <time>2022-06-21T14:00:04Z</time>
      </trkpt>
      <trkpt lat="45.93467" lon="-0.95978">
        <ele>11.2</ele>
        <time>2022-06-21T14:00:05Z</time>
      </trkpt>
      <trkpt lat="45.93467" lon="-0.95978">
        <ele>11.2</ele>
        <time>2022-06-21T14:00:06Z</time>
      </trkpt>
      <trkpt lat="45.93467" lon="-0.95978">
        <ele>11.2</ele>
        <time>2022-06-21T14:00:07Z</time>
      </trkpt>
      <trkpt lat="45.93467" lon="-0.95978">
        <ele>11.2</ele>
        <time>2022-06-21T14:00:08Z</time>
      </trkpt>
      <trkpt lat="45.93467" lon="-0.95978">
        <ele>11.2</ele>
        <time>2022-06-21T14:00:09Z</time>
      </trkpt>
      <trkpt lat="45.93467" lon="-0.95978">
        <ele>11.2</ele>
        <time>2022-06-21T14:00:10Z</time>
      </trkpt>
      <trkpt lat="45.93467" lon="-0.95978">
        <ele>11.2</ele>
        <time>2022-06-21T14:00:11Z</time>
      </trkpt>
      <trkpt lat="45.93467" lon="-0.95978">
        <ele>11.2</ele>
        <time>2022-06-21T14:00:12Z</time>
      </trkpt>
      <trkpt lat="45.93467" lon="-0.95978">
        <ele>11.2</ele>
        <time>2022-06-21T14:00:13Z</time>
      </trkpt>
      <trkpt lat="45.93467" lon="-0.95978">
        <ele>11.2</ele>
        <time>2022-06-21T14:00:14Z</time>
      </trkpt>
      <trkpt lat="45.93467" lon="-0.95978">
        <ele>11.2</ele>
        <time>2022-06-21T14:00:15Z</time>
      </trkpt>
      <trkpt lat="45.93467" lon="-0.95978">
        <ele>11.2</ele>
        <time>2022-06-21T14:00:16Z</time>
      </trkpt>
      <trkpt lat="45.93467" lon="-0.95978">
        <ele>11.2</ele>
        <time>2022-06-21T14:00:17Z</time>
      </trkpt>
      <trkpt lat="45.93467" lon="-0.95978">
        <ele>11.2</ele>
        <time>2022-06-21T14:00:18Z</time>
      </trkpt>
      <trkpt lat="45.93467" lon="-0.95978">
        <ele>11.2</ele>
        <time>2022-06-21T14:00:19Z</time>
      </trkpt>
      <trkpt lat="45.93467" lon="-0.95978">
        <ele>11.2</ele>
        <time>2022-06-21T14:00:20Z</time>
      </trkpt>
      <trkpt lat="45.93467" lon="-0.95978">
        <ele>11.2</ele>
        <time>2022-06-21T14:00:21Z</time>
      </trkpt>
      <trkpt lat="45.93467" lon="-0.95978">
        <ele>11.2</ele>
        <time>2022-06-21T14:00:22Z</time>
      </trkpt>
      <trkpt lat="45.93467" lon="-0.95978">
        <ele>11.2</ele>
        <time>2022-06-21T14:00:23Z</time>
      </trkpt>
      <trkpt lat="45.93467" lon="-0.95978">
        <ele>11.2</ele>
        <time>2022-06-21T14:00:24Z</time>
      </trkpt>
      <trkpt lat="45.93467" lon="-0.95978">
        <ele>11.2</ele>
        <time>2022-06-21T14:00:25Z</time>
      </trkpt>
      <trkpt lat="45.93467" lon="-0.95978">
        <ele>11.2</ele>
        <time>2022-06-21T14:00:26Z</time>
      </trkpt>
      <trkpt lat="45.93467" lon="-0.95978">
        <ele>11.2</ele>
        <time>2022-06-21T14:00:27Z</time>
      </trkpt>
      <trkpt lat="45.93467" lon="-0.95978">
        <ele>11.2</ele>
        <time>2022-06-21T14:00:28Z</time>
      </trkpt>
      <trkpt lat="45.93467" lon="-0.95978">
        <ele>11.2</ele>
        <time>2022-06-21T14:00:29Z</time>
      </trkpt>
      <trkpt lat="45.93467" lon="-0.95978">
        <ele>11.2</ele>
        <time>2022-06-21T14:00:30Z</time>
      </trkpt>
      <trkpt lat="45.93467" lon="-0.95978">
        <ele>11.2</ele>
        <time>2022-06-21T14:00:31Z</time>
      </trkpt>
      <trkpt lat="45.93467" lon="-0.95978">
        <ele>11.2</ele>
        <time>2022-06-21T14:00:32Z</time>
      </trkpt>
      <trkpt lat="45.93467" lon="-0.95978">
        <ele>11.2</ele>
        <time>2022-06-21T14:00:33Z</time>
      </trkpt>
      <trkpt lat="45.93467" lon="-0.95978">
        <ele>11.2</ele>
        <time>2022-06-21T14:00:34Z</time>
      </trkpt>
      <trkpt lat="45.93467" lon="-0.95978">
        <ele>11.2</ele>
        <time>2022-06-21T14:00:35Z</time>
      </trkpt>
      <trkpt lat="45.93467" lon="-0.95978">
        <ele>11.2</ele>
        <time>2022-06-21T14:00:36Z</time>
      </trkpt>
      <trkpt lat="45.93467" lon="-0.95978">
        <ele>11.2</ele>
        <time>2022-06-21T14:00:37Z</time>
      </trkpt>
      <trkpt lat="45.93467" lon="-0.95978">
        <ele>11.2</ele>
        <time>2022-06-21T14:00:38Z</time>
      </trkpt>
      <trkpt lat="45.93467" lon="-0.95978">
        <ele>11.2</ele>
        <time>2022-06-21T14:00:39Z</time>
      </trkpt>
      <trkpt lat="45.93467" lon="-0.95978">
        <ele>11.2</ele>
        <time>2022-06-21T14:00:40Z</time>
      </trkpt>
      <trkpt lat="45.93467" lon="-0.95978">
        <ele>11.2</ele>
        <time>2022-06-21T14:00:41Z</time>
      </trkpt>
      <trkpt lat="45.93467" lon="-0.95978">
        <ele>11.2</ele>
        <time>2022-06-21T14:00:42Z</time>
      </trkpt>
      <trkpt lat="45.93467" lon="-0.95978">
        <ele>11.2</ele>
        <time>2022-06-21T14:00:43Z</time>
      </trkpt>
      <trkpt lat="45.93467" lon="-0.95978">
        <ele>11.2</ele>
        <time>2022-06-21T14:00:44Z</time>
      </trkpt>
      <trkpt lat="45.93467" lon="-0.95978">
        <ele>11.2</ele>
        <time>2022-06-21T14:00:45Z</time>
      </trkpt>
      <trkpt lat="45.93467" lon="-0.95978">
        <ele>11.2</ele>
        <time>2022-06-21T14:00:46Z</time>
      </trkpt>
      <trkpt lat="45.93467" lon="-0.95978">
        <ele>11.2</ele>
        <time>2022-06-21T14:00:47Z</time>
      </trkpt>
      <trkpt lat="45.93466" lon="-0.95977">
        <ele>11.2</ele>
        <time>2022-06-21T14:00:48Z</time>
      </trkpt>
      <trkpt lat="45.93466" lon="-0.95976">
        <ele>11.2</ele>
        <time>2022-06-21T14:00:49Z</time>
      </trkpt>
      <trkpt lat="45.93466" lon="-0.95975">
        <ele>11.2</ele>
        <time>2022-06-21T14:00:50Z</time>
      </trkpt>
      <trkpt lat="45.93466" lon="-0.95976">
        <ele>11.2</ele>
        <time>2022-06-21T14:00:51Z</time>
      </trkpt>
      <trkpt lat="45.93466" lon="-0.95977">
        <ele>11.2</ele>
        <time>2022-06-21T14:00:52Z</time>
      </trkpt>
      <trkpt lat="45.93469" lon="-0.95981">
        <ele>11.2</ele>
        <time>2022-06-21T14:00:53Z</time>
      </trkpt>
      <trkpt lat="45.93469" lon="-0.95982">
        <ele>11.2</ele>
        <time>2022-06-21T14:00:54Z</time>
      </trkpt>
      <trkpt lat="45.93468" lon="-0.95981">
        <ele>11.2</ele>
        <time>2022-06-21T14:00:55Z</time>
      </trkpt>
      <trkpt lat="45.93467" lon="-0.95983">
        <ele>11.2</ele>
        <time>2022-06-21T14:00:56Z</time>
      </trkpt>
      <trkpt lat="45.93467" lon="-0.95984">
        <ele>11.2</ele>
        <time>2022-06-21T14:00:57Z</time>
      </trkpt>
      <trkpt lat="45.93467" lon="-0.95985">
        <ele>11.2</ele>
        <time>2022-06-21T14:00:59Z</time>
      </trkpt>
      <trkpt lat="45.93466" lon="-0.95984">
        <ele>11.2</ele>
        <time>2022-06-21T14:01:00Z</time>
      </trkpt>
      <trkpt lat="45.93465" lon="-0.95985">
        <ele>11.2</ele>
        <time>2022-06-21T14:01:01Z</time>
      </trkpt>
      <trkpt lat="45.93465" lon="-0.95986">
        <ele>11.2</ele>
        <time>2022-06-21T14:01:02Z</time>
      </trkpt>
      <trkpt lat="45.93465" lon="-0.95987">
        <ele>11.2</ele>
        <time>2022-06-21T14:01:03Z</time>
      </trkpt>
      <trkpt lat="45.93466" lon="-0.9599">
        <ele>11.2</ele>
        <time>2022-06-21T14:01:04Z</time>
      </trkpt>
      <trkpt lat="45.93467" lon="-0.95992">
        <ele>11.2</ele>
        <time>2022-06-21T14:01:06Z</time>
      </trkpt>
      <trkpt lat="45.93467" lon="-0.95994">
        <ele>11.2</ele>
        <time>2022-06-21T14:01:07Z</time>
      </trkpt>
      <trkpt lat="45.93468" lon="-0.95996">
        <ele>11.2</ele>
        <time>2022-06-21T14:01:08Z</time>
      </trkpt>
      <trkpt lat="45.93468" lon="-0.95999">
        <ele>11.2</ele>
        <time>2022-06-21T14:01:09Z</time>
      </trkpt>
      <trkpt lat="45.93469" lon="-0.96001">
        <ele>11.2</ele>
        <time>2022-06-21T14:01:10Z</time>
      </trkpt>
      <trkpt lat="45.9347" lon="-0.96005">
        <ele>11.2</ele>
        <time>2022-06-21T14:01:11Z</time>
      </trkpt>
      <trkpt lat="45.9347" lon="-0.96007">
        <ele>11.2</ele>
        <time>2022-06-21T14:01:12Z</time>
      </trkpt>
      <trkpt lat="45.9347" lon="-0.96009">
        <ele>11.2</ele>
        <time>2022-06-21T14:01:14Z</time>
      </trkpt>
      <trkpt lat="45.9347" lon="-0.96012">
        <ele>11.3</ele>
        <time>2022-06-21T14:01:15Z</time>
      </trkpt>
      <trkpt lat="45.9347" lon="-0.96014">
        <ele>11.3</ele>
        <time>2022-06-21T14:01:16Z</time>
      </trkpt>
      <trkpt lat="45.93471" lon="-0.96021">
        <ele>11.3</ele>
        <time>2022-06-21T14:01:18Z</time>
      </trkpt>
      <trkpt lat="45.93471" lon="-0.96023">
        <ele>11.3</ele>
        <time>2022-06-21T14:01:19Z</time>
      </trkpt>
      <trkpt lat="45.93472" lon="-0.96024">
        <ele>11.3</ele>
        <time>2022-06-21T14:01:20Z</time>
      </trkpt>
      <trkpt lat="45.93474" lon="-0.96026">
        <ele>11.3</ele>
        <time>2022-06-21T14:01:21Z</time>
      </trkpt>
      <trkpt lat="45.93475" lon="-0.96029">
        <ele>11.3</ele>
        <time>2022-06-21T14:01:22Z</time>
      </trkpt>
      <trkpt lat="45.93475" lon="-0.9603">
        <ele>11.3</ele>
        <time>2022-06-21T14:01:23Z</time>
      </trkpt>
      <trkpt lat="45.93475" lon="-0.96032">
        <ele>11.3</ele>
        <time>2022-06-21T14:01:24Z</time>
      </trkpt>
      <trkpt lat="45.93475" lon="-0.96038">
        <ele>11.4</ele>
        <time>2022-06-21T14:01:26Z</time>
      </trkpt>
      <trkpt lat="45.93475" lon="-0.96039">
        <ele>11.4</ele>
        <time>2022-06-21T14:01:27Z</time>
      </trkpt>
      <trkpt lat="45.93475" lon="-0.96041">
        <ele>11.4</ele>
        <time>2022-06-21T14:01:28Z</time>
      </trkpt>
      <trkpt lat="45.93475" lon="-0.96043">
        <ele>11.4</ele>
        <time>2022-06-21T14:01:29Z</time>
      </trkpt>
      <trkpt lat="45.93477" lon="-0.96045">
        <ele>11.4</ele>
        <time>2022-06-21T14:01:30Z</time>
      </trkpt>
      <trkpt lat="45.93478" lon="-0.96045">
        <ele>11.4</ele>
        <time>2022-06-21T14:01:31Z</time>
      </trkpt>
      <trkpt lat="45.93479" lon="-0.96045">
        <ele>11.4</ele>
        <time>2022-06-21T14:01:32Z</time>
      </trkpt>
      <trkpt lat="45.93481" lon="-0.96046">
        <ele>11.4</ele>
        <time>2022-06-21T14:01:34Z</time>
      </trkpt>
      <trkpt lat="45.93482" lon="-0.96047">
        <ele>11.4</ele>
        <time>2022-06-21T14:01:35Z</time>
      </trkpt>
      <trkpt lat="45.93483" lon="-0.96048">
        <ele>11.4</ele>
        <time>2022-06-21T14:01:36Z</time>
      </trkpt>
      <trkpt lat="45.93483" lon="-0.96048">
        <ele>11.4</ele>
        <time>2022-06-21T14:01:37Z</time>
      </trkpt>
      <trkpt lat="45.93483" lon="-0.96048">
        <ele>11.4</ele>
        <time>2022-06-21T14:01:38Z</time>
      </trkpt>
      <trkpt lat="45.93484" lon="-0.96049">
        <ele>11.4</ele>
        <time>2022-06-21T14:01:39Z</time>
      </trkpt>
      <trkpt lat="45.93484" lon="-0.9605">
        <ele>11.4</ele>
        <time>2022-06-21T14:01:40Z</time>
      </trkpt>
      <trkpt lat="45.93483" lon="-0.96051">
        <ele>11.4</ele>
        <time>2022-06-21T14:01:42Z</time>
      </trkpt>
      <trkpt lat="45.93483" lon="-0.96052">
        <ele>11.4</ele>
        <time>2022-06-21T14:01:43Z</time>
      </trkpt>
      <trkpt lat="45.93482" lon="-0.96053">
        <ele>11.4</ele>
        <time>2022-06-21T14:01:44Z</time>
      </trkpt>
      <trkpt lat="45.93481" lon="-0.96053">
        <ele>11.4</ele>
        <time>2022-06-21T14:01:45Z</time>
      </trkpt>
      <trkpt lat="45.9348" lon="-0.96053">
        <ele>11.4</ele>
        <time>2022-06-21T14:01:46Z</time>
      </trkpt>
      <trkpt lat="45.9348" lon="-0.96054">
        <ele>11.4</ele>
        <time>2022-06-21T14:01:47Z</time>
      </trkpt>
      <trkpt lat="45.93478" lon="-0.96052">
        <ele>11.4</ele>
        <time>2022-06-21T14:01:49Z</time>
      </trkpt>
      <trkpt lat="45.93478" lon="-0.96052">
        <ele>11.4</ele>
        <time>2022-06-21T14:01:50Z</time>
      </trkpt>
      <trkpt lat="45.93477" lon="-0.96053">
        <ele>11.4</ele>
        <time>2022-06-21T14:01:51Z</time>
      </trkpt>
      <trkpt lat="45.93477" lon="-0.96056">
        <ele>11.4</ele>
        <time>2022-06-21T14:01:52Z</time>
      </trkpt>
      <trkpt lat="45.93477" lon="-0.96057">
        <ele>11.4</ele>
        <time>2022-06-21T14:01:53Z</time>
      </trkpt>
      <trkpt lat="45.93477" lon="-0.96059">
        <ele>11.4</ele>
        <time>2022-06-21T14:01:54Z</time>
      </trkpt>
      <trkpt lat="45.93478" lon="-0.96062">
        <ele>11.5</ele>
        <time>2022-06-21T14:01:55Z</time>
      </trkpt>
      <trkpt lat="45.93478" lon="-0.96064">
        <ele>11.5</ele>
        <time>2022-06-21T14:01:57Z</time>
      </trkpt>
      <trkpt lat="45.93479" lon="-0.96066">
        <ele>11.5</ele>
        <time>2022-06-21T14:01:58Z</time>
      </trkpt>
      <trkpt lat="45.93479" lon="-0.96069">
        <ele>11.5</ele>
        <time>2022-06-21T14:01:59Z</time>
      </trkpt>
      <trkpt lat="45.9348" lon="-0.96071">
        <ele>11.5</ele>
        <time>2022-06-21T14:02:00Z</time>
      </trkpt>
      <trkpt lat="45.93481" lon="-0.96073">
        <ele>11.5</ele>
        <time>2022-06-21T14:02:01Z</time>
      </trkpt>
      <trkpt lat="45.93481" lon="-0.96075">
        <ele>11.5</ele>
        <time>2022-06-21T14:02:02Z</time>
      </trkpt>
      <trkpt lat="45.93482" lon="-0.96077">
        <ele>11.6</ele>
        <time>2022-06-21T14:02:03Z</time>
      </trkpt>
      <trkpt lat="45.93483" lon="-0.96082">
        <ele>11.6</ele>
        <time>2022-06-21T14:02:05Z</time>
      </trkpt>
      <trkpt lat="45.93484" lon="-0.96083">
        <ele>11.6</ele>
        <time>2022-06-21T14:02:06Z</time>
      </trkpt>
      <trkpt lat="45.93486" lon="-0.96088">
        <ele>11.7</ele>
        <time>2022-06-21T14:02:07Z</time>
      </trkpt>
      <trkpt lat="45.93487" lon="-0.96089">
        <ele>11.7</ele>
        <time>2022-06-21T14:02:08Z</time>
      </trkpt>
      <trkpt lat="45.93488" lon="-0.96092">
        <ele>11.7</ele>
        <time>2022-06-21T14:02:09Z</time>
      </trkpt>
      <trkpt lat="45.93488" lon="-0.96093">
        <ele>11.7</ele>
        <time>2022-06-21T14:02:10Z</time>
      </trkpt>
      <trkpt lat="45.93489" lon="-0.96096">
        <ele>11.7</ele>
        <time>2022-06-21T14:02:12Z</time>
      </trkpt>
      <trkpt lat="45.93489" lon="-0.96098">
        <ele>11.7</ele>
        <time>2022-06-21T14:02:13Z</time>
      </trkpt>
      <trkpt lat="45.93489" lon="-0.96099">
        <ele>11.8</ele>
        <time>2022-06-21T14:02:14Z</time>
      </trkpt>
      <trkpt lat="45.93489" lon="-0.96101">
        <ele>11.8</ele>
        <time>2022-06-21T14:02:16Z</time>
      </trkpt>
      <trkpt lat="45.93489" lon="-0.96102">
        <ele>11.8</ele>
        <time>2022-06-21T14:02:17Z</time>
      </trkpt>
      <trkpt lat="45.9349" lon="-0.96103">
        <ele>11.8</ele>
        <time>2022-06-21T14:02:18Z</time>
      </trkpt>
      <trkpt lat="45.9349" lon="-0.96106">
        <ele>11.8</ele>
        <time>2022-06-21T14:02:19Z</time>
      </trkpt>
      <trkpt lat="45.9349" lon="-0.96108">
        <ele>11.8</ele>
        <time>2022-06-21T14:02:20Z</time>
      </trkpt>
      <trkpt lat="45.93491" lon="-0.9611">
        <ele>11.8</ele>
        <time>2022-06-21T14:02:21Z</time>
      </trkpt>
      <trkpt lat="45.93491" lon="-0.96112">
        <ele>11.9</ele>
        <time>2022-06-21T14:02:23Z</time>
      </trkpt>
      <trkpt lat="45.93491" lon="-0.96113">
        <ele>11.9</ele>
        <time>2022-06-21T14:02:24Z</time>
      </trkpt>
      <trkpt lat="45.93492" lon="-0.96116">
        <ele>11.9</ele>
        <time>2022-06-21T14:02:25Z</time>
      </trkpt>
      <trkpt lat="45.93492" lon="-0.96117">
        <ele>11.9</ele>
        <time>2022-06-21T14:02:26Z</time>
      </trkpt>
      <trkpt lat="45.93492" lon="-0.96119">
        <ele>11.9</ele>
        <time>2022-06-21T14:02:27Z</time>
      </trkpt>
      <trkpt lat="45.93492" lon="-0.96121">
        <ele>11.9</ele>
        <time>2022-06-21T14:02:28Z</time>
      </trkpt>
      <trkpt lat="45.93492" lon="-0.96121">
        <ele>11.9</ele>
        <time>2022-06-21T14:02:29Z</time>
      </trkpt>
      <trkpt lat="45.93492" lon="-0.96122">
        <ele>12</ele>
        <time>2022-06-21T14:02:31Z</time>
      </trkpt>
      <trkpt lat="45.93492" lon="-0.96124">
        <ele>12</ele>
        <time>2022-06-21T14:02:32Z</time>
      </trkpt>
      <trkpt lat="45.93493" lon="-0.96125">
        <ele>12</ele>
        <time>2022-06-21T14:02:33Z</time>
      </trkpt>
      <trkpt lat="45.93493" lon="-0.96127">
        <ele>12</ele>
        <time>2022-06-21T14:02:34Z</time>
      </trkpt>
      <trkpt lat="45.93493" lon="-0.96128">
        <ele>12</ele>
        <time>2022-06-21T14:02:35Z</time>
      </trkpt>
      <trkpt lat="45.93493" lon="-0.9613">
        <ele>12</ele>
        <time>2022-06-21T14:02:36Z</time>
      </trkpt>
      <trkpt lat="45.93493" lon="-0.96133">
        <ele>12</ele>
        <time>2022-06-21T14:02:38Z</time>
      </trkpt>
      <trkpt lat="45.93493" lon="-0.96134">
        <ele>12</ele>
        <time>2022-06-21T14:02:39Z</time>
      </trkpt>
      <trkpt lat="45.93494" lon="-0.96136">
        <ele>12</ele>
        <time>2022-06-21T14:02:40Z</time>
      </trkpt>
      <trkpt lat="45.93494" lon="-0.96138">
        <ele>12</ele>
        <time>2022-06-21T14:02:41Z</time>
      </trkpt>
      <trkpt lat="45.93494" lon="-0.96139">
        <ele>12.1</ele>
        <time>2022-06-21T14:02:42Z</time>
      </trkpt>
      <trkpt lat="45.93494" lon="-0.96141">
        <ele>12.1</ele>
        <time>2022-06-21T14:02:44Z</time>
      </trkpt>
      <trkpt lat="45.93494" lon="-0.96141">
        <ele>12.1</ele>
        <time>2022-06-21T14:02:45Z</time>
      </trkpt>
      <trkpt lat="45.93494" lon="-0.96142">
        <ele>12.1</ele>
        <time>2022-06-21T14:02:46Z</time>
      </trkpt>
      <trkpt lat="45.93494" lon="-0.96143">
        <ele>12.1</ele>
        <time>2022-06-21T14:02:47Z</time>
      </trkpt>
      <trkpt lat="45.93494" lon="-0.96145">
        <ele>12.1</ele>
        <time>2022-06-21T14:02:49Z</time>
      </trkpt>
      <trkpt lat="45.93493" lon="-0.96146">
        <ele>12.1</ele>
        <time>2022-06-21T14:02:50Z</time>
      </trkpt>
      <trkpt lat="45.93492" lon="-0.96147">
        <ele>12.1</ele>
        <time>2022-06-21T14:02:52Z</time>
      </trkpt>
      <trkpt lat="45.93492" lon="-0.96147">
        <ele>12.1</ele>
        <time>2022-06-21T14:02:53Z</time>
      </trkpt>
      <trkpt lat="45.93492" lon="-0.96147">
        <ele>12.1</ele>
        <time>2022-06-21T14:02:54Z</time>
      </trkpt>
      <trkpt lat="45.93492" lon="-0.96146">
        <ele>12.1</ele>
        <time>2022-06-21T14:02:55Z</time>
      </trkpt>
      <trkpt lat="45.93492" lon="-0.96146">
        <ele>12.1</ele>
        <time>2022-06-21T14:02:56Z</time>
      </trkpt>
      <trkpt lat="45.93491" lon="-0.96145">
        <ele>12.1</ele>
        <time>2022-06-21T14:02:58Z</time>
      </trkpt>
      <trkpt lat="45.93491" lon="-0.96145">
        <ele>12.1</ele>
        <time>2022-06-21T14:02:59Z</time>
      </trkpt>
      <trkpt lat="45.93491" lon="-0.96145">
        <ele>12.1</ele>
        <time>2022-06-21T14:03:00Z</time>
      </trkpt>
      <trkpt lat="45.9349" lon="-0.96144">
        <ele>12.1</ele>
        <time>2022-06-21T14:03:01Z</time>
      </trkpt>
      <trkpt lat="45.9349" lon="-0.96142">
        <ele>12.1</ele>
        <time>2022-06-21T14:03:03Z</time>
      </trkpt>
      <trkpt lat="45.9349" lon="-0.96141">
        <ele>12.1</ele>
        <time>2022-06-21T14:03:04Z</time>
      </trkpt>
      <trkpt lat="45.9349" lon="-0.9614">
        <ele>12.1</ele>
        <time>2022-06-21T14:03:05Z</time>
      </trkpt>
      <trkpt lat="45.9349" lon="-0.96139">
        <ele>12.1</ele>
        <time>2022-06-21T14:03:06Z</time>
      </trkpt>
      <trkpt lat="45.93491" lon="-0.96139">
        <ele>12.1</ele>
        <time>2022-06-21T14:03:07Z</time>
      </trkpt>
      <trkpt lat="45.93493" lon="-0.96139">
        <ele>12.1</ele>
        <time>2022-06-21T14:03:08Z</time>
      </trkpt>
      <trkpt lat="45.93494" lon="-0.96139">
        <ele>12.1</ele>
        <time>2022-06-21T14:03:09Z</time>
      </trkpt>
      <trkpt lat="45.93496" lon="-0.96138">
        <ele>12.1</ele>
        <time>2022-06-21T14:03:10Z</time>
      </trkpt>
      <trkpt lat="45.935" lon="-0.96139">
        <ele>12.1</ele>
        <time>2022-06-21T14:03:12Z</time>
      </trkpt>
      <trkpt lat="45.93502" lon="-0.9614">
        <ele>12.1</ele>
        <time>2022-06-21T14:03:13Z</time>
      </trkpt>
      <trkpt lat="45.93504" lon="-0.96139">
        <ele>12.1</ele>
        <time>2022-06-21T14:03:14Z</time>
      </trkpt>
      <trkpt lat="45.93505" lon="-0.96139">
        <ele>12.1</ele>
        <time>2022-06-21T14:03:15Z</time>
      </trkpt>
      <trkpt lat="45.93508" lon="-0.96139">
        <ele>12.1</ele>
        <time>2022-06-21T14:03:16Z</time>
      </trkpt>
      <trkpt lat="45.93509" lon="-0.96139">
        <ele>12.1</ele>
        <time>2022-06-21T14:03:17Z</time>
      </trkpt>
      <trkpt lat="45.9351" lon="-0.96139">
        <ele>12.1</ele>
        <time>2022-06-21T14:03:18Z</time>
      </trkpt>
      <trkpt lat="45.93512" lon="-0.96138">
        <ele>12.1</ele>
        <time>2022-06-21T14:03:20Z</time>
      </trkpt>
      <trkpt lat="45.93513" lon="-0.96138">
        <ele>12.2</ele>
        <time>2022-06-21T14:03:21Z</time>
      </trkpt>
      <trkpt lat="45.93514" lon="-0.96138">
        <ele>12.2</ele>
        <time>2022-06-21T14:03:22Z</time>
      </trkpt>
      <trkpt lat="45.93514" lon="-0.96138">
        <ele>12.2</ele>
        <time>2022-06-21T14:03:23Z</time>
      </trkpt>
      <trkpt lat="45.93515" lon="-0.96137">
        <ele>12.2</ele>
        <time>2022-06-21T14:03:24Z</time>
      </trkpt>
      <trkpt lat="45.93516" lon="-0.96137">
        <ele>12.2</ele>
        <time>2022-06-21T14:03:25Z</time>
      </trkpt>
      <trkpt lat="45.93517" lon="-0.96137">
        <ele>12.2</ele>
        <time>2022-06-21T14:03:26Z</time>
      </trkpt>
      <trkpt lat="45.93519" lon="-0.96138">
        <ele>12.2</ele>
        <time>2022-06-21T14:03:28Z</time>
      </trkpt>
      <trkpt lat="45.9352" lon="-0.96138">
        <ele>12.2</ele>
        <time>2022-06-21T14:03:29Z</time>
      </trkpt>
      <trkpt lat="45.93521" lon="-0.96137">
        <ele>12.2</ele>
        <time>2022-06-21T14:03:30Z</time>
      </trkpt>
      <trkpt lat="45.93523" lon="-0.96137">
        <ele>12.2</ele>
        <time>2022-06-21T14:03:31Z</time>
      </trkpt>
      <trkpt lat="45.93526" lon="-0.96136">
        <ele>12.2</ele>
        <time>2022-06-21T14:03:32Z</time>
      </trkpt>
      <trkpt lat="45.93527" lon="-0.96136">
        <ele>12.2</ele>
        <time>2022-06-21T14:03:33Z</time>
      </trkpt>
      <trkpt lat="45.93528" lon="-0.96135">
        <ele>12.2</ele>
        <time>2022-06-21T14:03:35Z</time>
      </trkpt>
      <trkpt lat="45.93529" lon="-0.96135">
        <ele>12.2</ele>
        <time>2022-06-21T14:03:36Z</time>
      </trkpt>
      <trkpt lat="45.93529" lon="-0.96135">
        <ele>12.3</ele>
        <time>2022-06-21T14:03:37Z</time>
      </trkpt>
      <trkpt lat="45.93531" lon="-0.96135">
        <ele>12.3</ele>
        <time>2022-06-21T14:03:38Z</time>
      </trkpt>
      <trkpt lat="45.93532" lon="-0.96135">
        <ele>12.3</ele>
        <time>2022-06-21T14:03:39Z</time>
      </trkpt>
      <trkpt lat="45.93533" lon="-0.96135">
        <ele>12.3</ele>
        <time>2022-06-21T14:03:40Z</time>
      </trkpt>
      <trkpt lat="45.93533" lon="-0.96135">
        <ele>12.3</ele>
        <time>2022-06-21T14:03:42Z</time>
      </trkpt>
      <trkpt lat="45.93534" lon="-0.96134">
        <ele>12.3</ele>
        <time>2022-06-21T14:03:43Z</time>
      </trkpt>
      <trkpt lat="45.93535" lon="-0.96134">
        <ele>12.3</ele>
        <time>2022-06-21T14:03:44Z</time>
      </trkpt>
      <trkpt lat="45.93536" lon="-0.96134">
        <ele>12.3</ele>
        <time>2022-06-21T14:03:45Z</time>
      </trkpt>
      <trkpt lat="45.93538" lon="-0.96133">
        <ele>12.3</ele>
        <time>2022-06-21T14:03:46Z</time>
      </trkpt>
      <trkpt lat="45.93539" lon="-0.96133">
        <ele>12.3</ele>
        <time>2022-06-21T14:03:47Z</time>
      </trkpt>
      <trkpt lat="45.93539" lon="-0.96133">
        <ele>12.3</ele>
        <time>2022-06-21T14:03:48Z</time>
      </trkpt>
      <trkpt lat="45.9354" lon="-0.96132">
        <ele>12.3</ele>
        <time>2022-06-21T14:03:49Z</time>
      </trkpt>
      <trkpt lat="45.9354" lon="-0.96132">
        <ele>12.3</ele>
        <time>2022-06-21T14:03:51Z</time>
      </trkpt>
      <trkpt lat="45.93542" lon="-0.96132">
        <ele>12.3</ele>
        <time>2022-06-21T14:03:52Z</time>
      </trkpt>
      <trkpt lat="45.93542" lon="-0.96132">
        <ele>12.3</ele>
        <time>2022-06-21T14:03:53Z</time>
      </trkpt>
      <trkpt lat="45.93543" lon="-0.96131">
        <ele>12.3</ele>
        <time>2022-06-21T14:03:54Z</time>
      </trkpt>
      <trkpt lat="45.93544" lon="-0.96132">
        <ele>12.3</ele>
        <time>2022-06-21T14:03:55Z</time>
      </trkpt>
      <trkpt lat="45.93545" lon="-0.96132">
        <ele>12.3</ele>
        <time>2022-06-21T14:03:57Z</time>
      </trkpt>
      <trkpt lat="45.93546" lon="-0.96131">
        <ele>12.4</ele>
        <time>2022-06-21T14:03:58Z</time>
      </trkpt>
      <trkpt lat="45.93547" lon="-0.96131">
        <ele>12.4</ele>
        <time>2022-06-21T14:03:59Z</time>
      </trkpt>
      <trkpt lat="45.93548" lon="-0.96131">
        <ele>12.4</ele>
        <time>2022-06-21T14:04:00Z</time>
      </trkpt>
      <trkpt lat="45.9355" lon="-0.96131">
        <ele>12.4</ele>
        <time>2022-06-21T14:04:01Z</time>
      </trkpt>
      <trkpt lat="45.93551" lon="-0.96131">
        <ele>12.3</ele>
        <time>2022-06-21T14:04:02Z</time>
      </trkpt>
      <trkpt lat="45.93551" lon="-0.96132">
        <ele>12.3</ele>
        <time>2022-06-21T14:04:04Z</time>
      </trkpt>
      <trkpt lat="45.93551" lon="-0.96132">
        <ele>12.3</ele>
        <time>2022-06-21T14:04:05Z</time>
      </trkpt>
      <trkpt lat="45.93552" lon="-0.96133">
        <ele>12.3</ele>
        <time>2022-06-21T14:04:06Z</time>
      </trkpt>
      <trkpt lat="45.93549" lon="-0.96136">
        <ele>12.3</ele>
        <time>2022-06-21T14:04:08Z</time>
      </trkpt>
      <trkpt lat="45.93552" lon="-0.96136">
        <ele>12.3</ele>
        <time>2022-06-21T14:04:09Z</time>
      </trkpt>
      <trkpt lat="45.93554" lon="-0.96135">
        <ele>12.3</ele>
        <time>2022-06-21T14:04:10Z</time>
      </trkpt>
      <trkpt lat="45.93559" lon="-0.96132">
        <ele>12.3</ele>
        <time>2022-06-21T14:04:12Z</time>
      </trkpt>
      <trkpt lat="45.93561" lon="-0.9613">
        <ele>12.3</ele>
        <time>2022-06-21T14:04:13Z</time>
      </trkpt>
      <trkpt lat="45.93561" lon="-0.9613">
        <ele>12.3</ele>
        <time>2022-06-21T14:04:14Z</time>
      </trkpt>
      <trkpt lat="45.93561" lon="-0.9613">
        <ele>12.3</ele>
        <time>2022-06-21T14:04:15Z</time>
      </trkpt>
      <trkpt lat="45.93561" lon="-0.96131">
        <ele>12.3</ele>
        <time>2022-06-21T14:04:16Z</time>
      </trkpt>
      <trkpt lat="45.93561" lon="-0.96131">
        <ele>12.3</ele>
        <time>2022-06-21T14:04:17Z</time>
      </trkpt>
      <trkpt lat="45.93559" lon="-0.96134">
        <ele>12.3</ele>
        <time>2022-06-21T14:04:19Z</time>
      </trkpt>
      <trkpt lat="45.93559" lon="-0.96134">
        <ele>12.3</ele>
        <time>2022-06-21T14:04:20Z</time>
      </trkpt>
      <trkpt lat="45.9356" lon="-0.96133">
        <ele>12.3</ele>
        <time>2022-06-21T14:04:21Z</time>
      </trkpt>
      <trkpt lat="45.9356" lon="-0.96133">
        <ele>12.3</ele>
        <time>2022-06-21T14:04:22Z</time>
      </trkpt>
      <trkpt lat="45.93558" lon="-0.96133">
        <ele>12.3</ele>
        <time>2022-06-21T14:04:23Z</time>
      </trkpt>
      <trkpt lat="45.93557" lon="-0.96134">
        <ele>12.3</ele>
        <time>2022-06-21T14:04:24Z</time>
      </trkpt>
      <trkpt lat="45.93557" lon="-0.96135">
        <ele>12.3</ele>
        <time>2022-06-21T14:04:25Z</time>
      </trkpt>
      <trkpt lat="45.93555" lon="-0.96136">
        <ele>12.3</ele>
        <time>2022-06-21T14:04:27Z</time>
      </trkpt>
      <trkpt lat="45.93555" lon="-0.96136">
        <ele>12.2</ele>
        <time>2022-06-21T14:04:28Z</time>
      </trkpt>
      <trkpt lat="45.93555" lon="-0.96136">
        <ele>12.2</ele>
        <time>2022-06-21T14:04:29Z</time>
      </trkpt>
      <trkpt lat="45.93555" lon="-0.96136">
        <ele>12.2</ele>
        <time>2022-06-21T14:04:30Z</time>
      </trkpt>
      <trkpt lat="45.93555" lon="-0.96136">
        <ele>12.2</ele>
        <time>2022-06-21T14:04:31Z</time>
      </trkpt>
      <trkpt lat="45.93555" lon="-0.96136">
        <ele>12.2</ele>
        <time>2022-06-21T14:04:32Z</time>
      </trkpt>
      <trkpt lat="45.93555" lon="-0.96136">
        <ele>12.2</ele>
        <time>2022-06-21T14:04:33Z</time>
      </trkpt>
      <trkpt lat="45.93555" lon="-0.96136">
        <ele>12.2</ele>
        <time>2022-06-21T14:04:34Z</time>
      </trkpt>
      <trkpt lat="45.93555" lon="-0.96136">
        <ele>12.2</ele>
        <time>2022-06-21T14:04:35Z</time>
      </trkpt>
      <trkpt lat="45.93555" lon="-0.96136">
        <ele>12.2</ele>
        <time>2022-06-21T14:04:36Z</time>
      </trkpt>
      <trkpt lat="45.93555" lon="-0.96136">
        <ele>12.2</ele>
        <time>2022-06-21T14:04:37Z</time>
      </trkpt>
      <trkpt lat="45.93555" lon="-0.96136">
        <ele>12.2</ele>
        <time>2022-06-21T14:04:38Z</time>
      </trkpt>
      <trkpt lat="45.93555" lon="-0.96136">
        <ele>12.2</ele>
        <time>2022-06-21T14:04:39Z</time>
      </trkpt>
      <trkpt lat="45.93555" lon="-0.96136">
        <ele>12.2</ele>
        <time>2022-06-21T14:04:40Z</time>
      </trkpt>
      <trkpt lat="45.93556" lon="-0.96136">
        <ele>12.2</ele>
        <time>2022-06-21T14:04:41Z</time>
      </trkpt>
      <trkpt lat="45.93556" lon="-0.96136">
        <ele>12.2</ele>
        <time>2022-06-21T14:04:42Z</time>
      </trkpt>
      <trkpt lat="45.93556" lon="-0.96136">
        <ele>12.2</ele>
        <time>2022-06-21T14:04:43Z</time>
      </trkpt>
      <trkpt lat="45.93556" lon="-0.96136">
        <ele>12.2</ele>
        <time>2022-06-21T14:04:44Z</time>
      </trkpt>
      <trkpt lat="45.93556" lon="-0.96136">
        <ele>12.2</ele>
        <time>2022-06-21T14:04:45Z</time>
      </trkpt>
      <trkpt lat="45.93556" lon="-0.96136">
        <ele>12.2</ele>
        <time>2022-06-21T14:04:47Z</time>
      </trkpt>
      <trkpt lat="45.93556" lon="-0.96136">
        <ele>12.2</ele>
        <time>2022-06-21T14:04:48Z</time>
      </trkpt>
      <trkpt lat="45.93556" lon="-0.96136">
        <ele>12.2</ele>
        <time>2022-06-21T14:04:49Z</time>
      </trkpt>
      <trkpt lat="45.93556" lon="-0.96137">
        <ele>12.2</ele>
        <time>2022-06-21T14:04:51Z</time>
      </trkpt>
      <trkpt lat="45.93556" lon="-0.96137">
        <ele>12.2</ele>
        <time>2022-06-21T14:04:52Z</time>
      </trkpt>
      <trkpt lat="45.93556" lon="-0.96137">
        <ele>12.2</ele>
        <time>2022-06-21T14:04:53Z</time>
      </trkpt>
      <trkpt lat="45.93556" lon="-0.96137">
        <ele>12.2</ele>
        <time>2022-06-21T14:04:54Z</time>
      </trkpt>
      <trkpt lat="45.93556" lon="-0.96137">
        <ele>12.2</ele>
        <time>2022-06-21T14:04:55Z</time>
      </trkpt>
      <trkpt lat="45.93556" lon="-0.96137">
        <ele>12.2</ele>
        <time>2022-06-21T14:04:56Z</time>
      </trkpt>
      <trkpt lat="45.93556" lon="-0.96137">
        <ele>12.2</ele>
        <time>2022-06-21T14:04:57Z</time>
      </trkpt>
      <trkpt lat="45.93556" lon="-0.96137">
        <ele>12.2</ele>
        <time>2022-06-21T14:04:58Z</time>
      </trkpt>
      <trkpt lat="45.93556" lon="-0.96137">
        <ele>12.2</ele>
        <time>2022-06-21T14:04:59Z</time>
      </trkpt>
      <trkpt lat="45.93556" lon="-0.96137">
        <ele>12.2</ele>
        <time>2022-06-21T14:05:00Z</time>
      </trkpt>
      <trkpt lat="45.93556" lon="-0.96137">
        <ele>12.2</ele>
        <time>2022-06-21T14:05:01Z</time>
      </trkpt>
      <trkpt lat="45.93557" lon="-0.96137">
        <ele>12.2</ele>
        <time>2022-06-21T14:05:02Z</time>
      </trkpt>
      <trkpt lat="45.93557" lon="-0.96137">
        <ele>12.2</ele>
        <time>2022-06-21T14:05:03Z</time>
      </trkpt>
      <trkpt lat="45.93557" lon="-0.96137">
        <ele>12.2</ele>
        <time>2022-06-21T14:05:04Z</time>
      </trkpt>
      <trkpt lat="45.93557" lon="-0.96137">
        <ele>12.2</ele>
        <time>2022-06-21T14:05:05Z</time>
      </trkpt>
      <trkpt lat="45.93557" lon="-0.96137">
        <ele>12.2</ele>
        <time>2022-06-21T14:05:06Z</time>
      </trkpt>
      <trkpt lat="45.93557" lon="-0.96137">
        <ele>12.2</ele>
        <time>2022-06-21T14:05:08Z</time>
      </trkpt>
      <trkpt lat="45.93557" lon="-0.96137">
        <ele>12.2</ele>
        <time>2022-06-21T14:05:08Z</time>
      </trkpt>
      <trkpt lat="45.93557" lon="-0.96137">
        <ele>12.2</ele>
        <time>2022-06-21T14:05:09Z</time>
      </trkpt>
      <trkpt lat="45.93557" lon="-0.96137">
        <ele>12.2</ele>
        <time>2022-06-21T14:05:10Z</time>
      </trkpt>
      <trkpt lat="45.93557" lon="-0.96137">
        <ele>12.2</ele>
        <time>2022-06-21T14:05:11Z</time>
      </trkpt>
      <trkpt lat="45.93557" lon="-0.96137">
        <ele>12.2</ele>
        <time>2022-06-21T14:05:12Z</time>
      </trkpt>
      <trkpt lat="45.93557" lon="-0.96137">
        <ele>12.2</ele>
        <time>2022-06-21T14:05:13Z</time>
      </trkpt>
      <trkpt lat="45.93558" lon="-0.96138">
        <ele>12.2</ele>
        <time>2022-06-21T14:05:14Z</time>
      </trkpt>
      <trkpt lat="45.93559" lon="-0.96138">
        <ele>12.2</ele>
        <time>2022-06-21T14:05:15Z</time>
      </trkpt>
      <trkpt lat="45.9356" lon="-0.96139">
        <ele>12.2</ele>
        <time>2022-06-21T14:05:16Z</time>
      </trkpt>
      <trkpt lat="45.9356" lon="-0.96139">
        <ele>12.2</ele>
        <time>2022-06-21T14:05:17Z</time>
      </trkpt>
      <trkpt lat="45.9356" lon="-0.96139">
        <ele>12.2</ele>
        <time>2022-06-21T14:05:18Z</time>
      </trkpt>
      <trkpt lat="45.93562" lon="-0.96135">
        <ele>12.2</ele>
        <time>2022-06-21T14:05:19Z</time>
      </trkpt>
      <trkpt lat="45.93565" lon="-0.9613">
        <ele>12.2</ele>
        <time>2022-06-21T14:05:21Z</time>
      </trkpt>
      <trkpt lat="45.93565" lon="-0.9613">
        <ele>12.2</ele>
        <time>2022-06-21T14:05:22Z</time>
      </trkpt>
      <trkpt lat="45.93566" lon="-0.96129">
        <ele>12.2</ele>
        <time>2022-06-21T14:05:23Z</time>
      </trkpt>
      <trkpt lat="45.93567" lon="-0.96128">
        <ele>12.2</ele>
        <time>2022-06-21T14:05:24Z</time>
      </trkpt>
      <trkpt lat="45.9357" lon="-0.96127">
        <ele>12.2</ele>
        <time>2022-06-21T14:05:26Z</time>
      </trkpt>
      <trkpt lat="45.9357" lon="-0.96127">
        <ele>12.2</ele>
        <time>2022-06-21T14:05:27Z</time>
      </trkpt>
      <trkpt lat="45.93572" lon="-0.96127">
        <ele>12.2</ele>
        <time>2022-06-21T14:05:28Z</time>
      </trkpt>
      <trkpt lat="45.93573" lon="-0.96126">
        <ele>12.2</ele>
        <time>2022-06-21T14:05:29Z</time>
      </trkpt>
      <trkpt lat="45.93575" lon="-0.96126">
        <ele>12.1</ele>
        <time>2022-06-21T14:05:31Z</time>
      </trkpt>
      <trkpt lat="45.93577" lon="-0.96125">
        <ele>12.1</ele>
        <time>2022-06-21T14:05:32Z</time>
      </trkpt>
      <trkpt lat="45.93578" lon="-0.96124">
        <ele>12.1</ele>
        <time>2022-06-21T14:05:34Z</time>
      </trkpt>
      <trkpt lat="45.93579" lon="-0.96124">
        <ele>12.1</ele>
        <time>2022-06-21T14:05:35Z</time>
      </trkpt>
      <trkpt lat="45.9358" lon="-0.96123">
        <ele>12.1</ele>
        <time>2022-06-21T14:05:36Z</time>
      </trkpt>
      <trkpt lat="45.93581" lon="-0.96123">
        <ele>12.1</ele>
        <time>2022-06-21T14:05:37Z</time>
      </trkpt>
      <trkpt lat="45.93583" lon="-0.96122">
        <ele>12.1</ele>
        <time>2022-06-21T14:05:38Z</time>
      </trkpt>
      <trkpt lat="45.93584" lon="-0.96121">
        <ele>12.1</ele>
        <time>2022-06-21T14:05:40Z</time>
      </trkpt>
      <trkpt lat="45.93585" lon="-0.9612">
        <ele>12.1</ele>
        <time>2022-06-21T14:05:41Z</time>
      </trkpt>
      <trkpt lat="45.93586" lon="-0.9612">
        <ele>12.1</ele>
        <time>2022-06-21T14:05:43Z</time>
      </trkpt>
      <trkpt lat="45.93587" lon="-0.9612">
        <ele>12.1</ele>
        <time>2022-06-21T14:05:44Z</time>
      </trkpt>
      <trkpt lat="45.93589" lon="-0.96122">
        <ele>12.1</ele>
        <time>2022-06-21T14:05:45Z</time>
      </trkpt>
      <trkpt lat="45.93589" lon="-0.96123">
        <ele>12.1</ele>
        <time>2022-06-21T14:05:46Z</time>
      </trkpt>
      <trkpt lat="45.9359" lon="-0.96125">
        <ele>12.1</ele>
        <time>2022-06-21T14:05:47Z</time>
      </trkpt>
      <trkpt lat="45.93591" lon="-0.96126">
        <ele>12.1</ele>
        <time>2022-06-21T14:05:49Z</time>
      </trkpt>
      <trkpt lat="45.93592" lon="-0.96128">
        <ele>12.1</ele>
        <time>2022-06-21T14:05:50Z</time>
      </trkpt>
      <trkpt lat="45.93592" lon="-0.96129">
        <ele>12.1</ele>
        <time>2022-06-21T14:05:51Z</time>
      </trkpt>
      <trkpt lat="45.93595" lon="-0.96127">
        <ele>12</ele>
        <time>2022-06-21T14:05:52Z</time>
      </trkpt>
      <trkpt lat="45.93597" lon="-0.96127">
        <ele>12</ele>
        <time>2022-06-21T14:05:53Z</time>
      </trkpt>
      <trkpt lat="45.93598" lon="-0.96128">
        <ele>12</ele>
        <time>2022-06-21T14:05:54Z</time>
      </trkpt>
      <trkpt lat="45.93599" lon="-0.96129">
        <ele>12</ele>
        <time>2022-06-21T14:05:56Z</time>
      </trkpt>
      <trkpt lat="45.93601" lon="-0.96128">
        <ele>12</ele>
        <time>2022-06-21T14:05:57Z</time>
      </trkpt>
      <trkpt lat="45.93602" lon="-0.96129">
        <ele>12</ele>
        <time>2022-06-21T14:05:58Z</time>
      </trkpt>
      <trkpt lat="45.93603" lon="-0.96129">
        <ele>12</ele>
        <time>2022-06-21T14:05:59Z</time>
      </trkpt>
      <trkpt lat="45.93604" lon="-0.9613">
        <ele>12</ele>
        <time>2022-06-21T14:06:00Z</time>
      </trkpt>
      <trkpt lat="45.93604" lon="-0.96131">
        <ele>12</ele>
        <time>2022-06-21T14:06:01Z</time>
      </trkpt>
      <trkpt lat="45.93604" lon="-0.96133">
        <ele>12</ele>
        <time>2022-06-21T14:06:02Z</time>
      </trkpt>
      <trkpt lat="45.93604" lon="-0.96135">
        <ele>12</ele>
        <time>2022-06-21T14:06:04Z</time>
      </trkpt>
      <trkpt lat="45.93604" lon="-0.96138">
        <ele>12.1</ele>
        <time>2022-06-21T14:06:05Z</time>
      </trkpt>
      <trkpt lat="45.93605" lon="-0.96138">
        <ele>12.1</ele>
        <time>2022-06-21T14:06:06Z</time>
      </trkpt>
      <trkpt lat="45.93605" lon="-0.96138">
        <ele>12.1</ele>
        <time>2022-06-21T14:06:07Z</time>
      </trkpt>
      <trkpt lat="45.93605" lon="-0.9614">
        <ele>12.1</ele>
        <time>2022-06-21T14:06:09Z</time>
      </trkpt>
      <trkpt lat="45.93605" lon="-0.96142">
        <ele>12.1</ele>
        <time>2022-06-21T14:06:10Z</time>
      </trkpt>
      <trkpt lat="45.93606" lon="-0.96143">
        <ele>12.2</ele>
        <time>2022-06-21T14:06:11Z</time>
      </trkpt>
      <trkpt lat="45.93608" lon="-0.96139">
        <ele>12.2</ele>
        <time>2022-06-21T14:06:12Z</time>
      </trkpt>
      <trkpt lat="45.93608" lon="-0.96139">
        <ele>12.2</ele>
        <time>2022-06-21T14:06:13Z</time>
      </trkpt>
      <trkpt lat="45.93607" lon="-0.96141">
        <ele>12.2</ele>
        <time>2022-06-21T14:06:14Z</time>
      </trkpt>
      <trkpt lat="45.93607" lon="-0.96142">
        <ele>12.2</ele>
        <time>2022-06-21T14:06:16Z</time>
      </trkpt>
      <trkpt lat="45.93606" lon="-0.96142">
        <ele>12.2</ele>
        <time>2022-06-21T14:06:17Z</time>
      </trkpt>
      <trkpt lat="45.93606" lon="-0.96143">
        <ele>12.2</ele>
        <time>2022-06-21T14:06:18Z</time>
      </trkpt>
      <trkpt lat="45.93606" lon="-0.96144">
        <ele>12.2</ele>
        <time>2022-06-21T14:06:19Z</time>
      </trkpt>
      <trkpt lat="45.93606" lon="-0.96145">
        <ele>12.2</ele>
        <time>2022-06-21T14:06:20Z</time>
      </trkpt>
      <trkpt lat="45.93606" lon="-0.96146">
        <ele>12.2</ele>
        <time>2022-06-21T14:06:21Z</time>
      </trkpt>
      <trkpt lat="45.93607" lon="-0.96147">
        <ele>12.2</ele>
        <time>2022-06-21T14:06:22Z</time>
      </trkpt>
      <trkpt lat="45.93607" lon="-0.96149">
        <ele>12.2</ele>
        <time>2022-06-21T14:06:23Z</time>
      </trkpt>
      <trkpt lat="45.93607" lon="-0.9615">
        <ele>12.2</ele>
        <time>2022-06-21T14:06:24Z</time>
      </trkpt>
      <trkpt lat="45.93607" lon="-0.96151">
        <ele>12.2</ele>
        <time>2022-06-21T14:06:26Z</time>
      </trkpt>
      <trkpt lat="45.93607" lon="-0.96154">
        <ele>12.2</ele>
        <time>2022-06-21T14:06:27Z</time>
      </trkpt>
      <trkpt lat="45.93607" lon="-0.96157">
        <ele>12.2</ele>
        <time>2022-06-21T14:06:29Z</time>
      </trkpt>
      <trkpt lat="45.93608" lon="-0.96158">
        <ele>12.2</ele>
        <time>2022-06-21T14:06:30Z</time>
      </trkpt>
      <trkpt lat="45.93608" lon="-0.96159">
        <ele>12.2</ele>
        <time>2022-06-21T14:06:31Z</time>
      </trkpt>
      <trkpt lat="45.93608" lon="-0.96163">
        <ele>12.2</ele>
        <time>2022-06-21T14:06:32Z</time>
      </trkpt>
      <trkpt lat="45.93609" lon="-0.96164">
        <ele>12.3</ele>
        <time>2022-06-21T14:06:34Z</time>
      </trkpt>
      <trkpt lat="45.9361" lon="-0.96167">
        <ele>12.3</ele>
        <time>2022-06-21T14:06:35Z</time>
      </trkpt>
      <trkpt lat="45.93612" lon="-0.9617">
        <ele>12.3</ele>
        <time>2022-06-21T14:06:36Z</time>
      </trkpt>
      <trkpt lat="45.93613" lon="-0.9617">
        <ele>12.3</ele>
        <time>2022-06-21T14:06:37Z</time>
      </trkpt>
      <trkpt lat="45.93614" lon="-0.96172">
        <ele>12.3</ele>
        <time>2022-06-21T14:06:39Z</time>
      </trkpt>
      <trkpt lat="45.93616" lon="-0.96173">
        <ele>12.3</ele>
        <time>2022-06-21T14:06:40Z</time>
      </trkpt>
      <trkpt lat="45.93617" lon="-0.96173">
        <ele>12.3</ele>
        <time>2022-06-21T14:06:41Z</time>
      </trkpt>
      <trkpt lat="45.93618" lon="-0.96173">
        <ele>12.3</ele>
        <time>2022-06-21T14:06:42Z</time>
      </trkpt>
      <trkpt lat="45.93618" lon="-0.96173">
        <ele>12.3</ele>
        <time>2022-06-21T14:06:43Z</time>
      </trkpt>
      <trkpt lat="45.93618" lon="-0.9617">
        <ele>12.3</ele>
        <time>2022-06-21T14:06:45Z</time>
      </trkpt>
      <trkpt lat="45.93617" lon="-0.96169">
        <ele>12.3</ele>
        <time>2022-06-21T14:06:46Z</time>
      </trkpt>
      <trkpt lat="45.93616" lon="-0.96167">
        <ele>12.3</ele>
        <time>2022-06-21T14:06:47Z</time>
      </trkpt>
      <trkpt lat="45.93614" lon="-0.96166">
        <ele>12.3</ele>
        <time>2022-06-21T14:06:49Z</time>
      </trkpt>
      <trkpt lat="45.93614" lon="-0.96166">
        <ele>12.3</ele>
        <time>2022-06-21T14:06:50Z</time>
      </trkpt>
      <trkpt lat="45.93613" lon="-0.96166">
        <ele>12.3</ele>
        <time>2022-06-21T14:06:51Z</time>
      </trkpt>
      <trkpt lat="45.93611" lon="-0.96166">
        <ele>12.4</ele>
        <time>2022-06-21T14:06:52Z</time>
      </trkpt>
      <trkpt lat="45.93612" lon="-0.96166">
        <ele>12.4</ele>
        <time>2022-06-21T14:06:53Z</time>
      </trkpt>
      <trkpt lat="45.93612" lon="-0.96166">
        <ele>12.4</ele>
        <time>2022-06-21T14:06:54Z</time>
      </trkpt>
      <trkpt lat="45.93613" lon="-0.96166">
        <ele>12.4</ele>
        <time>2022-06-21T14:06:55Z</time>
      </trkpt>
      <trkpt lat="45.93613" lon="-0.96166">
        <ele>12.4</ele>
        <time>2022-06-21T14:06:56Z</time>
      </trkpt>
      <trkpt lat="45.93613" lon="-0.96166">
        <ele>12.4</ele>
        <time>2022-06-21T14:06:57Z</time>
      </trkpt>
      <trkpt lat="45.93614" lon="-0.96166">
        <ele>12.4</ele>
        <time>2022-06-21T14:06:58Z</time>
      </trkpt>
      <trkpt lat="45.93614" lon="-0.96166">
        <ele>12.4</ele>
        <time>2022-06-21T14:06:59Z</time>
      </trkpt>
      <trkpt lat="45.93614" lon="-0.96166">
        <ele>12.4</ele>
        <time>2022-06-21T14:07:00Z</time>
      </trkpt>
      <trkpt lat="45.93615" lon="-0.96166">
        <ele>12.4</ele>
        <time>2022-06-21T14:07:01Z</time>
      </trkpt>
      <trkpt lat="45.93615" lon="-0.96166">
        <ele>12.4</ele>
        <time>2022-06-21T14:07:02Z</time>
      </trkpt>
      <trkpt lat="45.93615" lon="-0.96166">
        <ele>12.4</ele>
        <time>2022-06-21T14:07:03Z</time>
      </trkpt>
      <trkpt lat="45.93616" lon="-0.96166">
        <ele>12.4</ele>
        <time>2022-06-21T14:07:04Z</time>
      </trkpt>
      <trkpt lat="45.93616" lon="-0.96166">
        <ele>12.4</ele>
        <time>2022-06-21T14:07:05Z</time>
      </trkpt>
      <trkpt lat="45.93616" lon="-0.96166">
        <ele>12.4</ele>
        <time>2022-06-21T14:07:06Z</time>
      </trkpt>
      <trkpt lat="45.93618" lon="-0.96166">
        <ele>12.4</ele>
        <time>2022-06-21T14:07:07Z</time>
      </trkpt>
      <trkpt lat="45.93619" lon="-0.96166">
        <ele>12.4</ele>
        <time>2022-06-21T14:07:08Z</time>
      </trkpt>
      <trkpt lat="45.9362" lon="-0.96167">
        <ele>12.4</ele>
        <time>2022-06-21T14:07:09Z</time>
      </trkpt>
      <trkpt lat="45.9362" lon="-0.96167">
        <ele>12.4</ele>
        <time>2022-06-21T14:07:10Z</time>
      </trkpt>
      <trkpt lat="45.93626" lon="-0.96169">
        <ele>12.4</ele>
        <time>2022-06-21T14:07:11Z</time>
      </trkpt>
      <trkpt lat="45.93625" lon="-0.96169">
        <ele>12.4</ele>
        <time>2022-06-21T14:07:12Z</time>
      </trkpt>
      <trkpt lat="45.93623" lon="-0.96168">
        <ele>12.4</ele>
        <time>2022-06-21T14:07:13Z</time>
      </trkpt>
      <trkpt lat="45.93622" lon="-0.96168">
        <ele>12.4</ele>
        <time>2022-06-21T14:07:14Z</time>
      </trkpt>
      <trkpt lat="45.9362" lon="-0.96168">
        <ele>12.4</ele>
        <time>2022-06-21T14:07:15Z</time>
      </trkpt>
      <trkpt lat="45.93623" lon="-0.9617">
        <ele>12.5</ele>
        <time>2022-06-21T14:07:17Z</time>
      </trkpt>
      <trkpt lat="45.93624" lon="-0.9617">
        <ele>12.5</ele>
        <time>2022-06-21T14:07:18Z</time>
      </trkpt>
      <trkpt lat="45.93625" lon="-0.96171">
        <ele>12.5</ele>
        <time>2022-06-21T14:07:19Z</time>
      </trkpt>
      <trkpt lat="45.93626" lon="-0.96172">
        <ele>12.5</ele>
        <time>2022-06-21T14:07:20Z</time>
      </trkpt>
      <trkpt lat="45.93627" lon="-0.96172">
        <ele>12.5</ele>
        <time>2022-06-21T14:07:21Z</time>
      </trkpt>
      <trkpt lat="45.93627" lon="-0.96171">
        <ele>12.5</ele>
        <time>2022-06-21T14:07:22Z</time>
      </trkpt>
      <trkpt lat="45.93627" lon="-0.96171">
        <ele>12.5</ele>
        <time>2022-06-21T14:07:23Z</time>
      </trkpt>
      <trkpt lat="45.93627" lon="-0.96171">
        <ele>12.5</ele>
        <time>2022-06-21T14:07:24Z</time>
      </trkpt>
      <trkpt lat="45.93627" lon="-0.96171">
        <ele>12.5</ele>
        <time>2022-06-21T14:07:25Z</time>
      </trkpt>
      <trkpt lat="45.93627" lon="-0.96171">
        <ele>12.5</ele>
        <time>2022-06-21T14:07:26Z</time>
      </trkpt>
      <trkpt lat="45.93627" lon="-0.96171">
        <ele>12.5</ele>
        <time>2022-06-21T14:07:27Z</time>
      </trkpt>
      <trkpt lat="45.93627" lon="-0.96171">
        <ele>12.5</ele>
        <time>2022-06-21T14:07:28Z</time>
      </trkpt>
      <trkpt lat="45.93627" lon="-0.96171">
        <ele>12.5</ele>
        <time>2022-06-21T14:07:29Z</time>
      </trkpt>
      <trkpt lat="45.93627" lon="-0.96171">
        <ele>12.5</ele>
        <time>2022-06-21T14:07:30Z</time>
      </trkpt>
      <trkpt lat="45.93627" lon="-0.96171">
        <ele>12.5</ele>
        <time>2022-06-21T14:07:31Z</time>
      </trkpt>
      <trkpt lat="45.93628" lon="-0.96171">
        <ele>12.5</ele>
        <time>2022-06-21T14:07:32Z</time>
      </trkpt>
      <trkpt lat="45.93628" lon="-0.96171">
        <ele>12.5</ele>
        <time>2022-06-21T14:07:33Z</time>
      </trkpt>
      <trkpt lat="45.93628" lon="-0.96171">
        <ele>12.5</ele>
        <time>2022-06-21T14:07:34Z</time>
      </trkpt>
      <trkpt lat="45.93628" lon="-0.96171">
        <ele>12.5</ele>
        <time>2022-06-21T14:07:35Z</time>
      </trkpt>
      <trkpt lat="45.93628" lon="-0.96172">
        <ele>12.5</ele>
        <time>2022-06-21T14:07:36Z</time>
      </trkpt>
      <trkpt lat="45.93628" lon="-0.96172">
        <ele>12.5</ele>
        <time>2022-06-21T14:07:37Z</time>
      </trkpt>
      <trkpt lat="45.93628" lon="-0.96173">
        <ele>12.5</ele>
        <time>2022-06-21T14:07:38Z</time>
      </trkpt>
      <trkpt lat="45.93628" lon="-0.96174">
        <ele>12.5</ele>
        <time>2022-06-21T14:07:39Z</time>
      </trkpt>
      <trkpt lat="45.93629" lon="-0.96174">
        <ele>12.5</ele>
        <time>2022-06-21T14:07:40Z</time>
      </trkpt>
      <trkpt lat="45.93629" lon="-0.96174">
        <ele>12.5</ele>
        <time>2022-06-21T14:07:41Z</time>
      </trkpt>
      <trkpt lat="45.93629" lon="-0.96174">
        <ele>12.5</ele>
        <time>2022-06-21T14:07:42Z</time>
      </trkpt>
      <trkpt lat="45.93629" lon="-0.96174">
        <ele>12.5</ele>
        <time>2022-06-21T14:07:43Z</time>
      </trkpt>
      <trkpt lat="45.93629" lon="-0.96174">
        <ele>12.5</ele>
        <time>2022-06-21T14:07:44Z</time>
      </trkpt>
      <trkpt lat="45.93629" lon="-0.96175">
        <ele>12.5</ele>
        <time>2022-06-21T14:07:45Z</time>
      </trkpt>
      <trkpt lat="45.93626" lon="-0.96174">
        <ele>12.5</ele>
        <time>2022-06-21T14:07:46Z</time>
      </trkpt>
      <trkpt lat="45.93622" lon="-0.96175">
        <ele>12.5</ele>
        <time>2022-06-21T14:07:47Z</time>
      </trkpt>
      <trkpt lat="45.93621" lon="-0.96177">
        <ele>12.5</ele>
        <time>2022-06-21T14:07:48Z</time>
      </trkpt>
      <trkpt lat="45.93623" lon="-0.9618">
        <ele>12.6</ele>
        <time>2022-06-21T14:07:50Z</time>
      </trkpt>
      <trkpt lat="45.93623" lon="-0.96181">
        <ele>12.6</ele>
        <time>2022-06-21T14:07:51Z</time>
      </trkpt>
      <trkpt lat="45.93624" lon="-0.96182">
        <ele>12.6</ele>
        <time>2022-06-21T14:07:52Z</time>
      </trkpt>
      <trkpt lat="45.93625" lon="-0.96184">
        <ele>12.6</ele>
        <time>2022-06-21T14:07:53Z</time>
      </trkpt>
      <trkpt lat="45.93625" lon="-0.96184">
        <ele>12.6</ele>
        <time>2022-06-21T14:07:54Z</time>
      </trkpt>
      <trkpt lat="45.93625" lon="-0.96186">
        <ele>12.6</ele>
        <time>2022-06-21T14:07:56Z</time>
      </trkpt>
      <trkpt lat="45.93625" lon="-0.96187">
        <ele>12.6</ele>
        <time>2022-06-21T14:07:57Z</time>
      </trkpt>
      <trkpt lat="45.93625" lon="-0.96188">
        <ele>12.6</ele>
        <time>2022-06-21T14:07:58Z</time>
      </trkpt>
      <trkpt lat="45.93625" lon="-0.96189">
        <ele>12.6</ele>
        <time>2022-06-21T14:07:59Z</time>
      </trkpt>
      <trkpt lat="45.93625" lon="-0.96189">
        <ele>12.6</ele>
        <time>2022-06-21T14:08:00Z</time>
      </trkpt>
      <trkpt lat="45.93626" lon="-0.96189">
        <ele>12.6</ele>
        <time>2022-06-21T14:08:01Z</time>
      </trkpt>
      <trkpt lat="45.93628" lon="-0.9619">
        <ele>12.6</ele>
        <time>2022-06-21T14:08:03Z</time>
      </trkpt>
      <trkpt lat="45.93629" lon="-0.96191">
        <ele>12.6</ele>
        <time>2022-06-21T14:08:04Z</time>
      </trkpt>
      <trkpt lat="45.9363" lon="-0.96191">
        <ele>12.6</ele>
        <time>2022-06-21T14:08:05Z</time>
      </trkpt>
      <trkpt lat="45.93632" lon="-0.96191">
        <ele>12.6</ele>
        <time>2022-06-21T14:08:06Z</time>
      </trkpt>
      <trkpt lat="45.93634" lon="-0.96192">
        <ele>12.6</ele>
        <time>2022-06-21T14:08:08Z</time>
      </trkpt>
      <trkpt lat="45.93634" lon="-0.96192">
        <ele>12.6</ele>
        <time>2022-06-21T14:08:09Z</time>
      </trkpt>
      <trkpt lat="45.93634" lon="-0.96192">
        <ele>12.6</ele>
        <time>2022-06-21T14:08:10Z</time>
      </trkpt>
      <trkpt lat="45.93633" lon="-0.96189">
        <ele>12.6</ele>
        <time>2022-06-21T14:08:11Z</time>
      </trkpt>
      <trkpt lat="45.93633" lon="-0.96189">
        <ele>12.6</ele>
        <time>2022-06-21T14:08:13Z</time>
      </trkpt>
      <trkpt lat="45.93633" lon="-0.96189">
        <ele>12.6</ele>
        <time>2022-06-21T14:08:14Z</time>
      </trkpt>
      <trkpt lat="45.93633" lon="-0.9619">
        <ele>12.6</ele>
        <time>2022-06-21T14:08:15Z</time>
      </trkpt>
      <trkpt lat="45.93633" lon="-0.9619">
        <ele>12.6</ele>
        <time>2022-06-21T14:08:16Z</time>
      </trkpt>
      <trkpt lat="45.93634" lon="-0.96192">
        <ele>12.6</ele>
        <time>2022-06-21T14:08:17Z</time>
      </trkpt>
      <trkpt lat="45.93634" lon="-0.96193">
        <ele>12.6</ele>
        <time>2022-06-21T14:08:19Z</time>
      </trkpt>
      <trkpt lat="45.93635" lon="-0.96195">
        <ele>12.7</ele>
        <time>2022-06-21T14:08:20Z</time>
      </trkpt>
      <trkpt lat="45.93635" lon="-0.96196">
        <ele>12.7</ele>
        <time>2022-06-21T14:08:21Z</time>
      </trkpt>
      <trkpt lat="45.93635" lon="-0.96198">
        <ele>12.7</ele>
        <time>2022-06-21T14:08:22Z</time>
      </trkpt>
      <trkpt lat="45.93636" lon="-0.962">
        <ele>12.7</ele>
        <time>2022-06-21T14:08:23Z</time>
      </trkpt>
      <trkpt lat="45.93637" lon="-0.96203">
        <ele>12.7</ele>
        <time>2022-06-21T14:08:24Z</time>
      </trkpt>
      <trkpt lat="45.93638" lon="-0.96203">
        <ele>12.7</ele>
        <time>2022-06-21T14:08:26Z</time>
      </trkpt>
      <trkpt lat="45.93639" lon="-0.96204">
        <ele>12.7</ele>
        <time>2022-06-21T14:08:27Z</time>
      </trkpt>
      <trkpt lat="45.93639" lon="-0.96204">
        <ele>12.7</ele>
        <time>2022-06-21T14:08:28Z</time>
      </trkpt>
      <trkpt lat="45.9364" lon="-0.96205">
        <ele>12.7</ele>
        <time>2022-06-21T14:08:29Z</time>
      </trkpt>
      <trkpt lat="45.93643" lon="-0.96202">
        <ele>12.7</ele>
        <time>2022-06-21T14:08:30Z</time>
      </trkpt>
      <trkpt lat="45.93644" lon="-0.96201">
        <ele>12.7</ele>
        <time>2022-06-21T14:08:32Z</time>
      </trkpt>
      <trkpt lat="45.93645" lon="-0.962">
        <ele>12.7</ele>
        <time>2022-06-21T14:08:33Z</time>
      </trkpt>
      <trkpt lat="45.93646" lon="-0.96199">
        <ele>12.7</ele>
        <time>2022-06-21T14:08:34Z</time>
      </trkpt>
      <trkpt lat="45.93648" lon="-0.96194">
        <ele>12.7</ele>
        <time>2022-06-21T14:08:35Z</time>
      </trkpt>
      <trkpt lat="45.93649" lon="-0.96187">
        <ele>12.6</ele>
        <time>2022-06-21T14:08:37Z</time>
      </trkpt>
      <trkpt lat="45.9365" lon="-0.96184">
        <ele>12.6</ele>
        <time>2022-06-21T14:08:38Z</time>
      </trkpt>
      <trkpt lat="45.93652" lon="-0.96182">
        <ele>12.6</ele>
        <time>2022-06-21T14:08:39Z</time>
      </trkpt>
      <trkpt lat="45.93653" lon="-0.96182">
        <ele>12.6</ele>
        <time>2022-06-21T14:08:40Z</time>
      </trkpt>
      <trkpt lat="45.93654" lon="-0.96182">
        <ele>12.6</ele>
        <time>2022-06-21T14:08:41Z</time>
      </trkpt>
      <trkpt lat="45.93655" lon="-0.96182">
        <ele>12.6</ele>
        <time>2022-06-21T14:08:42Z</time>
      </trkpt>
      <trkpt lat="45.93657" lon="-0.96182">
        <ele>12.6</ele>
        <time>2022-06-21T14:08:43Z</time>
      </trkpt>
      <trkpt lat="45.93658" lon="-0.96182">
        <ele>12.6</ele>
        <time>2022-06-21T14:08:45Z</time>
      </trkpt>
      <trkpt lat="45.93659" lon="-0.96182">
        <ele>12.6</ele>
        <time>2022-06-21T14:08:46Z</time>
      </trkpt>
      <trkpt lat="45.93661" lon="-0.9618">
        <ele>12.6</ele>
        <time>2022-06-21T14:08:47Z</time>
      </trkpt>
      <trkpt lat="45.93662" lon="-0.9618">
        <ele>12.5</ele>
        <time>2022-06-21T14:08:48Z</time>
      </trkpt>
      <trkpt lat="45.93663" lon="-0.9618">
        <ele>12.5</ele>
        <time>2022-06-21T14:08:49Z</time>
      </trkpt>
      <trkpt lat="45.93664" lon="-0.96179">
        <ele>12.5</ele>
        <time>2022-06-21T14:08:50Z</time>
      </trkpt>
      <trkpt lat="45.93667" lon="-0.9618">
        <ele>12.5</ele>
        <time>2022-06-21T14:08:52Z</time>
      </trkpt>
      <trkpt lat="45.93667" lon="-0.9618">
        <ele>12.5</ele>
        <time>2022-06-21T14:08:53Z</time>
      </trkpt>
      <trkpt lat="45.93668" lon="-0.9618">
        <ele>12.5</ele>
        <time>2022-06-21T14:08:54Z</time>
      </trkpt>
      <trkpt lat="45.93669" lon="-0.9618">
        <ele>12.5</ele>
        <time>2022-06-21T14:08:55Z</time>
      </trkpt>
      <trkpt lat="45.93673" lon="-0.96178">
        <ele>12.5</ele>
        <time>2022-06-21T14:08:57Z</time>
      </trkpt>
      <trkpt lat="45.93675" lon="-0.96177">
        <ele>12.5</ele>
        <time>2022-06-21T14:08:58Z</time>
      </trkpt>
      <trkpt lat="45.93675" lon="-0.96177">
        <ele>12.5</ele>
        <time>2022-06-21T14:08:59Z</time>
      </trkpt>
      <trkpt lat="45.93676" lon="-0.96177">
        <ele>12.5</ele>
        <time>2022-06-21T14:09:00Z</time>
      </trkpt>
      <trkpt lat="45.93681" lon="-0.96177">
        <ele>12.4</ele>
        <time>2022-06-21T14:09:01Z</time>
      </trkpt>
      <trkpt lat="45.93682" lon="-0.96176">
        <ele>12.4</ele>
        <time>2022-06-21T14:09:03Z</time>
      </trkpt>
      <trkpt lat="45.93683" lon="-0.96176">
        <ele>12.4</ele>
        <time>2022-06-21T14:09:04Z</time>
      </trkpt>
      <trkpt lat="45.93684" lon="-0.96176">
        <ele>12.4</ele>
        <time>2022-06-21T14:09:05Z</time>
      </trkpt>
      <trkpt lat="45.93687" lon="-0.96173">
        <ele>12.4</ele>
        <time>2022-06-21T14:09:06Z</time>
      </trkpt>
      <trkpt lat="45.93689" lon="-0.96171">
        <ele>12.4</ele>
        <time>2022-06-21T14:09:07Z</time>
      </trkpt>
      <trkpt lat="45.9369" lon="-0.96171">
        <ele>12.4</ele>
        <time>2022-06-21T14:09:08Z</time>
      </trkpt>
      <trkpt lat="45.93691" lon="-0.96171">
        <ele>12.4</ele>
        <time>2022-06-21T14:09:10Z</time>
      </trkpt>
      <trkpt lat="45.93692" lon="-0.9617">
        <ele>12.4</ele>
        <time>2022-06-21T14:09:11Z</time>
      </trkpt>
      <trkpt lat="45.93693" lon="-0.9617">
        <ele>12.3</ele>
        <time>2022-06-21T14:09:12Z</time>
      </trkpt>
      <trkpt lat="45.93693" lon="-0.9617">
        <ele>12.3</ele>
        <time>2022-06-21T14:09:13Z</time>
      </trkpt>
      <trkpt lat="45.93693" lon="-0.9617">
        <ele>12.3</ele>
        <time>2022-06-21T14:09:14Z</time>
      </trkpt>
      <trkpt lat="45.93693" lon="-0.96171">
        <ele>12.3</ele>
        <time>2022-06-21T14:09:15Z</time>
      </trkpt>
      <trkpt lat="45.93692" lon="-0.96172">
        <ele>12.3</ele>
        <time>2022-06-21T14:09:16Z</time>
      </trkpt>
      <trkpt lat="45.93692" lon="-0.96173">
        <ele>12.3</ele>
        <time>2022-06-21T14:09:18Z</time>
      </trkpt>
      <trkpt lat="45.93693" lon="-0.96173">
        <ele>12.3</ele>
        <time>2022-06-21T14:09:19Z</time>
      </trkpt>
      <trkpt lat="45.93694" lon="-0.96174">
        <ele>12.3</ele>
        <time>2022-06-21T14:09:20Z</time>
      </trkpt>
      <trkpt lat="45.93694" lon="-0.96174">
        <ele>12.3</ele>
        <time>2022-06-21T14:09:21Z</time>
      </trkpt>
      <trkpt lat="45.93694" lon="-0.96176">
        <ele>12.3</ele>
        <time>2022-06-21T14:09:22Z</time>
      </trkpt>
      <trkpt lat="45.93695" lon="-0.96176">
        <ele>12.3</ele>
        <time>2022-06-21T14:09:23Z</time>
      </trkpt>
      <trkpt lat="45.93696" lon="-0.96177">
        <ele>12.3</ele>
        <time>2022-06-21T14:09:25Z</time>
      </trkpt>
      <trkpt lat="45.93696" lon="-0.96177">
        <ele>12.3</ele>
        <time>2022-06-21T14:09:26Z</time>
      </trkpt>
      <trkpt lat="45.93698" lon="-0.9618">
        <ele>12.3</ele>
        <time>2022-06-21T14:09:27Z</time>
      </trkpt>
      <trkpt lat="45.93699" lon="-0.96182">
        <ele>12.2</ele>
        <time>2022-06-21T14:09:28Z</time>
      </trkpt>
      <trkpt lat="45.937" lon="-0.96184">
        <ele>12.2</ele>
        <time>2022-06-21T14:09:29Z</time>
      </trkpt>
      <trkpt lat="45.93701" lon="-0.96186">
        <ele>12.2</ele>
        <time>2022-06-21T14:09:30Z</time>
      </trkpt>
      <trkpt lat="45.93702" lon="-0.96188">
        <ele>12.2</ele>
        <time>2022-06-21T14:09:31Z</time>
      </trkpt>
      <trkpt lat="45.93702" lon="-0.9619">
        <ele>12.2</ele>
        <time>2022-06-21T14:09:32Z</time>
      </trkpt>
      <trkpt lat="45.93703" lon="-0.96191">
        <ele>12.2</ele>
        <time>2022-06-21T14:09:33Z</time>
      </trkpt>
      <trkpt lat="45.93704" lon="-0.96192">
        <ele>12.2</ele>
        <time>2022-06-21T14:09:34Z</time>
      </trkpt>
      <trkpt lat="45.93706" lon="-0.96192">
        <ele>12.2</ele>
        <time>2022-06-21T14:09:36Z</time>
      </trkpt>
      <trkpt lat="45.93708" lon="-0.96191">
        <ele>12.2</ele>
        <time>2022-06-21T14:09:38Z</time>
      </trkpt>
      <trkpt lat="45.93708" lon="-0.96193">
        <ele>12.1</ele>
        <time>2022-06-21T14:09:39Z</time>
      </trkpt>
      <trkpt lat="45.9371" lon="-0.96194">
        <ele>12.1</ele>
        <time>2022-06-21T14:09:41Z</time>
      </trkpt>
      <trkpt lat="45.93711" lon="-0.96196">
        <ele>12.1</ele>
        <time>2022-06-21T14:09:42Z</time>
      </trkpt>
      <trkpt lat="45.93711" lon="-0.96196">
        <ele>12.1</ele>
        <time>2022-06-21T14:09:43Z</time>
      </trkpt>
      <trkpt lat="45.93711" lon="-0.96196">
        <ele>12.1</ele>
        <time>2022-06-21T14:09:44Z</time>
      </trkpt>
      <trkpt lat="45.93711" lon="-0.96196">
        <ele>12.1</ele>
        <time>2022-06-21T14:09:45Z</time>
      </trkpt>
      <trkpt lat="45.93711" lon="-0.96195">
        <ele>12.1</ele>
        <time>2022-06-21T14:09:46Z</time>
      </trkpt>
      <trkpt lat="45.9371" lon="-0.96195">
        <ele>12.1</ele>
        <time>2022-06-21T14:09:48Z</time>
      </trkpt>
      <trkpt lat="45.9371" lon="-0.96195">
        <ele>12.1</ele>
        <time>2022-06-21T14:09:49Z</time>
      </trkpt>
      <trkpt lat="45.9371" lon="-0.96195">
        <ele>12.1</ele>
        <time>2022-06-21T14:09:50Z</time>
      </trkpt>
      <trkpt lat="45.9371" lon="-0.96195">
        <ele>12.1</ele>
        <time>2022-06-21T14:09:51Z</time>
      </trkpt>
      <trkpt lat="45.9371" lon="-0.96196">
        <ele>12.1</ele>
        <time>2022-06-21T14:09:52Z</time>
      </trkpt>
      <trkpt lat="45.9371" lon="-0.96196">
        <ele>12.1</ele>
        <time>2022-06-21T14:09:53Z</time>
      </trkpt>
      <trkpt lat="45.9371" lon="-0.96196">
        <ele>12.1</ele>
        <time>2022-06-21T14:09:54Z</time>
      </trkpt>
      <trkpt lat="45.93709" lon="-0.96195">
        <ele>12.1</ele>
        <time>2022-06-21T14:09:56Z</time>
      </trkpt>
      <trkpt lat="45.93709" lon="-0.96194">
        <ele>12.1</ele>
        <time>2022-06-21T14:09:58Z</time>
      </trkpt>
      <trkpt lat="45.93709" lon="-0.96194">
        <ele>12.1</ele>
        <time>2022-06-21T14:09:59Z</time>
      </trkpt>
      <trkpt lat="45.93709" lon="-0.96192">
        <ele>12.1</ele>
        <time>2022-06-21T14:10:00Z</time>
      </trkpt>
      <trkpt lat="45.93709" lon="-0.96192">
        <ele>12.1</ele>
        <time>2022-06-21T14:10:01Z</time>
      </trkpt>
      <trkpt lat="45.93712" lon="-0.96196">
        <ele>12.1</ele>
        <time>2022-06-21T14:10:02Z</time>
      </trkpt>
      <trkpt lat="45.93713" lon="-0.96198">
        <ele>12</ele>
        <time>2022-06-21T14:10:03Z</time>
      </trkpt>
      <trkpt lat="45.93713" lon="-0.96198">
        <ele>12</ele>
        <time>2022-06-21T14:10:04Z</time>
      </trkpt>
      <trkpt lat="45.93713" lon="-0.96198">
        <ele>12</ele>
        <time>2022-06-21T14:10:05Z</time>
      </trkpt>
      <trkpt lat="45.93713" lon="-0.96198">
        <ele>12</ele>
        <time>2022-06-21T14:10:06Z</time>
      </trkpt>
      <trkpt lat="45.93713" lon="-0.96198">
        <ele>12</ele>
        <time>2022-06-21T14:10:07Z</time>
      </trkpt>
      <trkpt lat="45.93713" lon="-0.96198">
        <ele>12</ele>
        <time>2022-06-21T14:10:08Z</time>
      </trkpt>
      <trkpt lat="45.93713" lon="-0.96198">
        <ele>12</ele>
        <time>2022-06-21T14:10:09Z</time>
      </trkpt>
      <trkpt lat="45.93713" lon="-0.96198">
        <ele>12</ele>
        <time>2022-06-21T14:10:10Z</time>
      </trkpt>
      <trkpt lat="45.93713" lon="-0.96198">
        <ele>12</ele>
        <time>2022-06-21T14:10:11Z</time>
      </trkpt>
      <trkpt lat="45.93713" lon="-0.96198">
        <ele>12</ele>
        <time>2022-06-21T14:10:12Z</time>
      </trkpt>
      <trkpt lat="45.93713" lon="-0.96198">
        <ele>12</ele>
        <time>2022-06-21T14:10:13Z</time>
      </trkpt>
      <trkpt lat="45.93713" lon="-0.96198">
        <ele>12</ele>
        <time>2022-06-21T14:10:14Z</time>
      </trkpt>
      <trkpt lat="45.93713" lon="-0.96198">
        <ele>12</ele>
        <time>2022-06-21T14:10:15Z</time>
      </trkpt>
      <trkpt lat="45.93713" lon="-0.96198">
        <ele>12</ele>
        <time>2022-06-21T14:10:16Z</time>
      </trkpt>
      <trkpt lat="45.93713" lon="-0.96198">
        <ele>12</ele>
        <time>2022-06-21T14:10:17Z</time>
      </trkpt>
      <trkpt lat="45.93713" lon="-0.96198">
        <ele>12</ele>
        <time>2022-06-21T14:10:18Z</time>
      </trkpt>
      <trkpt lat="45.93713" lon="-0.96198">
        <ele>12</ele>
        <time>2022-06-21T14:10:19Z</time>
      </trkpt>
      <trkpt lat="45.93713" lon="-0.96198">
        <ele>12</ele>
        <time>2022-06-21T14:10:20Z</time>
      </trkpt>
      <trkpt lat="45.93713" lon="-0.96198">
        <ele>12</ele>
        <time>2022-06-21T14:10:21Z</time>
      </trkpt>
      <trkpt lat="45.93713" lon="-0.96198">
        <ele>12</ele>
        <time>2022-06-21T14:10:22Z</time>
      </trkpt>
      <trkpt lat="45.93713" lon="-0.96198">
        <ele>12</ele>
        <time>2022-06-21T14:10:23Z</time>
      </trkpt>
      <trkpt lat="45.93713" lon="-0.96198">
        <ele>12</ele>
        <time>2022-06-21T14:10:24Z</time>
      </trkpt>
      <trkpt lat="45.93713" lon="-0.96198">
        <ele>12</ele>
        <time>2022-06-21T14:10:25Z</time>
      </trkpt>
      <trkpt lat="45.93713" lon="-0.96198">
        <ele>12</ele>
        <time>2022-06-21T14:10:26Z</time>
      </trkpt>
      <trkpt lat="45.93713" lon="-0.96198">
        <ele>12</ele>
        <time>2022-06-21T14:10:27Z</time>
      </trkpt>
      <trkpt lat="45.93713" lon="-0.96198">
        <ele>12</ele>
        <time>2022-06-21T14:10:28Z</time>
      </trkpt>
      <trkpt lat="45.93713" lon="-0.96198">
        <ele>12.1</ele>
        <time>2022-06-21T14:10:29Z</time>
      </trkpt>
      <trkpt lat="45.93712" lon="-0.96197">
        <ele>12.1</ele>
        <time>2022-06-21T14:10:30Z</time>
      </trkpt>
      <trkpt lat="45.93712" lon="-0.96196">
        <ele>12.1</ele>
        <time>2022-06-21T14:10:31Z</time>
      </trkpt>
      <trkpt lat="45.93712" lon="-0.96195">
        <ele>12.1</ele>
        <time>2022-06-21T14:10:32Z</time>
      </trkpt>
      <trkpt lat="45.93711" lon="-0.96193">
        <ele>12.2</ele>
        <time>2022-06-21T14:10:33Z</time>
      </trkpt>
      <trkpt lat="45.93711" lon="-0.96193">
        <ele>12.2</ele>
        <time>2022-06-21T14:10:34Z</time>
      </trkpt>
      <trkpt lat="45.93711" lon="-0.96193">
        <ele>12.2</ele>
        <time>2022-06-21T14:10:35Z</time>
      </trkpt>
      <trkpt lat="45.9371" lon="-0.96193">
        <ele>12.2</ele>
        <time>2022-06-21T14:10:36Z</time>
      </trkpt>
      <trkpt lat="45.9371" lon="-0.96193">
        <ele>12.2</ele>
        <time>2022-06-21T14:10:37Z</time>
      </trkpt>
      <trkpt lat="45.9371" lon="-0.96193">
        <ele>12.2</ele>
        <time>2022-06-21T14:10:38Z</time>
      </trkpt>
      <trkpt lat="45.9371" lon="-0.96193">
        <ele>12.2</ele>
        <time>2022-06-21T14:10:39Z</time>
      </trkpt>
      <trkpt lat="45.9371" lon="-0.96193">
        <ele>12.2</ele>
        <time>2022-06-21T14:10:40Z</time>
      </trkpt>
      <trkpt lat="45.9371" lon="-0.96193">
        <ele>12.2</ele>
        <time>2022-06-21T14:10:41Z</time>
      </trkpt>
      <trkpt lat="45.9371" lon="-0.96193">
        <ele>12.2</ele>
        <time>2022-06-21T14:10:42Z</time>
      </trkpt>
      <trkpt lat="45.9371" lon="-0.96193">
        <ele>12.2</ele>
        <time>2022-06-21T14:10:43Z</time>
      </trkpt>
      <trkpt lat="45.9371" lon="-0.96193">
        <ele>12.2</ele>
        <time>2022-06-21T14:10:44Z</time>
      </trkpt>
      <trkpt lat="45.9371" lon="-0.96193">
        <ele>12.2</ele>
        <time>2022-06-21T14:10:45Z</time>
      </trkpt>
      <trkpt lat="45.9371" lon="-0.96193">
        <ele>12.2</ele>
        <time>2022-06-21T14:10:46Z</time>
      </trkpt>
      <trkpt lat="45.9371" lon="-0.96193">
        <ele>12.2</ele>
        <time>2022-06-21T14:10:47Z</time>
      </trkpt>
      <trkpt lat="45.9371" lon="-0.96193">
        <ele>12.2</ele>
        <time>2022-06-21T14:10:48Z</time>
      </trkpt>
      <trkpt lat="45.9371" lon="-0.96193">
        <ele>12.2</ele>
        <time>2022-06-21T14:10:49Z</time>
      </trkpt>
      <trkpt lat="45.9371" lon="-0.96193">
        <ele>12.2</ele>
        <time>2022-06-21T14:10:50Z</time>
      </trkpt>
      <trkpt lat="45.9371" lon="-0.96193">
        <ele>12.2</ele>
        <time>2022-06-21T14:10:51Z</time>
      </trkpt>
      <trkpt lat="45.9371" lon="-0.96193">
        <ele>12.2</ele>
        <time>2022-06-21T14:10:52Z</time>
      </trkpt>
      <trkpt lat="45.9371" lon="-0.96193">
        <ele>12.2</ele>
        <time>2022-06-21T14:10:53Z</time>
      </trkpt>
      <trkpt lat="45.9371" lon="-0.96193">
        <ele>12.2</ele>
        <time>2022-06-21T14:10:54Z</time>
      </trkpt>
      <trkpt lat="45.9371" lon="-0.96193">
        <ele>12.2</ele>
        <time>2022-06-21T14:10:55Z</time>
      </trkpt>
      <trkpt lat="45.9371" lon="-0.96193">
        <ele>12.2</ele>
        <time>2022-06-21T14:10:56Z</time>
      </trkpt>
      <trkpt lat="45.9371" lon="-0.96193">
        <ele>12.2</ele>
        <time>2022-06-21T14:10:57Z</time>
      </trkpt>
      <trkpt lat="45.9371" lon="-0.96193">
        <ele>12.2</ele>
        <time>2022-06-21T14:10:58Z</time>
      </trkpt>
      <trkpt lat="45.9371" lon="-0.96193">
        <ele>12.2</ele>
        <time>2022-06-21T14:10:59Z</time>
      </trkpt>
      <trkpt lat="45.9371" lon="-0.96193">
        <ele>12.2</ele>
        <time>2022-06-21T14:11:00Z</time>
      </trkpt>
      <trkpt lat="45.9371" lon="-0.96193">
        <ele>12.2</ele>
        <time>2022-06-21T14:11:01Z</time>
      </trkpt>
      <trkpt lat="45.9371" lon="-0.96193">
        <ele>12.2</ele>
        <time>2022-06-21T14:11:02Z</time>
      </trkpt>
      <trkpt lat="45.9371" lon="-0.96193">
        <ele>12.2</ele>
        <time>2022-06-21T14:11:03Z</time>
      </trkpt>
      <trkpt lat="45.9371" lon="-0.96193">
        <ele>12.2</ele>
        <time>2022-06-21T14:11:04Z</time>
      </trkpt>
      <trkpt lat="45.9371" lon="-0.96193">
        <ele>12.2</ele>
        <time>2022-06-21T14:11:05Z</time>
      </trkpt>
      <trkpt lat="45.9371" lon="-0.96193">
        <ele>12.2</ele>
        <time>2022-06-21T14:11:06Z</time>
      </trkpt>
      <trkpt lat="45.9371" lon="-0.96193">
        <ele>12.2</ele>
        <time>2022-06-21T14:11:07Z</time>
      </trkpt>
      <trkpt lat="45.9371" lon="-0.96193">
        <ele>12.2</ele>
        <time>2022-06-21T14:11:08Z</time>
      </trkpt>
      <trkpt lat="45.9371" lon="-0.96193">
        <ele>12.2</ele>
        <time>2022-06-21T14:11:09Z</time>
      </trkpt>
      <trkpt lat="45.9371" lon="-0.96193">
        <ele>12.2</ele>
        <time>2022-06-21T14:11:10Z</time>
      </trkpt>
      <trkpt lat="45.9371" lon="-0.96193">
        <ele>12.2</ele>
        <time>2022-06-21T14:11:11Z</time>
      </trkpt>
      <trkpt lat="45.9371" lon="-0.96193">
        <ele>12.2</ele>
        <time>2022-06-21T14:11:12Z</time>
      </trkpt>
      <trkpt lat="45.9371" lon="-0.96193">
        <ele>12.2</ele>
        <time>2022-06-21T14:11:13Z</time>
      </trkpt>
      <trkpt lat="45.9371" lon="-0.96192">
        <ele>12.2</ele>
        <time>2022-06-21T14:11:14Z</time>
      </trkpt>
      <trkpt lat="45.9371" lon="-0.96191">
        <ele>12.2</ele>
        <time>2022-06-21T14:11:15Z</time>
      </trkpt>
      <trkpt lat="45.9371" lon="-0.96191">
        <ele>12.2</ele>
        <time>2022-06-21T14:11:16Z</time>
      </trkpt>
      <trkpt lat="45.9371" lon="-0.96191">
        <ele>12.2</ele>
        <time>2022-06-21T14:11:17Z</time>
      </trkpt>
      <trkpt lat="45.9371" lon="-0.96191">
        <ele>12.2</ele>
        <time>2022-06-21T14:11:18Z</time>
      </trkpt>
      <trkpt lat="45.9371" lon="-0.96192">
        <ele>12.2</ele>
        <time>2022-06-21T14:11:19Z</time>
      </trkpt>
      <trkpt lat="45.9371" lon="-0.96192">
        <ele>12.2</ele>
        <time>2022-06-21T14:11:20Z</time>
      </trkpt>
      <trkpt lat="45.9371" lon="-0.96192">
        <ele>12.2</ele>
        <time>2022-06-21T14:11:21Z</time>
      </trkpt>
      <trkpt lat="45.9371" lon="-0.96192">
        <ele>12.2</ele>
        <time>2022-06-21T14:11:22Z</time>
      </trkpt>
      <trkpt lat="45.9371" lon="-0.96192">
        <ele>12.2</ele>
        <time>2022-06-21T14:11:23Z</time>
      </trkpt>
      <trkpt lat="45.9371" lon="-0.96192">
        <ele>12.2</ele>
        <time>2022-06-21T14:11:24Z</time>
      </trkpt>
      <trkpt lat="45.9371" lon="-0.96192">
        <ele>12.2</ele>
        <time>2022-06-21T14:11:25Z</time>
      </trkpt>
      <trkpt lat="45.9371" lon="-0.96192">
        <ele>12.2</ele>
        <time>2022-06-21T14:11:26Z</time>
      </trkpt>
      <trkpt lat="45.9371" lon="-0.96192">
        <ele>12.2</ele>
        <time>2022-06-21T14:11:27Z</time>
      </trkpt>
      <trkpt lat="45.9371" lon="-0.96192">
        <ele>12.2</ele>
        <time>2022-06-21T14:11:28Z</time>
      </trkpt>
      <trkpt lat="45.9371" lon="-0.96192">
        <ele>12.2</ele>
        <time>2022-06-21T14:11:29Z</time>
      </trkpt>
      <trkpt lat="45.9371" lon="-0.96192">
        <ele>12.2</ele>
        <time>2022-06-21T14:11:30Z</time>
      </trkpt>
      <trkpt lat="45.9371" lon="-0.96192">
        <ele>12.2</ele>
        <time>2022-06-21T14:11:31Z</time>
      </trkpt>
      <trkpt lat="45.9371" lon="-0.96192">
        <ele>12.2</ele>
        <time>2022-06-21T14:11:32Z</time>
      </trkpt>
      <trkpt lat="45.9371" lon="-0.96192">
        <ele>12.2</ele>
        <time>2022-06-21T14:11:33Z</time>
      </trkpt>
      <trkpt lat="45.9371" lon="-0.96192">
        <ele>12.2</ele>
        <time>2022-06-21T14:11:34Z</time>
      </trkpt>
      <trkpt lat="45.9371" lon="-0.96193">
        <ele>12.2</ele>
        <time>2022-06-21T14:11:35Z</time>
      </trkpt>
      <trkpt lat="45.9371" lon="-0.96193">
        <ele>12.2</ele>
        <time>2022-06-21T14:11:36Z</time>
      </trkpt>
      <trkpt lat="45.9371" lon="-0.96193">
        <ele>12.2</ele>
        <time>2022-06-21T14:11:37Z</time>
      </trkpt>
      <trkpt lat="45.9371" lon="-0.96193">
        <ele>12.2</ele>
        <time>2022-06-21T14:11:38Z</time>
      </trkpt>
      <trkpt lat="45.9371" lon="-0.96193">
        <ele>12.2</ele>
        <time>2022-06-21T14:11:39Z</time>
      </trkpt>
      <trkpt lat="45.9371" lon="-0.96193">
        <ele>12.2</ele>
        <time>2022-06-21T14:11:40Z</time>
      </trkpt>
      <trkpt lat="45.9371" lon="-0.96193">
        <ele>12.2</ele>
        <time>2022-06-21T14:11:41Z</time>
      </trkpt>
      <trkpt lat="45.9371" lon="-0.96193">
        <ele>12.2</ele>
        <time>2022-06-21T14:11:42Z</time>
      </trkpt>
      <trkpt lat="45.9371" lon="-0.96193">
        <ele>12.2</ele>
        <time>2022-06-21T14:11:43Z</time>
      </trkpt>
      <trkpt lat="45.9371" lon="-0.96193">
        <ele>12.2</ele>
        <time>2022-06-21T14:11:44Z</time>
      </trkpt>
      <trkpt lat="45.9371" lon="-0.96193">
        <ele>12.2</ele>
        <time>2022-06-21T14:11:45Z</time>
      </trkpt>
      <trkpt lat="45.9371" lon="-0.96193">
        <ele>12.2</ele>
        <time>2022-06-21T14:11:46Z</time>
      </trkpt>
      <trkpt lat="45.9371" lon="-0.96193">
        <ele>12.2</ele>
        <time>2022-06-21T14:11:47Z</time>
      </trkpt>
      <trkpt lat="45.9371" lon="-0.96193">
        <ele>12.2</ele>
        <time>2022-06-21T14:11:48Z</time>
      </trkpt>
      <trkpt lat="45.9371" lon="-0.96193">
        <ele>12.2</ele>
        <time>2022-06-21T14:11:49Z</time>
      </trkpt>
      <trkpt lat="45.9371" lon="-0.96193">
        <ele>12.2</ele>
        <time>2022-06-21T14:11:50Z</time>
      </trkpt>
      <trkpt lat="45.9371" lon="-0.96193">
        <ele>12.2</ele>
        <time>2022-06-21T14:11:51Z</time>
      </trkpt>
      <trkpt lat="45.9371" lon="-0.96194">
        <ele>12.3</ele>
        <time>2022-06-21T14:11:52Z</time>
      </trkpt>
      <trkpt lat="45.9371" lon="-0.96194">
        <ele>12.3</ele>
        <time>2022-06-21T14:11:53Z</time>
      </trkpt>
      <trkpt lat="45.9371" lon="-0.96194">
        <ele>12.3</ele>
        <time>2022-06-21T14:11:54Z</time>
      </trkpt>
      <trkpt lat="45.9371" lon="-0.96194">
        <ele>12.3</ele>
        <time>2022-06-21T14:11:55Z</time>
      </trkpt>
      <trkpt lat="45.9371" lon="-0.96194">
        <ele>12.3</ele>
        <time>2022-06-21T14:11:56Z</time>
      </trkpt>
      <trkpt lat="45.9371" lon="-0.96194">
        <ele>12.3</ele>
        <time>2022-06-21T14:11:57Z</time>
      </trkpt>
      <trkpt lat="45.9371" lon="-0.96194">
        <ele>12.3</ele>
        <time>2022-06-21T14:11:58Z</time>
      </trkpt>
      <trkpt lat="45.9371" lon="-0.96194">
        <ele>12.3</ele>
        <time>2022-06-21T14:11:59Z</time>
      </trkpt>
      <trkpt lat="45.9371" lon="-0.96194">
        <ele>12.3</ele>
        <time>2022-06-21T14:12:00Z</time>
      </trkpt>
      <trkpt lat="45.9371" lon="-0.96194">
        <ele>12.3</ele>
        <time>2022-06-21T14:12:01Z</time>
      </trkpt>
      <trkpt lat="45.9371" lon="-0.96194">
        <ele>12.3</ele>
        <time>2022-06-21T14:12:02Z</time>
      </trkpt>
      <trkpt lat="45.9371" lon="-0.96194">
        <ele>12.3</ele>
        <time>2022-06-21T14:12:03Z</time>
      </trkpt>
      <trkpt lat="45.9371" lon="-0.96194">
        <ele>12.3</ele>
        <time>2022-06-21T14:12:04Z</time>
      </trkpt>
      <trkpt lat="45.9371" lon="-0.96194">
        <ele>12.3</ele>
        <time>2022-06-21T14:12:05Z</time>
      </trkpt>
      <trkpt lat="45.9371" lon="-0.96194">
        <ele>12.3</ele>
        <time>2022-06-21T14:12:06Z</time>
      </trkpt>
      <trkpt lat="45.9371" lon="-0.96194">
        <ele>12.3</ele>
        <time>2022-06-21T14:12:07Z</time>
      </trkpt>
      <trkpt lat="45.9371" lon="-0.96195">
        <ele>12.3</ele>
        <time>2022-06-21T14:12:08Z</time>
      </trkpt>
      <trkpt lat="45.9371" lon="-0.96195">
        <ele>12.3</ele>
        <time>2022-06-21T14:12:09Z</time>
      </trkpt>
      <trkpt lat="45.9371" lon="-0.96195">
        <ele>12.3</ele>
        <time>2022-06-21T14:12:10Z</time>
      </trkpt>
      <trkpt lat="45.9371" lon="-0.96195">
        <ele>12.3</ele>
        <time>2022-06-21T14:12:11Z</time>
      </trkpt>
      <trkpt lat="45.9371" lon="-0.96195">
        <ele>12.3</ele>
        <time>2022-06-21T14:12:12Z</time>
      </trkpt>
      <trkpt lat="45.9371" lon="-0.96195">
        <ele>12.3</ele>
        <time>2022-06-21T14:12:13Z</time>
      </trkpt>
      <trkpt lat="45.9371" lon="-0.96195">
        <ele>12.3</ele>
        <time>2022-06-21T14:12:14Z</time>
      </trkpt>
      <trkpt lat="45.9371" lon="-0.96195">
        <ele>12.3</ele>
        <time>2022-06-21T14:12:15Z</time>
      </trkpt>
      <trkpt lat="45.9371" lon="-0.96195">
        <ele>12.3</ele>
        <time>2022-06-21T14:12:16Z</time>
      </trkpt>
      <trkpt lat="45.9371" lon="-0.96195">
        <ele>12.3</ele>
        <time>2022-06-21T14:12:17Z</time>
      </trkpt>
      <trkpt lat="45.9371" lon="-0.96195">
        <ele>12.3</ele>
        <time>2022-06-21T14:12:18Z</time>
      </trkpt>
      <trkpt lat="45.9371" lon="-0.96195">
        <ele>12.3</ele>
        <time>2022-06-21T14:12:19Z</time>
      </trkpt>
      <trkpt lat="45.9371" lon="-0.96195">
        <ele>12.3</ele>
        <time>2022-06-21T14:12:20Z</time>
      </trkpt>
      <trkpt lat="45.9371" lon="-0.96195">
        <ele>12.3</ele>
        <time>2022-06-21T14:12:21Z</time>
      </trkpt>
      <trkpt lat="45.9371" lon="-0.96195">
        <ele>12.3</ele>
        <time>2022-06-21T14:12:22Z</time>
      </trkpt>
      <trkpt lat="45.9371" lon="-0.96195">
        <ele>12.3</ele>
        <time>2022-06-21T14:12:23Z</time>
      </trkpt>
      <trkpt lat="45.9371" lon="-0.96195">
        <ele>12.3</ele>
        <time>2022-06-21T14:12:24Z</time>
      </trkpt>
      <trkpt lat="45.9371" lon="-0.96196">
        <ele>12.3</ele>
        <time>2022-06-21T14:12:25Z</time>
      </trkpt>
      <trkpt lat="45.9371" lon="-0.96196">
        <ele>12.3</ele>
        <time>2022-06-21T14:12:26Z</time>
      </trkpt>
      <trkpt lat="45.9371" lon="-0.96196">
        <ele>12.3</ele>
        <time>2022-06-21T14:12:27Z</time>
      </trkpt>
      <trkpt lat="45.9371" lon="-0.96196">
        <ele>12.3</ele>
        <time>2022-06-21T14:12:28Z</time>
      </trkpt>
      <trkpt lat="45.9371" lon="-0.96196">
        <ele>12.3</ele>
        <time>2022-06-21T14:12:29Z</time>
      </trkpt>
      <trkpt lat="45.9371" lon="-0.96196">
        <ele>12.3</ele>
        <time>2022-06-21T14:12:30Z</time>
      </trkpt>
      <trkpt lat="45.9371" lon="-0.96196">
        <ele>12.3</ele>
        <time>2022-06-21T14:12:31Z</time>
      </trkpt>
      <trkpt lat="45.9371" lon="-0.96196">
        <ele>12.3</ele>
        <time>2022-06-21T14:12:32Z</time>
      </trkpt>
      <trkpt lat="45.9371" lon="-0.96196">
        <ele>12.3</ele>
        <time>2022-06-21T14:12:33Z</time>
      </trkpt>
      <trkpt lat="45.9371" lon="-0.96196">
        <ele>12.3</ele>
        <time>2022-06-21T14:12:34Z</time>
      </trkpt>
      <trkpt lat="45.9371" lon="-0.96196">
        <ele>12.3</ele>
        <time>2022-06-21T14:12:35Z</time>
      </trkpt>
      <trkpt lat="45.9371" lon="-0.96196">
        <ele>12.3</ele>
        <time>2022-06-21T14:12:36Z</time>
      </trkpt>
      <trkpt lat="45.9371" lon="-0.96196">
        <ele>12.3</ele>
        <time>2022-06-21T14:12:37Z</time>
      </trkpt>
      <trkpt lat="45.9371" lon="-0.96196">
        <ele>12.3</ele>
        <time>2022-06-21T14:12:38Z</time>
      </trkpt>
      <trkpt lat="45.9371" lon="-0.96196">
        <ele>12.3</ele>
        <time>2022-06-21T14:12:39Z</time>
      </trkpt>
      <trkpt lat="45.9371" lon="-0.96196">
        <ele>12.3</ele>
        <time>2022-06-21T14:12:40Z</time>
      </trkpt>
      <trkpt lat="45.9371" lon="-0.96197">
        <ele>12.3</ele>
        <time>2022-06-21T14:12:41Z</time>
      </trkpt>
      <trkpt lat="45.9371" lon="-0.96197">
        <ele>12.3</ele>
        <time>2022-06-21T14:12:42Z</time>
      </trkpt>
      <trkpt lat="45.9371" lon="-0.96197">
        <ele>12.3</ele>
        <time>2022-06-21T14:12:43Z</time>
      </trkpt>
      <trkpt lat="45.9371" lon="-0.96197">
        <ele>12.3</ele>
        <time>2022-06-21T14:12:44Z</time>
      </trkpt>
      <trkpt lat="45.9371" lon="-0.96197">
        <ele>12.3</ele>
        <time>2022-06-21T14:12:45Z</time>
      </trkpt>
      <trkpt lat="45.9371" lon="-0.96197">
        <ele>12.3</ele>
        <time>2022-06-21T14:12:46Z</time>
      </trkpt>
      <trkpt lat="45.9371" lon="-0.96197">
        <ele>12.3</ele>
        <time>2022-06-21T14:12:47Z</time>
      </trkpt>
      <trkpt lat="45.9371" lon="-0.96197">
        <ele>12.3</ele>
        <time>2022-06-21T14:12:48Z</time>
      </trkpt>
      <trkpt lat="45.9371" lon="-0.96197">
        <ele>12.3</ele>
        <time>2022-06-21T14:12:49Z</time>
      </trkpt>
      <trkpt lat="45.9371" lon="-0.96197">
        <ele>12.3</ele>
        <time>2022-06-21T14:12:50Z</time>
      </trkpt>
      <trkpt lat="45.9371" lon="-0.96197">
        <ele>12.3</ele>
        <time>2022-06-21T14:12:51Z</time>
      </trkpt>
      <trkpt lat="45.9371" lon="-0.96197">
        <ele>12.3</ele>
        <time>2022-06-21T14:12:52Z</time>
      </trkpt>
      <trkpt lat="45.9371" lon="-0.96197">
        <ele>12.3</ele>
        <time>2022-06-21T14:12:53Z</time>
      </trkpt>
      <trkpt lat="45.9371" lon="-0.96197">
        <ele>12.3</ele>
        <time>2022-06-21T14:12:54Z</time>
      </trkpt>
      <trkpt lat="45.9371" lon="-0.96197">
        <ele>12.3</ele>
        <time>2022-06-21T14:12:55Z</time>
      </trkpt>
      <trkpt lat="45.9371" lon="-0.96197">
        <ele>12.3</ele>
        <time>2022-06-21T14:12:56Z</time>
      </trkpt>
      <trkpt lat="45.9371" lon="-0.96198">
        <ele>12.3</ele>
        <time>2022-06-21T14:12:57Z</time>
      </trkpt>
      <trkpt lat="45.9371" lon="-0.96198">
        <ele>12.3</ele>
        <time>2022-06-21T14:12:58Z</time>
      </trkpt>
      <trkpt lat="45.9371" lon="-0.96198">
        <ele>12.3</ele>
        <time>2022-06-21T14:12:59Z</time>
      </trkpt>
      <trkpt lat="45.9371" lon="-0.96198">
        <ele>12.3</ele>
        <time>2022-06-21T14:13:00Z</time>
      </trkpt>
      <trkpt lat="45.9371" lon="-0.96198">
        <ele>12.3</ele>
        <time>2022-06-21T14:13:01Z</time>
      </trkpt>
      <trkpt lat="45.9371" lon="-0.96198">
        <ele>12.3</ele>
        <time>2022-06-21T14:13:02Z</time>
      </trkpt>
      <trkpt lat="45.9371" lon="-0.96198">
        <ele>12.3</ele>
        <time>2022-06-21T14:13:03Z</time>
      </trkpt>
      <trkpt lat="45.9371" lon="-0.96198">
        <ele>12.3</ele>
        <time>2022-06-21T14:13:04Z</time>
      </trkpt>
      <trkpt lat="45.9371" lon="-0.96198">
        <ele>12.3</ele>
        <time>2022-06-21T14:13:05Z</time>
      </trkpt>
      <trkpt lat="45.9371" lon="-0.96198">
        <ele>12.3</ele>
        <time>2022-06-21T14:13:06Z</time>
      </trkpt>
      <trkpt lat="45.9371" lon="-0.96198">
        <ele>12.3</ele>
        <time>2022-06-21T14:13:07Z</time>
      </trkpt>
      <trkpt lat="45.9371" lon="-0.96198">
        <ele>12.3</ele>
        <time>2022-06-21T14:13:08Z</time>
      </trkpt>
      <trkpt lat="45.9371" lon="-0.96198">
        <ele>12.3</ele>
        <time>2022-06-21T14:13:09Z</time>
      </trkpt>
      <trkpt lat="45.9371" lon="-0.96198">
        <ele>12.3</ele>
        <time>2022-06-21T14:13:10Z</time>
      </trkpt>
      <trkpt lat="45.9371" lon="-0.96198">
        <ele>12.3</ele>
        <time>2022-06-21T14:13:11Z</time>
      </trkpt>
      <trkpt lat="45.9371" lon="-0.96198">
        <ele>12.3</ele>
        <time>2022-06-21T14:13:12Z</time>
      </trkpt>
      <trkpt lat="45.9371" lon="-0.96198">
        <ele>12.3</ele>
        <time>2022-06-21T14:13:13Z</time>
      </trkpt>
      <trkpt lat="45.9371" lon="-0.96199">
        <ele>12.3</ele>
        <time>2022-06-21T14:13:14Z</time>
      </trkpt>
      <trkpt lat="45.9371" lon="-0.96199">
        <ele>12.4</ele>
        <time>2022-06-21T14:13:15Z</time>
      </trkpt>
      <trkpt lat="45.9371" lon="-0.96199">
        <ele>12.4</ele>
        <time>2022-06-21T14:13:16Z</time>
      </trkpt>
      <trkpt lat="45.9371" lon="-0.96199">
        <ele>12.4</ele>
        <time>2022-06-21T14:13:17Z</time>
      </trkpt>
      <trkpt lat="45.9371" lon="-0.96199">
        <ele>12.4</ele>
        <time>2022-06-21T14:13:18Z</time>
      </trkpt>
      <trkpt lat="45.9371" lon="-0.96199">
        <ele>12.4</ele>
        <time>2022-06-21T14:13:19Z</time>
      </trkpt>
      <trkpt lat="45.9371" lon="-0.96199">
        <ele>12.4</ele>
        <time>2022-06-21T14:13:20Z</time>
      </trkpt>
      <trkpt lat="45.9371" lon="-0.96199">
        <ele>12.4</ele>
        <time>2022-06-21T14:13:21Z</time>
      </trkpt>
      <trkpt lat="45.9371" lon="-0.96199">
        <ele>12.4</ele>
        <time>2022-06-21T14:13:22Z</time>
      </trkpt>
      <trkpt lat="45.9371" lon="-0.96199">
        <ele>12.4</ele>
        <time>2022-06-21T14:13:23Z</time>
      </trkpt>
      <trkpt lat="45.9371" lon="-0.96199">
        <ele>12.4</ele>
        <time>2022-06-21T14:13:24Z</time>
      </trkpt>
      <trkpt lat="45.9371" lon="-0.96199">
        <ele>12.4</ele>
        <time>2022-06-21T14:13:25Z</time>
      </trkpt>
      <trkpt lat="45.9371" lon="-0.96199">
        <ele>12.4</ele>
        <time>2022-06-21T14:13:26Z</time>
      </trkpt>
      <trkpt lat="45.9371" lon="-0.96199">
        <ele>12.4</ele>
        <time>2022-06-21T14:13:27Z</time>
      </trkpt>
      <trkpt lat="45.9371" lon="-0.96199">
        <ele>12.4</ele>
        <time>2022-06-21T14:13:28Z</time>
      </trkpt>
      <trkpt lat="45.9371" lon="-0.96199">
        <ele>12.4</ele>
        <time>2022-06-21T14:13:29Z</time>
      </trkpt>
      <trkpt lat="45.9371" lon="-0.962">
        <ele>12.4</ele>
        <time>2022-06-21T14:13:30Z</time>
      </trkpt>
      <trkpt lat="45.9371" lon="-0.962">
        <ele>12.4</ele>
        <time>2022-06-21T14:13:31Z</time>
      </trkpt>
      <trkpt lat="45.9371" lon="-0.962">
        <ele>12.4</ele>
        <time>2022-06-21T14:13:32Z</time>
      </trkpt>
      <trkpt lat="45.9371" lon="-0.962">
        <ele>12.4</ele>
        <time>2022-06-21T14:13:33Z</time>
      </trkpt>
      <trkpt lat="45.9371" lon="-0.962">
        <ele>12.4</ele>
        <time>2022-06-21T14:13:34Z</time>
      </trkpt>
      <trkpt lat="45.9371" lon="-0.962">
        <ele>12.4</ele>
        <time>2022-06-21T14:13:35Z</time>
      </trkpt>
      <trkpt lat="45.9371" lon="-0.962">
        <ele>12.4</ele>
        <time>2022-06-21T14:13:36Z</time>
      </trkpt>
      <trkpt lat="45.9371" lon="-0.962">
        <ele>12.4</ele>
        <time>2022-06-21T14:13:37Z</time>
      </trkpt>
      <trkpt lat="45.9371" lon="-0.962">
        <ele>12.4</ele>
        <time>2022-06-21T14:13:38Z</time>
      </trkpt>
      <trkpt lat="45.9371" lon="-0.962">
        <ele>12.4</ele>
        <time>2022-06-21T14:13:39Z</time>
      </trkpt>
      <trkpt lat="45.9371" lon="-0.962">
        <ele>12.4</ele>
        <time>2022-06-21T14:13:40Z</time>
      </trkpt>
      <trkpt lat="45.9371" lon="-0.962">
        <ele>12.4</ele>
        <time>2022-06-21T14:13:41Z</time>
      </trkpt>
      <trkpt lat="45.9371" lon="-0.962">
        <ele>12.4</ele>
        <time>2022-06-21T14:13:42Z</time>
      </trkpt>
      <trkpt lat="45.9371" lon="-0.962">
        <ele>12.4</ele>
        <time>2022-06-21T14:13:43Z</time>
      </trkpt>
      <trkpt lat="45.9371" lon="-0.962">
        <ele>12.4</ele>
        <time>2022-06-21T14:13:44Z</time>
      </trkpt>
      <trkpt lat="45.9371" lon="-0.962">
        <ele>12.4</ele>
        <time>2022-06-21T14:13:45Z</time>
      </trkpt>
      <trkpt lat="45.9371" lon="-0.962">
        <ele>12.4</ele>
        <time>2022-06-21T14:13:46Z</time>
      </trkpt>
      <trkpt lat="45.9371" lon="-0.96201">
        <ele>12.4</ele>
        <time>2022-06-21T14:13:47Z</time>
      </trkpt>
      <trkpt lat="45.9371" lon="-0.96201">
        <ele>12.4</ele>
        <time>2022-06-21T14:13:48Z</time>
      </trkpt>
      <trkpt lat="45.9371" lon="-0.96201">
        <ele>12.4</ele>
        <time>2022-06-21T14:13:49Z</time>
      </trkpt>
      <trkpt lat="45.9371" lon="-0.96201">
        <ele>12.4</ele>
        <time>2022-06-21T14:13:50Z</time>
      </trkpt>
      <trkpt lat="45.93708" lon="-0.96201">
        <ele>12.4</ele>
        <time>2022-06-21T14:13:52Z</time>
      </trkpt>
      <trkpt lat="45.93708" lon="-0.96201">
        <ele>12.4</ele>
        <time>2022-06-21T14:13:53Z</time>
      </trkpt>
      <trkpt lat="45.93709" lon="-0.96199">
        <ele>12.5</ele>
        <time>2022-06-21T14:13:54Z</time>
      </trkpt>
      <trkpt lat="45.93709" lon="-0.96199">
        <ele>12.5</ele>
        <time>2022-06-21T14:13:55Z</time>
      </trkpt>
      <trkpt lat="45.93709" lon="-0.96198">
        <ele>12.5</ele>
        <time>2022-06-21T14:13:56Z</time>
      </trkpt>
      <trkpt lat="45.93709" lon="-0.96197">
        <ele>12.5</ele>
        <time>2022-06-21T14:13:57Z</time>
      </trkpt>
      <trkpt lat="45.9371" lon="-0.96197">
        <ele>12.5</ele>
        <time>2022-06-21T14:13:58Z</time>
      </trkpt>
      <trkpt lat="45.9371" lon="-0.96196">
        <ele>12.5</ele>
        <time>2022-06-21T14:13:59Z</time>
      </trkpt>
      <trkpt lat="45.9371" lon="-0.96196">
        <ele>12.5</ele>
        <time>2022-06-21T14:14:00Z</time>
      </trkpt>
      <trkpt lat="45.9371" lon="-0.96196">
        <ele>12.5</ele>
        <time>2022-06-21T14:14:01Z</time>
      </trkpt>
      <trkpt lat="45.9371" lon="-0.96196">
        <ele>12.5</ele>
        <time>2022-06-21T14:14:02Z</time>
      </trkpt>
      <trkpt lat="45.9371" lon="-0.96195">
        <ele>12.5</ele>
        <time>2022-06-21T14:14:03Z</time>
      </trkpt>
      <trkpt lat="45.9371" lon="-0.96195">
        <ele>12.6</ele>
        <time>2022-06-21T14:14:05Z</time>
      </trkpt>
      <trkpt lat="45.9371" lon="-0.96195">
        <ele>12.6</ele>
        <time>2022-06-21T14:14:06Z</time>
      </trkpt>
      <trkpt lat="45.9371" lon="-0.96195">
        <ele>12.6</ele>
        <time>2022-06-21T14:14:07Z</time>
      </trkpt>
      <trkpt lat="45.9371" lon="-0.96196">
        <ele>12.6</ele>
        <time>2022-06-21T14:14:09Z</time>
      </trkpt>
      <trkpt lat="45.9371" lon="-0.96196">
        <ele>12.6</ele>
        <time>2022-06-21T14:14:10Z</time>
      </trkpt>
      <trkpt lat="45.93711" lon="-0.96193">
        <ele>12.6</ele>
        <time>2022-06-21T14:14:11Z</time>
      </trkpt>
      <trkpt lat="45.93711" lon="-0.96192">
        <ele>12.6</ele>
        <time>2022-06-21T14:14:12Z</time>
      </trkpt>
      <trkpt lat="45.93711" lon="-0.96192">
        <ele>12.7</ele>
        <time>2022-06-21T14:14:13Z</time>
      </trkpt>
      <trkpt lat="45.93711" lon="-0.96192">
        <ele>12.7</ele>
        <time>2022-06-21T14:14:14Z</time>
      </trkpt>
      <trkpt lat="45.93711" lon="-0.96192">
        <ele>12.7</ele>
        <time>2022-06-21T14:14:15Z</time>
      </trkpt>
      <trkpt lat="45.93711" lon="-0.96192">
        <ele>12.7</ele>
        <time>2022-06-21T14:14:16Z</time>
      </trkpt>
      <trkpt lat="45.93711" lon="-0.96192">
        <ele>12.7</ele>
        <time>2022-06-21T14:14:17Z</time>
      </trkpt>
      <trkpt lat="45.93711" lon="-0.96192">
        <ele>12.7</ele>
        <time>2022-06-21T14:14:18Z</time>
      </trkpt>
      <trkpt lat="45.93711" lon="-0.96191">
        <ele>12.7</ele>
        <time>2022-06-21T14:14:19Z</time>
      </trkpt>
      <trkpt lat="45.93711" lon="-0.96191">
        <ele>12.7</ele>
        <time>2022-06-21T14:14:20Z</time>
      </trkpt>
      <trkpt lat="45.93711" lon="-0.96191">
        <ele>12.7</ele>
        <time>2022-06-21T14:14:21Z</time>
      </trkpt>
      <trkpt lat="45.93711" lon="-0.96192">
        <ele>12.7</ele>
        <time>2022-06-21T14:14:22Z</time>
      </trkpt>
      <trkpt lat="45.93711" lon="-0.96192">
        <ele>12.7</ele>
        <time>2022-06-21T14:14:23Z</time>
      </trkpt>
      <trkpt lat="45.93711" lon="-0.96192">
        <ele>12.7</ele>
        <time>2022-06-21T14:14:24Z</time>
      </trkpt>
      <trkpt lat="45.93711" lon="-0.96191">
        <ele>12.7</ele>
        <time>2022-06-21T14:14:25Z</time>
      </trkpt>
      <trkpt lat="45.93711" lon="-0.96191">
        <ele>12.7</ele>
        <time>2022-06-21T14:14:26Z</time>
      </trkpt>
      <trkpt lat="45.93711" lon="-0.96191">
        <ele>12.7</ele>
        <time>2022-06-21T14:14:27Z</time>
      </trkpt>
      <trkpt lat="45.93711" lon="-0.96191">
        <ele>12.7</ele>
        <time>2022-06-21T14:14:28Z</time>
      </trkpt>
      <trkpt lat="45.93711" lon="-0.96191">
        <ele>12.7</ele>
        <time>2022-06-21T14:14:29Z</time>
      </trkpt>
      <trkpt lat="45.93711" lon="-0.96191">
        <ele>12.7</ele>
        <time>2022-06-21T14:14:30Z</time>
      </trkpt>
      <trkpt lat="45.93711" lon="-0.96191">
        <ele>12.7</ele>
        <time>2022-06-21T14:14:31Z</time>
      </trkpt>
      <trkpt lat="45.93711" lon="-0.96191">
        <ele>12.7</ele>
        <time>2022-06-21T14:14:32Z</time>
      </trkpt>
      <trkpt lat="45.93711" lon="-0.96191">
        <ele>12.7</ele>
        <time>2022-06-21T14:14:33Z</time>
      </trkpt>
      <trkpt lat="45.93711" lon="-0.96191">
        <ele>12.7</ele>
        <time>2022-06-21T14:14:34Z</time>
      </trkpt>
      <trkpt lat="45.93711" lon="-0.96191">
        <ele>12.7</ele>
        <time>2022-06-21T14:14:35Z</time>
      </trkpt>
      <trkpt lat="45.93711" lon="-0.96192">
        <ele>12.7</ele>
        <time>2022-06-21T14:14:36Z</time>
      </trkpt>
      <trkpt lat="45.9371" lon="-0.96194">
        <ele>12.8</ele>
        <time>2022-06-21T14:14:37Z</time>
      </trkpt>
      <trkpt lat="45.93709" lon="-0.96196">
        <ele>12.8</ele>
        <time>2022-06-21T14:14:38Z</time>
      </trkpt>
      <trkpt lat="45.93709" lon="-0.96198">
        <ele>12.8</ele>
        <time>2022-06-21T14:14:39Z</time>
      </trkpt>
      <trkpt lat="45.93709" lon="-0.96198">
        <ele>12.8</ele>
        <time>2022-06-21T14:14:40Z</time>
      </trkpt>
      <trkpt lat="45.93709" lon="-0.96198">
        <ele>12.8</ele>
        <time>2022-06-21T14:14:41Z</time>
      </trkpt>
      <trkpt lat="45.93709" lon="-0.96198">
        <ele>12.8</ele>
        <time>2022-06-21T14:14:42Z</time>
      </trkpt>
      <trkpt lat="45.93709" lon="-0.96198">
        <ele>12.8</ele>
        <time>2022-06-21T14:14:43Z</time>
      </trkpt>
      <trkpt lat="45.93708" lon="-0.96198">
        <ele>12.8</ele>
        <time>2022-06-21T14:14:44Z</time>
      </trkpt>
      <trkpt lat="45.93708" lon="-0.96198">
        <ele>12.8</ele>
        <time>2022-06-21T14:14:45Z</time>
      </trkpt>
      <trkpt lat="45.93708" lon="-0.96198">
        <ele>12.8</ele>
        <time>2022-06-21T14:14:46Z</time>
      </trkpt>
      <trkpt lat="45.93708" lon="-0.96198">
        <ele>12.9</ele>
        <time>2022-06-21T14:14:47Z</time>
      </trkpt>
      <trkpt lat="45.93708" lon="-0.96199">
        <ele>12.9</ele>
        <time>2022-06-21T14:14:48Z</time>
      </trkpt>
      <trkpt lat="45.93708" lon="-0.96199">
        <ele>12.9</ele>
        <time>2022-06-21T14:14:49Z</time>
      </trkpt>
      <trkpt lat="45.93708" lon="-0.96199">
        <ele>12.9</ele>
        <time>2022-06-21T14:14:50Z</time>
      </trkpt>
      <trkpt lat="45.93708" lon="-0.96199">
        <ele>12.9</ele>
        <time>2022-06-21T14:14:51Z</time>
      </trkpt>
      <trkpt lat="45.93708" lon="-0.96199">
        <ele>12.9</ele>
        <time>2022-06-21T14:14:52Z</time>
      </trkpt>
      <trkpt lat="45.93708" lon="-0.96199">
        <ele>12.9</ele>
        <time>2022-06-21T14:14:53Z</time>
      </trkpt>
      <trkpt lat="45.93708" lon="-0.96199">
        <ele>12.9</ele>
        <time>2022-06-21T14:14:54Z</time>
      </trkpt>
      <trkpt lat="45.93707" lon="-0.96199">
        <ele>12.9</ele>
        <time>2022-06-21T14:14:55Z</time>
      </trkpt>
      <trkpt lat="45.93707" lon="-0.96199">
        <ele>12.9</ele>
        <time>2022-06-21T14:14:56Z</time>
      </trkpt>
      <trkpt lat="45.93707" lon="-0.96199">
        <ele>12.9</ele>
        <time>2022-06-21T14:14:57Z</time>
      </trkpt>
      <trkpt lat="45.93707" lon="-0.962">
        <ele>12.9</ele>
        <time>2022-06-21T14:14:58Z</time>
      </trkpt>
      <trkpt lat="45.93707" lon="-0.962">
        <ele>12.9</ele>
        <time>2022-06-21T14:14:59Z</time>
      </trkpt>
      <trkpt lat="45.93707" lon="-0.962">
        <ele>12.9</ele>
        <time>2022-06-21T14:15:00Z</time>
      </trkpt>
      <trkpt lat="45.93707" lon="-0.962">
        <ele>12.9</ele>
        <time>2022-06-21T14:15:01Z</time>
      </trkpt>
      <trkpt lat="45.93707" lon="-0.962">
        <ele>12.9</ele>
        <time>2022-06-21T14:15:02Z</time>
      </trkpt>
      <trkpt lat="45.93707" lon="-0.962">
        <ele>12.9</ele>
        <time>2022-06-21T14:15:03Z</time>
      </trkpt>
      <trkpt lat="45.93707" lon="-0.962">
        <ele>12.9</ele>
        <time>2022-06-21T14:15:04Z</time>
      </trkpt>
      <trkpt lat="45.93707" lon="-0.962">
        <ele>12.9</ele>
        <time>2022-06-21T14:15:05Z</time>
      </trkpt>
      <trkpt lat="45.93706" lon="-0.962">
        <ele>12.9</ele>
        <time>2022-06-21T14:15:06Z</time>
      </trkpt>
      <trkpt lat="45.93706" lon="-0.96201">
        <ele>12.9</ele>
        <time>2022-06-21T14:15:07Z</time>
      </trkpt>
      <trkpt lat="45.93705" lon="-0.96202">
        <ele>12.9</ele>
        <time>2022-06-21T14:15:08Z</time>
      </trkpt>
      <trkpt lat="45.93705" lon="-0.96203">
        <ele>13</ele>
        <time>2022-06-21T14:15:09Z</time>
      </trkpt>
      <trkpt lat="45.93705" lon="-0.96203">
        <ele>13</ele>
        <time>2022-06-21T14:15:10Z</time>
      </trkpt>
      <trkpt lat="45.93705" lon="-0.96203">
        <ele>13</ele>
        <time>2022-06-21T14:15:11Z</time>
      </trkpt>
      <trkpt lat="45.93705" lon="-0.96203">
        <ele>13</ele>
        <time>2022-06-21T14:15:12Z</time>
      </trkpt>
      <trkpt lat="45.93704" lon="-0.96204">
        <ele>13</ele>
        <time>2022-06-21T14:15:13Z</time>
      </trkpt>
      <trkpt lat="45.93704" lon="-0.96204">
        <ele>13</ele>
        <time>2022-06-21T14:15:15Z</time>
      </trkpt>
      <trkpt lat="45.93703" lon="-0.96204">
        <ele>13</ele>
        <time>2022-06-21T14:15:16Z</time>
      </trkpt>
      <trkpt lat="45.93702" lon="-0.96204">
        <ele>13</ele>
        <time>2022-06-21T14:15:17Z</time>
      </trkpt>
      <trkpt lat="45.93701" lon="-0.96205">
        <ele>13.1</ele>
        <time>2022-06-21T14:15:18Z</time>
      </trkpt>
      <trkpt lat="45.93698" lon="-0.96206">
        <ele>13.1</ele>
        <time>2022-06-21T14:15:19Z</time>
      </trkpt>
      <trkpt lat="45.93697" lon="-0.96207">
        <ele>13.2</ele>
        <time>2022-06-21T14:15:20Z</time>
      </trkpt>
      <trkpt lat="45.93697" lon="-0.96207">
        <ele>13.2</ele>
        <time>2022-06-21T14:15:22Z</time>
      </trkpt>
      <trkpt lat="45.93697" lon="-0.96207">
        <ele>13.2</ele>
        <time>2022-06-21T14:15:23Z</time>
      </trkpt>
      <trkpt lat="45.93697" lon="-0.96208">
        <ele>13.2</ele>
        <time>2022-06-21T14:15:24Z</time>
      </trkpt>
      <trkpt lat="45.93697" lon="-0.96208">
        <ele>13.2</ele>
        <time>2022-06-21T14:15:25Z</time>
      </trkpt>
      <trkpt lat="45.93697" lon="-0.96209">
        <ele>13.2</ele>
        <time>2022-06-21T14:15:26Z</time>
      </trkpt>
      <trkpt lat="45.93697" lon="-0.96209">
        <ele>13.2</ele>
        <time>2022-06-21T14:15:27Z</time>
      </trkpt>
      <trkpt lat="45.93697" lon="-0.96209">
        <ele>13.2</ele>
        <time>2022-06-21T14:15:29Z</time>
      </trkpt>
      <trkpt lat="45.93696" lon="-0.96209">
        <ele>13.2</ele>
        <time>2022-06-21T14:15:30Z</time>
      </trkpt>
      <trkpt lat="45.93695" lon="-0.96209">
        <ele>13.2</ele>
        <time>2022-06-21T14:15:31Z</time>
      </trkpt>
      <trkpt lat="45.93693" lon="-0.96208">
        <ele>13.3</ele>
        <time>2022-06-21T14:15:33Z</time>
      </trkpt>
      <trkpt lat="45.93692" lon="-0.96208">
        <ele>13.3</ele>
        <time>2022-06-21T14:15:34Z</time>
      </trkpt>
      <trkpt lat="45.93689" lon="-0.96209">
        <ele>13.4</ele>
        <time>2022-06-21T14:15:36Z</time>
      </trkpt>
      <trkpt lat="45.93687" lon="-0.96209">
        <ele>13.4</ele>
        <time>2022-06-21T14:15:38Z</time>
      </trkpt>
      <trkpt lat="45.93685" lon="-0.9621">
        <ele>13.5</ele>
        <time>2022-06-21T14:15:39Z</time>
      </trkpt>
      <trkpt lat="45.93684" lon="-0.9621">
        <ele>13.5</ele>
        <time>2022-06-21T14:15:40Z</time>
      </trkpt>
      <trkpt lat="45.93682" lon="-0.96209">
        <ele>13.6</ele>
        <time>2022-06-21T14:15:41Z</time>
      </trkpt>
      <trkpt lat="45.9368" lon="-0.96209">
        <ele>13.6</ele>
        <time>2022-06-21T14:15:42Z</time>
      </trkpt>
      <trkpt lat="45.9368" lon="-0.96209">
        <ele>13.6</ele>
        <time>2022-06-21T14:15:43Z</time>
      </trkpt>
      <trkpt lat="45.93679" lon="-0.96209">
        <ele>13.7</ele>
        <time>2022-06-21T14:15:44Z</time>
      </trkpt>
      <trkpt lat="45.93678" lon="-0.96209">
        <ele>13.7</ele>
        <time>2022-06-21T14:15:45Z</time>
      </trkpt>
      <trkpt lat="45.93677" lon="-0.96209">
        <ele>13.7</ele>
        <time>2022-06-21T14:15:46Z</time>
      </trkpt>
      <trkpt lat="45.93675" lon="-0.96209">
        <ele>13.8</ele>
        <time>2022-06-21T14:15:48Z</time>
      </trkpt>
      <trkpt lat="45.93674" lon="-0.9621">
        <ele>13.8</ele>
        <time>2022-06-21T14:15:49Z</time>
      </trkpt>
      <trkpt lat="45.93672" lon="-0.9621">
        <ele>13.8</ele>
        <time>2022-06-21T14:15:50Z</time>
      </trkpt>
      <trkpt lat="45.93669" lon="-0.96211">
        <ele>13.9</ele>
        <time>2022-06-21T14:15:51Z</time>
      </trkpt>
      <trkpt lat="45.93668" lon="-0.96211">
        <ele>13.9</ele>
        <time>2022-06-21T14:15:52Z</time>
      </trkpt>
      <trkpt lat="45.93666" lon="-0.96211">
        <ele>14</ele>
        <time>2022-06-21T14:15:54Z</time>
      </trkpt>
      <trkpt lat="45.93665" lon="-0.96211">
        <ele>14</ele>
        <time>2022-06-21T14:15:55Z</time>
      </trkpt>
      <trkpt lat="45.93665" lon="-0.96212">
        <ele>14</ele>
        <time>2022-06-21T14:15:56Z</time>
      </trkpt>
      <trkpt lat="45.93664" lon="-0.96212">
        <ele>14</ele>
        <time>2022-06-21T14:15:57Z</time>
      </trkpt>
      <trkpt lat="45.93662" lon="-0.96212">
        <ele>14</ele>
        <time>2022-06-21T14:15:59Z</time>
      </trkpt>
      <trkpt lat="45.93661" lon="-0.96212">
        <ele>14.1</ele>
        <time>2022-06-21T14:16:00Z</time>
      </trkpt>
      <trkpt lat="45.9366" lon="-0.96212">
        <ele>14.1</ele>
        <time>2022-06-21T14:16:01Z</time>
      </trkpt>
      <trkpt lat="45.93659" lon="-0.96212">
        <ele>14.1</ele>
        <time>2022-06-21T14:16:02Z</time>
      </trkpt>
      <trkpt lat="45.93658" lon="-0.96212">
        <ele>14.1</ele>
        <time>2022-06-21T14:16:03Z</time>
      </trkpt>
      <trkpt lat="45.93656" lon="-0.96213">
        <ele>14.1</ele>
        <time>2022-06-21T14:16:05Z</time>
      </trkpt>
      <trkpt lat="45.93655" lon="-0.96213">
        <ele>14.1</ele>
        <time>2022-06-21T14:16:06Z</time>
      </trkpt>
      <trkpt lat="45.93654" lon="-0.96213">
        <ele>14.1</ele>
        <time>2022-06-21T14:16:07Z</time>
      </trkpt>
      <trkpt lat="45.93653" lon="-0.96213">
        <ele>14.1</ele>
        <time>2022-06-21T14:16:08Z</time>
      </trkpt>
      <trkpt lat="45.93652" lon="-0.96214">
        <ele>14.1</ele>
        <time>2022-06-21T14:16:10Z</time>
      </trkpt>
      <trkpt lat="45.93652" lon="-0.96213">
        <ele>14.1</ele>
        <time>2022-06-21T14:16:11Z</time>
      </trkpt>
      <trkpt lat="45.93652" lon="-0.96213">
        <ele>14.1</ele>
        <time>2022-06-21T14:16:12Z</time>
      </trkpt>
      <trkpt lat="45.93653" lon="-0.96213">
        <ele>14.1</ele>
        <time>2022-06-21T14:16:13Z</time>
      </trkpt>
      <trkpt lat="45.93653" lon="-0.96213">
        <ele>14.1</ele>
        <time>2022-06-21T14:16:14Z</time>
      </trkpt>
      <trkpt lat="45.93654" lon="-0.96213">
        <ele>14.1</ele>
        <time>2022-06-21T14:16:16Z</time>
      </trkpt>
      <trkpt lat="45.93654" lon="-0.96213">
        <ele>14.1</ele>
        <time>2022-06-21T14:16:17Z</time>
      </trkpt>
      <trkpt lat="45.93654" lon="-0.96212">
        <ele>14.1</ele>
        <time>2022-06-21T14:16:18Z</time>
      </trkpt>
      <trkpt lat="45.93655" lon="-0.96212">
        <ele>14.1</ele>
        <time>2022-06-21T14:16:19Z</time>
      </trkpt>
      <trkpt lat="45.93655" lon="-0.96212">
        <ele>14.1</ele>
        <time>2022-06-21T14:16:20Z</time>
      </trkpt>
      <trkpt lat="45.93656" lon="-0.96212">
        <ele>14.1</ele>
        <time>2022-06-21T14:16:21Z</time>
      </trkpt>
      <trkpt lat="45.93656" lon="-0.96212">
        <ele>14.1</ele>
        <time>2022-06-21T14:16:22Z</time>
      </trkpt>
      <trkpt lat="45.93657" lon="-0.96212">
        <ele>14.1</ele>
        <time>2022-06-21T14:16:23Z</time>
      </trkpt>
      <trkpt lat="45.93657" lon="-0.96212">
        <ele>14.1</ele>
        <time>2022-06-21T14:16:24Z</time>
      </trkpt>
      <trkpt lat="45.93657" lon="-0.96211">
        <ele>14.1</ele>
        <time>2022-06-21T14:16:25Z</time>
      </trkpt>
      <trkpt lat="45.93658" lon="-0.96211">
        <ele>14.1</ele>
        <time>2022-06-21T14:16:26Z</time>
      </trkpt>
      <trkpt lat="45.93658" lon="-0.96211">
        <ele>14.1</ele>
        <time>2022-06-21T14:16:27Z</time>
      </trkpt>
      <trkpt lat="45.93658" lon="-0.96211">
        <ele>14.1</ele>
        <time>2022-06-21T14:16:28Z</time>
      </trkpt>
      <trkpt lat="45.93657" lon="-0.96211">
        <ele>14.1</ele>
        <time>2022-06-21T14:16:29Z</time>
      </trkpt>
      <trkpt lat="45.93657" lon="-0.96212">
        <ele>14.1</ele>
        <time>2022-06-21T14:16:30Z</time>
      </trkpt>
      <trkpt lat="45.93657" lon="-0.96212">
        <ele>14.1</ele>
        <time>2022-06-21T14:16:31Z</time>
      </trkpt>
      <trkpt lat="45.93656" lon="-0.96212">
        <ele>14.1</ele>
        <time>2022-06-21T14:16:32Z</time>
      </trkpt>
      <trkpt lat="45.93656" lon="-0.96212">
        <ele>14.1</ele>
        <time>2022-06-21T14:16:33Z</time>
      </trkpt>
      <trkpt lat="45.93656" lon="-0.96212">
        <ele>14.1</ele>
        <time>2022-06-21T14:16:34Z</time>
      </trkpt>
      <trkpt lat="45.93655" lon="-0.96212">
        <ele>14.1</ele>
        <time>2022-06-21T14:16:35Z</time>
      </trkpt>
      <trkpt lat="45.93655" lon="-0.96212">
        <ele>14.1</ele>
        <time>2022-06-21T14:16:36Z</time>
      </trkpt>
      <trkpt lat="45.93655" lon="-0.96212">
        <ele>14.1</ele>
        <time>2022-06-21T14:16:37Z</time>
      </trkpt>
      <trkpt lat="45.93654" lon="-0.96212">
        <ele>14.1</ele>
        <time>2022-06-21T14:16:38Z</time>
      </trkpt>
      <trkpt lat="45.93654" lon="-0.96213">
        <ele>14.1</ele>
        <time>2022-06-21T14:16:39Z</time>
      </trkpt>
      <trkpt lat="45.93654" lon="-0.96213">
        <ele>14.1</ele>
        <time>2022-06-21T14:16:40Z</time>
      </trkpt>
      <trkpt lat="45.93654" lon="-0.96213">
        <ele>14.1</ele>
        <time>2022-06-21T14:16:41Z</time>
      </trkpt>
      <trkpt lat="45.93653" lon="-0.96213">
        <ele>14.1</ele>
        <time>2022-06-21T14:16:42Z</time>
      </trkpt>
      <trkpt lat="45.93653" lon="-0.96213">
        <ele>14.1</ele>
        <time>2022-06-21T14:16:43Z</time>
      </trkpt>
      <trkpt lat="45.93653" lon="-0.96213">
        <ele>14.1</ele>
        <time>2022-06-21T14:16:44Z</time>
      </trkpt>
      <trkpt lat="45.93652" lon="-0.96213">
        <ele>14.1</ele>
        <time>2022-06-21T14:16:45Z</time>
      </trkpt>
      <trkpt lat="45.93652" lon="-0.96213">
        <ele>14.1</ele>
        <time>2022-06-21T14:16:46Z</time>
      </trkpt>
      <trkpt lat="45.93652" lon="-0.96213">
        <ele>14.1</ele>
        <time>2022-06-21T14:16:47Z</time>
      </trkpt>
      <trkpt lat="45.93651" lon="-0.96214">
        <ele>14.1</ele>
        <time>2022-06-21T14:16:48Z</time>
      </trkpt>
      <trkpt lat="45.93651" lon="-0.96214">
        <ele>14.1</ele>
        <time>2022-06-21T14:16:49Z</time>
      </trkpt>
      <trkpt lat="45.93651" lon="-0.96214">
        <ele>14.1</ele>
        <time>2022-06-21T14:16:50Z</time>
      </trkpt>
      <trkpt lat="45.9365" lon="-0.96214">
        <ele>14.1</ele>
        <time>2022-06-21T14:16:51Z</time>
      </trkpt>
      <trkpt lat="45.9365" lon="-0.96214">
        <ele>14.1</ele>
        <time>2022-06-21T14:16:52Z</time>
      </trkpt>
      <trkpt lat="45.9365" lon="-0.96214">
        <ele>14.1</ele>
        <time>2022-06-21T14:16:53Z</time>
      </trkpt>
      <trkpt lat="45.9365" lon="-0.96214">
        <ele>14.1</ele>
        <time>2022-06-21T14:16:55Z</time>
      </trkpt>
      <trkpt lat="45.93649" lon="-0.96214">
        <ele>14.1</ele>
        <time>2022-06-21T14:16:58Z</time>
      </trkpt>
      <trkpt lat="45.93649" lon="-0.96214">
        <ele>14.1</ele>
        <time>2022-06-21T14:16:59Z</time>
      </trkpt>
      <trkpt lat="45.93649" lon="-0.96215">
        <ele>14.1</ele>
        <time>2022-06-21T14:17:01Z</time>
      </trkpt>
      <trkpt lat="45.93648" lon="-0.96215">
        <ele>14.1</ele>
        <time>2022-06-21T14:17:02Z</time>
      </trkpt>
      <trkpt lat="45.93646" lon="-0.96216">
        <ele>14.1</ele>
        <time>2022-06-21T14:17:03Z</time>
      </trkpt>
      <trkpt lat="45.93644" lon="-0.96217">
        <ele>14</ele>
        <time>2022-06-21T14:17:05Z</time>
      </trkpt>
      <trkpt lat="45.93643" lon="-0.96217">
        <ele>14</ele>
        <time>2022-06-21T14:17:06Z</time>
      </trkpt>
      <trkpt lat="45.93642" lon="-0.96218">
        <ele>14</ele>
        <time>2022-06-21T14:17:07Z</time>
      </trkpt>
      <trkpt lat="45.93642" lon="-0.96218">
        <ele>14</ele>
        <time>2022-06-21T14:17:08Z</time>
      </trkpt>
      <trkpt lat="45.93641" lon="-0.96218">
        <ele>14</ele>
        <time>2022-06-21T14:17:09Z</time>
      </trkpt>
      <trkpt lat="45.9364" lon="-0.96218">
        <ele>14</ele>
        <time>2022-06-21T14:17:10Z</time>
      </trkpt>
      <trkpt lat="45.93637" lon="-0.96219">
        <ele>14</ele>
        <time>2022-06-21T14:17:12Z</time>
      </trkpt>
      <trkpt lat="45.93637" lon="-0.9622">
        <ele>14</ele>
        <time>2022-06-21T14:17:13Z</time>
      </trkpt>
      <trkpt lat="45.93637" lon="-0.96221">
        <ele>14</ele>
        <time>2022-06-21T14:17:14Z</time>
      </trkpt>
      <trkpt lat="45.93637" lon="-0.96222">
        <ele>14</ele>
        <time>2022-06-21T14:17:16Z</time>
      </trkpt>
      <trkpt lat="45.93636" lon="-0.96223">
        <ele>14</ele>
        <time>2022-06-21T14:17:17Z</time>
      </trkpt>
      <trkpt lat="45.93635" lon="-0.96225">
        <ele>13.9</ele>
        <time>2022-06-21T14:17:18Z</time>
      </trkpt>
      <trkpt lat="45.93634" lon="-0.96226">
        <ele>13.9</ele>
        <time>2022-06-21T14:17:19Z</time>
      </trkpt>
      <trkpt lat="45.93633" lon="-0.96227">
        <ele>13.9</ele>
        <time>2022-06-21T14:17:20Z</time>
      </trkpt>
      <trkpt lat="45.93632" lon="-0.96228">
        <ele>13.1</ele>
        <time>2022-06-21T14:17:21Z</time>
      </trkpt>
      <trkpt lat="45.9363" lon="-0.96229">
        <ele>13.1</ele>
        <time>2022-06-21T14:17:22Z</time>
      </trkpt>
      <trkpt lat="45.93629" lon="-0.9623">
        <ele>13.1</ele>
        <time>2022-06-21T14:17:24Z</time>
      </trkpt>
      <trkpt lat="45.93627" lon="-0.96231">
        <ele>13.1</ele>
        <time>2022-06-21T14:17:25Z</time>
      </trkpt>
      <trkpt lat="45.93626" lon="-0.96232">
        <ele>13.1</ele>
        <time>2022-06-21T14:17:26Z</time>
      </trkpt>
      <trkpt lat="45.93625" lon="-0.96233">
        <ele>13</ele>
        <time>2022-06-21T14:17:27Z</time>
      </trkpt>
      <trkpt lat="45.93623" lon="-0.96234">
        <ele>12.9</ele>
        <time>2022-06-21T14:17:28Z</time>
      </trkpt>
      <trkpt lat="45.93621" lon="-0.96235">
        <ele>12.9</ele>
        <time>2022-06-21T14:17:29Z</time>
      </trkpt>
      <trkpt lat="45.93619" lon="-0.96236">
        <ele>12.8</ele>
        <time>2022-06-21T14:17:31Z</time>
      </trkpt>
      <trkpt lat="45.93617" lon="-0.96236">
        <ele>12.8</ele>
        <time>2022-06-21T14:17:32Z</time>
      </trkpt>
      <trkpt lat="45.93616" lon="-0.96236">
        <ele>12.8</ele>
        <time>2022-06-21T14:17:33Z</time>
      </trkpt>
      <trkpt lat="45.93616" lon="-0.96236">
        <ele>12.8</ele>
        <time>2022-06-21T14:17:34Z</time>
      </trkpt>
      <trkpt lat="45.93614" lon="-0.96236">
        <ele>12.8</ele>
        <time>2022-06-21T14:17:35Z</time>
      </trkpt>
      <trkpt lat="45.93613" lon="-0.96236">
        <ele>12.8</ele>
        <time>2022-06-21T14:17:36Z</time>
      </trkpt>
      <trkpt lat="45.93612" lon="-0.96236">
        <ele>12.8</ele>
        <time>2022-06-21T14:17:37Z</time>
      </trkpt>
      <trkpt lat="45.93611" lon="-0.96236">
        <ele>12.8</ele>
        <time>2022-06-21T14:17:39Z</time>
      </trkpt>
      <trkpt lat="45.93611" lon="-0.96236">
        <ele>12.8</ele>
        <time>2022-06-21T14:17:40Z</time>
      </trkpt>
      <trkpt lat="45.93611" lon="-0.96235">
        <ele>12.8</ele>
        <time>2022-06-21T14:17:41Z</time>
      </trkpt>
      <trkpt lat="45.9361" lon="-0.96235">
        <ele>12.8</ele>
        <time>2022-06-21T14:17:42Z</time>
      </trkpt>
      <trkpt lat="45.93609" lon="-0.96235">
        <ele>12.8</ele>
        <time>2022-06-21T14:17:43Z</time>
      </trkpt>
      <trkpt lat="45.93608" lon="-0.96235">
        <ele>12.8</ele>
        <time>2022-06-21T14:17:44Z</time>
      </trkpt>
      <trkpt lat="45.93607" lon="-0.96235">
        <ele>12.8</ele>
        <time>2022-06-21T14:17:45Z</time>
      </trkpt>
      <trkpt lat="45.93605" lon="-0.96236">
        <ele>12.8</ele>
        <time>2022-06-21T14:17:47Z</time>
      </trkpt>
      <trkpt lat="45.93603" lon="-0.96236">
        <ele>12.8</ele>
        <time>2022-06-21T14:17:48Z</time>
      </trkpt>
      <trkpt lat="45.93602" lon="-0.96236">
        <ele>12.8</ele>
        <time>2022-06-21T14:17:49Z</time>
      </trkpt>
      <trkpt lat="45.93598" lon="-0.96235">
        <ele>12.8</ele>
        <time>2022-06-21T14:17:50Z</time>
      </trkpt>
      <trkpt lat="45.93597" lon="-0.96235">
        <ele>12.8</ele>
        <time>2022-06-21T14:17:51Z</time>
      </trkpt>
      <trkpt lat="45.93595" lon="-0.96235">
        <ele>12.8</ele>
        <time>2022-06-21T14:17:52Z</time>
      </trkpt>
      <trkpt lat="45.93593" lon="-0.96235">
        <ele>12.8</ele>
        <time>2022-06-21T14:17:54Z</time>
      </trkpt>
      <trkpt lat="45.93591" lon="-0.96236">
        <ele>12.8</ele>
        <time>2022-06-21T14:17:55Z</time>
      </trkpt>
      <trkpt lat="45.9359" lon="-0.96237">
        <ele>12.8</ele>
        <time>2022-06-21T14:17:56Z</time>
      </trkpt>
      <trkpt lat="45.9359" lon="-0.96237">
        <ele>12.8</ele>
        <time>2022-06-21T14:17:57Z</time>
      </trkpt>
      <trkpt lat="45.93587" lon="-0.96237">
        <ele>12.8</ele>
        <time>2022-06-21T14:17:58Z</time>
      </trkpt>
      <trkpt lat="45.93586" lon="-0.96236">
        <ele>12.8</ele>
        <time>2022-06-21T14:17:59Z</time>
      </trkpt>
      <trkpt lat="45.93586" lon="-0.96236">
        <ele>12.8</ele>
        <time>2022-06-21T14:18:01Z</time>
      </trkpt>
      <trkpt lat="45.93585" lon="-0.96237">
        <ele>12.8</ele>
        <time>2022-06-21T14:18:02Z</time>
      </trkpt>
      <trkpt lat="45.93585" lon="-0.96237">
        <ele>12.8</ele>
        <time>2022-06-21T14:18:03Z</time>
      </trkpt>
      <trkpt lat="45.93584" lon="-0.96237">
        <ele>12.8</ele>
        <time>2022-06-21T14:18:04Z</time>
      </trkpt>
      <trkpt lat="45.93583" lon="-0.96237">
        <ele>12.8</ele>
        <time>2022-06-21T14:18:05Z</time>
      </trkpt>
      <trkpt lat="45.93582" lon="-0.96235">
        <ele>12.8</ele>
        <time>2022-06-21T14:18:06Z</time>
      </trkpt>
      <trkpt lat="45.93582" lon="-0.96235">
        <ele>12.8</ele>
        <time>2022-06-21T14:18:07Z</time>
      </trkpt>
      <trkpt lat="45.93581" lon="-0.96235">
        <ele>12.8</ele>
        <time>2022-06-21T14:18:08Z</time>
      </trkpt>
      <trkpt lat="45.9358" lon="-0.96236">
        <ele>12.8</ele>
        <time>2022-06-21T14:18:09Z</time>
      </trkpt>
      <trkpt lat="45.9358" lon="-0.96237">
        <ele>12.8</ele>
        <time>2022-06-21T14:18:10Z</time>
      </trkpt>
      <trkpt lat="45.93579" lon="-0.96238">
        <ele>12.8</ele>
        <time>2022-06-21T14:18:11Z</time>
      </trkpt>
      <trkpt lat="45.93578" lon="-0.96239">
        <ele>12.8</ele>
        <time>2022-06-21T14:18:12Z</time>
      </trkpt>
      <trkpt lat="45.93578" lon="-0.9624">
        <ele>12.8</ele>
        <time>2022-06-21T14:18:13Z</time>
      </trkpt>
      <trkpt lat="45.93579" lon="-0.9624">
        <ele>12.8</ele>
        <time>2022-06-21T14:18:15Z</time>
      </trkpt>
      <trkpt lat="45.93579" lon="-0.96239">
        <ele>12.8</ele>
        <time>2022-06-21T14:18:16Z</time>
      </trkpt>
      <trkpt lat="45.93578" lon="-0.96238">
        <ele>12.7</ele>
        <time>2022-06-21T14:18:17Z</time>
      </trkpt>
      <trkpt lat="45.93577" lon="-0.96238">
        <ele>12.7</ele>
        <time>2022-06-21T14:18:18Z</time>
      </trkpt>
      <trkpt lat="45.93575" lon="-0.96239">
        <ele>12.7</ele>
        <time>2022-06-21T14:18:19Z</time>
      </trkpt>
      <trkpt lat="45.93573" lon="-0.96239">
        <ele>12.7</ele>
        <time>2022-06-21T14:18:20Z</time>
      </trkpt>
      <trkpt lat="45.93573" lon="-0.96239">
        <ele>12.7</ele>
        <time>2022-06-21T14:18:21Z</time>
      </trkpt>
      <trkpt lat="45.93572" lon="-0.96239">
        <ele>12.7</ele>
        <time>2022-06-21T14:18:23Z</time>
      </trkpt>
      <trkpt lat="45.93571" lon="-0.96239">
        <ele>12.7</ele>
        <time>2022-06-21T14:18:24Z</time>
      </trkpt>
      <trkpt lat="45.9357" lon="-0.96239">
        <ele>12.7</ele>
        <time>2022-06-21T14:18:25Z</time>
      </trkpt>
      <trkpt lat="45.93569" lon="-0.9624">
        <ele>12.7</ele>
        <time>2022-06-21T14:18:26Z</time>
      </trkpt>
      <trkpt lat="45.93568" lon="-0.9624">
        <ele>12.7</ele>
        <time>2022-06-21T14:18:27Z</time>
      </trkpt>
      <trkpt lat="45.93566" lon="-0.96242">
        <ele>12.7</ele>
        <time>2022-06-21T14:18:28Z</time>
      </trkpt>
      <trkpt lat="45.93565" lon="-0.96243">
        <ele>12.7</ele>
        <time>2022-06-21T14:18:29Z</time>
      </trkpt>
      <trkpt lat="45.93564" lon="-0.96245">
        <ele>12.7</ele>
        <time>2022-06-21T14:18:31Z</time>
      </trkpt>
      <trkpt lat="45.93563" lon="-0.96245">
        <ele>12.7</ele>
        <time>2022-06-21T14:18:32Z</time>
      </trkpt>
      <trkpt lat="45.93562" lon="-0.96246">
        <ele>12.7</ele>
        <time>2022-06-21T14:18:33Z</time>
      </trkpt>
      <trkpt lat="45.93561" lon="-0.96246">
        <ele>12.7</ele>
        <time>2022-06-21T14:18:34Z</time>
      </trkpt>
      <trkpt lat="45.93559" lon="-0.96246">
        <ele>12.6</ele>
        <time>2022-06-21T14:18:35Z</time>
      </trkpt>
      <trkpt lat="45.93557" lon="-0.96246">
        <ele>12.6</ele>
        <time>2022-06-21T14:18:36Z</time>
      </trkpt>
      <trkpt lat="45.93556" lon="-0.96246">
        <ele>12.6</ele>
        <time>2022-06-21T14:18:37Z</time>
      </trkpt>
      <trkpt lat="45.93555" lon="-0.96247">
        <ele>12.6</ele>
        <time>2022-06-21T14:18:38Z</time>
      </trkpt>
      <trkpt lat="45.93554" lon="-0.96247">
        <ele>12.6</ele>
        <time>2022-06-21T14:18:40Z</time>
      </trkpt>
      <trkpt lat="45.93553" lon="-0.96246">
        <ele>12.6</ele>
        <time>2022-06-21T14:18:41Z</time>
      </trkpt>
      <trkpt lat="45.93552" lon="-0.96246">
        <ele>12.6</ele>
        <time>2022-06-21T14:18:42Z</time>
      </trkpt>
      <trkpt lat="45.93551" lon="-0.96245">
        <ele>12.6</ele>
        <time>2022-06-21T14:18:43Z</time>
      </trkpt>
      <trkpt lat="45.93549" lon="-0.96245">
        <ele>12.5</ele>
        <time>2022-06-21T14:18:44Z</time>
      </trkpt>
      <trkpt lat="45.93548" lon="-0.96245">
        <ele>12.5</ele>
        <time>2022-06-21T14:18:45Z</time>
      </trkpt>
      <trkpt lat="45.93546" lon="-0.96245">
        <ele>12.5</ele>
        <time>2022-06-21T14:18:46Z</time>
      </trkpt>
      <trkpt lat="45.93543" lon="-0.96245">
        <ele>12.5</ele>
        <time>2022-06-21T14:18:48Z</time>
      </trkpt>
      <trkpt lat="45.93542" lon="-0.96245">
        <ele>12.5</ele>
        <time>2022-06-21T14:18:49Z</time>
      </trkpt>
      <trkpt lat="45.93539" lon="-0.96245">
        <ele>12.5</ele>
        <time>2022-06-21T14:18:50Z</time>
      </trkpt>
      <trkpt lat="45.93538" lon="-0.96245">
        <ele>12.4</ele>
        <time>2022-06-21T14:18:51Z</time>
      </trkpt>
      <trkpt lat="45.93536" lon="-0.96245">
        <ele>12.4</ele>
        <time>2022-06-21T14:18:52Z</time>
      </trkpt>
      <trkpt lat="45.93535" lon="-0.96245">
        <ele>12.4</ele>
        <time>2022-06-21T14:18:53Z</time>
      </trkpt>
      <trkpt lat="45.93533" lon="-0.96245">
        <ele>12.4</ele>
        <time>2022-06-21T14:18:54Z</time>
      </trkpt>
      <trkpt lat="45.93532" lon="-0.96245">
        <ele>12.4</ele>
        <time>2022-06-21T14:18:56Z</time>
      </trkpt>
      <trkpt lat="45.93531" lon="-0.96246">
        <ele>12.4</ele>
        <time>2022-06-21T14:18:57Z</time>
      </trkpt>
      <trkpt lat="45.9353" lon="-0.96246">
        <ele>12.4</ele>
        <time>2022-06-21T14:18:58Z</time>
      </trkpt>
      <trkpt lat="45.93528" lon="-0.96246">
        <ele>12.4</ele>
        <time>2022-06-21T14:18:59Z</time>
      </trkpt>
      <trkpt lat="45.93525" lon="-0.96247">
        <ele>12.4</ele>
        <time>2022-06-21T14:19:00Z</time>
      </trkpt>
      <trkpt lat="45.93524" lon="-0.96247">
        <ele>12.4</ele>
        <time>2022-06-21T14:19:01Z</time>
      </trkpt>
      <trkpt lat="45.93523" lon="-0.96247">
        <ele>12.4</ele>
        <time>2022-06-21T14:19:02Z</time>
      </trkpt>
      <trkpt lat="45.9352" lon="-0.96248">
        <ele>12.4</ele>
        <time>2022-06-21T14:19:04Z</time>
      </trkpt>
      <trkpt lat="45.9352" lon="-0.96248">
        <ele>12.4</ele>
        <time>2022-06-21T14:19:05Z</time>
      </trkpt>
      <trkpt lat="45.93519" lon="-0.96248">
        <ele>12.4</ele>
        <time>2022-06-21T14:19:06Z</time>
      </trkpt>
      <trkpt lat="45.93518" lon="-0.96248">
        <ele>12.4</ele>
        <time>2022-06-21T14:19:07Z</time>
      </trkpt>
      <trkpt lat="45.93517" lon="-0.96248">
        <ele>12.4</ele>
        <time>2022-06-21T14:19:08Z</time>
      </trkpt>
      <trkpt lat="45.93515" lon="-0.96249">
        <ele>12.4</ele>
        <time>2022-06-21T14:19:09Z</time>
      </trkpt>
      <trkpt lat="45.93514" lon="-0.96249">
        <ele>12.4</ele>
        <time>2022-06-21T14:19:10Z</time>
      </trkpt>
      <trkpt lat="45.93513" lon="-0.96249">
        <ele>12.4</ele>
        <time>2022-06-21T14:19:12Z</time>
      </trkpt>
      <trkpt lat="45.93514" lon="-0.9625">
        <ele>12.4</ele>
        <time>2022-06-21T14:19:13Z</time>
      </trkpt>
      <trkpt lat="45.93513" lon="-0.96252">
        <ele>12.4</ele>
        <time>2022-06-21T14:19:14Z</time>
      </trkpt>
      <trkpt lat="45.93513" lon="-0.96253">
        <ele>12.4</ele>
        <time>2022-06-21T14:19:15Z</time>
      </trkpt>
      <trkpt lat="45.93513" lon="-0.96254">
        <ele>12.4</ele>
        <time>2022-06-21T14:19:16Z</time>
      </trkpt>
      <trkpt lat="45.93513" lon="-0.96255">
        <ele>12.4</ele>
        <time>2022-06-21T14:19:17Z</time>
      </trkpt>
      <trkpt lat="45.93513" lon="-0.96255">
        <ele>12.4</ele>
        <time>2022-06-21T14:19:18Z</time>
      </trkpt>
      <trkpt lat="45.93512" lon="-0.96256">
        <ele>12.4</ele>
        <time>2022-06-21T14:19:20Z</time>
      </trkpt>
      <trkpt lat="45.93512" lon="-0.96256">
        <ele>12.4</ele>
        <time>2022-06-21T14:19:21Z</time>
      </trkpt>
      <trkpt lat="45.93512" lon="-0.96257">
        <ele>12.4</ele>
        <time>2022-06-21T14:19:23Z</time>
      </trkpt>
      <trkpt lat="45.93512" lon="-0.96257">
        <ele>12.4</ele>
        <time>2022-06-21T14:19:25Z</time>
      </trkpt>
      <trkpt lat="45.93512" lon="-0.96258">
        <ele>12.4</ele>
        <time>2022-06-21T14:19:26Z</time>
      </trkpt>
      <trkpt lat="45.93512" lon="-0.96258">
        <ele>12.4</ele>
        <time>2022-06-21T14:19:27Z</time>
      </trkpt>
      <trkpt lat="45.93512" lon="-0.96259">
        <ele>12.4</ele>
        <time>2022-06-21T14:19:28Z</time>
      </trkpt>
      <trkpt lat="45.93512" lon="-0.96259">
        <ele>12.4</ele>
        <time>2022-06-21T14:19:30Z</time>
      </trkpt>
      <trkpt lat="45.93512" lon="-0.9626">
        <ele>12.4</ele>
        <time>2022-06-21T14:19:31Z</time>
      </trkpt>
      <trkpt lat="45.93512" lon="-0.9626">
        <ele>12.4</ele>
        <time>2022-06-21T14:19:32Z</time>
      </trkpt>
      <trkpt lat="45.93512" lon="-0.96261">
        <ele>12.4</ele>
        <time>2022-06-21T14:19:33Z</time>
      </trkpt>
      <trkpt lat="45.93512" lon="-0.96261">
        <ele>12.4</ele>
        <time>2022-06-21T14:19:34Z</time>
      </trkpt>
      <trkpt lat="45.93512" lon="-0.96262">
        <ele>12.4</ele>
        <time>2022-06-21T14:19:35Z</time>
      </trkpt>
      <trkpt lat="45.93512" lon="-0.96262">
        <ele>12.4</ele>
        <time>2022-06-21T14:19:36Z</time>
      </trkpt>
      <trkpt lat="45.93512" lon="-0.96263">
        <ele>12.4</ele>
        <time>2022-06-21T14:19:37Z</time>
      </trkpt>
      <trkpt lat="45.93512" lon="-0.96263">
        <ele>12.4</ele>
        <time>2022-06-21T14:19:38Z</time>
      </trkpt>
      <trkpt lat="45.93512" lon="-0.96264">
        <ele>12.4</ele>
        <time>2022-06-21T14:19:40Z</time>
      </trkpt>
      <trkpt lat="45.93512" lon="-0.96264">
        <ele>12.4</ele>
        <time>2022-06-21T14:19:41Z</time>
      </trkpt>
      <trkpt lat="45.93512" lon="-0.96265">
        <ele>12.4</ele>
        <time>2022-06-21T14:19:42Z</time>
      </trkpt>
      <trkpt lat="45.93513" lon="-0.96267">
        <ele>12.4</ele>
        <time>2022-06-21T14:19:43Z</time>
      </trkpt>
      <trkpt lat="45.93514" lon="-0.96269">
        <ele>12.4</ele>
        <time>2022-06-21T14:19:44Z</time>
      </trkpt>
      <trkpt lat="45.93514" lon="-0.96269">
        <ele>12.4</ele>
        <time>2022-06-21T14:19:45Z</time>
      </trkpt>
      <trkpt lat="45.93514" lon="-0.96269">
        <ele>12.4</ele>
        <time>2022-06-21T14:19:46Z</time>
      </trkpt>
      <trkpt lat="45.93514" lon="-0.96269">
        <ele>12.4</ele>
        <time>2022-06-21T14:19:47Z</time>
      </trkpt>
      <trkpt lat="45.93514" lon="-0.96269">
        <ele>12.4</ele>
        <time>2022-06-21T14:19:48Z</time>
      </trkpt>
      <trkpt lat="45.93514" lon="-0.96269">
        <ele>12.4</ele>
        <time>2022-06-21T14:19:49Z</time>
      </trkpt>
      <trkpt lat="45.93514" lon="-0.96269">
        <ele>12.4</ele>
        <time>2022-06-21T14:19:50Z</time>
      </trkpt>
      <trkpt lat="45.93514" lon="-0.96269">
        <ele>12.4</ele>
        <time>2022-06-21T14:19:51Z</time>
      </trkpt>
      <trkpt lat="45.93514" lon="-0.96269">
        <ele>12.4</ele>
        <time>2022-06-21T14:19:52Z</time>
      </trkpt>
      <trkpt lat="45.93514" lon="-0.96269">
        <ele>12.4</ele>
        <time>2022-06-21T14:19:53Z</time>
      </trkpt>
      <trkpt lat="45.93514" lon="-0.96269">
        <ele>12.4</ele>
        <time>2022-06-21T14:19:54Z</time>
      </trkpt>
      <trkpt lat="45.93514" lon="-0.96269">
        <ele>12.4</ele>
        <time>2022-06-21T14:19:55Z</time>
      </trkpt>
      <trkpt lat="45.93514" lon="-0.96269">
        <ele>12.4</ele>
        <time>2022-06-21T14:19:56Z</time>
      </trkpt>
      <trkpt lat="45.93514" lon="-0.96269">
        <ele>12.4</ele>
        <time>2022-06-21T14:19:57Z</time>
      </trkpt>
      <trkpt lat="45.93514" lon="-0.96269">
        <ele>12.4</ele>
        <time>2022-06-21T14:19:58Z</time>
      </trkpt>
      <trkpt lat="45.93514" lon="-0.96269">
        <ele>12.4</ele>
        <time>2022-06-21T14:19:59Z</time>
      </trkpt>
      <trkpt lat="45.93514" lon="-0.96269">
        <ele>12.4</ele>
        <time>2022-06-21T14:20:00Z</time>
      </trkpt>
      <trkpt lat="45.93514" lon="-0.96269">
        <ele>12.4</ele>
        <time>2022-06-21T14:20:01Z</time>
      </trkpt>
      <trkpt lat="45.93514" lon="-0.96269">
        <ele>12.4</ele>
        <time>2022-06-21T14:20:02Z</time>
      </trkpt>
      <trkpt lat="45.93514" lon="-0.96269">
        <ele>12.4</ele>
        <time>2022-06-21T14:20:03Z</time>
      </trkpt>
      <trkpt lat="45.93514" lon="-0.96269">
        <ele>12.4</ele>
        <time>2022-06-21T14:20:04Z</time>
      </trkpt>
      <trkpt lat="45.93514" lon="-0.96269">
        <ele>12.4</ele>
        <time>2022-06-21T14:20:05Z</time>
      </trkpt>
      <trkpt lat="45.93514" lon="-0.96269">
        <ele>12.4</ele>
        <time>2022-06-21T14:20:06Z</time>
      </trkpt>
      <trkpt lat="45.93514" lon="-0.96269">
        <ele>12.4</ele>
        <time>2022-06-21T14:20:07Z</time>
      </trkpt>
      <trkpt lat="45.93514" lon="-0.96269">
        <ele>12.4</ele>
        <time>2022-06-21T14:20:08Z</time>
      </trkpt>
      <trkpt lat="45.93514" lon="-0.96269">
        <ele>12.4</ele>
        <time>2022-06-21T14:20:09Z</time>
      </trkpt>
      <trkpt lat="45.93514" lon="-0.96269">
        <ele>12.4</ele>
        <time>2022-06-21T14:20:10Z</time>
      </trkpt>
      <trkpt lat="45.93514" lon="-0.96269">
        <ele>12.4</ele>
        <time>2022-06-21T14:20:11Z</time>
      </trkpt>
      <trkpt lat="45.93514" lon="-0.96269">
        <ele>12.4</ele>
        <time>2022-06-21T14:20:12Z</time>
      </trkpt>
      <trkpt lat="45.93514" lon="-0.96269">
        <ele>12.4</ele>
        <time>2022-06-21T14:20:13Z</time>
      </trkpt>
      <trkpt lat="45.93514" lon="-0.96269">
        <ele>12.4</ele>
        <time>2022-06-21T14:20:14Z</time>
      </trkpt>
      <trkpt lat="45.93514" lon="-0.96269">
        <ele>12.4</ele>
        <time>2022-06-21T14:20:15Z</time>
      </trkpt>
      <trkpt lat="45.93514" lon="-0.96269">
        <ele>12.4</ele>
        <time>2022-06-21T14:20:16Z</time>
      </trkpt>
      <trkpt lat="45.93514" lon="-0.96269">
        <ele>12.4</ele>
        <time>2022-06-21T14:20:17Z</time>
      </trkpt>
      <trkpt lat="45.93514" lon="-0.96269">
        <ele>12.4</ele>
        <time>2022-06-21T14:20:18Z</time>
      </trkpt>
      <trkpt lat="45.93514" lon="-0.96269">
        <ele>12.4</ele>
        <time>2022-06-21T14:20:19Z</time>
      </trkpt>
      <trkpt lat="45.93514" lon="-0.96269">
        <ele>12.4</ele>
        <time>2022-06-21T14:20:20Z</time>
      </trkpt>
      <trkpt lat="45.93514" lon="-0.96269">
        <ele>12.4</ele>
        <time>2022-06-21T14:20:21Z</time>
      </trkpt>
      <trkpt lat="45.93514" lon="-0.96269">
        <ele>12.4</ele>
        <time>2022-06-21T14:20:22Z</time>
      </trkpt>
      <trkpt lat="45.93514" lon="-0.96269">
        <ele>12.4</ele>
        <time>2022-06-21T14:20:23Z</time>
      </trkpt>
      <trkpt lat="45.93514" lon="-0.96269">
        <ele>12.4</ele>
        <time>2022-06-21T14:20:24Z</time>
      </trkpt>
      <trkpt lat="45.93514" lon="-0.96269">
        <ele>12.4</ele>
        <time>2022-06-21T14:20:25Z</time>
      </trkpt>
      <trkpt lat="45.93514" lon="-0.96269">
        <ele>12.4</ele>
        <time>2022-06-21T14:20:26Z</time>
      </trkpt>
      <trkpt lat="45.93514" lon="-0.96269">
        <ele>12.4</ele>
        <time>2022-06-21T14:20:27Z</time>
      </trkpt>
      <trkpt lat="45.93514" lon="-0.96269">
        <ele>12.4</ele>
        <time>2022-06-21T14:20:28Z</time>
      </trkpt>
      <trkpt lat="45.93514" lon="-0.96269">
        <ele>12.4</ele>
        <time>2022-06-21T14:20:29Z</time>
      </trkpt>
      <trkpt lat="45.93514" lon="-0.96269">
        <ele>12.4</ele>
        <time>2022-06-21T14:20:30Z</time>
      </trkpt>
      <trkpt lat="45.93514" lon="-0.96269">
        <ele>12.4</ele>
        <time>2022-06-21T14:20:31Z</time>
      </trkpt>
      <trkpt lat="45.93514" lon="-0.96269">
        <ele>12.4</ele>
        <time>2022-06-21T14:20:32Z</time>
      </trkpt>
      <trkpt lat="45.93514" lon="-0.96269">
        <ele>12.4</ele>
        <time>2022-06-21T14:20:33Z</time>
      </trkpt>
      <trkpt lat="45.93514" lon="-0.96269">
        <ele>12.4</ele>
        <time>2022-06-21T14:20:34Z</time>
      </trkpt>
      <trkpt lat="45.93514" lon="-0.96269">
        <ele>12.4</ele>
        <time>2022-06-21T14:20:35Z</time>
      </trkpt>
      <trkpt lat="45.93514" lon="-0.96269">
        <ele>12.4</ele>
        <time>2022-06-21T14:20:36Z</time>
      </trkpt>
      <trkpt lat="45.93514" lon="-0.96269">
        <ele>12.4</ele>
        <time>2022-06-21T14:20:37Z</time>
      </trkpt>
      <trkpt lat="45.93514" lon="-0.96269">
        <ele>12.4</ele>
        <time>2022-06-21T14:20:38Z</time>
      </trkpt>
      <trkpt lat="45.93514" lon="-0.96269">
        <ele>12.4</ele>
        <time>2022-06-21T14:20:39Z</time>
      </trkpt>
      <trkpt lat="45.93514" lon="-0.96269">
        <ele>12.4</ele>
        <time>2022-06-21T14:20:40Z</time>
      </trkpt>
      <trkpt lat="45.93514" lon="-0.96269">
        <ele>12.4</ele>
        <time>2022-06-21T14:20:41Z</time>
      </trkpt>
      <trkpt lat="45.93514" lon="-0.96269">
        <ele>12.4</ele>
        <time>2022-06-21T14:20:42Z</time>
      </trkpt>
      <trkpt lat="45.93514" lon="-0.96269">
        <ele>12.4</ele>
        <time>2022-06-21T14:20:43Z</time>
      </trkpt>
      <trkpt lat="45.93514" lon="-0.96269">
        <ele>12.4</ele>
        <time>2022-06-21T14:20:44Z</time>
      </trkpt>
      <trkpt lat="45.93514" lon="-0.96269">
        <ele>12.4</ele>
        <time>2022-06-21T14:20:45Z</time>
      </trkpt>
      <trkpt lat="45.93514" lon="-0.96269">
        <ele>12.4</ele>
        <time>2022-06-21T14:20:46Z</time>
      </trkpt>
      <trkpt lat="45.93514" lon="-0.96269">
        <ele>12.4</ele>
        <time>2022-06-21T14:20:47Z</time>
      </trkpt>
      <trkpt lat="45.93514" lon="-0.96269">
        <ele>12.4</ele>
        <time>2022-06-21T14:20:48Z</time>
      </trkpt>
      <trkpt lat="45.93514" lon="-0.96269">
        <ele>12.4</ele>
        <time>2022-06-21T14:20:49Z</time>
      </trkpt>
      <trkpt lat="45.93514" lon="-0.96269">
        <ele>12.4</ele>
        <time>2022-06-21T14:20:50Z</time>
      </trkpt>
      <trkpt lat="45.93514" lon="-0.96269">
        <ele>12.4</ele>
        <time>2022-06-21T14:20:51Z</time>
      </trkpt>
      <trkpt lat="45.93514" lon="-0.96269">
        <ele>12.4</ele>
        <time>2022-06-21T14:20:52Z</time>
      </trkpt>
      <trkpt lat="45.93514" lon="-0.96269">
        <ele>12.4</ele>
        <time>2022-06-21T14:20:53Z</time>
      </trkpt>
      <trkpt lat="45.93514" lon="-0.96269">
        <ele>12.4</ele>
        <time>2022-06-21T14:20:54Z</time>
      </trkpt>
      <trkpt lat="45.93514" lon="-0.96269">
        <ele>12.4</ele>
        <time>2022-06-21T14:20:55Z</time>
      </trkpt>
      <trkpt lat="45.93514" lon="-0.96269">
        <ele>12.4</ele>
        <time>2022-06-21T14:20:56Z</time>
      </trkpt>
      <trkpt lat="45.93514" lon="-0.96269">
        <ele>12.4</ele>
        <time>2022-06-21T14:20:57Z</time>
      </trkpt>
      <trkpt lat="45.93514" lon="-0.96269">
        <ele>12.4</ele>
        <time>2022-06-21T14:20:58Z</time>
      </trkpt>
      <trkpt lat="45.93514" lon="-0.96269">
        <ele>12.4</ele>
        <time>2022-06-21T14:20:59Z</time>
      </trkpt>
      <trkpt lat="45.93514" lon="-0.96269">
        <ele>12.4</ele>
        <time>2022-06-21T14:21:00Z</time>
      </trkpt>
      <trkpt lat="45.93514" lon="-0.96269">
        <ele>12.4</ele>
        <time>2022-06-21T14:21:01Z</time>
      </trkpt>
      <trkpt lat="45.93514" lon="-0.96269">
        <ele>12.4</ele>
        <time>2022-06-21T14:21:02Z</time>
      </trkpt>
      <trkpt lat="45.93514" lon="-0.96269">
        <ele>12.4</ele>
        <time>2022-06-21T14:21:03Z</time>
      </trkpt>
      <trkpt lat="45.93514" lon="-0.96269">
        <ele>12.4</ele>
        <time>2022-06-21T14:21:04Z</time>
      </trkpt>
      <trkpt lat="45.93514" lon="-0.96269">
        <ele>12.4</ele>
        <time>2022-06-21T14:21:05Z</time>
      </trkpt>
      <trkpt lat="45.93514" lon="-0.96269">
        <ele>12.4</ele>
        <time>2022-06-21T14:21:06Z</time>
      </trkpt>
      <trkpt lat="45.93514" lon="-0.96269">
        <ele>12.4</ele>
        <time>2022-06-21T14:21:07Z</time>
      </trkpt>
      <trkpt lat="45.93514" lon="-0.96269">
        <ele>12.4</ele>
        <time>2022-06-21T14:21:08Z</time>
      </trkpt>
      <trkpt lat="45.93514" lon="-0.96269">
        <ele>12.4</ele>
        <time>2022-06-21T14:21:09Z</time>
      </trkpt>
      <trkpt lat="45.93514" lon="-0.96269">
        <ele>12.4</ele>
        <time>2022-06-21T14:21:10Z</time>
      </trkpt>
      <trkpt lat="45.93514" lon="-0.96269">
        <ele>12.4</ele>
        <time>2022-06-21T14:21:11Z</time>
      </trkpt>
      <trkpt lat="45.93514" lon="-0.96269">
        <ele>12.4</ele>
        <time>2022-06-21T14:21:12Z</time>
      </trkpt>
      <trkpt lat="45.93514" lon="-0.96269">
        <ele>12.4</ele>
        <time>2022-06-21T14:21:13Z</time>
      </trkpt>
      <trkpt lat="45.93514" lon="-0.96269">
        <ele>12.4</ele>
        <time>2022-06-21T14:21:14Z</time>
      </trkpt>
      <trkpt lat="45.93514" lon="-0.96269">
        <ele>12.4</ele>
        <time>2022-06-21T14:21:15Z</time>
      </trkpt>
      <trkpt lat="45.93514" lon="-0.96269">
        <ele>12.4</ele>
        <time>2022-06-21T14:21:16Z</time>
      </trkpt>
      <trkpt lat="45.93514" lon="-0.96269">
        <ele>12.4</ele>
        <time>2022-06-21T14:21:17Z</time>
      </trkpt>
      <trkpt lat="45.93514" lon="-0.96269">
        <ele>12.4</ele>
        <time>2022-06-21T14:21:18Z</time>
      </trkpt>
      <trkpt lat="45.93514" lon="-0.96269">
        <ele>12.4</ele>
        <time>2022-06-21T14:21:19Z</time>
      </trkpt>
      <trkpt lat="45.93514" lon="-0.96269">
        <ele>12.4</ele>
        <time>2022-06-21T14:21:20Z</time>
      </trkpt>
      <trkpt lat="45.93514" lon="-0.96269">
        <ele>12.4</ele>
        <time>2022-06-21T14:21:21Z</time>
      </trkpt>
      <trkpt lat="45.93514" lon="-0.96269">
        <ele>12.4</ele>
        <time>2022-06-21T14:21:22Z</time>
      </trkpt>
      <trkpt lat="45.93514" lon="-0.96269">
        <ele>12.4</ele>
        <time>2022-06-21T14:21:23Z</time>
      </trkpt>
      <trkpt lat="45.93514" lon="-0.96269">
        <ele>12.4</ele>
        <time>2022-06-21T14:21:24Z</time>
      </trkpt>
      <trkpt lat="45.93514" lon="-0.96269">
        <ele>12.4</ele>
        <time>2022-06-21T14:21:25Z</time>
      </trkpt>
      <trkpt lat="45.93514" lon="-0.96269">
        <ele>12.4</ele>
        <time>2022-06-21T14:21:26Z</time>
      </trkpt>
      <trkpt lat="45.93514" lon="-0.96269">
        <ele>12.4</ele>
        <time>2022-06-21T14:21:27Z</time>
      </trkpt>
      <trkpt lat="45.93514" lon="-0.96269">
        <ele>12.4</ele>
        <time>2022-06-21T14:21:28Z</time>
      </trkpt>
      <trkpt lat="45.93514" lon="-0.96269">
        <ele>12.4</ele>
        <time>2022-06-21T14:21:29Z</time>
      </trkpt>
      <trkpt lat="45.93514" lon="-0.96269">
        <ele>12.4</ele>
        <time>2022-06-21T14:21:30Z</time>
      </trkpt>
      <trkpt lat="45.93514" lon="-0.96269">
        <ele>12.4</ele>
        <time>2022-06-21T14:21:31Z</time>
      </trkpt>
      <trkpt lat="45.93514" lon="-0.96269">
        <ele>12.4</ele>
        <time>2022-06-21T14:21:32Z</time>
      </trkpt>
      <trkpt lat="45.93514" lon="-0.96269">
        <ele>12.4</ele>
        <time>2022-06-21T14:21:33Z</time>
      </trkpt>
      <trkpt lat="45.93514" lon="-0.96269">
        <ele>12.4</ele>
        <time>2022-06-21T14:21:34Z</time>
      </trkpt>
      <trkpt lat="45.93514" lon="-0.96269">
        <ele>12.4</ele>
        <time>2022-06-21T14:21:35Z</time>
      </trkpt>
      <trkpt lat="45.93514" lon="-0.96269">
        <ele>12.4</ele>
        <time>2022-06-21T14:21:36Z</time>
      </trkpt>
      <trkpt lat="45.93514" lon="-0.96269">
        <ele>12.4</ele>
        <time>2022-06-21T14:21:37Z</time>
      </trkpt>
      <trkpt lat="45.93514" lon="-0.96269">
        <ele>12.4</ele>
        <time>2022-06-21T14:21:38Z</time>
      </trkpt>
      <trkpt lat="45.93514" lon="-0.96269">
        <ele>12.4</ele>
        <time>2022-06-21T14:21:39Z</time>
      </trkpt>
      <trkpt lat="45.93514" lon="-0.96268">
        <ele>12.4</ele>
        <time>2022-06-21T14:21:40Z</time>
      </trkpt>
      <trkpt lat="45.93513" lon="-0.96267">
        <ele>12.4</ele>
        <time>2022-06-21T14:21:41Z</time>
      </trkpt>
      <trkpt lat="45.93512" lon="-0.96265">
        <ele>12.5</ele>
        <time>2022-06-21T14:21:42Z</time>
      </trkpt>
      <trkpt lat="45.93512" lon="-0.96264">
        <ele>12.5</ele>
        <time>2022-06-21T14:21:44Z</time>
      </trkpt>
      <trkpt lat="45.9351" lon="-0.9626">
        <ele>12.5</ele>
        <time>2022-06-21T14:21:46Z</time>
      </trkpt>
      <trkpt lat="45.9351" lon="-0.96259">
        <ele>12.5</ele>
        <time>2022-06-21T14:21:47Z</time>
      </trkpt>
      <trkpt lat="45.93509" lon="-0.96258">
        <ele>12.5</ele>
        <time>2022-06-21T14:21:48Z</time>
      </trkpt>
      <trkpt lat="45.93509" lon="-0.96257">
        <ele>12.5</ele>
        <time>2022-06-21T14:21:49Z</time>
      </trkpt>
      <trkpt lat="45.93509" lon="-0.96256">
        <ele>12.5</ele>
        <time>2022-06-21T14:21:50Z</time>
      </trkpt>
      <trkpt lat="45.93509" lon="-0.96254">
        <ele>12.5</ele>
        <time>2022-06-21T14:21:51Z</time>
      </trkpt>
      <trkpt lat="45.93509" lon="-0.96254">
        <ele>12.5</ele>
        <time>2022-06-21T14:21:52Z</time>
      </trkpt>
      <trkpt lat="45.93509" lon="-0.96254">
        <ele>12.5</ele>
        <time>2022-06-21T14:21:53Z</time>
      </trkpt>
      <trkpt lat="45.93509" lon="-0.96254">
        <ele>12.5</ele>
        <time>2022-06-21T14:21:54Z</time>
      </trkpt>
      <trkpt lat="45.93508" lon="-0.96253">
        <ele>12.5</ele>
        <time>2022-06-21T14:21:56Z</time>
      </trkpt>
      <trkpt lat="45.93508" lon="-0.96252">
        <ele>12.5</ele>
        <time>2022-06-21T14:21:57Z</time>
      </trkpt>
      <trkpt lat="45.93508" lon="-0.96252">
        <ele>12.5</ele>
        <time>2022-06-21T14:21:58Z</time>
      </trkpt>
      <trkpt lat="45.93508" lon="-0.96251">
        <ele>12.5</ele>
        <time>2022-06-21T14:21:59Z</time>
      </trkpt>
      <trkpt lat="45.93508" lon="-0.96251">
        <ele>12.5</ele>
        <time>2022-06-21T14:22:00Z</time>
      </trkpt>
      <trkpt lat="45.93507" lon="-0.9625">
        <ele>12.5</ele>
        <time>2022-06-21T14:22:01Z</time>
      </trkpt>
      <trkpt lat="45.93507" lon="-0.9625">
        <ele>12.5</ele>
        <time>2022-06-21T14:22:02Z</time>
      </trkpt>
      <trkpt lat="45.93507" lon="-0.9625">
        <ele>12.5</ele>
        <time>2022-06-21T14:22:03Z</time>
      </trkpt>
      <trkpt lat="45.93508" lon="-0.9625">
        <ele>12.5</ele>
        <time>2022-06-21T14:22:04Z</time>
      </trkpt>
      <trkpt lat="45.93508" lon="-0.9625">
        <ele>12.5</ele>
        <time>2022-06-21T14:22:05Z</time>
      </trkpt>
      <trkpt lat="45.93508" lon="-0.96249">
        <ele>12.5</ele>
        <time>2022-06-21T14:22:06Z</time>
      </trkpt>
      <trkpt lat="45.93508" lon="-0.96249">
        <ele>12.5</ele>
        <time>2022-06-21T14:22:07Z</time>
      </trkpt>
      <trkpt lat="45.93508" lon="-0.96249">
        <ele>12.5</ele>
        <time>2022-06-21T14:22:08Z</time>
      </trkpt>
      <trkpt lat="45.93507" lon="-0.96248">
        <ele>12.5</ele>
        <time>2022-06-21T14:22:09Z</time>
      </trkpt>
      <trkpt lat="45.93507" lon="-0.96248">
        <ele>12.5</ele>
        <time>2022-06-21T14:22:10Z</time>
      </trkpt>
      <trkpt lat="45.93506" lon="-0.96248">
        <ele>12.5</ele>
        <time>2022-06-21T14:22:11Z</time>
      </trkpt>
      <trkpt lat="45.93505" lon="-0.96248">
        <ele>12.5</ele>
        <time>2022-06-21T14:22:12Z</time>
      </trkpt>
      <trkpt lat="45.93505" lon="-0.96248">
        <ele>12.5</ele>
        <time>2022-06-21T14:22:13Z</time>
      </trkpt>
      <trkpt lat="45.93504" lon="-0.96248">
        <ele>12.5</ele>
        <time>2022-06-21T14:22:14Z</time>
      </trkpt>
      <trkpt lat="45.93504" lon="-0.96248">
        <ele>12.4</ele>
        <time>2022-06-21T14:22:16Z</time>
      </trkpt>
      <trkpt lat="45.93503" lon="-0.96248">
        <ele>12.4</ele>
        <time>2022-06-21T14:22:18Z</time>
      </trkpt>
      <trkpt lat="45.93502" lon="-0.96248">
        <ele>12.4</ele>
        <time>2022-06-21T14:22:19Z</time>
      </trkpt>
      <trkpt lat="45.93502" lon="-0.96248">
        <ele>12.4</ele>
        <time>2022-06-21T14:22:20Z</time>
      </trkpt>
      <trkpt lat="45.93501" lon="-0.96248">
        <ele>12.4</ele>
        <time>2022-06-21T14:22:21Z</time>
      </trkpt>
      <trkpt lat="45.935" lon="-0.96248">
        <ele>12.4</ele>
        <time>2022-06-21T14:22:23Z</time>
      </trkpt>
      <trkpt lat="45.93499" lon="-0.96248">
        <ele>12.4</ele>
        <time>2022-06-21T14:22:24Z</time>
      </trkpt>
      <trkpt lat="45.93498" lon="-0.96249">
        <ele>12.4</ele>
        <time>2022-06-21T14:22:25Z</time>
      </trkpt>
      <trkpt lat="45.93497" lon="-0.96249">
        <ele>12.4</ele>
        <time>2022-06-21T14:22:26Z</time>
      </trkpt>
      <trkpt lat="45.93496" lon="-0.9625">
        <ele>12.4</ele>
        <time>2022-06-21T14:22:27Z</time>
      </trkpt>
      <trkpt lat="45.93495" lon="-0.9625">
        <ele>12.4</ele>
        <time>2022-06-21T14:22:28Z</time>
      </trkpt>
      <trkpt lat="45.93494" lon="-0.9625">
        <ele>12.4</ele>
        <time>2022-06-21T14:22:29Z</time>
      </trkpt>
      <trkpt lat="45.93493" lon="-0.9625">
        <ele>12.4</ele>
        <time>2022-06-21T14:22:31Z</time>
      </trkpt>
      <trkpt lat="45.93495" lon="-0.96251">
        <ele>12.4</ele>
        <time>2022-06-21T14:22:32Z</time>
      </trkpt>
      <trkpt lat="45.93496" lon="-0.96252">
        <ele>12.4</ele>
        <time>2022-06-21T14:22:33Z</time>
      </trkpt>
      <trkpt lat="45.93496" lon="-0.96252">
        <ele>12.4</ele>
        <time>2022-06-21T14:22:34Z</time>
      </trkpt>
      <trkpt lat="45.93496" lon="-0.96252">
        <ele>12.4</ele>
        <time>2022-06-21T14:22:35Z</time>
      </trkpt>
      <trkpt lat="45.93495" lon="-0.96251">
        <ele>12.4</ele>
        <time>2022-06-21T14:22:37Z</time>
      </trkpt>
      <trkpt lat="45.93494" lon="-0.9625">
        <ele>12.4</ele>
        <time>2022-06-21T14:22:38Z</time>
      </trkpt>
      <trkpt lat="45.93494" lon="-0.96249">
        <ele>12.4</ele>
        <time>2022-06-21T14:22:39Z</time>
      </trkpt>
      <trkpt lat="45.93493" lon="-0.96248">
        <ele>12.4</ele>
        <time>2022-06-21T14:22:40Z</time>
      </trkpt>
      <trkpt lat="45.93492" lon="-0.96248">
        <ele>12.4</ele>
        <time>2022-06-21T14:22:41Z</time>
      </trkpt>
      <trkpt lat="45.93492" lon="-0.96249">
        <ele>12.4</ele>
        <time>2022-06-21T14:22:42Z</time>
      </trkpt>
      <trkpt lat="45.93492" lon="-0.96249">
        <ele>12.4</ele>
        <time>2022-06-21T14:22:43Z</time>
      </trkpt>
      <trkpt lat="45.93492" lon="-0.96249">
        <ele>12.4</ele>
        <time>2022-06-21T14:22:44Z</time>
      </trkpt>
      <trkpt lat="45.93494" lon="-0.96249">
        <ele>12.4</ele>
        <time>2022-06-21T14:22:46Z</time>
      </trkpt>
      <trkpt lat="45.93494" lon="-0.96249">
        <ele>12.4</ele>
        <time>2022-06-21T14:22:47Z</time>
      </trkpt>
      <trkpt lat="45.93495" lon="-0.96249">
        <ele>12.4</ele>
        <time>2022-06-21T14:22:48Z</time>
      </trkpt>
      <trkpt lat="45.93495" lon="-0.96248">
        <ele>12.4</ele>
        <time>2022-06-21T14:22:49Z</time>
      </trkpt>
      <trkpt lat="45.93495" lon="-0.96247">
        <ele>12.4</ele>
        <time>2022-06-21T14:22:50Z</time>
      </trkpt>
      <trkpt lat="45.93495" lon="-0.96246">
        <ele>12.4</ele>
        <time>2022-06-21T14:22:51Z</time>
      </trkpt>
      <trkpt lat="45.93494" lon="-0.96245">
        <ele>12.4</ele>
        <time>2022-06-21T14:22:52Z</time>
      </trkpt>
      <trkpt lat="45.93494" lon="-0.96244">
        <ele>12.4</ele>
        <time>2022-06-21T14:22:54Z</time>
      </trkpt>
      <trkpt lat="45.93494" lon="-0.96242">
        <ele>12.4</ele>
        <time>2022-06-21T14:22:55Z</time>
      </trkpt>
      <trkpt lat="45.93494" lon="-0.96238">
        <ele>12.4</ele>
        <time>2022-06-21T14:22:56Z</time>
      </trkpt>
      <trkpt lat="45.93494" lon="-0.96234">
        <ele>12.4</ele>
        <time>2022-06-21T14:22:57Z</time>
      </trkpt>
      <trkpt lat="45.93494" lon="-0.96233">
        <ele>12.3</ele>
        <time>2022-06-21T14:22:58Z</time>
      </trkpt>
      <trkpt lat="45.93494" lon="-0.96229">
        <ele>12.3</ele>
        <time>2022-06-21T14:22:59Z</time>
      </trkpt>
      <trkpt lat="45.93494" lon="-0.96228">
        <ele>12.3</ele>
        <time>2022-06-21T14:23:01Z</time>
      </trkpt>
      <trkpt lat="45.93494" lon="-0.96226">
        <ele>12.3</ele>
        <time>2022-06-21T14:23:02Z</time>
      </trkpt>
      <trkpt lat="45.93494" lon="-0.96225">
        <ele>12.3</ele>
        <time>2022-06-21T14:23:03Z</time>
      </trkpt>
      <trkpt lat="45.93494" lon="-0.96223">
        <ele>12.3</ele>
        <time>2022-06-21T14:23:04Z</time>
      </trkpt>
      <trkpt lat="45.93494" lon="-0.96221">
        <ele>12.3</ele>
        <time>2022-06-21T14:23:05Z</time>
      </trkpt>
      <trkpt lat="45.93494" lon="-0.9622">
        <ele>12.3</ele>
        <time>2022-06-21T14:23:07Z</time>
      </trkpt>
      <trkpt lat="45.93494" lon="-0.9622">
        <ele>12.3</ele>
        <time>2022-06-21T14:23:08Z</time>
      </trkpt>
      <trkpt lat="45.93494" lon="-0.96219">
        <ele>12.3</ele>
        <time>2022-06-21T14:23:09Z</time>
      </trkpt>
      <trkpt lat="45.93494" lon="-0.96219">
        <ele>12.3</ele>
        <time>2022-06-21T14:23:10Z</time>
      </trkpt>
      <trkpt lat="45.93494" lon="-0.96218">
        <ele>12.3</ele>
        <time>2022-06-21T14:23:11Z</time>
      </trkpt>
      <trkpt lat="45.93494" lon="-0.96218">
        <ele>12.3</ele>
        <time>2022-06-21T14:23:12Z</time>
      </trkpt>
      <trkpt lat="45.93494" lon="-0.96215">
        <ele>12.3</ele>
        <time>2022-06-21T14:23:13Z</time>
      </trkpt>
      <trkpt lat="45.93494" lon="-0.96213">
        <ele>12.3</ele>
        <time>2022-06-21T14:23:14Z</time>
      </trkpt>
      <trkpt lat="45.93494" lon="-0.96211">
        <ele>12.3</ele>
        <time>2022-06-21T14:23:16Z</time>
      </trkpt>
      <trkpt lat="45.93495" lon="-0.96208">
        <ele>12.3</ele>
        <time>2022-06-21T14:23:17Z</time>
      </trkpt>
      <trkpt lat="45.93495" lon="-0.96207">
        <ele>12.3</ele>
        <time>2022-06-21T14:23:18Z</time>
      </trkpt>
      <trkpt lat="45.93495" lon="-0.96206">
        <ele>12.3</ele>
        <time>2022-06-21T14:23:19Z</time>
      </trkpt>
      <trkpt lat="45.93496" lon="-0.96204">
        <ele>12.2</ele>
        <time>2022-06-21T14:23:20Z</time>
      </trkpt>
      <trkpt lat="45.93496" lon="-0.96203">
        <ele>12.2</ele>
        <time>2022-06-21T14:23:21Z</time>
      </trkpt>
      <trkpt lat="45.93496" lon="-0.96201">
        <ele>12.2</ele>
        <time>2022-06-21T14:23:22Z</time>
      </trkpt>
      <trkpt lat="45.93496" lon="-0.96199">
        <ele>12.2</ele>
        <time>2022-06-21T14:23:24Z</time>
      </trkpt>
      <trkpt lat="45.93497" lon="-0.96197">
        <ele>12.2</ele>
        <time>2022-06-21T14:23:25Z</time>
      </trkpt>
      <trkpt lat="45.93497" lon="-0.96195">
        <ele>12.2</ele>
        <time>2022-06-21T14:23:26Z</time>
      </trkpt>
      <trkpt lat="45.93497" lon="-0.96194">
        <ele>12.2</ele>
        <time>2022-06-21T14:23:27Z</time>
      </trkpt>
      <trkpt lat="45.93498" lon="-0.96192">
        <ele>12.2</ele>
        <time>2022-06-21T14:23:28Z</time>
      </trkpt>
      <trkpt lat="45.93498" lon="-0.96191">
        <ele>12.2</ele>
        <time>2022-06-21T14:23:29Z</time>
      </trkpt>
      <trkpt lat="45.93497" lon="-0.96189">
        <ele>12.2</ele>
        <time>2022-06-21T14:23:30Z</time>
      </trkpt>
      <trkpt lat="45.93497" lon="-0.96187">
        <ele>12.2</ele>
        <time>2022-06-21T14:23:32Z</time>
      </trkpt>
      <trkpt lat="45.93497" lon="-0.96186">
        <ele>12.2</ele>
        <time>2022-06-21T14:23:33Z</time>
      </trkpt>
      <trkpt lat="45.93497" lon="-0.96184">
        <ele>12.2</ele>
        <time>2022-06-21T14:23:34Z</time>
      </trkpt>
      <trkpt lat="45.93498" lon="-0.96181">
        <ele>12.2</ele>
        <time>2022-06-21T14:23:35Z</time>
      </trkpt>
      <trkpt lat="45.93499" lon="-0.9618">
        <ele>12.2</ele>
        <time>2022-06-21T14:23:36Z</time>
      </trkpt>
      <trkpt lat="45.93499" lon="-0.96179">
        <ele>12.2</ele>
        <time>2022-06-21T14:23:37Z</time>
      </trkpt>
      <trkpt lat="45.935" lon="-0.96176">
        <ele>12.2</ele>
        <time>2022-06-21T14:23:38Z</time>
      </trkpt>
      <trkpt lat="45.935" lon="-0.96175">
        <ele>12.2</ele>
        <time>2022-06-21T14:23:39Z</time>
      </trkpt>
      <trkpt lat="45.935" lon="-0.96174">
        <ele>12.2</ele>
        <time>2022-06-21T14:23:40Z</time>
      </trkpt>
      <trkpt lat="45.935" lon="-0.96171">
        <ele>12.2</ele>
        <time>2022-06-21T14:23:41Z</time>
      </trkpt>
      <trkpt lat="45.93499" lon="-0.96168">
        <ele>12.2</ele>
        <time>2022-06-21T14:23:42Z</time>
      </trkpt>
      <trkpt lat="45.93499" lon="-0.96164">
        <ele>12.1</ele>
        <time>2022-06-21T14:23:43Z</time>
      </trkpt>
      <trkpt lat="45.93498" lon="-0.9616">
        <ele>12.1</ele>
        <time>2022-06-21T14:23:44Z</time>
      </trkpt>
      <trkpt lat="45.93498" lon="-0.96158">
        <ele>12.1</ele>
        <time>2022-06-21T14:23:45Z</time>
      </trkpt>
      <trkpt lat="45.93498" lon="-0.96156">
        <ele>12.1</ele>
        <time>2022-06-21T14:23:46Z</time>
      </trkpt>
      <trkpt lat="45.93497" lon="-0.96154">
        <ele>12.1</ele>
        <time>2022-06-21T14:23:48Z</time>
      </trkpt>
      <trkpt lat="45.93497" lon="-0.96153">
        <ele>12.1</ele>
        <time>2022-06-21T14:23:49Z</time>
      </trkpt>
      <trkpt lat="45.93496" lon="-0.96152">
        <ele>12.1</ele>
        <time>2022-06-21T14:23:50Z</time>
      </trkpt>
      <trkpt lat="45.93492" lon="-0.96152">
        <ele>12.3</ele>
        <time>2022-06-21T14:23:52Z</time>
      </trkpt>
      <trkpt lat="45.9349" lon="-0.96152">
        <ele>12.4</ele>
        <time>2022-06-21T14:23:53Z</time>
      </trkpt>
      <trkpt lat="45.93489" lon="-0.96153">
        <ele>12.5</ele>
        <time>2022-06-21T14:23:54Z</time>
      </trkpt>
      <trkpt lat="45.93486" lon="-0.96153">
        <ele>12.6</ele>
        <time>2022-06-21T14:23:55Z</time>
      </trkpt>
      <trkpt lat="45.93485" lon="-0.96153">
        <ele>12.7</ele>
        <time>2022-06-21T14:23:56Z</time>
      </trkpt>
      <trkpt lat="45.93483" lon="-0.96153">
        <ele>12.8</ele>
        <time>2022-06-21T14:23:57Z</time>
      </trkpt>
      <trkpt lat="45.93482" lon="-0.96153">
        <ele>12.8</ele>
        <time>2022-06-21T14:23:59Z</time>
      </trkpt>
      <trkpt lat="45.93482" lon="-0.96153">
        <ele>12.9</ele>
        <time>2022-06-21T14:24:00Z</time>
      </trkpt>
      <trkpt lat="45.93481" lon="-0.96154">
        <ele>12.9</ele>
        <time>2022-06-21T14:24:01Z</time>
      </trkpt>
      <trkpt lat="45.93475" lon="-0.96154">
        <ele>13.2</ele>
        <time>2022-06-21T14:24:02Z</time>
      </trkpt>
      <trkpt lat="45.93473" lon="-0.96155">
        <ele>13.3</ele>
        <time>2022-06-21T14:24:03Z</time>
      </trkpt>
      <trkpt lat="45.93472" lon="-0.96155">
        <ele>13.3</ele>
        <time>2022-06-21T14:24:04Z</time>
      </trkpt>
      <trkpt lat="45.93472" lon="-0.96155">
        <ele>13.4</ele>
        <time>2022-06-21T14:24:05Z</time>
      </trkpt>
      <trkpt lat="45.93467" lon="-0.96156">
        <ele>13.6</ele>
        <time>2022-06-21T14:24:07Z</time>
      </trkpt>
      <trkpt lat="45.93466" lon="-0.96156">
        <ele>13.6</ele>
        <time>2022-06-21T14:24:08Z</time>
      </trkpt>
      <trkpt lat="45.93464" lon="-0.96156">
        <ele>13.7</ele>
        <time>2022-06-21T14:24:09Z</time>
      </trkpt>
      <trkpt lat="45.93463" lon="-0.96156">
        <ele>13.8</ele>
        <time>2022-06-21T14:24:10Z</time>
      </trkpt>
      <trkpt lat="45.9346" lon="-0.96154">
        <ele>13.9</ele>
        <time>2022-06-21T14:24:11Z</time>
      </trkpt>
      <trkpt lat="45.93459" lon="-0.96152">
        <ele>14</ele>
        <time>2022-06-21T14:24:12Z</time>
      </trkpt>
      <trkpt lat="45.93457" lon="-0.96151">
        <ele>14.1</ele>
        <time>2022-06-21T14:24:13Z</time>
      </trkpt>
      <trkpt lat="45.93456" lon="-0.96151">
        <ele>14.2</ele>
        <time>2022-06-21T14:24:15Z</time>
      </trkpt>
      <trkpt lat="45.93455" lon="-0.96151">
        <ele>14.2</ele>
        <time>2022-06-21T14:24:16Z</time>
      </trkpt>
      <trkpt lat="45.93453" lon="-0.96149">
        <ele>14.3</ele>
        <time>2022-06-21T14:24:17Z</time>
      </trkpt>
      <trkpt lat="45.93451" lon="-0.96148">
        <ele>14.2</ele>
        <time>2022-06-21T14:24:19Z</time>
      </trkpt>
      <trkpt lat="45.9345" lon="-0.96148">
        <ele>14.2</ele>
        <time>2022-06-21T14:24:20Z</time>
      </trkpt>
      <trkpt lat="45.93449" lon="-0.96148">
        <ele>14.1</ele>
        <time>2022-06-21T14:24:21Z</time>
      </trkpt>
      <trkpt lat="45.93448" lon="-0.96148">
        <ele>14.1</ele>
        <time>2022-06-21T14:24:22Z</time>
      </trkpt>
      <trkpt lat="45.93447" lon="-0.96148">
        <ele>14</ele>
        <time>2022-06-21T14:24:23Z</time>
      </trkpt>
      <trkpt lat="45.93446" lon="-0.96148">
        <ele>14</ele>
        <time>2022-06-21T14:24:24Z</time>
      </trkpt>
      <trkpt lat="45.93445" lon="-0.96148">
        <ele>13.9</ele>
        <time>2022-06-21T14:24:25Z</time>
      </trkpt>
      <trkpt lat="45.93443" lon="-0.96153">
        <ele>13.7</ele>
        <time>2022-06-21T14:24:27Z</time>
      </trkpt>
      <trkpt lat="45.93442" lon="-0.96155">
        <ele>13.7</ele>
        <time>2022-06-21T14:24:28Z</time>
      </trkpt>
      <trkpt lat="45.93441" lon="-0.96155">
        <ele>13.6</ele>
        <time>2022-06-21T14:24:29Z</time>
      </trkpt>
      <trkpt lat="45.9344" lon="-0.96155">
        <ele>13.6</ele>
        <time>2022-06-21T14:24:30Z</time>
      </trkpt>
      <trkpt lat="45.93439" lon="-0.96155">
        <ele>13.6</ele>
        <time>2022-06-21T14:24:31Z</time>
      </trkpt>
      <trkpt lat="45.93437" lon="-0.96155">
        <ele>13.5</ele>
        <time>2022-06-21T14:24:32Z</time>
      </trkpt>
      <trkpt lat="45.93436" lon="-0.96155">
        <ele>13.4</ele>
        <time>2022-06-21T14:24:33Z</time>
      </trkpt>
      <trkpt lat="45.93435" lon="-0.96155">
        <ele>13.3</ele>
        <time>2022-06-21T14:24:35Z</time>
      </trkpt>
      <trkpt lat="45.93433" lon="-0.96155">
        <ele>13.3</ele>
        <time>2022-06-21T14:24:36Z</time>
      </trkpt>
      <trkpt lat="45.93432" lon="-0.96158">
        <ele>13.2</ele>
        <time>2022-06-21T14:24:37Z</time>
      </trkpt>
      <trkpt lat="45.93431" lon="-0.96159">
        <ele>13.1</ele>
        <time>2022-06-21T14:24:38Z</time>
      </trkpt>
      <trkpt lat="45.9343" lon="-0.96159">
        <ele>13.1</ele>
        <time>2022-06-21T14:24:39Z</time>
      </trkpt>
      <trkpt lat="45.93429" lon="-0.96158">
        <ele>13</ele>
        <time>2022-06-21T14:24:40Z</time>
      </trkpt>
      <trkpt lat="45.93427" lon="-0.96161">
        <ele>12.9</ele>
        <time>2022-06-21T14:24:42Z</time>
      </trkpt>
      <trkpt lat="45.93426" lon="-0.96162">
        <ele>12.8</ele>
        <time>2022-06-21T14:24:43Z</time>
      </trkpt>
      <trkpt lat="45.93425" lon="-0.96163">
        <ele>12.8</ele>
        <time>2022-06-21T14:24:44Z</time>
      </trkpt>
      <trkpt lat="45.93423" lon="-0.96163">
        <ele>12.8</ele>
        <time>2022-06-21T14:24:46Z</time>
      </trkpt>
      <trkpt lat="45.93422" lon="-0.96165">
        <ele>12.8</ele>
        <time>2022-06-21T14:24:47Z</time>
      </trkpt>
      <trkpt lat="45.93421" lon="-0.96165">
        <ele>12.9</ele>
        <time>2022-06-21T14:24:48Z</time>
      </trkpt>
      <trkpt lat="45.93421" lon="-0.96165">
        <ele>12.9</ele>
        <time>2022-06-21T14:24:49Z</time>
      </trkpt>
      <trkpt lat="45.9342" lon="-0.96164">
        <ele>12.9</ele>
        <time>2022-06-21T14:24:51Z</time>
      </trkpt>
      <trkpt lat="45.9342" lon="-0.96165">
        <ele>12.9</ele>
        <time>2022-06-21T14:24:53Z</time>
      </trkpt>
      <trkpt lat="45.93421" lon="-0.96166">
        <ele>12.9</ele>
        <time>2022-06-21T14:24:54Z</time>
      </trkpt>
      <trkpt lat="45.93421" lon="-0.96167">
        <ele>12.9</ele>
        <time>2022-06-21T14:24:55Z</time>
      </trkpt>
      <trkpt lat="45.93422" lon="-0.96167">
        <ele>12.9</ele>
        <time>2022-06-21T14:24:56Z</time>
      </trkpt>
      <trkpt lat="45.93422" lon="-0.96167">
        <ele>12.9</ele>
        <time>2022-06-21T14:24:57Z</time>
      </trkpt>
      <trkpt lat="45.93424" lon="-0.96166">
        <ele>12.9</ele>
        <time>2022-06-21T14:24:58Z</time>
      </trkpt>
      <trkpt lat="45.93424" lon="-0.96166">
        <ele>12.9</ele>
        <time>2022-06-21T14:24:59Z</time>
      </trkpt>
      <trkpt lat="45.93424" lon="-0.96166">
        <ele>12.9</ele>
        <time>2022-06-21T14:25:00Z</time>
      </trkpt>
      <trkpt lat="45.93424" lon="-0.96165">
        <ele>12.9</ele>
        <time>2022-06-21T14:25:01Z</time>
      </trkpt>
      <trkpt lat="45.93424" lon="-0.96165">
        <ele>12.9</ele>
        <time>2022-06-21T14:25:02Z</time>
      </trkpt>
      <trkpt lat="45.93425" lon="-0.96165">
        <ele>12.9</ele>
        <time>2022-06-21T14:25:03Z</time>
      </trkpt>
      <trkpt lat="45.93425" lon="-0.96165">
        <ele>12.9</ele>
        <time>2022-06-21T14:25:04Z</time>
      </trkpt>
      <trkpt lat="45.93425" lon="-0.96164">
        <ele>12.9</ele>
        <time>2022-06-21T14:25:05Z</time>
      </trkpt>
      <trkpt lat="45.93425" lon="-0.96164">
        <ele>12.9</ele>
        <time>2022-06-21T14:25:06Z</time>
      </trkpt>
      <trkpt lat="45.93425" lon="-0.96164">
        <ele>12.9</ele>
        <time>2022-06-21T14:25:07Z</time>
      </trkpt>
      <trkpt lat="45.93426" lon="-0.96163">
        <ele>12.9</ele>
        <time>2022-06-21T14:25:08Z</time>
      </trkpt>
      <trkpt lat="45.93426" lon="-0.96163">
        <ele>12.9</ele>
        <time>2022-06-21T14:25:09Z</time>
      </trkpt>
      <trkpt lat="45.93426" lon="-0.96163">
        <ele>12.9</ele>
        <time>2022-06-21T14:25:10Z</time>
      </trkpt>
      <trkpt lat="45.93426" lon="-0.96162">
        <ele>12.9</ele>
        <time>2022-06-21T14:25:11Z</time>
      </trkpt>
      <trkpt lat="45.93426" lon="-0.96163">
        <ele>12.9</ele>
        <time>2022-06-21T14:25:12Z</time>
      </trkpt>
      <trkpt lat="45.93426" lon="-0.96163">
        <ele>12.9</ele>
        <time>2022-06-21T14:25:13Z</time>
      </trkpt>
      <trkpt lat="45.93426" lon="-0.96164">
        <ele>12.9</ele>
        <time>2022-06-21T14:25:14Z</time>
      </trkpt>
      <trkpt lat="45.93426" lon="-0.96164">
        <ele>12.9</ele>
        <time>2022-06-21T14:25:15Z</time>
      </trkpt>
      <trkpt lat="45.93425" lon="-0.96165">
        <ele>12.9</ele>
        <time>2022-06-21T14:25:16Z</time>
      </trkpt>
      <trkpt lat="45.93425" lon="-0.96166">
        <ele>12.9</ele>
        <time>2022-06-21T14:25:17Z</time>
      </trkpt>
      <trkpt lat="45.93425" lon="-0.96166">
        <ele>12.9</ele>
        <time>2022-06-21T14:25:18Z</time>
      </trkpt>
      <trkpt lat="45.93425" lon="-0.96167">
        <ele>12.9</ele>
        <time>2022-06-21T14:25:19Z</time>
      </trkpt>
      <trkpt lat="45.93425" lon="-0.96167">
        <ele>12.9</ele>
        <time>2022-06-21T14:25:20Z</time>
      </trkpt>
      <trkpt lat="45.93425" lon="-0.96168">
        <ele>12.9</ele>
        <time>2022-06-21T14:25:21Z</time>
      </trkpt>
      <trkpt lat="45.93425" lon="-0.96168">
        <ele>12.9</ele>
        <time>2022-06-21T14:25:22Z</time>
      </trkpt>
      <trkpt lat="45.93425" lon="-0.96169">
        <ele>12.9</ele>
        <time>2022-06-21T14:25:23Z</time>
      </trkpt>
      <trkpt lat="45.93424" lon="-0.96169">
        <ele>12.9</ele>
        <time>2022-06-21T14:25:24Z</time>
      </trkpt>
      <trkpt lat="45.93424" lon="-0.9617">
        <ele>12.9</ele>
        <time>2022-06-21T14:25:25Z</time>
      </trkpt>
      <trkpt lat="45.93422" lon="-0.96171">
        <ele>12.9</ele>
        <time>2022-06-21T14:25:26Z</time>
      </trkpt>
      <trkpt lat="45.93421" lon="-0.96171">
        <ele>12.9</ele>
        <time>2022-06-21T14:25:28Z</time>
      </trkpt>
      <trkpt lat="45.93419" lon="-0.96171">
        <ele>12.9</ele>
        <time>2022-06-21T14:25:29Z</time>
      </trkpt>
      <trkpt lat="45.93418" lon="-0.96172">
        <ele>12.9</ele>
        <time>2022-06-21T14:25:30Z</time>
      </trkpt>
      <trkpt lat="45.93417" lon="-0.96172">
        <ele>12.9</ele>
        <time>2022-06-21T14:25:32Z</time>
      </trkpt>
      <trkpt lat="45.93415" lon="-0.96172">
        <ele>12.9</ele>
        <time>2022-06-21T14:25:33Z</time>
      </trkpt>
      <trkpt lat="45.93415" lon="-0.96171">
        <ele>12.9</ele>
        <time>2022-06-21T14:25:34Z</time>
      </trkpt>
      <trkpt lat="45.93414" lon="-0.96171">
        <ele>12.9</ele>
        <time>2022-06-21T14:25:35Z</time>
      </trkpt>
      <trkpt lat="45.93413" lon="-0.96171">
        <ele>12.9</ele>
        <time>2022-06-21T14:25:36Z</time>
      </trkpt>
      <trkpt lat="45.93414" lon="-0.96169">
        <ele>12.9</ele>
        <time>2022-06-21T14:25:38Z</time>
      </trkpt>
      <trkpt lat="45.93414" lon="-0.96169">
        <ele>12.9</ele>
        <time>2022-06-21T14:25:40Z</time>
      </trkpt>
      <trkpt lat="45.93413" lon="-0.96169">
        <ele>12.9</ele>
        <time>2022-06-21T14:25:41Z</time>
      </trkpt>
      <trkpt lat="45.93412" lon="-0.9617">
        <ele>12.9</ele>
        <time>2022-06-21T14:25:42Z</time>
      </trkpt>
      <trkpt lat="45.93413" lon="-0.96169">
        <ele>12.9</ele>
        <time>2022-06-21T14:25:43Z</time>
      </trkpt>
      <trkpt lat="45.93412" lon="-0.96169">
        <ele>12.9</ele>
        <time>2022-06-21T14:25:45Z</time>
      </trkpt>
      <trkpt lat="45.93412" lon="-0.9617">
        <ele>12.9</ele>
        <time>2022-06-21T14:25:46Z</time>
      </trkpt>
      <trkpt lat="45.9341" lon="-0.96171">
        <ele>12.9</ele>
        <time>2022-06-21T14:25:47Z</time>
      </trkpt>
      <trkpt lat="45.93408" lon="-0.96172">
        <ele>12.9</ele>
        <time>2022-06-21T14:25:48Z</time>
      </trkpt>
      <trkpt lat="45.93405" lon="-0.96173">
        <ele>12.9</ele>
        <time>2022-06-21T14:25:49Z</time>
      </trkpt>
      <trkpt lat="45.93403" lon="-0.96173">
        <ele>12.9</ele>
        <time>2022-06-21T14:25:51Z</time>
      </trkpt>
      <trkpt lat="45.93398" lon="-0.96175">
        <ele>12.9</ele>
        <time>2022-06-21T14:25:52Z</time>
      </trkpt>
      <trkpt lat="45.93395" lon="-0.96176">
        <ele>12.8</ele>
        <time>2022-06-21T14:25:53Z</time>
      </trkpt>
      <trkpt lat="45.93394" lon="-0.96176">
        <ele>12.8</ele>
        <time>2022-06-21T14:25:54Z</time>
      </trkpt>
      <trkpt lat="45.93392" lon="-0.96177">
        <ele>12.8</ele>
        <time>2022-06-21T14:25:56Z</time>
      </trkpt>
      <trkpt lat="45.93391" lon="-0.96177">
        <ele>12.8</ele>
        <time>2022-06-21T14:25:57Z</time>
      </trkpt>
      <trkpt lat="45.93389" lon="-0.96177">
        <ele>12.8</ele>
        <time>2022-06-21T14:25:58Z</time>
      </trkpt>
      <trkpt lat="45.93387" lon="-0.96178">
        <ele>12.8</ele>
        <time>2022-06-21T14:26:00Z</time>
      </trkpt>
      <trkpt lat="45.93387" lon="-0.96178">
        <ele>12.8</ele>
        <time>2022-06-21T14:26:01Z</time>
      </trkpt>
      <trkpt lat="45.93386" lon="-0.96178">
        <ele>12.8</ele>
        <time>2022-06-21T14:26:02Z</time>
      </trkpt>
      <trkpt lat="45.93386" lon="-0.96179">
        <ele>12.8</ele>
        <time>2022-06-21T14:26:03Z</time>
      </trkpt>
      <trkpt lat="45.93383" lon="-0.96179">
        <ele>12.8</ele>
        <time>2022-06-21T14:26:04Z</time>
      </trkpt>
      <trkpt lat="45.93382" lon="-0.9618">
        <ele>12.8</ele>
        <time>2022-06-21T14:26:05Z</time>
      </trkpt>
      <trkpt lat="45.93381" lon="-0.9618">
        <ele>12.8</ele>
        <time>2022-06-21T14:26:06Z</time>
      </trkpt>
      <trkpt lat="45.93379" lon="-0.9618">
        <ele>12.8</ele>
        <time>2022-06-21T14:26:08Z</time>
      </trkpt>
      <trkpt lat="45.93381" lon="-0.96179">
        <ele>12.8</ele>
        <time>2022-06-21T14:26:09Z</time>
      </trkpt>
      <trkpt lat="45.93382" lon="-0.96178">
        <ele>12.8</ele>
        <time>2022-06-21T14:26:10Z</time>
      </trkpt>
      <trkpt lat="45.93381" lon="-0.96179">
        <ele>12.8</ele>
        <time>2022-06-21T14:26:11Z</time>
      </trkpt>
      <trkpt lat="45.93379" lon="-0.96179">
        <ele>12.8</ele>
        <time>2022-06-21T14:26:12Z</time>
      </trkpt>
      <trkpt lat="45.93378" lon="-0.9618">
        <ele>12.7</ele>
        <time>2022-06-21T14:26:13Z</time>
      </trkpt>
      <trkpt lat="45.93376" lon="-0.9618">
        <ele>12.7</ele>
        <time>2022-06-21T14:26:14Z</time>
      </trkpt>
      <trkpt lat="45.93375" lon="-0.96181">
        <ele>12.7</ele>
        <time>2022-06-21T14:26:15Z</time>
      </trkpt>
      <trkpt lat="45.93373" lon="-0.96181">
        <ele>12.7</ele>
        <time>2022-06-21T14:26:17Z</time>
      </trkpt>
      <trkpt lat="45.93372" lon="-0.96181">
        <ele>12.7</ele>
        <time>2022-06-21T14:26:18Z</time>
      </trkpt>
      <trkpt lat="45.93369" lon="-0.96182">
        <ele>12.7</ele>
        <time>2022-06-21T14:26:19Z</time>
      </trkpt>
      <trkpt lat="45.93367" lon="-0.96183">
        <ele>12.7</ele>
        <time>2022-06-21T14:26:20Z</time>
      </trkpt>
      <trkpt lat="45.93366" lon="-0.96183">
        <ele>12.7</ele>
        <time>2022-06-21T14:26:21Z</time>
      </trkpt>
      <trkpt lat="45.93365" lon="-0.96183">
        <ele>12.7</ele>
        <time>2022-06-21T14:26:22Z</time>
      </trkpt>
      <trkpt lat="45.93362" lon="-0.96184">
        <ele>12.7</ele>
        <time>2022-06-21T14:26:23Z</time>
      </trkpt>
      <trkpt lat="45.9336" lon="-0.96184">
        <ele>12.6</ele>
        <time>2022-06-21T14:26:24Z</time>
      </trkpt>
      <trkpt lat="45.93359" lon="-0.96185">
        <ele>12.6</ele>
        <time>2022-06-21T14:26:26Z</time>
      </trkpt>
      <trkpt lat="45.93358" lon="-0.96185">
        <ele>12.6</ele>
        <time>2022-06-21T14:26:27Z</time>
      </trkpt>
      <trkpt lat="45.93357" lon="-0.96185">
        <ele>12.6</ele>
        <time>2022-06-21T14:26:28Z</time>
      </trkpt>
      <trkpt lat="45.93355" lon="-0.96186">
        <ele>12.6</ele>
        <time>2022-06-21T14:26:29Z</time>
      </trkpt>
      <trkpt lat="45.93354" lon="-0.96186">
        <ele>12.6</ele>
        <time>2022-06-21T14:26:31Z</time>
      </trkpt>
      <trkpt lat="45.93352" lon="-0.96186">
        <ele>12.6</ele>
        <time>2022-06-21T14:26:32Z</time>
      </trkpt>
      <trkpt lat="45.93351" lon="-0.96186">
        <ele>12.6</ele>
        <time>2022-06-21T14:26:33Z</time>
      </trkpt>
      <trkpt lat="45.93352" lon="-0.96185">
        <ele>12.6</ele>
        <time>2022-06-21T14:26:34Z</time>
      </trkpt>
      <trkpt lat="45.93351" lon="-0.96184">
        <ele>12.6</ele>
        <time>2022-06-21T14:26:35Z</time>
      </trkpt>
      <trkpt lat="45.9335" lon="-0.96183">
        <ele>12.6</ele>
        <time>2022-06-21T14:26:36Z</time>
      </trkpt>
      <trkpt lat="45.93349" lon="-0.96183">
        <ele>12.6</ele>
        <time>2022-06-21T14:26:38Z</time>
      </trkpt>
      <trkpt lat="45.9335" lon="-0.96181">
        <ele>12.6</ele>
        <time>2022-06-21T14:26:39Z</time>
      </trkpt>
      <trkpt lat="45.9335" lon="-0.96182">
        <ele>12.6</ele>
        <time>2022-06-21T14:26:40Z</time>
      </trkpt>
      <trkpt lat="45.93349" lon="-0.96183">
        <ele>12.6</ele>
        <time>2022-06-21T14:26:42Z</time>
      </trkpt>
      <trkpt lat="45.93347" lon="-0.96184">
        <ele>12.6</ele>
        <time>2022-06-21T14:26:43Z</time>
      </trkpt>
      <trkpt lat="45.93341" lon="-0.96185">
        <ele>12.6</ele>
        <time>2022-06-21T14:26:44Z</time>
      </trkpt>
      <trkpt lat="45.93339" lon="-0.96186">
        <ele>12.6</ele>
        <time>2022-06-21T14:26:45Z</time>
      </trkpt>
      <trkpt lat="45.93337" lon="-0.96186">
        <ele>12.6</ele>
        <time>2022-06-21T14:26:46Z</time>
      </trkpt>
      <trkpt lat="45.93336" lon="-0.96186">
        <ele>12.6</ele>
        <time>2022-06-21T14:26:47Z</time>
      </trkpt>
      <trkpt lat="45.93332" lon="-0.96186">
        <ele>12.5</ele>
        <time>2022-06-21T14:26:48Z</time>
      </trkpt>
      <trkpt lat="45.93331" lon="-0.96185">
        <ele>12.5</ele>
        <time>2022-06-21T14:26:49Z</time>
      </trkpt>
      <trkpt lat="45.9333" lon="-0.96185">
        <ele>12.5</ele>
        <time>2022-06-21T14:26:51Z</time>
      </trkpt>
      <trkpt lat="45.93329" lon="-0.96185">
        <ele>12.5</ele>
        <time>2022-06-21T14:26:52Z</time>
      </trkpt>
      <trkpt lat="45.93327" lon="-0.96186">
        <ele>12.4</ele>
        <time>2022-06-21T14:26:53Z</time>
      </trkpt>
      <trkpt lat="45.93327" lon="-0.96187">
        <ele>12.4</ele>
        <time>2022-06-21T14:26:54Z</time>
      </trkpt>
      <trkpt lat="45.93327" lon="-0.96188">
        <ele>12.4</ele>
        <time>2022-06-21T14:26:56Z</time>
      </trkpt>
      <trkpt lat="45.93326" lon="-0.96189">
        <ele>12.3</ele>
        <time>2022-06-21T14:26:57Z</time>
      </trkpt>
      <trkpt lat="45.93326" lon="-0.9619">
        <ele>12.3</ele>
        <time>2022-06-21T14:26:58Z</time>
      </trkpt>
      <trkpt lat="45.93326" lon="-0.96191">
        <ele>12.3</ele>
        <time>2022-06-21T14:26:59Z</time>
      </trkpt>
      <trkpt lat="45.93327" lon="-0.96191">
        <ele>12.3</ele>
        <time>2022-06-21T14:27:00Z</time>
      </trkpt>
      <trkpt lat="45.93328" lon="-0.96191">
        <ele>12.2</ele>
        <time>2022-06-21T14:27:01Z</time>
      </trkpt>
      <trkpt lat="45.93328" lon="-0.96191">
        <ele>12.2</ele>
        <time>2022-06-21T14:27:02Z</time>
      </trkpt>
      <trkpt lat="45.93328" lon="-0.9619">
        <ele>12.2</ele>
        <time>2022-06-21T14:27:03Z</time>
      </trkpt>
      <trkpt lat="45.93328" lon="-0.9619">
        <ele>12.2</ele>
        <time>2022-06-21T14:27:04Z</time>
      </trkpt>
      <trkpt lat="45.93328" lon="-0.9619">
        <ele>12.2</ele>
        <time>2022-06-21T14:27:05Z</time>
      </trkpt>
      <trkpt lat="45.93328" lon="-0.9619">
        <ele>12.2</ele>
        <time>2022-06-21T14:27:06Z</time>
      </trkpt>
      <trkpt lat="45.93328" lon="-0.9619">
        <ele>12.2</ele>
        <time>2022-06-21T14:27:07Z</time>
      </trkpt>
      <trkpt lat="45.93328" lon="-0.9619">
        <ele>12.2</ele>
        <time>2022-06-21T14:27:08Z</time>
      </trkpt>
      <trkpt lat="45.93328" lon="-0.9619">
        <ele>12.2</ele>
        <time>2022-06-21T14:27:09Z</time>
      </trkpt>
      <trkpt lat="45.93328" lon="-0.9619">
        <ele>12.2</ele>
        <time>2022-06-21T14:27:10Z</time>
      </trkpt>
      <trkpt lat="45.93328" lon="-0.9619">
        <ele>12.2</ele>
        <time>2022-06-21T14:27:11Z</time>
      </trkpt>
      <trkpt lat="45.93328" lon="-0.9619">
        <ele>12.2</ele>
        <time>2022-06-21T14:27:12Z</time>
      </trkpt>
      <trkpt lat="45.93328" lon="-0.9619">
        <ele>12.2</ele>
        <time>2022-06-21T14:27:13Z</time>
      </trkpt>
      <trkpt lat="45.93328" lon="-0.96189">
        <ele>12.2</ele>
        <time>2022-06-21T14:27:14Z</time>
      </trkpt>
      <trkpt lat="45.93328" lon="-0.96189">
        <ele>12.2</ele>
        <time>2022-06-21T14:27:15Z</time>
      </trkpt>
      <trkpt lat="45.93328" lon="-0.96189">
        <ele>12.2</ele>
        <time>2022-06-21T14:27:16Z</time>
      </trkpt>
      <trkpt lat="45.93328" lon="-0.9619">
        <ele>12.2</ele>
        <time>2022-06-21T14:27:17Z</time>
      </trkpt>
      <trkpt lat="45.93328" lon="-0.9619">
        <ele>12.1</ele>
        <time>2022-06-21T14:27:18Z</time>
      </trkpt>
      <trkpt lat="45.93327" lon="-0.96189">
        <ele>12.1</ele>
        <time>2022-06-21T14:27:19Z</time>
      </trkpt>
      <trkpt lat="45.93327" lon="-0.9619">
        <ele>12.1</ele>
        <time>2022-06-21T14:27:20Z</time>
      </trkpt>
      <trkpt lat="45.93327" lon="-0.96191">
        <ele>12.1</ele>
        <time>2022-06-21T14:27:21Z</time>
      </trkpt>
      <trkpt lat="45.93326" lon="-0.96192">
        <ele>12.1</ele>
        <time>2022-06-21T14:27:23Z</time>
      </trkpt>
      <trkpt lat="45.93325" lon="-0.96192">
        <ele>12</ele>
        <time>2022-06-21T14:27:24Z</time>
      </trkpt>
      <trkpt lat="45.93325" lon="-0.96193">
        <ele>12</ele>
        <time>2022-06-21T14:27:25Z</time>
      </trkpt>
      <trkpt lat="45.93324" lon="-0.96194">
        <ele>12</ele>
        <time>2022-06-21T14:27:26Z</time>
      </trkpt>
      <trkpt lat="45.93323" lon="-0.96194">
        <ele>11.9</ele>
        <time>2022-06-21T14:27:27Z</time>
      </trkpt>
      <trkpt lat="45.93323" lon="-0.96194">
        <ele>11.9</ele>
        <time>2022-06-21T14:27:28Z</time>
      </trkpt>
      <trkpt lat="45.93322" lon="-0.96194">
        <ele>11.9</ele>
        <time>2022-06-21T14:27:30Z</time>
      </trkpt>
      <trkpt lat="45.93321" lon="-0.96193">
        <ele>11.8</ele>
        <time>2022-06-21T14:27:31Z</time>
      </trkpt>
      <trkpt lat="45.9332" lon="-0.96192">
        <ele>11.8</ele>
        <time>2022-06-21T14:27:32Z</time>
      </trkpt>
      <trkpt lat="45.93319" lon="-0.96191">
        <ele>11.7</ele>
        <time>2022-06-21T14:27:33Z</time>
      </trkpt>
      <trkpt lat="45.93318" lon="-0.96191">
        <ele>11.7</ele>
        <time>2022-06-21T14:27:34Z</time>
      </trkpt>
      <trkpt lat="45.93317" lon="-0.96192">
        <ele>11.7</ele>
        <time>2022-06-21T14:27:35Z</time>
      </trkpt>
      <trkpt lat="45.93316" lon="-0.96193">
        <ele>11.6</ele>
        <time>2022-06-21T14:27:37Z</time>
      </trkpt>
      <trkpt lat="45.93315" lon="-0.96193">
        <ele>11.6</ele>
        <time>2022-06-21T14:27:38Z</time>
      </trkpt>
      <trkpt lat="45.93314" lon="-0.96193">
        <ele>11.5</ele>
        <time>2022-06-21T14:27:39Z</time>
      </trkpt>
      <trkpt lat="45.93314" lon="-0.96194">
        <ele>11.5</ele>
        <time>2022-06-21T14:27:40Z</time>
      </trkpt>
      <trkpt lat="45.93311" lon="-0.96194">
        <ele>11.4</ele>
        <time>2022-06-21T14:27:41Z</time>
      </trkpt>
      <trkpt lat="45.93308" lon="-0.96195">
        <ele>11.3</ele>
        <time>2022-06-21T14:27:42Z</time>
      </trkpt>
      <trkpt lat="45.93307" lon="-0.96195">
        <ele>11.2</ele>
        <time>2022-06-21T14:27:43Z</time>
      </trkpt>
      <trkpt lat="45.93305" lon="-0.96196">
        <ele>11.1</ele>
        <time>2022-06-21T14:27:45Z</time>
      </trkpt>
      <trkpt lat="45.93304" lon="-0.96196">
        <ele>11.1</ele>
        <time>2022-06-21T14:27:46Z</time>
      </trkpt>
      <trkpt lat="45.93303" lon="-0.96196">
        <ele>11.1</ele>
        <time>2022-06-21T14:27:47Z</time>
      </trkpt>
      <trkpt lat="45.93302" lon="-0.96196">
        <ele>11</ele>
        <time>2022-06-21T14:27:48Z</time>
      </trkpt>
      <trkpt lat="45.933" lon="-0.96196">
        <ele>11</ele>
        <time>2022-06-21T14:27:49Z</time>
      </trkpt>
      <trkpt lat="45.93297" lon="-0.96197">
        <ele>10.9</ele>
        <time>2022-06-21T14:27:50Z</time>
      </trkpt>
      <trkpt lat="45.93296" lon="-0.96197">
        <ele>10.8</ele>
        <time>2022-06-21T14:27:52Z</time>
      </trkpt>
      <trkpt lat="45.93295" lon="-0.96196">
        <ele>10.8</ele>
        <time>2022-06-21T14:27:53Z</time>
      </trkpt>
      <trkpt lat="45.93296" lon="-0.96195">
        <ele>10.7</ele>
        <time>2022-06-21T14:27:54Z</time>
      </trkpt>
      <trkpt lat="45.93297" lon="-0.96194">
        <ele>10.7</ele>
        <time>2022-06-21T14:27:55Z</time>
      </trkpt>
      <trkpt lat="45.93297" lon="-0.96193">
        <ele>10.7</ele>
        <time>2022-06-21T14:27:57Z</time>
      </trkpt>
      <trkpt lat="45.93297" lon="-0.96193">
        <ele>10.6</ele>
        <time>2022-06-21T14:27:58Z</time>
      </trkpt>
      <trkpt lat="45.93296" lon="-0.96192">
        <ele>10.6</ele>
        <time>2022-06-21T14:27:59Z</time>
      </trkpt>
      <trkpt lat="45.93297" lon="-0.96193">
        <ele>10.6</ele>
        <time>2022-06-21T14:28:00Z</time>
      </trkpt>
      <trkpt lat="45.93297" lon="-0.96193">
        <ele>10.6</ele>
        <time>2022-06-21T14:28:01Z</time>
      </trkpt>
      <trkpt lat="45.93296" lon="-0.96194">
        <ele>10.5</ele>
        <time>2022-06-21T14:28:02Z</time>
      </trkpt>
      <trkpt lat="45.93295" lon="-0.96194">
        <ele>10.5</ele>
        <time>2022-06-21T14:28:03Z</time>
      </trkpt>
      <trkpt lat="45.93293" lon="-0.96193">
        <ele>10.4</ele>
        <time>2022-06-21T14:28:05Z</time>
      </trkpt>
      <trkpt lat="45.93291" lon="-0.96193">
        <ele>10.3</ele>
        <time>2022-06-21T14:28:06Z</time>
      </trkpt>
      <trkpt lat="45.9329" lon="-0.96194">
        <ele>10.3</ele>
        <time>2022-06-21T14:28:07Z</time>
      </trkpt>
      <trkpt lat="45.93289" lon="-0.96194">
        <ele>10.2</ele>
        <time>2022-06-21T14:28:08Z</time>
      </trkpt>
      <trkpt lat="45.93288" lon="-0.96195">
        <ele>10.2</ele>
        <time>2022-06-21T14:28:09Z</time>
      </trkpt>
      <trkpt lat="45.93287" lon="-0.96197">
        <ele>10.1</ele>
        <time>2022-06-21T14:28:10Z</time>
      </trkpt>
      <trkpt lat="45.93285" lon="-0.96197">
        <ele>10.1</ele>
        <time>2022-06-21T14:28:11Z</time>
      </trkpt>
      <trkpt lat="45.93284" lon="-0.96198">
        <ele>10</ele>
        <time>2022-06-21T14:28:12Z</time>
      </trkpt>
      <trkpt lat="45.93283" lon="-0.96198">
        <ele>10</ele>
        <time>2022-06-21T14:28:13Z</time>
      </trkpt>
      <trkpt lat="45.93283" lon="-0.96199">
        <ele>10</ele>
        <time>2022-06-21T14:28:14Z</time>
      </trkpt>
      <trkpt lat="45.93281" lon="-0.96199">
        <ele>9.9</ele>
        <time>2022-06-21T14:28:15Z</time>
      </trkpt>
      <trkpt lat="45.93278" lon="-0.96201">
        <ele>9.8</ele>
        <time>2022-06-21T14:28:16Z</time>
      </trkpt>
      <trkpt lat="45.93277" lon="-0.96201">
        <ele>9.8</ele>
        <time>2022-06-21T14:28:17Z</time>
      </trkpt>
      <trkpt lat="45.93276" lon="-0.962">
        <ele>9.7</ele>
        <time>2022-06-21T14:28:18Z</time>
      </trkpt>
      <trkpt lat="45.93275" lon="-0.962">
        <ele>9.7</ele>
        <time>2022-06-21T14:28:20Z</time>
      </trkpt>
      <trkpt lat="45.93274" lon="-0.962">
        <ele>9.7</ele>
        <time>2022-06-21T14:28:21Z</time>
      </trkpt>
      <trkpt lat="45.93273" lon="-0.962">
        <ele>9.6</ele>
        <time>2022-06-21T14:28:22Z</time>
      </trkpt>
      <trkpt lat="45.93272" lon="-0.962">
        <ele>9.6</ele>
        <time>2022-06-21T14:28:23Z</time>
      </trkpt>
      <trkpt lat="45.93271" lon="-0.962">
        <ele>9.6</ele>
        <time>2022-06-21T14:28:24Z</time>
      </trkpt>
      <trkpt lat="45.9327" lon="-0.962">
        <ele>9.5</ele>
        <time>2022-06-21T14:28:25Z</time>
      </trkpt>
      <trkpt lat="45.93269" lon="-0.96201">
        <ele>9.5</ele>
        <time>2022-06-21T14:28:26Z</time>
      </trkpt>
      <trkpt lat="45.93269" lon="-0.96201">
        <ele>9.5</ele>
        <time>2022-06-21T14:28:28Z</time>
      </trkpt>
      <trkpt lat="45.93268" lon="-0.96201">
        <ele>9.4</ele>
        <time>2022-06-21T14:28:29Z</time>
      </trkpt>
      <trkpt lat="45.93266" lon="-0.96202">
        <ele>9.4</ele>
        <time>2022-06-21T14:28:30Z</time>
      </trkpt>
      <trkpt lat="45.93264" lon="-0.96202">
        <ele>9.3</ele>
        <time>2022-06-21T14:28:31Z</time>
      </trkpt>
      <trkpt lat="45.93261" lon="-0.96204">
        <ele>9.2</ele>
        <time>2022-06-21T14:28:32Z</time>
      </trkpt>
      <trkpt lat="45.9326" lon="-0.96204">
        <ele>9.2</ele>
        <time>2022-06-21T14:28:33Z</time>
      </trkpt>
      <trkpt lat="45.93259" lon="-0.96204">
        <ele>9.1</ele>
        <time>2022-06-21T14:28:34Z</time>
      </trkpt>
      <trkpt lat="45.93257" lon="-0.96204">
        <ele>9.1</ele>
        <time>2022-06-21T14:28:36Z</time>
      </trkpt>
      <trkpt lat="45.93256" lon="-0.96204">
        <ele>9</ele>
        <time>2022-06-21T14:28:37Z</time>
      </trkpt>
      <trkpt lat="45.93253" lon="-0.96204">
        <ele>8.9</ele>
        <time>2022-06-21T14:28:39Z</time>
      </trkpt>
      <trkpt lat="45.93252" lon="-0.96204">
        <ele>8.9</ele>
        <time>2022-06-21T14:28:40Z</time>
      </trkpt>
      <trkpt lat="45.9325" lon="-0.96204">
        <ele>8.8</ele>
        <time>2022-06-21T14:28:41Z</time>
      </trkpt>
      <trkpt lat="45.93249" lon="-0.96204">
        <ele>8.7</ele>
        <time>2022-06-21T14:28:42Z</time>
      </trkpt>
      <trkpt lat="45.93248" lon="-0.96203">
        <ele>8.7</ele>
        <time>2022-06-21T14:28:43Z</time>
      </trkpt>
      <trkpt lat="45.93244" lon="-0.96204">
        <ele>8.5</ele>
        <time>2022-06-21T14:28:45Z</time>
      </trkpt>
      <trkpt lat="45.93244" lon="-0.96204">
        <ele>8.5</ele>
        <time>2022-06-21T14:28:46Z</time>
      </trkpt>
      <trkpt lat="45.93243" lon="-0.96204">
        <ele>8.5</ele>
        <time>2022-06-21T14:28:48Z</time>
      </trkpt>
      <trkpt lat="45.93243" lon="-0.96205">
        <ele>8.5</ele>
        <time>2022-06-21T14:28:49Z</time>
      </trkpt>
      <trkpt lat="45.93242" lon="-0.96205">
        <ele>8.4</ele>
        <time>2022-06-21T14:28:50Z</time>
      </trkpt>
      <trkpt lat="45.93242" lon="-0.96205">
        <ele>8.4</ele>
        <time>2022-06-21T14:28:51Z</time>
      </trkpt>
      <trkpt lat="45.93241" lon="-0.96204">
        <ele>8.4</ele>
        <time>2022-06-21T14:28:52Z</time>
      </trkpt>
      <trkpt lat="45.9324" lon="-0.96202">
        <ele>8.3</ele>
        <time>2022-06-21T14:28:54Z</time>
      </trkpt>
      <trkpt lat="45.9324" lon="-0.96201">
        <ele>8</ele>
        <time>2022-06-21T14:28:55Z</time>
      </trkpt>
      <trkpt lat="45.93239" lon="-0.962">
        <ele>8</ele>
        <time>2022-06-21T14:28:56Z</time>
      </trkpt>
      <trkpt lat="45.93238" lon="-0.96199">
        <ele>8</ele>
        <time>2022-06-21T14:28:57Z</time>
      </trkpt>
      <trkpt lat="45.93238" lon="-0.96199">
        <ele>8</ele>
        <time>2022-06-21T14:28:58Z</time>
      </trkpt>
      <trkpt lat="45.93237" lon="-0.96198">
        <ele>8</ele>
        <time>2022-06-21T14:29:00Z</time>
      </trkpt>
      <trkpt lat="45.93237" lon="-0.96197">
        <ele>8</ele>
        <time>2022-06-21T14:29:01Z</time>
      </trkpt>
      <trkpt lat="45.93236" lon="-0.96196">
        <ele>8</ele>
        <time>2022-06-21T14:29:02Z</time>
      </trkpt>
      <trkpt lat="45.93236" lon="-0.96192">
        <ele>8</ele>
        <time>2022-06-21T14:29:03Z</time>
      </trkpt>
      <trkpt lat="45.93235" lon="-0.9619">
        <ele>8</ele>
        <time>2022-06-21T14:29:04Z</time>
      </trkpt>
      <trkpt lat="45.93235" lon="-0.96188">
        <ele>7.9</ele>
        <time>2022-06-21T14:29:05Z</time>
      </trkpt>
      <trkpt lat="45.93234" lon="-0.96186">
        <ele>7.9</ele>
        <time>2022-06-21T14:29:06Z</time>
      </trkpt>
      <trkpt lat="45.93234" lon="-0.96185">
        <ele>7.9</ele>
        <time>2022-06-21T14:29:08Z</time>
      </trkpt>
      <trkpt lat="45.93233" lon="-0.96183">
        <ele>7.9</ele>
        <time>2022-06-21T14:29:09Z</time>
      </trkpt>
      <trkpt lat="45.93233" lon="-0.96182">
        <ele>7.9</ele>
        <time>2022-06-21T14:29:10Z</time>
      </trkpt>
      <trkpt lat="45.93233" lon="-0.96181">
        <ele>7.9</ele>
        <time>2022-06-21T14:29:11Z</time>
      </trkpt>
      <trkpt lat="45.93232" lon="-0.96179">
        <ele>7.9</ele>
        <time>2022-06-21T14:29:13Z</time>
      </trkpt>
      <trkpt lat="45.93232" lon="-0.96178">
        <ele>7.9</ele>
        <time>2022-06-21T14:29:14Z</time>
      </trkpt>
      <trkpt lat="45.93232" lon="-0.96176">
        <ele>7.9</ele>
        <time>2022-06-21T14:29:15Z</time>
      </trkpt>
      <trkpt lat="45.93232" lon="-0.96174">
        <ele>7.8</ele>
        <time>2022-06-21T14:29:16Z</time>
      </trkpt>
      <trkpt lat="45.93232" lon="-0.96173">
        <ele>7.8</ele>
        <time>2022-06-21T14:29:17Z</time>
      </trkpt>
      <trkpt lat="45.93232" lon="-0.96171">
        <ele>7.8</ele>
        <time>2022-06-21T14:29:18Z</time>
      </trkpt>
      <trkpt lat="45.93232" lon="-0.96169">
        <ele>7.8</ele>
        <time>2022-06-21T14:29:20Z</time>
      </trkpt>
      <trkpt lat="45.93232" lon="-0.96167">
        <ele>7.8</ele>
        <time>2022-06-21T14:29:21Z</time>
      </trkpt>
      <trkpt lat="45.93231" lon="-0.96165">
        <ele>7.8</ele>
        <time>2022-06-21T14:29:22Z</time>
      </trkpt>
      <trkpt lat="45.93231" lon="-0.96163">
        <ele>7.8</ele>
        <time>2022-06-21T14:29:23Z</time>
      </trkpt>
      <trkpt lat="45.93231" lon="-0.96162">
        <ele>7.8</ele>
        <time>2022-06-21T14:29:24Z</time>
      </trkpt>
      <trkpt lat="45.93231" lon="-0.9616">
        <ele>7.8</ele>
        <time>2022-06-21T14:29:25Z</time>
      </trkpt>
      <trkpt lat="45.93231" lon="-0.96157">
        <ele>7.8</ele>
        <time>2022-06-21T14:29:26Z</time>
      </trkpt>
      <trkpt lat="45.93231" lon="-0.96155">
        <ele>7.8</ele>
        <time>2022-06-21T14:29:27Z</time>
      </trkpt>
      <trkpt lat="45.9323" lon="-0.96154">
        <ele>7.8</ele>
        <time>2022-06-21T14:29:28Z</time>
      </trkpt>
      <trkpt lat="45.9323" lon="-0.96152">
        <ele>7.8</ele>
        <time>2022-06-21T14:29:29Z</time>
      </trkpt>
      <trkpt lat="45.9323" lon="-0.96149">
        <ele>7.8</ele>
        <time>2022-06-21T14:29:30Z</time>
      </trkpt>
      <trkpt lat="45.9323" lon="-0.96147">
        <ele>7.8</ele>
        <time>2022-06-21T14:29:31Z</time>
      </trkpt>
      <trkpt lat="45.9323" lon="-0.96145">
        <ele>7.8</ele>
        <time>2022-06-21T14:29:33Z</time>
      </trkpt>
      <trkpt lat="45.9323" lon="-0.96142">
        <ele>7.8</ele>
        <time>2022-06-21T14:29:34Z</time>
      </trkpt>
      <trkpt lat="45.93229" lon="-0.96141">
        <ele>7.8</ele>
        <time>2022-06-21T14:29:35Z</time>
      </trkpt>
      <trkpt lat="45.93229" lon="-0.96139">
        <ele>7.8</ele>
        <time>2022-06-21T14:29:36Z</time>
      </trkpt>
      <trkpt lat="45.93229" lon="-0.96138">
        <ele>7.7</ele>
        <time>2022-06-21T14:29:38Z</time>
      </trkpt>
      <trkpt lat="45.93229" lon="-0.96136">
        <ele>7.7</ele>
        <time>2022-06-21T14:29:39Z</time>
      </trkpt>
      <trkpt lat="45.93229" lon="-0.96134">
        <ele>7.7</ele>
        <time>2022-06-21T14:29:40Z</time>
      </trkpt>
      <trkpt lat="45.93228" lon="-0.96133">
        <ele>7.7</ele>
        <time>2022-06-21T14:29:41Z</time>
      </trkpt>
      <trkpt lat="45.93228" lon="-0.96132">
        <ele>7.7</ele>
        <time>2022-06-21T14:29:42Z</time>
      </trkpt>
      <trkpt lat="45.93228" lon="-0.96131">
        <ele>7.7</ele>
        <time>2022-06-21T14:29:43Z</time>
      </trkpt>
      <trkpt lat="45.93228" lon="-0.96131">
        <ele>7.7</ele>
        <time>2022-06-21T14:29:44Z</time>
      </trkpt>
      <trkpt lat="45.93228" lon="-0.9613">
        <ele>7.7</ele>
        <time>2022-06-21T14:29:46Z</time>
      </trkpt>
      <trkpt lat="45.93228" lon="-0.96129">
        <ele>7.7</ele>
        <time>2022-06-21T14:29:47Z</time>
      </trkpt>
      <trkpt lat="45.93227" lon="-0.96128">
        <ele>7.7</ele>
        <time>2022-06-21T14:29:48Z</time>
      </trkpt>
      <trkpt lat="45.93227" lon="-0.96127">
        <ele>7.7</ele>
        <time>2022-06-21T14:29:49Z</time>
      </trkpt>
      <trkpt lat="45.93227" lon="-0.96124">
        <ele>7.7</ele>
        <time>2022-06-21T14:29:50Z</time>
      </trkpt>
      <trkpt lat="45.93227" lon="-0.96122">
        <ele>7.7</ele>
        <time>2022-06-21T14:29:51Z</time>
      </trkpt>
      <trkpt lat="45.93226" lon="-0.9612">
        <ele>7.6</ele>
        <time>2022-06-21T14:29:53Z</time>
      </trkpt>
      <trkpt lat="45.93226" lon="-0.96118">
        <ele>7.6</ele>
        <time>2022-06-21T14:29:54Z</time>
      </trkpt>
      <trkpt lat="45.93226" lon="-0.96116">
        <ele>7.6</ele>
        <time>2022-06-21T14:29:55Z</time>
      </trkpt>
      <trkpt lat="45.93225" lon="-0.96114">
        <ele>7.6</ele>
        <time>2022-06-21T14:29:56Z</time>
      </trkpt>
      <trkpt lat="45.93225" lon="-0.96112">
        <ele>7.5</ele>
        <time>2022-06-21T14:29:57Z</time>
      </trkpt>
      <trkpt lat="45.93225" lon="-0.9611">
        <ele>7.5</ele>
        <time>2022-06-21T14:29:58Z</time>
      </trkpt>
      <trkpt lat="45.93225" lon="-0.96109">
        <ele>7.5</ele>
        <time>2022-06-21T14:29:59Z</time>
      </trkpt>
      <trkpt lat="45.93224" lon="-0.96107">
        <ele>7.5</ele>
        <time>2022-06-21T14:30:01Z</time>
      </trkpt>
      <trkpt lat="45.93224" lon="-0.96105">
        <ele>7.5</ele>
        <time>2022-06-21T14:30:02Z</time>
      </trkpt>
      <trkpt lat="45.93224" lon="-0.96104">
        <ele>7.4</ele>
        <time>2022-06-21T14:30:03Z</time>
      </trkpt>
      <trkpt lat="45.93224" lon="-0.96102">
        <ele>7.4</ele>
        <time>2022-06-21T14:30:04Z</time>
      </trkpt>
      <trkpt lat="45.93224" lon="-0.96101">
        <ele>7.4</ele>
        <time>2022-06-21T14:30:05Z</time>
      </trkpt>
      <trkpt lat="45.93224" lon="-0.96099">
        <ele>7.4</ele>
        <time>2022-06-21T14:30:06Z</time>
      </trkpt>
      <trkpt lat="45.93224" lon="-0.96098">
        <ele>7.4</ele>
        <time>2022-06-21T14:30:07Z</time>
      </trkpt>
      <trkpt lat="45.93224" lon="-0.96096">
        <ele>7.3</ele>
        <time>2022-06-21T14:30:08Z</time>
      </trkpt>
      <trkpt lat="45.93224" lon="-0.96094">
        <ele>7.3</ele>
        <time>2022-06-21T14:30:10Z</time>
      </trkpt>
      <trkpt lat="45.93223" lon="-0.96092">
        <ele>7.3</ele>
        <time>2022-06-21T14:30:11Z</time>
      </trkpt>
      <trkpt lat="45.93224" lon="-0.9609">
        <ele>7.3</ele>
        <time>2022-06-21T14:30:12Z</time>
      </trkpt>
      <trkpt lat="45.93224" lon="-0.96088">
        <ele>7.2</ele>
        <time>2022-06-21T14:30:13Z</time>
      </trkpt>
      <trkpt lat="45.93223" lon="-0.96087">
        <ele>7.2</ele>
        <time>2022-06-21T14:30:14Z</time>
      </trkpt>
      <trkpt lat="45.93223" lon="-0.96086">
        <ele>7.2</ele>
        <time>2022-06-21T14:30:15Z</time>
      </trkpt>
      <trkpt lat="45.93223" lon="-0.96085">
        <ele>7.2</ele>
        <time>2022-06-21T14:30:17Z</time>
      </trkpt>
      <trkpt lat="45.93223" lon="-0.96083">
        <ele>7.2</ele>
        <time>2022-06-21T14:30:18Z</time>
      </trkpt>
      <trkpt lat="45.93223" lon="-0.96081">
        <ele>7.2</ele>
        <time>2022-06-21T14:30:19Z</time>
      </trkpt>
      <trkpt lat="45.93223" lon="-0.9608">
        <ele>7.1</ele>
        <time>2022-06-21T14:30:20Z</time>
      </trkpt>
      <trkpt lat="45.93222" lon="-0.96079">
        <ele>7.1</ele>
        <time>2022-06-21T14:30:21Z</time>
      </trkpt>
      <trkpt lat="45.93222" lon="-0.96076">
        <ele>7.1</ele>
        <time>2022-06-21T14:30:22Z</time>
      </trkpt>
      <trkpt lat="45.93222" lon="-0.96074">
        <ele>7.1</ele>
        <time>2022-06-21T14:30:23Z</time>
      </trkpt>
      <trkpt lat="45.93222" lon="-0.96073">
        <ele>7.1</ele>
        <time>2022-06-21T14:30:24Z</time>
      </trkpt>
      <trkpt lat="45.93221" lon="-0.96071">
        <ele>7</ele>
        <time>2022-06-21T14:30:26Z</time>
      </trkpt>
      <trkpt lat="45.93221" lon="-0.9607">
        <ele>7</ele>
        <time>2022-06-21T14:30:27Z</time>
      </trkpt>
      <trkpt lat="45.9322" lon="-0.96069">
        <ele>7</ele>
        <time>2022-06-21T14:30:28Z</time>
      </trkpt>
      <trkpt lat="45.9322" lon="-0.96068">
        <ele>7</ele>
        <time>2022-06-21T14:30:29Z</time>
      </trkpt>
      <trkpt lat="45.93219" lon="-0.96067">
        <ele>7</ele>
        <time>2022-06-21T14:30:30Z</time>
      </trkpt>
      <trkpt lat="45.93219" lon="-0.96066">
        <ele>7</ele>
        <time>2022-06-21T14:30:31Z</time>
      </trkpt>
      <trkpt lat="45.93219" lon="-0.96065">
        <ele>7</ele>
        <time>2022-06-21T14:30:32Z</time>
      </trkpt>
      <trkpt lat="45.93219" lon="-0.96064">
        <ele>6.9</ele>
        <time>2022-06-21T14:30:34Z</time>
      </trkpt>
      <trkpt lat="45.93218" lon="-0.96062">
        <ele>6.9</ele>
        <time>2022-06-21T14:30:35Z</time>
      </trkpt>
      <trkpt lat="45.93218" lon="-0.96061">
        <ele>6.9</ele>
        <time>2022-06-21T14:30:36Z</time>
      </trkpt>
      <trkpt lat="45.93218" lon="-0.96059">
        <ele>6.9</ele>
        <time>2022-06-21T14:30:37Z</time>
      </trkpt>
      <trkpt lat="45.93217" lon="-0.96059">
        <ele>6.9</ele>
        <time>2022-06-21T14:30:38Z</time>
      </trkpt>
      <trkpt lat="45.93217" lon="-0.96058">
        <ele>6.9</ele>
        <time>2022-06-21T14:30:39Z</time>
      </trkpt>
      <trkpt lat="45.93218" lon="-0.96057">
        <ele>6.9</ele>
        <time>2022-06-21T14:30:40Z</time>
      </trkpt>
      <trkpt lat="45.93218" lon="-0.96055">
        <ele>6.9</ele>
        <time>2022-06-21T14:30:41Z</time>
      </trkpt>
      <trkpt lat="45.93218" lon="-0.96053">
        <ele>6.8</ele>
        <time>2022-06-21T14:30:43Z</time>
      </trkpt>
      <trkpt lat="45.93218" lon="-0.96052">
        <ele>6.8</ele>
        <time>2022-06-21T14:30:44Z</time>
      </trkpt>
      <trkpt lat="45.93218" lon="-0.96051">
        <ele>6.8</ele>
        <time>2022-06-21T14:30:45Z</time>
      </trkpt>
      <trkpt lat="45.93218" lon="-0.9605">
        <ele>6.8</ele>
        <time>2022-06-21T14:30:46Z</time>
      </trkpt>
      <trkpt lat="45.93218" lon="-0.96049">
        <ele>6.8</ele>
        <time>2022-06-21T14:30:47Z</time>
      </trkpt>
      <trkpt lat="45.93218" lon="-0.96047">
        <ele>6.8</ele>
        <time>2022-06-21T14:30:48Z</time>
      </trkpt>
      <trkpt lat="45.93216" lon="-0.96043">
        <ele>6.8</ele>
        <time>2022-06-21T14:30:49Z</time>
      </trkpt>
      <trkpt lat="45.93216" lon="-0.96042">
        <ele>6.7</ele>
        <time>2022-06-21T14:30:51Z</time>
      </trkpt>
      <trkpt lat="45.93215" lon="-0.96042">
        <ele>6.7</ele>
        <time>2022-06-21T14:30:52Z</time>
      </trkpt>
      <trkpt lat="45.93214" lon="-0.96041">
        <ele>6.7</ele>
        <time>2022-06-21T14:30:53Z</time>
      </trkpt>
      <trkpt lat="45.93213" lon="-0.9604">
        <ele>6.7</ele>
        <time>2022-06-21T14:30:54Z</time>
      </trkpt>
      <trkpt lat="45.93211" lon="-0.9604">
        <ele>6.6</ele>
        <time>2022-06-21T14:30:55Z</time>
      </trkpt>
      <trkpt lat="45.9321" lon="-0.9604">
        <ele>6.6</ele>
        <time>2022-06-21T14:30:57Z</time>
      </trkpt>
      <trkpt lat="45.93208" lon="-0.96039">
        <ele>6.6</ele>
        <time>2022-06-21T14:30:58Z</time>
      </trkpt>
      <trkpt lat="45.93205" lon="-0.9604">
        <ele>6.5</ele>
        <time>2022-06-21T14:30:59Z</time>
      </trkpt>
      <trkpt lat="45.93204" lon="-0.96041">
        <ele>6.5</ele>
        <time>2022-06-21T14:31:00Z</time>
      </trkpt>
      <trkpt lat="45.93202" lon="-0.96041">
        <ele>6.5</ele>
        <time>2022-06-21T14:31:01Z</time>
      </trkpt>
      <trkpt lat="45.93201" lon="-0.96042">
        <ele>6.5</ele>
        <time>2022-06-21T14:31:02Z</time>
      </trkpt>
      <trkpt lat="45.932" lon="-0.96042">
        <ele>6.5</ele>
        <time>2022-06-21T14:31:03Z</time>
      </trkpt>
      <trkpt lat="45.93199" lon="-0.96041">
        <ele>6.4</ele>
        <time>2022-06-21T14:31:04Z</time>
      </trkpt>
      <trkpt lat="45.93197" lon="-0.96041">
        <ele>6.4</ele>
        <time>2022-06-21T14:31:06Z</time>
      </trkpt>
      <trkpt lat="45.93196" lon="-0.9604">
        <ele>6.4</ele>
        <time>2022-06-21T14:31:07Z</time>
      </trkpt>
      <trkpt lat="45.93196" lon="-0.96041">
        <ele>6.4</ele>
        <time>2022-06-21T14:31:08Z</time>
      </trkpt>
      <trkpt lat="45.93195" lon="-0.96041">
        <ele>6.4</ele>
        <time>2022-06-21T14:31:10Z</time>
      </trkpt>
      <trkpt lat="45.93194" lon="-0.96041">
        <ele>6.4</ele>
        <time>2022-06-21T14:31:11Z</time>
      </trkpt>
      <trkpt lat="45.93193" lon="-0.96042">
        <ele>6.3</ele>
        <time>2022-06-21T14:31:12Z</time>
      </trkpt>
      <trkpt lat="45.93192" lon="-0.96042">
        <ele>6.3</ele>
        <time>2022-06-21T14:31:13Z</time>
      </trkpt>
      <trkpt lat="45.93192" lon="-0.96042">
        <ele>6.3</ele>
        <time>2022-06-21T14:31:14Z</time>
      </trkpt>
      <trkpt lat="45.93191" lon="-0.96042">
        <ele>6.3</ele>
        <time>2022-06-21T14:31:15Z</time>
      </trkpt>
      <trkpt lat="45.93191" lon="-0.96043">
        <ele>6.3</ele>
        <time>2022-06-21T14:31:16Z</time>
      </trkpt>
      <trkpt lat="45.9319" lon="-0.96044">
        <ele>6.3</ele>
        <time>2022-06-21T14:31:17Z</time>
      </trkpt>
      <trkpt lat="45.9319" lon="-0.96044">
        <ele>6.3</ele>
        <time>2022-06-21T14:31:19Z</time>
      </trkpt>
      <trkpt lat="45.93189" lon="-0.96045">
        <ele>6.3</ele>
        <time>2022-06-21T14:31:20Z</time>
      </trkpt>
      <trkpt lat="45.93189" lon="-0.96045">
        <ele>6.3</ele>
        <time>2022-06-21T14:31:21Z</time>
      </trkpt>
      <trkpt lat="45.9319" lon="-0.96045">
        <ele>6.3</ele>
        <time>2022-06-21T14:31:22Z</time>
      </trkpt>
      <trkpt lat="45.93192" lon="-0.96045">
        <ele>6.2</ele>
        <time>2022-06-21T14:31:24Z</time>
      </trkpt>
      <trkpt lat="45.93191" lon="-0.96046">
        <ele>6.2</ele>
        <time>2022-06-21T14:31:25Z</time>
      </trkpt>
      <trkpt lat="45.93189" lon="-0.96046">
        <ele>6.2</ele>
        <time>2022-06-21T14:31:26Z</time>
      </trkpt>
      <trkpt lat="45.93186" lon="-0.96046">
        <ele>6.1</ele>
        <time>2022-06-21T14:31:27Z</time>
      </trkpt>
      <trkpt lat="45.93183" lon="-0.96045">
        <ele>6.1</ele>
        <time>2022-06-21T14:31:29Z</time>
      </trkpt>
      <trkpt lat="45.93182" lon="-0.96045">
        <ele>6.1</ele>
        <time>2022-06-21T14:31:30Z</time>
      </trkpt>
      <trkpt lat="45.93181" lon="-0.96045">
        <ele>6.1</ele>
        <time>2022-06-21T14:31:31Z</time>
      </trkpt>
      <trkpt lat="45.9318" lon="-0.96045">
        <ele>6.1</ele>
        <time>2022-06-21T14:31:32Z</time>
      </trkpt>
      <trkpt lat="45.93178" lon="-0.96045">
        <ele>6</ele>
        <time>2022-06-21T14:31:34Z</time>
      </trkpt>
      <trkpt lat="45.93176" lon="-0.96045">
        <ele>6</ele>
        <time>2022-06-21T14:31:35Z</time>
      </trkpt>
      <trkpt lat="45.93175" lon="-0.96045">
        <ele>6</ele>
        <time>2022-06-21T14:31:36Z</time>
      </trkpt>
      <trkpt lat="45.93173" lon="-0.96045">
        <ele>5.9</ele>
        <time>2022-06-21T14:31:37Z</time>
      </trkpt>
      <trkpt lat="45.93171" lon="-0.96045">
        <ele>5.9</ele>
        <time>2022-06-21T14:31:38Z</time>
      </trkpt>
      <trkpt lat="45.93169" lon="-0.96045">
        <ele>5.9</ele>
        <time>2022-06-21T14:31:39Z</time>
      </trkpt>
      <trkpt lat="45.93168" lon="-0.96045">
        <ele>5.9</ele>
        <time>2022-06-21T14:31:40Z</time>
      </trkpt>
      <trkpt lat="45.93165" lon="-0.96046">
        <ele>5.9</ele>
        <time>2022-06-21T14:31:42Z</time>
      </trkpt>
      <trkpt lat="45.93164" lon="-0.96046">
        <ele>5.8</ele>
        <time>2022-06-21T14:31:43Z</time>
      </trkpt>
      <trkpt lat="45.93163" lon="-0.96046">
        <ele>5.8</ele>
        <time>2022-06-21T14:31:44Z</time>
      </trkpt>
      <trkpt lat="45.93162" lon="-0.96047">
        <ele>5.8</ele>
        <time>2022-06-21T14:31:45Z</time>
      </trkpt>
      <trkpt lat="45.93161" lon="-0.96047">
        <ele>5.8</ele>
        <time>2022-06-21T14:31:46Z</time>
      </trkpt>
      <trkpt lat="45.93159" lon="-0.96048">
        <ele>5.8</ele>
        <time>2022-06-21T14:31:48Z</time>
      </trkpt>
      <trkpt lat="45.93157" lon="-0.96049">
        <ele>5.8</ele>
        <time>2022-06-21T14:31:49Z</time>
      </trkpt>
      <trkpt lat="45.93156" lon="-0.96049">
        <ele>5.7</ele>
        <time>2022-06-21T14:31:50Z</time>
      </trkpt>
      <trkpt lat="45.93154" lon="-0.9605">
        <ele>5.7</ele>
        <time>2022-06-21T14:31:52Z</time>
      </trkpt>
      <trkpt lat="45.93153" lon="-0.9605">
        <ele>5.7</ele>
        <time>2022-06-21T14:31:53Z</time>
      </trkpt>
      <trkpt lat="45.9315" lon="-0.96049">
        <ele>5.7</ele>
        <time>2022-06-21T14:31:54Z</time>
      </trkpt>
      <trkpt lat="45.93149" lon="-0.96049">
        <ele>5.7</ele>
        <time>2022-06-21T14:31:55Z</time>
      </trkpt>
      <trkpt lat="45.93148" lon="-0.96049">
        <ele>5.7</ele>
        <time>2022-06-21T14:31:56Z</time>
      </trkpt>
      <trkpt lat="45.93147" lon="-0.9605">
        <ele>5.7</ele>
        <time>2022-06-21T14:31:57Z</time>
      </trkpt>
      <trkpt lat="45.93146" lon="-0.9605">
        <ele>5.7</ele>
        <time>2022-06-21T14:31:58Z</time>
      </trkpt>
      <trkpt lat="45.93144" lon="-0.9605">
        <ele>5.7</ele>
        <time>2022-06-21T14:31:59Z</time>
      </trkpt>
      <trkpt lat="45.93142" lon="-0.9605">
        <ele>5.6</ele>
        <time>2022-06-21T14:32:01Z</time>
      </trkpt>
      <trkpt lat="45.93141" lon="-0.96051">
        <ele>5.6</ele>
        <time>2022-06-21T14:32:02Z</time>
      </trkpt>
      <trkpt lat="45.93139" lon="-0.96051">
        <ele>5.6</ele>
        <time>2022-06-21T14:32:03Z</time>
      </trkpt>
      <trkpt lat="45.93137" lon="-0.96051">
        <ele>5.6</ele>
        <time>2022-06-21T14:32:04Z</time>
      </trkpt>
      <trkpt lat="45.93135" lon="-0.96051">
        <ele>5.6</ele>
        <time>2022-06-21T14:32:06Z</time>
      </trkpt>
      <trkpt lat="45.93133" lon="-0.96051">
        <ele>5.6</ele>
        <time>2022-06-21T14:32:07Z</time>
      </trkpt>
      <trkpt lat="45.93132" lon="-0.96051">
        <ele>5.6</ele>
        <time>2022-06-21T14:32:08Z</time>
      </trkpt>
      <trkpt lat="45.93131" lon="-0.96052">
        <ele>5.6</ele>
        <time>2022-06-21T14:32:09Z</time>
      </trkpt>
      <trkpt lat="45.9313" lon="-0.96052">
        <ele>5.6</ele>
        <time>2022-06-21T14:32:10Z</time>
      </trkpt>
      <trkpt lat="45.93128" lon="-0.96052">
        <ele>5.5</ele>
        <time>2022-06-21T14:32:11Z</time>
      </trkpt>
      <trkpt lat="45.93127" lon="-0.96051">
        <ele>5.5</ele>
        <time>2022-06-21T14:32:12Z</time>
      </trkpt>
      <trkpt lat="45.93126" lon="-0.96051">
        <ele>5.5</ele>
        <time>2022-06-21T14:32:14Z</time>
      </trkpt>
      <trkpt lat="45.93125" lon="-0.96051">
        <ele>5.5</ele>
        <time>2022-06-21T14:32:15Z</time>
      </trkpt>
      <trkpt lat="45.93124" lon="-0.96052">
        <ele>5.5</ele>
        <time>2022-06-21T14:32:16Z</time>
      </trkpt>
      <trkpt lat="45.93124" lon="-0.96052">
        <ele>5.5</ele>
        <time>2022-06-21T14:32:17Z</time>
      </trkpt>
      <trkpt lat="45.93123" lon="-0.96053">
        <ele>5.5</ele>
        <time>2022-06-21T14:32:18Z</time>
      </trkpt>
      <trkpt lat="45.93122" lon="-0.96053">
        <ele>5.5</ele>
        <time>2022-06-21T14:32:19Z</time>
      </trkpt>
      <trkpt lat="45.93121" lon="-0.96053">
        <ele>5.5</ele>
        <time>2022-06-21T14:32:20Z</time>
      </trkpt>
      <trkpt lat="45.9312" lon="-0.96053">
        <ele>5.5</ele>
        <time>2022-06-21T14:32:22Z</time>
      </trkpt>
      <trkpt lat="45.93119" lon="-0.96054">
        <ele>5.5</ele>
        <time>2022-06-21T14:32:23Z</time>
      </trkpt>
      <trkpt lat="45.93118" lon="-0.96054">
        <ele>5.5</ele>
        <time>2022-06-21T14:32:24Z</time>
      </trkpt>
      <trkpt lat="45.93117" lon="-0.96055">
        <ele>5.5</ele>
        <time>2022-06-21T14:32:25Z</time>
      </trkpt>
      <trkpt lat="45.93116" lon="-0.96055">
        <ele>5.4</ele>
        <time>2022-06-21T14:32:26Z</time>
      </trkpt>
      <trkpt lat="45.93115" lon="-0.96056">
        <ele>5.4</ele>
        <time>2022-06-21T14:32:28Z</time>
      </trkpt>
      <trkpt lat="45.93114" lon="-0.96056">
        <ele>5.4</ele>
        <time>2022-06-21T14:32:29Z</time>
      </trkpt>
      <trkpt lat="45.93112" lon="-0.96056">
        <ele>5.4</ele>
        <time>2022-06-21T14:32:30Z</time>
      </trkpt>
      <trkpt lat="45.9311" lon="-0.96056">
        <ele>5.4</ele>
        <time>2022-06-21T14:32:31Z</time>
      </trkpt>
      <trkpt lat="45.93109" lon="-0.96056">
        <ele>5.4</ele>
        <time>2022-06-21T14:32:32Z</time>
      </trkpt>
      <trkpt lat="45.93108" lon="-0.96057">
        <ele>5.4</ele>
        <time>2022-06-21T14:32:33Z</time>
      </trkpt>
      <trkpt lat="45.93106" lon="-0.96057">
        <ele>5.4</ele>
        <time>2022-06-21T14:32:34Z</time>
      </trkpt>
      <trkpt lat="45.93105" lon="-0.96058">
        <ele>5.4</ele>
        <time>2022-06-21T14:32:36Z</time>
      </trkpt>
      <trkpt lat="45.93103" lon="-0.96058">
        <ele>5.4</ele>
        <time>2022-06-21T14:32:37Z</time>
      </trkpt>
      <trkpt lat="45.93101" lon="-0.96059">
        <ele>5.3</ele>
        <time>2022-06-21T14:32:38Z</time>
      </trkpt>
      <trkpt lat="45.931" lon="-0.9606">
        <ele>5.3</ele>
        <time>2022-06-21T14:32:39Z</time>
      </trkpt>
      <trkpt lat="45.93098" lon="-0.96061">
        <ele>5.3</ele>
        <time>2022-06-21T14:32:40Z</time>
      </trkpt>
      <trkpt lat="45.93097" lon="-0.96063">
        <ele>5.3</ele>
        <time>2022-06-21T14:32:41Z</time>
      </trkpt>
      <trkpt lat="45.93096" lon="-0.96064">
        <ele>5.3</ele>
        <time>2022-06-21T14:32:42Z</time>
      </trkpt>
      <trkpt lat="45.93096" lon="-0.96064">
        <ele>5.3</ele>
        <time>2022-06-21T14:32:43Z</time>
      </trkpt>
      <trkpt lat="45.93095" lon="-0.96065">
        <ele>5.3</ele>
        <time>2022-06-21T14:32:44Z</time>
      </trkpt>
      <trkpt lat="45.93094" lon="-0.96067">
        <ele>5.3</ele>
        <time>2022-06-21T14:32:46Z</time>
      </trkpt>
      <trkpt lat="45.93093" lon="-0.96068">
        <ele>5.3</ele>
        <time>2022-06-21T14:32:47Z</time>
      </trkpt>
      <trkpt lat="45.93092" lon="-0.9607">
        <ele>5.3</ele>
        <time>2022-06-21T14:32:48Z</time>
      </trkpt>
      <trkpt lat="45.93091" lon="-0.96071">
        <ele>5.3</ele>
        <time>2022-06-21T14:32:49Z</time>
      </trkpt>
      <trkpt lat="45.93091" lon="-0.96072">
        <ele>5.3</ele>
        <time>2022-06-21T14:32:50Z</time>
      </trkpt>
      <trkpt lat="45.93089" lon="-0.96074">
        <ele>5.3</ele>
        <time>2022-06-21T14:32:51Z</time>
      </trkpt>
      <trkpt lat="45.93088" lon="-0.96075">
        <ele>5.3</ele>
        <time>2022-06-21T14:32:52Z</time>
      </trkpt>
      <trkpt lat="45.93088" lon="-0.96075">
        <ele>5.3</ele>
        <time>2022-06-21T14:32:53Z</time>
      </trkpt>
      <trkpt lat="45.93086" lon="-0.96077">
        <ele>5.3</ele>
        <time>2022-06-21T14:32:54Z</time>
      </trkpt>
      <trkpt lat="45.93085" lon="-0.96077">
        <ele>5.3</ele>
        <time>2022-06-21T14:32:56Z</time>
      </trkpt>
      <trkpt lat="45.93084" lon="-0.96077">
        <ele>5.3</ele>
        <time>2022-06-21T14:32:57Z</time>
      </trkpt>
      <trkpt lat="45.93085" lon="-0.96078">
        <ele>5.3</ele>
        <time>2022-06-21T14:32:58Z</time>
      </trkpt>
      <trkpt lat="45.93085" lon="-0.96079">
        <ele>5.3</ele>
        <time>2022-06-21T14:32:59Z</time>
      </trkpt>
      <trkpt lat="45.93085" lon="-0.96079">
        <ele>5.3</ele>
        <time>2022-06-21T14:33:00Z</time>
      </trkpt>
      <trkpt lat="45.93084" lon="-0.96079">
        <ele>5.3</ele>
        <time>2022-06-21T14:33:01Z</time>
      </trkpt>
      <trkpt lat="45.93082" lon="-0.96079">
        <ele>5.3</ele>
        <time>2022-06-21T14:33:02Z</time>
      </trkpt>
      <trkpt lat="45.93081" lon="-0.9608">
        <ele>5.3</ele>
        <time>2022-06-21T14:33:04Z</time>
      </trkpt>
      <trkpt lat="45.9308" lon="-0.9608">
        <ele>5.3</ele>
        <time>2022-06-21T14:33:05Z</time>
      </trkpt>
      <trkpt lat="45.93078" lon="-0.9608">
        <ele>5.3</ele>
        <time>2022-06-21T14:33:06Z</time>
      </trkpt>
      <trkpt lat="45.93076" lon="-0.96081">
        <ele>5.3</ele>
        <time>2022-06-21T14:33:07Z</time>
      </trkpt>
      <trkpt lat="45.93075" lon="-0.96082">
        <ele>5.3</ele>
        <time>2022-06-21T14:33:08Z</time>
      </trkpt>
      <trkpt lat="45.93072" lon="-0.96083">
        <ele>5.3</ele>
        <time>2022-06-21T14:33:09Z</time>
      </trkpt>
      <trkpt lat="45.93071" lon="-0.96084">
        <ele>5.3</ele>
        <time>2022-06-21T14:33:10Z</time>
      </trkpt>
      <trkpt lat="45.93068" lon="-0.96086">
        <ele>5.3</ele>
        <time>2022-06-21T14:33:11Z</time>
      </trkpt>
      <trkpt lat="45.93068" lon="-0.96087">
        <ele>5.3</ele>
        <time>2022-06-21T14:33:13Z</time>
      </trkpt>
      <trkpt lat="45.93067" lon="-0.96088">
        <ele>5.3</ele>
        <time>2022-06-21T14:33:14Z</time>
      </trkpt>
      <trkpt lat="45.93066" lon="-0.96089">
        <ele>5.3</ele>
        <time>2022-06-21T14:33:15Z</time>
      </trkpt>
      <trkpt lat="45.93065" lon="-0.9609">
        <ele>5.3</ele>
        <time>2022-06-21T14:33:16Z</time>
      </trkpt>
      <trkpt lat="45.93064" lon="-0.96092">
        <ele>5.3</ele>
        <time>2022-06-21T14:33:17Z</time>
      </trkpt>
      <trkpt lat="45.93063" lon="-0.96093">
        <ele>5.3</ele>
        <time>2022-06-21T14:33:18Z</time>
      </trkpt>
      <trkpt lat="45.93063" lon="-0.96094">
        <ele>5.3</ele>
        <time>2022-06-21T14:33:19Z</time>
      </trkpt>
      <trkpt lat="45.93062" lon="-0.96096">
        <ele>5.3</ele>
        <time>2022-06-21T14:33:21Z</time>
      </trkpt>
      <trkpt lat="45.93062" lon="-0.96098">
        <ele>5.3</ele>
        <time>2022-06-21T14:33:22Z</time>
      </trkpt>
      <trkpt lat="45.93062" lon="-0.96099">
        <ele>5.3</ele>
        <time>2022-06-21T14:33:23Z</time>
      </trkpt>
      <trkpt lat="45.93062" lon="-0.96101">
        <ele>5.3</ele>
        <time>2022-06-21T14:33:24Z</time>
      </trkpt>
      <trkpt lat="45.93061" lon="-0.96102">
        <ele>5.3</ele>
        <time>2022-06-21T14:33:25Z</time>
      </trkpt>
      <trkpt lat="45.93061" lon="-0.96103">
        <ele>5.3</ele>
        <time>2022-06-21T14:33:26Z</time>
      </trkpt>
      <trkpt lat="45.9306" lon="-0.96104">
        <ele>5.3</ele>
        <time>2022-06-21T14:33:28Z</time>
      </trkpt>
      <trkpt lat="45.9306" lon="-0.96105">
        <ele>5.3</ele>
        <time>2022-06-21T14:33:29Z</time>
      </trkpt>
      <trkpt lat="45.93059" lon="-0.96105">
        <ele>5.3</ele>
        <time>2022-06-21T14:33:30Z</time>
      </trkpt>
      <trkpt lat="45.93058" lon="-0.96105">
        <ele>5.3</ele>
        <time>2022-06-21T14:33:32Z</time>
      </trkpt>
      <trkpt lat="45.93057" lon="-0.96105">
        <ele>5.3</ele>
        <time>2022-06-21T14:33:33Z</time>
      </trkpt>
      <trkpt lat="45.93056" lon="-0.96105">
        <ele>5.3</ele>
        <time>2022-06-21T14:33:34Z</time>
      </trkpt>
      <trkpt lat="45.93055" lon="-0.96105">
        <ele>5.3</ele>
        <time>2022-06-21T14:33:35Z</time>
      </trkpt>
      <trkpt lat="45.93054" lon="-0.96102">
        <ele>5.3</ele>
        <time>2022-06-21T14:33:36Z</time>
      </trkpt>
      <trkpt lat="45.93053" lon="-0.96101">
        <ele>5.3</ele>
        <time>2022-06-21T14:33:37Z</time>
      </trkpt>
      <trkpt lat="45.93052" lon="-0.961">
        <ele>5.3</ele>
        <time>2022-06-21T14:33:38Z</time>
      </trkpt>
      <trkpt lat="45.93051" lon="-0.96099">
        <ele>5.3</ele>
        <time>2022-06-21T14:33:40Z</time>
      </trkpt>
      <trkpt lat="45.9305" lon="-0.96098">
        <ele>5.3</ele>
        <time>2022-06-21T14:33:41Z</time>
      </trkpt>
      <trkpt lat="45.93049" lon="-0.96096">
        <ele>5.3</ele>
        <time>2022-06-21T14:33:42Z</time>
      </trkpt>
      <trkpt lat="45.93049" lon="-0.96093">
        <ele>5.3</ele>
        <time>2022-06-21T14:33:43Z</time>
      </trkpt>
      <trkpt lat="45.93049" lon="-0.96088">
        <ele>5.3</ele>
        <time>2022-06-21T14:33:45Z</time>
      </trkpt>
      <trkpt lat="45.93049" lon="-0.96087">
        <ele>5.3</ele>
        <time>2022-06-21T14:33:46Z</time>
      </trkpt>
      <trkpt lat="45.9305" lon="-0.96083">
        <ele>5.3</ele>
        <time>2022-06-21T14:33:47Z</time>
      </trkpt>
      <trkpt lat="45.9305" lon="-0.96082">
        <ele>5.3</ele>
        <time>2022-06-21T14:33:48Z</time>
      </trkpt>
      <trkpt lat="45.9305" lon="-0.96078">
        <ele>5.3</ele>
        <time>2022-06-21T14:33:49Z</time>
      </trkpt>
      <trkpt lat="45.9305" lon="-0.96076">
        <ele>5.3</ele>
        <time>2022-06-21T14:33:50Z</time>
      </trkpt>
      <trkpt lat="45.93049" lon="-0.96074">
        <ele>5.3</ele>
        <time>2022-06-21T14:33:51Z</time>
      </trkpt>
      <trkpt lat="45.93049" lon="-0.96071">
        <ele>5.3</ele>
        <time>2022-06-21T14:33:52Z</time>
      </trkpt>
      <trkpt lat="45.93049" lon="-0.96069">
        <ele>5.3</ele>
        <time>2022-06-21T14:33:54Z</time>
      </trkpt>
      <trkpt lat="45.93048" lon="-0.96067">
        <ele>5.3</ele>
        <time>2022-06-21T14:33:55Z</time>
      </trkpt>
      <trkpt lat="45.93048" lon="-0.96063">
        <ele>5.3</ele>
        <time>2022-06-21T14:33:56Z</time>
      </trkpt>
      <trkpt lat="45.93047" lon="-0.96062">
        <ele>5.3</ele>
        <time>2022-06-21T14:33:57Z</time>
      </trkpt>
      <trkpt lat="45.93047" lon="-0.96061">
        <ele>5.3</ele>
        <time>2022-06-21T14:33:58Z</time>
      </trkpt>
      <trkpt lat="45.93047" lon="-0.9606">
        <ele>5.3</ele>
        <time>2022-06-21T14:33:59Z</time>
      </trkpt>
      <trkpt lat="45.93046" lon="-0.96058">
        <ele>5.3</ele>
        <time>2022-06-21T14:34:00Z</time>
      </trkpt>
      <trkpt lat="45.93046" lon="-0.96057">
        <ele>5.3</ele>
        <time>2022-06-21T14:34:01Z</time>
      </trkpt>
      <trkpt lat="45.93046" lon="-0.96056">
        <ele>5.3</ele>
        <time>2022-06-21T14:34:03Z</time>
      </trkpt>
      <trkpt lat="45.93046" lon="-0.96054">
        <ele>5.3</ele>
        <time>2022-06-21T14:34:04Z</time>
      </trkpt>
      <trkpt lat="45.93045" lon="-0.96052">
        <ele>5.3</ele>
        <time>2022-06-21T14:34:05Z</time>
      </trkpt>
      <trkpt lat="45.93045" lon="-0.96049">
        <ele>5.3</ele>
        <time>2022-06-21T14:34:06Z</time>
      </trkpt>
      <trkpt lat="45.93045" lon="-0.96048">
        <ele>5.3</ele>
        <time>2022-06-21T14:34:07Z</time>
      </trkpt>
      <trkpt lat="45.93045" lon="-0.96046">
        <ele>5.3</ele>
        <time>2022-06-21T14:34:08Z</time>
      </trkpt>
      <trkpt lat="45.93044" lon="-0.96045">
        <ele>5.2</ele>
        <time>2022-06-21T14:34:09Z</time>
      </trkpt>
      <trkpt lat="45.93044" lon="-0.96043">
        <ele>5.2</ele>
        <time>2022-06-21T14:34:11Z</time>
      </trkpt>
      <trkpt lat="45.93043" lon="-0.96041">
        <ele>5.2</ele>
        <time>2022-06-21T14:34:12Z</time>
      </trkpt>
      <trkpt lat="45.93043" lon="-0.96039">
        <ele>5.2</ele>
        <time>2022-06-21T14:34:13Z</time>
      </trkpt>
      <trkpt lat="45.93043" lon="-0.96038">
        <ele>5.2</ele>
        <time>2022-06-21T14:34:14Z</time>
      </trkpt>
      <trkpt lat="45.93042" lon="-0.96036">
        <ele>5.2</ele>
        <time>2022-06-21T14:34:15Z</time>
      </trkpt>
      <trkpt lat="45.93042" lon="-0.96034">
        <ele>5.2</ele>
        <time>2022-06-21T14:34:17Z</time>
      </trkpt>
      <trkpt lat="45.93041" lon="-0.96033">
        <ele>5.2</ele>
        <time>2022-06-21T14:34:18Z</time>
      </trkpt>
      <trkpt lat="45.93041" lon="-0.96032">
        <ele>5.2</ele>
        <time>2022-06-21T14:34:19Z</time>
      </trkpt>
      <trkpt lat="45.9304" lon="-0.96031">
        <ele>5.2</ele>
        <time>2022-06-21T14:34:20Z</time>
      </trkpt>
      <trkpt lat="45.93039" lon="-0.9603">
        <ele>5.2</ele>
        <time>2022-06-21T14:34:21Z</time>
      </trkpt>
      <trkpt lat="45.93037" lon="-0.96029">
        <ele>5.1</ele>
        <time>2022-06-21T14:34:23Z</time>
      </trkpt>
      <trkpt lat="45.93036" lon="-0.96029">
        <ele>5.1</ele>
        <time>2022-06-21T14:34:24Z</time>
      </trkpt>
      <trkpt lat="45.93036" lon="-0.96029">
        <ele>5.1</ele>
        <time>2022-06-21T14:34:25Z</time>
      </trkpt>
      <trkpt lat="45.93036" lon="-0.9603">
        <ele>5.1</ele>
        <time>2022-06-21T14:34:26Z</time>
      </trkpt>
      <trkpt lat="45.93036" lon="-0.96031">
        <ele>5.1</ele>
        <time>2022-06-21T14:34:27Z</time>
      </trkpt>
      <trkpt lat="45.93035" lon="-0.96031">
        <ele>5.1</ele>
        <time>2022-06-21T14:34:28Z</time>
      </trkpt>
      <trkpt lat="45.93035" lon="-0.9603">
        <ele>5.1</ele>
        <time>2022-06-21T14:34:29Z</time>
      </trkpt>
      <trkpt lat="45.93034" lon="-0.96029">
        <ele>5.1</ele>
        <time>2022-06-21T14:34:30Z</time>
      </trkpt>
      <trkpt lat="45.93034" lon="-0.96027">
        <ele>5.1</ele>
        <time>2022-06-21T14:34:31Z</time>
      </trkpt>
      <trkpt lat="45.93033" lon="-0.96025">
        <ele>5.1</ele>
        <time>2022-06-21T14:34:32Z</time>
      </trkpt>
      <trkpt lat="45.93032" lon="-0.96023">
        <ele>5.1</ele>
        <time>2022-06-21T14:34:34Z</time>
      </trkpt>
      <trkpt lat="45.93031" lon="-0.96022">
        <ele>5.1</ele>
        <time>2022-06-21T14:34:35Z</time>
      </trkpt>
      <trkpt lat="45.93031" lon="-0.9602">
        <ele>5.1</ele>
        <time>2022-06-21T14:34:36Z</time>
      </trkpt>
      <trkpt lat="45.9303" lon="-0.96018">
        <ele>5</ele>
        <time>2022-06-21T14:34:37Z</time>
      </trkpt>
      <trkpt lat="45.93029" lon="-0.96015">
        <ele>5</ele>
        <time>2022-06-21T14:34:38Z</time>
      </trkpt>
      <trkpt lat="45.93028" lon="-0.96013">
        <ele>5</ele>
        <time>2022-06-21T14:34:39Z</time>
      </trkpt>
      <trkpt lat="45.93028" lon="-0.96011">
        <ele>5</ele>
        <time>2022-06-21T14:34:40Z</time>
      </trkpt>
      <trkpt lat="45.93027" lon="-0.96009">
        <ele>5</ele>
        <time>2022-06-21T14:34:42Z</time>
      </trkpt>
      <trkpt lat="45.93027" lon="-0.96007">
        <ele>5</ele>
        <time>2022-06-21T14:34:43Z</time>
      </trkpt>
      <trkpt lat="45.93026" lon="-0.96006">
        <ele>5</ele>
        <time>2022-06-21T14:34:44Z</time>
      </trkpt>
      <trkpt lat="45.93025" lon="-0.96003">
        <ele>5</ele>
        <time>2022-06-21T14:34:45Z</time>
      </trkpt>
      <trkpt lat="45.93024" lon="-0.96002">
        <ele>5</ele>
        <time>2022-06-21T14:34:46Z</time>
      </trkpt>
      <trkpt lat="45.93024" lon="-0.96001">
        <ele>5</ele>
        <time>2022-06-21T14:34:47Z</time>
      </trkpt>
      <trkpt lat="45.93023" lon="-0.95999">
        <ele>4.9</ele>
        <time>2022-06-21T14:34:48Z</time>
      </trkpt>
      <trkpt lat="45.93022" lon="-0.95997">
        <ele>4.9</ele>
        <time>2022-06-21T14:34:49Z</time>
      </trkpt>
      <trkpt lat="45.9302" lon="-0.95995">
        <ele>4.9</ele>
        <time>2022-06-21T14:34:51Z</time>
      </trkpt>
      <trkpt lat="45.93019" lon="-0.95994">
        <ele>4.9</ele>
        <time>2022-06-21T14:34:52Z</time>
      </trkpt>
      <trkpt lat="45.93017" lon="-0.95989">
        <ele>4.9</ele>
        <time>2022-06-21T14:34:55Z</time>
      </trkpt>
      <trkpt lat="45.93017" lon="-0.95989">
        <ele>4.9</ele>
        <time>2022-06-21T14:34:56Z</time>
      </trkpt>
      <trkpt lat="45.93018" lon="-0.95991">
        <ele>4.9</ele>
        <time>2022-06-21T14:34:57Z</time>
      </trkpt>
      <trkpt lat="45.93018" lon="-0.95992">
        <ele>4.9</ele>
        <time>2022-06-21T14:34:58Z</time>
      </trkpt>
      <trkpt lat="45.93019" lon="-0.95992">
        <ele>4.9</ele>
        <time>2022-06-21T14:34:59Z</time>
      </trkpt>
      <trkpt lat="45.93019" lon="-0.95992">
        <ele>4.9</ele>
        <time>2022-06-21T14:35:00Z</time>
      </trkpt>
      <trkpt lat="45.93019" lon="-0.95992">
        <ele>4.9</ele>
        <time>2022-06-21T14:35:01Z</time>
      </trkpt>
      <trkpt lat="45.93019" lon="-0.95992">
        <ele>4.9</ele>
        <time>2022-06-21T14:35:02Z</time>
      </trkpt>
      <trkpt lat="45.93019" lon="-0.95992">
        <ele>4.9</ele>
        <time>2022-06-21T14:35:03Z</time>
      </trkpt>
      <trkpt lat="45.93019" lon="-0.95993">
        <ele>4.9</ele>
        <time>2022-06-21T14:35:04Z</time>
      </trkpt>
      <trkpt lat="45.93019" lon="-0.95993">
        <ele>4.9</ele>
        <time>2022-06-21T14:35:05Z</time>
      </trkpt>
      <trkpt lat="45.93019" lon="-0.95993">
        <ele>4.9</ele>
        <time>2022-06-21T14:35:06Z</time>
      </trkpt>
      <trkpt lat="45.93019" lon="-0.95993">
        <ele>4.9</ele>
        <time>2022-06-21T14:35:07Z</time>
      </trkpt>
      <trkpt lat="45.93019" lon="-0.95993">
        <ele>4.9</ele>
        <time>2022-06-21T14:35:08Z</time>
      </trkpt>
      <trkpt lat="45.93019" lon="-0.95993">
        <ele>4.8</ele>
        <time>2022-06-21T14:35:09Z</time>
      </trkpt>
      <trkpt lat="45.9302" lon="-0.95995">
        <ele>4.8</ele>
        <time>2022-06-21T14:35:10Z</time>
      </trkpt>
      <trkpt lat="45.9302" lon="-0.95996">
        <ele>4.8</ele>
        <time>2022-06-21T14:35:11Z</time>
      </trkpt>
      <trkpt lat="45.9302" lon="-0.95996">
        <ele>4.8</ele>
        <time>2022-06-21T14:35:12Z</time>
      </trkpt>
      <trkpt lat="45.9302" lon="-0.95996">
        <ele>4.8</ele>
        <time>2022-06-21T14:35:13Z</time>
      </trkpt>
      <trkpt lat="45.9302" lon="-0.95996">
        <ele>4.8</ele>
        <time>2022-06-21T14:35:14Z</time>
      </trkpt>
      <trkpt lat="45.93019" lon="-0.95995">
        <ele>4.8</ele>
        <time>2022-06-21T14:35:15Z</time>
      </trkpt>
      <trkpt lat="45.93019" lon="-0.95995">
        <ele>4.8</ele>
        <time>2022-06-21T14:35:16Z</time>
      </trkpt>
      <trkpt lat="45.93019" lon="-0.95996">
        <ele>4.8</ele>
        <time>2022-06-21T14:35:17Z</time>
      </trkpt>
      <trkpt lat="45.93018" lon="-0.95998">
        <ele>4.8</ele>
        <time>2022-06-21T14:35:19Z</time>
      </trkpt>
      <trkpt lat="45.93018" lon="-0.95998">
        <ele>4.8</ele>
        <time>2022-06-21T14:35:20Z</time>
      </trkpt>
      <trkpt lat="45.93017" lon="-0.95998">
        <ele>4.8</ele>
        <time>2022-06-21T14:35:21Z</time>
      </trkpt>
      <trkpt lat="45.93017" lon="-0.95998">
        <ele>4.8</ele>
        <time>2022-06-21T14:35:22Z</time>
      </trkpt>
      <trkpt lat="45.93017" lon="-0.95999">
        <ele>4.8</ele>
        <time>2022-06-21T14:35:23Z</time>
      </trkpt>
      <trkpt lat="45.93016" lon="-0.95999">
        <ele>4.8</ele>
        <time>2022-06-21T14:35:25Z</time>
      </trkpt>
      <trkpt lat="45.93015" lon="-0.95999">
        <ele>4.8</ele>
        <time>2022-06-21T14:35:26Z</time>
      </trkpt>
      <trkpt lat="45.93014" lon="-0.95999">
        <ele>4.8</ele>
        <time>2022-06-21T14:35:27Z</time>
      </trkpt>
      <trkpt lat="45.93014" lon="-0.95998">
        <ele>4.8</ele>
        <time>2022-06-21T14:35:28Z</time>
      </trkpt>
      <trkpt lat="45.93013" lon="-0.95997">
        <ele>4.8</ele>
        <time>2022-06-21T14:35:29Z</time>
      </trkpt>
      <trkpt lat="45.93013" lon="-0.95996">
        <ele>4.7</ele>
        <time>2022-06-21T14:35:30Z</time>
      </trkpt>
      <trkpt lat="45.93012" lon="-0.95993">
        <ele>4.7</ele>
        <time>2022-06-21T14:35:32Z</time>
      </trkpt>
      <trkpt lat="45.93012" lon="-0.95992">
        <ele>4.7</ele>
        <time>2022-06-21T14:35:33Z</time>
      </trkpt>
      <trkpt lat="45.93011" lon="-0.95991">
        <ele>4.7</ele>
        <time>2022-06-21T14:35:34Z</time>
      </trkpt>
      <trkpt lat="45.93011" lon="-0.95988">
        <ele>4.7</ele>
        <time>2022-06-21T14:35:35Z</time>
      </trkpt>
      <trkpt lat="45.93011" lon="-0.95986">
        <ele>4.7</ele>
        <time>2022-06-21T14:35:36Z</time>
      </trkpt>
      <trkpt lat="45.93012" lon="-0.95985">
        <ele>4.7</ele>
        <time>2022-06-21T14:35:37Z</time>
      </trkpt>
      <trkpt lat="45.93012" lon="-0.95983">
        <ele>4.7</ele>
        <time>2022-06-21T14:35:38Z</time>
      </trkpt>
      <trkpt lat="45.93012" lon="-0.95981">
        <ele>4.7</ele>
        <time>2022-06-21T14:35:40Z</time>
      </trkpt>
      <trkpt lat="45.93012" lon="-0.95979">
        <ele>4.7</ele>
        <time>2022-06-21T14:35:41Z</time>
      </trkpt>
      <trkpt lat="45.93012" lon="-0.95977">
        <ele>4.6</ele>
        <time>2022-06-21T14:35:42Z</time>
      </trkpt>
      <trkpt lat="45.93012" lon="-0.95976">
        <ele>4.6</ele>
        <time>2022-06-21T14:35:43Z</time>
      </trkpt>
      <trkpt lat="45.93012" lon="-0.95973">
        <ele>4.7</ele>
        <time>2022-06-21T14:35:44Z</time>
      </trkpt>
      <trkpt lat="45.93012" lon="-0.95972">
        <ele>4.7</ele>
        <time>2022-06-21T14:35:45Z</time>
      </trkpt>
      <trkpt lat="45.93012" lon="-0.95971">
        <ele>4.7</ele>
        <time>2022-06-21T14:35:46Z</time>
      </trkpt>
      <trkpt lat="45.93012" lon="-0.95969">
        <ele>4.7</ele>
        <time>2022-06-21T14:35:48Z</time>
      </trkpt>
      <trkpt lat="45.93013" lon="-0.95967">
        <ele>4.7</ele>
        <time>2022-06-21T14:35:49Z</time>
      </trkpt>
      <trkpt lat="45.93014" lon="-0.95964">
        <ele>4.7</ele>
        <time>2022-06-21T14:35:50Z</time>
      </trkpt>
      <trkpt lat="45.93014" lon="-0.95963">
        <ele>4.7</ele>
        <time>2022-06-21T14:35:51Z</time>
      </trkpt>
      <trkpt lat="45.93015" lon="-0.95962">
        <ele>4.7</ele>
        <time>2022-06-21T14:35:52Z</time>
      </trkpt>
      <trkpt lat="45.93016" lon="-0.95962">
        <ele>4.7</ele>
        <time>2022-06-21T14:35:53Z</time>
      </trkpt>
      <trkpt lat="45.93017" lon="-0.95961">
        <ele>4.7</ele>
        <time>2022-06-21T14:35:54Z</time>
      </trkpt>
      <trkpt lat="45.93018" lon="-0.95961">
        <ele>4.7</ele>
        <time>2022-06-21T14:35:56Z</time>
      </trkpt>
      <trkpt lat="45.9302" lon="-0.9596">
        <ele>4.7</ele>
        <time>2022-06-21T14:35:57Z</time>
      </trkpt>
      <trkpt lat="45.93021" lon="-0.95959">
        <ele>4.7</ele>
        <time>2022-06-21T14:35:58Z</time>
      </trkpt>
      <trkpt lat="45.93021" lon="-0.95958">
        <ele>4.7</ele>
        <time>2022-06-21T14:35:59Z</time>
      </trkpt>
      <trkpt lat="45.9302" lon="-0.95955">
        <ele>4.7</ele>
        <time>2022-06-21T14:36:00Z</time>
      </trkpt>
      <trkpt lat="45.9302" lon="-0.95953">
        <ele>4.7</ele>
        <time>2022-06-21T14:36:01Z</time>
      </trkpt>
      <trkpt lat="45.93019" lon="-0.95952">
        <ele>4.7</ele>
        <time>2022-06-21T14:36:02Z</time>
      </trkpt>
      <trkpt lat="45.93019" lon="-0.95949">
        <ele>4.7</ele>
        <time>2022-06-21T14:36:04Z</time>
      </trkpt>
      <trkpt lat="45.93019" lon="-0.95948">
        <ele>4.7</ele>
        <time>2022-06-21T14:36:05Z</time>
      </trkpt>
      <trkpt lat="45.93019" lon="-0.95947">
        <ele>4.7</ele>
        <time>2022-06-21T14:36:06Z</time>
      </trkpt>
      <trkpt lat="45.93018" lon="-0.95945">
        <ele>4.7</ele>
        <time>2022-06-21T14:36:07Z</time>
      </trkpt>
      <trkpt lat="45.93018" lon="-0.95944">
        <ele>4.7</ele>
        <time>2022-06-21T14:36:08Z</time>
      </trkpt>
      <trkpt lat="45.93018" lon="-0.95942">
        <ele>4.7</ele>
        <time>2022-06-21T14:36:09Z</time>
      </trkpt>
      <trkpt lat="45.93018" lon="-0.95941">
        <ele>4.7</ele>
        <time>2022-06-21T14:36:10Z</time>
      </trkpt>
      <trkpt lat="45.93017" lon="-0.95939">
        <ele>4.7</ele>
        <time>2022-06-21T14:36:12Z</time>
      </trkpt>
      <trkpt lat="45.93017" lon="-0.95937">
        <ele>4.7</ele>
        <time>2022-06-21T14:36:13Z</time>
      </trkpt>
      <trkpt lat="45.93016" lon="-0.95935">
        <ele>4.7</ele>
        <time>2022-06-21T14:36:14Z</time>
      </trkpt>
      <trkpt lat="45.93016" lon="-0.95934">
        <ele>4.7</ele>
        <time>2022-06-21T14:36:15Z</time>
      </trkpt>
      <trkpt lat="45.93016" lon="-0.95932">
        <ele>4.7</ele>
        <time>2022-06-21T14:36:16Z</time>
      </trkpt>
      <trkpt lat="45.93016" lon="-0.9593">
        <ele>4.7</ele>
        <time>2022-06-21T14:36:17Z</time>
      </trkpt>
      <trkpt lat="45.93015" lon="-0.95929">
        <ele>4.7</ele>
        <time>2022-06-21T14:36:18Z</time>
      </trkpt>
      <trkpt lat="45.93015" lon="-0.95927">
        <ele>4.7</ele>
        <time>2022-06-21T14:36:19Z</time>
      </trkpt>
      <trkpt lat="45.93015" lon="-0.95925">
        <ele>4.7</ele>
        <time>2022-06-21T14:36:20Z</time>
      </trkpt>
      <trkpt lat="45.93015" lon="-0.95923">
        <ele>4.7</ele>
        <time>2022-06-21T14:36:22Z</time>
      </trkpt>
      <trkpt lat="45.93015" lon="-0.95922">
        <ele>4.7</ele>
        <time>2022-06-21T14:36:23Z</time>
      </trkpt>
      <trkpt lat="45.93014" lon="-0.9592">
        <ele>4.7</ele>
        <time>2022-06-21T14:36:24Z</time>
      </trkpt>
      <trkpt lat="45.93014" lon="-0.95919">
        <ele>4.7</ele>
        <time>2022-06-21T14:36:25Z</time>
      </trkpt>
      <trkpt lat="45.93014" lon="-0.95919">
        <ele>4.7</ele>
        <time>2022-06-21T14:36:26Z</time>
      </trkpt>
      <trkpt lat="45.93014" lon="-0.95918">
        <ele>4.7</ele>
        <time>2022-06-21T14:36:27Z</time>
      </trkpt>
      <trkpt lat="45.93014" lon="-0.95917">
        <ele>4.7</ele>
        <time>2022-06-21T14:36:28Z</time>
      </trkpt>
      <trkpt lat="45.93013" lon="-0.95915">
        <ele>4.7</ele>
        <time>2022-06-21T14:36:30Z</time>
      </trkpt>
      <trkpt lat="45.93013" lon="-0.95914">
        <ele>4.7</ele>
        <time>2022-06-21T14:36:31Z</time>
      </trkpt>
      <trkpt lat="45.93013" lon="-0.95912">
        <ele>4.7</ele>
        <time>2022-06-21T14:36:32Z</time>
      </trkpt>
      <trkpt lat="45.93013" lon="-0.95911">
        <ele>4.7</ele>
        <time>2022-06-21T14:36:33Z</time>
      </trkpt>
      <trkpt lat="45.93012" lon="-0.95908">
        <ele>4.7</ele>
        <time>2022-06-21T14:36:34Z</time>
      </trkpt>
      <trkpt lat="45.93012" lon="-0.95906">
        <ele>4.7</ele>
        <time>2022-06-21T14:36:35Z</time>
      </trkpt>
      <trkpt lat="45.93012" lon="-0.95905">
        <ele>4.7</ele>
        <time>2022-06-21T14:36:36Z</time>
      </trkpt>
      <trkpt lat="45.93012" lon="-0.95903">
        <ele>4.7</ele>
        <time>2022-06-21T14:36:37Z</time>
      </trkpt>
      <trkpt lat="45.93012" lon="-0.95901">
        <ele>4.7</ele>
        <time>2022-06-21T14:36:38Z</time>
      </trkpt>
      <trkpt lat="45.93011" lon="-0.95899">
        <ele>4.7</ele>
        <time>2022-06-21T14:36:40Z</time>
      </trkpt>
      <trkpt lat="45.93011" lon="-0.95898">
        <ele>4.7</ele>
        <time>2022-06-21T14:36:41Z</time>
      </trkpt>
      <trkpt lat="45.93011" lon="-0.95896">
        <ele>4.7</ele>
        <time>2022-06-21T14:36:42Z</time>
      </trkpt>
      <trkpt lat="45.93011" lon="-0.95896">
        <ele>4.7</ele>
        <time>2022-06-21T14:36:43Z</time>
      </trkpt>
      <trkpt lat="45.93011" lon="-0.95895">
        <ele>4.7</ele>
        <time>2022-06-21T14:36:44Z</time>
      </trkpt>
      <trkpt lat="45.93011" lon="-0.95893">
        <ele>4.7</ele>
        <time>2022-06-21T14:36:45Z</time>
      </trkpt>
      <trkpt lat="45.93011" lon="-0.95892">
        <ele>4.7</ele>
        <time>2022-06-21T14:36:46Z</time>
      </trkpt>
      <trkpt lat="45.93011" lon="-0.9589">
        <ele>4.7</ele>
        <time>2022-06-21T14:36:47Z</time>
      </trkpt>
      <trkpt lat="45.93011" lon="-0.95889">
        <ele>4.7</ele>
        <time>2022-06-21T14:36:49Z</time>
      </trkpt>
      <trkpt lat="45.93011" lon="-0.95887">
        <ele>4.7</ele>
        <time>2022-06-21T14:36:50Z</time>
      </trkpt>
      <trkpt lat="45.93011" lon="-0.95886">
        <ele>4.7</ele>
        <time>2022-06-21T14:36:51Z</time>
      </trkpt>
      <trkpt lat="45.93011" lon="-0.95885">
        <ele>4.7</ele>
        <time>2022-06-21T14:36:52Z</time>
      </trkpt>
      <trkpt lat="45.93011" lon="-0.95883">
        <ele>4.7</ele>
        <time>2022-06-21T14:36:53Z</time>
      </trkpt>
      <trkpt lat="45.93011" lon="-0.95881">
        <ele>4.7</ele>
        <time>2022-06-21T14:36:54Z</time>
      </trkpt>
      <trkpt lat="45.93011" lon="-0.95879">
        <ele>4.7</ele>
        <time>2022-06-21T14:36:55Z</time>
      </trkpt>
      <trkpt lat="45.93011" lon="-0.95877">
        <ele>4.7</ele>
        <time>2022-06-21T14:36:56Z</time>
      </trkpt>
      <trkpt lat="45.93011" lon="-0.95875">
        <ele>4.7</ele>
        <time>2022-06-21T14:36:57Z</time>
      </trkpt>
      <trkpt lat="45.9301" lon="-0.95872">
        <ele>4.7</ele>
        <time>2022-06-21T14:36:59Z</time>
      </trkpt>
      <trkpt lat="45.9301" lon="-0.95869">
        <ele>4.7</ele>
        <time>2022-06-21T14:37:00Z</time>
      </trkpt>
      <trkpt lat="45.9301" lon="-0.95868">
        <ele>4.7</ele>
        <time>2022-06-21T14:37:01Z</time>
      </trkpt>
      <trkpt lat="45.9301" lon="-0.95864">
        <ele>4.7</ele>
        <time>2022-06-21T14:37:02Z</time>
      </trkpt>
      <trkpt lat="45.9301" lon="-0.95862">
        <ele>4.7</ele>
        <time>2022-06-21T14:37:03Z</time>
      </trkpt>
      <trkpt lat="45.9301" lon="-0.9586">
        <ele>4.7</ele>
        <time>2022-06-21T14:37:04Z</time>
      </trkpt>
      <trkpt lat="45.9301" lon="-0.95859">
        <ele>4.7</ele>
        <time>2022-06-21T14:37:05Z</time>
      </trkpt>
      <trkpt lat="45.9301" lon="-0.95857">
        <ele>4.7</ele>
        <time>2022-06-21T14:37:07Z</time>
      </trkpt>
      <trkpt lat="45.93009" lon="-0.95854">
        <ele>4.7</ele>
        <time>2022-06-21T14:37:08Z</time>
      </trkpt>
      <trkpt lat="45.93009" lon="-0.95853">
        <ele>4.7</ele>
        <time>2022-06-21T14:37:09Z</time>
      </trkpt>
      <trkpt lat="45.93009" lon="-0.95851">
        <ele>4.7</ele>
        <time>2022-06-21T14:37:10Z</time>
      </trkpt>
      <trkpt lat="45.93009" lon="-0.95849">
        <ele>4.7</ele>
        <time>2022-06-21T14:37:11Z</time>
      </trkpt>
      <trkpt lat="45.93008" lon="-0.95848">
        <ele>4.7</ele>
        <time>2022-06-21T14:37:12Z</time>
      </trkpt>
      <trkpt lat="45.93008" lon="-0.95847">
        <ele>4.7</ele>
        <time>2022-06-21T14:37:14Z</time>
      </trkpt>
      <trkpt lat="45.93007" lon="-0.95848">
        <ele>4.7</ele>
        <time>2022-06-21T14:37:15Z</time>
      </trkpt>
      <trkpt lat="45.93006" lon="-0.95848">
        <ele>4.7</ele>
        <time>2022-06-21T14:37:16Z</time>
      </trkpt>
      <trkpt lat="45.93005" lon="-0.95846">
        <ele>4.7</ele>
        <time>2022-06-21T14:37:17Z</time>
      </trkpt>
      <trkpt lat="45.93005" lon="-0.95844">
        <ele>4.7</ele>
        <time>2022-06-21T14:37:19Z</time>
      </trkpt>
      <trkpt lat="45.93004" lon="-0.95842">
        <ele>4.7</ele>
        <time>2022-06-21T14:37:20Z</time>
      </trkpt>
      <trkpt lat="45.93004" lon="-0.95841">
        <ele>4.7</ele>
        <time>2022-06-21T14:37:21Z</time>
      </trkpt>
      <trkpt lat="45.93004" lon="-0.95839">
        <ele>4.7</ele>
        <time>2022-06-21T14:37:22Z</time>
      </trkpt>
      <trkpt lat="45.93004" lon="-0.95836">
        <ele>4.7</ele>
        <time>2022-06-21T14:37:23Z</time>
      </trkpt>
      <trkpt lat="45.93003" lon="-0.95835">
        <ele>4.7</ele>
        <time>2022-06-21T14:37:24Z</time>
      </trkpt>
      <trkpt lat="45.93003" lon="-0.95833">
        <ele>4.7</ele>
        <time>2022-06-21T14:37:25Z</time>
      </trkpt>
      <trkpt lat="45.93003" lon="-0.95832">
        <ele>4.7</ele>
        <time>2022-06-21T14:37:27Z</time>
      </trkpt>
      <trkpt lat="45.93002" lon="-0.9583">
        <ele>4.7</ele>
        <time>2022-06-21T14:37:28Z</time>
      </trkpt>
      <trkpt lat="45.93002" lon="-0.95829">
        <ele>4.8</ele>
        <time>2022-06-21T14:37:29Z</time>
      </trkpt>
      <trkpt lat="45.93001" lon="-0.95828">
        <ele>4.8</ele>
        <time>2022-06-21T14:37:30Z</time>
      </trkpt>
      <trkpt lat="45.93001" lon="-0.95826">
        <ele>4.8</ele>
        <time>2022-06-21T14:37:31Z</time>
      </trkpt>
      <trkpt lat="45.93001" lon="-0.95825">
        <ele>4.8</ele>
        <time>2022-06-21T14:37:32Z</time>
      </trkpt>
      <trkpt lat="45.93001" lon="-0.95823">
        <ele>4.8</ele>
        <time>2022-06-21T14:37:33Z</time>
      </trkpt>
      <trkpt lat="45.93001" lon="-0.95821">
        <ele>4.8</ele>
        <time>2022-06-21T14:37:35Z</time>
      </trkpt>
      <trkpt lat="45.93001" lon="-0.95819">
        <ele>4.8</ele>
        <time>2022-06-21T14:37:36Z</time>
      </trkpt>
      <trkpt lat="45.93001" lon="-0.95818">
        <ele>4.8</ele>
        <time>2022-06-21T14:37:37Z</time>
      </trkpt>
      <trkpt lat="45.93001" lon="-0.95817">
        <ele>4.8</ele>
        <time>2022-06-21T14:37:38Z</time>
      </trkpt>
      <trkpt lat="45.93" lon="-0.95816">
        <ele>4.8</ele>
        <time>2022-06-21T14:37:39Z</time>
      </trkpt>
      <trkpt lat="45.93" lon="-0.95814">
        <ele>4.8</ele>
        <time>2022-06-21T14:37:40Z</time>
      </trkpt>
      <trkpt lat="45.93" lon="-0.95813">
        <ele>4.8</ele>
        <time>2022-06-21T14:37:41Z</time>
      </trkpt>
      <trkpt lat="45.93" lon="-0.95811">
        <ele>4.8</ele>
        <time>2022-06-21T14:37:42Z</time>
      </trkpt>
      <trkpt lat="45.93" lon="-0.9581">
        <ele>4.8</ele>
        <time>2022-06-21T14:37:43Z</time>
      </trkpt>
      <trkpt lat="45.93" lon="-0.95808">
        <ele>4.8</ele>
        <time>2022-06-21T14:37:45Z</time>
      </trkpt>
      <trkpt lat="45.93" lon="-0.95807">
        <ele>4.8</ele>
        <time>2022-06-21T14:37:46Z</time>
      </trkpt>
      <trkpt lat="45.93" lon="-0.95805">
        <ele>4.8</ele>
        <time>2022-06-21T14:37:47Z</time>
      </trkpt>
      <trkpt lat="45.93" lon="-0.95804">
        <ele>4.8</ele>
        <time>2022-06-21T14:37:48Z</time>
      </trkpt>
      <trkpt lat="45.93" lon="-0.95802">
        <ele>4.8</ele>
        <time>2022-06-21T14:37:49Z</time>
      </trkpt>
      <trkpt lat="45.92999" lon="-0.958">
        <ele>4.8</ele>
        <time>2022-06-21T14:37:50Z</time>
      </trkpt>
      <trkpt lat="45.92999" lon="-0.95798">
        <ele>4.8</ele>
        <time>2022-06-21T14:37:51Z</time>
      </trkpt>
      <trkpt lat="45.92999" lon="-0.95795">
        <ele>4.8</ele>
        <time>2022-06-21T14:37:53Z</time>
      </trkpt>
      <trkpt lat="45.92999" lon="-0.95794">
        <ele>4.8</ele>
        <time>2022-06-21T14:37:54Z</time>
      </trkpt>
      <trkpt lat="45.92999" lon="-0.95793">
        <ele>4.8</ele>
        <time>2022-06-21T14:37:55Z</time>
      </trkpt>
      <trkpt lat="45.92998" lon="-0.9579">
        <ele>4.8</ele>
        <time>2022-06-21T14:37:56Z</time>
      </trkpt>
      <trkpt lat="45.92998" lon="-0.95788">
        <ele>4.7</ele>
        <time>2022-06-21T14:37:57Z</time>
      </trkpt>
      <trkpt lat="45.92998" lon="-0.95787">
        <ele>4.7</ele>
        <time>2022-06-21T14:37:58Z</time>
      </trkpt>
      <trkpt lat="45.92997" lon="-0.95785">
        <ele>4.7</ele>
        <time>2022-06-21T14:37:59Z</time>
      </trkpt>
      <trkpt lat="45.92997" lon="-0.95783">
        <ele>4.7</ele>
        <time>2022-06-21T14:38:01Z</time>
      </trkpt>
      <trkpt lat="45.92997" lon="-0.95782">
        <ele>4.7</ele>
        <time>2022-06-21T14:38:02Z</time>
      </trkpt>
      <trkpt lat="45.92996" lon="-0.95781">
        <ele>4.7</ele>
        <time>2022-06-21T14:38:03Z</time>
      </trkpt>
      <trkpt lat="45.92996" lon="-0.9578">
        <ele>4.7</ele>
        <time>2022-06-21T14:38:04Z</time>
      </trkpt>
      <trkpt lat="45.92995" lon="-0.95778">
        <ele>4.7</ele>
        <time>2022-06-21T14:38:05Z</time>
      </trkpt>
      <trkpt lat="45.92995" lon="-0.95778">
        <ele>4.7</ele>
        <time>2022-06-21T14:38:06Z</time>
      </trkpt>
      <trkpt lat="45.92995" lon="-0.95777">
        <ele>4.7</ele>
        <time>2022-06-21T14:38:07Z</time>
      </trkpt>
      <trkpt lat="45.92994" lon="-0.95775">
        <ele>4.7</ele>
        <time>2022-06-21T14:38:08Z</time>
      </trkpt>
      <trkpt lat="45.92993" lon="-0.95773">
        <ele>4.7</ele>
        <time>2022-06-21T14:38:10Z</time>
      </trkpt>
      <trkpt lat="45.92993" lon="-0.95771">
        <ele>4.7</ele>
        <time>2022-06-21T14:38:11Z</time>
      </trkpt>
      <trkpt lat="45.92992" lon="-0.95769">
        <ele>4.7</ele>
        <time>2022-06-21T14:38:12Z</time>
      </trkpt>
      <trkpt lat="45.92992" lon="-0.95767">
        <ele>4.7</ele>
        <time>2022-06-21T14:38:13Z</time>
      </trkpt>
      <trkpt lat="45.92991" lon="-0.95764">
        <ele>4.7</ele>
        <time>2022-06-21T14:38:14Z</time>
      </trkpt>
      <trkpt lat="45.9299" lon="-0.95763">
        <ele>4.7</ele>
        <time>2022-06-21T14:38:16Z</time>
      </trkpt>
      <trkpt lat="45.92989" lon="-0.95762">
        <ele>4.7</ele>
        <time>2022-06-21T14:38:17Z</time>
      </trkpt>
      <trkpt lat="45.92989" lon="-0.9576">
        <ele>4.6</ele>
        <time>2022-06-21T14:38:18Z</time>
      </trkpt>
      <trkpt lat="45.92988" lon="-0.95759">
        <ele>4.6</ele>
        <time>2022-06-21T14:38:19Z</time>
      </trkpt>
      <trkpt lat="45.92987" lon="-0.95759">
        <ele>4.6</ele>
        <time>2022-06-21T14:38:20Z</time>
      </trkpt>
      <trkpt lat="45.92987" lon="-0.95758">
        <ele>4.6</ele>
        <time>2022-06-21T14:38:21Z</time>
      </trkpt>
      <trkpt lat="45.92986" lon="-0.95758">
        <ele>4.6</ele>
        <time>2022-06-21T14:38:22Z</time>
      </trkpt>
      <trkpt lat="45.92985" lon="-0.95757">
        <ele>4.6</ele>
        <time>2022-06-21T14:38:24Z</time>
      </trkpt>
      <trkpt lat="45.92984" lon="-0.95756">
        <ele>4.6</ele>
        <time>2022-06-21T14:38:25Z</time>
      </trkpt>
      <trkpt lat="45.92983" lon="-0.95756">
        <ele>4.6</ele>
        <time>2022-06-21T14:38:26Z</time>
      </trkpt>
      <trkpt lat="45.92982" lon="-0.95755">
        <ele>4.6</ele>
        <time>2022-06-21T14:38:27Z</time>
      </trkpt>
      <trkpt lat="45.92981" lon="-0.95754">
        <ele>4.6</ele>
        <time>2022-06-21T14:38:28Z</time>
      </trkpt>
      <trkpt lat="45.9298" lon="-0.95753">
        <ele>4.6</ele>
        <time>2022-06-21T14:38:29Z</time>
      </trkpt>
      <trkpt lat="45.92979" lon="-0.95752">
        <ele>4.6</ele>
        <time>2022-06-21T14:38:30Z</time>
      </trkpt>
      <trkpt lat="45.92978" lon="-0.95752">
        <ele>4.6</ele>
        <time>2022-06-21T14:38:31Z</time>
      </trkpt>
      <trkpt lat="45.92977" lon="-0.95751">
        <ele>4.6</ele>
        <time>2022-06-21T14:38:33Z</time>
      </trkpt>
      <trkpt lat="45.92976" lon="-0.9575">
        <ele>4.6</ele>
        <time>2022-06-21T14:38:34Z</time>
      </trkpt>
      <trkpt lat="45.92975" lon="-0.95749">
        <ele>4.6</ele>
        <time>2022-06-21T14:38:35Z</time>
      </trkpt>
      <trkpt lat="45.92974" lon="-0.95752">
        <ele>4.6</ele>
        <time>2022-06-21T14:38:36Z</time>
      </trkpt>
      <trkpt lat="45.92973" lon="-0.95749">
        <ele>4.6</ele>
        <time>2022-06-21T14:38:37Z</time>
      </trkpt>
      <trkpt lat="45.92973" lon="-0.95748">
        <ele>4.6</ele>
        <time>2022-06-21T14:38:38Z</time>
      </trkpt>
      <trkpt lat="45.92972" lon="-0.95746">
        <ele>4.6</ele>
        <time>2022-06-21T14:38:39Z</time>
      </trkpt>
      <trkpt lat="45.92972" lon="-0.95743">
        <ele>4.6</ele>
        <time>2022-06-21T14:38:40Z</time>
      </trkpt>
      <trkpt lat="45.9297" lon="-0.95738">
        <ele>4.6</ele>
        <time>2022-06-21T14:38:42Z</time>
      </trkpt>
      <trkpt lat="45.9297" lon="-0.95737">
        <ele>4.6</ele>
        <time>2022-06-21T14:38:43Z</time>
      </trkpt>
      <trkpt lat="45.92969" lon="-0.95736">
        <ele>4.6</ele>
        <time>2022-06-21T14:38:44Z</time>
      </trkpt>
      <trkpt lat="45.92968" lon="-0.95735">
        <ele>4.6</ele>
        <time>2022-06-21T14:38:45Z</time>
      </trkpt>
      <trkpt lat="45.92966" lon="-0.95737">
        <ele>4.7</ele>
        <time>2022-06-21T14:38:46Z</time>
      </trkpt>
      <trkpt lat="45.92966" lon="-0.95739">
        <ele>4.7</ele>
        <time>2022-06-21T14:38:47Z</time>
      </trkpt>
      <trkpt lat="45.92965" lon="-0.9574">
        <ele>4.7</ele>
        <time>2022-06-21T14:38:48Z</time>
      </trkpt>
      <trkpt lat="45.92964" lon="-0.9574">
        <ele>4.7</ele>
        <time>2022-06-21T14:38:49Z</time>
      </trkpt>
      <trkpt lat="45.92963" lon="-0.95739">
        <ele>4.7</ele>
        <time>2022-06-21T14:38:50Z</time>
      </trkpt>
      <trkpt lat="45.92963" lon="-0.95739">
        <ele>4.7</ele>
        <time>2022-06-21T14:38:52Z</time>
      </trkpt>
      <trkpt lat="45.92962" lon="-0.95738">
        <ele>4.7</ele>
        <time>2022-06-21T14:38:53Z</time>
      </trkpt>
      <trkpt lat="45.92961" lon="-0.95736">
        <ele>4.7</ele>
        <time>2022-06-21T14:38:54Z</time>
      </trkpt>
      <trkpt lat="45.9296" lon="-0.95735">
        <ele>4.7</ele>
        <time>2022-06-21T14:38:55Z</time>
      </trkpt>
      <trkpt lat="45.9296" lon="-0.95734">
        <ele>4.7</ele>
        <time>2022-06-21T14:38:56Z</time>
      </trkpt>
      <trkpt lat="45.92958" lon="-0.95732">
        <ele>4.7</ele>
        <time>2022-06-21T14:38:57Z</time>
      </trkpt>
      <trkpt lat="45.92957" lon="-0.95732">
        <ele>4.7</ele>
        <time>2022-06-21T14:38:58Z</time>
      </trkpt>
      <trkpt lat="45.92956" lon="-0.95731">
        <ele>4.7</ele>
        <time>2022-06-21T14:39:00Z</time>
      </trkpt>
      <trkpt lat="45.92954" lon="-0.95731">
        <ele>4.7</ele>
        <time>2022-06-21T14:39:01Z</time>
      </trkpt>
      <trkpt lat="45.92953" lon="-0.95731">
        <ele>4.7</ele>
        <time>2022-06-21T14:39:02Z</time>
      </trkpt>
      <trkpt lat="45.92952" lon="-0.9573">
        <ele>4.7</ele>
        <time>2022-06-21T14:39:03Z</time>
      </trkpt>
      <trkpt lat="45.92951" lon="-0.95727">
        <ele>4.7</ele>
        <time>2022-06-21T14:39:04Z</time>
      </trkpt>
      <trkpt lat="45.92951" lon="-0.95726">
        <ele>4.7</ele>
        <time>2022-06-21T14:39:06Z</time>
      </trkpt>
      <trkpt lat="45.92951" lon="-0.95724">
        <ele>4.7</ele>
        <time>2022-06-21T14:39:07Z</time>
      </trkpt>
      <trkpt lat="45.9295" lon="-0.9572">
        <ele>4.7</ele>
        <time>2022-06-21T14:39:08Z</time>
      </trkpt>
      <trkpt lat="45.9295" lon="-0.95719">
        <ele>4.7</ele>
        <time>2022-06-21T14:39:09Z</time>
      </trkpt>
      <trkpt lat="45.92949" lon="-0.95717">
        <ele>4.7</ele>
        <time>2022-06-21T14:39:10Z</time>
      </trkpt>
      <trkpt lat="45.92948" lon="-0.95716">
        <ele>4.7</ele>
        <time>2022-06-21T14:39:11Z</time>
      </trkpt>
      <trkpt lat="45.92946" lon="-0.95715">
        <ele>4.7</ele>
        <time>2022-06-21T14:39:12Z</time>
      </trkpt>
      <trkpt lat="45.92945" lon="-0.95714">
        <ele>4.7</ele>
        <time>2022-06-21T14:39:13Z</time>
      </trkpt>
      <trkpt lat="45.92944" lon="-0.95714">
        <ele>4.7</ele>
        <time>2022-06-21T14:39:14Z</time>
      </trkpt>
      <trkpt lat="45.92942" lon="-0.95713">
        <ele>4.7</ele>
        <time>2022-06-21T14:39:16Z</time>
      </trkpt>
      <trkpt lat="45.92941" lon="-0.95713">
        <ele>4.7</ele>
        <time>2022-06-21T14:39:17Z</time>
      </trkpt>
      <trkpt lat="45.92939" lon="-0.95712">
        <ele>4.7</ele>
        <time>2022-06-21T14:39:18Z</time>
      </trkpt>
      <trkpt lat="45.92938" lon="-0.95711">
        <ele>4.7</ele>
        <time>2022-06-21T14:39:19Z</time>
      </trkpt>
      <trkpt lat="45.92937" lon="-0.9571">
        <ele>4.7</ele>
        <time>2022-06-21T14:39:20Z</time>
      </trkpt>
      <trkpt lat="45.92936" lon="-0.95709">
        <ele>4.7</ele>
        <time>2022-06-21T14:39:21Z</time>
      </trkpt>
      <trkpt lat="45.92935" lon="-0.95708">
        <ele>4.7</ele>
        <time>2022-06-21T14:39:22Z</time>
      </trkpt>
      <trkpt lat="45.92934" lon="-0.95706">
        <ele>4.7</ele>
        <time>2022-06-21T14:39:23Z</time>
      </trkpt>
      <trkpt lat="45.92933" lon="-0.95705">
        <ele>4.7</ele>
        <time>2022-06-21T14:39:24Z</time>
      </trkpt>
      <trkpt lat="45.92932" lon="-0.95703">
        <ele>4.7</ele>
        <time>2022-06-21T14:39:26Z</time>
      </trkpt>
      <trkpt lat="45.92931" lon="-0.95702">
        <ele>4.7</ele>
        <time>2022-06-21T14:39:27Z</time>
      </trkpt>
      <trkpt lat="45.92931" lon="-0.95702">
        <ele>4.7</ele>
        <time>2022-06-21T14:39:28Z</time>
      </trkpt>
      <trkpt lat="45.92931" lon="-0.95701">
        <ele>4.7</ele>
        <time>2022-06-21T14:39:29Z</time>
      </trkpt>
      <trkpt lat="45.9293" lon="-0.95701">
        <ele>4.7</ele>
        <time>2022-06-21T14:39:30Z</time>
      </trkpt>
      <trkpt lat="45.9293" lon="-0.95699">
        <ele>4.7</ele>
        <time>2022-06-21T14:39:31Z</time>
      </trkpt>
      <trkpt lat="45.92929" lon="-0.95697">
        <ele>4.7</ele>
        <time>2022-06-21T14:39:32Z</time>
      </trkpt>
      <trkpt lat="45.92928" lon="-0.95695">
        <ele>4.7</ele>
        <time>2022-06-21T14:39:33Z</time>
      </trkpt>
      <trkpt lat="45.92927" lon="-0.95694">
        <ele>4.7</ele>
        <time>2022-06-21T14:39:35Z</time>
      </trkpt>
      <trkpt lat="45.92927" lon="-0.95693">
        <ele>4.7</ele>
        <time>2022-06-21T14:39:36Z</time>
      </trkpt>
      <trkpt lat="45.92926" lon="-0.95692">
        <ele>4.7</ele>
        <time>2022-06-21T14:39:37Z</time>
      </trkpt>
      <trkpt lat="45.92926" lon="-0.95692">
        <ele>4.7</ele>
        <time>2022-06-21T14:39:38Z</time>
      </trkpt>
      <trkpt lat="45.92926" lon="-0.95691">
        <ele>4.7</ele>
        <time>2022-06-21T14:39:39Z</time>
      </trkpt>
      <trkpt lat="45.92924" lon="-0.95689">
        <ele>4.6</ele>
        <time>2022-06-21T14:39:41Z</time>
      </trkpt>
      <trkpt lat="45.92923" lon="-0.95687">
        <ele>4.6</ele>
        <time>2022-06-21T14:39:42Z</time>
      </trkpt>
      <trkpt lat="45.92921" lon="-0.95685">
        <ele>4.6</ele>
        <time>2022-06-21T14:39:43Z</time>
      </trkpt>
      <trkpt lat="45.92919" lon="-0.95684">
        <ele>4.6</ele>
        <time>2022-06-21T14:39:44Z</time>
      </trkpt>
      <trkpt lat="45.92918" lon="-0.95684">
        <ele>4.6</ele>
        <time>2022-06-21T14:39:45Z</time>
      </trkpt>
      <trkpt lat="45.92918" lon="-0.95684">
        <ele>4.6</ele>
        <time>2022-06-21T14:39:46Z</time>
      </trkpt>
      <trkpt lat="45.92916" lon="-0.95685">
        <ele>4.6</ele>
        <time>2022-06-21T14:39:47Z</time>
      </trkpt>
      <trkpt lat="45.92915" lon="-0.95685">
        <ele>4.6</ele>
        <time>2022-06-21T14:39:49Z</time>
      </trkpt>
      <trkpt lat="45.92913" lon="-0.95686">
        <ele>4.6</ele>
        <time>2022-06-21T14:39:50Z</time>
      </trkpt>
      <trkpt lat="45.92912" lon="-0.95686">
        <ele>4.6</ele>
        <time>2022-06-21T14:39:51Z</time>
      </trkpt>
      <trkpt lat="45.92911" lon="-0.95685">
        <ele>4.6</ele>
        <time>2022-06-21T14:39:52Z</time>
      </trkpt>
      <trkpt lat="45.9291" lon="-0.95684">
        <ele>4.6</ele>
        <time>2022-06-21T14:39:53Z</time>
      </trkpt>
      <trkpt lat="45.92909" lon="-0.95683">
        <ele>4.6</ele>
        <time>2022-06-21T14:39:54Z</time>
      </trkpt>
      <trkpt lat="45.92908" lon="-0.9568">
        <ele>4.6</ele>
        <time>2022-06-21T14:39:55Z</time>
      </trkpt>
      <trkpt lat="45.92907" lon="-0.95679">
        <ele>4.6</ele>
        <time>2022-06-21T14:39:56Z</time>
      </trkpt>
      <trkpt lat="45.92907" lon="-0.95678">
        <ele>4.6</ele>
        <time>2022-06-21T14:39:57Z</time>
      </trkpt>
      <trkpt lat="45.92907" lon="-0.95678">
        <ele>4.6</ele>
        <time>2022-06-21T14:39:59Z</time>
      </trkpt>
      <trkpt lat="45.92907" lon="-0.95676">
        <ele>4.6</ele>
        <time>2022-06-21T14:40:00Z</time>
      </trkpt>
      <trkpt lat="45.92906" lon="-0.95675">
        <ele>4.6</ele>
        <time>2022-06-21T14:40:01Z</time>
      </trkpt>
      <trkpt lat="45.92906" lon="-0.95674">
        <ele>4.6</ele>
        <time>2022-06-21T14:40:02Z</time>
      </trkpt>
      <trkpt lat="45.92905" lon="-0.95671">
        <ele>4.6</ele>
        <time>2022-06-21T14:40:03Z</time>
      </trkpt>
      <trkpt lat="45.92904" lon="-0.9567">
        <ele>4.6</ele>
        <time>2022-06-21T14:40:04Z</time>
      </trkpt>
      <trkpt lat="45.92903" lon="-0.95669">
        <ele>4.6</ele>
        <time>2022-06-21T14:40:05Z</time>
      </trkpt>
      <trkpt lat="45.92902" lon="-0.95668">
        <ele>4.6</ele>
        <time>2022-06-21T14:40:06Z</time>
      </trkpt>
      <trkpt lat="45.92902" lon="-0.95666">
        <ele>4.6</ele>
        <time>2022-06-21T14:40:08Z</time>
      </trkpt>
      <trkpt lat="45.92901" lon="-0.95664">
        <ele>4.6</ele>
        <time>2022-06-21T14:40:09Z</time>
      </trkpt>
      <trkpt lat="45.929" lon="-0.95663">
        <ele>4.6</ele>
        <time>2022-06-21T14:40:10Z</time>
      </trkpt>
      <trkpt lat="45.92899" lon="-0.95662">
        <ele>4.6</ele>
        <time>2022-06-21T14:40:11Z</time>
      </trkpt>
      <trkpt lat="45.92898" lon="-0.9566">
        <ele>4.7</ele>
        <time>2022-06-21T14:40:12Z</time>
      </trkpt>
      <trkpt lat="45.92896" lon="-0.95659">
        <ele>4.6</ele>
        <time>2022-06-21T14:40:13Z</time>
      </trkpt>
      <trkpt lat="45.92895" lon="-0.95659">
        <ele>4.6</ele>
        <time>2022-06-21T14:40:15Z</time>
      </trkpt>
      <trkpt lat="45.92894" lon="-0.95658">
        <ele>4.6</ele>
        <time>2022-06-21T14:40:16Z</time>
      </trkpt>
      <trkpt lat="45.92893" lon="-0.95658">
        <ele>4.6</ele>
        <time>2022-06-21T14:40:17Z</time>
      </trkpt>
      <trkpt lat="45.92892" lon="-0.95657">
        <ele>4.6</ele>
        <time>2022-06-21T14:40:18Z</time>
      </trkpt>
      <trkpt lat="45.92891" lon="-0.95656">
        <ele>4.6</ele>
        <time>2022-06-21T14:40:19Z</time>
      </trkpt>
      <trkpt lat="45.92889" lon="-0.95655">
        <ele>4.6</ele>
        <time>2022-06-21T14:40:20Z</time>
      </trkpt>
      <trkpt lat="45.92889" lon="-0.95655">
        <ele>4.6</ele>
        <time>2022-06-21T14:40:21Z</time>
      </trkpt>
      <trkpt lat="45.92888" lon="-0.95655">
        <ele>4.6</ele>
        <time>2022-06-21T14:40:23Z</time>
      </trkpt>
      <trkpt lat="45.92887" lon="-0.95654">
        <ele>4.6</ele>
        <time>2022-06-21T14:40:24Z</time>
      </trkpt>
      <trkpt lat="45.92886" lon="-0.95654">
        <ele>4.6</ele>
        <time>2022-06-21T14:40:25Z</time>
      </trkpt>
      <trkpt lat="45.92885" lon="-0.95654">
        <ele>4.6</ele>
        <time>2022-06-21T14:40:26Z</time>
      </trkpt>
      <trkpt lat="45.92884" lon="-0.95652">
        <ele>4.6</ele>
        <time>2022-06-21T14:40:27Z</time>
      </trkpt>
      <trkpt lat="45.92883" lon="-0.95652">
        <ele>4.6</ele>
        <time>2022-06-21T14:40:28Z</time>
      </trkpt>
      <trkpt lat="45.92882" lon="-0.95651">
        <ele>4.6</ele>
        <time>2022-06-21T14:40:29Z</time>
      </trkpt>
      <trkpt lat="45.92881" lon="-0.9565">
        <ele>4.6</ele>
        <time>2022-06-21T14:40:31Z</time>
      </trkpt>
      <trkpt lat="45.9288" lon="-0.9565">
        <ele>4.6</ele>
        <time>2022-06-21T14:40:32Z</time>
      </trkpt>
      <trkpt lat="45.92879" lon="-0.95649">
        <ele>4.6</ele>
        <time>2022-06-21T14:40:33Z</time>
      </trkpt>
      <trkpt lat="45.92877" lon="-0.95649">
        <ele>4.6</ele>
        <time>2022-06-21T14:40:34Z</time>
      </trkpt>
      <trkpt lat="45.92877" lon="-0.95648">
        <ele>4.6</ele>
        <time>2022-06-21T14:40:35Z</time>
      </trkpt>
      <trkpt lat="45.92875" lon="-0.95648">
        <ele>4.6</ele>
        <time>2022-06-21T14:40:36Z</time>
      </trkpt>
      <trkpt lat="45.92874" lon="-0.95647">
        <ele>4.6</ele>
        <time>2022-06-21T14:40:37Z</time>
      </trkpt>
      <trkpt lat="45.92874" lon="-0.95647">
        <ele>4.6</ele>
        <time>2022-06-21T14:40:39Z</time>
      </trkpt>
      <trkpt lat="45.92873" lon="-0.95646">
        <ele>4.6</ele>
        <time>2022-06-21T14:40:40Z</time>
      </trkpt>
      <trkpt lat="45.92871" lon="-0.95645">
        <ele>4.6</ele>
        <time>2022-06-21T14:40:41Z</time>
      </trkpt>
      <trkpt lat="45.9287" lon="-0.95644">
        <ele>4.6</ele>
        <time>2022-06-21T14:40:42Z</time>
      </trkpt>
      <trkpt lat="45.9287" lon="-0.95644">
        <ele>4.6</ele>
        <time>2022-06-21T14:40:43Z</time>
      </trkpt>
      <trkpt lat="45.92869" lon="-0.95642">
        <ele>4.6</ele>
        <time>2022-06-21T14:40:44Z</time>
      </trkpt>
      <trkpt lat="45.92868" lon="-0.95642">
        <ele>4.6</ele>
        <time>2022-06-21T14:40:45Z</time>
      </trkpt>
      <trkpt lat="45.92867" lon="-0.95641">
        <ele>4.6</ele>
        <time>2022-06-21T14:40:47Z</time>
      </trkpt>
      <trkpt lat="45.92866" lon="-0.9564">
        <ele>4.6</ele>
        <time>2022-06-21T14:40:48Z</time>
      </trkpt>
      <trkpt lat="45.92865" lon="-0.95639">
        <ele>4.6</ele>
        <time>2022-06-21T14:40:49Z</time>
      </trkpt>
      <trkpt lat="45.92865" lon="-0.95638">
        <ele>4.6</ele>
        <time>2022-06-21T14:40:50Z</time>
      </trkpt>
      <trkpt lat="45.92865" lon="-0.95637">
        <ele>4.6</ele>
        <time>2022-06-21T14:40:51Z</time>
      </trkpt>
      <trkpt lat="45.92864" lon="-0.95636">
        <ele>4.6</ele>
        <time>2022-06-21T14:40:52Z</time>
      </trkpt>
      <trkpt lat="45.92863" lon="-0.95634">
        <ele>4.6</ele>
        <time>2022-06-21T14:40:53Z</time>
      </trkpt>
      <trkpt lat="45.92862" lon="-0.95633">
        <ele>4.6</ele>
        <time>2022-06-21T14:40:55Z</time>
      </trkpt>
      <trkpt lat="45.92861" lon="-0.95631">
        <ele>4.6</ele>
        <time>2022-06-21T14:40:56Z</time>
      </trkpt>
      <trkpt lat="45.92859" lon="-0.95629">
        <ele>4.6</ele>
        <time>2022-06-21T14:40:57Z</time>
      </trkpt>
      <trkpt lat="45.92858" lon="-0.95628">
        <ele>4.6</ele>
        <time>2022-06-21T14:40:58Z</time>
      </trkpt>
      <trkpt lat="45.92857" lon="-0.95627">
        <ele>4.6</ele>
        <time>2022-06-21T14:40:59Z</time>
      </trkpt>
      <trkpt lat="45.92856" lon="-0.95626">
        <ele>4.6</ele>
        <time>2022-06-21T14:41:00Z</time>
      </trkpt>
      <trkpt lat="45.92855" lon="-0.95625">
        <ele>4.6</ele>
        <time>2022-06-21T14:41:01Z</time>
      </trkpt>
      <trkpt lat="45.92854" lon="-0.95624">
        <ele>4.6</ele>
        <time>2022-06-21T14:41:03Z</time>
      </trkpt>
      <trkpt lat="45.92853" lon="-0.95622">
        <ele>4.6</ele>
        <time>2022-06-21T14:41:04Z</time>
      </trkpt>
      <trkpt lat="45.92853" lon="-0.95621">
        <ele>4.6</ele>
        <time>2022-06-21T14:41:05Z</time>
      </trkpt>
      <trkpt lat="45.92852" lon="-0.9562">
        <ele>4.6</ele>
        <time>2022-06-21T14:41:06Z</time>
      </trkpt>
      <trkpt lat="45.92851" lon="-0.95618">
        <ele>4.6</ele>
        <time>2022-06-21T14:41:07Z</time>
      </trkpt>
      <trkpt lat="45.92852" lon="-0.95618">
        <ele>4.6</ele>
        <time>2022-06-21T14:41:08Z</time>
      </trkpt>
      <trkpt lat="45.92851" lon="-0.95617">
        <ele>4.6</ele>
        <time>2022-06-21T14:41:09Z</time>
      </trkpt>
      <trkpt lat="45.9285" lon="-0.95616">
        <ele>4.6</ele>
        <time>2022-06-21T14:41:10Z</time>
      </trkpt>
      <trkpt lat="45.92849" lon="-0.95615">
        <ele>4.6</ele>
        <time>2022-06-21T14:41:12Z</time>
      </trkpt>
      <trkpt lat="45.92848" lon="-0.95614">
        <ele>4.6</ele>
        <time>2022-06-21T14:41:13Z</time>
      </trkpt>
      <trkpt lat="45.92847" lon="-0.95613">
        <ele>4.6</ele>
        <time>2022-06-21T14:41:14Z</time>
      </trkpt>
      <trkpt lat="45.92847" lon="-0.95614">
        <ele>4.6</ele>
        <time>2022-06-21T14:41:15Z</time>
      </trkpt>
      <trkpt lat="45.92846" lon="-0.95613">
        <ele>4.6</ele>
        <time>2022-06-21T14:41:16Z</time>
      </trkpt>
      <trkpt lat="45.92845" lon="-0.95613">
        <ele>4.5</ele>
        <time>2022-06-21T14:41:17Z</time>
      </trkpt>
      <trkpt lat="45.92844" lon="-0.95612">
        <ele>4.5</ele>
        <time>2022-06-21T14:41:18Z</time>
      </trkpt>
      <trkpt lat="45.92843" lon="-0.95611">
        <ele>4.5</ele>
        <time>2022-06-21T14:41:19Z</time>
      </trkpt>
      <trkpt lat="45.92842" lon="-0.95611">
        <ele>4.5</ele>
        <time>2022-06-21T14:41:21Z</time>
      </trkpt>
      <trkpt lat="45.92841" lon="-0.95611">
        <ele>4.5</ele>
        <time>2022-06-21T14:41:22Z</time>
      </trkpt>
      <trkpt lat="45.9284" lon="-0.9561">
        <ele>4.5</ele>
        <time>2022-06-21T14:41:23Z</time>
      </trkpt>
      <trkpt lat="45.92839" lon="-0.95609">
        <ele>4.5</ele>
        <time>2022-06-21T14:41:24Z</time>
      </trkpt>
      <trkpt lat="45.92836" lon="-0.95608">
        <ele>4.5</ele>
        <time>2022-06-21T14:41:26Z</time>
      </trkpt>
      <trkpt lat="45.92836" lon="-0.95607">
        <ele>4.5</ele>
        <time>2022-06-21T14:41:27Z</time>
      </trkpt>
      <trkpt lat="45.92835" lon="-0.95607">
        <ele>4.5</ele>
        <time>2022-06-21T14:41:28Z</time>
      </trkpt>
      <trkpt lat="45.92834" lon="-0.95606">
        <ele>4.5</ele>
        <time>2022-06-21T14:41:29Z</time>
      </trkpt>
      <trkpt lat="45.92832" lon="-0.95605">
        <ele>4.5</ele>
        <time>2022-06-21T14:41:30Z</time>
      </trkpt>
      <trkpt lat="45.92831" lon="-0.95605">
        <ele>4.5</ele>
        <time>2022-06-21T14:41:31Z</time>
      </trkpt>
      <trkpt lat="45.92831" lon="-0.95605">
        <ele>4.5</ele>
        <time>2022-06-21T14:41:32Z</time>
      </trkpt>
      <trkpt lat="45.9283" lon="-0.95605">
        <ele>4.5</ele>
        <time>2022-06-21T14:41:34Z</time>
      </trkpt>
      <trkpt lat="45.9283" lon="-0.95604">
        <ele>4.5</ele>
        <time>2022-06-21T14:41:35Z</time>
      </trkpt>
      <trkpt lat="45.92828" lon="-0.95603">
        <ele>4.5</ele>
        <time>2022-06-21T14:41:36Z</time>
      </trkpt>
      <trkpt lat="45.92827" lon="-0.95602">
        <ele>4.5</ele>
        <time>2022-06-21T14:41:37Z</time>
      </trkpt>
      <trkpt lat="45.92825" lon="-0.95599">
        <ele>4.5</ele>
        <time>2022-06-21T14:41:38Z</time>
      </trkpt>
      <trkpt lat="45.92824" lon="-0.95598">
        <ele>4.5</ele>
        <time>2022-06-21T14:41:40Z</time>
      </trkpt>
      <trkpt lat="45.92823" lon="-0.95597">
        <ele>4.5</ele>
        <time>2022-06-21T14:41:41Z</time>
      </trkpt>
      <trkpt lat="45.92822" lon="-0.95596">
        <ele>4.5</ele>
        <time>2022-06-21T14:41:42Z</time>
      </trkpt>
      <trkpt lat="45.92821" lon="-0.95595">
        <ele>4.5</ele>
        <time>2022-06-21T14:41:43Z</time>
      </trkpt>
      <trkpt lat="45.9282" lon="-0.95594">
        <ele>4.5</ele>
        <time>2022-06-21T14:41:44Z</time>
      </trkpt>
      <trkpt lat="45.92818" lon="-0.95593">
        <ele>4.5</ele>
        <time>2022-06-21T14:41:45Z</time>
      </trkpt>
      <trkpt lat="45.92817" lon="-0.95592">
        <ele>4.5</ele>
        <time>2022-06-21T14:41:47Z</time>
      </trkpt>
      <trkpt lat="45.92816" lon="-0.95591">
        <ele>4.5</ele>
        <time>2022-06-21T14:41:48Z</time>
      </trkpt>
      <trkpt lat="45.92815" lon="-0.95589">
        <ele>4.5</ele>
        <time>2022-06-21T14:41:49Z</time>
      </trkpt>
      <trkpt lat="45.92815" lon="-0.95588">
        <ele>4.5</ele>
        <time>2022-06-21T14:41:50Z</time>
      </trkpt>
      <trkpt lat="45.92814" lon="-0.95587">
        <ele>4.5</ele>
        <time>2022-06-21T14:41:51Z</time>
      </trkpt>
      <trkpt lat="45.92813" lon="-0.95585">
        <ele>4.5</ele>
        <time>2022-06-21T14:41:52Z</time>
      </trkpt>
      <trkpt lat="45.92812" lon="-0.95584">
        <ele>4.6</ele>
        <time>2022-06-21T14:41:53Z</time>
      </trkpt>
      <trkpt lat="45.92811" lon="-0.95583">
        <ele>4.6</ele>
        <time>2022-06-21T14:41:54Z</time>
      </trkpt>
      <trkpt lat="45.9281" lon="-0.95582">
        <ele>4.6</ele>
        <time>2022-06-21T14:41:56Z</time>
      </trkpt>
      <trkpt lat="45.92809" lon="-0.95581">
        <ele>4.6</ele>
        <time>2022-06-21T14:41:57Z</time>
      </trkpt>
      <trkpt lat="45.92809" lon="-0.95581">
        <ele>4.6</ele>
        <time>2022-06-21T14:41:58Z</time>
      </trkpt>
      <trkpt lat="45.92808" lon="-0.9558">
        <ele>4.6</ele>
        <time>2022-06-21T14:41:59Z</time>
      </trkpt>
      <trkpt lat="45.92807" lon="-0.95579">
        <ele>4.6</ele>
        <time>2022-06-21T14:42:00Z</time>
      </trkpt>
      <trkpt lat="45.92805" lon="-0.95576">
        <ele>4.6</ele>
        <time>2022-06-21T14:42:01Z</time>
      </trkpt>
      <trkpt lat="45.92805" lon="-0.95574">
        <ele>4.6</ele>
        <time>2022-06-21T14:42:02Z</time>
      </trkpt>
      <trkpt lat="45.92803" lon="-0.95572">
        <ele>4.6</ele>
        <time>2022-06-21T14:42:04Z</time>
      </trkpt>
      <trkpt lat="45.92803" lon="-0.95571">
        <ele>4.6</ele>
        <time>2022-06-21T14:42:05Z</time>
      </trkpt>
      <trkpt lat="45.92802" lon="-0.9557">
        <ele>4.6</ele>
        <time>2022-06-21T14:42:06Z</time>
      </trkpt>
      <trkpt lat="45.92801" lon="-0.95567">
        <ele>4.6</ele>
        <time>2022-06-21T14:42:07Z</time>
      </trkpt>
      <trkpt lat="45.928" lon="-0.95566">
        <ele>4.6</ele>
        <time>2022-06-21T14:42:08Z</time>
      </trkpt>
      <trkpt lat="45.928" lon="-0.95564">
        <ele>4.6</ele>
        <time>2022-06-21T14:42:09Z</time>
      </trkpt>
      <trkpt lat="45.92799" lon="-0.95563">
        <ele>4.6</ele>
        <time>2022-06-21T14:42:10Z</time>
      </trkpt>
      <trkpt lat="45.92799" lon="-0.95563">
        <ele>4.6</ele>
        <time>2022-06-21T14:42:12Z</time>
      </trkpt>
      <trkpt lat="45.92798" lon="-0.95562">
        <ele>4.6</ele>
        <time>2022-06-21T14:42:13Z</time>
      </trkpt>
      <trkpt lat="45.92798" lon="-0.95561">
        <ele>4.6</ele>
        <time>2022-06-21T14:42:14Z</time>
      </trkpt>
      <trkpt lat="45.92797" lon="-0.9556">
        <ele>4.6</ele>
        <time>2022-06-21T14:42:15Z</time>
      </trkpt>
      <trkpt lat="45.92796" lon="-0.95559">
        <ele>4.6</ele>
        <time>2022-06-21T14:42:16Z</time>
      </trkpt>
      <trkpt lat="45.92794" lon="-0.95557">
        <ele>4.6</ele>
        <time>2022-06-21T14:42:17Z</time>
      </trkpt>
      <trkpt lat="45.92793" lon="-0.95556">
        <ele>4.6</ele>
        <time>2022-06-21T14:42:18Z</time>
      </trkpt>
      <trkpt lat="45.92793" lon="-0.95556">
        <ele>4.6</ele>
        <time>2022-06-21T14:42:20Z</time>
      </trkpt>
      <trkpt lat="45.92792" lon="-0.95555">
        <ele>4.6</ele>
        <time>2022-06-21T14:42:21Z</time>
      </trkpt>
      <trkpt lat="45.92791" lon="-0.95555">
        <ele>4.6</ele>
        <time>2022-06-21T14:42:22Z</time>
      </trkpt>
      <trkpt lat="45.9279" lon="-0.95554">
        <ele>4.6</ele>
        <time>2022-06-21T14:42:23Z</time>
      </trkpt>
      <trkpt lat="45.9279" lon="-0.95553">
        <ele>4.6</ele>
        <time>2022-06-21T14:42:24Z</time>
      </trkpt>
      <trkpt lat="45.92789" lon="-0.95552">
        <ele>4.6</ele>
        <time>2022-06-21T14:42:25Z</time>
      </trkpt>
      <trkpt lat="45.92787" lon="-0.95551">
        <ele>4.6</ele>
        <time>2022-06-21T14:42:26Z</time>
      </trkpt>
      <trkpt lat="45.92786" lon="-0.9555">
        <ele>4.6</ele>
        <time>2022-06-21T14:42:27Z</time>
      </trkpt>
      <trkpt lat="45.92785" lon="-0.95548">
        <ele>4.5</ele>
        <time>2022-06-21T14:42:28Z</time>
      </trkpt>
      <trkpt lat="45.92784" lon="-0.95547">
        <ele>4.5</ele>
        <time>2022-06-21T14:42:30Z</time>
      </trkpt>
      <trkpt lat="45.92783" lon="-0.95546">
        <ele>4.5</ele>
        <time>2022-06-21T14:42:31Z</time>
      </trkpt>
      <trkpt lat="45.92782" lon="-0.95545">
        <ele>4.5</ele>
        <time>2022-06-21T14:42:32Z</time>
      </trkpt>
      <trkpt lat="45.92781" lon="-0.95544">
        <ele>4.5</ele>
        <time>2022-06-21T14:42:33Z</time>
      </trkpt>
      <trkpt lat="45.9278" lon="-0.95543">
        <ele>4.5</ele>
        <time>2022-06-21T14:42:34Z</time>
      </trkpt>
      <trkpt lat="45.92779" lon="-0.95542">
        <ele>4.5</ele>
        <time>2022-06-21T14:42:35Z</time>
      </trkpt>
      <trkpt lat="45.92779" lon="-0.95541">
        <ele>4.5</ele>
        <time>2022-06-21T14:42:36Z</time>
      </trkpt>
      <trkpt lat="45.92779" lon="-0.9554">
        <ele>4.5</ele>
        <time>2022-06-21T14:42:38Z</time>
      </trkpt>
      <trkpt lat="45.92778" lon="-0.95539">
        <ele>4.5</ele>
        <time>2022-06-21T14:42:39Z</time>
      </trkpt>
      <trkpt lat="45.92776" lon="-0.95537">
        <ele>4.5</ele>
        <time>2022-06-21T14:42:40Z</time>
      </trkpt>
      <trkpt lat="45.92776" lon="-0.95536">
        <ele>4.5</ele>
        <time>2022-06-21T14:42:41Z</time>
      </trkpt>
      <trkpt lat="45.92775" lon="-0.95536">
        <ele>4.5</ele>
        <time>2022-06-21T14:42:42Z</time>
      </trkpt>
      <trkpt lat="45.92774" lon="-0.95534">
        <ele>4.5</ele>
        <time>2022-06-21T14:42:43Z</time>
      </trkpt>
      <trkpt lat="45.92773" lon="-0.95533">
        <ele>4.5</ele>
        <time>2022-06-21T14:42:44Z</time>
      </trkpt>
      <trkpt lat="45.92772" lon="-0.95532">
        <ele>4.5</ele>
        <time>2022-06-21T14:42:46Z</time>
      </trkpt>
      <trkpt lat="45.92771" lon="-0.95531">
        <ele>4.5</ele>
        <time>2022-06-21T14:42:47Z</time>
      </trkpt>
      <trkpt lat="45.9277" lon="-0.9553">
        <ele>4.5</ele>
        <time>2022-06-21T14:42:48Z</time>
      </trkpt>
      <trkpt lat="45.9277" lon="-0.95529">
        <ele>4.5</ele>
        <time>2022-06-21T14:42:49Z</time>
      </trkpt>
      <trkpt lat="45.92768" lon="-0.95528">
        <ele>4.5</ele>
        <time>2022-06-21T14:42:50Z</time>
      </trkpt>
      <trkpt lat="45.92767" lon="-0.95527">
        <ele>4.5</ele>
        <time>2022-06-21T14:42:51Z</time>
      </trkpt>
      <trkpt lat="45.92766" lon="-0.95526">
        <ele>4.5</ele>
        <time>2022-06-21T14:42:52Z</time>
      </trkpt>
      <trkpt lat="45.92765" lon="-0.95525">
        <ele>4.5</ele>
        <time>2022-06-21T14:42:53Z</time>
      </trkpt>
      <trkpt lat="45.92764" lon="-0.95524">
        <ele>4.5</ele>
        <time>2022-06-21T14:42:55Z</time>
      </trkpt>
      <trkpt lat="45.92763" lon="-0.95523">
        <ele>4.5</ele>
        <time>2022-06-21T14:42:56Z</time>
      </trkpt>
      <trkpt lat="45.92762" lon="-0.95522">
        <ele>4.5</ele>
        <time>2022-06-21T14:42:57Z</time>
      </trkpt>
      <trkpt lat="45.92761" lon="-0.95521">
        <ele>4.5</ele>
        <time>2022-06-21T14:42:58Z</time>
      </trkpt>
      <trkpt lat="45.9276" lon="-0.95521">
        <ele>4.5</ele>
        <time>2022-06-21T14:42:59Z</time>
      </trkpt>
      <trkpt lat="45.92759" lon="-0.9552">
        <ele>4.5</ele>
        <time>2022-06-21T14:43:00Z</time>
      </trkpt>
      <trkpt lat="45.92758" lon="-0.95519">
        <ele>4.5</ele>
        <time>2022-06-21T14:43:01Z</time>
      </trkpt>
      <trkpt lat="45.92757" lon="-0.95518">
        <ele>4.5</ele>
        <time>2022-06-21T14:43:03Z</time>
      </trkpt>
      <trkpt lat="45.92756" lon="-0.95517">
        <ele>4.5</ele>
        <time>2022-06-21T14:43:04Z</time>
      </trkpt>
      <trkpt lat="45.92755" lon="-0.95515">
        <ele>4.5</ele>
        <time>2022-06-21T14:43:05Z</time>
      </trkpt>
      <trkpt lat="45.92754" lon="-0.95514">
        <ele>4.5</ele>
        <time>2022-06-21T14:43:06Z</time>
      </trkpt>
      <trkpt lat="45.92754" lon="-0.95514">
        <ele>4.5</ele>
        <time>2022-06-21T14:43:07Z</time>
      </trkpt>
      <trkpt lat="45.92753" lon="-0.95513">
        <ele>4.5</ele>
        <time>2022-06-21T14:43:08Z</time>
      </trkpt>
      <trkpt lat="45.92752" lon="-0.95512">
        <ele>4.5</ele>
        <time>2022-06-21T14:43:09Z</time>
      </trkpt>
      <trkpt lat="45.9275" lon="-0.95511">
        <ele>4.5</ele>
        <time>2022-06-21T14:43:11Z</time>
      </trkpt>
      <trkpt lat="45.92749" lon="-0.95511">
        <ele>4.5</ele>
        <time>2022-06-21T14:43:12Z</time>
      </trkpt>
      <trkpt lat="45.92748" lon="-0.9551">
        <ele>4.5</ele>
        <time>2022-06-21T14:43:13Z</time>
      </trkpt>
      <trkpt lat="45.92746" lon="-0.95509">
        <ele>4.5</ele>
        <time>2022-06-21T14:43:14Z</time>
      </trkpt>
      <trkpt lat="45.92746" lon="-0.95509">
        <ele>4.4</ele>
        <time>2022-06-21T14:43:16Z</time>
      </trkpt>
      <trkpt lat="45.92745" lon="-0.95508">
        <ele>4.4</ele>
        <time>2022-06-21T14:43:17Z</time>
      </trkpt>
      <trkpt lat="45.92743" lon="-0.95507">
        <ele>4.4</ele>
        <time>2022-06-21T14:43:18Z</time>
      </trkpt>
      <trkpt lat="45.92742" lon="-0.95507">
        <ele>4.4</ele>
        <time>2022-06-21T14:43:19Z</time>
      </trkpt>
      <trkpt lat="45.92741" lon="-0.95506">
        <ele>4.4</ele>
        <time>2022-06-21T14:43:20Z</time>
      </trkpt>
      <trkpt lat="45.92741" lon="-0.95506">
        <ele>4.5</ele>
        <time>2022-06-21T14:43:22Z</time>
      </trkpt>
      <trkpt lat="45.9274" lon="-0.95505">
        <ele>4.5</ele>
        <time>2022-06-21T14:43:23Z</time>
      </trkpt>
      <trkpt lat="45.92739" lon="-0.95505">
        <ele>4.5</ele>
        <time>2022-06-21T14:43:24Z</time>
      </trkpt>
      <trkpt lat="45.92738" lon="-0.95504">
        <ele>4.5</ele>
        <time>2022-06-21T14:43:25Z</time>
      </trkpt>
      <trkpt lat="45.92736" lon="-0.95501">
        <ele>4.5</ele>
        <time>2022-06-21T14:43:27Z</time>
      </trkpt>
      <trkpt lat="45.92735" lon="-0.95501">
        <ele>4.4</ele>
        <time>2022-06-21T14:43:28Z</time>
      </trkpt>
      <trkpt lat="45.92735" lon="-0.95499">
        <ele>4.4</ele>
        <time>2022-06-21T14:43:29Z</time>
      </trkpt>
      <trkpt lat="45.92734" lon="-0.95497">
        <ele>4.4</ele>
        <time>2022-06-21T14:43:30Z</time>
      </trkpt>
      <trkpt lat="45.92733" lon="-0.95494">
        <ele>4.4</ele>
        <time>2022-06-21T14:43:31Z</time>
      </trkpt>
      <trkpt lat="45.92733" lon="-0.95493">
        <ele>4.4</ele>
        <time>2022-06-21T14:43:32Z</time>
      </trkpt>
      <trkpt lat="45.92733" lon="-0.95491">
        <ele>4.4</ele>
        <time>2022-06-21T14:43:33Z</time>
      </trkpt>
      <trkpt lat="45.92732" lon="-0.95489">
        <ele>4.4</ele>
        <time>2022-06-21T14:43:35Z</time>
      </trkpt>
      <trkpt lat="45.92732" lon="-0.95488">
        <ele>4.4</ele>
        <time>2022-06-21T14:43:36Z</time>
      </trkpt>
      <trkpt lat="45.92731" lon="-0.95487">
        <ele>4.4</ele>
        <time>2022-06-21T14:43:37Z</time>
      </trkpt>
      <trkpt lat="45.9273" lon="-0.95486">
        <ele>4.4</ele>
        <time>2022-06-21T14:43:38Z</time>
      </trkpt>
      <trkpt lat="45.92728" lon="-0.95484">
        <ele>4.4</ele>
        <time>2022-06-21T14:43:39Z</time>
      </trkpt>
      <trkpt lat="45.92727" lon="-0.95483">
        <ele>4.4</ele>
        <time>2022-06-21T14:43:40Z</time>
      </trkpt>
      <trkpt lat="45.92725" lon="-0.95482">
        <ele>4.4</ele>
        <time>2022-06-21T14:43:42Z</time>
      </trkpt>
      <trkpt lat="45.92725" lon="-0.9548">
        <ele>4.4</ele>
        <time>2022-06-21T14:43:43Z</time>
      </trkpt>
      <trkpt lat="45.92725" lon="-0.95479">
        <ele>4.4</ele>
        <time>2022-06-21T14:43:44Z</time>
      </trkpt>
      <trkpt lat="45.92724" lon="-0.95478">
        <ele>4.4</ele>
        <time>2022-06-21T14:43:45Z</time>
      </trkpt>
      <trkpt lat="45.92724" lon="-0.95476">
        <ele>4.4</ele>
        <time>2022-06-21T14:43:46Z</time>
      </trkpt>
      <trkpt lat="45.92723" lon="-0.95475">
        <ele>4.4</ele>
        <time>2022-06-21T14:43:47Z</time>
      </trkpt>
      <trkpt lat="45.92722" lon="-0.95472">
        <ele>4.4</ele>
        <time>2022-06-21T14:43:49Z</time>
      </trkpt>
      <trkpt lat="45.92721" lon="-0.95471">
        <ele>4.4</ele>
        <time>2022-06-21T14:43:50Z</time>
      </trkpt>
      <trkpt lat="45.92721" lon="-0.9547">
        <ele>4.4</ele>
        <time>2022-06-21T14:43:51Z</time>
      </trkpt>
      <trkpt lat="45.9272" lon="-0.95467">
        <ele>4.4</ele>
        <time>2022-06-21T14:43:52Z</time>
      </trkpt>
      <trkpt lat="45.92719" lon="-0.95467">
        <ele>4.4</ele>
        <time>2022-06-21T14:43:53Z</time>
      </trkpt>
      <trkpt lat="45.92719" lon="-0.95466">
        <ele>4.4</ele>
        <time>2022-06-21T14:43:54Z</time>
      </trkpt>
      <trkpt lat="45.92718" lon="-0.95464">
        <ele>4.4</ele>
        <time>2022-06-21T14:43:55Z</time>
      </trkpt>
      <trkpt lat="45.92717" lon="-0.95463">
        <ele>4.4</ele>
        <time>2022-06-21T14:43:56Z</time>
      </trkpt>
      <trkpt lat="45.92716" lon="-0.95462">
        <ele>4.4</ele>
        <time>2022-06-21T14:43:57Z</time>
      </trkpt>
      <trkpt lat="45.92715" lon="-0.95461">
        <ele>4.4</ele>
        <time>2022-06-21T14:43:59Z</time>
      </trkpt>
      <trkpt lat="45.92714" lon="-0.9546">
        <ele>4.4</ele>
        <time>2022-06-21T14:44:00Z</time>
      </trkpt>
      <trkpt lat="45.92713" lon="-0.95459">
        <ele>4.4</ele>
        <time>2022-06-21T14:44:01Z</time>
      </trkpt>
      <trkpt lat="45.92712" lon="-0.95458">
        <ele>4.4</ele>
        <time>2022-06-21T14:44:02Z</time>
      </trkpt>
      <trkpt lat="45.92711" lon="-0.95457">
        <ele>4.4</ele>
        <time>2022-06-21T14:44:03Z</time>
      </trkpt>
      <trkpt lat="45.92711" lon="-0.95456">
        <ele>4.4</ele>
        <time>2022-06-21T14:44:04Z</time>
      </trkpt>
      <trkpt lat="45.92711" lon="-0.95455">
        <ele>4.4</ele>
        <time>2022-06-21T14:44:05Z</time>
      </trkpt>
      <trkpt lat="45.9271" lon="-0.95454">
        <ele>4.4</ele>
        <time>2022-06-21T14:44:06Z</time>
      </trkpt>
      <trkpt lat="45.92709" lon="-0.95452">
        <ele>4.4</ele>
        <time>2022-06-21T14:44:07Z</time>
      </trkpt>
      <trkpt lat="45.92708" lon="-0.95452">
        <ele>4.4</ele>
        <time>2022-06-21T14:44:08Z</time>
      </trkpt>
      <trkpt lat="45.92708" lon="-0.95451">
        <ele>4.4</ele>
        <time>2022-06-21T14:44:10Z</time>
      </trkpt>
      <trkpt lat="45.92707" lon="-0.95451">
        <ele>4.4</ele>
        <time>2022-06-21T14:44:11Z</time>
      </trkpt>
      <trkpt lat="45.92706" lon="-0.9545">
        <ele>4.4</ele>
        <time>2022-06-21T14:44:12Z</time>
      </trkpt>
      <trkpt lat="45.92706" lon="-0.95449">
        <ele>4.4</ele>
        <time>2022-06-21T14:44:13Z</time>
      </trkpt>
      <trkpt lat="45.92705" lon="-0.95448">
        <ele>4.4</ele>
        <time>2022-06-21T14:44:14Z</time>
      </trkpt>
      <trkpt lat="45.92705" lon="-0.95446">
        <ele>4.4</ele>
        <time>2022-06-21T14:44:16Z</time>
      </trkpt>
      <trkpt lat="45.92705" lon="-0.95444">
        <ele>4.4</ele>
        <time>2022-06-21T14:44:17Z</time>
      </trkpt>
      <trkpt lat="45.92704" lon="-0.95443">
        <ele>4.4</ele>
        <time>2022-06-21T14:44:18Z</time>
      </trkpt>
      <trkpt lat="45.92704" lon="-0.95441">
        <ele>4.4</ele>
        <time>2022-06-21T14:44:20Z</time>
      </trkpt>
      <trkpt lat="45.92704" lon="-0.95441">
        <ele>4.4</ele>
        <time>2022-06-21T14:44:21Z</time>
      </trkpt>
      <trkpt lat="45.92704" lon="-0.95441">
        <ele>4.4</ele>
        <time>2022-06-21T14:44:22Z</time>
      </trkpt>
      <trkpt lat="45.92704" lon="-0.9544">
        <ele>4.4</ele>
        <time>2022-06-21T14:44:23Z</time>
      </trkpt>
      <trkpt lat="45.92703" lon="-0.9544">
        <ele>4.4</ele>
        <time>2022-06-21T14:44:24Z</time>
      </trkpt>
      <trkpt lat="45.92704" lon="-0.9544">
        <ele>4.4</ele>
        <time>2022-06-21T14:44:25Z</time>
      </trkpt>
      <trkpt lat="45.92704" lon="-0.95439">
        <ele>4.4</ele>
        <time>2022-06-21T14:44:26Z</time>
      </trkpt>
      <trkpt lat="45.92704" lon="-0.95439">
        <ele>4.4</ele>
        <time>2022-06-21T14:44:27Z</time>
      </trkpt>
      <trkpt lat="45.92704" lon="-0.95439">
        <ele>4.4</ele>
        <time>2022-06-21T14:44:28Z</time>
      </trkpt>
      <trkpt lat="45.92704" lon="-0.95439">
        <ele>4.4</ele>
        <time>2022-06-21T14:44:29Z</time>
      </trkpt>
      <trkpt lat="45.92704" lon="-0.95439">
        <ele>4.4</ele>
        <time>2022-06-21T14:44:30Z</time>
      </trkpt>
      <trkpt lat="45.92704" lon="-0.95439">
        <ele>4.4</ele>
        <time>2022-06-21T14:44:31Z</time>
      </trkpt>
      <trkpt lat="45.92704" lon="-0.95439">
        <ele>4.4</ele>
        <time>2022-06-21T14:44:32Z</time>
      </trkpt>
      <trkpt lat="45.92704" lon="-0.95439">
        <ele>4.4</ele>
        <time>2022-06-21T14:44:33Z</time>
      </trkpt>
      <trkpt lat="45.92705" lon="-0.95439">
        <ele>4.4</ele>
        <time>2022-06-21T14:44:34Z</time>
      </trkpt>
      <trkpt lat="45.92705" lon="-0.95439">
        <ele>4.4</ele>
        <time>2022-06-21T14:44:35Z</time>
      </trkpt>
      <trkpt lat="45.92704" lon="-0.95438">
        <ele>4.4</ele>
        <time>2022-06-21T14:44:36Z</time>
      </trkpt>
      <trkpt lat="45.92704" lon="-0.95438">
        <ele>4.4</ele>
        <time>2022-06-21T14:44:37Z</time>
      </trkpt>
      <trkpt lat="45.92704" lon="-0.95437">
        <ele>4.4</ele>
        <time>2022-06-21T14:44:39Z</time>
      </trkpt>
      <trkpt lat="45.92704" lon="-0.95436">
        <ele>4.4</ele>
        <time>2022-06-21T14:44:40Z</time>
      </trkpt>
      <trkpt lat="45.92704" lon="-0.95435">
        <ele>4.4</ele>
        <time>2022-06-21T14:44:41Z</time>
      </trkpt>
      <trkpt lat="45.92704" lon="-0.95433">
        <ele>4.4</ele>
        <time>2022-06-21T14:44:42Z</time>
      </trkpt>
      <trkpt lat="45.92704" lon="-0.95431">
        <ele>4.4</ele>
        <time>2022-06-21T14:44:43Z</time>
      </trkpt>
      <trkpt lat="45.92704" lon="-0.95429">
        <ele>4.4</ele>
        <time>2022-06-21T14:44:44Z</time>
      </trkpt>
      <trkpt lat="45.92705" lon="-0.95425">
        <ele>4.4</ele>
        <time>2022-06-21T14:44:45Z</time>
      </trkpt>
      <trkpt lat="45.92705" lon="-0.95424">
        <ele>4.4</ele>
        <time>2022-06-21T14:44:46Z</time>
      </trkpt>
      <trkpt lat="45.92706" lon="-0.95423">
        <ele>4.4</ele>
        <time>2022-06-21T14:44:47Z</time>
      </trkpt>
      <trkpt lat="45.92706" lon="-0.95421">
        <ele>4.4</ele>
        <time>2022-06-21T14:44:49Z</time>
      </trkpt>
      <trkpt lat="45.92707" lon="-0.95419">
        <ele>4.4</ele>
        <time>2022-06-21T14:44:50Z</time>
      </trkpt>
      <trkpt lat="45.92709" lon="-0.95418">
        <ele>4.4</ele>
        <time>2022-06-21T14:44:51Z</time>
      </trkpt>
      <trkpt lat="45.9271" lon="-0.95418">
        <ele>4.4</ele>
        <time>2022-06-21T14:44:52Z</time>
      </trkpt>
      <trkpt lat="45.92711" lon="-0.95417">
        <ele>4.4</ele>
        <time>2022-06-21T14:44:53Z</time>
      </trkpt>
      <trkpt lat="45.92711" lon="-0.95416">
        <ele>4.4</ele>
        <time>2022-06-21T14:44:54Z</time>
      </trkpt>
      <trkpt lat="45.9271" lon="-0.95415">
        <ele>4.4</ele>
        <time>2022-06-21T14:44:55Z</time>
      </trkpt>
      <trkpt lat="45.9271" lon="-0.95414">
        <ele>4.4</ele>
        <time>2022-06-21T14:44:57Z</time>
      </trkpt>
      <trkpt lat="45.9271" lon="-0.95413">
        <ele>4.4</ele>
        <time>2022-06-21T14:44:58Z</time>
      </trkpt>
      <trkpt lat="45.9271" lon="-0.95412">
        <ele>4.4</ele>
        <time>2022-06-21T14:44:59Z</time>
      </trkpt>
      <trkpt lat="45.92709" lon="-0.95411">
        <ele>4.4</ele>
        <time>2022-06-21T14:45:00Z</time>
      </trkpt>
      <trkpt lat="45.92709" lon="-0.95411">
        <ele>4.4</ele>
        <time>2022-06-21T14:45:01Z</time>
      </trkpt>
      <trkpt lat="45.92709" lon="-0.9541">
        <ele>4.4</ele>
        <time>2022-06-21T14:45:02Z</time>
      </trkpt>
      <trkpt lat="45.92709" lon="-0.95408">
        <ele>4.4</ele>
        <time>2022-06-21T14:45:03Z</time>
      </trkpt>
      <trkpt lat="45.92709" lon="-0.95406">
        <ele>4.4</ele>
        <time>2022-06-21T14:45:05Z</time>
      </trkpt>
      <trkpt lat="45.92708" lon="-0.95404">
        <ele>4.4</ele>
        <time>2022-06-21T14:45:06Z</time>
      </trkpt>
      <trkpt lat="45.92707" lon="-0.95402">
        <ele>4.4</ele>
        <time>2022-06-21T14:45:07Z</time>
      </trkpt>
      <trkpt lat="45.92707" lon="-0.954">
        <ele>4.4</ele>
        <time>2022-06-21T14:45:09Z</time>
      </trkpt>
      <trkpt lat="45.92706" lon="-0.95399">
        <ele>4.4</ele>
        <time>2022-06-21T14:45:10Z</time>
      </trkpt>
      <trkpt lat="45.92706" lon="-0.95397">
        <ele>4.4</ele>
        <time>2022-06-21T14:45:11Z</time>
      </trkpt>
      <trkpt lat="45.92706" lon="-0.95396">
        <ele>4.5</ele>
        <time>2022-06-21T14:45:12Z</time>
      </trkpt>
      <trkpt lat="45.92706" lon="-0.95395">
        <ele>4.5</ele>
        <time>2022-06-21T14:45:13Z</time>
      </trkpt>
      <trkpt lat="45.92706" lon="-0.95393">
        <ele>4.5</ele>
        <time>2022-06-21T14:45:14Z</time>
      </trkpt>
      <trkpt lat="45.92706" lon="-0.95392">
        <ele>4.5</ele>
        <time>2022-06-21T14:45:15Z</time>
      </trkpt>
      <trkpt lat="45.92706" lon="-0.9539">
        <ele>4.5</ele>
        <time>2022-06-21T14:45:17Z</time>
      </trkpt>
      <trkpt lat="45.92707" lon="-0.95389">
        <ele>4.5</ele>
        <time>2022-06-21T14:45:18Z</time>
      </trkpt>
      <trkpt lat="45.92707" lon="-0.95388">
        <ele>4.5</ele>
        <time>2022-06-21T14:45:19Z</time>
      </trkpt>
      <trkpt lat="45.92708" lon="-0.95389">
        <ele>4.5</ele>
        <time>2022-06-21T14:45:20Z</time>
      </trkpt>
      <trkpt lat="45.92709" lon="-0.95387">
        <ele>4.5</ele>
        <time>2022-06-21T14:45:21Z</time>
      </trkpt>
      <trkpt lat="45.92709" lon="-0.95385">
        <ele>4.5</ele>
        <time>2022-06-21T14:45:22Z</time>
      </trkpt>
      <trkpt lat="45.92709" lon="-0.95382">
        <ele>4.5</ele>
        <time>2022-06-21T14:45:23Z</time>
      </trkpt>
      <trkpt lat="45.9271" lon="-0.95381">
        <ele>4.5</ele>
        <time>2022-06-21T14:45:25Z</time>
      </trkpt>
      <trkpt lat="45.9271" lon="-0.95379">
        <ele>4.5</ele>
        <time>2022-06-21T14:45:26Z</time>
      </trkpt>
      <trkpt lat="45.9271" lon="-0.95377">
        <ele>4.5</ele>
        <time>2022-06-21T14:45:27Z</time>
      </trkpt>
      <trkpt lat="45.92711" lon="-0.95375">
        <ele>4.5</ele>
        <time>2022-06-21T14:45:28Z</time>
      </trkpt>
      <trkpt lat="45.92712" lon="-0.9537">
        <ele>4.5</ele>
        <time>2022-06-21T14:45:29Z</time>
      </trkpt>
      <trkpt lat="45.92712" lon="-0.95369">
        <ele>4.5</ele>
        <time>2022-06-21T14:45:30Z</time>
      </trkpt>
      <trkpt lat="45.92712" lon="-0.95365">
        <ele>4.5</ele>
        <time>2022-06-21T14:45:31Z</time>
      </trkpt>
      <trkpt lat="45.92712" lon="-0.95364">
        <ele>4.5</ele>
        <time>2022-06-21T14:45:32Z</time>
      </trkpt>
      <trkpt lat="45.92712" lon="-0.95361">
        <ele>4.5</ele>
        <time>2022-06-21T14:45:34Z</time>
      </trkpt>
      <trkpt lat="45.92712" lon="-0.95359">
        <ele>4.5</ele>
        <time>2022-06-21T14:45:35Z</time>
      </trkpt>
      <trkpt lat="45.92712" lon="-0.95358">
        <ele>4.5</ele>
        <time>2022-06-21T14:45:36Z</time>
      </trkpt>
      <trkpt lat="45.92712" lon="-0.95356">
        <ele>4.5</ele>
        <time>2022-06-21T14:45:37Z</time>
      </trkpt>
      <trkpt lat="45.92712" lon="-0.95354">
        <ele>4.5</ele>
        <time>2022-06-21T14:45:38Z</time>
      </trkpt>
      <trkpt lat="45.92712" lon="-0.95352">
        <ele>4.5</ele>
        <time>2022-06-21T14:45:39Z</time>
      </trkpt>
      <trkpt lat="45.92712" lon="-0.9535">
        <ele>4.5</ele>
        <time>2022-06-21T14:45:40Z</time>
      </trkpt>
      <trkpt lat="45.92712" lon="-0.95348">
        <ele>4.5</ele>
        <time>2022-06-21T14:45:41Z</time>
      </trkpt>
      <trkpt lat="45.92711" lon="-0.95346">
        <ele>4.5</ele>
        <time>2022-06-21T14:45:43Z</time>
      </trkpt>
      <trkpt lat="45.92711" lon="-0.95344">
        <ele>4.5</ele>
        <time>2022-06-21T14:45:44Z</time>
      </trkpt>
      <trkpt lat="45.92711" lon="-0.95342">
        <ele>4.5</ele>
        <time>2022-06-21T14:45:45Z</time>
      </trkpt>
      <trkpt lat="45.92711" lon="-0.9534">
        <ele>4.5</ele>
        <time>2022-06-21T14:45:46Z</time>
      </trkpt>
      <trkpt lat="45.92711" lon="-0.95338">
        <ele>4.5</ele>
        <time>2022-06-21T14:45:47Z</time>
      </trkpt>
      <trkpt lat="45.92711" lon="-0.95336">
        <ele>4.5</ele>
        <time>2022-06-21T14:45:48Z</time>
      </trkpt>
      <trkpt lat="45.92711" lon="-0.95334">
        <ele>4.5</ele>
        <time>2022-06-21T14:45:50Z</time>
      </trkpt>
      <trkpt lat="45.92712" lon="-0.95332">
        <ele>4.5</ele>
        <time>2022-06-21T14:45:51Z</time>
      </trkpt>
      <trkpt lat="45.92712" lon="-0.95331">
        <ele>4.5</ele>
        <time>2022-06-21T14:45:52Z</time>
      </trkpt>
      <trkpt lat="45.92712" lon="-0.95329">
        <ele>4.5</ele>
        <time>2022-06-21T14:45:53Z</time>
      </trkpt>
      <trkpt lat="45.92713" lon="-0.95327">
        <ele>4.5</ele>
        <time>2022-06-21T14:45:54Z</time>
      </trkpt>
      <trkpt lat="45.92713" lon="-0.95325">
        <ele>4.5</ele>
        <time>2022-06-21T14:45:55Z</time>
      </trkpt>
      <trkpt lat="45.92714" lon="-0.95322">
        <ele>4.5</ele>
        <time>2022-06-21T14:45:56Z</time>
      </trkpt>
      <trkpt lat="45.92714" lon="-0.95321">
        <ele>4.5</ele>
        <time>2022-06-21T14:45:58Z</time>
      </trkpt>
      <trkpt lat="45.92714" lon="-0.9532">
        <ele>4.5</ele>
        <time>2022-06-21T14:45:59Z</time>
      </trkpt>
      <trkpt lat="45.92714" lon="-0.95319">
        <ele>4.5</ele>
        <time>2022-06-21T14:46:00Z</time>
      </trkpt>
      <trkpt lat="45.92715" lon="-0.95317">
        <ele>4.5</ele>
        <time>2022-06-21T14:46:01Z</time>
      </trkpt>
      <trkpt lat="45.92715" lon="-0.95315">
        <ele>4.5</ele>
        <time>2022-06-21T14:46:02Z</time>
      </trkpt>
      <trkpt lat="45.92716" lon="-0.95313">
        <ele>4.5</ele>
        <time>2022-06-21T14:46:03Z</time>
      </trkpt>
      <trkpt lat="45.92716" lon="-0.95311">
        <ele>4.5</ele>
        <time>2022-06-21T14:46:04Z</time>
      </trkpt>
      <trkpt lat="45.92716" lon="-0.95309">
        <ele>4.6</ele>
        <time>2022-06-21T14:46:06Z</time>
      </trkpt>
      <trkpt lat="45.92716" lon="-0.95307">
        <ele>4.6</ele>
        <time>2022-06-21T14:46:07Z</time>
      </trkpt>
      <trkpt lat="45.92716" lon="-0.95306">
        <ele>4.6</ele>
        <time>2022-06-21T14:46:08Z</time>
      </trkpt>
      <trkpt lat="45.92715" lon="-0.95304">
        <ele>4.6</ele>
        <time>2022-06-21T14:46:09Z</time>
      </trkpt>
      <trkpt lat="45.92715" lon="-0.95303">
        <ele>4.6</ele>
        <time>2022-06-21T14:46:10Z</time>
      </trkpt>
      <trkpt lat="45.92714" lon="-0.95301">
        <ele>4.6</ele>
        <time>2022-06-21T14:46:11Z</time>
      </trkpt>
      <trkpt lat="45.92712" lon="-0.95298">
        <ele>4.7</ele>
        <time>2022-06-21T14:46:12Z</time>
      </trkpt>
      <trkpt lat="45.92709" lon="-0.95297">
        <ele>4.7</ele>
        <time>2022-06-21T14:46:14Z</time>
      </trkpt>
      <trkpt lat="45.92707" lon="-0.95296">
        <ele>4.7</ele>
        <time>2022-06-21T14:46:15Z</time>
      </trkpt>
      <trkpt lat="45.92708" lon="-0.95296">
        <ele>4.7</ele>
        <time>2022-06-21T14:46:16Z</time>
      </trkpt>
      <trkpt lat="45.92708" lon="-0.95295">
        <ele>4.7</ele>
        <time>2022-06-21T14:46:17Z</time>
      </trkpt>
      <trkpt lat="45.92708" lon="-0.95295">
        <ele>4.7</ele>
        <time>2022-06-21T14:46:18Z</time>
      </trkpt>
      <trkpt lat="45.92707" lon="-0.95294">
        <ele>4.7</ele>
        <time>2022-06-21T14:46:19Z</time>
      </trkpt>
      <trkpt lat="45.92707" lon="-0.95293">
        <ele>4.7</ele>
        <time>2022-06-21T14:46:20Z</time>
      </trkpt>
      <trkpt lat="45.92706" lon="-0.95293">
        <ele>4.7</ele>
        <time>2022-06-21T14:46:21Z</time>
      </trkpt>
      <trkpt lat="45.92705" lon="-0.95292">
        <ele>4.7</ele>
        <time>2022-06-21T14:46:22Z</time>
      </trkpt>
      <trkpt lat="45.92704" lon="-0.95292">
        <ele>4.7</ele>
        <time>2022-06-21T14:46:24Z</time>
      </trkpt>
      <trkpt lat="45.92703" lon="-0.95291">
        <ele>4.7</ele>
        <time>2022-06-21T14:46:25Z</time>
      </trkpt>
      <trkpt lat="45.92702" lon="-0.95291">
        <ele>4.7</ele>
        <time>2022-06-21T14:46:26Z</time>
      </trkpt>
      <trkpt lat="45.92701" lon="-0.9529">
        <ele>4.7</ele>
        <time>2022-06-21T14:46:27Z</time>
      </trkpt>
      <trkpt lat="45.927" lon="-0.9529">
        <ele>4.7</ele>
        <time>2022-06-21T14:46:28Z</time>
      </trkpt>
      <trkpt lat="45.92699" lon="-0.9529">
        <ele>4.7</ele>
        <time>2022-06-21T14:46:29Z</time>
      </trkpt>
      <trkpt lat="45.92698" lon="-0.95289">
        <ele>4.7</ele>
        <time>2022-06-21T14:46:30Z</time>
      </trkpt>
      <trkpt lat="45.92697" lon="-0.95289">
        <ele>4.7</ele>
        <time>2022-06-21T14:46:32Z</time>
      </trkpt>
      <trkpt lat="45.92696" lon="-0.95287">
        <ele>4.7</ele>
        <time>2022-06-21T14:46:33Z</time>
      </trkpt>
      <trkpt lat="45.92695" lon="-0.95286">
        <ele>4.7</ele>
        <time>2022-06-21T14:46:34Z</time>
      </trkpt>
      <trkpt lat="45.92696" lon="-0.95285">
        <ele>4.7</ele>
        <time>2022-06-21T14:46:35Z</time>
      </trkpt>
      <trkpt lat="45.92697" lon="-0.95283">
        <ele>4.8</ele>
        <time>2022-06-21T14:46:36Z</time>
      </trkpt>
      <trkpt lat="45.92697" lon="-0.95282">
        <ele>4.8</ele>
        <time>2022-06-21T14:46:37Z</time>
      </trkpt>
      <trkpt lat="45.92697" lon="-0.9528">
        <ele>4.8</ele>
        <time>2022-06-21T14:46:38Z</time>
      </trkpt>
      <trkpt lat="45.92697" lon="-0.95278">
        <ele>4.8</ele>
        <time>2022-06-21T14:46:40Z</time>
      </trkpt>
      <trkpt lat="45.92697" lon="-0.95277">
        <ele>4.8</ele>
        <time>2022-06-21T14:46:41Z</time>
      </trkpt>
      <trkpt lat="45.92696" lon="-0.95275">
        <ele>4.8</ele>
        <time>2022-06-21T14:46:42Z</time>
      </trkpt>
      <trkpt lat="45.92696" lon="-0.95274">
        <ele>4.8</ele>
        <time>2022-06-21T14:46:43Z</time>
      </trkpt>
      <trkpt lat="45.92695" lon="-0.95273">
        <ele>4.8</ele>
        <time>2022-06-21T14:46:44Z</time>
      </trkpt>
      <trkpt lat="45.92694" lon="-0.95272">
        <ele>4.8</ele>
        <time>2022-06-21T14:46:45Z</time>
      </trkpt>
      <trkpt lat="45.92693" lon="-0.95271">
        <ele>4.8</ele>
        <time>2022-06-21T14:46:46Z</time>
      </trkpt>
      <trkpt lat="45.9269" lon="-0.95271">
        <ele>4.8</ele>
        <time>2022-06-21T14:46:47Z</time>
      </trkpt>
      <trkpt lat="45.92689" lon="-0.9527">
        <ele>4.8</ele>
        <time>2022-06-21T14:46:49Z</time>
      </trkpt>
      <trkpt lat="45.92688" lon="-0.9527">
        <ele>4.8</ele>
        <time>2022-06-21T14:46:50Z</time>
      </trkpt>
      <trkpt lat="45.92687" lon="-0.95269">
        <ele>4.8</ele>
        <time>2022-06-21T14:46:51Z</time>
      </trkpt>
      <trkpt lat="45.92686" lon="-0.95269">
        <ele>4.8</ele>
        <time>2022-06-21T14:46:52Z</time>
      </trkpt>
      <trkpt lat="45.92685" lon="-0.95268">
        <ele>4.8</ele>
        <time>2022-06-21T14:46:53Z</time>
      </trkpt>
      <trkpt lat="45.92683" lon="-0.95267">
        <ele>4.8</ele>
        <time>2022-06-21T14:46:54Z</time>
      </trkpt>
      <trkpt lat="45.92682" lon="-0.95266">
        <ele>4.8</ele>
        <time>2022-06-21T14:46:55Z</time>
      </trkpt>
      <trkpt lat="45.92681" lon="-0.95266">
        <ele>4.8</ele>
        <time>2022-06-21T14:46:56Z</time>
      </trkpt>
      <trkpt lat="45.9268" lon="-0.95266">
        <ele>4.8</ele>
        <time>2022-06-21T14:46:58Z</time>
      </trkpt>
      <trkpt lat="45.92679" lon="-0.95266">
        <ele>4.8</ele>
        <time>2022-06-21T14:46:59Z</time>
      </trkpt>
      <trkpt lat="45.92678" lon="-0.95266">
        <ele>4.8</ele>
        <time>2022-06-21T14:47:00Z</time>
      </trkpt>
      <trkpt lat="45.92677" lon="-0.95265">
        <ele>4.8</ele>
        <time>2022-06-21T14:47:01Z</time>
      </trkpt>
      <trkpt lat="45.92676" lon="-0.95265">
        <ele>4.8</ele>
        <time>2022-06-21T14:47:02Z</time>
      </trkpt>
      <trkpt lat="45.92674" lon="-0.95264">
        <ele>4.8</ele>
        <time>2022-06-21T14:47:03Z</time>
      </trkpt>
      <trkpt lat="45.92674" lon="-0.95263">
        <ele>4.8</ele>
        <time>2022-06-21T14:47:04Z</time>
      </trkpt>
      <trkpt lat="45.92672" lon="-0.95263">
        <ele>4.8</ele>
        <time>2022-06-21T14:47:06Z</time>
      </trkpt>
      <trkpt lat="45.92671" lon="-0.95262">
        <ele>4.8</ele>
        <time>2022-06-21T14:47:07Z</time>
      </trkpt>
      <trkpt lat="45.92669" lon="-0.95261">
        <ele>4.9</ele>
        <time>2022-06-21T14:47:08Z</time>
      </trkpt>
      <trkpt lat="45.92669" lon="-0.95261">
        <ele>4.9</ele>
        <time>2022-06-21T14:47:09Z</time>
      </trkpt>
      <trkpt lat="45.92668" lon="-0.9526">
        <ele>4.9</ele>
        <time>2022-06-21T14:47:10Z</time>
      </trkpt>
      <trkpt lat="45.92666" lon="-0.9526">
        <ele>4.9</ele>
        <time>2022-06-21T14:47:11Z</time>
      </trkpt>
      <trkpt lat="45.92665" lon="-0.9526">
        <ele>4.9</ele>
        <time>2022-06-21T14:47:13Z</time>
      </trkpt>
      <trkpt lat="45.92663" lon="-0.95259">
        <ele>4.9</ele>
        <time>2022-06-21T14:47:14Z</time>
      </trkpt>
      <trkpt lat="45.92661" lon="-0.95259">
        <ele>4.9</ele>
        <time>2022-06-21T14:47:15Z</time>
      </trkpt>
      <trkpt lat="45.9266" lon="-0.95258">
        <ele>4.9</ele>
        <time>2022-06-21T14:47:16Z</time>
      </trkpt>
      <trkpt lat="45.92659" lon="-0.95258">
        <ele>4.9</ele>
        <time>2022-06-21T14:47:18Z</time>
      </trkpt>
      <trkpt lat="45.92658" lon="-0.95258">
        <ele>4.9</ele>
        <time>2022-06-21T14:47:19Z</time>
      </trkpt>
      <trkpt lat="45.92657" lon="-0.95259">
        <ele>4.9</ele>
        <time>2022-06-21T14:47:20Z</time>
      </trkpt>
      <trkpt lat="45.92656" lon="-0.95259">
        <ele>4.9</ele>
        <time>2022-06-21T14:47:21Z</time>
      </trkpt>
      <trkpt lat="45.92655" lon="-0.95259">
        <ele>4.8</ele>
        <time>2022-06-21T14:47:22Z</time>
      </trkpt>
      <trkpt lat="45.92656" lon="-0.9526">
        <ele>4.8</ele>
        <time>2022-06-21T14:47:23Z</time>
      </trkpt>
      <trkpt lat="45.92656" lon="-0.9526">
        <ele>4.8</ele>
        <time>2022-06-21T14:47:24Z</time>
      </trkpt>
      <trkpt lat="45.92655" lon="-0.9526">
        <ele>4.8</ele>
        <time>2022-06-21T14:47:25Z</time>
      </trkpt>
      <trkpt lat="45.92654" lon="-0.9526">
        <ele>4.8</ele>
        <time>2022-06-21T14:47:27Z</time>
      </trkpt>
      <trkpt lat="45.92654" lon="-0.95259">
        <ele>4.8</ele>
        <time>2022-06-21T14:47:28Z</time>
      </trkpt>
      <trkpt lat="45.92653" lon="-0.95259">
        <ele>4.8</ele>
        <time>2022-06-21T14:47:29Z</time>
      </trkpt>
      <trkpt lat="45.92652" lon="-0.95258">
        <ele>4.8</ele>
        <time>2022-06-21T14:47:30Z</time>
      </trkpt>
      <trkpt lat="45.92652" lon="-0.95257">
        <ele>4.8</ele>
        <time>2022-06-21T14:47:31Z</time>
      </trkpt>
      <trkpt lat="45.92651" lon="-0.95257">
        <ele>4.8</ele>
        <time>2022-06-21T14:47:32Z</time>
      </trkpt>
      <trkpt lat="45.92649" lon="-0.95255">
        <ele>4.8</ele>
        <time>2022-06-21T14:47:33Z</time>
      </trkpt>
      <trkpt lat="45.92648" lon="-0.95255">
        <ele>4.8</ele>
        <time>2022-06-21T14:47:35Z</time>
      </trkpt>
      <trkpt lat="45.92647" lon="-0.95255">
        <ele>4.8</ele>
        <time>2022-06-21T14:47:36Z</time>
      </trkpt>
      <trkpt lat="45.92646" lon="-0.95254">
        <ele>4.8</ele>
        <time>2022-06-21T14:47:37Z</time>
      </trkpt>
      <trkpt lat="45.92645" lon="-0.95254">
        <ele>4.8</ele>
        <time>2022-06-21T14:47:38Z</time>
      </trkpt>
      <trkpt lat="45.92644" lon="-0.95253">
        <ele>4.8</ele>
        <time>2022-06-21T14:47:39Z</time>
      </trkpt>
      <trkpt lat="45.92643" lon="-0.95253">
        <ele>4.8</ele>
        <time>2022-06-21T14:47:40Z</time>
      </trkpt>
      <trkpt lat="45.92641" lon="-0.95253">
        <ele>4.8</ele>
        <time>2022-06-21T14:47:41Z</time>
      </trkpt>
      <trkpt lat="45.9264" lon="-0.95252">
        <ele>4.8</ele>
        <time>2022-06-21T14:47:43Z</time>
      </trkpt>
      <trkpt lat="45.92639" lon="-0.95251">
        <ele>4.8</ele>
        <time>2022-06-21T14:47:44Z</time>
      </trkpt>
      <trkpt lat="45.92638" lon="-0.95251">
        <ele>4.8</ele>
        <time>2022-06-21T14:47:45Z</time>
      </trkpt>
      <trkpt lat="45.92637" lon="-0.9525">
        <ele>4.8</ele>
        <time>2022-06-21T14:47:46Z</time>
      </trkpt>
      <trkpt lat="45.92636" lon="-0.95249">
        <ele>4.7</ele>
        <time>2022-06-21T14:47:47Z</time>
      </trkpt>
      <trkpt lat="45.92634" lon="-0.95249">
        <ele>4.7</ele>
        <time>2022-06-21T14:47:48Z</time>
      </trkpt>
      <trkpt lat="45.92633" lon="-0.9525">
        <ele>4.7</ele>
        <time>2022-06-21T14:47:50Z</time>
      </trkpt>
      <trkpt lat="45.92632" lon="-0.9525">
        <ele>4.7</ele>
        <time>2022-06-21T14:47:51Z</time>
      </trkpt>
      <trkpt lat="45.92632" lon="-0.9525">
        <ele>4.7</ele>
        <time>2022-06-21T14:47:52Z</time>
      </trkpt>
      <trkpt lat="45.92632" lon="-0.9525">
        <ele>4.7</ele>
        <time>2022-06-21T14:47:53Z</time>
      </trkpt>
      <trkpt lat="45.92631" lon="-0.95249">
        <ele>4.7</ele>
        <time>2022-06-21T14:47:54Z</time>
      </trkpt>
      <trkpt lat="45.92631" lon="-0.95249">
        <ele>4.7</ele>
        <time>2022-06-21T14:47:55Z</time>
      </trkpt>
      <trkpt lat="45.92631" lon="-0.95249">
        <ele>4.7</ele>
        <time>2022-06-21T14:47:56Z</time>
      </trkpt>
      <trkpt lat="45.92631" lon="-0.95249">
        <ele>4.7</ele>
        <time>2022-06-21T14:47:57Z</time>
      </trkpt>
      <trkpt lat="45.92631" lon="-0.95249">
        <ele>4.7</ele>
        <time>2022-06-21T14:47:58Z</time>
      </trkpt>
      <trkpt lat="45.92631" lon="-0.95248">
        <ele>4.7</ele>
        <time>2022-06-21T14:47:59Z</time>
      </trkpt>
      <trkpt lat="45.92631" lon="-0.95248">
        <ele>4.7</ele>
        <time>2022-06-21T14:48:00Z</time>
      </trkpt>
      <trkpt lat="45.92631" lon="-0.95248">
        <ele>4.7</ele>
        <time>2022-06-21T14:48:01Z</time>
      </trkpt>
      <trkpt lat="45.92631" lon="-0.95248">
        <ele>4.7</ele>
        <time>2022-06-21T14:48:02Z</time>
      </trkpt>
      <trkpt lat="45.92631" lon="-0.95248">
        <ele>4.7</ele>
        <time>2022-06-21T14:48:03Z</time>
      </trkpt>
      <trkpt lat="45.9263" lon="-0.95248">
        <ele>4.7</ele>
        <time>2022-06-21T14:48:04Z</time>
      </trkpt>
      <trkpt lat="45.9263" lon="-0.95247">
        <ele>4.7</ele>
        <time>2022-06-21T14:48:06Z</time>
      </trkpt>
      <trkpt lat="45.9263" lon="-0.95247">
        <ele>4.7</ele>
        <time>2022-06-21T14:48:07Z</time>
      </trkpt>
      <trkpt lat="45.9263" lon="-0.95247">
        <ele>4.7</ele>
        <time>2022-06-21T14:48:08Z</time>
      </trkpt>
      <trkpt lat="45.9263" lon="-0.95247">
        <ele>4.7</ele>
        <time>2022-06-21T14:48:09Z</time>
      </trkpt>
      <trkpt lat="45.9263" lon="-0.95247">
        <ele>4.7</ele>
        <time>2022-06-21T14:48:10Z</time>
      </trkpt>
      <trkpt lat="45.9263" lon="-0.95244">
        <ele>4.7</ele>
        <time>2022-06-21T14:48:11Z</time>
      </trkpt>
      <trkpt lat="45.92629" lon="-0.95242">
        <ele>4.7</ele>
        <time>2022-06-21T14:48:13Z</time>
      </trkpt>
      <trkpt lat="45.9263" lon="-0.95236">
        <ele>4.7</ele>
        <time>2022-06-21T14:48:14Z</time>
      </trkpt>
      <trkpt lat="45.92629" lon="-0.95232">
        <ele>4.7</ele>
        <time>2022-06-21T14:48:15Z</time>
      </trkpt>
      <trkpt lat="45.92628" lon="-0.95232">
        <ele>4.7</ele>
        <time>2022-06-21T14:48:16Z</time>
      </trkpt>
      <trkpt lat="45.92627" lon="-0.9523">
        <ele>4.7</ele>
        <time>2022-06-21T14:48:17Z</time>
      </trkpt>
      <trkpt lat="45.92626" lon="-0.95228">
        <ele>4.7</ele>
        <time>2022-06-21T14:48:18Z</time>
      </trkpt>
      <trkpt lat="45.92625" lon="-0.95226">
        <ele>4.7</ele>
        <time>2022-06-21T14:48:19Z</time>
      </trkpt>
      <trkpt lat="45.92624" lon="-0.95225">
        <ele>4.8</ele>
        <time>2022-06-21T14:48:20Z</time>
      </trkpt>
      <trkpt lat="45.92622" lon="-0.95223">
        <ele>4.8</ele>
        <time>2022-06-21T14:48:22Z</time>
      </trkpt>
      <trkpt lat="45.92622" lon="-0.95222">
        <ele>4.8</ele>
        <time>2022-06-21T14:48:23Z</time>
      </trkpt>
      <trkpt lat="45.92621" lon="-0.95221">
        <ele>4.8</ele>
        <time>2022-06-21T14:48:24Z</time>
      </trkpt>
      <trkpt lat="45.92619" lon="-0.95219">
        <ele>4.8</ele>
        <time>2022-06-21T14:48:25Z</time>
      </trkpt>
      <trkpt lat="45.92618" lon="-0.95218">
        <ele>4.8</ele>
        <time>2022-06-21T14:48:26Z</time>
      </trkpt>
      <trkpt lat="45.92618" lon="-0.95218">
        <ele>4.8</ele>
        <time>2022-06-21T14:48:27Z</time>
      </trkpt>
      <trkpt lat="45.92616" lon="-0.95216">
        <ele>4.8</ele>
        <time>2022-06-21T14:48:28Z</time>
      </trkpt>
      <trkpt lat="45.92615" lon="-0.95216">
        <ele>4.9</ele>
        <time>2022-06-21T14:48:29Z</time>
      </trkpt>
      <trkpt lat="45.92614" lon="-0.95215">
        <ele>4.9</ele>
        <time>2022-06-21T14:48:30Z</time>
      </trkpt>
      <trkpt lat="45.92613" lon="-0.95214">
        <ele>4.9</ele>
        <time>2022-06-21T14:48:32Z</time>
      </trkpt>
      <trkpt lat="45.92612" lon="-0.95213">
        <ele>4.9</ele>
        <time>2022-06-21T14:48:33Z</time>
      </trkpt>
      <trkpt lat="45.92612" lon="-0.95211">
        <ele>4.9</ele>
        <time>2022-06-21T14:48:34Z</time>
      </trkpt>
      <trkpt lat="45.9261" lon="-0.9521">
        <ele>4.9</ele>
        <time>2022-06-21T14:48:35Z</time>
      </trkpt>
      <trkpt lat="45.92609" lon="-0.95209">
        <ele>4.9</ele>
        <time>2022-06-21T14:48:37Z</time>
      </trkpt>
      <trkpt lat="45.92608" lon="-0.95208">
        <ele>5</ele>
        <time>2022-06-21T14:48:38Z</time>
      </trkpt>
      <trkpt lat="45.92607" lon="-0.95207">
        <ele>5</ele>
        <time>2022-06-21T14:48:39Z</time>
      </trkpt>
      <trkpt lat="45.92606" lon="-0.95206">
        <ele>5</ele>
        <time>2022-06-21T14:48:40Z</time>
      </trkpt>
      <trkpt lat="45.92605" lon="-0.95204">
        <ele>5</ele>
        <time>2022-06-21T14:48:41Z</time>
      </trkpt>
      <trkpt lat="45.92604" lon="-0.95203">
        <ele>5</ele>
        <time>2022-06-21T14:48:42Z</time>
      </trkpt>
      <trkpt lat="45.92604" lon="-0.95202">
        <ele>5</ele>
        <time>2022-06-21T14:48:43Z</time>
      </trkpt>
      <trkpt lat="45.92602" lon="-0.952">
        <ele>5</ele>
        <time>2022-06-21T14:48:45Z</time>
      </trkpt>
      <trkpt lat="45.92601" lon="-0.952">
        <ele>5</ele>
        <time>2022-06-21T14:48:46Z</time>
      </trkpt>
      <trkpt lat="45.926" lon="-0.95199">
        <ele>5.1</ele>
        <time>2022-06-21T14:48:47Z</time>
      </trkpt>
      <trkpt lat="45.926" lon="-0.95199">
        <ele>5.1</ele>
        <time>2022-06-21T14:48:48Z</time>
      </trkpt>
      <trkpt lat="45.92599" lon="-0.95198">
        <ele>5.1</ele>
        <time>2022-06-21T14:48:49Z</time>
      </trkpt>
      <trkpt lat="45.92598" lon="-0.95197">
        <ele>5.1</ele>
        <time>2022-06-21T14:48:50Z</time>
      </trkpt>
      <trkpt lat="45.92597" lon="-0.95195">
        <ele>5.1</ele>
        <time>2022-06-21T14:48:51Z</time>
      </trkpt>
      <trkpt lat="45.92596" lon="-0.95194">
        <ele>5.1</ele>
        <time>2022-06-21T14:48:53Z</time>
      </trkpt>
      <trkpt lat="45.92595" lon="-0.95193">
        <ele>5.1</ele>
        <time>2022-06-21T14:48:54Z</time>
      </trkpt>
      <trkpt lat="45.92594" lon="-0.95191">
        <ele>5.1</ele>
        <time>2022-06-21T14:48:55Z</time>
      </trkpt>
      <trkpt lat="45.92594" lon="-0.9519">
        <ele>5.1</ele>
        <time>2022-06-21T14:48:56Z</time>
      </trkpt>
      <trkpt lat="45.92593" lon="-0.95189">
        <ele>5.2</ele>
        <time>2022-06-21T14:48:57Z</time>
      </trkpt>
      <trkpt lat="45.92592" lon="-0.95187">
        <ele>5.2</ele>
        <time>2022-06-21T14:48:58Z</time>
      </trkpt>
      <trkpt lat="45.92591" lon="-0.95184">
        <ele>5.2</ele>
        <time>2022-06-21T14:49:00Z</time>
      </trkpt>
      <trkpt lat="45.92591" lon="-0.95183">
        <ele>5.2</ele>
        <time>2022-06-21T14:49:01Z</time>
      </trkpt>
      <trkpt lat="45.92591" lon="-0.95182">
        <ele>5.2</ele>
        <time>2022-06-21T14:49:02Z</time>
      </trkpt>
      <trkpt lat="45.92591" lon="-0.9518">
        <ele>5.2</ele>
        <time>2022-06-21T14:49:03Z</time>
      </trkpt>
      <trkpt lat="45.9259" lon="-0.95179">
        <ele>5.2</ele>
        <time>2022-06-21T14:49:04Z</time>
      </trkpt>
      <trkpt lat="45.92589" lon="-0.95178">
        <ele>5.4</ele>
        <time>2022-06-21T14:49:06Z</time>
      </trkpt>
      <trkpt lat="45.92587" lon="-0.95177">
        <ele>5.4</ele>
        <time>2022-06-21T14:49:07Z</time>
      </trkpt>
      <trkpt lat="45.92586" lon="-0.95177">
        <ele>5.4</ele>
        <time>2022-06-21T14:49:08Z</time>
      </trkpt>
      <trkpt lat="45.92585" lon="-0.95177">
        <ele>5.4</ele>
        <time>2022-06-21T14:49:09Z</time>
      </trkpt>
      <trkpt lat="45.92584" lon="-0.95178">
        <ele>5.4</ele>
        <time>2022-06-21T14:49:10Z</time>
      </trkpt>
      <trkpt lat="45.92583" lon="-0.95179">
        <ele>5.4</ele>
        <time>2022-06-21T14:49:11Z</time>
      </trkpt>
      <trkpt lat="45.92583" lon="-0.95181">
        <ele>5.4</ele>
        <time>2022-06-21T14:49:12Z</time>
      </trkpt>
      <trkpt lat="45.92582" lon="-0.95181">
        <ele>5.4</ele>
        <time>2022-06-21T14:49:14Z</time>
      </trkpt>
      <trkpt lat="45.92582" lon="-0.95181">
        <ele>5.4</ele>
        <time>2022-06-21T14:49:15Z</time>
      </trkpt>
      <trkpt lat="45.92582" lon="-0.95181">
        <ele>5.4</ele>
        <time>2022-06-21T14:49:16Z</time>
      </trkpt>
      <trkpt lat="45.92582" lon="-0.9518">
        <ele>5.4</ele>
        <time>2022-06-21T14:49:17Z</time>
      </trkpt>
      <trkpt lat="45.92582" lon="-0.95179">
        <ele>5.4</ele>
        <time>2022-06-21T14:49:18Z</time>
      </trkpt>
      <trkpt lat="45.92582" lon="-0.95178">
        <ele>5.4</ele>
        <time>2022-06-21T14:49:20Z</time>
      </trkpt>
      <trkpt lat="45.92582" lon="-0.95177">
        <ele>5.4</ele>
        <time>2022-06-21T14:49:21Z</time>
      </trkpt>
      <trkpt lat="45.92583" lon="-0.95174">
        <ele>5.4</ele>
        <time>2022-06-21T14:49:22Z</time>
      </trkpt>
      <trkpt lat="45.92583" lon="-0.95172">
        <ele>5.4</ele>
        <time>2022-06-21T14:49:23Z</time>
      </trkpt>
      <trkpt lat="45.92584" lon="-0.9517">
        <ele>5.4</ele>
        <time>2022-06-21T14:49:24Z</time>
      </trkpt>
      <trkpt lat="45.92585" lon="-0.95168">
        <ele>5.4</ele>
        <time>2022-06-21T14:49:25Z</time>
      </trkpt>
      <trkpt lat="45.92587" lon="-0.95164">
        <ele>5.5</ele>
        <time>2022-06-21T14:49:26Z</time>
      </trkpt>
      <trkpt lat="45.92588" lon="-0.95163">
        <ele>5.5</ele>
        <time>2022-06-21T14:49:28Z</time>
      </trkpt>
      <trkpt lat="45.92588" lon="-0.95161">
        <ele>5.5</ele>
        <time>2022-06-21T14:49:29Z</time>
      </trkpt>
      <trkpt lat="45.92589" lon="-0.95159">
        <ele>5.5</ele>
        <time>2022-06-21T14:49:30Z</time>
      </trkpt>
      <trkpt lat="45.92591" lon="-0.95155">
        <ele>5.5</ele>
        <time>2022-06-21T14:49:31Z</time>
      </trkpt>
      <trkpt lat="45.92591" lon="-0.95153">
        <ele>5.5</ele>
        <time>2022-06-21T14:49:32Z</time>
      </trkpt>
      <trkpt lat="45.92593" lon="-0.95149">
        <ele>5.5</ele>
        <time>2022-06-21T14:49:33Z</time>
      </trkpt>
      <trkpt lat="45.92593" lon="-0.95148">
        <ele>5.5</ele>
        <time>2022-06-21T14:49:34Z</time>
      </trkpt>
      <trkpt lat="45.92594" lon="-0.95145">
        <ele>5.5</ele>
        <time>2022-06-21T14:49:35Z</time>
      </trkpt>
      <trkpt lat="45.92594" lon="-0.95143">
        <ele>5.5</ele>
        <time>2022-06-21T14:49:37Z</time>
      </trkpt>
      <trkpt lat="45.92595" lon="-0.95141">
        <ele>5.5</ele>
        <time>2022-06-21T14:49:38Z</time>
      </trkpt>
      <trkpt lat="45.92596" lon="-0.95139">
        <ele>5.5</ele>
        <time>2022-06-21T14:49:39Z</time>
      </trkpt>
      <trkpt lat="45.92596" lon="-0.95137">
        <ele>5.5</ele>
        <time>2022-06-21T14:49:40Z</time>
      </trkpt>
      <trkpt lat="45.92597" lon="-0.95135">
        <ele>5.5</ele>
        <time>2022-06-21T14:49:41Z</time>
      </trkpt>
      <trkpt lat="45.92598" lon="-0.95133">
        <ele>5.5</ele>
        <time>2022-06-21T14:49:42Z</time>
      </trkpt>
      <trkpt lat="45.92599" lon="-0.95131">
        <ele>5.5</ele>
        <time>2022-06-21T14:49:43Z</time>
      </trkpt>
      <trkpt lat="45.92599" lon="-0.95129">
        <ele>5.5</ele>
        <time>2022-06-21T14:49:44Z</time>
      </trkpt>
      <trkpt lat="45.926" lon="-0.95126">
        <ele>5.5</ele>
        <time>2022-06-21T14:49:46Z</time>
      </trkpt>
      <trkpt lat="45.92601" lon="-0.95124">
        <ele>5.5</ele>
        <time>2022-06-21T14:49:47Z</time>
      </trkpt>
      <trkpt lat="45.92602" lon="-0.95123">
        <ele>5.5</ele>
        <time>2022-06-21T14:49:48Z</time>
      </trkpt>
      <trkpt lat="45.92602" lon="-0.95122">
        <ele>5.5</ele>
        <time>2022-06-21T14:49:49Z</time>
      </trkpt>
      <trkpt lat="45.92603" lon="-0.9512">
        <ele>5.5</ele>
        <time>2022-06-21T14:49:50Z</time>
      </trkpt>
      <trkpt lat="45.92603" lon="-0.95118">
        <ele>5.5</ele>
        <time>2022-06-21T14:49:51Z</time>
      </trkpt>
      <trkpt lat="45.92604" lon="-0.95115">
        <ele>5.4</ele>
        <time>2022-06-21T14:49:53Z</time>
      </trkpt>
      <trkpt lat="45.92604" lon="-0.95114">
        <ele>5.4</ele>
        <time>2022-06-21T14:49:54Z</time>
      </trkpt>
      <trkpt lat="45.92605" lon="-0.95113">
        <ele>5.4</ele>
        <time>2022-06-21T14:49:55Z</time>
      </trkpt>
      <trkpt lat="45.92605" lon="-0.95112">
        <ele>5.4</ele>
        <time>2022-06-21T14:49:57Z</time>
      </trkpt>
      <trkpt lat="45.92605" lon="-0.9511">
        <ele>5.4</ele>
        <time>2022-06-21T14:49:58Z</time>
      </trkpt>
      <trkpt lat="45.92606" lon="-0.95109">
        <ele>5.4</ele>
        <time>2022-06-21T14:49:59Z</time>
      </trkpt>
      <trkpt lat="45.92608" lon="-0.95108">
        <ele>5.4</ele>
        <time>2022-06-21T14:50:00Z</time>
      </trkpt>
      <trkpt lat="45.92609" lon="-0.95108">
        <ele>5.4</ele>
        <time>2022-06-21T14:50:01Z</time>
      </trkpt>
      <trkpt lat="45.92611" lon="-0.95109">
        <ele>5.4</ele>
        <time>2022-06-21T14:50:02Z</time>
      </trkpt>
      <trkpt lat="45.92612" lon="-0.95109">
        <ele>5.4</ele>
        <time>2022-06-21T14:50:04Z</time>
      </trkpt>
      <trkpt lat="45.92613" lon="-0.95108">
        <ele>5.4</ele>
        <time>2022-06-21T14:50:05Z</time>
      </trkpt>
      <trkpt lat="45.92614" lon="-0.95108">
        <ele>5.4</ele>
        <time>2022-06-21T14:50:06Z</time>
      </trkpt>
      <trkpt lat="45.92615" lon="-0.95107">
        <ele>5.4</ele>
        <time>2022-06-21T14:50:08Z</time>
      </trkpt>
      <trkpt lat="45.92615" lon="-0.95106">
        <ele>5.4</ele>
        <time>2022-06-21T14:50:09Z</time>
      </trkpt>
      <trkpt lat="45.92616" lon="-0.95105">
        <ele>5.4</ele>
        <time>2022-06-21T14:50:10Z</time>
      </trkpt>
      <trkpt lat="45.92617" lon="-0.95104">
        <ele>5.4</ele>
        <time>2022-06-21T14:50:11Z</time>
      </trkpt>
      <trkpt lat="45.92617" lon="-0.95103">
        <ele>5.4</ele>
        <time>2022-06-21T14:50:12Z</time>
      </trkpt>
      <trkpt lat="45.92618" lon="-0.95101">
        <ele>5.4</ele>
        <time>2022-06-21T14:50:13Z</time>
      </trkpt>
      <trkpt lat="45.92619" lon="-0.951">
        <ele>5.4</ele>
        <time>2022-06-21T14:50:14Z</time>
      </trkpt>
      <trkpt lat="45.92619" lon="-0.95099">
        <ele>5.4</ele>
        <time>2022-06-21T14:50:16Z</time>
      </trkpt>
      <trkpt lat="45.92619" lon="-0.95097">
        <ele>5.4</ele>
        <time>2022-06-21T14:50:18Z</time>
      </trkpt>
      <trkpt lat="45.92618" lon="-0.95097">
        <ele>5.4</ele>
        <time>2022-06-21T14:50:19Z</time>
      </trkpt>
      <trkpt lat="45.92618" lon="-0.95095">
        <ele>5.4</ele>
        <time>2022-06-21T14:50:20Z</time>
      </trkpt>
      <trkpt lat="45.92619" lon="-0.95091">
        <ele>5.5</ele>
        <time>2022-06-21T14:50:22Z</time>
      </trkpt>
      <trkpt lat="45.9262" lon="-0.95089">
        <ele>5.5</ele>
        <time>2022-06-21T14:50:24Z</time>
      </trkpt>
      <trkpt lat="45.9262" lon="-0.95088">
        <ele>5.5</ele>
        <time>2022-06-21T14:50:25Z</time>
      </trkpt>
      <trkpt lat="45.9262" lon="-0.95086">
        <ele>5.5</ele>
        <time>2022-06-21T14:50:26Z</time>
      </trkpt>
      <trkpt lat="45.9262" lon="-0.95085">
        <ele>5.5</ele>
        <time>2022-06-21T14:50:27Z</time>
      </trkpt>
      <trkpt lat="45.9262" lon="-0.95084">
        <ele>5.5</ele>
        <time>2022-06-21T14:50:28Z</time>
      </trkpt>
      <trkpt lat="45.92621" lon="-0.95083">
        <ele>5.5</ele>
        <time>2022-06-21T14:50:29Z</time>
      </trkpt>
      <trkpt lat="45.92621" lon="-0.95081">
        <ele>5.5</ele>
        <time>2022-06-21T14:50:30Z</time>
      </trkpt>
      <trkpt lat="45.92621" lon="-0.9508">
        <ele>5.5</ele>
        <time>2022-06-21T14:50:32Z</time>
      </trkpt>
      <trkpt lat="45.92622" lon="-0.95079">
        <ele>5.5</ele>
        <time>2022-06-21T14:50:33Z</time>
      </trkpt>
      <trkpt lat="45.92622" lon="-0.95078">
        <ele>5.5</ele>
        <time>2022-06-21T14:50:34Z</time>
      </trkpt>
      <trkpt lat="45.92622" lon="-0.95076">
        <ele>5.5</ele>
        <time>2022-06-21T14:50:35Z</time>
      </trkpt>
      <trkpt lat="45.92622" lon="-0.95075">
        <ele>5.5</ele>
        <time>2022-06-21T14:50:36Z</time>
      </trkpt>
      <trkpt lat="45.92622" lon="-0.95075">
        <ele>5.5</ele>
        <time>2022-06-21T14:50:37Z</time>
      </trkpt>
      <trkpt lat="45.92623" lon="-0.95073">
        <ele>5.5</ele>
        <time>2022-06-21T14:50:39Z</time>
      </trkpt>
      <trkpt lat="45.92623" lon="-0.95071">
        <ele>5.6</ele>
        <time>2022-06-21T14:50:40Z</time>
      </trkpt>
      <trkpt lat="45.92624" lon="-0.95066">
        <ele>5.6</ele>
        <time>2022-06-21T14:50:42Z</time>
      </trkpt>
      <trkpt lat="45.92624" lon="-0.95065">
        <ele>5.6</ele>
        <time>2022-06-21T14:50:43Z</time>
      </trkpt>
      <trkpt lat="45.92624" lon="-0.95063">
        <ele>5.6</ele>
        <time>2022-06-21T14:50:44Z</time>
      </trkpt>
      <trkpt lat="45.92625" lon="-0.95061">
        <ele>5.6</ele>
        <time>2022-06-21T14:50:45Z</time>
      </trkpt>
      <trkpt lat="45.92625" lon="-0.95059">
        <ele>5.6</ele>
        <time>2022-06-21T14:50:46Z</time>
      </trkpt>
      <trkpt lat="45.92625" lon="-0.95057">
        <ele>5.5</ele>
        <time>2022-06-21T14:50:47Z</time>
      </trkpt>
      <trkpt lat="45.92625" lon="-0.95054">
        <ele>5.5</ele>
        <time>2022-06-21T14:50:48Z</time>
      </trkpt>
      <trkpt lat="45.92626" lon="-0.95052">
        <ele>5.5</ele>
        <time>2022-06-21T14:50:49Z</time>
      </trkpt>
      <trkpt lat="45.92626" lon="-0.95051">
        <ele>5.5</ele>
        <time>2022-06-21T14:50:50Z</time>
      </trkpt>
      <trkpt lat="45.92626" lon="-0.95049">
        <ele>5.5</ele>
        <time>2022-06-21T14:50:51Z</time>
      </trkpt>
      <trkpt lat="45.92627" lon="-0.95047">
        <ele>5.5</ele>
        <time>2022-06-21T14:50:52Z</time>
      </trkpt>
      <trkpt lat="45.92627" lon="-0.95045">
        <ele>5.5</ele>
        <time>2022-06-21T14:50:53Z</time>
      </trkpt>
      <trkpt lat="45.92628" lon="-0.95044">
        <ele>5.5</ele>
        <time>2022-06-21T14:50:54Z</time>
      </trkpt>
      <trkpt lat="45.92628" lon="-0.95042">
        <ele>5.5</ele>
        <time>2022-06-21T14:50:55Z</time>
      </trkpt>
      <trkpt lat="45.92629" lon="-0.9504">
        <ele>5.5</ele>
        <time>2022-06-21T14:50:56Z</time>
      </trkpt>
      <trkpt lat="45.92629" lon="-0.95038">
        <ele>5.5</ele>
        <time>2022-06-21T14:50:58Z</time>
      </trkpt>
      <trkpt lat="45.9263" lon="-0.95035">
        <ele>5.5</ele>
        <time>2022-06-21T14:50:59Z</time>
      </trkpt>
      <trkpt lat="45.9263" lon="-0.95034">
        <ele>5.5</ele>
        <time>2022-06-21T14:51:00Z</time>
      </trkpt>
      <trkpt lat="45.9263" lon="-0.95033">
        <ele>5.5</ele>
        <time>2022-06-21T14:51:01Z</time>
      </trkpt>
      <trkpt lat="45.92631" lon="-0.95031">
        <ele>5.5</ele>
        <time>2022-06-21T14:51:02Z</time>
      </trkpt>
      <trkpt lat="45.92631" lon="-0.95029">
        <ele>5.5</ele>
        <time>2022-06-21T14:51:03Z</time>
      </trkpt>
      <trkpt lat="45.92631" lon="-0.95027">
        <ele>5.5</ele>
        <time>2022-06-21T14:51:04Z</time>
      </trkpt>
      <trkpt lat="45.92631" lon="-0.95025">
        <ele>5.5</ele>
        <time>2022-06-21T14:51:05Z</time>
      </trkpt>
      <trkpt lat="45.92631" lon="-0.95023">
        <ele>5.5</ele>
        <time>2022-06-21T14:51:07Z</time>
      </trkpt>
      <trkpt lat="45.92631" lon="-0.95021">
        <ele>5.5</ele>
        <time>2022-06-21T14:51:08Z</time>
      </trkpt>
      <trkpt lat="45.92631" lon="-0.95018">
        <ele>5.6</ele>
        <time>2022-06-21T14:51:09Z</time>
      </trkpt>
      <trkpt lat="45.92632" lon="-0.95017">
        <ele>5.6</ele>
        <time>2022-06-21T14:51:10Z</time>
      </trkpt>
      <trkpt lat="45.92632" lon="-0.95016">
        <ele>5.6</ele>
        <time>2022-06-21T14:51:11Z</time>
      </trkpt>
      <trkpt lat="45.92633" lon="-0.95013">
        <ele>5.6</ele>
        <time>2022-06-21T14:51:12Z</time>
      </trkpt>
      <trkpt lat="45.92633" lon="-0.95012">
        <ele>5.6</ele>
        <time>2022-06-21T14:51:13Z</time>
      </trkpt>
      <trkpt lat="45.92633" lon="-0.95011">
        <ele>5.6</ele>
        <time>2022-06-21T14:51:14Z</time>
      </trkpt>
      <trkpt lat="45.92634" lon="-0.95009">
        <ele>5.6</ele>
        <time>2022-06-21T14:51:15Z</time>
      </trkpt>
      <trkpt lat="45.92634" lon="-0.95008">
        <ele>5.6</ele>
        <time>2022-06-21T14:51:17Z</time>
      </trkpt>
      <trkpt lat="45.92635" lon="-0.95006">
        <ele>5.6</ele>
        <time>2022-06-21T14:51:18Z</time>
      </trkpt>
      <trkpt lat="45.92636" lon="-0.95005">
        <ele>5.6</ele>
        <time>2022-06-21T14:51:19Z</time>
      </trkpt>
      <trkpt lat="45.92637" lon="-0.95004">
        <ele>5.7</ele>
        <time>2022-06-21T14:51:20Z</time>
      </trkpt>
      <trkpt lat="45.92637" lon="-0.95003">
        <ele>5.7</ele>
        <time>2022-06-21T14:51:21Z</time>
      </trkpt>
      <trkpt lat="45.92639" lon="-0.95001">
        <ele>5.7</ele>
        <time>2022-06-21T14:51:22Z</time>
      </trkpt>
      <trkpt lat="45.9264" lon="-0.95001">
        <ele>5.7</ele>
        <time>2022-06-21T14:51:23Z</time>
      </trkpt>
      <trkpt lat="45.92641" lon="-0.95">
        <ele>5.7</ele>
        <time>2022-06-21T14:51:25Z</time>
      </trkpt>
      <trkpt lat="45.92642" lon="-0.95">
        <ele>5.7</ele>
        <time>2022-06-21T14:51:26Z</time>
      </trkpt>
      <trkpt lat="45.92643" lon="-0.95">
        <ele>5.7</ele>
        <time>2022-06-21T14:51:27Z</time>
      </trkpt>
      <trkpt lat="45.92644" lon="-0.94999">
        <ele>5.7</ele>
        <time>2022-06-21T14:51:28Z</time>
      </trkpt>
      <trkpt lat="45.92646" lon="-0.95">
        <ele>5.7</ele>
        <time>2022-06-21T14:51:30Z</time>
      </trkpt>
      <trkpt lat="45.92647" lon="-0.95001">
        <ele>5.7</ele>
        <time>2022-06-21T14:51:31Z</time>
      </trkpt>
      <trkpt lat="45.92649" lon="-0.95002">
        <ele>5.7</ele>
        <time>2022-06-21T14:51:32Z</time>
      </trkpt>
      <trkpt lat="45.9265" lon="-0.95002">
        <ele>5.7</ele>
        <time>2022-06-21T14:51:33Z</time>
      </trkpt>
      <trkpt lat="45.92653" lon="-0.95003">
        <ele>5.7</ele>
        <time>2022-06-21T14:51:35Z</time>
      </trkpt>
      <trkpt lat="45.92653" lon="-0.95003">
        <ele>5.7</ele>
        <time>2022-06-21T14:51:36Z</time>
      </trkpt>
      <trkpt lat="45.92653" lon="-0.95003">
        <ele>5.7</ele>
        <time>2022-06-21T14:51:37Z</time>
      </trkpt>
      <trkpt lat="45.92653" lon="-0.95003">
        <ele>5.7</ele>
        <time>2022-06-21T14:51:38Z</time>
      </trkpt>
      <trkpt lat="45.92652" lon="-0.95003">
        <ele>5.7</ele>
        <time>2022-06-21T14:51:39Z</time>
      </trkpt>
      <trkpt lat="45.92652" lon="-0.95003">
        <ele>5.7</ele>
        <time>2022-06-21T14:51:40Z</time>
      </trkpt>
      <trkpt lat="45.92652" lon="-0.95003">
        <ele>5.7</ele>
        <time>2022-06-21T14:51:41Z</time>
      </trkpt>
      <trkpt lat="45.92652" lon="-0.95003">
        <ele>5.7</ele>
        <time>2022-06-21T14:51:42Z</time>
      </trkpt>
      <trkpt lat="45.92652" lon="-0.95003">
        <ele>5.7</ele>
        <time>2022-06-21T14:51:43Z</time>
      </trkpt>
      <trkpt lat="45.92652" lon="-0.95003">
        <ele>5.7</ele>
        <time>2022-06-21T14:51:44Z</time>
      </trkpt>
      <trkpt lat="45.92652" lon="-0.95004">
        <ele>5.7</ele>
        <time>2022-06-21T14:51:45Z</time>
      </trkpt>
      <trkpt lat="45.92651" lon="-0.95004">
        <ele>5.7</ele>
        <time>2022-06-21T14:51:46Z</time>
      </trkpt>
      <trkpt lat="45.92651" lon="-0.95004">
        <ele>5.7</ele>
        <time>2022-06-21T14:51:47Z</time>
      </trkpt>
      <trkpt lat="45.92651" lon="-0.95004">
        <ele>5.7</ele>
        <time>2022-06-21T14:51:48Z</time>
      </trkpt>
      <trkpt lat="45.92651" lon="-0.95004">
        <ele>5.7</ele>
        <time>2022-06-21T14:51:49Z</time>
      </trkpt>
      <trkpt lat="45.92651" lon="-0.95004">
        <ele>5.7</ele>
        <time>2022-06-21T14:51:50Z</time>
      </trkpt>
      <trkpt lat="45.92651" lon="-0.95004">
        <ele>5.7</ele>
        <time>2022-06-21T14:51:51Z</time>
      </trkpt>
      <trkpt lat="45.92651" lon="-0.95004">
        <ele>5.7</ele>
        <time>2022-06-21T14:51:52Z</time>
      </trkpt>
      <trkpt lat="45.9265" lon="-0.95004">
        <ele>5.7</ele>
        <time>2022-06-21T14:51:53Z</time>
      </trkpt>
      <trkpt lat="45.9265" lon="-0.95004">
        <ele>5.7</ele>
        <time>2022-06-21T14:51:54Z</time>
      </trkpt>
      <trkpt lat="45.9265" lon="-0.95005">
        <ele>5.7</ele>
        <time>2022-06-21T14:51:55Z</time>
      </trkpt>
      <trkpt lat="45.9265" lon="-0.95005">
        <ele>5.7</ele>
        <time>2022-06-21T14:51:56Z</time>
      </trkpt>
      <trkpt lat="45.9265" lon="-0.95005">
        <ele>5.7</ele>
        <time>2022-06-21T14:51:57Z</time>
      </trkpt>
      <trkpt lat="45.9265" lon="-0.95005">
        <ele>5.7</ele>
        <time>2022-06-21T14:51:58Z</time>
      </trkpt>
      <trkpt lat="45.9265" lon="-0.95005">
        <ele>5.7</ele>
        <time>2022-06-21T14:51:59Z</time>
      </trkpt>
      <trkpt lat="45.92649" lon="-0.95005">
        <ele>5.7</ele>
        <time>2022-06-21T14:52:00Z</time>
      </trkpt>
      <trkpt lat="45.92649" lon="-0.95005">
        <ele>5.7</ele>
        <time>2022-06-21T14:52:01Z</time>
      </trkpt>
      <trkpt lat="45.92649" lon="-0.95005">
        <ele>5.7</ele>
        <time>2022-06-21T14:52:02Z</time>
      </trkpt>
      <trkpt lat="45.92649" lon="-0.95005">
        <ele>5.7</ele>
        <time>2022-06-21T14:52:03Z</time>
      </trkpt>
      <trkpt lat="45.92649" lon="-0.95005">
        <ele>5.7</ele>
        <time>2022-06-21T14:52:04Z</time>
      </trkpt>
      <trkpt lat="45.92646" lon="-0.95006">
        <ele>5.7</ele>
        <time>2022-06-21T14:52:05Z</time>
      </trkpt>
      <trkpt lat="45.92647" lon="-0.95004">
        <ele>5.7</ele>
        <time>2022-06-21T14:52:06Z</time>
      </trkpt>
      <trkpt lat="45.9265" lon="-0.95003">
        <ele>5.7</ele>
        <time>2022-06-21T14:52:07Z</time>
      </trkpt>
      <trkpt lat="45.9265" lon="-0.95001">
        <ele>5.7</ele>
        <time>2022-06-21T14:52:08Z</time>
      </trkpt>
      <trkpt lat="45.92649" lon="-0.95">
        <ele>5.7</ele>
        <time>2022-06-21T14:52:09Z</time>
      </trkpt>
      <trkpt lat="45.92648" lon="-0.94999">
        <ele>5.7</ele>
        <time>2022-06-21T14:52:10Z</time>
      </trkpt>
      <trkpt lat="45.92645" lon="-0.94997">
        <ele>5.7</ele>
        <time>2022-06-21T14:52:12Z</time>
      </trkpt>
      <trkpt lat="45.92644" lon="-0.94996">
        <ele>5.7</ele>
        <time>2022-06-21T14:52:13Z</time>
      </trkpt>
      <trkpt lat="45.92641" lon="-0.94993">
        <ele>5.7</ele>
        <time>2022-06-21T14:52:14Z</time>
      </trkpt>
      <trkpt lat="45.9264" lon="-0.94992">
        <ele>5.7</ele>
        <time>2022-06-21T14:52:15Z</time>
      </trkpt>
      <trkpt lat="45.92637" lon="-0.94989">
        <ele>5.7</ele>
        <time>2022-06-21T14:52:17Z</time>
      </trkpt>
      <trkpt lat="45.92636" lon="-0.94988">
        <ele>5.7</ele>
        <time>2022-06-21T14:52:18Z</time>
      </trkpt>
      <trkpt lat="45.92634" lon="-0.94985">
        <ele>5.7</ele>
        <time>2022-06-21T14:52:19Z</time>
      </trkpt>
      <trkpt lat="45.92633" lon="-0.94982">
        <ele>5.7</ele>
        <time>2022-06-21T14:52:21Z</time>
      </trkpt>
      <trkpt lat="45.92633" lon="-0.9498">
        <ele>5.7</ele>
        <time>2022-06-21T14:52:22Z</time>
      </trkpt>
      <trkpt lat="45.92632" lon="-0.94979">
        <ele>5.7</ele>
        <time>2022-06-21T14:52:23Z</time>
      </trkpt>
      <trkpt lat="45.92632" lon="-0.94978">
        <ele>5.7</ele>
        <time>2022-06-21T14:52:24Z</time>
      </trkpt>
      <trkpt lat="45.92632" lon="-0.94979">
        <ele>5.7</ele>
        <time>2022-06-21T14:52:25Z</time>
      </trkpt>
      <trkpt lat="45.92632" lon="-0.9498">
        <ele>5.7</ele>
        <time>2022-06-21T14:52:26Z</time>
      </trkpt>
      <trkpt lat="45.92632" lon="-0.9498">
        <ele>5.7</ele>
        <time>2022-06-21T14:52:27Z</time>
      </trkpt>
      <trkpt lat="45.92631" lon="-0.9498">
        <ele>5.7</ele>
        <time>2022-06-21T14:52:28Z</time>
      </trkpt>
      <trkpt lat="45.92631" lon="-0.9498">
        <ele>5.7</ele>
        <time>2022-06-21T14:52:29Z</time>
      </trkpt>
      <trkpt lat="45.92631" lon="-0.94981">
        <ele>5.7</ele>
        <time>2022-06-21T14:52:30Z</time>
      </trkpt>
      <trkpt lat="45.92632" lon="-0.94982">
        <ele>5.7</ele>
        <time>2022-06-21T14:52:31Z</time>
      </trkpt>
      <trkpt lat="45.92632" lon="-0.94982">
        <ele>5.7</ele>
        <time>2022-06-21T14:52:32Z</time>
      </trkpt>
      <trkpt lat="45.92632" lon="-0.94983">
        <ele>5.7</ele>
        <time>2022-06-21T14:52:34Z</time>
      </trkpt>
      <trkpt lat="45.92632" lon="-0.94983">
        <ele>5.7</ele>
        <time>2022-06-21T14:52:35Z</time>
      </trkpt>
      <trkpt lat="45.92632" lon="-0.94984">
        <ele>5.7</ele>
        <time>2022-06-21T14:52:36Z</time>
      </trkpt>
      <trkpt lat="45.92632" lon="-0.94984">
        <ele>5.7</ele>
        <time>2022-06-21T14:52:37Z</time>
      </trkpt>
      <trkpt lat="45.92632" lon="-0.94985">
        <ele>5.7</ele>
        <time>2022-06-21T14:52:38Z</time>
      </trkpt>
      <trkpt lat="45.92633" lon="-0.94985">
        <ele>5.7</ele>
        <time>2022-06-21T14:52:39Z</time>
      </trkpt>
      <trkpt lat="45.92633" lon="-0.94986">
        <ele>5.7</ele>
        <time>2022-06-21T14:52:40Z</time>
      </trkpt>
      <trkpt lat="45.92633" lon="-0.94986">
        <ele>5.7</ele>
        <time>2022-06-21T14:52:41Z</time>
      </trkpt>
      <trkpt lat="45.92633" lon="-0.94987">
        <ele>5.7</ele>
        <time>2022-06-21T14:52:42Z</time>
      </trkpt>
      <trkpt lat="45.92633" lon="-0.94987">
        <ele>5.7</ele>
        <time>2022-06-21T14:52:43Z</time>
      </trkpt>
      <trkpt lat="45.92633" lon="-0.94989">
        <ele>5.7</ele>
        <time>2022-06-21T14:52:44Z</time>
      </trkpt>
      <trkpt lat="45.92633" lon="-0.94989">
        <ele>5.7</ele>
        <time>2022-06-21T14:52:45Z</time>
      </trkpt>
      <trkpt lat="45.92633" lon="-0.94989">
        <ele>5.7</ele>
        <time>2022-06-21T14:52:46Z</time>
      </trkpt>
      <trkpt lat="45.92633" lon="-0.94989">
        <ele>5.7</ele>
        <time>2022-06-21T14:52:47Z</time>
      </trkpt>
      <trkpt lat="45.92633" lon="-0.94989">
        <ele>5.7</ele>
        <time>2022-06-21T14:52:48Z</time>
      </trkpt>
      <trkpt lat="45.92633" lon="-0.94989">
        <ele>5.7</ele>
        <time>2022-06-21T14:52:49Z</time>
      </trkpt>
      <trkpt lat="45.92633" lon="-0.94989">
        <ele>5.7</ele>
        <time>2022-06-21T14:52:50Z</time>
      </trkpt>
      <trkpt lat="45.92633" lon="-0.94989">
        <ele>5.7</ele>
        <time>2022-06-21T14:52:51Z</time>
      </trkpt>
      <trkpt lat="45.92633" lon="-0.94989">
        <ele>5.7</ele>
        <time>2022-06-21T14:52:52Z</time>
      </trkpt>
      <trkpt lat="45.92633" lon="-0.94989">
        <ele>5.7</ele>
        <time>2022-06-21T14:52:53Z</time>
      </trkpt>
      <trkpt lat="45.92633" lon="-0.94989">
        <ele>5.7</ele>
        <time>2022-06-21T14:52:54Z</time>
      </trkpt>
      <trkpt lat="45.92633" lon="-0.94989">
        <ele>5.7</ele>
        <time>2022-06-21T14:52:55Z</time>
      </trkpt>
      <trkpt lat="45.92633" lon="-0.94989">
        <ele>5.7</ele>
        <time>2022-06-21T14:52:56Z</time>
      </trkpt>
      <trkpt lat="45.92633" lon="-0.94989">
        <ele>5.7</ele>
        <time>2022-06-21T14:52:57Z</time>
      </trkpt>
      <trkpt lat="45.92633" lon="-0.94989">
        <ele>5.7</ele>
        <time>2022-06-21T14:52:58Z</time>
      </trkpt>
      <trkpt lat="45.92633" lon="-0.94989">
        <ele>5.7</ele>
        <time>2022-06-21T14:52:59Z</time>
      </trkpt>
      <trkpt lat="45.92633" lon="-0.94989">
        <ele>5.7</ele>
        <time>2022-06-21T14:53:00Z</time>
      </trkpt>
      <trkpt lat="45.92633" lon="-0.94989">
        <ele>5.7</ele>
        <time>2022-06-21T14:53:01Z</time>
      </trkpt>
      <trkpt lat="45.92633" lon="-0.94989">
        <ele>5.7</ele>
        <time>2022-06-21T14:53:02Z</time>
      </trkpt>
      <trkpt lat="45.92633" lon="-0.94989">
        <ele>5.7</ele>
        <time>2022-06-21T14:53:03Z</time>
      </trkpt>
      <trkpt lat="45.92633" lon="-0.94989">
        <ele>5.7</ele>
        <time>2022-06-21T14:53:04Z</time>
      </trkpt>
      <trkpt lat="45.92633" lon="-0.94989">
        <ele>5.7</ele>
        <time>2022-06-21T14:53:05Z</time>
      </trkpt>
      <trkpt lat="45.92633" lon="-0.94989">
        <ele>5.7</ele>
        <time>2022-06-21T14:53:06Z</time>
      </trkpt>
      <trkpt lat="45.92633" lon="-0.94989">
        <ele>5.7</ele>
        <time>2022-06-21T14:53:07Z</time>
      </trkpt>
      <trkpt lat="45.92633" lon="-0.94989">
        <ele>5.7</ele>
        <time>2022-06-21T14:53:08Z</time>
      </trkpt>
      <trkpt lat="45.92633" lon="-0.94989">
        <ele>5.7</ele>
        <time>2022-06-21T14:53:09Z</time>
      </trkpt>
      <trkpt lat="45.92633" lon="-0.94989">
        <ele>5.7</ele>
        <time>2022-06-21T14:53:10Z</time>
      </trkpt>
      <trkpt lat="45.92633" lon="-0.94989">
        <ele>5.7</ele>
        <time>2022-06-21T14:53:11Z</time>
      </trkpt>
      <trkpt lat="45.92633" lon="-0.94989">
        <ele>5.7</ele>
        <time>2022-06-21T14:53:12Z</time>
      </trkpt>
      <trkpt lat="45.92633" lon="-0.94989">
        <ele>5.7</ele>
        <time>2022-06-21T14:53:13Z</time>
      </trkpt>
      <trkpt lat="45.92633" lon="-0.94989">
        <ele>5.7</ele>
        <time>2022-06-21T14:53:14Z</time>
      </trkpt>
      <trkpt lat="45.92633" lon="-0.94989">
        <ele>5.7</ele>
        <time>2022-06-21T14:53:16Z</time>
      </trkpt>
      <trkpt lat="45.92633" lon="-0.94989">
        <ele>5.7</ele>
        <time>2022-06-21T14:53:17Z</time>
      </trkpt>
      <trkpt lat="45.92633" lon="-0.94989">
        <ele>5.7</ele>
        <time>2022-06-21T14:53:18Z</time>
      </trkpt>
      <trkpt lat="45.92633" lon="-0.94989">
        <ele>5.7</ele>
        <time>2022-06-21T14:53:19Z</time>
      </trkpt>
      <trkpt lat="45.92633" lon="-0.94989">
        <ele>5.7</ele>
        <time>2022-06-21T14:53:20Z</time>
      </trkpt>
      <trkpt lat="45.92633" lon="-0.94989">
        <ele>5.7</ele>
        <time>2022-06-21T14:53:21Z</time>
      </trkpt>
      <trkpt lat="45.92633" lon="-0.94989">
        <ele>5.7</ele>
        <time>2022-06-21T14:53:22Z</time>
      </trkpt>
      <trkpt lat="45.92633" lon="-0.94989">
        <ele>5.7</ele>
        <time>2022-06-21T14:53:23Z</time>
      </trkpt>
      <trkpt lat="45.92633" lon="-0.94989">
        <ele>5.7</ele>
        <time>2022-06-21T14:53:24Z</time>
      </trkpt>
      <trkpt lat="45.92633" lon="-0.94989">
        <ele>5.7</ele>
        <time>2022-06-21T14:53:25Z</time>
      </trkpt>
      <trkpt lat="45.92633" lon="-0.94989">
        <ele>5.7</ele>
        <time>2022-06-21T14:53:26Z</time>
      </trkpt>
      <trkpt lat="45.92633" lon="-0.94989">
        <ele>5.7</ele>
        <time>2022-06-21T14:53:27Z</time>
      </trkpt>
      <trkpt lat="45.92633" lon="-0.94989">
        <ele>5.7</ele>
        <time>2022-06-21T14:53:28Z</time>
      </trkpt>
      <trkpt lat="45.92633" lon="-0.94989">
        <ele>5.7</ele>
        <time>2022-06-21T14:53:29Z</time>
      </trkpt>
      <trkpt lat="45.92633" lon="-0.94989">
        <ele>5.7</ele>
        <time>2022-06-21T14:53:30Z</time>
      </trkpt>
      <trkpt lat="45.92633" lon="-0.94989">
        <ele>5.7</ele>
        <time>2022-06-21T14:53:31Z</time>
      </trkpt>
      <trkpt lat="45.92633" lon="-0.94989">
        <ele>5.7</ele>
        <time>2022-06-21T14:53:32Z</time>
      </trkpt>
      <trkpt lat="45.92633" lon="-0.94989">
        <ele>5.7</ele>
        <time>2022-06-21T14:53:33Z</time>
      </trkpt>
      <trkpt lat="45.92633" lon="-0.94989">
        <ele>5.7</ele>
        <time>2022-06-21T14:53:34Z</time>
      </trkpt>
      <trkpt lat="45.92633" lon="-0.94989">
        <ele>5.7</ele>
        <time>2022-06-21T14:53:35Z</time>
      </trkpt>
      <trkpt lat="45.92633" lon="-0.94989">
        <ele>5.7</ele>
        <time>2022-06-21T14:53:36Z</time>
      </trkpt>
      <trkpt lat="45.92633" lon="-0.94989">
        <ele>5.7</ele>
        <time>2022-06-21T14:53:37Z</time>
      </trkpt>
      <trkpt lat="45.92633" lon="-0.94989">
        <ele>5.7</ele>
        <time>2022-06-21T14:53:38Z</time>
      </trkpt>
      <trkpt lat="45.92633" lon="-0.94989">
        <ele>5.7</ele>
        <time>2022-06-21T14:53:39Z</time>
      </trkpt>
      <trkpt lat="45.92634" lon="-0.94992">
        <ele>5.7</ele>
        <time>2022-06-21T14:53:40Z</time>
      </trkpt>
      <trkpt lat="45.92636" lon="-0.94995">
        <ele>5.7</ele>
        <time>2022-06-21T14:53:41Z</time>
      </trkpt>
      <trkpt lat="45.92636" lon="-0.94996">
        <ele>5.7</ele>
        <time>2022-06-21T14:53:42Z</time>
      </trkpt>
      <trkpt lat="45.92635" lon="-0.94992">
        <ele>5.7</ele>
        <time>2022-06-21T14:53:43Z</time>
      </trkpt>
      <trkpt lat="45.92635" lon="-0.94991">
        <ele>5.7</ele>
        <time>2022-06-21T14:53:44Z</time>
      </trkpt>
      <trkpt lat="45.92634" lon="-0.94991">
        <ele>5.7</ele>
        <time>2022-06-21T14:53:45Z</time>
      </trkpt>
      <trkpt lat="45.92635" lon="-0.94991">
        <ele>5.7</ele>
        <time>2022-06-21T14:53:46Z</time>
      </trkpt>
      <trkpt lat="45.92635" lon="-0.94991">
        <ele>5.7</ele>
        <time>2022-06-21T14:53:47Z</time>
      </trkpt>
      <trkpt lat="45.92635" lon="-0.94992">
        <ele>5.7</ele>
        <time>2022-06-21T14:53:48Z</time>
      </trkpt>
      <trkpt lat="45.92635" lon="-0.94992">
        <ele>5.7</ele>
        <time>2022-06-21T14:53:49Z</time>
      </trkpt>
      <trkpt lat="45.92635" lon="-0.94992">
        <ele>5.7</ele>
        <time>2022-06-21T14:53:50Z</time>
      </trkpt>
      <trkpt lat="45.92635" lon="-0.94993">
        <ele>5.7</ele>
        <time>2022-06-21T14:53:51Z</time>
      </trkpt>
      <trkpt lat="45.92635" lon="-0.94993">
        <ele>5.7</ele>
        <time>2022-06-21T14:53:52Z</time>
      </trkpt>
      <trkpt lat="45.92635" lon="-0.94995">
        <ele>5.7</ele>
        <time>2022-06-21T14:53:53Z</time>
      </trkpt>
      <trkpt lat="45.92635" lon="-0.94995">
        <ele>5.7</ele>
        <time>2022-06-21T14:53:54Z</time>
      </trkpt>
      <trkpt lat="45.92635" lon="-0.94995">
        <ele>5.7</ele>
        <time>2022-06-21T14:53:55Z</time>
      </trkpt>
      <trkpt lat="45.92635" lon="-0.94995">
        <ele>5.7</ele>
        <time>2022-06-21T14:53:56Z</time>
      </trkpt>
      <trkpt lat="45.92636" lon="-0.94996">
        <ele>5.7</ele>
        <time>2022-06-21T14:53:58Z</time>
      </trkpt>
      <trkpt lat="45.92636" lon="-0.94996">
        <ele>5.7</ele>
        <time>2022-06-21T14:53:59Z</time>
      </trkpt>
      <trkpt lat="45.92636" lon="-0.94996">
        <ele>5.7</ele>
        <time>2022-06-21T14:54:00Z</time>
      </trkpt>
      <trkpt lat="45.92636" lon="-0.94996">
        <ele>5.7</ele>
        <time>2022-06-21T14:54:01Z</time>
      </trkpt>
      <trkpt lat="45.92636" lon="-0.94996">
        <ele>5.7</ele>
        <time>2022-06-21T14:54:02Z</time>
      </trkpt>
      <trkpt lat="45.92636" lon="-0.94996">
        <ele>5.7</ele>
        <time>2022-06-21T14:54:03Z</time>
      </trkpt>
      <trkpt lat="45.92635" lon="-0.94996">
        <ele>5.7</ele>
        <time>2022-06-21T14:54:04Z</time>
      </trkpt>
      <trkpt lat="45.92636" lon="-0.94996">
        <ele>5.7</ele>
        <time>2022-06-21T14:54:06Z</time>
      </trkpt>
      <trkpt lat="45.92636" lon="-0.94997">
        <ele>5.7</ele>
        <time>2022-06-21T14:54:07Z</time>
      </trkpt>
      <trkpt lat="45.92636" lon="-0.94997">
        <ele>5.7</ele>
        <time>2022-06-21T14:54:08Z</time>
      </trkpt>
      <trkpt lat="45.92635" lon="-0.94997">
        <ele>5.7</ele>
        <time>2022-06-21T14:54:09Z</time>
      </trkpt>
      <trkpt lat="45.92635" lon="-0.94997">
        <ele>5.7</ele>
        <time>2022-06-21T14:54:10Z</time>
      </trkpt>
      <trkpt lat="45.92635" lon="-0.94997">
        <ele>5.8</ele>
        <time>2022-06-21T14:54:11Z</time>
      </trkpt>
      <trkpt lat="45.92636" lon="-0.94997">
        <ele>5.8</ele>
        <time>2022-06-21T14:54:13Z</time>
      </trkpt>
      <trkpt lat="45.92636" lon="-0.94997">
        <ele>5.8</ele>
        <time>2022-06-21T14:54:14Z</time>
      </trkpt>
      <trkpt lat="45.92636" lon="-0.94997">
        <ele>5.8</ele>
        <time>2022-06-21T14:54:15Z</time>
      </trkpt>
      <trkpt lat="45.92636" lon="-0.94997">
        <ele>5.8</ele>
        <time>2022-06-21T14:54:16Z</time>
      </trkpt>
      <trkpt lat="45.92636" lon="-0.94998">
        <ele>5.8</ele>
        <time>2022-06-21T14:54:17Z</time>
      </trkpt>
      <trkpt lat="45.92636" lon="-0.94998">
        <ele>5.8</ele>
        <time>2022-06-21T14:54:18Z</time>
      </trkpt>
      <trkpt lat="45.92636" lon="-0.94998">
        <ele>5.8</ele>
        <time>2022-06-21T14:54:19Z</time>
      </trkpt>
      <trkpt lat="45.92636" lon="-0.94998">
        <ele>5.8</ele>
        <time>2022-06-21T14:54:20Z</time>
      </trkpt>
      <trkpt lat="45.92636" lon="-0.94998">
        <ele>5.8</ele>
        <time>2022-06-21T14:54:21Z</time>
      </trkpt>
      <trkpt lat="45.92636" lon="-0.94999">
        <ele>5.8</ele>
        <time>2022-06-21T14:54:23Z</time>
      </trkpt>
      <trkpt lat="45.92636" lon="-0.94999">
        <ele>5.8</ele>
        <time>2022-06-21T14:54:24Z</time>
      </trkpt>
      <trkpt lat="45.92636" lon="-0.94999">
        <ele>5.8</ele>
        <time>2022-06-21T14:54:25Z</time>
      </trkpt>
      <trkpt lat="45.92636" lon="-0.94999">
        <ele>5.8</ele>
        <time>2022-06-21T14:54:26Z</time>
      </trkpt>
      <trkpt lat="45.92636" lon="-0.94997">
        <ele>5.8</ele>
        <time>2022-06-21T14:54:27Z</time>
      </trkpt>
      <trkpt lat="45.92636" lon="-0.94997">
        <ele>5.8</ele>
        <time>2022-06-21T14:54:28Z</time>
      </trkpt>
      <trkpt lat="45.92636" lon="-0.94996">
        <ele>5.8</ele>
        <time>2022-06-21T14:54:29Z</time>
      </trkpt>
      <trkpt lat="45.92636" lon="-0.94996">
        <ele>5.8</ele>
        <time>2022-06-21T14:54:30Z</time>
      </trkpt>
      <trkpt lat="45.92636" lon="-0.94996">
        <ele>5.8</ele>
        <time>2022-06-21T14:54:31Z</time>
      </trkpt>
      <trkpt lat="45.92636" lon="-0.94996">
        <ele>5.8</ele>
        <time>2022-06-21T14:54:32Z</time>
      </trkpt>
      <trkpt lat="45.92636" lon="-0.94996">
        <ele>5.8</ele>
        <time>2022-06-21T14:54:33Z</time>
      </trkpt>
      <trkpt lat="45.92636" lon="-0.94996">
        <ele>5.8</ele>
        <time>2022-06-21T14:54:34Z</time>
      </trkpt>
      <trkpt lat="45.92636" lon="-0.94996">
        <ele>5.8</ele>
        <time>2022-06-21T14:54:35Z</time>
      </trkpt>
      <trkpt lat="45.92636" lon="-0.94996">
        <ele>5.8</ele>
        <time>2022-06-21T14:54:36Z</time>
      </trkpt>
      <trkpt lat="45.92636" lon="-0.94996">
        <ele>5.8</ele>
        <time>2022-06-21T14:54:37Z</time>
      </trkpt>
      <trkpt lat="45.92636" lon="-0.94996">
        <ele>5.8</ele>
        <time>2022-06-21T14:54:38Z</time>
      </trkpt>
      <trkpt lat="45.92637" lon="-0.94997">
        <ele>5.8</ele>
        <time>2022-06-21T14:54:39Z</time>
      </trkpt>
      <trkpt lat="45.92637" lon="-0.94997">
        <ele>5.8</ele>
        <time>2022-06-21T14:54:40Z</time>
      </trkpt>
      <trkpt lat="45.92637" lon="-0.94997">
        <ele>5.8</ele>
        <time>2022-06-21T14:54:41Z</time>
      </trkpt>
      <trkpt lat="45.92636" lon="-0.94997">
        <ele>5.8</ele>
        <time>2022-06-21T14:54:42Z</time>
      </trkpt>
      <trkpt lat="45.92637" lon="-0.94996">
        <ele>5.8</ele>
        <time>2022-06-21T14:54:43Z</time>
      </trkpt>
      <trkpt lat="45.92637" lon="-0.94995">
        <ele>5.8</ele>
        <time>2022-06-21T14:54:44Z</time>
      </trkpt>
      <trkpt lat="45.92636" lon="-0.94994">
        <ele>5.8</ele>
        <time>2022-06-21T14:54:45Z</time>
      </trkpt>
      <trkpt lat="45.92636" lon="-0.94995">
        <ele>5.8</ele>
        <time>2022-06-21T14:54:46Z</time>
      </trkpt>
      <trkpt lat="45.92636" lon="-0.94995">
        <ele>5.8</ele>
        <time>2022-06-21T14:54:47Z</time>
      </trkpt>
      <trkpt lat="45.92637" lon="-0.94995">
        <ele>5.8</ele>
        <time>2022-06-21T14:54:48Z</time>
      </trkpt>
      <trkpt lat="45.92637" lon="-0.94995">
        <ele>5.8</ele>
        <time>2022-06-21T14:54:49Z</time>
      </trkpt>
      <trkpt lat="45.92637" lon="-0.94995">
        <ele>5.8</ele>
        <time>2022-06-21T14:54:50Z</time>
      </trkpt>
      <trkpt lat="45.92637" lon="-0.94995">
        <ele>5.8</ele>
        <time>2022-06-21T14:54:51Z</time>
      </trkpt>
      <trkpt lat="45.92637" lon="-0.94995">
        <ele>5.8</ele>
        <time>2022-06-21T14:54:52Z</time>
      </trkpt>
      <trkpt lat="45.92637" lon="-0.94995">
        <ele>5.8</ele>
        <time>2022-06-21T14:54:54Z</time>
      </trkpt>
      <trkpt lat="45.92637" lon="-0.94995">
        <ele>5.8</ele>
        <time>2022-06-21T14:54:55Z</time>
      </trkpt>
      <trkpt lat="45.92637" lon="-0.94995">
        <ele>5.8</ele>
        <time>2022-06-21T14:54:56Z</time>
      </trkpt>
      <trkpt lat="45.92637" lon="-0.94995">
        <ele>5.8</ele>
        <time>2022-06-21T14:54:57Z</time>
      </trkpt>
      <trkpt lat="45.92637" lon="-0.94996">
        <ele>5.8</ele>
        <time>2022-06-21T14:54:59Z</time>
      </trkpt>
      <trkpt lat="45.92637" lon="-0.94996">
        <ele>5.8</ele>
        <time>2022-06-21T14:55:00Z</time>
      </trkpt>
      <trkpt lat="45.92637" lon="-0.94996">
        <ele>5.8</ele>
        <time>2022-06-21T14:55:01Z</time>
      </trkpt>
      <trkpt lat="45.92637" lon="-0.94996">
        <ele>5.8</ele>
        <time>2022-06-21T14:55:02Z</time>
      </trkpt>
      <trkpt lat="45.92637" lon="-0.94996">
        <ele>5.8</ele>
        <time>2022-06-21T14:55:03Z</time>
      </trkpt>
      <trkpt lat="45.92638" lon="-0.94996">
        <ele>5.8</ele>
        <time>2022-06-21T14:55:04Z</time>
      </trkpt>
      <trkpt lat="45.92639" lon="-0.94997">
        <ele>5.8</ele>
        <time>2022-06-21T14:55:06Z</time>
      </trkpt>
      <trkpt lat="45.92639" lon="-0.94997">
        <ele>5.8</ele>
        <time>2022-06-21T14:55:07Z</time>
      </trkpt>
      <trkpt lat="45.92639" lon="-0.94998">
        <ele>5.8</ele>
        <time>2022-06-21T14:55:08Z</time>
      </trkpt>
      <trkpt lat="45.92638" lon="-0.94999">
        <ele>5.8</ele>
        <time>2022-06-21T14:55:09Z</time>
      </trkpt>
      <trkpt lat="45.92638" lon="-0.94999">
        <ele>5.8</ele>
        <time>2022-06-21T14:55:10Z</time>
      </trkpt>
      <trkpt lat="45.92638" lon="-0.94999">
        <ele>5.8</ele>
        <time>2022-06-21T14:55:11Z</time>
      </trkpt>
      <trkpt lat="45.92638" lon="-0.94999">
        <ele>5.8</ele>
        <time>2022-06-21T14:55:12Z</time>
      </trkpt>
      <trkpt lat="45.92639" lon="-0.94998">
        <ele>5.8</ele>
        <time>2022-06-21T14:55:14Z</time>
      </trkpt>
      <trkpt lat="45.92639" lon="-0.94998">
        <ele>5.8</ele>
        <time>2022-06-21T14:55:15Z</time>
      </trkpt>
      <trkpt lat="45.92639" lon="-0.94998">
        <ele>5.8</ele>
        <time>2022-06-21T14:55:16Z</time>
      </trkpt>
      <trkpt lat="45.9264" lon="-0.94999">
        <ele>5.8</ele>
        <time>2022-06-21T14:55:17Z</time>
      </trkpt>
      <trkpt lat="45.92641" lon="-0.94999">
        <ele>5.8</ele>
        <time>2022-06-21T14:55:19Z</time>
      </trkpt>
      <trkpt lat="45.92642" lon="-0.94999">
        <ele>5.8</ele>
        <time>2022-06-21T14:55:20Z</time>
      </trkpt>
      <trkpt lat="45.92642" lon="-0.94998">
        <ele>5.8</ele>
        <time>2022-06-21T14:55:21Z</time>
      </trkpt>
      <trkpt lat="45.92643" lon="-0.94998">
        <ele>5.8</ele>
        <time>2022-06-21T14:55:22Z</time>
      </trkpt>
      <trkpt lat="45.92644" lon="-0.94998">
        <ele>5.8</ele>
        <time>2022-06-21T14:55:23Z</time>
      </trkpt>
      <trkpt lat="45.92645" lon="-0.94998">
        <ele>5.8</ele>
        <time>2022-06-21T14:55:25Z</time>
      </trkpt>
      <trkpt lat="45.92646" lon="-0.94998">
        <ele>5.8</ele>
        <time>2022-06-21T14:55:26Z</time>
      </trkpt>
      <trkpt lat="45.92646" lon="-0.94998">
        <ele>5.8</ele>
        <time>2022-06-21T14:55:27Z</time>
      </trkpt>
      <trkpt lat="45.92647" lon="-0.95001">
        <ele>5.8</ele>
        <time>2022-06-21T14:55:28Z</time>
      </trkpt>
      <trkpt lat="45.92647" lon="-0.95003">
        <ele>5.8</ele>
        <time>2022-06-21T14:55:29Z</time>
      </trkpt>
      <trkpt lat="45.92648" lon="-0.95004">
        <ele>5.8</ele>
        <time>2022-06-21T14:55:30Z</time>
      </trkpt>
      <trkpt lat="45.92648" lon="-0.95004">
        <ele>5.8</ele>
        <time>2022-06-21T14:55:31Z</time>
      </trkpt>
      <trkpt lat="45.92648" lon="-0.95005">
        <ele>5.8</ele>
        <time>2022-06-21T14:55:33Z</time>
      </trkpt>
      <trkpt lat="45.92648" lon="-0.95007">
        <ele>5.8</ele>
        <time>2022-06-21T14:55:34Z</time>
      </trkpt>
      <trkpt lat="45.92649" lon="-0.95007">
        <ele>5.8</ele>
        <time>2022-06-21T14:55:36Z</time>
      </trkpt>
      <trkpt lat="45.92649" lon="-0.95006">
        <ele>5.8</ele>
        <time>2022-06-21T14:55:37Z</time>
      </trkpt>
      <trkpt lat="45.92649" lon="-0.95007">
        <ele>5.8</ele>
        <time>2022-06-21T14:55:38Z</time>
      </trkpt>
      <trkpt lat="45.92649" lon="-0.95007">
        <ele>5.8</ele>
        <time>2022-06-21T14:55:39Z</time>
      </trkpt>
      <trkpt lat="45.92649" lon="-0.95007">
        <ele>5.8</ele>
        <time>2022-06-21T14:55:40Z</time>
      </trkpt>
      <trkpt lat="45.9265" lon="-0.95006">
        <ele>5.8</ele>
        <time>2022-06-21T14:55:41Z</time>
      </trkpt>
      <trkpt lat="45.9265" lon="-0.95005">
        <ele>5.8</ele>
        <time>2022-06-21T14:55:42Z</time>
      </trkpt>
      <trkpt lat="45.9265" lon="-0.95004">
        <ele>5.8</ele>
        <time>2022-06-21T14:55:44Z</time>
      </trkpt>
      <trkpt lat="45.92651" lon="-0.95004">
        <ele>5.8</ele>
        <time>2022-06-21T14:55:45Z</time>
      </trkpt>
      <trkpt lat="45.92651" lon="-0.95004">
        <ele>5.8</ele>
        <time>2022-06-21T14:55:46Z</time>
      </trkpt>
      <trkpt lat="45.92651" lon="-0.95004">
        <ele>5.8</ele>
        <time>2022-06-21T14:55:47Z</time>
      </trkpt>
      <trkpt lat="45.9265" lon="-0.95002">
        <ele>5.8</ele>
        <time>2022-06-21T14:55:48Z</time>
      </trkpt>
      <trkpt lat="45.92649" lon="-0.95002">
        <ele>5.8</ele>
        <time>2022-06-21T14:55:49Z</time>
      </trkpt>
      <trkpt lat="45.92648" lon="-0.95001">
        <ele>5.8</ele>
        <time>2022-06-21T14:55:50Z</time>
      </trkpt>
      <trkpt lat="45.92648" lon="-0.95001">
        <ele>5.8</ele>
        <time>2022-06-21T14:55:51Z</time>
      </trkpt>
      <trkpt lat="45.92648" lon="-0.95001">
        <ele>5.8</ele>
        <time>2022-06-21T14:55:52Z</time>
      </trkpt>
      <trkpt lat="45.92647" lon="-0.95002">
        <ele>5.8</ele>
        <time>2022-06-21T14:55:53Z</time>
      </trkpt>
      <trkpt lat="45.92647" lon="-0.95003">
        <ele>5.8</ele>
        <time>2022-06-21T14:55:55Z</time>
      </trkpt>
      <trkpt lat="45.92647" lon="-0.95004">
        <ele>5.8</ele>
        <time>2022-06-21T14:55:56Z</time>
      </trkpt>
      <trkpt lat="45.92648" lon="-0.95003">
        <ele>5.8</ele>
        <time>2022-06-21T14:55:57Z</time>
      </trkpt>
      <trkpt lat="45.92649" lon="-0.95002">
        <ele>5.8</ele>
        <time>2022-06-21T14:55:58Z</time>
      </trkpt>
      <trkpt lat="45.9265" lon="-0.95001">
        <ele>5.8</ele>
        <time>2022-06-21T14:56:00Z</time>
      </trkpt>
      <trkpt lat="45.9265" lon="-0.95001">
        <ele>5.8</ele>
        <time>2022-06-21T14:56:01Z</time>
      </trkpt>
      <trkpt lat="45.9265" lon="-0.95">
        <ele>5.8</ele>
        <time>2022-06-21T14:56:02Z</time>
      </trkpt>
      <trkpt lat="45.9265" lon="-0.95001">
        <ele>5.8</ele>
        <time>2022-06-21T14:56:04Z</time>
      </trkpt>
      <trkpt lat="45.9265" lon="-0.95">
        <ele>5.8</ele>
        <time>2022-06-21T14:56:05Z</time>
      </trkpt>
      <trkpt lat="45.9265" lon="-0.95">
        <ele>5.8</ele>
        <time>2022-06-21T14:56:06Z</time>
      </trkpt>
      <trkpt lat="45.92651" lon="-0.95">
        <ele>5.8</ele>
        <time>2022-06-21T14:56:07Z</time>
      </trkpt>
      <trkpt lat="45.92651" lon="-0.94999">
        <ele>5.8</ele>
        <time>2022-06-21T14:56:08Z</time>
      </trkpt>
      <trkpt lat="45.92651" lon="-0.94999">
        <ele>5.8</ele>
        <time>2022-06-21T14:56:09Z</time>
      </trkpt>
      <trkpt lat="45.92651" lon="-0.94999">
        <ele>5.8</ele>
        <time>2022-06-21T14:56:10Z</time>
      </trkpt>
      <trkpt lat="45.92651" lon="-0.94998">
        <ele>5.8</ele>
        <time>2022-06-21T14:56:11Z</time>
      </trkpt>
      <trkpt lat="45.92652" lon="-0.94998">
        <ele>5.8</ele>
        <time>2022-06-21T14:56:12Z</time>
      </trkpt>
      <trkpt lat="45.92652" lon="-0.94998">
        <ele>5.8</ele>
        <time>2022-06-21T14:56:14Z</time>
      </trkpt>
      <trkpt lat="45.92652" lon="-0.94997">
        <ele>5.8</ele>
        <time>2022-06-21T14:56:15Z</time>
      </trkpt>
      <trkpt lat="45.92652" lon="-0.94997">
        <ele>5.8</ele>
        <time>2022-06-21T14:56:16Z</time>
      </trkpt>
      <trkpt lat="45.92652" lon="-0.94997">
        <ele>5.8</ele>
        <time>2022-06-21T14:56:18Z</time>
      </trkpt>
      <trkpt lat="45.92653" lon="-0.94996">
        <ele>5.8</ele>
        <time>2022-06-21T14:56:19Z</time>
      </trkpt>
      <trkpt lat="45.92654" lon="-0.94995">
        <ele>5.8</ele>
        <time>2022-06-21T14:56:20Z</time>
      </trkpt>
      <trkpt lat="45.92654" lon="-0.94994">
        <ele>5.8</ele>
        <time>2022-06-21T14:56:22Z</time>
      </trkpt>
      <trkpt lat="45.92655" lon="-0.94993">
        <ele>5.8</ele>
        <time>2022-06-21T14:56:23Z</time>
      </trkpt>
      <trkpt lat="45.92655" lon="-0.94992">
        <ele>5.8</ele>
        <time>2022-06-21T14:56:24Z</time>
      </trkpt>
      <trkpt lat="45.92656" lon="-0.94991">
        <ele>5.8</ele>
        <time>2022-06-21T14:56:25Z</time>
      </trkpt>
      <trkpt lat="45.92656" lon="-0.9499">
        <ele>5.8</ele>
        <time>2022-06-21T14:56:26Z</time>
      </trkpt>
      <trkpt lat="45.92657" lon="-0.94989">
        <ele>5.8</ele>
        <time>2022-06-21T14:56:27Z</time>
      </trkpt>
      <trkpt lat="45.92657" lon="-0.94988">
        <ele>5.8</ele>
        <time>2022-06-21T14:56:29Z</time>
      </trkpt>
      <trkpt lat="45.92657" lon="-0.94987">
        <ele>5.8</ele>
        <time>2022-06-21T14:56:30Z</time>
      </trkpt>
      <trkpt lat="45.92658" lon="-0.94987">
        <ele>5.8</ele>
        <time>2022-06-21T14:56:31Z</time>
      </trkpt>
      <trkpt lat="45.92658" lon="-0.94986">
        <ele>5.8</ele>
        <time>2022-06-21T14:56:33Z</time>
      </trkpt>
      <trkpt lat="45.92658" lon="-0.94986">
        <ele>5.8</ele>
        <time>2022-06-21T14:56:34Z</time>
      </trkpt>
      <trkpt lat="45.92658" lon="-0.94986">
        <ele>5.8</ele>
        <time>2022-06-21T14:56:35Z</time>
      </trkpt>
      <trkpt lat="45.92658" lon="-0.94985">
        <ele>5.8</ele>
        <time>2022-06-21T14:56:36Z</time>
      </trkpt>
      <trkpt lat="45.92658" lon="-0.94985">
        <ele>5.8</ele>
        <time>2022-06-21T14:56:38Z</time>
      </trkpt>
      <trkpt lat="45.92657" lon="-0.94986">
        <ele>5.8</ele>
        <time>2022-06-21T14:56:39Z</time>
      </trkpt>
      <trkpt lat="45.92657" lon="-0.94986">
        <ele>5.8</ele>
        <time>2022-06-21T14:56:40Z</time>
      </trkpt>
      <trkpt lat="45.92657" lon="-0.94987">
        <ele>5.8</ele>
        <time>2022-06-21T14:56:41Z</time>
      </trkpt>
      <trkpt lat="45.92657" lon="-0.94987">
        <ele>5.8</ele>
        <time>2022-06-21T14:56:42Z</time>
      </trkpt>
      <trkpt lat="45.92657" lon="-0.94987">
        <ele>5.8</ele>
        <time>2022-06-21T14:56:43Z</time>
      </trkpt>
      <trkpt lat="45.92657" lon="-0.94987">
        <ele>5.8</ele>
        <time>2022-06-21T14:56:44Z</time>
      </trkpt>
      <trkpt lat="45.92657" lon="-0.94987">
        <ele>5.8</ele>
        <time>2022-06-21T14:56:45Z</time>
      </trkpt>
      <trkpt lat="45.92657" lon="-0.94987">
        <ele>5.8</ele>
        <time>2022-06-21T14:56:46Z</time>
      </trkpt>
      <trkpt lat="45.92657" lon="-0.94988">
        <ele>5.8</ele>
        <time>2022-06-21T14:56:47Z</time>
      </trkpt>
      <trkpt lat="45.92657" lon="-0.94988">
        <ele>5.8</ele>
        <time>2022-06-21T14:56:48Z</time>
      </trkpt>
      <trkpt lat="45.92657" lon="-0.94988">
        <ele>5.8</ele>
        <time>2022-06-21T14:56:49Z</time>
      </trkpt>
      <trkpt lat="45.92657" lon="-0.94988">
        <ele>5.8</ele>
        <time>2022-06-21T14:56:50Z</time>
      </trkpt>
      <trkpt lat="45.92657" lon="-0.94988">
        <ele>5.8</ele>
        <time>2022-06-21T14:56:51Z</time>
      </trkpt>
      <trkpt lat="45.92657" lon="-0.94988">
        <ele>5.8</ele>
        <time>2022-06-21T14:56:52Z</time>
      </trkpt>
      <trkpt lat="45.92657" lon="-0.94988">
        <ele>5.8</ele>
        <time>2022-06-21T14:56:53Z</time>
      </trkpt>
      <trkpt lat="45.92654" lon="-0.9499">
        <ele>5.8</ele>
        <time>2022-06-21T14:56:54Z</time>
      </trkpt>
      <trkpt lat="45.92654" lon="-0.94991">
        <ele>5.8</ele>
        <time>2022-06-21T14:56:55Z</time>
      </trkpt>
      <trkpt lat="45.92654" lon="-0.94991">
        <ele>5.8</ele>
        <time>2022-06-21T14:56:56Z</time>
      </trkpt>
      <trkpt lat="45.92656" lon="-0.94987">
        <ele>5.8</ele>
        <time>2022-06-21T14:57:16Z</time>
      </trkpt>
      <trkpt lat="45.92656" lon="-0.94987">
        <ele>5.8</ele>
        <time>2022-06-21T14:57:22Z</time>
      </trkpt>
      <trkpt lat="45.92656" lon="-0.94986">
        <ele>5.8</ele>
        <time>2022-06-21T14:57:32Z</time>
      </trkpt>
      <trkpt lat="45.92655" lon="-0.94988">
        <ele>5.8</ele>
        <time>2022-06-21T14:57:42Z</time>
      </trkpt>
      <trkpt lat="45.92655" lon="-0.94988">
        <ele>5.8</ele>
        <time>2022-06-21T14:57:47Z</time>
      </trkpt>
      <trkpt lat="45.92656" lon="-0.94985">
        <ele>5.8</ele>
        <time>2022-06-21T14:57:51Z</time>
      </trkpt>
      <trkpt lat="45.92657" lon="-0.94986">
        <ele>5.8</ele>
        <time>2022-06-21T14:57:52Z</time>
      </trkpt>
      <trkpt lat="45.92656" lon="-0.94988">
        <ele>5.8</ele>
        <time>2022-06-21T14:57:53Z</time>
      </trkpt>
      <trkpt lat="45.92656" lon="-0.94988">
        <ele>5.8</ele>
        <time>2022-06-21T14:57:54Z</time>
      </trkpt>
      <trkpt lat="45.92656" lon="-0.94988">
        <ele>5.8</ele>
        <time>2022-06-21T14:57:55Z</time>
      </trkpt>
      <trkpt lat="45.92656" lon="-0.94988">
        <ele>5.8</ele>
        <time>2022-06-21T14:57:56Z</time>
      </trkpt>
      <trkpt lat="45.92656" lon="-0.94988">
        <ele>5.8</ele>
        <time>2022-06-21T14:57:57Z</time>
      </trkpt>
      <trkpt lat="45.92656" lon="-0.94987">
        <ele>5.8</ele>
        <time>2022-06-21T14:57:58Z</time>
      </trkpt>
      <trkpt lat="45.92657" lon="-0.94987">
        <ele>5.8</ele>
        <time>2022-06-21T14:57:59Z</time>
      </trkpt>
      <trkpt lat="45.92657" lon="-0.94987">
        <ele>5.8</ele>
        <time>2022-06-21T14:58:00Z</time>
      </trkpt>
      <trkpt lat="45.92657" lon="-0.94987">
        <ele>5.8</ele>
        <time>2022-06-21T14:58:01Z</time>
      </trkpt>
      <trkpt lat="45.92656" lon="-0.94987">
        <ele>5.8</ele>
        <time>2022-06-21T14:58:02Z</time>
      </trkpt>
      <trkpt lat="45.92656" lon="-0.94987">
        <ele>5.8</ele>
        <time>2022-06-21T14:58:03Z</time>
      </trkpt>
      <trkpt lat="45.92656" lon="-0.94987">
        <ele>5.8</ele>
        <time>2022-06-21T14:58:04Z</time>
      </trkpt>
      <trkpt lat="45.92656" lon="-0.94987">
        <ele>5.8</ele>
        <time>2022-06-21T14:58:05Z</time>
      </trkpt>
      <trkpt lat="45.92656" lon="-0.94987">
        <ele>5.8</ele>
        <time>2022-06-21T14:58:06Z</time>
      </trkpt>
      <trkpt lat="45.92656" lon="-0.94987">
        <ele>5.8</ele>
        <time>2022-06-21T14:58:07Z</time>
      </trkpt>
      <trkpt lat="45.92656" lon="-0.94987">
        <ele>5.8</ele>
        <time>2022-06-21T14:58:08Z</time>
      </trkpt>
      <trkpt lat="45.92656" lon="-0.94987">
        <ele>5.8</ele>
        <time>2022-06-21T14:58:09Z</time>
      </trkpt>
      <trkpt lat="45.92656" lon="-0.94987">
        <ele>5.8</ele>
        <time>2022-06-21T14:58:10Z</time>
      </trkpt>
      <trkpt lat="45.92656" lon="-0.94987">
        <ele>5.8</ele>
        <time>2022-06-21T14:58:11Z</time>
      </trkpt>
      <trkpt lat="45.92656" lon="-0.94987">
        <ele>5.8</ele>
        <time>2022-06-21T14:58:12Z</time>
      </trkpt>
      <trkpt lat="45.92656" lon="-0.94987">
        <ele>5.8</ele>
        <time>2022-06-21T14:58:13Z</time>
      </trkpt>
      <trkpt lat="45.92656" lon="-0.94987">
        <ele>5.8</ele>
        <time>2022-06-21T14:58:14Z</time>
      </trkpt>
      <trkpt lat="45.92656" lon="-0.94987">
        <ele>5.8</ele>
        <time>2022-06-21T14:58:15Z</time>
      </trkpt>
    </trkseg>
  </trk>
</gpx>